<?xml version='1.0' encoding='UTF-8'?><gpx version="1.1" creator="JPX - https://github.com/jenetics/jpx" xmlns="http://www.topografix.com/GPX/1/1"><trk><trkseg><trkpt lat="42.32414186095496" lon="13.532673319674267"><ele>728.0</ele><time>2026-05-03T06:54:13.999Z</time></trkpt><trkpt lat="42.32413138669074" lon="13.532757754694593"><ele>728.0</ele><time>2026-05-03T06:54:22.999Z</time></trkpt><trkpt lat="42.324022770062996" lon="13.532755391935888"><ele>728.0</ele><time>2026-05-03T07:00:52.999Z</time></trkpt><trkpt lat="42.323952507584615" lon="13.53277302851171"><ele>728.0</ele><time>2026-05-03T07:01:24.999Z</time></trkpt><trkpt lat="42.32388353305339" lon="13.532738037630617"><ele>728.0</ele><time>2026-05-03T07:01:27.999Z</time></trkpt><trkpt lat="42.323850907673496" lon="13.532662668122805"><ele>728.0</ele><time>2026-05-03T07:02:16.999Z</time></trkpt><trkpt lat="42.32382867688656" lon="13.532571552072588"><ele>727.1666666666666</ele><time>2026-05-03T07:02:23.999Z</time></trkpt><trkpt lat="42.32378752972491" lon="13.532481245203742"><ele>726.3333333333333</ele><time>2026-05-03T07:02:25.999Z</time></trkpt><trkpt lat="42.323779765785304" lon="13.53238249631142"><ele>725.5</ele><time>2026-05-03T07:02:27.999Z</time></trkpt><trkpt lat="42.323812127861544" lon="13.532270571767427"><ele>724.6666666666666</ele><time>2026-05-03T07:02:29.999Z</time></trkpt><trkpt lat="42.32385092354855" lon="13.53215921815739"><ele>723.8333333333334</ele><time>2026-05-03T07:02:31.999Z</time></trkpt><trkpt lat="42.32389075531607" lon="13.53206310961647"><ele>723.0</ele><time>2026-05-03T07:02:33.999Z</time></trkpt><trkpt lat="42.323916319793554" lon="13.531967421844834"><ele>722.3333333333334</ele><time>2026-05-03T07:02:35.999Z</time></trkpt><trkpt lat="42.323915033636304" lon="13.531850179956761"><ele>721.6666666666666</ele><time>2026-05-03T07:02:37.999Z</time></trkpt><trkpt lat="42.32390764436174" lon="13.531748215155165"><ele>721.0</ele><time>2026-05-03T07:02:39.999Z</time></trkpt><trkpt lat="42.32393026460039" lon="13.531585510671697"><ele>720.3333333333333</ele><time>2026-05-03T07:02:42.999Z</time></trkpt><trkpt lat="42.32396453102586" lon="13.531491836641582"><ele>719.6666666666666</ele><time>2026-05-03T07:02:43.999Z</time></trkpt><trkpt lat="42.32400242450997" lon="13.531406479841742"><ele>719.0</ele><time>2026-05-03T07:02:44.999Z</time></trkpt><trkpt lat="42.32403878271599" lon="13.53131612104242"><ele>717.5</ele><time>2026-05-03T07:02:45.999Z</time></trkpt><trkpt lat="42.32408404720616" lon="13.531202145819837"><ele>716.0</ele><time>2026-05-03T07:02:46.999Z</time></trkpt><trkpt lat="42.324144090157006" lon="13.531048165000284"><ele>714.5</ele><time>2026-05-03T07:02:47.999Z</time></trkpt><trkpt lat="42.324204089659396" lon="13.53088544458255"><ele>713.0</ele><time>2026-05-03T07:02:48.999Z</time></trkpt><trkpt lat="42.324264453010635" lon="13.530715853092516"><ele>713.0</ele><time>2026-05-03T07:02:49.999Z</time></trkpt><trkpt lat="42.324317223782906" lon="13.530540613219086"><ele>713.0</ele><time>2026-05-03T07:02:50.999Z</time></trkpt><trkpt lat="42.32436055823395" lon="13.530365762587248"><ele>713.0</ele><time>2026-05-03T07:02:51.999Z</time></trkpt><trkpt lat="42.324404029257536" lon="13.530172962268175"><ele>713.0</ele><time>2026-05-03T07:02:52.999Z</time></trkpt><trkpt lat="42.32444037324788" lon="13.52996652541949"><ele>710.6666666666666</ele><time>2026-05-03T07:02:53.999Z</time></trkpt><trkpt lat="42.32446513376618" lon="13.52975909583981"><ele>708.3333333333334</ele><time>2026-05-03T07:02:54.999Z</time></trkpt><trkpt lat="42.32448227186848" lon="13.529551574723175"><ele>706.0</ele><time>2026-05-03T07:02:55.999Z</time></trkpt><trkpt lat="42.32449346423435" lon="13.529355465511628"><ele>705.25</ele><time>2026-05-03T07:02:56.999Z</time></trkpt><trkpt lat="42.324494952736565" lon="13.52916450274703"><ele>704.5</ele><time>2026-05-03T07:02:57.999Z</time></trkpt><trkpt lat="42.32448437373172" lon="13.528956174264875"><ele>703.75</ele><time>2026-05-03T07:02:58.999Z</time></trkpt><trkpt lat="42.3244637738686" lon="13.52875705128354"><ele>703.0</ele><time>2026-05-03T07:02:59.999Z</time></trkpt><trkpt lat="42.324446126751326" lon="13.528564297253295"><ele>702.3333333333334</ele><time>2026-05-03T07:03:00.999Z</time></trkpt><trkpt lat="42.3244252247258" lon="13.528361126448365"><ele>701.6666666666666</ele><time>2026-05-03T07:03:01.999Z</time></trkpt><trkpt lat="42.32440273353589" lon="13.528148068368264"><ele>701.0</ele><time>2026-05-03T07:03:02.999Z</time></trkpt><trkpt lat="42.32438072951939" lon="13.52794733277103"><ele>699.75</ele><time>2026-05-03T07:03:03.999Z</time></trkpt><trkpt lat="42.324364172244486" lon="13.527756464811405"><ele>698.5</ele><time>2026-05-03T07:03:04.999Z</time></trkpt><trkpt lat="42.32434321413432" lon="13.527568614964755"><ele>697.25</ele><time>2026-05-03T07:03:05.999Z</time></trkpt><trkpt lat="42.32432319985447" lon="13.5273861244504"><ele>696.0</ele><time>2026-05-03T07:03:06.999Z</time></trkpt><trkpt lat="42.32432045580254" lon="13.527206648204446"><ele>695.5</ele><time>2026-05-03T07:03:08Z</time></trkpt><trkpt lat="42.32430066053946" lon="13.527037452080108"><ele>695.0</ele><time>2026-05-03T07:03:09Z</time></trkpt><trkpt lat="42.32428028875559" lon="13.526873680731951"><ele>694.5</ele><time>2026-05-03T07:03:10Z</time></trkpt><trkpt lat="42.32425594888474" lon="13.526706265205187"><ele>694.0</ele><time>2026-05-03T07:03:11Z</time></trkpt><trkpt lat="42.32422879333791" lon="13.526518602449498"><ele>694.0</ele><time>2026-05-03T07:03:12Z</time></trkpt><trkpt lat="42.32418298202293" lon="13.526320176061006"><ele>694.0</ele><time>2026-05-03T07:03:13Z</time></trkpt><trkpt lat="42.32414754574151" lon="13.526111250023023"><ele>694.0</ele><time>2026-05-03T07:03:14Z</time></trkpt><trkpt lat="42.32412792129449" lon="13.525891667187345"><ele>693.3333333333334</ele><time>2026-05-03T07:03:15Z</time></trkpt><trkpt lat="42.324094202544984" lon="13.52568912417952"><ele>692.6666666666666</ele><time>2026-05-03T07:03:16Z</time></trkpt><trkpt lat="42.32406092700137" lon="13.525489242346772"><ele>692.0</ele><time>2026-05-03T07:03:17Z</time></trkpt><trkpt lat="42.3240282467701" lon="13.525292864007714"><ele>691.0</ele><time>2026-05-03T07:03:18Z</time></trkpt><trkpt lat="42.32399570642809" lon="13.525097328832581"><ele>690.0</ele><time>2026-05-03T07:03:19Z</time></trkpt><trkpt lat="42.323963348762966" lon="13.524902891396026"><ele>689.0</ele><time>2026-05-03T07:03:20Z</time></trkpt><trkpt lat="42.3239297839109" lon="13.524701200071513"><ele>688.0</ele><time>2026-05-03T07:03:21Z</time></trkpt><trkpt lat="42.32389573397517" lon="13.5244965938514"><ele>685.25</ele><time>2026-05-03T07:03:22Z</time></trkpt><trkpt lat="42.32387443994091" lon="13.524368638085965"><ele>682.5</ele><time>2026-05-03T07:03:23Z</time></trkpt><trkpt lat="42.32383947731252" lon="13.524158589511883"><ele>679.75</ele><time>2026-05-03T07:03:24Z</time></trkpt><trkpt lat="42.32380191101778" lon="13.52393435222924"><ele>677.0</ele><time>2026-05-03T07:03:25Z</time></trkpt><trkpt lat="42.32376475491539" lon="13.523712562761837"><ele>675.6666666666666</ele><time>2026-05-03T07:03:26Z</time></trkpt><trkpt lat="42.323729387472056" lon="13.523501450092883"><ele>674.3333333333334</ele><time>2026-05-03T07:03:27Z</time></trkpt><trkpt lat="42.32369246596443" lon="13.523277936820431"><ele>673.0</ele><time>2026-05-03T07:03:28Z</time></trkpt><trkpt lat="42.323658406336136" lon="13.523063754119129"><ele>672.0</ele><time>2026-05-03T07:03:29Z</time></trkpt><trkpt lat="42.32362780345005" lon="13.522853361978457"><ele>671.0</ele><time>2026-05-03T07:03:30Z</time></trkpt><trkpt lat="42.32358860668429" lon="13.522651611542841"><ele>670.0</ele><time>2026-05-03T07:03:31Z</time></trkpt><trkpt lat="42.323596956484806" lon="13.522433471767105"><ele>670.0</ele><time>2026-05-03T07:03:32Z</time></trkpt><trkpt lat="42.3236062927071" lon="13.522212151163258"><ele>670.0</ele><time>2026-05-03T07:03:33Z</time></trkpt><trkpt lat="42.32362411879352" lon="13.521980363943085"><ele>670.0</ele><time>2026-05-03T07:03:34Z</time></trkpt><trkpt lat="42.323642695506734" lon="13.52174707098538"><ele>668.6666666666667</ele><time>2026-05-03T07:03:35Z</time></trkpt><trkpt lat="42.32366036155613" lon="13.52151683189477"><ele>667.3333333333334</ele><time>2026-05-03T07:03:36Z</time></trkpt><trkpt lat="42.323678446884166" lon="13.521281127657375"><ele>666.0</ele><time>2026-05-03T07:03:37Z</time></trkpt><trkpt lat="42.323696162712814" lon="13.521050239313137"><ele>665.6666666666666</ele><time>2026-05-03T07:03:38Z</time></trkpt><trkpt lat="42.32369699551147" lon="13.520829745807069"><ele>665.3333333333333</ele><time>2026-05-03T07:03:39Z</time></trkpt><trkpt lat="42.3237229192122" lon="13.520601033479183"><ele>665.0</ele><time>2026-05-03T07:03:40Z</time></trkpt><trkpt lat="42.32374272812098" lon="13.520362862685936"><ele>664.3333333333333</ele><time>2026-05-03T07:03:41Z</time></trkpt><trkpt lat="42.32375809400679" lon="13.52011989582082"><ele>663.6666666666666</ele><time>2026-05-03T07:03:42Z</time></trkpt><trkpt lat="42.32377707191379" lon="13.519877073543492"><ele>663.0</ele><time>2026-05-03T07:03:43Z</time></trkpt><trkpt lat="42.32379856329836" lon="13.5196483988174"><ele>662.0</ele><time>2026-05-03T07:03:44Z</time></trkpt><trkpt lat="42.323821744154806" lon="13.519422635564812"><ele>661.0</ele><time>2026-05-03T07:03:45Z</time></trkpt><trkpt lat="42.32384314779694" lon="13.519179019954697"><ele>660.0</ele><time>2026-05-03T07:03:46Z</time></trkpt><trkpt lat="42.32385996058064" lon="13.518926811747464"><ele>660.3333333333334</ele><time>2026-05-03T07:03:47Z</time></trkpt><trkpt lat="42.32387785529293" lon="13.51867574511139"><ele>660.6666666666667</ele><time>2026-05-03T07:03:48Z</time></trkpt><trkpt lat="42.3238955836964" lon="13.518431675127388"><ele>661.0</ele><time>2026-05-03T07:03:49Z</time></trkpt><trkpt lat="42.3239165533187" lon="13.518180830981702"><ele>661.0</ele><time>2026-05-03T07:03:50Z</time></trkpt><trkpt lat="42.32393973464225" lon="13.517909951693463"><ele>661.0</ele><time>2026-05-03T07:03:51Z</time></trkpt><trkpt lat="42.32396395481298" lon="13.517625899670955"><ele>661.0</ele><time>2026-05-03T07:03:52Z</time></trkpt><trkpt lat="42.323987276832284" lon="13.517355746978728"><ele>659.3333333333334</ele><time>2026-05-03T07:03:53Z</time></trkpt><trkpt lat="42.324007058164" lon="13.517102256534105"><ele>657.6666666666666</ele><time>2026-05-03T07:03:54Z</time></trkpt><trkpt lat="42.32404409060112" lon="13.516846885900906"><ele>656.0</ele><time>2026-05-03T07:03:55Z</time></trkpt><trkpt lat="42.32406550862084" lon="13.51658966307736"><ele>654.3333333333333</ele><time>2026-05-03T07:03:56Z</time></trkpt><trkpt lat="42.32408630718262" lon="13.516339879957007"><ele>652.6666666666666</ele><time>2026-05-03T07:03:57Z</time></trkpt><trkpt lat="42.32410664670954" lon="13.516095609332634"><ele>651.0</ele><time>2026-05-03T07:03:58Z</time></trkpt><trkpt lat="42.32412658476571" lon="13.515856160463104"><ele>650.0</ele><time>2026-05-03T07:03:59Z</time></trkpt><trkpt lat="42.32414621654755" lon="13.515620389909657"><ele>649.0</ele><time>2026-05-03T07:04:00Z</time></trkpt><trkpt lat="42.324148458229" lon="13.515372569793433"><ele>648.0</ele><time>2026-05-03T07:04:01Z</time></trkpt><trkpt lat="42.32417197236508" lon="13.51512215277882"><ele>647.3333333333334</ele><time>2026-05-03T07:04:01.999Z</time></trkpt><trkpt lat="42.32419091797572" lon="13.514876531396125"><ele>646.6666666666667</ele><time>2026-05-03T07:04:02.999Z</time></trkpt><trkpt lat="42.32420950940917" lon="13.514646872752857"><ele>646.0</ele><time>2026-05-03T07:04:03.999Z</time></trkpt><trkpt lat="42.324245432672626" lon="13.514426843406417"><ele>644.6666666666667</ele><time>2026-05-03T07:04:04.999Z</time></trkpt><trkpt lat="42.324264684681374" lon="13.514196379762785"><ele>643.3333333333334</ele><time>2026-05-03T07:04:05.999Z</time></trkpt><trkpt lat="42.32428341833493" lon="13.513972121314621"><ele>642.0</ele><time>2026-05-03T07:04:06.999Z</time></trkpt><trkpt lat="42.324302807438194" lon="13.513736466877564"><ele>641.3333333333334</ele><time>2026-05-03T07:04:07.999Z</time></trkpt><trkpt lat="42.32430581997712" lon="13.513496024395982"><ele>640.6666666666667</ele><time>2026-05-03T07:04:08.999Z</time></trkpt><trkpt lat="42.32434135657163" lon="13.51326227794307"><ele>640.0</ele><time>2026-05-03T07:04:09.999Z</time></trkpt><trkpt lat="42.32436034259672" lon="13.513030781268137"><ele>639.3333333333334</ele><time>2026-05-03T07:04:10.999Z</time></trkpt><trkpt lat="42.324379408241825" lon="13.51279931017806"><ele>638.6666666666666</ele><time>2026-05-03T07:04:11.999Z</time></trkpt><trkpt lat="42.32438324686603" lon="13.51255669515251"><ele>638.0</ele><time>2026-05-03T07:04:12.999Z</time></trkpt><trkpt lat="42.324404421620294" lon="13.51230637309038"><ele>637.6666666666666</ele><time>2026-05-03T07:04:13.999Z</time></trkpt><trkpt lat="42.3244297354185" lon="13.512041840187116"><ele>637.3333333333334</ele><time>2026-05-03T07:04:14.999Z</time></trkpt><trkpt lat="42.32446733798382" lon="13.511778375970046"><ele>637.0</ele><time>2026-05-03T07:04:15.999Z</time></trkpt><trkpt lat="42.324477048515234" lon="13.51151973486389"><ele>637.0</ele><time>2026-05-03T07:04:16.999Z</time></trkpt><trkpt lat="42.3244973760423" lon="13.511271229130692"><ele>637.0</ele><time>2026-05-03T07:04:17.999Z</time></trkpt><trkpt lat="42.324519083454" lon="13.511015144918133"><ele>637.0</ele><time>2026-05-03T07:04:18.999Z</time></trkpt><trkpt lat="42.324543225380175" lon="13.510751683852417"><ele>635.6666666666667</ele><time>2026-05-03T07:04:19.999Z</time></trkpt><trkpt lat="42.32457146406799" lon="13.510486205444332"><ele>634.3333333333334</ele><time>2026-05-03T07:04:20.999Z</time></trkpt><trkpt lat="42.32459730188566" lon="13.51021738608376"><ele>633.0</ele><time>2026-05-03T07:04:21.999Z</time></trkpt><trkpt lat="42.32462273757968" lon="13.509947287428583"><ele>632.0</ele><time>2026-05-03T07:04:22.999Z</time></trkpt><trkpt lat="42.324651518789004" lon="13.509671935877934"><ele>631.0</ele><time>2026-05-03T07:04:23.999Z</time></trkpt><trkpt lat="42.32467678783658" lon="13.50939207327513"><ele>630.0</ele><time>2026-05-03T07:04:24.999Z</time></trkpt><trkpt lat="42.32470417554767" lon="13.509114002694707"><ele>629.0</ele><time>2026-05-03T07:04:25.999Z</time></trkpt><trkpt lat="42.32472830777949" lon="13.50883123720041"><ele>628.0</ele><time>2026-05-03T07:04:26.999Z</time></trkpt><trkpt lat="42.32475719348035" lon="13.508549950791403"><ele>627.0</ele><time>2026-05-03T07:04:27.999Z</time></trkpt><trkpt lat="42.32478458674826" lon="13.508264814320988"><ele>627.0</ele><time>2026-05-03T07:04:28.999Z</time></trkpt><trkpt lat="42.324814479401766" lon="13.507974262875608"><ele>627.0</ele><time>2026-05-03T07:04:29.999Z</time></trkpt><trkpt lat="42.32484360215675" lon="13.507674255161774"><ele>627.0</ele><time>2026-05-03T07:04:30.999Z</time></trkpt><trkpt lat="42.32487262182254" lon="13.507361786132794"><ele>623.5</ele><time>2026-05-03T07:04:31.999Z</time></trkpt><trkpt lat="42.324903248364386" lon="13.50705082270536"><ele>620.0</ele><time>2026-05-03T07:04:32.999Z</time></trkpt><trkpt lat="42.32492963774051" lon="13.506758472528062"><ele>620.0</ele><time>2026-05-03T07:04:33.999Z</time></trkpt><trkpt lat="42.32495614929511" lon="13.506478024859645"><ele>620.0</ele><time>2026-05-03T07:04:34.999Z</time></trkpt><trkpt lat="42.32498314065322" lon="13.506193496038891"><ele>620.0</ele><time>2026-05-03T07:04:35.999Z</time></trkpt><trkpt lat="42.325011693718615" lon="13.50590654973031"><ele>618.6666666666666</ele><time>2026-05-03T07:04:36.999Z</time></trkpt><trkpt lat="42.32504050917499" lon="13.505635564188344"><ele>617.3333333333334</ele><time>2026-05-03T07:04:37.999Z</time></trkpt><trkpt lat="42.32506590943345" lon="13.50537442646816"><ele>616.0</ele><time>2026-05-03T07:04:38.999Z</time></trkpt><trkpt lat="42.32508998367526" lon="13.505113692680329"><ele>614.6666666666667</ele><time>2026-05-03T07:04:39.999Z</time></trkpt><trkpt lat="42.325132093737714" lon="13.504848388563683"><ele>613.3333333333334</ele><time>2026-05-03T07:04:40.999Z</time></trkpt><trkpt lat="42.32515755667881" lon="13.504589768816215"><ele>612.0</ele><time>2026-05-03T07:04:41.999Z</time></trkpt><trkpt lat="42.3251786881759" lon="13.504375142340107"><ele>610.5</ele><time>2026-05-03T07:04:42.999Z</time></trkpt><trkpt lat="42.32519531450807" lon="13.504206273462682"><ele>609.0</ele><time>2026-05-03T07:04:43.999Z</time></trkpt><trkpt lat="42.32520243525428" lon="13.5040234499482"><ele>607.5</ele><time>2026-05-03T07:04:44.999Z</time></trkpt><trkpt lat="42.3252213068992" lon="13.503798805440569"><ele>606.0</ele><time>2026-05-03T07:04:45.999Z</time></trkpt><trkpt lat="42.325246864050364" lon="13.50355146489071"><ele>604.6666666666666</ele><time>2026-05-03T07:04:46.999Z</time></trkpt><trkpt lat="42.32527146992085" lon="13.503286473812002"><ele>603.3333333333333</ele><time>2026-05-03T07:04:47.999Z</time></trkpt><trkpt lat="42.32529517996807" lon="13.503013280798207"><ele>602.0</ele><time>2026-05-03T07:04:48.999Z</time></trkpt><trkpt lat="42.325321264656345" lon="13.502739393499267"><ele>601.3333333333333</ele><time>2026-05-03T07:04:49.999Z</time></trkpt><trkpt lat="42.32534799200759" lon="13.502482119766581"><ele>600.6666666666666</ele><time>2026-05-03T07:04:50.999Z</time></trkpt><trkpt lat="42.32538697733693" lon="13.50222630423942"><ele>600.0</ele><time>2026-05-03T07:04:51.999Z</time></trkpt><trkpt lat="42.32539753767141" lon="13.501966356283157"><ele>598.6666666666666</ele><time>2026-05-03T07:04:52.999Z</time></trkpt><trkpt lat="42.325424848172695" lon="13.501696027178141"><ele>597.3333333333333</ele><time>2026-05-03T07:04:53.999Z</time></trkpt><trkpt lat="42.32545452889426" lon="13.501418509349927"><ele>596.0</ele><time>2026-05-03T07:04:54.999Z</time></trkpt><trkpt lat="42.325482541476276" lon="13.501142803673897"><ele>595.3333333333333</ele><time>2026-05-03T07:04:55.999Z</time></trkpt><trkpt lat="42.325507264369136" lon="13.500873836298277"><ele>594.6666666666666</ele><time>2026-05-03T07:04:56.999Z</time></trkpt><trkpt lat="42.3255321102507" lon="13.500615496021155"><ele>594.0</ele><time>2026-05-03T07:04:57.999Z</time></trkpt><trkpt lat="42.32555821115399" lon="13.5003530149885"><ele>595.0</ele><time>2026-05-03T07:04:58.999Z</time></trkpt><trkpt lat="42.3255856263069" lon="13.500094315148896"><ele>596.0</ele><time>2026-05-03T07:04:59.999Z</time></trkpt><trkpt lat="42.32561364305141" lon="13.4998476618724"><ele>597.0</ele><time>2026-05-03T07:05:00.999Z</time></trkpt><trkpt lat="42.32563880983893" lon="13.499605734516882"><ele>596.3333333333334</ele><time>2026-05-03T07:05:01.999Z</time></trkpt><trkpt lat="42.32566584989857" lon="13.499354680514127"><ele>595.6666666666667</ele><time>2026-05-03T07:05:02.999Z</time></trkpt><trkpt lat="42.32569275093491" lon="13.499111452975285"><ele>595.0</ele><time>2026-05-03T07:05:03.999Z</time></trkpt><trkpt lat="42.325718513678346" lon="13.49888320403412"><ele>594.0</ele><time>2026-05-03T07:05:04.999Z</time></trkpt><trkpt lat="42.32573997384275" lon="13.498695512224803"><ele>593.0</ele><time>2026-05-03T07:05:05.999Z</time></trkpt><trkpt lat="42.32575322313723" lon="13.498551066925899"><ele>592.0</ele><time>2026-05-03T07:05:06.999Z</time></trkpt><trkpt lat="42.32576507501135" lon="13.498423799224351"><ele>591.0</ele><time>2026-05-03T07:05:07.999Z</time></trkpt><trkpt lat="42.32577579147957" lon="13.498324379694658"><ele>590.0</ele><time>2026-05-03T07:05:08.999Z</time></trkpt><trkpt lat="42.32578525309722" lon="13.498236221293551"><ele>590.0</ele><time>2026-05-03T07:05:09.999Z</time></trkpt><trkpt lat="42.325800175632395" lon="13.498100826401233"><ele>590.0</ele><time>2026-05-03T07:05:11.999Z</time></trkpt><trkpt lat="42.325817006541335" lon="13.497947034851911"><ele>590.0</ele><time>2026-05-03T07:05:13.999Z</time></trkpt><trkpt lat="42.32582689372652" lon="13.497841360940138"><ele>590.0</ele><time>2026-05-03T07:05:14.999Z</time></trkpt><trkpt lat="42.325840522058854" lon="13.497709949387959"><ele>590.0</ele><time>2026-05-03T07:05:15.999Z</time></trkpt><trkpt lat="42.325855663896974" lon="13.497562200315715"><ele>589.0</ele><time>2026-05-03T07:05:16.999Z</time></trkpt><trkpt lat="42.325869010186906" lon="13.497416378536785"><ele>588.0</ele><time>2026-05-03T07:05:17.999Z</time></trkpt><trkpt lat="42.32588296277594" lon="13.497274697299632"><ele>587.0</ele><time>2026-05-03T07:05:18.999Z</time></trkpt><trkpt lat="42.32590016240526" lon="13.49711171193557"><ele>586.0</ele><time>2026-05-03T07:05:19.999Z</time></trkpt><trkpt lat="42.32592114716818" lon="13.496933004037885"><ele>584.0</ele><time>2026-05-03T07:05:20.999Z</time></trkpt><trkpt lat="42.32594668421152" lon="13.496734279462805"><ele>582.0</ele><time>2026-05-03T07:05:21.999Z</time></trkpt><trkpt lat="42.32598466702657" lon="13.496530586303171"><ele>580.0</ele><time>2026-05-03T07:05:22.999Z</time></trkpt><trkpt lat="42.32603175335705" lon="13.49630988188427"><ele>579.3333333333334</ele><time>2026-05-03T07:05:23.999Z</time></trkpt><trkpt lat="42.32609004968239" lon="13.496067533566935"><ele>578.6666666666666</ele><time>2026-05-03T07:05:24.999Z</time></trkpt><trkpt lat="42.32615769543325" lon="13.495823362001168"><ele>578.0</ele><time>2026-05-03T07:05:25.999Z</time></trkpt><trkpt lat="42.32622252671659" lon="13.495593856637914"><ele>577.0</ele><time>2026-05-03T07:05:26.999Z</time></trkpt><trkpt lat="42.32628845206736" lon="13.49536810099695"><ele>576.0</ele><time>2026-05-03T07:05:27.999Z</time></trkpt><trkpt lat="42.32635658531385" lon="13.49513265908045"><ele>575.0</ele><time>2026-05-03T07:05:28.999Z</time></trkpt><trkpt lat="42.32642999552633" lon="13.494892161580696"><ele>575.6666666666666</ele><time>2026-05-03T07:05:29.999Z</time></trkpt><trkpt lat="42.32649980378863" lon="13.494665412858868"><ele>576.3333333333334</ele><time>2026-05-03T07:05:30.999Z</time></trkpt><trkpt lat="42.326558368212716" lon="13.494459585519568"><ele>577.0</ele><time>2026-05-03T07:05:31.999Z</time></trkpt><trkpt lat="42.32662002785756" lon="13.494263956143772"><ele>577.0</ele><time>2026-05-03T07:05:32.999Z</time></trkpt><trkpt lat="42.326683396134975" lon="13.494062099710032"><ele>577.0</ele><time>2026-05-03T07:05:33.999Z</time></trkpt><trkpt lat="42.326738764754154" lon="13.49386419780129"><ele>577.0</ele><time>2026-05-03T07:05:34.999Z</time></trkpt><trkpt lat="42.326802565806595" lon="13.493648515814948"><ele>576.3333333333334</ele><time>2026-05-03T07:05:35.999Z</time></trkpt><trkpt lat="42.32686663438846" lon="13.493431860569869"><ele>575.6666666666666</ele><time>2026-05-03T07:05:36.999Z</time></trkpt><trkpt lat="42.326932500630015" lon="13.493205284139197"><ele>575.0</ele><time>2026-05-03T07:05:37.999Z</time></trkpt><trkpt lat="42.32700067013733" lon="13.492982804430927"><ele>575.3333333333333</ele><time>2026-05-03T07:05:38.999Z</time></trkpt><trkpt lat="42.3270675451858" lon="13.492760524607302"><ele>575.6666666666666</ele><time>2026-05-03T07:05:39.999Z</time></trkpt><trkpt lat="42.32712712301272" lon="13.492548493370853"><ele>576.0</ele><time>2026-05-03T07:05:40.999Z</time></trkpt><trkpt lat="42.327207064529055" lon="13.492339416680894"><ele>576.0</ele><time>2026-05-03T07:05:41.999Z</time></trkpt><trkpt lat="42.327277674440154" lon="13.492102363151012"><ele>576.0</ele><time>2026-05-03T07:05:42.999Z</time></trkpt><trkpt lat="42.327353572793456" lon="13.491849333398868"><ele>576.0</ele><time>2026-05-03T07:05:43.999Z</time></trkpt><trkpt lat="42.327414104182466" lon="13.491592735120438"><ele>576.3333333333334</ele><time>2026-05-03T07:05:44.999Z</time></trkpt><trkpt lat="42.327485995757975" lon="13.491350792133304"><ele>576.6666666666667</ele><time>2026-05-03T07:05:45.999Z</time></trkpt><trkpt lat="42.327558239007175" lon="13.491110949692194"><ele>577.0</ele><time>2026-05-03T07:05:46.999Z</time></trkpt><trkpt lat="42.327644298366124" lon="13.490878342382471"><ele>577.0</ele><time>2026-05-03T07:05:47.999Z</time></trkpt><trkpt lat="42.327716377885075" lon="13.490636269518708"><ele>577.0</ele><time>2026-05-03T07:05:48.999Z</time></trkpt><trkpt lat="42.32778708407541" lon="13.490398760140463"><ele>577.0</ele><time>2026-05-03T07:05:49.999Z</time></trkpt><trkpt lat="42.32784530315094" lon="13.490149873066807"><ele>577.0</ele><time>2026-05-03T07:05:50.999Z</time></trkpt><trkpt lat="42.327917880577225" lon="13.489907265281362"><ele>577.0</ele><time>2026-05-03T07:05:51.999Z</time></trkpt><trkpt lat="42.32800374296728" lon="13.489673499039133"><ele>577.0</ele><time>2026-05-03T07:05:52.999Z</time></trkpt><trkpt lat="42.32806182683743" lon="13.489420448318626"><ele>577.0</ele><time>2026-05-03T07:05:53.999Z</time></trkpt><trkpt lat="42.328136181686766" lon="13.489174282532861"><ele>577.0</ele><time>2026-05-03T07:05:54.999Z</time></trkpt><trkpt lat="42.3282083245771" lon="13.488930580363624"><ele>577.0</ele><time>2026-05-03T07:05:55.999Z</time></trkpt><trkpt lat="42.328272895782526" lon="13.48871070976557"><ele>577.3333333333334</ele><time>2026-05-03T07:05:56.999Z</time></trkpt><trkpt lat="42.328334481741834" lon="13.488502090801767"><ele>577.6666666666666</ele><time>2026-05-03T07:05:57.999Z</time></trkpt><trkpt lat="42.32839614814359" lon="13.48829962488213"><ele>578.0</ele><time>2026-05-03T07:05:58.999Z</time></trkpt><trkpt lat="42.328451337108824" lon="13.488120528635923"><ele>578.0</ele><time>2026-05-03T07:05:59.999Z</time></trkpt><trkpt lat="42.32850615894412" lon="13.487936247238924"><ele>578.0</ele><time>2026-05-03T07:06:00.999Z</time></trkpt><trkpt lat="42.32856018975041" lon="13.487749098514819"><ele>578.0</ele><time>2026-05-03T07:06:01.999Z</time></trkpt><trkpt lat="42.32863138979295" lon="13.487564390684165"><ele>578.0</ele><time>2026-05-03T07:06:02.999Z</time></trkpt><trkpt lat="42.328694207324936" lon="13.487353916622448"><ele>578.0</ele><time>2026-05-03T07:06:03.999Z</time></trkpt><trkpt lat="42.3287414638301" lon="13.487139669850407"><ele>578.0</ele><time>2026-05-03T07:06:04.999Z</time></trkpt><trkpt lat="42.32880935686261" lon="13.486912491103967"><ele>578.0</ele><time>2026-05-03T07:06:05.999Z</time></trkpt><trkpt lat="42.32889273444396" lon="13.486687251603207"><ele>578.3333333333333</ele><time>2026-05-03T07:06:06.999Z</time></trkpt><trkpt lat="42.32895974940354" lon="13.486461686893207"><ele>578.6666666666666</ele><time>2026-05-03T07:06:07.999Z</time></trkpt><trkpt lat="42.32901082886865" lon="13.486229787147117"><ele>579.0</ele><time>2026-05-03T07:06:08.999Z</time></trkpt><trkpt lat="42.32907948883981" lon="13.485998329009881"><ele>579.3333333333334</ele><time>2026-05-03T07:06:09.999Z</time></trkpt><trkpt lat="42.32915575586131" lon="13.485768531649716"><ele>579.6666666666667</ele><time>2026-05-03T07:06:10.999Z</time></trkpt><trkpt lat="42.3292291637607" lon="13.485525346468773"><ele>580.0</ele><time>2026-05-03T07:06:11.999Z</time></trkpt><trkpt lat="42.32930082728246" lon="13.485294163877233"><ele>580.0</ele><time>2026-05-03T07:06:12.999Z</time></trkpt><trkpt lat="42.329359639849" lon="13.485086293107065"><ele>580.0</ele><time>2026-05-03T07:06:13.999Z</time></trkpt><trkpt lat="42.32942262843159" lon="13.484883602865192"><ele>580.0</ele><time>2026-05-03T07:06:14.999Z</time></trkpt><trkpt lat="42.32949089886778" lon="13.484655598181142"><ele>580.3333333333334</ele><time>2026-05-03T07:06:15.999Z</time></trkpt><trkpt lat="42.329560562813086" lon="13.484418997680422"><ele>580.6666666666666</ele><time>2026-05-03T07:06:16.999Z</time></trkpt><trkpt lat="42.32963392051021" lon="13.484175269596161"><ele>581.0</ele><time>2026-05-03T07:06:17.999Z</time></trkpt><trkpt lat="42.32970235524452" lon="13.483934826175544"><ele>581.6666666666666</ele><time>2026-05-03T07:06:18.999Z</time></trkpt><trkpt lat="42.32977509301927" lon="13.483695927974638"><ele>582.3333333333334</ele><time>2026-05-03T07:06:19.999Z</time></trkpt><trkpt lat="42.3298465959286" lon="13.483458433490334"><ele>583.0</ele><time>2026-05-03T07:06:20.999Z</time></trkpt><trkpt lat="42.329919813863405" lon="13.483215897533855"><ele>583.0</ele><time>2026-05-03T07:06:21.999Z</time></trkpt><trkpt lat="42.32999198575756" lon="13.482968437723098"><ele>583.0</ele><time>2026-05-03T07:06:22.999Z</time></trkpt><trkpt lat="42.33007291615691" lon="13.482703982982105"><ele>583.0</ele><time>2026-05-03T07:06:23.999Z</time></trkpt><trkpt lat="42.330151086133384" lon="13.482431810306181"><ele>583.0</ele><time>2026-05-03T07:06:24.999Z</time></trkpt><trkpt lat="42.33022957525323" lon="13.482175833449643"><ele>583.0</ele><time>2026-05-03T07:06:25.999Z</time></trkpt><trkpt lat="42.330298957222794" lon="13.481943222121885"><ele>583.0</ele><time>2026-05-03T07:06:26.999Z</time></trkpt><trkpt lat="42.33036364218167" lon="13.481732251270824"><ele>583.0</ele><time>2026-05-03T07:06:27.999Z</time></trkpt><trkpt lat="42.33042331699598" lon="13.481523777749961"><ele>583.0</ele><time>2026-05-03T07:06:28.999Z</time></trkpt><trkpt lat="42.330489272843955" lon="13.4813054380098"><ele>583.0</ele><time>2026-05-03T07:06:29.999Z</time></trkpt><trkpt lat="42.33055887272531" lon="13.481069934916913"><ele>584.3333333333334</ele><time>2026-05-03T07:06:30.999Z</time></trkpt><trkpt lat="42.330630129638465" lon="13.480824123989565"><ele>585.6666666666666</ele><time>2026-05-03T07:06:31.999Z</time></trkpt><trkpt lat="42.33070384490774" lon="13.480583115528887"><ele>587.0</ele><time>2026-05-03T07:06:32.999Z</time></trkpt><trkpt lat="42.330775362969916" lon="13.480352564052325"><ele>587.3333333333333</ele><time>2026-05-03T07:06:33.999Z</time></trkpt><trkpt lat="42.330838599512546" lon="13.480137137386318"><ele>587.6666666666666</ele><time>2026-05-03T07:06:34.999Z</time></trkpt><trkpt lat="42.33089379444268" lon="13.479939098956256"><ele>588.0</ele><time>2026-05-03T07:06:35.999Z</time></trkpt><trkpt lat="42.33094424082466" lon="13.479767283628211"><ele>588.25</ele><time>2026-05-03T07:06:36.999Z</time></trkpt><trkpt lat="42.33099687123534" lon="13.479599886211329"><ele>588.5</ele><time>2026-05-03T07:06:37.999Z</time></trkpt><trkpt lat="42.33104824209761" lon="13.479439319827764"><ele>588.75</ele><time>2026-05-03T07:06:38.999Z</time></trkpt><trkpt lat="42.33109250869605" lon="13.47928510966451"><ele>589.0</ele><time>2026-05-03T07:06:39.999Z</time></trkpt><trkpt lat="42.331132796462114" lon="13.479137624182194"><ele>589.0</ele><time>2026-05-03T07:06:40.999Z</time></trkpt><trkpt lat="42.33117730059371" lon="13.478999415997748"><ele>589.0</ele><time>2026-05-03T07:06:41.999Z</time></trkpt><trkpt lat="42.33122340186873" lon="13.47885777167665"><ele>589.0</ele><time>2026-05-03T07:06:42.999Z</time></trkpt><trkpt lat="42.331267055760385" lon="13.47870790805699"><ele>589.0</ele><time>2026-05-03T07:06:43.999Z</time></trkpt><trkpt lat="42.33130845942317" lon="13.47856507443971"><ele>588.75</ele><time>2026-05-03T07:06:44.999Z</time></trkpt><trkpt lat="42.33135547442589" lon="13.478394660799568"><ele>588.5</ele><time>2026-05-03T07:06:45.999Z</time></trkpt><trkpt lat="42.33140742759401" lon="13.478213210864679"><ele>588.25</ele><time>2026-05-03T07:06:46.999Z</time></trkpt><trkpt lat="42.33146097580077" lon="13.478020481337786"><ele>588.0</ele><time>2026-05-03T07:06:47.999Z</time></trkpt><trkpt lat="42.3315169129676" lon="13.477830353577867"><ele>589.3333333333334</ele><time>2026-05-03T07:06:48.999Z</time></trkpt><trkpt lat="42.331569740746176" lon="13.47764840710335"><ele>590.6666666666667</ele><time>2026-05-03T07:06:49.999Z</time></trkpt><trkpt lat="42.33162710295687" lon="13.477457248497737"><ele>592.0</ele><time>2026-05-03T07:06:50.999Z</time></trkpt><trkpt lat="42.33168388949773" lon="13.477263548437643"><ele>592.0</ele><time>2026-05-03T07:06:51.999Z</time></trkpt><trkpt lat="42.33173945878032" lon="13.477076032541598"><ele>592.0</ele><time>2026-05-03T07:06:52.999Z</time></trkpt><trkpt lat="42.3317971551562" lon="13.476889874522826"><ele>592.0</ele><time>2026-05-03T07:06:53.999Z</time></trkpt><trkpt lat="42.33184902532491" lon="13.476699745243847"><ele>592.0</ele><time>2026-05-03T07:06:54.999Z</time></trkpt><trkpt lat="42.3318954174746" lon="13.476524131486842"><ele>592.0</ele><time>2026-05-03T07:06:55.999Z</time></trkpt><trkpt lat="42.33194574501723" lon="13.476341102734755"><ele>592.0</ele><time>2026-05-03T07:06:56.999Z</time></trkpt><trkpt lat="42.331996635072336" lon="13.47615927911663"><ele>592.0</ele><time>2026-05-03T07:06:57.999Z</time></trkpt><trkpt lat="42.332042876068876" lon="13.475985621704496"><ele>592.0</ele><time>2026-05-03T07:06:58.999Z</time></trkpt><trkpt lat="42.33208940229482" lon="13.475805120377837"><ele>592.0</ele><time>2026-05-03T07:06:59.999Z</time></trkpt><trkpt lat="42.33213599112774" lon="13.475618056898782"><ele>592.0</ele><time>2026-05-03T07:07:00.999Z</time></trkpt><trkpt lat="42.33218326723427" lon="13.475428820767412"><ele>592.0</ele><time>2026-05-03T07:07:01.999Z</time></trkpt><trkpt lat="42.332234157331136" lon="13.475223270558605"><ele>592.0</ele><time>2026-05-03T07:07:02.999Z</time></trkpt><trkpt lat="42.33228989329582" lon="13.475006001058794"><ele>592.0</ele><time>2026-05-03T07:07:04Z</time></trkpt><trkpt lat="42.33234610451357" lon="13.474791007126354"><ele>592.0</ele><time>2026-05-03T07:07:05Z</time></trkpt><trkpt lat="42.33240091625068" lon="13.47457939352454"><ele>592.6666666666667</ele><time>2026-05-03T07:07:06Z</time></trkpt><trkpt lat="42.332473953583595" lon="13.47436565825752"><ele>593.3333333333334</ele><time>2026-05-03T07:07:07Z</time></trkpt><trkpt lat="42.33251816877796" lon="13.474131023257863"><ele>594.0</ele><time>2026-05-03T07:07:08Z</time></trkpt><trkpt lat="42.33258143109633" lon="13.473897590373234"><ele>593.6666666666666</ele><time>2026-05-03T07:07:09Z</time></trkpt><trkpt lat="42.332643927183256" lon="13.4736584902405"><ele>593.3333333333333</ele><time>2026-05-03T07:07:10Z</time></trkpt><trkpt lat="42.33270319219691" lon="13.47343397766717"><ele>593.0</ele><time>2026-05-03T07:07:11Z</time></trkpt><trkpt lat="42.33275756289845" lon="13.473220227333966"><ele>593.0</ele><time>2026-05-03T07:07:12Z</time></trkpt><trkpt lat="42.33281034529978" lon="13.473018998953115"><ele>593.0</ele><time>2026-05-03T07:07:13Z</time></trkpt><trkpt lat="42.332856934824264" lon="13.47283052884824"><ele>593.0</ele><time>2026-05-03T07:07:14Z</time></trkpt><trkpt lat="42.33290480673313" lon="13.472641071083666"><ele>593.25</ele><time>2026-05-03T07:07:15Z</time></trkpt><trkpt lat="42.332965378630234" lon="13.472456553579478"><ele>593.5</ele><time>2026-05-03T07:07:16Z</time></trkpt><trkpt lat="42.33301435243546" lon="13.47226668762258"><ele>593.75</ele><time>2026-05-03T07:07:17Z</time></trkpt><trkpt lat="42.333062485952254" lon="13.472084467912218"><ele>594.0</ele><time>2026-05-03T07:07:18Z</time></trkpt><trkpt lat="42.33311361922622" lon="13.471921923244949"><ele>594.0</ele><time>2026-05-03T07:07:19Z</time></trkpt><trkpt lat="42.33316649482206" lon="13.471768826234506"><ele>594.0</ele><time>2026-05-03T07:07:20Z</time></trkpt><trkpt lat="42.33323171226035" lon="13.47161354077681"><ele>594.0</ele><time>2026-05-03T07:07:21Z</time></trkpt><trkpt lat="42.333300627515655" lon="13.47148376037064"><ele>594.0</ele><time>2026-05-03T07:07:22Z</time></trkpt><trkpt lat="42.33338218472841" lon="13.471383550130083"><ele>594.0</ele><time>2026-05-03T07:07:23Z</time></trkpt><trkpt lat="42.33347305311055" lon="13.471320087994155"><ele>594.0</ele><time>2026-05-03T07:07:24Z</time></trkpt><trkpt lat="42.333561877357866" lon="13.471268471099252"><ele>594.0</ele><time>2026-05-03T07:07:25Z</time></trkpt><trkpt lat="42.33361838528959" lon="13.471185955617324"><ele>594.0</ele><time>2026-05-03T07:07:26Z</time></trkpt><trkpt lat="42.333634536247004" lon="13.471068504224283"><ele>594.0</ele><time>2026-05-03T07:07:27Z</time></trkpt><trkpt lat="42.33360826578168" lon="13.470943639381321"><ele>593.5</ele><time>2026-05-03T07:07:28Z</time></trkpt><trkpt lat="42.333560388953615" lon="13.470818958064838"><ele>593.0</ele><time>2026-05-03T07:07:29Z</time></trkpt><trkpt lat="42.33351821124221" lon="13.470676796689915"><ele>592.5</ele><time>2026-05-03T07:07:30Z</time></trkpt><trkpt lat="42.333499837088404" lon="13.470509434499316"><ele>592.0</ele><time>2026-05-03T07:07:31Z</time></trkpt><trkpt lat="42.333520566682395" lon="13.470320770584314"><ele>591.6666666666667</ele><time>2026-05-03T07:07:32Z</time></trkpt><trkpt lat="42.333560621896645" lon="13.470121981602938"><ele>591.3333333333334</ele><time>2026-05-03T07:07:33Z</time></trkpt><trkpt lat="42.33361135126192" lon="13.469920392703667"><ele>591.0</ele><time>2026-05-03T07:07:34Z</time></trkpt><trkpt lat="42.333665819436995" lon="13.46973382428324"><ele>591.0</ele><time>2026-05-03T07:07:35Z</time></trkpt><trkpt lat="42.33371062755439" lon="13.469563358977846"><ele>591.0</ele><time>2026-05-03T07:07:36Z</time></trkpt><trkpt lat="42.333754868217056" lon="13.46939769093351"><ele>591.0</ele><time>2026-05-03T07:07:37Z</time></trkpt><trkpt lat="42.333800121107764" lon="13.469232472502219"><ele>591.0</ele><time>2026-05-03T07:07:38Z</time></trkpt><trkpt lat="42.33384932637378" lon="13.469057699547136"><ele>591.5</ele><time>2026-05-03T07:07:39Z</time></trkpt><trkpt lat="42.33389484674425" lon="13.468889373618266"><ele>592.0</ele><time>2026-05-03T07:07:40Z</time></trkpt><trkpt lat="42.333936957472204" lon="13.46873482394354"><ele>592.5</ele><time>2026-05-03T07:07:41Z</time></trkpt><trkpt lat="42.33397841770783" lon="13.468587777097838"><ele>593.0</ele><time>2026-05-03T07:07:42Z</time></trkpt><trkpt lat="42.33401780870995" lon="13.468441918194063"><ele>593.0</ele><time>2026-05-03T07:07:43Z</time></trkpt><trkpt lat="42.33405747828189" lon="13.46830507928281"><ele>593.0</ele><time>2026-05-03T07:07:44Z</time></trkpt><trkpt lat="42.3340887192043" lon="13.468178687222196"><ele>593.0</ele><time>2026-05-03T07:07:45Z</time></trkpt><trkpt lat="42.33412807910853" lon="13.468050507606963"><ele>593.0</ele><time>2026-05-03T07:07:46Z</time></trkpt><trkpt lat="42.334163647282935" lon="13.467927958020564"><ele>593.0</ele><time>2026-05-03T07:07:47Z</time></trkpt><trkpt lat="42.33419701625321" lon="13.467805035181025"><ele>592.5</ele><time>2026-05-03T07:07:48Z</time></trkpt><trkpt lat="42.334237584791076" lon="13.467669900149966"><ele>592.0</ele><time>2026-05-03T07:07:49Z</time></trkpt><trkpt lat="42.33428176967245" lon="13.46750561379961"><ele>591.5</ele><time>2026-05-03T07:07:50Z</time></trkpt><trkpt lat="42.33434351723464" lon="13.467326692105697"><ele>591.0</ele><time>2026-05-03T07:07:51Z</time></trkpt><trkpt lat="42.33440217576952" lon="13.467115586090857"><ele>591.3333333333334</ele><time>2026-05-03T07:07:52Z</time></trkpt><trkpt lat="42.334462432380626" lon="13.466898728772417"><ele>591.6666666666667</ele><time>2026-05-03T07:07:53Z</time></trkpt><trkpt lat="42.334518019775466" lon="13.46669867547313"><ele>592.0</ele><time>2026-05-03T07:07:54Z</time></trkpt><trkpt lat="42.334550462333645" lon="13.466503795966538"><ele>592.0</ele><time>2026-05-03T07:07:55Z</time></trkpt><trkpt lat="42.334604386124276" lon="13.466327353203681"><ele>592.0</ele><time>2026-05-03T07:07:56Z</time></trkpt><trkpt lat="42.33465154177866" lon="13.466157693837006"><ele>592.0</ele><time>2026-05-03T07:07:57Z</time></trkpt><trkpt lat="42.334701028581634" lon="13.465980870154452"><ele>592.0</ele><time>2026-05-03T07:07:58Z</time></trkpt><trkpt lat="42.3347467815734" lon="13.465810937636846"><ele>592.5</ele><time>2026-05-03T07:07:59Z</time></trkpt><trkpt lat="42.33479299136225" lon="13.46564790531262"><ele>593.0</ele><time>2026-05-03T07:08:00Z</time></trkpt><trkpt lat="42.334843115756705" lon="13.465474731630437"><ele>593.5</ele><time>2026-05-03T07:08:01Z</time></trkpt><trkpt lat="42.33489307300913" lon="13.465303080456826"><ele>594.0</ele><time>2026-05-03T07:08:02Z</time></trkpt><trkpt lat="42.334942688800574" lon="13.46512948379295"><ele>594.0</ele><time>2026-05-03T07:08:03Z</time></trkpt><trkpt lat="42.334990610660164" lon="13.464957417274517"><ele>594.0</ele><time>2026-05-03T07:08:04Z</time></trkpt><trkpt lat="42.335024009891136" lon="13.464796608811188"><ele>594.0</ele><time>2026-05-03T07:08:05Z</time></trkpt><trkpt lat="42.33507605757187" lon="13.464641122392502"><ele>594.0</ele><time>2026-05-03T07:08:06Z</time></trkpt><trkpt lat="42.33512221906207" lon="13.464472772001823"><ele>594.0</ele><time>2026-05-03T07:08:07Z</time></trkpt><trkpt lat="42.33516570955216" lon="13.464298564759224"><ele>594.0</ele><time>2026-05-03T07:08:08Z</time></trkpt><trkpt lat="42.33521535983256" lon="13.464112285367271"><ele>594.0</ele><time>2026-05-03T07:08:09Z</time></trkpt><trkpt lat="42.33526800914727" lon="13.463924695610482"><ele>594.0</ele><time>2026-05-03T07:08:10Z</time></trkpt><trkpt lat="42.335318219369775" lon="13.46374700707053"><ele>594.0</ele><time>2026-05-03T07:08:11Z</time></trkpt><trkpt lat="42.335382032601395" lon="13.463579810813446"><ele>594.0</ele><time>2026-05-03T07:08:12Z</time></trkpt><trkpt lat="42.33541663394898" lon="13.46339213440579"><ele>594.0</ele><time>2026-05-03T07:08:13Z</time></trkpt><trkpt lat="42.33548434601104" lon="13.463212181591492"><ele>594.0</ele><time>2026-05-03T07:08:14Z</time></trkpt><trkpt lat="42.33552171511764" lon="13.463021942678584"><ele>594.75</ele><time>2026-05-03T07:08:15Z</time></trkpt><trkpt lat="42.33556986851195" lon="13.462844019849905"><ele>595.5</ele><time>2026-05-03T07:08:16Z</time></trkpt><trkpt lat="42.335619095473454" lon="13.462675826436133"><ele>596.25</ele><time>2026-05-03T07:08:17Z</time></trkpt><trkpt lat="42.335667680590205" lon="13.462500319399668"><ele>597.0</ele><time>2026-05-03T07:08:18Z</time></trkpt><trkpt lat="42.33571505125374" lon="13.462326226312426"><ele>597.0</ele><time>2026-05-03T07:08:19Z</time></trkpt><trkpt lat="42.33576655060258" lon="13.462145764585271"><ele>597.0</ele><time>2026-05-03T07:08:20Z</time></trkpt><trkpt lat="42.33581432781762" lon="13.461959269012604"><ele>597.0</ele><time>2026-05-03T07:08:21Z</time></trkpt><trkpt lat="42.33586594062966" lon="13.46178369206144"><ele>597.0</ele><time>2026-05-03T07:08:22Z</time></trkpt><trkpt lat="42.335917438038074" lon="13.461608169500408"><ele>596.25</ele><time>2026-05-03T07:08:23Z</time></trkpt><trkpt lat="42.335965378555144" lon="13.461430763142667"><ele>595.5</ele><time>2026-05-03T07:08:24Z</time></trkpt><trkpt lat="42.33601225871723" lon="13.461261516576378"><ele>594.75</ele><time>2026-05-03T07:08:25Z</time></trkpt><trkpt lat="42.33605808234045" lon="13.4610880195169"><ele>594.0</ele><time>2026-05-03T07:08:26Z</time></trkpt><trkpt lat="42.336110430628466" lon="13.460913806199219"><ele>594.0</ele><time>2026-05-03T07:08:27Z</time></trkpt><trkpt lat="42.33615908343559" lon="13.460729359560554"><ele>594.0</ele><time>2026-05-03T07:08:28Z</time></trkpt><trkpt lat="42.33621250368232" lon="13.460539973693802"><ele>594.0</ele><time>2026-05-03T07:08:29Z</time></trkpt><trkpt lat="42.33626475216113" lon="13.460345205694601"><ele>594.0</ele><time>2026-05-03T07:08:30Z</time></trkpt><trkpt lat="42.33633298807715" lon="13.460160568534324"><ele>594.25</ele><time>2026-05-03T07:08:31Z</time></trkpt><trkpt lat="42.336373580760174" lon="13.459960635073001"><ele>594.5</ele><time>2026-05-03T07:08:32Z</time></trkpt><trkpt lat="42.33642402491736" lon="13.459774336686843"><ele>594.75</ele><time>2026-05-03T07:08:33Z</time></trkpt><trkpt lat="42.33647403135759" lon="13.459599622236393"><ele>595.0</ele><time>2026-05-03T07:08:34Z</time></trkpt><trkpt lat="42.336519658268195" lon="13.459425557718278"><ele>595.0</ele><time>2026-05-03T07:08:35Z</time></trkpt><trkpt lat="42.33656744726858" lon="13.459253164725803"><ele>595.0</ele><time>2026-05-03T07:08:36Z</time></trkpt><trkpt lat="42.33663310906792" lon="13.459077406241388"><ele>595.0</ele><time>2026-05-03T07:08:37Z</time></trkpt><trkpt lat="42.336668044112145" lon="13.45888379918119"><ele>595.0</ele><time>2026-05-03T07:08:38Z</time></trkpt><trkpt lat="42.3367147615168" lon="13.458716113460394"><ele>595.0</ele><time>2026-05-03T07:08:39Z</time></trkpt><trkpt lat="42.336760041942654" lon="13.458549102047247"><ele>595.0</ele><time>2026-05-03T07:08:40Z</time></trkpt><trkpt lat="42.33679702296942" lon="13.45840424440908"><ele>595.0</ele><time>2026-05-03T07:08:41Z</time></trkpt><trkpt lat="42.336839579793" lon="13.458264537151377"><ele>595.0</ele><time>2026-05-03T07:08:42Z</time></trkpt><trkpt lat="42.336880200973376" lon="13.458133713747486"><ele>595.0</ele><time>2026-05-03T07:08:43Z</time></trkpt><trkpt lat="42.33692142559587" lon="13.458013010248017"><ele>595.0</ele><time>2026-05-03T07:08:44Z</time></trkpt><trkpt lat="42.33697181799069" lon="13.45790600927082"><ele>595.0</ele><time>2026-05-03T07:08:45Z</time></trkpt><trkpt lat="42.33703925002813" lon="13.457814751770133"><ele>595.0</ele><time>2026-05-03T07:08:46Z</time></trkpt><trkpt lat="42.337108329228215" lon="13.45773802884986"><ele>595.0</ele><time>2026-05-03T07:08:47Z</time></trkpt><trkpt lat="42.33716988691798" lon="13.45765340968588"><ele>595.0</ele><time>2026-05-03T07:08:48Z</time></trkpt><trkpt lat="42.33721724909762" lon="13.457561802051163"><ele>595.0</ele><time>2026-05-03T07:08:49Z</time></trkpt><trkpt lat="42.337220022303285" lon="13.457454626704738"><ele>595.0</ele><time>2026-05-03T07:08:50Z</time></trkpt><trkpt lat="42.3371987915054" lon="13.457342888904169"><ele>595.0</ele><time>2026-05-03T07:08:51Z</time></trkpt><trkpt lat="42.33717340686948" lon="13.457197794232075"><ele>595.0</ele><time>2026-05-03T07:08:52Z</time></trkpt><trkpt lat="42.337181082495114" lon="13.457026996844183"><ele>595.25</ele><time>2026-05-03T07:08:53Z</time></trkpt><trkpt lat="42.337226255989734" lon="13.456852552534446"><ele>595.5</ele><time>2026-05-03T07:08:54Z</time></trkpt><trkpt lat="42.33724450913595" lon="13.456681982510057"><ele>595.75</ele><time>2026-05-03T07:08:55Z</time></trkpt><trkpt lat="42.337271802958725" lon="13.45653442140136"><ele>596.0</ele><time>2026-05-03T07:08:56Z</time></trkpt><trkpt lat="42.33729548667077" lon="13.456382974242668"><ele>597.0</ele><time>2026-05-03T07:08:57Z</time></trkpt><trkpt lat="42.33731639652583" lon="13.456217019220846"><ele>598.0</ele><time>2026-05-03T07:08:58Z</time></trkpt><trkpt lat="42.33732430280833" lon="13.456040278463043"><ele>599.0</ele><time>2026-05-03T07:08:59Z</time></trkpt><trkpt lat="42.337327602245615" lon="13.455878296728688"><ele>600.0</ele><time>2026-05-03T07:09:00Z</time></trkpt><trkpt lat="42.33732290571611" lon="13.455717785710801"><ele>600.0</ele><time>2026-05-03T07:09:01Z</time></trkpt><trkpt lat="42.33730576179256" lon="13.455564061713464"><ele>600.0</ele><time>2026-05-03T07:09:02Z</time></trkpt><trkpt lat="42.33727425130733" lon="13.455396803969363"><ele>600.0</ele><time>2026-05-03T07:09:03Z</time></trkpt><trkpt lat="42.33723900780221" lon="13.455221795909326"><ele>600.0</ele><time>2026-05-03T07:09:04Z</time></trkpt><trkpt lat="42.33720586799384" lon="13.455037236632649"><ele>599.75</ele><time>2026-05-03T07:09:05Z</time></trkpt><trkpt lat="42.33716870183094" lon="13.454857302109186"><ele>599.5</ele><time>2026-05-03T07:09:06Z</time></trkpt><trkpt lat="42.33713243270967" lon="13.454685134393559"><ele>599.25</ele><time>2026-05-03T07:09:07Z</time></trkpt><trkpt lat="42.33710203696046" lon="13.454499866135286"><ele>599.0</ele><time>2026-05-03T07:09:08Z</time></trkpt><trkpt lat="42.33706640548673" lon="13.454305984713105"><ele>599.0</ele><time>2026-05-03T07:09:09Z</time></trkpt><trkpt lat="42.33702457388476" lon="13.454126717527933"><ele>599.0</ele><time>2026-05-03T07:09:10.001Z</time></trkpt><trkpt lat="42.33698233099556" lon="13.45395791888016"><ele>599.0</ele><time>2026-05-03T07:09:11.001Z</time></trkpt><trkpt lat="42.336938805938516" lon="13.453769974038105"><ele>599.0</ele><time>2026-05-03T07:09:12.001Z</time></trkpt><trkpt lat="42.33689439629205" lon="13.453575488228823"><ele>599.5</ele><time>2026-05-03T07:09:13.001Z</time></trkpt><trkpt lat="42.33684811678757" lon="13.45339173771612"><ele>600.0</ele><time>2026-05-03T07:09:14.001Z</time></trkpt><trkpt lat="42.33680880971239" lon="13.453217726905198"><ele>600.5</ele><time>2026-05-03T07:09:15.001Z</time></trkpt><trkpt lat="42.33676863730823" lon="13.453037290746456"><ele>601.0</ele><time>2026-05-03T07:09:16.001Z</time></trkpt><trkpt lat="42.33672515615152" lon="13.45285803748026"><ele>601.5</ele><time>2026-05-03T07:09:17.001Z</time></trkpt><trkpt lat="42.336688802145964" lon="13.452688134907419"><ele>602.0</ele><time>2026-05-03T07:09:18.001Z</time></trkpt><trkpt lat="42.33665862429749" lon="13.452528429323538"><ele>602.5</ele><time>2026-05-03T07:09:19.001Z</time></trkpt><trkpt lat="42.336634768730406" lon="13.452380675838471"><ele>603.0</ele><time>2026-05-03T07:09:20.001Z</time></trkpt><trkpt lat="42.33660621548282" lon="13.452216482952657"><ele>603.0</ele><time>2026-05-03T07:09:21.001Z</time></trkpt><trkpt lat="42.33657620704146" lon="13.4520598010323"><ele>603.0</ele><time>2026-05-03T07:09:22.001Z</time></trkpt><trkpt lat="42.336553018005056" lon="13.451916165169761"><ele>603.0</ele><time>2026-05-03T07:09:23.001Z</time></trkpt><trkpt lat="42.336538524824626" lon="13.45177197629224"><ele>603.0</ele><time>2026-05-03T07:09:24.001Z</time></trkpt><trkpt lat="42.33655026776552" lon="13.451625025603283"><ele>603.0</ele><time>2026-05-03T07:09:25.001Z</time></trkpt><trkpt lat="42.33659223537051" lon="13.451477084448854"><ele>603.0</ele><time>2026-05-03T07:09:26.001Z</time></trkpt><trkpt lat="42.3366375031102" lon="13.451350907779018"><ele>603.0</ele><time>2026-05-03T07:09:27.001Z</time></trkpt><trkpt lat="42.33666066998631" lon="13.451228989340798"><ele>603.0</ele><time>2026-05-03T07:09:29Z</time></trkpt><trkpt lat="42.336594660194315" lon="13.451144058709454"><ele>603.0</ele><time>2026-05-03T07:09:31Z</time></trkpt><trkpt lat="42.33645667188897" lon="13.451047120507967"><ele>603.0</ele><time>2026-05-03T07:09:33Z</time></trkpt><trkpt lat="42.336368852444075" lon="13.450969518540129"><ele>601.25</ele><time>2026-05-03T07:09:34Z</time></trkpt><trkpt lat="42.33628978777954" lon="13.45084994365957"><ele>599.5</ele><time>2026-05-03T07:09:35Z</time></trkpt><trkpt lat="42.33623062478552" lon="13.450686438071381"><ele>597.75</ele><time>2026-05-03T07:09:36Z</time></trkpt><trkpt lat="42.3361896494183" lon="13.450488093978011"><ele>596.0</ele><time>2026-05-03T07:09:37Z</time></trkpt><trkpt lat="42.33614920121855" lon="13.450278533370899"><ele>595.6666666666666</ele><time>2026-05-03T07:09:38Z</time></trkpt><trkpt lat="42.33610015554256" lon="13.450055736855592"><ele>595.3333333333334</ele><time>2026-05-03T07:09:39Z</time></trkpt><trkpt lat="42.33604793768494" lon="13.449822251289921"><ele>595.0</ele><time>2026-05-03T07:09:40Z</time></trkpt><trkpt lat="42.33599716339898" lon="13.449589291155066"><ele>595.6666666666667</ele><time>2026-05-03T07:09:41Z</time></trkpt><trkpt lat="42.33594513119198" lon="13.449362140771134"><ele>596.3333333333334</ele><time>2026-05-03T07:09:42Z</time></trkpt><trkpt lat="42.33589374392867" lon="13.449135285660896"><ele>597.0</ele><time>2026-05-03T07:09:43Z</time></trkpt><trkpt lat="42.335849730046974" lon="13.4489112630828"><ele>598.0</ele><time>2026-05-03T07:09:44Z</time></trkpt><trkpt lat="42.33580825463378" lon="13.448662416110563"><ele>599.0</ele><time>2026-05-03T07:09:45Z</time></trkpt><trkpt lat="42.3357410759871" lon="13.448407980197862"><ele>600.0</ele><time>2026-05-03T07:09:46Z</time></trkpt><trkpt lat="42.33568311395701" lon="13.448148939461154"><ele>600.3333333333334</ele><time>2026-05-03T07:09:47Z</time></trkpt><trkpt lat="42.33562393785285" lon="13.447886840327635"><ele>600.6666666666667</ele><time>2026-05-03T07:09:48Z</time></trkpt><trkpt lat="42.335565300211485" lon="13.447627142187192"><ele>601.0</ele><time>2026-05-03T07:09:49Z</time></trkpt><trkpt lat="42.33551216941001" lon="13.44738447750191"><ele>598.6666666666667</ele><time>2026-05-03T07:09:50Z</time></trkpt><trkpt lat="42.33546196462878" lon="13.447157234264974"><ele>596.3333333333334</ele><time>2026-05-03T07:09:51Z</time></trkpt><trkpt lat="42.33541461189936" lon="13.446945192170022"><ele>594.0</ele><time>2026-05-03T07:09:52Z</time></trkpt><trkpt lat="42.33536959908638" lon="13.446743377209335"><ele>594.0</ele><time>2026-05-03T07:09:53Z</time></trkpt><trkpt lat="42.335328854836824" lon="13.446547162106128"><ele>594.0</ele><time>2026-05-03T07:09:54Z</time></trkpt><trkpt lat="42.33528841809923" lon="13.446362972926787"><ele>594.0</ele><time>2026-05-03T07:09:55Z</time></trkpt><trkpt lat="42.3352485234113" lon="13.44616974317341"><ele>594.0</ele><time>2026-05-03T07:09:56Z</time></trkpt><trkpt lat="42.33520992966946" lon="13.445968152844355"><ele>594.0</ele><time>2026-05-03T07:09:57Z</time></trkpt><trkpt lat="42.33518320274494" lon="13.445750091839072"><ele>594.0</ele><time>2026-05-03T07:09:58Z</time></trkpt><trkpt lat="42.335168264707214" lon="13.445515923506532"><ele>594.0</ele><time>2026-05-03T07:09:59Z</time></trkpt><trkpt lat="42.33516399187173" lon="13.445270785289948"><ele>594.6666666666666</ele><time>2026-05-03T07:10:00Z</time></trkpt><trkpt lat="42.33516203840062" lon="13.44501767860696"><ele>595.3333333333333</ele><time>2026-05-03T07:10:01Z</time></trkpt><trkpt lat="42.335155057723846" lon="13.444760937393175"><ele>596.0</ele><time>2026-05-03T07:10:02Z</time></trkpt><trkpt lat="42.335148472542066" lon="13.444520547713084"><ele>597.0</ele><time>2026-05-03T07:10:03Z</time></trkpt><trkpt lat="42.33514288588256" lon="13.444297110476528"><ele>598.0</ele><time>2026-05-03T07:10:04Z</time></trkpt><trkpt lat="42.335137936840006" lon="13.444084086733799"><ele>599.0</ele><time>2026-05-03T07:10:05Z</time></trkpt><trkpt lat="42.335135220417406" lon="13.443886028287565"><ele>599.0</ele><time>2026-05-03T07:10:06Z</time></trkpt><trkpt lat="42.33513442962695" lon="13.443707642774974"><ele>599.0</ele><time>2026-05-03T07:10:07Z</time></trkpt><trkpt lat="42.33514424781443" lon="13.44354304551555"><ele>599.0</ele><time>2026-05-03T07:10:08Z</time></trkpt><trkpt lat="42.33517080873506" lon="13.443391001126724"><ele>599.0</ele><time>2026-05-03T07:10:09Z</time></trkpt><trkpt lat="42.335206020655995" lon="13.443244303654561"><ele>599.0</ele><time>2026-05-03T07:10:10Z</time></trkpt><trkpt lat="42.33521380615093" lon="13.443087825991553"><ele>599.0</ele><time>2026-05-03T07:10:11Z</time></trkpt><trkpt lat="42.33518466710875" lon="13.44291382465228"><ele>599.0</ele><time>2026-05-03T07:10:12Z</time></trkpt><trkpt lat="42.33514064654144" lon="13.442722603381094"><ele>599.0</ele><time>2026-05-03T07:10:13Z</time></trkpt><trkpt lat="42.335110223643234" lon="13.442513092614176"><ele>598.6666666666666</ele><time>2026-05-03T07:10:14Z</time></trkpt><trkpt lat="42.335099108733395" lon="13.442284585572798"><ele>598.3333333333334</ele><time>2026-05-03T07:10:15Z</time></trkpt><trkpt lat="42.335094657804426" lon="13.442036821651264"><ele>598.0</ele><time>2026-05-03T07:10:16Z</time></trkpt><trkpt lat="42.3350891463105" lon="13.441780970779735"><ele>598.0</ele><time>2026-05-03T07:10:17Z</time></trkpt><trkpt lat="42.33508255888277" lon="13.441528077542717"><ele>598.0</ele><time>2026-05-03T07:10:18Z</time></trkpt><trkpt lat="42.33507669534263" lon="13.44127221114194"><ele>598.0</ele><time>2026-05-03T07:10:19Z</time></trkpt><trkpt lat="42.33507113605514" lon="13.441009113965983"><ele>598.3333333333334</ele><time>2026-05-03T07:10:20Z</time></trkpt><trkpt lat="42.33506449924713" lon="13.44073189186711"><ele>598.6666666666666</ele><time>2026-05-03T07:10:21Z</time></trkpt><trkpt lat="42.335057854197544" lon="13.440446277832383"><ele>599.0</ele><time>2026-05-03T07:10:22Z</time></trkpt><trkpt lat="42.33505291152277" lon="13.440156937614654"><ele>598.3333333333333</ele><time>2026-05-03T07:10:23Z</time></trkpt><trkpt lat="42.33504699078438" lon="13.439878899112816"><ele>597.6666666666666</ele><time>2026-05-03T07:10:24Z</time></trkpt><trkpt lat="42.33504213867423" lon="13.439612131665466"><ele>597.0</ele><time>2026-05-03T07:10:25Z</time></trkpt><trkpt lat="42.33503590332438" lon="13.439355263516168"><ele>597.0</ele><time>2026-05-03T07:10:26Z</time></trkpt><trkpt lat="42.33502978531349" lon="13.43909935035115"><ele>597.0</ele><time>2026-05-03T07:10:27Z</time></trkpt><trkpt lat="42.3350227182109" lon="13.438837373719405"><ele>597.0</ele><time>2026-05-03T07:10:28Z</time></trkpt><trkpt lat="42.33501604009165" lon="13.43857947907271"><ele>596.6666666666666</ele><time>2026-05-03T07:10:29Z</time></trkpt><trkpt lat="42.33500981024701" lon="13.438341189529515"><ele>596.3333333333333</ele><time>2026-05-03T07:10:30Z</time></trkpt><trkpt lat="42.335004978335405" lon="13.438127051008566"><ele>596.0</ele><time>2026-05-03T07:10:31Z</time></trkpt><trkpt lat="42.335002307055234" lon="13.437928462381327"><ele>595.25</ele><time>2026-05-03T07:10:32Z</time></trkpt><trkpt lat="42.33499848168723" lon="13.43772659628203"><ele>594.5</ele><time>2026-05-03T07:10:33Z</time></trkpt><trkpt lat="42.334992687798675" lon="13.43752856117004"><ele>593.75</ele><time>2026-05-03T07:10:34Z</time></trkpt><trkpt lat="42.334988342122294" lon="13.437342528030584"><ele>593.0</ele><time>2026-05-03T07:10:35Z</time></trkpt><trkpt lat="42.33498523898969" lon="13.437171033473774"><ele>593.0</ele><time>2026-05-03T07:10:36Z</time></trkpt><trkpt lat="42.33498150514066" lon="13.437015354815557"><ele>593.0</ele><time>2026-05-03T07:10:37Z</time></trkpt><trkpt lat="42.33498181822925" lon="13.436878034716948"><ele>593.0</ele><time>2026-05-03T07:10:38Z</time></trkpt><trkpt lat="42.33499550406881" lon="13.436763360440684"><ele>593.0</ele><time>2026-05-03T07:10:39Z</time></trkpt><trkpt lat="42.33501784293177" lon="13.436652994798752"><ele>593.0</ele><time>2026-05-03T07:10:40Z</time></trkpt><trkpt lat="42.335053599208486" lon="13.4365489983874"><ele>593.0</ele><time>2026-05-03T07:10:41Z</time></trkpt><trkpt lat="42.33510665221683" lon="13.43645988478079"><ele>593.0</ele><time>2026-05-03T07:10:42Z</time></trkpt><trkpt lat="42.335188685043505" lon="13.43639282150136"><ele>593.0</ele><time>2026-05-03T07:10:43Z</time></trkpt><trkpt lat="42.33529172521067" lon="13.436344705078028"><ele>593.0</ele><time>2026-05-03T07:10:44Z</time></trkpt><trkpt lat="42.335408361676144" lon="13.436297555146838"><ele>593.0</ele><time>2026-05-03T07:10:45Z</time></trkpt><trkpt lat="42.33555533869685" lon="13.4363108347046"><ele>593.3333333333333</ele><time>2026-05-03T07:10:46Z</time></trkpt><trkpt lat="42.335702761325784" lon="13.43628716486697"><ele>593.6666666666666</ele><time>2026-05-03T07:10:47Z</time></trkpt><trkpt lat="42.335851733948644" lon="13.43623653788016"><ele>594.0</ele><time>2026-05-03T07:10:48Z</time></trkpt><trkpt lat="42.33599545788886" lon="13.436158610374267"><ele>594.0</ele><time>2026-05-03T07:10:49Z</time></trkpt><trkpt lat="42.33613279105808" lon="13.436050531221658"><ele>594.0</ele><time>2026-05-03T07:10:50Z</time></trkpt><trkpt lat="42.33626873531917" lon="13.435928000573561"><ele>594.0</ele><time>2026-05-03T07:10:51Z</time></trkpt><trkpt lat="42.33640629418426" lon="13.435800316472395"><ele>594.3333333333334</ele><time>2026-05-03T07:10:52Z</time></trkpt><trkpt lat="42.33654481743966" lon="13.435665356859376"><ele>594.6666666666667</ele><time>2026-05-03T07:10:53Z</time></trkpt><trkpt lat="42.33668431131409" lon="13.435528415484715"><ele>595.0</ele><time>2026-05-03T07:10:54Z</time></trkpt><trkpt lat="42.3368230757112" lon="13.435382377168338"><ele>595.3333333333334</ele><time>2026-05-03T07:10:55Z</time></trkpt><trkpt lat="42.336952732451756" lon="13.435225398585496"><ele>595.6666666666666</ele><time>2026-05-03T07:10:56Z</time></trkpt><trkpt lat="42.337083552288924" lon="13.435074497601683"><ele>596.0</ele><time>2026-05-03T07:10:57Z</time></trkpt><trkpt lat="42.33720361376401" lon="13.434910994374441"><ele>600.0</ele><time>2026-05-03T07:10:58Z</time></trkpt><trkpt lat="42.33731698147621" lon="13.434741590386441"><ele>604.0</ele><time>2026-05-03T07:10:59Z</time></trkpt><trkpt lat="42.337429147588146" lon="13.434575470645544"><ele>608.0</ele><time>2026-05-03T07:11:00Z</time></trkpt><trkpt lat="42.3375410518951" lon="13.434420029148123"><ele>608.0</ele><time>2026-05-03T07:11:01Z</time></trkpt><trkpt lat="42.33764532439492" lon="13.434265919545567"><ele>608.0</ele><time>2026-05-03T07:11:02Z</time></trkpt><trkpt lat="42.33775063320378" lon="13.43411657211191"><ele>608.0</ele><time>2026-05-03T07:11:03Z</time></trkpt><trkpt lat="42.337851825868405" lon="13.433970058385471"><ele>608.0</ele><time>2026-05-03T07:11:04Z</time></trkpt><trkpt lat="42.33796902538846" lon="13.433834136010194"><ele>608.0</ele><time>2026-05-03T07:11:05Z</time></trkpt><trkpt lat="42.33806207067065" lon="13.433652739046542"><ele>608.0</ele><time>2026-05-03T07:11:06Z</time></trkpt><trkpt lat="42.33816557736779" lon="13.433468353985134"><ele>612.3333333333333</ele><time>2026-05-03T07:11:07Z</time></trkpt><trkpt lat="42.33825455972017" lon="13.433265018342816"><ele>616.6666666666666</ele><time>2026-05-03T07:11:08Z</time></trkpt><trkpt lat="42.338334474148134" lon="13.433053212212187"><ele>621.0</ele><time>2026-05-03T07:11:09Z</time></trkpt><trkpt lat="42.33839906822775" lon="13.432850229699"><ele>621.0</ele><time>2026-05-03T07:11:10Z</time></trkpt><trkpt lat="42.33844421220463" lon="13.432652600396658"><ele>621.0</ele><time>2026-05-03T07:11:11Z</time></trkpt><trkpt lat="42.33845909980806" lon="13.43246613762666"><ele>621.0</ele><time>2026-05-03T07:11:12Z</time></trkpt><trkpt lat="42.338441897905355" lon="13.432269249106604"><ele>621.0</ele><time>2026-05-03T07:11:13Z</time></trkpt><trkpt lat="42.338401956670694" lon="13.432044272223076"><ele>620.6666666666666</ele><time>2026-05-03T07:11:14Z</time></trkpt><trkpt lat="42.338353635332766" lon="13.4318229586018"><ele>620.3333333333333</ele><time>2026-05-03T07:11:15Z</time></trkpt><trkpt lat="42.33830253441752" lon="13.431624494108467"><ele>620.0</ele><time>2026-05-03T07:11:16.001Z</time></trkpt><trkpt lat="42.33825954767735" lon="13.431433511659552"><ele>619.0</ele><time>2026-05-03T07:11:17.001Z</time></trkpt><trkpt lat="42.33821594854603" lon="13.431248973266827"><ele>618.0</ele><time>2026-05-03T07:11:18.001Z</time></trkpt><trkpt lat="42.3381792994911" lon="13.43107562023822"><ele>617.0</ele><time>2026-05-03T07:11:19.001Z</time></trkpt><trkpt lat="42.33813746794558" lon="13.430892176285855"><ele>616.0</ele><time>2026-05-03T07:11:20.001Z</time></trkpt><trkpt lat="42.33809533592507" lon="13.43070002445552"><ele>615.25</ele><time>2026-05-03T07:11:21.001Z</time></trkpt><trkpt lat="42.338049987675596" lon="13.43050317909465"><ele>614.5</ele><time>2026-05-03T07:11:22.001Z</time></trkpt><trkpt lat="42.33800611483204" lon="13.4303168356311"><ele>613.75</ele><time>2026-05-03T07:11:23.001Z</time></trkpt><trkpt lat="42.33795820733323" lon="13.430126266654604"><ele>613.0</ele><time>2026-05-03T07:11:24.001Z</time></trkpt><trkpt lat="42.337910307802645" lon="13.429912464845644"><ele>613.0</ele><time>2026-05-03T07:11:25Z</time></trkpt><trkpt lat="42.33786089166559" lon="13.429697375351791"><ele>613.0</ele><time>2026-05-03T07:11:26Z</time></trkpt><trkpt lat="42.3378162462715" lon="13.429504140131332"><ele>613.0</ele><time>2026-05-03T07:11:27Z</time></trkpt><trkpt lat="42.33777006877015" lon="13.429303727659455"><ele>614.3333333333334</ele><time>2026-05-03T07:11:28Z</time></trkpt><trkpt lat="42.337719421353704" lon="13.429088160302552"><ele>615.6666666666666</ele><time>2026-05-03T07:11:29Z</time></trkpt><trkpt lat="42.33767173059397" lon="13.42887563805751"><ele>617.0</ele><time>2026-05-03T07:11:30Z</time></trkpt><trkpt lat="42.337629274969544" lon="13.428667684646634"><ele>618.3333333333333</ele><time>2026-05-03T07:11:31Z</time></trkpt><trkpt lat="42.33758692433828" lon="13.428457495890529"><ele>619.6666666666666</ele><time>2026-05-03T07:11:32Z</time></trkpt><trkpt lat="42.3375448648846" lon="13.42824581542892"><ele>621.0</ele><time>2026-05-03T07:11:33Z</time></trkpt><trkpt lat="42.33750355929262" lon="13.42803929573254"><ele>621.3333333333334</ele><time>2026-05-03T07:11:34Z</time></trkpt><trkpt lat="42.33747225581004" lon="13.427843140099972"><ele>621.6666666666667</ele><time>2026-05-03T07:11:35Z</time></trkpt><trkpt lat="42.3374380293929" lon="13.427641480993088"><ele>622.0</ele><time>2026-05-03T07:11:36Z</time></trkpt><trkpt lat="42.33740575465299" lon="13.427434755614332"><ele>622.0</ele><time>2026-05-03T07:11:37Z</time></trkpt><trkpt lat="42.33739301335852" lon="13.427219052050186"><ele>622.0</ele><time>2026-05-03T07:11:38Z</time></trkpt><trkpt lat="42.337350325613365" lon="13.42700279714296"><ele>622.0</ele><time>2026-05-03T07:11:39Z</time></trkpt><trkpt lat="42.337323075048864" lon="13.426782585206587"><ele>622.25</ele><time>2026-05-03T07:11:40Z</time></trkpt><trkpt lat="42.33729570580049" lon="13.426581085224505"><ele>622.5</ele><time>2026-05-03T07:11:41Z</time></trkpt><trkpt lat="42.337273431150706" lon="13.426392893732361"><ele>622.75</ele><time>2026-05-03T07:11:42Z</time></trkpt><trkpt lat="42.3372587917711" lon="13.426213266561676"><ele>623.0</ele><time>2026-05-03T07:11:43Z</time></trkpt><trkpt lat="42.33725184635174" lon="13.426043239254069"><ele>623.25</ele><time>2026-05-03T07:11:44Z</time></trkpt><trkpt lat="42.337257017943344" lon="13.425869689190934"><ele>623.5</ele><time>2026-05-03T07:11:45Z</time></trkpt><trkpt lat="42.33727495612976" lon="13.425687765826225"><ele>623.75</ele><time>2026-05-03T07:11:46Z</time></trkpt><trkpt lat="42.33731249480837" lon="13.425506234239512"><ele>624.0</ele><time>2026-05-03T07:11:47Z</time></trkpt><trkpt lat="42.33737830075889" lon="13.42532471097065"><ele>624.6666666666666</ele><time>2026-05-03T07:11:47.999Z</time></trkpt><trkpt lat="42.33742250463713" lon="13.425118131117523"><ele>625.3333333333333</ele><time>2026-05-03T07:11:48.999Z</time></trkpt><trkpt lat="42.3374827732631" lon="13.424913075910354"><ele>626.0</ele><time>2026-05-03T07:11:49.999Z</time></trkpt><trkpt lat="42.3375385993305" lon="13.424718315389548"><ele>625.3333333333333</ele><time>2026-05-03T07:11:50.999Z</time></trkpt><trkpt lat="42.33759803512449" lon="13.424530437978131"><ele>624.6666666666666</ele><time>2026-05-03T07:11:51.999Z</time></trkpt><trkpt lat="42.337656934357724" lon="13.424332607149843"><ele>624.0</ele><time>2026-05-03T07:11:52.999Z</time></trkpt><trkpt lat="42.33771077654687" lon="13.4241538577662"><ele>624.0</ele><time>2026-05-03T07:11:53.999Z</time></trkpt><trkpt lat="42.33776383613792" lon="13.423987348864546"><ele>624.0</ele><time>2026-05-03T07:11:54.999Z</time></trkpt><trkpt lat="42.337819242588395" lon="13.423829642851961"><ele>624.0</ele><time>2026-05-03T07:11:55.999Z</time></trkpt><trkpt lat="42.337867448900816" lon="13.423685841698173"><ele>624.0</ele><time>2026-05-03T07:11:56.999Z</time></trkpt><trkpt lat="42.33789488942422" lon="13.42353342351667"><ele>622.5</ele><time>2026-05-03T07:11:57.999Z</time></trkpt><trkpt lat="42.33790692576575" lon="13.423373448713907"><ele>621.0</ele><time>2026-05-03T07:11:58.999Z</time></trkpt><trkpt lat="42.33792505307866" lon="13.423212913000638"><ele>619.5</ele><time>2026-05-03T07:11:59.999Z</time></trkpt><trkpt lat="42.337895838966816" lon="13.423053111359767"><ele>618.0</ele><time>2026-05-03T07:12:00.999Z</time></trkpt><trkpt lat="42.33786742363048" lon="13.42289639330498"><ele>616.0</ele><time>2026-05-03T07:12:01.999Z</time></trkpt><trkpt lat="42.33782921998544" lon="13.422737083722641"><ele>614.0</ele><time>2026-05-03T07:12:02.999Z</time></trkpt><trkpt lat="42.337804565534945" lon="13.422560568337397"><ele>612.0</ele><time>2026-05-03T07:12:03.999Z</time></trkpt><trkpt lat="42.33776697616939" lon="13.422424273788634"><ele>610.0</ele><time>2026-05-03T07:12:04.999Z</time></trkpt><trkpt lat="42.337712573620756" lon="13.422282190693512"><ele>609.4</ele><time>2026-05-03T07:12:05.999Z</time></trkpt><trkpt lat="42.337673427569506" lon="13.422135160290933"><ele>608.8</ele><time>2026-05-03T07:12:06.999Z</time></trkpt><trkpt lat="42.33763863259222" lon="13.421999358626962"><ele>608.2</ele><time>2026-05-03T07:12:07.999Z</time></trkpt><trkpt lat="42.337630602722534" lon="13.421853200827972"><ele>607.6</ele><time>2026-05-03T07:12:08.999Z</time></trkpt><trkpt lat="42.337623743346626" lon="13.421717049550656"><ele>607.0</ele><time>2026-05-03T07:12:09.999Z</time></trkpt><trkpt lat="42.337609795613076" lon="13.421586341880145"><ele>607.0</ele><time>2026-05-03T07:12:10.999Z</time></trkpt><trkpt lat="42.337613356419624" lon="13.421447321088904"><ele>607.0</ele><time>2026-05-03T07:12:11.999Z</time></trkpt><trkpt lat="42.33760933458301" lon="13.421316160301187"><ele>607.0</ele><time>2026-05-03T07:12:12.999Z</time></trkpt><trkpt lat="42.33759891919461" lon="13.421187471084213"><ele>607.0</ele><time>2026-05-03T07:12:13.999Z</time></trkpt><trkpt lat="42.33757944288885" lon="13.42105574490884"><ele>607.0</ele><time>2026-05-03T07:12:14.999Z</time></trkpt><trkpt lat="42.337547509468706" lon="13.420920119094413"><ele>607.0</ele><time>2026-05-03T07:12:15.999Z</time></trkpt><trkpt lat="42.33750928609543" lon="13.420793873208714"><ele>607.0</ele><time>2026-05-03T07:12:16.999Z</time></trkpt><trkpt lat="42.33746401947373" lon="13.420676811900135"><ele>607.0</ele><time>2026-05-03T07:12:17.999Z</time></trkpt><trkpt lat="42.33740499080372" lon="13.420566608585109"><ele>607.0</ele><time>2026-05-03T07:12:18.999Z</time></trkpt><trkpt lat="42.337324869805045" lon="13.420451433230921"><ele>607.0</ele><time>2026-05-03T07:12:19.999Z</time></trkpt><trkpt lat="42.33721972528351" lon="13.420327518994595"><ele>605.25</ele><time>2026-05-03T07:12:20.999Z</time></trkpt><trkpt lat="42.33710431690606" lon="13.42020473656683"><ele>603.5</ele><time>2026-05-03T07:12:21.999Z</time></trkpt><trkpt lat="42.33700240347813" lon="13.420094963340116"><ele>601.75</ele><time>2026-05-03T07:12:22.999Z</time></trkpt><trkpt lat="42.336915838517704" lon="13.419995044427129"><ele>600.0</ele><time>2026-05-03T07:12:23.999Z</time></trkpt><trkpt lat="42.336839192881044" lon="13.419892535590307"><ele>600.0</ele><time>2026-05-03T07:12:24.999Z</time></trkpt><trkpt lat="42.33678405586524" lon="13.419783763083712"><ele>600.0</ele><time>2026-05-03T07:12:25.999Z</time></trkpt><trkpt lat="42.33674940565255" lon="13.419683880059145"><ele>600.0</ele><time>2026-05-03T07:12:26.999Z</time></trkpt><trkpt lat="42.33672409362503" lon="13.419591750297823"><ele>600.0</ele><time>2026-05-03T07:12:27.999Z</time></trkpt><trkpt lat="42.336701536642764" lon="13.41942690649396"><ele>600.0</ele><time>2026-05-03T07:12:29.999Z</time></trkpt><trkpt lat="42.33671419306594" lon="13.419319482662154"><ele>600.0</ele><time>2026-05-03T07:12:30.999Z</time></trkpt><trkpt lat="42.33673971738179" lon="13.419193495899084"><ele>600.0</ele><time>2026-05-03T07:12:31.999Z</time></trkpt><trkpt lat="42.3367738266581" lon="13.41904469592817"><ele>600.0</ele><time>2026-05-03T07:12:32.999Z</time></trkpt><trkpt lat="42.33681104628867" lon="13.418887505701012"><ele>600.0</ele><time>2026-05-03T07:12:33.999Z</time></trkpt><trkpt lat="42.33685348249289" lon="13.418722424317393"><ele>600.6666666666666</ele><time>2026-05-03T07:12:34.999Z</time></trkpt><trkpt lat="42.33690115671568" lon="13.418539606603654"><ele>601.3333333333333</ele><time>2026-05-03T07:12:35.999Z</time></trkpt><trkpt lat="42.33694987450889" lon="13.418344696718876"><ele>602.0</ele><time>2026-05-03T07:12:36.999Z</time></trkpt><trkpt lat="42.33699891054344" lon="13.418140782600148"><ele>601.6666666666666</ele><time>2026-05-03T07:12:37.999Z</time></trkpt><trkpt lat="42.33704772205822" lon="13.417941951098525"><ele>601.3333333333334</ele><time>2026-05-03T07:12:38.999Z</time></trkpt><trkpt lat="42.33709499120534" lon="13.417750035459484"><ele>601.0</ele><time>2026-05-03T07:12:39.999Z</time></trkpt><trkpt lat="42.33714549704137" lon="13.417546229546447"><ele>601.0</ele><time>2026-05-03T07:12:40.999Z</time></trkpt><trkpt lat="42.33720108555582" lon="13.417329067078427"><ele>601.0</ele><time>2026-05-03T07:12:41.999Z</time></trkpt><trkpt lat="42.33725630670447" lon="13.417105369913518"><ele>601.0</ele><time>2026-05-03T07:12:42.999Z</time></trkpt><trkpt lat="42.33731395826897" lon="13.416881536951806"><ele>602.0</ele><time>2026-05-03T07:12:43.999Z</time></trkpt><trkpt lat="42.33736407121542" lon="13.41666601956594"><ele>603.0</ele><time>2026-05-03T07:12:44.999Z</time></trkpt><trkpt lat="42.33741743732259" lon="13.41645192041014"><ele>604.0</ele><time>2026-05-03T07:12:45.999Z</time></trkpt><trkpt lat="42.337466112273944" lon="13.416254251357342"><ele>604.0</ele><time>2026-05-03T07:12:46.999Z</time></trkpt><trkpt lat="42.33750809485701" lon="13.416083400899197"><ele>604.0</ele><time>2026-05-03T07:12:47.999Z</time></trkpt><trkpt lat="42.33754745191561" lon="13.415922887963841"><ele>604.0</ele><time>2026-05-03T07:12:48.999Z</time></trkpt><trkpt lat="42.337586275135045" lon="13.415764908887052"><ele>604.0</ele><time>2026-05-03T07:12:49.999Z</time></trkpt><trkpt lat="42.33762823076579" lon="13.415600478358618"><ele>603.75</ele><time>2026-05-03T07:12:50.999Z</time></trkpt><trkpt lat="42.33766235303685" lon="13.415442213639302"><ele>603.5</ele><time>2026-05-03T07:12:51.999Z</time></trkpt><trkpt lat="42.337699933131354" lon="13.415290414058012"><ele>603.25</ele><time>2026-05-03T07:12:52.999Z</time></trkpt><trkpt lat="42.33773807462856" lon="13.415134296775584"><ele>603.0</ele><time>2026-05-03T07:12:53.999Z</time></trkpt><trkpt lat="42.33778335144921" lon="13.414946962531927"><ele>603.0</ele><time>2026-05-03T07:12:54.999Z</time></trkpt><trkpt lat="42.337848646878456" lon="13.414737185740828"><ele>603.0</ele><time>2026-05-03T07:12:55.999Z</time></trkpt><trkpt lat="42.337905249623915" lon="13.4144999277792"><ele>603.0</ele><time>2026-05-03T07:12:56.999Z</time></trkpt><trkpt lat="42.33796465265636" lon="13.414249749554658"><ele>602.6666666666666</ele><time>2026-05-03T07:12:57.999Z</time></trkpt><trkpt lat="42.33802582637691" lon="13.413984540376807"><ele>602.3333333333333</ele><time>2026-05-03T07:12:58.999Z</time></trkpt><trkpt lat="42.33808480607321" lon="13.413727314934771"><ele>602.0</ele><time>2026-05-03T07:12:59.999Z</time></trkpt><trkpt lat="42.33813948114019" lon="13.41348583338384"><ele>604.0</ele><time>2026-05-03T07:13:00.999Z</time></trkpt><trkpt lat="42.33817519928954" lon="13.413254159618184"><ele>606.0</ele><time>2026-05-03T07:13:01.999Z</time></trkpt><trkpt lat="42.33822363011458" lon="13.413042640201313"><ele>608.0</ele><time>2026-05-03T07:13:02.999Z</time></trkpt><trkpt lat="42.338282912966996" lon="13.412831118765004"><ele>608.0</ele><time>2026-05-03T07:13:03.999Z</time></trkpt><trkpt lat="42.33835119327158" lon="13.4126239015677"><ele>608.0</ele><time>2026-05-03T07:13:04.999Z</time></trkpt><trkpt lat="42.33842790694016" lon="13.412422936600079"><ele>608.0</ele><time>2026-05-03T07:13:05.999Z</time></trkpt><trkpt lat="42.33850454362252" lon="13.412236768322366"><ele>606.25</ele><time>2026-05-03T07:13:06.999Z</time></trkpt><trkpt lat="42.338579183237854" lon="13.41205902525783"><ele>604.5</ele><time>2026-05-03T07:13:07.999Z</time></trkpt><trkpt lat="42.33865177688405" lon="13.411888055561386"><ele>602.75</ele><time>2026-05-03T07:13:08.999Z</time></trkpt><trkpt lat="42.33872154994975" lon="13.411719684546394"><ele>601.0</ele><time>2026-05-03T07:13:09.999Z</time></trkpt><trkpt lat="42.33881114272762" lon="13.411544899617828"><ele>601.0</ele><time>2026-05-03T07:13:10.999Z</time></trkpt><trkpt lat="42.33887695674109" lon="13.411384801121539"><ele>601.0</ele><time>2026-05-03T07:13:11.999Z</time></trkpt><trkpt lat="42.33893556787947" lon="13.411188827629168"><ele>601.0</ele><time>2026-05-03T07:13:12.999Z</time></trkpt><trkpt lat="42.339005104250475" lon="13.410992924924264"><ele>603.0</ele><time>2026-05-03T07:13:13.999Z</time></trkpt><trkpt lat="42.33904782311453" lon="13.410793277617817"><ele>605.0</ele><time>2026-05-03T07:13:14.999Z</time></trkpt><trkpt lat="42.339080308022375" lon="13.410591916550505"><ele>607.0</ele><time>2026-05-03T07:13:15.999Z</time></trkpt><trkpt lat="42.33911698696285" lon="13.410382725773301"><ele>607.0</ele><time>2026-05-03T07:13:16.999Z</time></trkpt><trkpt lat="42.33914345131093" lon="13.410186507567953"><ele>607.0</ele><time>2026-05-03T07:13:17.999Z</time></trkpt><trkpt lat="42.33916337091553" lon="13.410000523371458"><ele>607.0</ele><time>2026-05-03T07:13:18.999Z</time></trkpt><trkpt lat="42.33919437537987" lon="13.409801907427484"><ele>607.0</ele><time>2026-05-03T07:13:19.999Z</time></trkpt><trkpt lat="42.339219030014526" lon="13.409597987539804"><ele>606.0</ele><time>2026-05-03T07:13:20.999Z</time></trkpt><trkpt lat="42.33924729983353" lon="13.409398015790103"><ele>605.0</ele><time>2026-05-03T07:13:22Z</time></trkpt><trkpt lat="42.33927439916312" lon="13.40918916538744"><ele>604.0</ele><time>2026-05-03T07:13:23Z</time></trkpt><trkpt lat="42.33930791578148" lon="13.40898309247121"><ele>604.0</ele><time>2026-05-03T07:13:24Z</time></trkpt><trkpt lat="42.33933908531156" lon="13.408784219272741"><ele>604.0</ele><time>2026-05-03T07:13:25Z</time></trkpt><trkpt lat="42.339364980945945" lon="13.408603173858479"><ele>604.0</ele><time>2026-05-03T07:13:26Z</time></trkpt><trkpt lat="42.339398458027965" lon="13.408428657380044"><ele>604.0</ele><time>2026-05-03T07:13:27Z</time></trkpt><trkpt lat="42.33944128333669" lon="13.408250345223767"><ele>604.0</ele><time>2026-05-03T07:13:28Z</time></trkpt><trkpt lat="42.33949282073378" lon="13.40807548826786"><ele>604.0</ele><time>2026-05-03T07:13:29Z</time></trkpt><trkpt lat="42.33954926215736" lon="13.407885597327224"><ele>604.0</ele><time>2026-05-03T07:13:30Z</time></trkpt><trkpt lat="42.33959919664038" lon="13.407687084619774"><ele>604.0</ele><time>2026-05-03T07:13:31Z</time></trkpt><trkpt lat="42.339659828707916" lon="13.407481031556115"><ele>608.6666666666667</ele><time>2026-05-03T07:13:32Z</time></trkpt><trkpt lat="42.33972261268858" lon="13.40727287271327"><ele>613.3333333333334</ele><time>2026-05-03T07:13:33Z</time></trkpt><trkpt lat="42.339777728823385" lon="13.40706051937485"><ele>618.0</ele><time>2026-05-03T07:13:34Z</time></trkpt><trkpt lat="42.339838417885666" lon="13.406871892677021"><ele>618.0</ele><time>2026-05-03T07:13:35Z</time></trkpt><trkpt lat="42.33990863059819" lon="13.406701178067784"><ele>618.0</ele><time>2026-05-03T07:13:36Z</time></trkpt><trkpt lat="42.34000835033211" lon="13.406554220373266"><ele>618.0</ele><time>2026-05-03T07:13:37Z</time></trkpt><trkpt lat="42.34012528135255" lon="13.406435879825466"><ele>618.0</ele><time>2026-05-03T07:13:38Z</time></trkpt><trkpt lat="42.34025687287543" lon="13.406339869524075"><ele>619.6666666666666</ele><time>2026-05-03T07:13:39Z</time></trkpt><trkpt lat="42.340398348767955" lon="13.406277860241016"><ele>621.3333333333333</ele><time>2026-05-03T07:13:40Z</time></trkpt><trkpt lat="42.340548213062284" lon="13.40624495641714"><ele>623.0</ele><time>2026-05-03T07:13:41Z</time></trkpt><trkpt lat="42.3407004025027" lon="13.406252110321274"><ele>623.0</ele><time>2026-05-03T07:13:42Z</time></trkpt><trkpt lat="42.340844124934925" lon="13.40629426383493"><ele>623.0</ele><time>2026-05-03T07:13:43Z</time></trkpt><trkpt lat="42.34098386110783" lon="13.40636158465224"><ele>623.0</ele><time>2026-05-03T07:13:44Z</time></trkpt><trkpt lat="42.34111785071517" lon="13.40644451117273"><ele>623.0</ele><time>2026-05-03T07:13:45Z</time></trkpt><trkpt lat="42.341255357020465" lon="13.406530543132618"><ele>629.0</ele><time>2026-05-03T07:13:46Z</time></trkpt><trkpt lat="42.34140307462807" lon="13.406613590044811"><ele>635.0</ele><time>2026-05-03T07:13:47Z</time></trkpt><trkpt lat="42.34155776088043" lon="13.40669528773537"><ele>641.0</ele><time>2026-05-03T07:13:48Z</time></trkpt><trkpt lat="42.34171481805605" lon="13.40678067138435"><ele>641.0</ele><time>2026-05-03T07:13:49Z</time></trkpt><trkpt lat="42.34187582632877" lon="13.406870721285943"><ele>641.0</ele><time>2026-05-03T07:13:50Z</time></trkpt><trkpt lat="42.34203670915868" lon="13.406958665430704"><ele>641.0</ele><time>2026-05-03T07:13:51Z</time></trkpt><trkpt lat="42.34220379502017" lon="13.407048201513502"><ele>643.6666666666666</ele><time>2026-05-03T07:13:52Z</time></trkpt><trkpt lat="42.342372144200866" lon="13.407140486289107"><ele>646.3333333333334</ele><time>2026-05-03T07:13:53Z</time></trkpt><trkpt lat="42.34254335456921" lon="13.407236870744121"><ele>649.0</ele><time>2026-05-03T07:13:54Z</time></trkpt><trkpt lat="42.342715880050996" lon="13.407332592308746"><ele>651.0</ele><time>2026-05-03T07:13:55Z</time></trkpt><trkpt lat="42.342890625959384" lon="13.407426762538401"><ele>653.0</ele><time>2026-05-03T07:13:56Z</time></trkpt><trkpt lat="42.343063285740094" lon="13.407521289493008"><ele>655.0</ele><time>2026-05-03T07:13:57Z</time></trkpt><trkpt lat="42.34321721127688" lon="13.407610972532016"><ele>655.75</ele><time>2026-05-03T07:13:58Z</time></trkpt><trkpt lat="42.34334692627585" lon="13.407699549657078"><ele>656.5</ele><time>2026-05-03T07:13:59Z</time></trkpt><trkpt lat="42.34346512529326" lon="13.407798425863358"><ele>657.25</ele><time>2026-05-03T07:14:00Z</time></trkpt><trkpt lat="42.3435801383891" lon="13.407922718558572"><ele>658.0</ele><time>2026-05-03T07:14:01Z</time></trkpt><trkpt lat="42.34368518030318" lon="13.408080323283643"><ele>659.75</ele><time>2026-05-03T07:14:02Z</time></trkpt><trkpt lat="42.3437823720412" lon="13.408254327722805"><ele>661.5</ele><time>2026-05-03T07:14:03Z</time></trkpt><trkpt lat="42.343867994045006" lon="13.408423582313675"><ele>663.25</ele><time>2026-05-03T07:14:04Z</time></trkpt><trkpt lat="42.343950671913106" lon="13.408564295222938"><ele>665.0</ele><time>2026-05-03T07:14:05Z</time></trkpt><trkpt lat="42.34402654694413" lon="13.40866771047127"><ele>665.5</ele><time>2026-05-03T07:14:06Z</time></trkpt><trkpt lat="42.34410146905849" lon="13.408746643167559"><ele>666.0</ele><time>2026-05-03T07:14:07Z</time></trkpt><trkpt lat="42.34417590830144" lon="13.40878595809381"><ele>666.5</ele><time>2026-05-03T07:14:08Z</time></trkpt><trkpt lat="42.34424615520624" lon="13.408775992479669"><ele>667.0</ele><time>2026-05-03T07:14:09Z</time></trkpt><trkpt lat="42.34430269537487" lon="13.408721882861066"><ele>667.5</ele><time>2026-05-03T07:14:10Z</time></trkpt><trkpt lat="42.344354697903434" lon="13.408620264335465"><ele>668.0</ele><time>2026-05-03T07:14:11Z</time></trkpt><trkpt lat="42.344409847895115" lon="13.408498888196572"><ele>668.0</ele><time>2026-05-03T07:14:12Z</time></trkpt><trkpt lat="42.34438429389565" lon="13.408331159949581"><ele>668.0</ele><time>2026-05-03T07:14:13Z</time></trkpt><trkpt lat="42.34434873187064" lon="13.4081932869589"><ele>668.0</ele><time>2026-05-03T07:14:14Z</time></trkpt><trkpt lat="42.34427410225174" lon="13.408068909732338"><ele>668.0</ele><time>2026-05-03T07:14:15Z</time></trkpt><trkpt lat="42.344189612172606" lon="13.407929966508151"><ele>670.0</ele><time>2026-05-03T07:14:16Z</time></trkpt><trkpt lat="42.3441050892657" lon="13.407766467797709"><ele>672.0</ele><time>2026-05-03T07:14:17Z</time></trkpt><trkpt lat="42.34402019869276" lon="13.40760276115174"><ele>674.0</ele><time>2026-05-03T07:14:18Z</time></trkpt><trkpt lat="42.343938718206495" lon="13.407457561458436"><ele>676.0</ele><time>2026-05-03T07:14:19Z</time></trkpt><trkpt lat="42.343865578418786" lon="13.40732608725714"><ele>673.8</ele><time>2026-05-03T07:14:20Z</time></trkpt><trkpt lat="42.34379786446571" lon="13.407198997557817"><ele>671.5999999999999</ele><time>2026-05-03T07:14:21Z</time></trkpt><trkpt lat="42.34374404385187" lon="13.407085702409494"><ele>669.4</ele><time>2026-05-03T07:14:22Z</time></trkpt><trkpt lat="42.34371237600288" lon="13.406971127195781"><ele>667.2</ele><time>2026-05-03T07:14:23Z</time></trkpt><trkpt lat="42.3437150131453" lon="13.406853501704058"><ele>665.0</ele><time>2026-05-03T07:14:24Z</time></trkpt><trkpt lat="42.34376052361662" lon="13.406742996549593"><ele>665.0</ele><time>2026-05-03T07:14:25Z</time></trkpt><trkpt lat="42.34381519437722" lon="13.406659847395916"><ele>665.0</ele><time>2026-05-03T07:14:26Z</time></trkpt><trkpt lat="42.34386900946757" lon="13.40660622103392"><ele>665.0</ele><time>2026-05-03T07:14:27Z</time></trkpt><trkpt lat="42.343972427703456" lon="13.40650198692179"><ele>665.0</ele><time>2026-05-03T07:14:29Z</time></trkpt><trkpt lat="42.34405148311431" lon="13.406402135381752"><ele>665.0</ele><time>2026-05-03T07:14:30Z</time></trkpt><trkpt lat="42.34413368104103" lon="13.406284057879638"><ele>673.3333333333333</ele><time>2026-05-03T07:14:31Z</time></trkpt><trkpt lat="42.34422938142746" lon="13.406125269476401"><ele>681.6666666666666</ele><time>2026-05-03T07:14:32Z</time></trkpt><trkpt lat="42.344332975572726" lon="13.405939040092782"><ele>690.0</ele><time>2026-05-03T07:14:33Z</time></trkpt><trkpt lat="42.34442768609182" lon="13.405743203480487"><ele>690.0</ele><time>2026-05-03T07:14:34Z</time></trkpt><trkpt lat="42.34451811967945" lon="13.405545121347233"><ele>690.0</ele><time>2026-05-03T07:14:35Z</time></trkpt><trkpt lat="42.34460955610867" lon="13.405353724753894"><ele>690.0</ele><time>2026-05-03T07:14:36Z</time></trkpt><trkpt lat="42.34466050406931" lon="13.405138641684687"><ele>694.3333333333334</ele><time>2026-05-03T07:14:37Z</time></trkpt><trkpt lat="42.344712699394066" lon="13.404924051609651"><ele>698.6666666666667</ele><time>2026-05-03T07:14:38Z</time></trkpt><trkpt lat="42.34477132741126" lon="13.404670529364614"><ele>703.0</ele><time>2026-05-03T07:14:39.065Z</time></trkpt><trkpt lat="42.34482390070273" lon="13.404443188445518"><ele>703.0</ele><time>2026-05-03T07:14:40.06Z</time></trkpt><trkpt lat="42.34487547801815" lon="13.404219983526291"><ele>703.0</ele><time>2026-05-03T07:14:41.062Z</time></trkpt><trkpt lat="42.34492789270414" lon="13.403994498160678"><ele>703.0</ele><time>2026-05-03T07:14:42.056Z</time></trkpt><trkpt lat="42.34505814905484" lon="13.403297810610844"><ele>703.0</ele><time>2026-05-03T07:14:45.118Z</time></trkpt><trkpt lat="42.34511470714029" lon="13.403084084703485"><ele>703.0</ele><time>2026-05-03T07:14:46.086Z</time></trkpt><trkpt lat="42.34517452356983" lon="13.40286422990314"><ele>703.0</ele><time>2026-05-03T07:14:47.086Z</time></trkpt><trkpt lat="42.345235417729356" lon="13.402642957276479"><ele>698.5</ele><time>2026-05-03T07:14:48.093Z</time></trkpt><trkpt lat="42.34533685460909" lon="13.402392229888749"><ele>694.0</ele><time>2026-05-03T07:14:52Z</time></trkpt><trkpt lat="42.34535497769441" lon="13.402296357172226"><ele>689.5</ele><time>2026-05-03T07:14:53Z</time></trkpt><trkpt lat="42.34547493643909" lon="13.402169627801074"><ele>685.0</ele><time>2026-05-03T07:14:54Z</time></trkpt><trkpt lat="42.34556719070092" lon="13.402126028588173"><ele>683.5</ele><time>2026-05-03T07:14:55Z</time></trkpt><trkpt lat="42.345782331053115" lon="13.402006665209273"><ele>682.0</ele><time>2026-05-03T07:14:57Z</time></trkpt><trkpt lat="42.34587238969708" lon="13.40196583495605"><ele>680.5</ele><time>2026-05-03T07:14:58Z</time></trkpt><trkpt lat="42.34596429072188" lon="13.401904266734487"><ele>679.0</ele><time>2026-05-03T07:14:59Z</time></trkpt><trkpt lat="42.346047687046415" lon="13.401862763049806"><ele>679.0</ele><time>2026-05-03T07:15:00Z</time></trkpt><trkpt lat="42.346129083301896" lon="13.401880571090368"><ele>679.0</ele><time>2026-05-03T07:15:01Z</time></trkpt><trkpt lat="42.346204598187676" lon="13.401936076168603"><ele>679.0</ele><time>2026-05-03T07:15:02Z</time></trkpt><trkpt lat="42.34627571207351" lon="13.402034385583518"><ele>679.0</ele><time>2026-05-03T07:15:03Z</time></trkpt><trkpt lat="42.34635631044891" lon="13.402117210934767"><ele>679.0</ele><time>2026-05-03T07:15:04Z</time></trkpt><trkpt lat="42.34637629941672" lon="13.402305783763818"><ele>682.0</ele><time>2026-05-03T07:15:05Z</time></trkpt><trkpt lat="42.34643517190334" lon="13.4024734589998"><ele>685.0</ele><time>2026-05-03T07:15:06Z</time></trkpt><trkpt lat="42.346512382130605" lon="13.402654361636348"><ele>688.0</ele><time>2026-05-03T07:15:07Z</time></trkpt><trkpt lat="42.34659908010681" lon="13.402840544480947"><ele>688.3333333333334</ele><time>2026-05-03T07:15:08Z</time></trkpt><trkpt lat="42.34669462764411" lon="13.403040125311565"><ele>688.6666666666666</ele><time>2026-05-03T07:15:09Z</time></trkpt><trkpt lat="42.34679213165583" lon="13.403244783284977"><ele>689.0</ele><time>2026-05-03T07:15:10Z</time></trkpt><trkpt lat="42.346887480251546" lon="13.403433490339442"><ele>689.0</ele><time>2026-05-03T07:15:11Z</time></trkpt><trkpt lat="42.346979262360136" lon="13.403616810388673"><ele>689.0</ele><time>2026-05-03T07:15:12Z</time></trkpt><trkpt lat="42.3470744603968" lon="13.403793561705127"><ele>689.0</ele><time>2026-05-03T07:15:13Z</time></trkpt><trkpt lat="42.34717597367118" lon="13.403969907007133"><ele>690.6666666666666</ele><time>2026-05-03T07:15:14Z</time></trkpt><trkpt lat="42.34728926926106" lon="13.404140157822356"><ele>692.3333333333334</ele><time>2026-05-03T07:15:15Z</time></trkpt><trkpt lat="42.347399792725824" lon="13.404304321166373"><ele>694.0</ele><time>2026-05-03T07:15:16Z</time></trkpt><trkpt lat="42.34751626134512" lon="13.404459266652662"><ele>694.0</ele><time>2026-05-03T07:15:17Z</time></trkpt><trkpt lat="42.34764167198562" lon="13.404606601028206"><ele>694.0</ele><time>2026-05-03T07:15:18Z</time></trkpt><trkpt lat="42.34776140294857" lon="13.404733422042275"><ele>694.0</ele><time>2026-05-03T07:15:18.999Z</time></trkpt><trkpt lat="42.34788294818902" lon="13.404851823963188"><ele>694.25</ele><time>2026-05-03T07:15:19.999Z</time></trkpt><trkpt lat="42.34799973416068" lon="13.404960171919754"><ele>694.5</ele><time>2026-05-03T07:15:20.999Z</time></trkpt><trkpt lat="42.34812533767844" lon="13.405062992471976"><ele>694.75</ele><time>2026-05-03T07:15:21.999Z</time></trkpt><trkpt lat="42.34825377795992" lon="13.40517070348853"><ele>695.0</ele><time>2026-05-03T07:15:22.999Z</time></trkpt><trkpt lat="42.348378752449555" lon="13.405266715660824"><ele>695.0</ele><time>2026-05-03T07:15:23.999Z</time></trkpt><trkpt lat="42.34851573691259" lon="13.405360315060108"><ele>695.0</ele><time>2026-05-03T07:15:24.999Z</time></trkpt><trkpt lat="42.34866163383898" lon="13.405442009044299"><ele>695.0</ele><time>2026-05-03T07:15:25.999Z</time></trkpt><trkpt lat="42.34881513265687" lon="13.405515875889634"><ele>695.0</ele><time>2026-05-03T07:15:26.999Z</time></trkpt><trkpt lat="42.34897256472926" lon="13.405593078743845"><ele>695.0</ele><time>2026-05-03T07:15:28Z</time></trkpt><trkpt lat="42.34913418374371" lon="13.405672527670182"><ele>695.0</ele><time>2026-05-03T07:15:29Z</time></trkpt><trkpt lat="42.34929143911133" lon="13.4057521073963"><ele>695.0</ele><time>2026-05-03T07:15:30Z</time></trkpt><trkpt lat="42.34944214339972" lon="13.405830674478745"><ele>695.0</ele><time>2026-05-03T07:15:31Z</time></trkpt><trkpt lat="42.34959080611048" lon="13.405901512321833"><ele>695.0</ele><time>2026-05-03T07:15:32Z</time></trkpt><trkpt lat="42.34973521423045" lon="13.405973605015296"><ele>696.0</ele><time>2026-05-03T07:15:33Z</time></trkpt><trkpt lat="42.34987888094752" lon="13.406042312667319"><ele>697.0</ele><time>2026-05-03T07:15:34Z</time></trkpt><trkpt lat="42.35001930345259" lon="13.406105021180183"><ele>698.0</ele><time>2026-05-03T07:15:35Z</time></trkpt><trkpt lat="42.35016148781108" lon="13.406170902171898"><ele>698.0</ele><time>2026-05-03T07:15:36Z</time></trkpt><trkpt lat="42.350305632935374" lon="13.406237883281806"><ele>698.0</ele><time>2026-05-03T07:15:37Z</time></trkpt><trkpt lat="42.35044823214233" lon="13.406309184670782"><ele>698.0</ele><time>2026-05-03T07:15:38Z</time></trkpt><trkpt lat="42.35056990545572" lon="13.406367722273606"><ele>698.0</ele><time>2026-05-03T07:15:39Z</time></trkpt><trkpt lat="42.35068202494381" lon="13.40642248499875"><ele>698.25</ele><time>2026-05-03T07:15:40Z</time></trkpt><trkpt lat="42.350789450414176" lon="13.40647918854025"><ele>698.5</ele><time>2026-05-03T07:15:41Z</time></trkpt><trkpt lat="42.35092240908068" lon="13.40653717689725"><ele>698.75</ele><time>2026-05-03T07:15:42Z</time></trkpt><trkpt lat="42.351069083496114" lon="13.406632203889256"><ele>699.0</ele><time>2026-05-03T07:15:43Z</time></trkpt><trkpt lat="42.35122640906872" lon="13.406685947378275"><ele>699.0</ele><time>2026-05-03T07:15:44Z</time></trkpt><trkpt lat="42.351366168231976" lon="13.40676452797721"><ele>699.0</ele><time>2026-05-03T07:15:45Z</time></trkpt><trkpt lat="42.35148796631965" lon="13.40681557061795"><ele>699.0</ele><time>2026-05-03T07:15:46Z</time></trkpt><trkpt lat="42.35157534015559" lon="13.406851138686093"><ele>699.0</ele><time>2026-05-03T07:15:47Z</time></trkpt><trkpt lat="42.3516425719017" lon="13.406869501116661"><ele>699.0</ele><time>2026-05-03T07:15:48Z</time></trkpt><trkpt lat="42.35172558638103" lon="13.406898952399253"><ele>700.0</ele><time>2026-05-03T07:15:50Z</time></trkpt><trkpt lat="42.351663320559254" lon="13.406645279482102"><ele>701.0</ele><time>2026-05-03T07:15:53Z</time></trkpt><trkpt lat="42.35163055710023" lon="13.40654364098385"><ele>702.0</ele><time>2026-05-03T07:15:54Z</time></trkpt><trkpt lat="42.351583027539135" lon="13.40645795948778"><ele>703.0</ele><time>2026-05-03T07:15:55Z</time></trkpt><trkpt lat="42.35152759596754" lon="13.406365358155803"><ele>704.0</ele><time>2026-05-03T07:15:56Z</time></trkpt><trkpt lat="42.35146525313605" lon="13.40626170702822"><ele>703.6666666666666</ele><time>2026-05-03T07:15:57Z</time></trkpt><trkpt lat="42.35140401126653" lon="13.406162207174729"><ele>703.3333333333333</ele><time>2026-05-03T07:15:58Z</time></trkpt><trkpt lat="42.351347265581914" lon="13.406076976776472"><ele>703.0</ele><time>2026-05-03T07:15:59Z</time></trkpt><trkpt lat="42.35128758167326" lon="13.40599100070882"><ele>702.6666666666666</ele><time>2026-05-03T07:16:00Z</time></trkpt><trkpt lat="42.35122468946031" lon="13.405904405163254"><ele>702.3333333333334</ele><time>2026-05-03T07:16:01Z</time></trkpt><trkpt lat="42.351172719662266" lon="13.405833610616403"><ele>702.0</ele><time>2026-05-03T07:16:02Z</time></trkpt><trkpt lat="42.35110841644119" lon="13.405763112220134"><ele>702.0</ele><time>2026-05-03T07:16:04Z</time></trkpt><trkpt lat="42.351063009976734" lon="13.405697794652541"><ele>702.0</ele><time>2026-05-03T07:16:07Z</time></trkpt><trkpt lat="42.35098701089646" lon="13.40558781471427"><ele>702.0</ele><time>2026-05-03T07:16:09Z</time></trkpt><trkpt lat="42.35093669217365" lon="13.405510120810094"><ele>702.0</ele><time>2026-05-03T07:16:10Z</time></trkpt><trkpt lat="42.350886862017795" lon="13.40544777332163"><ele>702.0</ele><time>2026-05-03T07:16:11Z</time></trkpt><trkpt lat="42.35081482294918" lon="13.40535972235283"><ele>702.0</ele><time>2026-05-03T07:16:13Z</time></trkpt><trkpt lat="42.35076207153963" lon="13.405290180254491"><ele>703.6666666666666</ele><time>2026-05-03T07:16:15Z</time></trkpt><trkpt lat="42.35081296406538" lon="13.405195465991039"><ele>705.3333333333334</ele><time>2026-05-03T07:16:20Z</time></trkpt><trkpt lat="42.35092563278314" lon="13.40517026205704"><ele>707.0</ele><time>2026-05-03T07:16:22Z</time></trkpt><trkpt lat="42.3509955631848" lon="13.405160630407165"><ele>708.6666666666667</ele><time>2026-05-03T07:16:23Z</time></trkpt><trkpt lat="42.351066071845054" lon="13.405172234332207"><ele>710.3333333333334</ele><time>2026-05-03T07:16:24Z</time></trkpt><trkpt lat="42.351130421030106" lon="13.405206001952276"><ele>712.0</ele><time>2026-05-03T07:16:25Z</time></trkpt><trkpt lat="42.351217882059565" lon="13.405245979396444"><ele>712.0</ele><time>2026-05-03T07:16:27Z</time></trkpt><trkpt lat="42.35114023916578" lon="13.405189621996001"><ele>712.0</ele><time>2026-05-03T07:16:34.999Z</time></trkpt><trkpt lat="42.35105190570417" lon="13.40518109398346"><ele>712.0</ele><time>2026-05-03T07:16:36.999Z</time></trkpt><trkpt lat="42.35096623864118" lon="13.40517520521183"><ele>712.0</ele><time>2026-05-03T07:16:38.999Z</time></trkpt><trkpt lat="42.350874769055494" lon="13.405169662509747"><ele>712.0</ele><time>2026-05-03T07:16:41.999Z</time></trkpt><trkpt lat="42.350799349227366" lon="13.40518739793494"><ele>712.0</ele><time>2026-05-03T07:16:43.999Z</time></trkpt><trkpt lat="42.350739530318336" lon="13.405223926401261"><ele>712.0</ele><time>2026-05-03T07:16:46.999Z</time></trkpt><trkpt lat="42.3508367721232" lon="13.405233667640164"><ele>712.0</ele><time>2026-05-03T07:17:01.999Z</time></trkpt><trkpt lat="42.3509185148894" lon="13.40519530646645"><ele>712.0</ele><time>2026-05-03T07:17:02.999Z</time></trkpt><trkpt lat="42.35105666367837" lon="13.405202160951683"><ele>712.0</ele><time>2026-05-03T07:17:03.999Z</time></trkpt><trkpt lat="42.351133295890534" lon="13.405232008469422"><ele>712.0</ele><time>2026-05-03T07:17:04.999Z</time></trkpt><trkpt lat="42.35121085460872" lon="13.405262216686982"><ele>712.0</ele><time>2026-05-03T07:17:05.999Z</time></trkpt><trkpt lat="42.3513359559905" lon="13.405313858071475"><ele>712.0</ele><time>2026-05-03T07:17:07.999Z</time></trkpt><trkpt lat="42.35140570838166" lon="13.405354954056843"><ele>712.0</ele><time>2026-05-03T07:17:08.999Z</time></trkpt><trkpt lat="42.35135388159631" lon="13.40612585607576"><ele>712.0</ele><time>2026-05-03T07:17:09.999Z</time></trkpt><trkpt lat="42.351414447125066" lon="13.406219781622646"><ele>712.0</ele><time>2026-05-03T07:17:10.999Z</time></trkpt><trkpt lat="42.35147670448595" lon="13.406310933096394"><ele>712.0</ele><time>2026-05-03T07:17:11.999Z</time></trkpt><trkpt lat="42.351532345611794" lon="13.40639328079744"><ele>712.0</ele><time>2026-05-03T07:17:12.999Z</time></trkpt><trkpt lat="42.35158263130384" lon="13.40647678220184"><ele>712.0</ele><time>2026-05-03T07:17:13.999Z</time></trkpt><trkpt lat="42.35162486176672" lon="13.406556345232747"><ele>712.0</ele><time>2026-05-03T07:17:14.999Z</time></trkpt><trkpt lat="42.351673833556" lon="13.406691874444414"><ele>710.6666666666667</ele><time>2026-05-03T07:17:16.999Z</time></trkpt><trkpt lat="42.35170545770653" lon="13.40678164652474"><ele>709.3333333333334</ele><time>2026-05-03T07:17:18.999Z</time></trkpt><trkpt lat="42.351759632173234" lon="13.406848969242315"><ele>708.0</ele><time>2026-05-03T07:17:20.999Z</time></trkpt><trkpt lat="42.35183299271025" lon="13.406908307811625"><ele>706.6666666666666</ele><time>2026-05-03T07:17:21.999Z</time></trkpt><trkpt lat="42.35192377237465" lon="13.406958058908396"><ele>705.3333333333333</ele><time>2026-05-03T07:17:22.999Z</time></trkpt><trkpt lat="42.352022079130485" lon="13.406988609964051"><ele>704.0</ele><time>2026-05-03T07:17:23.999Z</time></trkpt><trkpt lat="42.35212628341148" lon="13.407009376159147"><ele>704.8000000000001</ele><time>2026-05-03T07:17:24.999Z</time></trkpt><trkpt lat="42.352239229258664" lon="13.407031402118792"><ele>705.6</ele><time>2026-05-03T07:17:25.999Z</time></trkpt><trkpt lat="42.352343455647116" lon="13.40704895959831"><ele>706.4</ele><time>2026-05-03T07:17:26.999Z</time></trkpt><trkpt lat="42.35244086771826" lon="13.407076061115061"><ele>707.2</ele><time>2026-05-03T07:17:27.999Z</time></trkpt><trkpt lat="42.352541907285854" lon="13.407098617270234"><ele>708.0</ele><time>2026-05-03T07:17:28.999Z</time></trkpt><trkpt lat="42.352635462390644" lon="13.407117520814282"><ele>708.0</ele><time>2026-05-03T07:17:29.999Z</time></trkpt><trkpt lat="42.35274063667496" lon="13.407138017251793"><ele>708.0</ele><time>2026-05-03T07:17:30.999Z</time></trkpt><trkpt lat="42.35285173294707" lon="13.407168165337396"><ele>708.0</ele><time>2026-05-03T07:17:31.999Z</time></trkpt><trkpt lat="42.35294537776122" lon="13.407186826140235"><ele>708.0</ele><time>2026-05-03T07:17:32.999Z</time></trkpt><trkpt lat="42.35304168673402" lon="13.407204582062716"><ele>708.0</ele><time>2026-05-03T07:17:34Z</time></trkpt><trkpt lat="42.35312350867701" lon="13.407219380639217"><ele>707.5999999999999</ele><time>2026-05-03T07:17:35Z</time></trkpt><trkpt lat="42.353198903049474" lon="13.40723879160594"><ele>707.1999999999999</ele><time>2026-05-03T07:17:36Z</time></trkpt><trkpt lat="42.353268083813845" lon="13.407251999952821"><ele>706.8</ele><time>2026-05-03T07:17:37Z</time></trkpt><trkpt lat="42.35338546334503" lon="13.40726590693027"><ele>706.4</ele><time>2026-05-03T07:17:39Z</time></trkpt><trkpt lat="42.35345156606196" lon="13.407291051200957"><ele>706.0</ele><time>2026-05-03T07:17:41Z</time></trkpt><trkpt lat="42.35344669142071" lon="13.40710997049875"><ele>708.1999999999999</ele><time>2026-05-03T07:17:43Z</time></trkpt><trkpt lat="42.353398807109194" lon="13.407039588853035"><ele>710.4</ele><time>2026-05-03T07:17:44Z</time></trkpt><trkpt lat="42.353355436825936" lon="13.406951997917668"><ele>712.6</ele><time>2026-05-03T07:17:45Z</time></trkpt><trkpt lat="42.353302080859315" lon="13.40685330894617"><ele>714.8</ele><time>2026-05-03T07:17:46Z</time></trkpt><trkpt lat="42.35322754277575" lon="13.40677222208941"><ele>717.0</ele><time>2026-05-03T07:17:47Z</time></trkpt><trkpt lat="42.35312410422652" lon="13.406700456349855"><ele>714.75</ele><time>2026-05-03T07:17:48Z</time></trkpt><trkpt lat="42.35300810003645" lon="13.406633079087571"><ele>712.5</ele><time>2026-05-03T07:17:49Z</time></trkpt><trkpt lat="42.35287675937558" lon="13.406557670207127"><ele>710.25</ele><time>2026-05-03T07:17:50Z</time></trkpt><trkpt lat="42.35273979728116" lon="13.406482261410009"><ele>708.0</ele><time>2026-05-03T07:17:51Z</time></trkpt><trkpt lat="42.352610720762065" lon="13.406414200596432"><ele>708.0</ele><time>2026-05-03T07:17:52Z</time></trkpt><trkpt lat="42.35250203168326" lon="13.406356133597406"><ele>708.0</ele><time>2026-05-03T07:17:53Z</time></trkpt><trkpt lat="42.352414305130125" lon="13.406295261505214"><ele>708.0</ele><time>2026-05-03T07:17:54Z</time></trkpt><trkpt lat="42.352347892248304" lon="13.406214535607885"><ele>708.0</ele><time>2026-05-03T07:17:55Z</time></trkpt><trkpt lat="42.352291521544174" lon="13.4061062310655"><ele>708.0</ele><time>2026-05-03T07:17:56Z</time></trkpt><trkpt lat="42.3522549197575" lon="13.405973445447183"><ele>709.0</ele><time>2026-05-03T07:17:57Z</time></trkpt><trkpt lat="42.35223297389636" lon="13.405825469905418"><ele>710.0</ele><time>2026-05-03T07:17:58Z</time></trkpt><trkpt lat="42.35220940692451" lon="13.405663090603042"><ele>711.0</ele><time>2026-05-03T07:17:59Z</time></trkpt><trkpt lat="42.352180831882045" lon="13.405496539827121"><ele>712.0</ele><time>2026-05-03T07:18:00Z</time></trkpt><trkpt lat="42.352154325263065" lon="13.40532693660471"><ele>713.75</ele><time>2026-05-03T07:18:01Z</time></trkpt><trkpt lat="42.35212307505088" lon="13.405151857184228"><ele>715.5</ele><time>2026-05-03T07:18:02Z</time></trkpt><trkpt lat="42.352090922725914" lon="13.404975641739798"><ele>717.25</ele><time>2026-05-03T07:18:03Z</time></trkpt><trkpt lat="42.352057420561096" lon="13.40480422402932"><ele>719.0</ele><time>2026-05-03T07:18:04Z</time></trkpt><trkpt lat="42.35202633086641" lon="13.40466156409927"><ele>721.0</ele><time>2026-05-03T07:18:05Z</time></trkpt><trkpt lat="42.35200362693653" lon="13.404523748396151"><ele>723.0</ele><time>2026-05-03T07:18:06Z</time></trkpt><trkpt lat="42.35199946228482" lon="13.404397284507994"><ele>725.0</ele><time>2026-05-03T07:18:07Z</time></trkpt><trkpt lat="42.35201049502562" lon="13.404280205516253"><ele>727.0</ele><time>2026-05-03T07:18:08Z</time></trkpt><trkpt lat="42.352038849906876" lon="13.404180572007792"><ele>729.0</ele><time>2026-05-03T07:18:09Z</time></trkpt><trkpt lat="42.35208996752472" lon="13.404092635737001"><ele>731.0</ele><time>2026-05-03T07:18:10Z</time></trkpt><trkpt lat="42.35214457060423" lon="13.404020981476162"><ele>731.0</ele><time>2026-05-03T07:18:11Z</time></trkpt><trkpt lat="42.35217326796595" lon="13.403937254122212"><ele>731.0</ele><time>2026-05-03T07:18:12Z</time></trkpt><trkpt lat="42.35220380718125" lon="13.403838170732737"><ele>731.0</ele><time>2026-05-03T07:18:13Z</time></trkpt><trkpt lat="42.352225508010925" lon="13.403707897187974"><ele>731.0</ele><time>2026-05-03T07:18:14Z</time></trkpt><trkpt lat="42.35225109019841" lon="13.403568441695178"><ele>731.0</ele><time>2026-05-03T07:18:15Z</time></trkpt><trkpt lat="42.35228836965963" lon="13.403417356881775"><ele>732.1999999999999</ele><time>2026-05-03T07:18:16Z</time></trkpt><trkpt lat="42.35232948278816" lon="13.403268012289859"><ele>733.4</ele><time>2026-05-03T07:18:17Z</time></trkpt><trkpt lat="42.35237095855361" lon="13.403138617117975"><ele>734.6</ele><time>2026-05-03T07:18:18Z</time></trkpt><trkpt lat="42.35240538710613" lon="13.403005937219607"><ele>735.8</ele><time>2026-05-03T07:18:19Z</time></trkpt><trkpt lat="42.35245598500257" lon="13.402856945795607"><ele>737.0</ele><time>2026-05-03T07:18:20Z</time></trkpt><trkpt lat="42.35249463356741" lon="13.402697745395844"><ele>737.0</ele><time>2026-05-03T07:18:21Z</time></trkpt><trkpt lat="42.35253906694865" lon="13.402560600813688"><ele>737.0</ele><time>2026-05-03T07:18:22Z</time></trkpt><trkpt lat="42.352577420363346" lon="13.402427280944254"><ele>737.0</ele><time>2026-05-03T07:18:23Z</time></trkpt><trkpt lat="42.3526106933437" lon="13.402301867462882"><ele>737.0</ele><time>2026-05-03T07:18:24Z</time></trkpt><trkpt lat="42.352642749870625" lon="13.402188937319313"><ele>737.0</ele><time>2026-05-03T07:18:25Z</time></trkpt><trkpt lat="42.352674719193146" lon="13.40208052237351"><ele>736.8333333333333</ele><time>2026-05-03T07:18:26Z</time></trkpt><trkpt lat="42.35270137858153" lon="13.401976940074878"><ele>736.6666666666666</ele><time>2026-05-03T07:18:27Z</time></trkpt><trkpt lat="42.35273260702663" lon="13.401881459895447"><ele>736.5</ele><time>2026-05-03T07:18:28Z</time></trkpt><trkpt lat="42.35276539668844" lon="13.401789233451497"><ele>736.3333333333334</ele><time>2026-05-03T07:18:29Z</time></trkpt><trkpt lat="42.35278941662559" lon="13.40168285732657"><ele>736.1666666666667</ele><time>2026-05-03T07:18:31Z</time></trkpt><trkpt lat="42.35290609304456" lon="13.401724647822869"><ele>736.0</ele><time>2026-05-03T07:18:32Z</time></trkpt><trkpt lat="42.352966182058516" lon="13.40176841643658"><ele>736.0</ele><time>2026-05-03T07:18:33Z</time></trkpt><trkpt lat="42.35303033863005" lon="13.401823050831634"><ele>736.0</ele><time>2026-05-03T07:18:34Z</time></trkpt><trkpt lat="42.353101635335705" lon="13.401857257996971"><ele>736.0</ele><time>2026-05-03T07:18:35Z</time></trkpt><trkpt lat="42.35316479079503" lon="13.401889825067073"><ele>736.0</ele><time>2026-05-03T07:18:35.999Z</time></trkpt><trkpt lat="42.353225913561644" lon="13.401917088485641"><ele>736.0</ele><time>2026-05-03T07:18:36.999Z</time></trkpt><trkpt lat="42.35333063705067" lon="13.401962075121022"><ele>736.0</ele><time>2026-05-03T07:18:38.999Z</time></trkpt><trkpt lat="42.35343770927211" lon="13.401940624697342"><ele>735.8333333333334</ele><time>2026-05-03T07:18:40.999Z</time></trkpt><trkpt lat="42.35353520085092" lon="13.401885918163858"><ele>735.6666666666667</ele><time>2026-05-03T07:18:42.999Z</time></trkpt><trkpt lat="42.3536200061637" lon="13.401833999012444"><ele>735.5</ele><time>2026-05-03T07:18:44.999Z</time></trkpt><trkpt lat="42.353687933057884" lon="13.401903110178658"><ele>735.3333333333334</ele><time>2026-05-03T07:18:47.999Z</time></trkpt><trkpt lat="42.35370133632571" lon="13.401986478297676"><ele>735.1666666666666</ele><time>2026-05-03T07:18:50.999Z</time></trkpt><trkpt lat="42.353723979105894" lon="13.402080600802895"><ele>735.0</ele><time>2026-05-03T07:18:52.999Z</time></trkpt><trkpt lat="42.35372911140258" lon="13.402172903257798"><ele>735.0</ele><time>2026-05-03T07:18:55.999Z</time></trkpt><trkpt lat="42.353743940056134" lon="13.40225697547255"><ele>735.0</ele><time>2026-05-03T07:18:58.999Z</time></trkpt><trkpt lat="42.35374381269707" lon="13.40234897897964"><ele>735.0</ele><time>2026-05-03T07:19:04.999Z</time></trkpt><trkpt lat="42.35375057027299" lon="13.40224489056177"><ele>735.0</ele><time>2026-05-03T07:36:34Z</time></trkpt><trkpt lat="42.35372593131009" lon="13.402157754713269"><ele>735.0</ele><time>2026-05-03T07:36:37Z</time></trkpt><trkpt lat="42.353725931089315" lon="13.4020561311854"><ele>735.0</ele><time>2026-05-03T07:36:39Z</time></trkpt><trkpt lat="42.35372512171" lon="13.401960657538163"><ele>735.0</ele><time>2026-05-03T07:36:41Z</time></trkpt><trkpt lat="42.35373225466199" lon="13.401861006699773"><ele>734.8</ele><time>2026-05-03T07:36:43Z</time></trkpt><trkpt lat="42.35372734011871" lon="13.401744238727794"><ele>734.6</ele><time>2026-05-03T07:36:45Z</time></trkpt><trkpt lat="42.353788950484734" lon="13.401674121138175"><ele>734.4000000000001</ele><time>2026-05-03T07:37:35Z</time></trkpt><trkpt lat="42.35385358638165" lon="13.401588148290584"><ele>734.2</ele><time>2026-05-03T07:37:37Z</time></trkpt><trkpt lat="42.353949521805525" lon="13.401656302305097"><ele>734.0</ele><time>2026-05-03T07:37:38Z</time></trkpt><trkpt lat="42.35403063950874" lon="13.401735731609236"><ele>733.4000000000001</ele><time>2026-05-03T07:37:40Z</time></trkpt><trkpt lat="42.354138420383414" lon="13.401820980754183"><ele>732.8</ele><time>2026-05-03T07:37:42Z</time></trkpt><trkpt lat="42.3542018456672" lon="13.40186767625448"><ele>732.2</ele><time>2026-05-03T07:37:43Z</time></trkpt><trkpt lat="42.35425015850759" lon="13.401999362401924"><ele>731.5999999999999</ele><time>2026-05-03T07:37:44Z</time></trkpt><trkpt lat="42.35431829870141" lon="13.402082270129414"><ele>731.0</ele><time>2026-05-03T07:37:45Z</time></trkpt><trkpt lat="42.35438521747121" lon="13.402164964076608"><ele>731.0</ele><time>2026-05-03T07:37:46Z</time></trkpt><trkpt lat="42.354448704690185" lon="13.40224430473394"><ele>731.0</ele><time>2026-05-03T07:37:47Z</time></trkpt><trkpt lat="42.35451344585656" lon="13.402317105931274"><ele>731.0</ele><time>2026-05-03T07:37:48Z</time></trkpt><trkpt lat="42.35458111420452" lon="13.402387318770678"><ele>731.0</ele><time>2026-05-03T07:37:49Z</time></trkpt><trkpt lat="42.35464572860237" lon="13.402457169644977"><ele>731.0</ele><time>2026-05-03T07:37:50Z</time></trkpt><trkpt lat="42.35470452771425" lon="13.402531555351036"><ele>731.0</ele><time>2026-05-03T07:37:51Z</time></trkpt><trkpt lat="42.354764266292165" lon="13.402605477481137"><ele>729.4</ele><time>2026-05-03T07:37:52Z</time></trkpt><trkpt lat="42.35483700559024" lon="13.402679875538585"><ele>727.8</ele><time>2026-05-03T07:37:53Z</time></trkpt><trkpt lat="42.3549090455682" lon="13.402761172566716"><ele>726.1999999999999</ele><time>2026-05-03T07:37:54Z</time></trkpt><trkpt lat="42.35497892698307" lon="13.402850969806021"><ele>724.5999999999999</ele><time>2026-05-03T07:37:54.999Z</time></trkpt><trkpt lat="42.355046658877924" lon="13.402946061922426"><ele>723.0</ele><time>2026-05-03T07:37:55.999Z</time></trkpt><trkpt lat="42.35510860105372" lon="13.403048046584786"><ele>723.0</ele><time>2026-05-03T07:37:56.999Z</time></trkpt><trkpt lat="42.35516450039632" lon="13.403158857931379"><ele>723.0</ele><time>2026-05-03T07:37:57.999Z</time></trkpt><trkpt lat="42.355218789892014" lon="13.403283014327663"><ele>723.0</ele><time>2026-05-03T07:37:58.999Z</time></trkpt><trkpt lat="42.35526390362149" lon="13.403423945060966"><ele>723.0</ele><time>2026-05-03T07:37:59.999Z</time></trkpt><trkpt lat="42.35530577382528" lon="13.403578426928913"><ele>723.0</ele><time>2026-05-03T07:38:00.999Z</time></trkpt><trkpt lat="42.35534255694345" lon="13.403728441023846"><ele>724.4</ele><time>2026-05-03T07:38:01.999Z</time></trkpt><trkpt lat="42.355375474413464" lon="13.4038744932886"><ele>725.8</ele><time>2026-05-03T07:38:02.999Z</time></trkpt><trkpt lat="42.355406887363145" lon="13.404015333875323"><ele>727.2</ele><time>2026-05-03T07:38:03.999Z</time></trkpt><trkpt lat="42.35543807009068" lon="13.404151728119631"><ele>728.6</ele><time>2026-05-03T07:38:04.999Z</time></trkpt><trkpt lat="42.35546738127662" lon="13.404285607063512"><ele>730.0</ele><time>2026-05-03T07:38:05.999Z</time></trkpt><trkpt lat="42.355495601725565" lon="13.404418529174349"><ele>730.0</ele><time>2026-05-03T07:38:06.999Z</time></trkpt><trkpt lat="42.35552329969923" lon="13.404547576163148"><ele>730.0</ele><time>2026-05-03T07:38:07.999Z</time></trkpt><trkpt lat="42.35554984377775" lon="13.40467317208966"><ele>730.0</ele><time>2026-05-03T07:38:08.999Z</time></trkpt><trkpt lat="42.355580320436296" lon="13.404804376289523"><ele>730.0</ele><time>2026-05-03T07:38:09.999Z</time></trkpt><trkpt lat="42.35561065313296" lon="13.404941205215128"><ele>730.0</ele><time>2026-05-03T07:38:10.999Z</time></trkpt><trkpt lat="42.355642230117596" lon="13.405084242419854"><ele>726.4</ele><time>2026-05-03T07:38:11.999Z</time></trkpt><trkpt lat="42.35567102360261" lon="13.40523611921821"><ele>722.8</ele><time>2026-05-03T07:38:12.999Z</time></trkpt><trkpt lat="42.355696174744565" lon="13.405378595608285"><ele>719.2</ele><time>2026-05-03T07:38:13.999Z</time></trkpt><trkpt lat="42.355715630996926" lon="13.405491435731433"><ele>715.6</ele><time>2026-05-03T07:38:14.999Z</time></trkpt><trkpt lat="42.35573005292122" lon="13.405585490826335"><ele>712.0</ele><time>2026-05-03T07:38:15.999Z</time></trkpt><trkpt lat="42.35573742484708" lon="13.405735416872057"><ele>712.0</ele><time>2026-05-03T07:38:17.999Z</time></trkpt><trkpt lat="42.355731801337946" lon="13.405877397274883"><ele>712.0</ele><time>2026-05-03T07:38:19.999Z</time></trkpt><trkpt lat="42.35571563928234" lon="13.406037621125256"><ele>712.0</ele><time>2026-05-03T07:38:21.999Z</time></trkpt><trkpt lat="42.35577047104176" lon="13.40614740804921"><ele>712.0</ele><time>2026-05-03T07:38:22.999Z</time></trkpt><trkpt lat="42.355782923536665" lon="13.406245903228093"><ele>712.0</ele><time>2026-05-03T07:38:23.999Z</time></trkpt><trkpt lat="42.35577761048507" lon="13.406342484041751"><ele>712.0</ele><time>2026-05-03T07:38:24.999Z</time></trkpt><trkpt lat="42.35575631533053" lon="13.406442817034952"><ele>712.0</ele><time>2026-05-03T07:38:25.999Z</time></trkpt><trkpt lat="42.355720168292024" lon="13.406531618135793"><ele>712.0</ele><time>2026-05-03T07:38:26.999Z</time></trkpt><trkpt lat="42.3556762512675" lon="13.406612923496604"><ele>712.0</ele><time>2026-05-03T07:38:27.999Z</time></trkpt><trkpt lat="42.355623439565704" lon="13.406702589325812"><ele>712.0</ele><time>2026-05-03T07:38:28.999Z</time></trkpt><trkpt lat="42.35556298064723" lon="13.406799736349832"><ele>712.0</ele><time>2026-05-03T07:38:29.999Z</time></trkpt><trkpt lat="42.35548630227616" lon="13.406868019131869"><ele>712.0</ele><time>2026-05-03T07:38:30.999Z</time></trkpt><trkpt lat="42.355404111178956" lon="13.406912371527282"><ele>712.0</ele><time>2026-05-03T07:38:31.999Z</time></trkpt><trkpt lat="42.355336272368405" lon="13.40698946169873"><ele>712.0</ele><time>2026-05-03T07:38:32.999Z</time></trkpt><trkpt lat="42.35527650338083" lon="13.407096851114025"><ele>712.0</ele><time>2026-05-03T07:38:33.999Z</time></trkpt><trkpt lat="42.35520953379669" lon="13.40721949060386"><ele>712.0</ele><time>2026-05-03T07:38:34.999Z</time></trkpt><trkpt lat="42.355139827442635" lon="13.40734146251713"><ele>712.0</ele><time>2026-05-03T07:38:35.999Z</time></trkpt><trkpt lat="42.355067670548586" lon="13.407471534286676"><ele>712.0</ele><time>2026-05-03T07:38:36.999Z</time></trkpt><trkpt lat="42.35499022859477" lon="13.40762504374048"><ele>712.0</ele><time>2026-05-03T07:38:37.999Z</time></trkpt><trkpt lat="42.35491492089114" lon="13.407782286677513"><ele>712.0</ele><time>2026-05-03T07:38:38.999Z</time></trkpt><trkpt lat="42.35484311789081" lon="13.407939372192748"><ele>711.75</ele><time>2026-05-03T07:38:40Z</time></trkpt><trkpt lat="42.35477497202388" lon="13.408088132810462"><ele>711.5</ele><time>2026-05-03T07:38:41Z</time></trkpt><trkpt lat="42.35470255181461" lon="13.408233498109976"><ele>711.25</ele><time>2026-05-03T07:38:42Z</time></trkpt><trkpt lat="42.35463042211239" lon="13.408383465177034"><ele>711.0</ele><time>2026-05-03T07:38:43Z</time></trkpt><trkpt lat="42.35455462109598" lon="13.408538778053119"><ele>711.75</ele><time>2026-05-03T07:38:44Z</time></trkpt><trkpt lat="42.354476784362824" lon="13.408693325880279"><ele>712.5</ele><time>2026-05-03T07:38:45Z</time></trkpt><trkpt lat="42.35439618374402" lon="13.408830051192439"><ele>713.25</ele><time>2026-05-03T07:38:46Z</time></trkpt><trkpt lat="42.35431248585404" lon="13.408959840255084"><ele>714.0</ele><time>2026-05-03T07:38:47Z</time></trkpt><trkpt lat="42.35422286213623" lon="13.409095758655685"><ele>714.0</ele><time>2026-05-03T07:38:48Z</time></trkpt><trkpt lat="42.354133998628356" lon="13.409226940379227"><ele>714.0</ele><time>2026-05-03T07:38:49Z</time></trkpt><trkpt lat="42.35404201422404" lon="13.409361275489246"><ele>714.0</ele><time>2026-05-03T07:38:50Z</time></trkpt><trkpt lat="42.353953010835994" lon="13.409489314590669"><ele>714.0</ele><time>2026-05-03T07:38:51Z</time></trkpt><trkpt lat="42.35386377484874" lon="13.409616781891204"><ele>713.75</ele><time>2026-05-03T07:38:52Z</time></trkpt><trkpt lat="42.353774579153765" lon="13.40974849011049"><ele>713.5</ele><time>2026-05-03T07:38:53Z</time></trkpt><trkpt lat="42.3536828107385" lon="13.409877724424987"><ele>713.25</ele><time>2026-05-03T07:38:54Z</time></trkpt><trkpt lat="42.353589337475825" lon="13.41002100371516"><ele>713.0</ele><time>2026-05-03T07:38:55Z</time></trkpt><trkpt lat="42.35349216968201" lon="13.410158701451227"><ele>713.0</ele><time>2026-05-03T07:38:56Z</time></trkpt><trkpt lat="42.353391682769015" lon="13.410300460866345"><ele>713.0</ele><time>2026-05-03T07:38:57Z</time></trkpt><trkpt lat="42.35329330495407" lon="13.4104470085385"><ele>713.0</ele><time>2026-05-03T07:38:58Z</time></trkpt><trkpt lat="42.35320020318701" lon="13.410586698188384"><ele>713.0</ele><time>2026-05-03T07:38:59Z</time></trkpt><trkpt lat="42.35310697515541" lon="13.41072065243451"><ele>713.25</ele><time>2026-05-03T07:39:00Z</time></trkpt><trkpt lat="42.353013140402076" lon="13.410853770692777"><ele>713.5</ele><time>2026-05-03T07:39:01Z</time></trkpt><trkpt lat="42.352920037622326" lon="13.410990510657538"><ele>713.75</ele><time>2026-05-03T07:39:02Z</time></trkpt><trkpt lat="42.352832797376635" lon="13.411134820709181"><ele>714.0</ele><time>2026-05-03T07:39:03Z</time></trkpt><trkpt lat="42.35273947154291" lon="13.411270922999284"><ele>714.4000000000001</ele><time>2026-05-03T07:39:04Z</time></trkpt><trkpt lat="42.35265445674119" lon="13.411393413307344"><ele>714.8</ele><time>2026-05-03T07:39:05Z</time></trkpt><trkpt lat="42.352577471707654" lon="13.411503379323715"><ele>715.2</ele><time>2026-05-03T07:39:06Z</time></trkpt><trkpt lat="42.35250879182977" lon="13.411604589188466"><ele>715.5999999999999</ele><time>2026-05-03T07:39:07Z</time></trkpt><trkpt lat="42.3524459991732" lon="13.41169152587474"><ele>716.0</ele><time>2026-05-03T07:39:08Z</time></trkpt><trkpt lat="42.35238450354281" lon="13.411772256003594"><ele>716.0</ele><time>2026-05-03T07:39:09Z</time></trkpt><trkpt lat="42.35233272851527" lon="13.411853551905738"><ele>716.0</ele><time>2026-05-03T07:39:10Z</time></trkpt><trkpt lat="42.35228195393608" lon="13.411938092420293"><ele>716.0</ele><time>2026-05-03T07:39:11Z</time></trkpt><trkpt lat="42.35223037712222" lon="13.412017742503235"><ele>716.0</ele><time>2026-05-03T07:39:12Z</time></trkpt><trkpt lat="42.35218057607253" lon="13.412085243567892"><ele>716.0</ele><time>2026-05-03T07:39:13Z</time></trkpt><trkpt lat="42.35212972861579" lon="13.412161844662378"><ele>716.0</ele><time>2026-05-03T07:39:14Z</time></trkpt><trkpt lat="42.352079855696246" lon="13.412250494982075"><ele>715.8</ele><time>2026-05-03T07:39:15Z</time></trkpt><trkpt lat="42.352027064052" lon="13.412365566373357"><ele>715.5999999999999</ele><time>2026-05-03T07:39:16Z</time></trkpt><trkpt lat="42.351971140524526" lon="13.412488908652557"><ele>715.4</ele><time>2026-05-03T07:39:17Z</time></trkpt><trkpt lat="42.35195489352789" lon="13.412640314094018"><ele>715.2</ele><time>2026-05-03T07:39:18Z</time></trkpt><trkpt lat="42.35196239560468" lon="13.412784880770616"><ele>715.0</ele><time>2026-05-03T07:39:19Z</time></trkpt><trkpt lat="42.35199283450125" lon="13.41293171844344"><ele>715.5</ele><time>2026-05-03T07:39:20Z</time></trkpt><trkpt lat="42.35204313012164" lon="13.413071578273513"><ele>716.0</ele><time>2026-05-03T07:39:21Z</time></trkpt><trkpt lat="42.35211123542792" lon="13.41320044412"><ele>716.5</ele><time>2026-05-03T07:39:22Z</time></trkpt><trkpt lat="42.352164423656255" lon="13.413330643144677"><ele>717.0</ele><time>2026-05-03T07:39:23Z</time></trkpt><trkpt lat="42.352219805455334" lon="13.413456203426998"><ele>717.75</ele><time>2026-05-03T07:39:24Z</time></trkpt><trkpt lat="42.352274906123384" lon="13.413577048518231"><ele>718.5</ele><time>2026-05-03T07:39:25Z</time></trkpt><trkpt lat="42.352327717348864" lon="13.413708285203004"><ele>719.25</ele><time>2026-05-03T07:39:26Z</time></trkpt><trkpt lat="42.35238344155234" lon="13.41384252529436"><ele>720.0</ele><time>2026-05-03T07:39:27Z</time></trkpt><trkpt lat="42.35243032949157" lon="13.41399413122018"><ele>720.0</ele><time>2026-05-03T07:39:28Z</time></trkpt><trkpt lat="42.352461972787474" lon="13.414166969206011"><ele>720.0</ele><time>2026-05-03T07:39:29Z</time></trkpt><trkpt lat="42.35247372955526" lon="13.414350961772595"><ele>720.0</ele><time>2026-05-03T07:39:30Z</time></trkpt><trkpt lat="42.35246418823372" lon="13.414539713779002"><ele>720.0</ele><time>2026-05-03T07:39:31Z</time></trkpt><trkpt lat="42.352434796743886" lon="13.414724237699907"><ele>720.25</ele><time>2026-05-03T07:39:32Z</time></trkpt><trkpt lat="42.3523935162192" lon="13.414897381124367"><ele>720.5</ele><time>2026-05-03T07:39:33Z</time></trkpt><trkpt lat="42.352345093696385" lon="13.415052300242555"><ele>720.75</ele><time>2026-05-03T07:39:34Z</time></trkpt><trkpt lat="42.35228970847988" lon="13.415207652220172"><ele>721.0</ele><time>2026-05-03T07:39:35Z</time></trkpt><trkpt lat="42.35222523209979" lon="13.415354616017225"><ele>721.75</ele><time>2026-05-03T07:39:36Z</time></trkpt><trkpt lat="42.35214579068239" lon="13.415499102842665"><ele>722.5</ele><time>2026-05-03T07:39:37Z</time></trkpt><trkpt lat="42.35205908360187" lon="13.415639600642551"><ele>723.25</ele><time>2026-05-03T07:39:38Z</time></trkpt><trkpt lat="42.35197077327263" lon="13.415786468875433"><ele>724.0</ele><time>2026-05-03T07:39:38.999Z</time></trkpt><trkpt lat="42.35188722858157" lon="13.415937919148826"><ele>724.0</ele><time>2026-05-03T07:39:39.999Z</time></trkpt><trkpt lat="42.35180911054145" lon="13.416103140387847"><ele>724.0</ele><time>2026-05-03T07:39:40.999Z</time></trkpt><trkpt lat="42.35174741489236" lon="13.41628020719295"><ele>724.0</ele><time>2026-05-03T07:39:41.999Z</time></trkpt><trkpt lat="42.35171179236106" lon="13.416460369646058"><ele>724.0</ele><time>2026-05-03T07:39:42.999Z</time></trkpt><trkpt lat="42.3516860275748" lon="13.416642961650373"><ele>724.75</ele><time>2026-05-03T07:39:43.999Z</time></trkpt><trkpt lat="42.35166595631382" lon="13.416836753555252"><ele>725.5</ele><time>2026-05-03T07:39:44.999Z</time></trkpt><trkpt lat="42.35165495290302" lon="13.417040508605158"><ele>726.25</ele><time>2026-05-03T07:39:45.999Z</time></trkpt><trkpt lat="42.35164814450204" lon="13.417230857657755"><ele>727.0</ele><time>2026-05-03T07:39:46.999Z</time></trkpt><trkpt lat="42.35164152731361" lon="13.417417609628842"><ele>727.75</ele><time>2026-05-03T07:39:47.999Z</time></trkpt><trkpt lat="42.35163621989606" lon="13.417591409446318"><ele>728.5</ele><time>2026-05-03T07:39:48.999Z</time></trkpt><trkpt lat="42.351634577780835" lon="13.417753469430624"><ele>729.25</ele><time>2026-05-03T07:39:49.999Z</time></trkpt><trkpt lat="42.3516341438925" lon="13.417904648319306"><ele>730.0</ele><time>2026-05-03T07:39:50.999Z</time></trkpt><trkpt lat="42.35163916974122" lon="13.418051609049293"><ele>730.0</ele><time>2026-05-03T07:39:51.999Z</time></trkpt><trkpt lat="42.3516580266961" lon="13.418194711824594"><ele>730.0</ele><time>2026-05-03T07:39:52.999Z</time></trkpt><trkpt lat="42.35169476610324" lon="13.418323557215318"><ele>730.0</ele><time>2026-05-03T07:39:53.999Z</time></trkpt><trkpt lat="42.35174353104893" lon="13.41843968123176"><ele>730.0</ele><time>2026-05-03T07:39:54.999Z</time></trkpt><trkpt lat="42.351800519844424" lon="13.418539940139892"><ele>730.0</ele><time>2026-05-03T07:39:55.999Z</time></trkpt><trkpt lat="42.35185796458192" lon="13.418621013074816"><ele>730.0</ele><time>2026-05-03T07:39:56.999Z</time></trkpt><trkpt lat="42.35190751178695" lon="13.418690460512591"><ele>730.0</ele><time>2026-05-03T07:39:57.999Z</time></trkpt><trkpt lat="42.35194682099204" lon="13.418768448730079"><ele>730.0</ele><time>2026-05-03T07:39:58.999Z</time></trkpt><trkpt lat="42.35197553606756" lon="13.418871813591405"><ele>730.0</ele><time>2026-05-03T07:39:59.999Z</time></trkpt><trkpt lat="42.35199624599624" lon="13.4189735838937"><ele>730.0</ele><time>2026-05-03T07:40:00.999Z</time></trkpt><trkpt lat="42.35203720567367" lon="13.419068980793652"><ele>730.0</ele><time>2026-05-03T07:40:01.999Z</time></trkpt><trkpt lat="42.352106701139654" lon="13.419163947850448"><ele>730.1666666666667</ele><time>2026-05-03T07:40:02.999Z</time></trkpt><trkpt lat="42.352179776039996" lon="13.419258614728367"><ele>730.3333333333334</ele><time>2026-05-03T07:40:03.999Z</time></trkpt><trkpt lat="42.35223345961767" lon="13.419352792118897"><ele>730.5</ele><time>2026-05-03T07:40:04.999Z</time></trkpt><trkpt lat="42.35226554198729" lon="13.419446887191643"><ele>730.6666666666666</ele><time>2026-05-03T07:40:05.999Z</time></trkpt><trkpt lat="42.35229992385614" lon="13.419565300393021"><ele>730.8333333333333</ele><time>2026-05-03T07:40:07.999Z</time></trkpt><trkpt lat="42.35232987888364" lon="13.419642774610889"><ele>731.0</ele><time>2026-05-03T07:40:09.999Z</time></trkpt><trkpt lat="42.35236733714507" lon="13.419723377069605"><ele>732.2857142857142</ele><time>2026-05-03T07:40:11.999Z</time></trkpt><trkpt lat="42.35241187524405" lon="13.419790041780036"><ele>733.5714285714286</ele><time>2026-05-03T07:40:12.999Z</time></trkpt><trkpt lat="42.35245055772564" lon="13.419858507451035"><ele>734.8571428571429</ele><time>2026-05-03T07:40:13.999Z</time></trkpt><trkpt lat="42.35251640730392" lon="13.419829354782856"><ele>736.1428571428571</ele><time>2026-05-03T07:40:15.999Z</time></trkpt><trkpt lat="42.35251003477572" lon="13.419738347550684"><ele>737.4285714285714</ele><time>2026-05-03T07:40:23.999Z</time></trkpt><trkpt lat="42.35244498058363" lon="13.419768071489553"><ele>738.7142857142857</ele><time>2026-05-03T07:40:37.999Z</time></trkpt><trkpt lat="42.352360732170006" lon="13.419678592849566"><ele>740.0</ele><time>2026-05-03T07:40:39.999Z</time></trkpt><trkpt lat="42.35232995324673" lon="13.419813410803457"><ele>740.0</ele><time>2026-05-03T07:40:42.999Z</time></trkpt><trkpt lat="42.35239344384231" lon="13.419945036396868"><ele>740.0</ele><time>2026-05-03T07:40:44.999Z</time></trkpt><trkpt lat="42.35245509336877" lon="13.420053374613358"><ele>740.0</ele><time>2026-05-03T07:40:46.999Z</time></trkpt><trkpt lat="42.352473992125084" lon="13.420144848072267"><ele>740.0</ele><time>2026-05-03T07:40:47.999Z</time></trkpt><trkpt lat="42.352489015475875" lon="13.420232417147018"><ele>740.0</ele><time>2026-05-03T07:40:48.999Z</time></trkpt><trkpt lat="42.352510295668374" lon="13.420379623994357"><ele>740.2</ele><time>2026-05-03T07:40:51Z</time></trkpt><trkpt lat="42.352489713124925" lon="13.420526147510975"><ele>740.4</ele><time>2026-05-03T07:40:53Z</time></trkpt><trkpt lat="42.35247674660738" lon="13.420681851669073"><ele>740.5999999999999</ele><time>2026-05-03T07:40:55Z</time></trkpt><trkpt lat="42.352466123358774" lon="13.420783287515063"><ele>740.8</ele><time>2026-05-03T07:40:56Z</time></trkpt><trkpt lat="42.35245175257157" lon="13.420900916610014"><ele>741.0</ele><time>2026-05-03T07:40:57Z</time></trkpt><trkpt lat="42.35246109058365" lon="13.421031867958304"><ele>741.0</ele><time>2026-05-03T07:40:58Z</time></trkpt><trkpt lat="42.35249084364226" lon="13.421156639332544"><ele>741.0</ele><time>2026-05-03T07:40:59Z</time></trkpt><trkpt lat="42.35251066283912" lon="13.421305491832879"><ele>741.0</ele><time>2026-05-03T07:41:00Z</time></trkpt><trkpt lat="42.35253049550033" lon="13.421435117329693"><ele>741.0</ele><time>2026-05-03T07:41:01Z</time></trkpt><trkpt lat="42.352554824245885" lon="13.421563829151772"><ele>741.0</ele><time>2026-05-03T07:41:02Z</time></trkpt><trkpt lat="42.35258064307936" lon="13.421694558176144"><ele>741.75</ele><time>2026-05-03T07:41:03Z</time></trkpt><trkpt lat="42.35261508013875" lon="13.42186035327699"><ele>742.5</ele><time>2026-05-03T07:41:04Z</time></trkpt><trkpt lat="42.35265899393042" lon="13.422049897552489"><ele>743.25</ele><time>2026-05-03T07:41:05Z</time></trkpt><trkpt lat="42.3527027167509" lon="13.42224560488332"><ele>744.0</ele><time>2026-05-03T07:41:07.062Z</time></trkpt><trkpt lat="42.35273509788094" lon="13.422368834324494"><ele>740.5</ele><time>2026-05-03T07:41:08Z</time></trkpt><trkpt lat="42.35288629300801" lon="13.42279340592784"><ele>737.0</ele><time>2026-05-03T07:41:09Z</time></trkpt><trkpt lat="42.35295224488451" lon="13.423065147848439"><ele>734.5</ele><time>2026-05-03T07:41:10Z</time></trkpt><trkpt lat="42.35298859186434" lon="13.423151683628735"><ele>732.0</ele><time>2026-05-03T07:41:11Z</time></trkpt><trkpt lat="42.3530433076261" lon="13.423351961144963"><ele>729.5</ele><time>2026-05-03T07:41:12Z</time></trkpt><trkpt lat="42.35308582591638" lon="13.423507592110333"><ele>727.0</ele><time>2026-05-03T07:41:13Z</time></trkpt><trkpt lat="42.35312653801581" lon="13.42365754623542"><ele>729.6</ele><time>2026-05-03T07:41:14Z</time></trkpt><trkpt lat="42.35315825320904" lon="13.42377544075716"><ele>732.2</ele><time>2026-05-03T07:41:15Z</time></trkpt><trkpt lat="42.35318967528959" lon="13.423892245876376"><ele>734.8</ele><time>2026-05-03T07:41:16Z</time></trkpt><trkpt lat="42.35324776372004" lon="13.423995475378035"><ele>737.4</ele><time>2026-05-03T07:41:17Z</time></trkpt><trkpt lat="42.353314849860496" lon="13.424115342075034"><ele>740.0</ele><time>2026-05-03T07:41:18Z</time></trkpt><trkpt lat="42.35335516758012" lon="13.424198013335939"><ele>740.0</ele><time>2026-05-03T07:41:19Z</time></trkpt><trkpt lat="42.353401553104376" lon="13.424297462556698"><ele>740.0</ele><time>2026-05-03T07:41:20Z</time></trkpt><trkpt lat="42.35344298551673" lon="13.424371040798691"><ele>740.0</ele><time>2026-05-03T07:41:21Z</time></trkpt><trkpt lat="42.354124579540745" lon="13.424231464983109"><ele>741.8</ele><time>2026-05-03T07:41:22Z</time></trkpt><trkpt lat="42.35416203865788" lon="13.424313219449315"><ele>743.6</ele><time>2026-05-03T07:41:23Z</time></trkpt><trkpt lat="42.35419738520244" lon="13.424403981184065"><ele>745.4000000000001</ele><time>2026-05-03T07:41:24Z</time></trkpt><trkpt lat="42.3542994991459" lon="13.424599233489767"><ele>747.2</ele><time>2026-05-03T07:41:27Z</time></trkpt><trkpt lat="42.3543715845308" lon="13.424690978507764"><ele>749.0</ele><time>2026-05-03T07:41:29Z</time></trkpt><trkpt lat="42.35443039019883" lon="13.424615081924586"><ele>750.2</ele><time>2026-05-03T07:41:31Z</time></trkpt><trkpt lat="42.35438026083056" lon="13.424519866717072"><ele>751.4000000000001</ele><time>2026-05-03T07:41:34Z</time></trkpt><trkpt lat="42.354313445727776" lon="13.424483067244006"><ele>752.6</ele><time>2026-05-03T07:41:36Z</time></trkpt><trkpt lat="42.35422242115645" lon="13.424411897131018"><ele>753.8</ele><time>2026-05-03T07:42:15.999Z</time></trkpt><trkpt lat="42.354140466198594" lon="13.42426256857876"><ele>755.0</ele><time>2026-05-03T07:42:17.999Z</time></trkpt><trkpt lat="42.35408764957339" lon="13.424165493685114"><ele>755.0</ele><time>2026-05-03T07:42:18.999Z</time></trkpt><trkpt lat="42.35402779050718" lon="13.424059860118575"><ele>755.0</ele><time>2026-05-03T07:42:19.999Z</time></trkpt><trkpt lat="42.35396208090102" lon="13.423945337928641"><ele>755.0</ele><time>2026-05-03T07:42:20.999Z</time></trkpt><trkpt lat="42.35389587166419" lon="13.423810992576886"><ele>755.0</ele><time>2026-05-03T07:42:21.999Z</time></trkpt><trkpt lat="42.35380875181468" lon="13.423657069692942"><ele>752.6666666666666</ele><time>2026-05-03T07:42:22.999Z</time></trkpt><trkpt lat="42.35371441933145" lon="13.423478269358139"><ele>750.3333333333334</ele><time>2026-05-03T07:42:23.999Z</time></trkpt><trkpt lat="42.35361667377828" lon="13.423283029045361"><ele>748.0</ele><time>2026-05-03T07:42:24.999Z</time></trkpt><trkpt lat="42.35351202880386" lon="13.423078278790424"><ele>750.0</ele><time>2026-05-03T07:42:25.999Z</time></trkpt><trkpt lat="42.353403737041276" lon="13.422874492221766"><ele>752.0</ele><time>2026-05-03T07:42:26.999Z</time></trkpt><trkpt lat="42.353304181074066" lon="13.422680176052221"><ele>754.0</ele><time>2026-05-03T07:42:27.999Z</time></trkpt><trkpt lat="42.353212463740604" lon="13.42249721647375"><ele>754.0</ele><time>2026-05-03T07:42:28.999Z</time></trkpt><trkpt lat="42.35312341000512" lon="13.422334819614484"><ele>754.0</ele><time>2026-05-03T07:42:29.999Z</time></trkpt><trkpt lat="42.353038295055086" lon="13.422204195517267"><ele>754.0</ele><time>2026-05-03T07:42:30.999Z</time></trkpt><trkpt lat="42.3528537882684" lon="13.421987993227573"><ele>751.5</ele><time>2026-05-03T07:42:32.999Z</time></trkpt><trkpt lat="42.35276986342392" lon="13.421859191058488"><ele>749.0</ele><time>2026-05-03T07:42:33.999Z</time></trkpt><trkpt lat="42.35268325184684" lon="13.42173440876925"><ele>746.5</ele><time>2026-05-03T07:42:34.999Z</time></trkpt><trkpt lat="42.35265678240788" lon="13.421544027289304"><ele>744.0</ele><time>2026-05-03T07:42:35.999Z</time></trkpt><trkpt lat="42.352620863812" lon="13.421363155878169"><ele>743.25</ele><time>2026-05-03T07:42:36.999Z</time></trkpt><trkpt lat="42.352588217723266" lon="13.42117427081523"><ele>742.5</ele><time>2026-05-03T07:42:37.999Z</time></trkpt><trkpt lat="42.35257147871126" lon="13.420980863139086"><ele>741.75</ele><time>2026-05-03T07:42:38.999Z</time></trkpt><trkpt lat="42.35257982170485" lon="13.420782509120455"><ele>741.0</ele><time>2026-05-03T07:42:39.999Z</time></trkpt><trkpt lat="42.35260200213724" lon="13.420578631064425"><ele>740.75</ele><time>2026-05-03T07:42:40.999Z</time></trkpt><trkpt lat="42.352616212958154" lon="13.420381319150648"><ele>740.5</ele><time>2026-05-03T07:42:41.999Z</time></trkpt><trkpt lat="42.35260868293424" lon="13.420195114539187"><ele>740.25</ele><time>2026-05-03T07:42:43Z</time></trkpt><trkpt lat="42.35257301489799" lon="13.420034415115314"><ele>740.0</ele><time>2026-05-03T07:42:44Z</time></trkpt><trkpt lat="42.35251872558724" lon="13.419909941731799"><ele>740.0</ele><time>2026-05-03T07:42:45Z</time></trkpt><trkpt lat="42.352461602861325" lon="13.41980112490367"><ele>740.0</ele><time>2026-05-03T07:42:46Z</time></trkpt><trkpt lat="42.35240222392839" lon="13.4196924445975"><ele>740.0</ele><time>2026-05-03T07:42:47Z</time></trkpt><trkpt lat="42.352353725484896" lon="13.4195919946403"><ele>740.0</ele><time>2026-05-03T07:42:48Z</time></trkpt><trkpt lat="42.35231609369944" lon="13.41949525589265"><ele>740.0</ele><time>2026-05-03T07:42:49Z</time></trkpt><trkpt lat="42.3522868243888" lon="13.419391859303028"><ele>739.9999999999999</ele><time>2026-05-03T07:42:50Z</time></trkpt><trkpt lat="42.35227070350865" lon="13.419290685507185"><ele>740.0</ele><time>2026-05-03T07:42:51Z</time></trkpt><trkpt lat="42.352272394980844" lon="13.419194117372049"><ele>740.0</ele><time>2026-05-03T07:42:52Z</time></trkpt><trkpt lat="42.352281664967606" lon="13.419097767760563"><ele>740.0</ele><time>2026-05-03T07:42:53Z</time></trkpt><trkpt lat="42.35228808778665" lon="13.419000326301468"><ele>740.0</ele><time>2026-05-03T07:42:54Z</time></trkpt><trkpt lat="42.35227669435523" lon="13.41890042429606"><ele>739.9999999999999</ele><time>2026-05-03T07:42:55Z</time></trkpt><trkpt lat="42.3522367588106" lon="13.418812233694931"><ele>740.0</ele><time>2026-05-03T07:42:56Z</time></trkpt><trkpt lat="42.35217369949474" lon="13.418764542042515"><ele>738.7142857142857</ele><time>2026-05-03T07:42:57Z</time></trkpt><trkpt lat="42.35210272122113" lon="13.418771951757996"><ele>737.4285714285714</ele><time>2026-05-03T07:42:58Z</time></trkpt><trkpt lat="42.35204287482216" lon="13.418816557636564"><ele>736.1428571428571</ele><time>2026-05-03T07:42:59Z</time></trkpt><trkpt lat="42.351993829419094" lon="13.418881889209725"><ele>734.8571428571429</ele><time>2026-05-03T07:43:00Z</time></trkpt><trkpt lat="42.351948516359" lon="13.418958751832745"><ele>733.5714285714286</ele><time>2026-05-03T07:43:01Z</time></trkpt><trkpt lat="42.351908568382" lon="13.41904567121654"><ele>732.2857142857142</ele><time>2026-05-03T07:43:02Z</time></trkpt><trkpt lat="42.35188201449519" lon="13.419130371667428"><ele>731.0</ele><time>2026-05-03T07:43:03Z</time></trkpt><trkpt lat="42.35187254538478" lon="13.419288199778228"><ele>731.0</ele><time>2026-05-03T07:43:05Z</time></trkpt><trkpt lat="42.35189660045411" lon="13.419378989010172"><ele>731.0</ele><time>2026-05-03T07:43:06Z</time></trkpt><trkpt lat="42.35194971070268" lon="13.419466497695197"><ele>731.0</ele><time>2026-05-03T07:43:07Z</time></trkpt><trkpt lat="42.352014227566" lon="13.419564731024378"><ele>731.0</ele><time>2026-05-03T07:43:08Z</time></trkpt><trkpt lat="42.352083266273446" lon="13.419681622409154"><ele>731.0</ele><time>2026-05-03T07:43:09Z</time></trkpt><trkpt lat="42.35214800440884" lon="13.419807427063972"><ele>731.4</ele><time>2026-05-03T07:43:10Z</time></trkpt><trkpt lat="42.352194078612804" lon="13.41993493941858"><ele>731.8</ele><time>2026-05-03T07:43:11Z</time></trkpt><trkpt lat="42.35217884727754" lon="13.420070917434227"><ele>732.1999999999999</ele><time>2026-05-03T07:43:12Z</time></trkpt><trkpt lat="42.35217415846037" lon="13.420205197300989"><ele>732.5999999999999</ele><time>2026-05-03T07:43:13Z</time></trkpt><trkpt lat="42.35218049509934" lon="13.42033390120878"><ele>733.0</ele><time>2026-05-03T07:43:14Z</time></trkpt><trkpt lat="42.35217502185146" lon="13.42045155517726"><ele>733.8</ele><time>2026-05-03T07:43:15Z</time></trkpt><trkpt lat="42.35218047583433" lon="13.420577403991127"><ele>734.5999999999999</ele><time>2026-05-03T07:43:16Z</time></trkpt><trkpt lat="42.3522059616163" lon="13.420708047360959"><ele>735.4000000000001</ele><time>2026-05-03T07:43:17Z</time></trkpt><trkpt lat="42.35224186199443" lon="13.420838413113568"><ele>736.2</ele><time>2026-05-03T07:43:18Z</time></trkpt><trkpt lat="42.352279806474776" lon="13.42096735446434"><ele>737.0</ele><time>2026-05-03T07:43:19Z</time></trkpt><trkpt lat="42.352318151829174" lon="13.421101717685659"><ele>737.8</ele><time>2026-05-03T07:43:20Z</time></trkpt><trkpt lat="42.35235685499132" lon="13.421238645828444"><ele>738.6</ele><time>2026-05-03T07:43:21Z</time></trkpt><trkpt lat="42.352391503670475" lon="13.421381303725616"><ele>739.4</ele><time>2026-05-03T07:43:22Z</time></trkpt><trkpt lat="42.35241170238078" lon="13.421525344681676"><ele>740.1999999999999</ele><time>2026-05-03T07:43:23Z</time></trkpt><trkpt lat="42.35241470553624" lon="13.421670473920889"><ele>741.0</ele><time>2026-05-03T07:43:24Z</time></trkpt><trkpt lat="42.35240150814093" lon="13.421802242489253"><ele>741.5999999999999</ele><time>2026-05-03T07:43:25Z</time></trkpt><trkpt lat="42.352352046997126" lon="13.421916100228746"><ele>742.2</ele><time>2026-05-03T07:43:26Z</time></trkpt><trkpt lat="42.35234316295189" lon="13.422054837219253"><ele>742.8</ele><time>2026-05-03T07:43:27Z</time></trkpt><trkpt lat="42.35233390747856" lon="13.422201334175467"><ele>743.4000000000001</ele><time>2026-05-03T07:43:28Z</time></trkpt><trkpt lat="42.35234700897225" lon="13.422365419672426"><ele>744.0</ele><time>2026-05-03T07:43:29Z</time></trkpt><trkpt lat="42.35236443688257" lon="13.422545410281431"><ele>742.25</ele><time>2026-05-03T07:43:30Z</time></trkpt><trkpt lat="42.35238403948811" lon="13.422742964280925"><ele>740.5</ele><time>2026-05-03T07:43:31Z</time></trkpt><trkpt lat="42.35240196028641" lon="13.422940506718733"><ele>738.75</ele><time>2026-05-03T07:43:32Z</time></trkpt><trkpt lat="42.3524225264017" lon="13.423140117024099"><ele>737.0</ele><time>2026-05-03T07:43:33Z</time></trkpt><trkpt lat="42.35244356131247" lon="13.423332540041708"><ele>734.5</ele><time>2026-05-03T07:43:34Z</time></trkpt><trkpt lat="42.35245344463544" lon="13.423512921798581"><ele>732.0</ele><time>2026-05-03T07:43:35Z</time></trkpt><trkpt lat="42.352421598660435" lon="13.42368703919855"><ele>729.5</ele><time>2026-05-03T07:43:36Z</time></trkpt><trkpt lat="42.35240669949936" lon="13.423871965898874"><ele>727.0</ele><time>2026-05-03T07:43:37Z</time></trkpt><trkpt lat="42.352366789230985" lon="13.424051817138341"><ele>725.0</ele><time>2026-05-03T07:43:38Z</time></trkpt><trkpt lat="42.35232628455235" lon="13.424248110645253"><ele>723.0</ele><time>2026-05-03T07:43:39Z</time></trkpt><trkpt lat="42.352283735172186" lon="13.424448986536424"><ele>721.0</ele><time>2026-05-03T07:43:40Z</time></trkpt><trkpt lat="42.352243317902946" lon="13.424644471301452"><ele>720.5</ele><time>2026-05-03T07:43:41Z</time></trkpt><trkpt lat="42.35220929224733" lon="13.424823672025274"><ele>720.0</ele><time>2026-05-03T07:43:42Z</time></trkpt><trkpt lat="42.35216707208978" lon="13.42499616735147"><ele>719.5</ele><time>2026-05-03T07:43:43Z</time></trkpt><trkpt lat="42.35208980952191" lon="13.425131894210763"><ele>719.0</ele><time>2026-05-03T07:43:44Z</time></trkpt><trkpt lat="42.352017463352716" lon="13.425268303115569"><ele>718.75</ele><time>2026-05-03T07:43:45Z</time></trkpt><trkpt lat="42.35195052069392" lon="13.425430873147063"><ele>718.5</ele><time>2026-05-03T07:43:46Z</time></trkpt><trkpt lat="42.351870765976194" lon="13.425576684761232"><ele>718.25</ele><time>2026-05-03T07:43:47Z</time></trkpt><trkpt lat="42.3517863697832" lon="13.425741721158785"><ele>718.0</ele><time>2026-05-03T07:43:48Z</time></trkpt><trkpt lat="42.35170365655116" lon="13.42591747322488"><ele>718.0</ele><time>2026-05-03T07:43:49Z</time></trkpt><trkpt lat="42.351620350665684" lon="13.42609724988198"><ele>718.0</ele><time>2026-05-03T07:43:50Z</time></trkpt><trkpt lat="42.35153561726893" lon="13.426271169665531"><ele>718.0</ele><time>2026-05-03T07:43:51Z</time></trkpt><trkpt lat="42.351479884007716" lon="13.426457900301466"><ele>720.75</ele><time>2026-05-03T07:43:52Z</time></trkpt><trkpt lat="42.35143320714975" lon="13.426649320115944"><ele>723.5</ele><time>2026-05-03T07:43:53Z</time></trkpt><trkpt lat="42.35139673141558" lon="13.426845755396792"><ele>726.25</ele><time>2026-05-03T07:43:54Z</time></trkpt><trkpt lat="42.35136701205245" lon="13.427023085116337"><ele>729.0</ele><time>2026-05-03T07:43:55Z</time></trkpt><trkpt lat="42.35134538678513" lon="13.427191978407253"><ele>730.2</ele><time>2026-05-03T07:43:56Z</time></trkpt><trkpt lat="42.35133673808119" lon="13.427319530276367"><ele>731.4000000000001</ele><time>2026-05-03T07:43:57Z</time></trkpt><trkpt lat="42.351324493712625" lon="13.427432715470019"><ele>732.6</ele><time>2026-05-03T07:43:58Z</time></trkpt><trkpt lat="42.35128119029649" lon="13.427570475257642"><ele>733.8</ele><time>2026-05-03T07:44:00Z</time></trkpt><trkpt lat="42.35123091028448" lon="13.427666403609487"><ele>735.0</ele><time>2026-05-03T07:44:02Z</time></trkpt><trkpt lat="42.35116482852421" lon="13.427747346136991"><ele>735.0</ele><time>2026-05-03T07:44:05Z</time></trkpt><trkpt lat="42.35112792954857" lon="13.427845857346727"><ele>735.0</ele><time>2026-05-03T07:44:07Z</time></trkpt><trkpt lat="42.35104689823257" lon="13.427952562010248"><ele>735.0</ele><time>2026-05-03T07:44:09Z</time></trkpt><trkpt lat="42.351023467588185" lon="13.42806300362126"><ele>735.0</ele><time>2026-05-03T07:44:11Z</time></trkpt><trkpt lat="42.35102058865356" lon="13.428148514261602"><ele>735.0</ele><time>2026-05-03T07:44:13Z</time></trkpt><trkpt lat="42.351155890481806" lon="13.428245209669273"><ele>734.3333333333334</ele><time>2026-05-03T07:44:14.999Z</time></trkpt><trkpt lat="42.35121462978043" lon="13.42828817670825"><ele>733.6666666666666</ele><time>2026-05-03T07:44:15.999Z</time></trkpt><trkpt lat="42.351278097922865" lon="13.428335597910108"><ele>733.0</ele><time>2026-05-03T07:44:16.999Z</time></trkpt><trkpt lat="42.35135240487395" lon="13.428370720197904"><ele>732.3333333333333</ele><time>2026-05-03T07:44:17.999Z</time></trkpt><trkpt lat="42.35143570493186" lon="13.428405307150333"><ele>731.6666666666666</ele><time>2026-05-03T07:44:18.999Z</time></trkpt><trkpt lat="42.35151916456731" lon="13.428444379681489"><ele>731.0</ele><time>2026-05-03T07:44:19.999Z</time></trkpt><trkpt lat="42.351588314905214" lon="13.428496108902774"><ele>733.0</ele><time>2026-05-03T07:44:20.999Z</time></trkpt><trkpt lat="42.35167871935439" lon="13.428555022455871"><ele>735.0</ele><time>2026-05-03T07:44:22.999Z</time></trkpt><trkpt lat="42.35172549683005" lon="13.428653243013825"><ele>737.0</ele><time>2026-05-03T07:44:23.999Z</time></trkpt><trkpt lat="42.351773137612696" lon="13.428734496033254"><ele>739.0</ele><time>2026-05-03T07:44:24.999Z</time></trkpt><trkpt lat="42.35185461495666" lon="13.42887074646815"><ele>741.0</ele><time>2026-05-03T07:44:26.999Z</time></trkpt><trkpt lat="42.351889050716295" lon="13.42894581264204"><ele>741.25</ele><time>2026-05-03T07:44:27.999Z</time></trkpt><trkpt lat="42.35192551950966" lon="13.429030557473904"><ele>741.5</ele><time>2026-05-03T07:44:29.999Z</time></trkpt><trkpt lat="42.3518421085614" lon="13.429216152011316"><ele>741.75</ele><time>2026-05-03T07:44:31.999Z</time></trkpt><trkpt lat="42.35180021252054" lon="13.429342005153146"><ele>742.0</ele><time>2026-05-03T07:44:32.999Z</time></trkpt><trkpt lat="42.35174163815514" lon="13.429489217591144"><ele>742.0</ele><time>2026-05-03T07:44:33.999Z</time></trkpt><trkpt lat="42.3516917453441" lon="13.429640064043392"><ele>742.0</ele><time>2026-05-03T07:44:34.999Z</time></trkpt><trkpt lat="42.35162952650641" lon="13.429780711466602"><ele>742.0</ele><time>2026-05-03T07:44:35.999Z</time></trkpt><trkpt lat="42.35155114038702" lon="13.429892823139909"><ele>742.0</ele><time>2026-05-03T07:44:36.999Z</time></trkpt><trkpt lat="42.35148179762208" lon="13.430002441742323"><ele>742.4000000000001</ele><time>2026-05-03T07:44:37.999Z</time></trkpt><trkpt lat="42.351421836250125" lon="13.430078595388355"><ele>742.8000000000001</ele><time>2026-05-03T07:44:38.999Z</time></trkpt><trkpt lat="42.35130338122592" lon="13.430091394442494"><ele>743.2</ele><time>2026-05-03T07:44:40.999Z</time></trkpt><trkpt lat="42.35123634727776" lon="13.430056717479637"><ele>743.6</ele><time>2026-05-03T07:44:41.999Z</time></trkpt><trkpt lat="42.35114684846496" lon="13.430028522853032"><ele>744.0</ele><time>2026-05-03T07:44:42.999Z</time></trkpt><trkpt lat="42.3510338903466" lon="13.429992937606778"><ele>741.0</ele><time>2026-05-03T07:44:43.999Z</time></trkpt><trkpt lat="42.35091736323185" lon="13.429956227478527"><ele>738.0</ele><time>2026-05-03T07:44:44.999Z</time></trkpt><trkpt lat="42.350813858716535" lon="13.429923619932799"><ele>735.0</ele><time>2026-05-03T07:44:45.999Z</time></trkpt><trkpt lat="42.35071962387667" lon="13.429893932635721"><ele>732.0</ele><time>2026-05-03T07:44:46.999Z</time></trkpt><trkpt lat="42.35060925843043" lon="13.430042330455834"><ele>731.0</ele><time>2026-05-03T07:44:47.999Z</time></trkpt><trkpt lat="42.35052616438882" lon="13.430107350844544"><ele>730.0</ele><time>2026-05-03T07:44:49Z</time></trkpt><trkpt lat="42.350452924418114" lon="13.430200059667808"><ele>729.0</ele><time>2026-05-03T07:44:50Z</time></trkpt><trkpt lat="42.35038027988225" lon="13.43033245600875"><ele>728.0</ele><time>2026-05-03T07:44:51Z</time></trkpt><trkpt lat="42.35030331976644" lon="13.4304845770112"><ele>728.0</ele><time>2026-05-03T07:44:52Z</time></trkpt><trkpt lat="42.350220159746165" lon="13.430648669848727"><ele>728.0</ele><time>2026-05-03T07:44:53Z</time></trkpt><trkpt lat="42.35012487597739" lon="13.430771185097505"><ele>728.0</ele><time>2026-05-03T07:44:54Z</time></trkpt><trkpt lat="42.350053242004584" lon="13.43089420485101"><ele>728.0</ele><time>2026-05-03T07:44:55Z</time></trkpt><trkpt lat="42.34996133744538" lon="13.43095074673678"><ele>728.0</ele><time>2026-05-03T07:44:56Z</time></trkpt><trkpt lat="42.349872445242454" lon="13.430999896242588"><ele>728.0</ele><time>2026-05-03T07:44:57Z</time></trkpt><trkpt lat="42.34978172803216" lon="13.431036269492544"><ele>728.0</ele><time>2026-05-03T07:44:58Z</time></trkpt><trkpt lat="42.34968831490788" lon="13.431052958808783"><ele>728.0</ele><time>2026-05-03T07:44:59Z</time></trkpt><trkpt lat="42.349584287739184" lon="13.431058049715892"><ele>728.0</ele><time>2026-05-03T07:45:00Z</time></trkpt><trkpt lat="42.34948093831188" lon="13.431034920336943"><ele>726.5999999999999</ele><time>2026-05-03T07:45:01Z</time></trkpt><trkpt lat="42.34937074475965" lon="13.430986090654802"><ele>725.1999999999999</ele><time>2026-05-03T07:45:02Z</time></trkpt><trkpt lat="42.34927322373341" lon="13.431013148097298"><ele>723.8</ele><time>2026-05-03T07:45:03Z</time></trkpt><trkpt lat="42.34918726845482" lon="13.43104275255735"><ele>722.4</ele><time>2026-05-03T07:45:04Z</time></trkpt><trkpt lat="42.349107867398466" lon="13.431085643817388"><ele>721.0</ele><time>2026-05-03T07:45:05Z</time></trkpt><trkpt lat="42.34902025264806" lon="13.43112591368848"><ele>721.0</ele><time>2026-05-03T07:45:06Z</time></trkpt><trkpt lat="42.34892305107217" lon="13.431171164513188"><ele>721.0</ele><time>2026-05-03T07:45:07Z</time></trkpt><trkpt lat="42.348829676288425" lon="13.431229494450628"><ele>721.0</ele><time>2026-05-03T07:45:08Z</time></trkpt><trkpt lat="42.348743732836034" lon="13.431294390370073"><ele>721.0</ele><time>2026-05-03T07:45:09Z</time></trkpt><trkpt lat="42.34865527870047" lon="13.431369799016005"><ele>721.0</ele><time>2026-05-03T07:45:10Z</time></trkpt><trkpt lat="42.34855255288586" lon="13.431448795522"><ele>721.0</ele><time>2026-05-03T07:45:11Z</time></trkpt><trkpt lat="42.3484372150282" lon="13.43148878766673"><ele>721.0</ele><time>2026-05-03T07:45:12Z</time></trkpt><trkpt lat="42.34831049866548" lon="13.431550527395189"><ele>721.0</ele><time>2026-05-03T07:45:13Z</time></trkpt><trkpt lat="42.34818606066188" lon="13.431597835872747"><ele>721.0</ele><time>2026-05-03T07:45:14Z</time></trkpt><trkpt lat="42.34807233984143" lon="13.431638045488222"><ele>718.5</ele><time>2026-05-03T07:45:15Z</time></trkpt><trkpt lat="42.34796222958012" lon="13.43170350324122"><ele>716.0</ele><time>2026-05-03T07:45:16Z</time></trkpt><trkpt lat="42.34784777144268" lon="13.431754154626454"><ele>713.5</ele><time>2026-05-03T07:45:17Z</time></trkpt><trkpt lat="42.347745282770845" lon="13.431827951524006"><ele>711.0</ele><time>2026-05-03T07:45:18Z</time></trkpt><trkpt lat="42.34763416925155" lon="13.431868508504326"><ele>711.0</ele><time>2026-05-03T07:45:19Z</time></trkpt><trkpt lat="42.347545560518306" lon="13.431951711763634"><ele>711.0</ele><time>2026-05-03T07:45:20Z</time></trkpt><trkpt lat="42.347441662453896" lon="13.432007803294402"><ele>711.0</ele><time>2026-05-03T07:45:21Z</time></trkpt><trkpt lat="42.34731351080053" lon="13.432081977364009"><ele>711.0</ele><time>2026-05-03T07:45:22Z</time></trkpt><trkpt lat="42.34717167832485" lon="13.432162325821384"><ele>711.5</ele><time>2026-05-03T07:45:23Z</time></trkpt><trkpt lat="42.34702175096708" lon="13.432230878672227"><ele>712.0</ele><time>2026-05-03T07:45:24Z</time></trkpt><trkpt lat="42.34688687904603" lon="13.432319647760302"><ele>712.5</ele><time>2026-05-03T07:45:25Z</time></trkpt><trkpt lat="42.34676638708446" lon="13.432417511495638"><ele>713.0</ele><time>2026-05-03T07:45:26Z</time></trkpt><trkpt lat="42.346664225589" lon="13.432521567868223"><ele>713.0</ele><time>2026-05-03T07:45:27Z</time></trkpt><trkpt lat="42.346555108128236" lon="13.432634698666158"><ele>713.0</ele><time>2026-05-03T07:45:28Z</time></trkpt><trkpt lat="42.34644008722408" lon="13.432749161749962"><ele>713.0</ele><time>2026-05-03T07:45:29Z</time></trkpt><trkpt lat="42.346324738235325" lon="13.432854364658851"><ele>713.0</ele><time>2026-05-03T07:45:30Z</time></trkpt><trkpt lat="42.346207545684" lon="13.432949014869296"><ele>713.2</ele><time>2026-05-03T07:45:31Z</time></trkpt><trkpt lat="42.346091910251" lon="13.433024743363005"><ele>713.4</ele><time>2026-05-03T07:45:32Z</time></trkpt><trkpt lat="42.34598150226941" lon="13.43306014983058"><ele>713.6</ele><time>2026-05-03T07:45:33Z</time></trkpt><trkpt lat="42.34591737303692" lon="13.433119883796193"><ele>713.8000000000001</ele><time>2026-05-03T07:45:34Z</time></trkpt><trkpt lat="42.34581048493443" lon="13.433181692240865"><ele>714.0</ele><time>2026-05-03T07:45:36Z</time></trkpt><trkpt lat="42.3457072042619" lon="13.4332071614822"><ele>714.0</ele><time>2026-05-03T07:45:38Z</time></trkpt><trkpt lat="42.34561221898393" lon="13.43323779782143"><ele>714.0</ele><time>2026-05-03T07:45:40Z</time></trkpt><trkpt lat="42.34548927713308" lon="13.433261965172028"><ele>714.0</ele><time>2026-05-03T07:45:42Z</time></trkpt><trkpt lat="42.34538412910574" lon="13.433236349666524"><ele>714.0</ele><time>2026-05-03T07:45:44Z</time></trkpt><trkpt lat="42.345269047679146" lon="13.43325916304969"><ele>714.0</ele><time>2026-05-03T07:45:46Z</time></trkpt><trkpt lat="42.345194541653335" lon="13.433804085549374"><ele>712.25</ele><time>2026-05-03T07:45:47Z</time></trkpt><trkpt lat="42.345125165769836" lon="13.43391752358862"><ele>710.5</ele><time>2026-05-03T07:45:48Z</time></trkpt><trkpt lat="42.345055249031" lon="13.434050261031501"><ele>708.75</ele><time>2026-05-03T07:45:49Z</time></trkpt><trkpt lat="42.34498447556799" lon="13.434191237609637"><ele>707.0</ele><time>2026-05-03T07:45:50Z</time></trkpt><trkpt lat="42.34492363480828" lon="13.434327218842856"><ele>707.0</ele><time>2026-05-03T07:45:51Z</time></trkpt><trkpt lat="42.34486476998955" lon="13.434468269471065"><ele>707.0</ele><time>2026-05-03T07:45:52Z</time></trkpt><trkpt lat="42.34479866656229" lon="13.434614755423285"><ele>707.0</ele><time>2026-05-03T07:45:53Z</time></trkpt><trkpt lat="42.344742454554115" lon="13.43475096471309"><ele>707.0</ele><time>2026-05-03T07:45:54Z</time></trkpt><trkpt lat="42.34469098814749" lon="13.434878807339707"><ele>704.4000000000001</ele><time>2026-05-03T07:45:55Z</time></trkpt><trkpt lat="42.34464097235246" lon="13.435004692307526"><ele>701.8000000000001</ele><time>2026-05-03T07:45:56Z</time></trkpt><trkpt lat="42.344598590084864" lon="13.435121407345713"><ele>699.2</ele><time>2026-05-03T07:45:57Z</time></trkpt><trkpt lat="42.344555197904526" lon="13.43522524726751"><ele>696.6</ele><time>2026-05-03T07:45:58Z</time></trkpt><trkpt lat="42.34451333907969" lon="13.435328506439074"><ele>694.0</ele><time>2026-05-03T07:45:59Z</time></trkpt><trkpt lat="42.34447930595518" lon="13.43542751423328"><ele>694.5</ele><time>2026-05-03T07:46:00Z</time></trkpt><trkpt lat="42.344442531449566" lon="13.435540305238904"><ele>695.0</ele><time>2026-05-03T07:46:01Z</time></trkpt><trkpt lat="42.344400366841214" lon="13.435646513385052"><ele>695.5</ele><time>2026-05-03T07:46:02Z</time></trkpt><trkpt lat="42.34434443184144" lon="13.435735183927946"><ele>696.0</ele><time>2026-05-03T07:46:03Z</time></trkpt><trkpt lat="42.34429150750714" lon="13.435833390716601"><ele>696.5</ele><time>2026-05-03T07:46:04Z</time></trkpt><trkpt lat="42.344263808333594" lon="13.435937840302774"><ele>697.0</ele><time>2026-05-03T07:46:05Z</time></trkpt><trkpt lat="42.344262208586414" lon="13.436057142810462"><ele>697.0</ele><time>2026-05-03T07:46:06Z</time></trkpt><trkpt lat="42.34426685355167" lon="13.436180318989985"><ele>697.0</ele><time>2026-05-03T07:46:07Z</time></trkpt><trkpt lat="42.34425253975491" lon="13.436299240412906"><ele>697.0</ele><time>2026-05-03T07:46:08Z</time></trkpt><trkpt lat="42.34423598960273" lon="13.436427797541608"><ele>697.0</ele><time>2026-05-03T07:46:08.999Z</time></trkpt><trkpt lat="42.3442242723087" lon="13.43655719326099"><ele>697.0</ele><time>2026-05-03T07:46:09.999Z</time></trkpt><trkpt lat="42.34422043033706" lon="13.436679184741651"><ele>696.8333333333334</ele><time>2026-05-03T07:46:10.999Z</time></trkpt><trkpt lat="42.344218619532334" lon="13.436790619908193"><ele>696.6666666666667</ele><time>2026-05-03T07:46:11.999Z</time></trkpt><trkpt lat="42.3442120405156" lon="13.4368883943511"><ele>696.5</ele><time>2026-05-03T07:46:12.999Z</time></trkpt><trkpt lat="42.34418562965136" lon="13.436985385432976"><ele>696.3333333333334</ele><time>2026-05-03T07:46:13.999Z</time></trkpt><trkpt lat="42.344147485655974" lon="13.437079975517422"><ele>696.1666666666666</ele><time>2026-05-03T07:46:14.999Z</time></trkpt><trkpt lat="42.34410726965099" lon="13.437177679938735"><ele>696.0</ele><time>2026-05-03T07:46:15.999Z</time></trkpt><trkpt lat="42.34407879585372" lon="13.437270451035168"><ele>697.1666666666666</ele><time>2026-05-03T07:46:16.999Z</time></trkpt><trkpt lat="42.344064296347504" lon="13.437357505131638"><ele>698.3333333333334</ele><time>2026-05-03T07:46:17.999Z</time></trkpt><trkpt lat="42.34406415321942" lon="13.437462205947924"><ele>699.5</ele><time>2026-05-03T07:46:18.999Z</time></trkpt><trkpt lat="42.34406036953059" lon="13.43757917508842"><ele>700.6666666666667</ele><time>2026-05-03T07:46:19.999Z</time></trkpt><trkpt lat="42.34404328214715" lon="13.437706186915907"><ele>701.8333333333334</ele><time>2026-05-03T07:46:20.999Z</time></trkpt><trkpt lat="42.344016074472165" lon="13.43782678880526"><ele>703.0</ele><time>2026-05-03T07:46:21.999Z</time></trkpt><trkpt lat="42.3439919173147" lon="13.437926664779699"><ele>704.5999999999999</ele><time>2026-05-03T07:46:22.999Z</time></trkpt><trkpt lat="42.34398502421586" lon="13.43805712993348"><ele>706.1999999999999</ele><time>2026-05-03T07:46:23.999Z</time></trkpt><trkpt lat="42.343975893186574" lon="13.43820640220667"><ele>707.8</ele><time>2026-05-03T07:46:24.999Z</time></trkpt><trkpt lat="42.34394178477275" lon="13.438338999976013"><ele>709.4</ele><time>2026-05-03T07:46:25.999Z</time></trkpt><trkpt lat="42.34392424366776" lon="13.43847671187918"><ele>711.0</ele><time>2026-05-03T07:46:26.999Z</time></trkpt><trkpt lat="42.34390550222186" lon="13.438594452255218"><ele>708.5</ele><time>2026-05-03T07:46:27.999Z</time></trkpt><trkpt lat="42.34387865057314" lon="13.43870079786233"><ele>706.0</ele><time>2026-05-03T07:46:28.999Z</time></trkpt><trkpt lat="42.343833344828525" lon="13.43880190021077"><ele>703.5</ele><time>2026-05-03T07:46:29.999Z</time></trkpt><trkpt lat="42.343779204867985" lon="13.438900487107295"><ele>701.0</ele><time>2026-05-03T07:46:30.999Z</time></trkpt><trkpt lat="42.34371886117125" lon="13.438980275777991"><ele>698.5</ele><time>2026-05-03T07:46:31.999Z</time></trkpt><trkpt lat="42.34365384896113" lon="13.439027457369505"><ele>696.0</ele><time>2026-05-03T07:46:32.999Z</time></trkpt><trkpt lat="42.34357636714696" lon="13.439070202536335"><ele>696.0</ele><time>2026-05-03T07:46:33.999Z</time></trkpt><trkpt lat="42.34350600899516" lon="13.439131140468477"><ele>696.0</ele><time>2026-05-03T07:46:34.999Z</time></trkpt><trkpt lat="42.34343969727444" lon="13.439209466335763"><ele>696.0</ele><time>2026-05-03T07:46:35.999Z</time></trkpt><trkpt lat="42.343373295955665" lon="13.439307136111063"><ele>696.0</ele><time>2026-05-03T07:46:36.999Z</time></trkpt><trkpt lat="42.34330586558066" lon="13.439403352695994"><ele>696.0</ele><time>2026-05-03T07:46:37.999Z</time></trkpt><trkpt lat="42.34324663968488" lon="13.439475231052366"><ele>696.0</ele><time>2026-05-03T07:46:38.999Z</time></trkpt><trkpt lat="42.34319492782994" lon="13.43953418272744"><ele>696.0</ele><time>2026-05-03T07:46:39.999Z</time></trkpt><trkpt lat="42.34314901208169" lon="13.439592947958365"><ele>696.0</ele><time>2026-05-03T07:46:40.999Z</time></trkpt><trkpt lat="42.343105775314214" lon="13.439671621540835"><ele>696.0</ele><time>2026-05-03T07:46:41.999Z</time></trkpt><trkpt lat="42.34305309784723" lon="13.439742104158656"><ele>696.0</ele><time>2026-05-03T07:46:42.999Z</time></trkpt><trkpt lat="42.342992396816776" lon="13.439798359891796"><ele>696.0</ele><time>2026-05-03T07:46:43.999Z</time></trkpt><trkpt lat="42.342929430039504" lon="13.439855902043039"><ele>696.0</ele><time>2026-05-03T07:46:44.999Z</time></trkpt><trkpt lat="42.34286139911027" lon="13.439883413387697"><ele>696.0</ele><time>2026-05-03T07:46:45.999Z</time></trkpt><trkpt lat="42.34278673606008" lon="13.439901395591702"><ele>695.6666666666666</ele><time>2026-05-03T07:46:46.999Z</time></trkpt><trkpt lat="42.34270936310418" lon="13.439915072335898"><ele>695.3333333333334</ele><time>2026-05-03T07:46:47.999Z</time></trkpt><trkpt lat="42.34263546202845" lon="13.439907067699576"><ele>695.0</ele><time>2026-05-03T07:46:48.999Z</time></trkpt><trkpt lat="42.34256012690703" lon="13.439888206744785"><ele>694.6666666666667</ele><time>2026-05-03T07:46:49.999Z</time></trkpt><trkpt lat="42.34247789278129" lon="13.439876163542218"><ele>694.3333333333334</ele><time>2026-05-03T07:46:50.999Z</time></trkpt><trkpt lat="42.34239405759864" lon="13.439877153864579"><ele>694.0</ele><time>2026-05-03T07:46:51.999Z</time></trkpt><trkpt lat="42.342320996180355" lon="13.439897808903455"><ele>694.0</ele><time>2026-05-03T07:46:52.999Z</time></trkpt><trkpt lat="42.34226202386028" lon="13.439941895358366"><ele>694.0</ele><time>2026-05-03T07:46:53.999Z</time></trkpt><trkpt lat="42.34220175230977" lon="13.439995319119001"><ele>694.0</ele><time>2026-05-03T07:46:55Z</time></trkpt><trkpt lat="42.34213379249365" lon="13.440049908628371"><ele>694.0</ele><time>2026-05-03T07:46:56Z</time></trkpt><trkpt lat="42.34206931957735" lon="13.440075911258086"><ele>694.0</ele><time>2026-05-03T07:46:57Z</time></trkpt><trkpt lat="42.34199828061411" lon="13.440091862671546"><ele>694.0</ele><time>2026-05-03T07:46:58Z</time></trkpt><trkpt lat="42.3419354734962" lon="13.440104716682056"><ele>694.0</ele><time>2026-05-03T07:46:59Z</time></trkpt><trkpt lat="42.341827815582064" lon="13.440156764713086"><ele>692.5714285714286</ele><time>2026-05-03T07:47:01Z</time></trkpt><trkpt lat="42.34175415585647" lon="13.44018296287304"><ele>691.1428571428571</ele><time>2026-05-03T07:47:02Z</time></trkpt><trkpt lat="42.341680358328055" lon="13.44019833443057"><ele>689.7142857142857</ele><time>2026-05-03T07:47:03Z</time></trkpt><trkpt lat="42.341604619433774" lon="13.440210076036587"><ele>688.2857142857142</ele><time>2026-05-03T07:47:04Z</time></trkpt><trkpt lat="42.34153345114201" lon="13.440214572854082"><ele>686.8571428571429</ele><time>2026-05-03T07:47:05Z</time></trkpt><trkpt lat="42.34146487224539" lon="13.440226747091074"><ele>685.4285714285713</ele><time>2026-05-03T07:47:06Z</time></trkpt><trkpt lat="42.34139170849014" lon="13.440219367880648"><ele>684.0</ele><time>2026-05-03T07:47:07Z</time></trkpt><trkpt lat="42.341326371622316" lon="13.440204599370919"><ele>681.8000000000001</ele><time>2026-05-03T07:47:08Z</time></trkpt><trkpt lat="42.341203455738594" lon="13.440178348260288"><ele>679.6</ele><time>2026-05-03T07:47:10Z</time></trkpt><trkpt lat="42.34113393156809" lon="13.440201623881094"><ele>677.4</ele><time>2026-05-03T07:47:11Z</time></trkpt><trkpt lat="42.34107196751335" lon="13.440229889390906"><ele>675.2</ele><time>2026-05-03T07:47:12Z</time></trkpt><trkpt lat="42.34100789652948" lon="13.4403226396102"><ele>673.0</ele><time>2026-05-03T07:47:15Z</time></trkpt><trkpt lat="42.34087922851738" lon="13.44032907782247"><ele>673.0</ele><time>2026-05-03T07:47:16Z</time></trkpt><trkpt lat="42.34081475840027" lon="13.440365097081916"><ele>673.0</ele><time>2026-05-03T07:47:17Z</time></trkpt><trkpt lat="42.34075213676857" lon="13.440405539478354"><ele>673.0</ele><time>2026-05-03T07:47:18Z</time></trkpt><trkpt lat="42.34065439020773" lon="13.440453608502857"><ele>673.0</ele><time>2026-05-03T07:47:20Z</time></trkpt><trkpt lat="42.340543256382425" lon="13.440498914293737"><ele>673.0</ele><time>2026-05-03T07:47:22Z</time></trkpt><trkpt lat="42.3404848322232" lon="13.44053274771398"><ele>673.0</ele><time>2026-05-03T07:47:23Z</time></trkpt><trkpt lat="42.340429641878515" lon="13.440580401992781"><ele>671.0</ele><time>2026-05-03T07:47:24Z</time></trkpt><trkpt lat="42.340379511736124" lon="13.440634802392136"><ele>669.0</ele><time>2026-05-03T07:47:25Z</time></trkpt><trkpt lat="42.340338892709774" lon="13.440781564019478"><ele>667.0</ele><time>2026-05-03T07:47:27Z</time></trkpt><trkpt lat="42.34031953826819" lon="13.440874218924199"><ele>665.0</ele><time>2026-05-03T07:47:28Z</time></trkpt><trkpt lat="42.34029662971064" lon="13.44097083201788"><ele>663.0</ele><time>2026-05-03T07:47:29Z</time></trkpt><trkpt lat="42.340275026382294" lon="13.441064737622225"><ele>661.0</ele><time>2026-05-03T07:47:30Z</time></trkpt><trkpt lat="42.34026463550993" lon="13.441151121751773"><ele>661.0</ele><time>2026-05-03T07:47:31Z</time></trkpt><trkpt lat="42.34024948342638" lon="13.441250296738085"><ele>661.0</ele><time>2026-05-03T07:47:32Z</time></trkpt><trkpt lat="42.34023654682868" lon="13.441355382983305"><ele>661.0</ele><time>2026-05-03T07:47:33Z</time></trkpt><trkpt lat="42.340216771239774" lon="13.441459545680914"><ele>661.0</ele><time>2026-05-03T07:47:34Z</time></trkpt><trkpt lat="42.34018326644221" lon="13.441559793672049"><ele>661.0</ele><time>2026-05-03T07:47:35Z</time></trkpt><trkpt lat="42.340158088104076" lon="13.44166418170126"><ele>661.0</ele><time>2026-05-03T07:47:36Z</time></trkpt><trkpt lat="42.34013504320161" lon="13.44177579769006"><ele>660.0</ele><time>2026-05-03T07:47:37Z</time></trkpt><trkpt lat="42.34011024037527" lon="13.441888501653883"><ele>659.0</ele><time>2026-05-03T07:47:38Z</time></trkpt><trkpt lat="42.340075735486295" lon="13.441997608939458"><ele>658.0</ele><time>2026-05-03T07:47:39Z</time></trkpt><trkpt lat="42.34004332687257" lon="13.442106995093772"><ele>657.0</ele><time>2026-05-03T07:47:40Z</time></trkpt><trkpt lat="42.340001970956905" lon="13.442229074389013"><ele>656.0</ele><time>2026-05-03T07:47:41Z</time></trkpt><trkpt lat="42.33997277353769" lon="13.442348606513816"><ele>654.8</ele><time>2026-05-03T07:47:42Z</time></trkpt><trkpt lat="42.339945673732316" lon="13.442466613016625"><ele>653.5999999999999</ele><time>2026-05-03T07:47:43Z</time></trkpt><trkpt lat="42.339917778965706" lon="13.442583566257005"><ele>652.4</ele><time>2026-05-03T07:47:44Z</time></trkpt><trkpt lat="42.33989423034503" lon="13.442694037156517"><ele>651.2</ele><time>2026-05-03T07:47:45Z</time></trkpt><trkpt lat="42.33986957898168" lon="13.442815847223041"><ele>650.0</ele><time>2026-05-03T07:47:46Z</time></trkpt><trkpt lat="42.33984460719991" lon="13.442947483270693"><ele>650.6</ele><time>2026-05-03T07:47:47Z</time></trkpt><trkpt lat="42.33981607713623" lon="13.44306719884696"><ele>651.2</ele><time>2026-05-03T07:47:48Z</time></trkpt><trkpt lat="42.33977756365661" lon="13.443169499544567"><ele>651.8</ele><time>2026-05-03T07:47:49Z</time></trkpt><trkpt lat="42.339719757545986" lon="13.443295538145028"><ele>652.4</ele><time>2026-05-03T07:47:51Z</time></trkpt><trkpt lat="42.33963756496896" lon="13.443411584269125"><ele>653.0</ele><time>2026-05-03T07:47:53Z</time></trkpt><trkpt lat="42.339579639248754" lon="13.443480080730318"><ele>653.0</ele><time>2026-05-03T07:47:54Z</time></trkpt><trkpt lat="42.33951030357232" lon="13.443554350135237"><ele>653.0</ele><time>2026-05-03T07:47:55Z</time></trkpt><trkpt lat="42.33943161080461" lon="13.443636512064991"><ele>653.0</ele><time>2026-05-03T07:47:56Z</time></trkpt><trkpt lat="42.339365223862146" lon="13.443708801425284"><ele>653.0</ele><time>2026-05-03T07:47:57Z</time></trkpt><trkpt lat="42.339308342595764" lon="13.443772277827428"><ele>653.0</ele><time>2026-05-03T07:47:58Z</time></trkpt><trkpt lat="42.339252501882704" lon="13.443831270049523"><ele>653.0</ele><time>2026-05-03T07:47:59Z</time></trkpt><trkpt lat="42.339192415141774" lon="13.443903941736732"><ele>653.0</ele><time>2026-05-03T07:48:00Z</time></trkpt><trkpt lat="42.33913182068494" lon="13.443978368570397"><ele>653.0</ele><time>2026-05-03T07:48:01Z</time></trkpt><trkpt lat="42.339080059626276" lon="13.444060512511925"><ele>653.0</ele><time>2026-05-03T07:48:02Z</time></trkpt><trkpt lat="42.33903269728177" lon="13.444199509035307"><ele>653.0</ele><time>2026-05-03T07:48:04Z</time></trkpt><trkpt lat="42.33899869479812" lon="13.444336973790936"><ele>653.0</ele><time>2026-05-03T07:48:06Z</time></trkpt><trkpt lat="42.33899256043197" lon="13.444424634303575"><ele>653.0</ele><time>2026-05-03T07:48:07Z</time></trkpt><trkpt lat="42.33899669936841" lon="13.444531731859497"><ele>652.8333333333333</ele><time>2026-05-03T07:48:08Z</time></trkpt><trkpt lat="42.33901224404392" lon="13.44464376925367"><ele>652.6666666666666</ele><time>2026-05-03T07:48:09Z</time></trkpt><trkpt lat="42.33902008820152" lon="13.444748522376214"><ele>652.5</ele><time>2026-05-03T07:48:10Z</time></trkpt><trkpt lat="42.339012750649154" lon="13.44486596034197"><ele>652.3333333333334</ele><time>2026-05-03T07:48:11Z</time></trkpt><trkpt lat="42.33899490096781" lon="13.444983288186505"><ele>652.1666666666667</ele><time>2026-05-03T07:48:12Z</time></trkpt><trkpt lat="42.33897727794437" lon="13.445110949769774"><ele>652.0</ele><time>2026-05-03T07:48:13Z</time></trkpt><trkpt lat="42.33895791037804" lon="13.445243611813654"><ele>652.0</ele><time>2026-05-03T07:48:14Z</time></trkpt><trkpt lat="42.338934268678656" lon="13.445384349659328"><ele>652.0</ele><time>2026-05-03T07:48:15Z</time></trkpt><trkpt lat="42.33891025694206" lon="13.445516136494449"><ele>652.0</ele><time>2026-05-03T07:48:16Z</time></trkpt><trkpt lat="42.338873241799305" lon="13.445631922821642"><ele>652.0</ele><time>2026-05-03T07:48:17Z</time></trkpt><trkpt lat="42.338862001395654" lon="13.445767681226563"><ele>652.0</ele><time>2026-05-03T07:48:18Z</time></trkpt><trkpt lat="42.338799956643435" lon="13.445906512899192"><ele>649.0</ele><time>2026-05-03T07:48:19Z</time></trkpt><trkpt lat="42.33874197881708" lon="13.446053474051123"><ele>646.0</ele><time>2026-05-03T07:48:19.999Z</time></trkpt><trkpt lat="42.33869485594168" lon="13.446204168068062"><ele>643.0</ele><time>2026-05-03T07:48:20.999Z</time></trkpt><trkpt lat="42.33863181393163" lon="13.446338822393736"><ele>640.0</ele><time>2026-05-03T07:48:21.999Z</time></trkpt><trkpt lat="42.33857651956372" lon="13.446504573392298"><ele>640.0</ele><time>2026-05-03T07:48:22.999Z</time></trkpt><trkpt lat="42.33851149490465" lon="13.446691578734711"><ele>640.0</ele><time>2026-05-03T07:48:23.999Z</time></trkpt><trkpt lat="42.338455766021156" lon="13.446880326685532"><ele>640.0</ele><time>2026-05-03T07:48:24.999Z</time></trkpt><trkpt lat="42.3384047638745" lon="13.44705944470992"><ele>640.0</ele><time>2026-05-03T07:48:25.999Z</time></trkpt><trkpt lat="42.33835662842044" lon="13.447235212431425"><ele>640.25</ele><time>2026-05-03T07:48:26.999Z</time></trkpt><trkpt lat="42.338303420363395" lon="13.447403856639198"><ele>640.5</ele><time>2026-05-03T07:48:27.999Z</time></trkpt><trkpt lat="42.33825563442665" lon="13.447576477454858"><ele>640.75</ele><time>2026-05-03T07:48:28.999Z</time></trkpt><trkpt lat="42.338212434199455" lon="13.447744528538314"><ele>641.0</ele><time>2026-05-03T07:48:29.999Z</time></trkpt><trkpt lat="42.33816893979937" lon="13.447909839678761"><ele>641.0</ele><time>2026-05-03T07:48:30.999Z</time></trkpt><trkpt lat="42.3381200223408" lon="13.448077586070129"><ele>641.0</ele><time>2026-05-03T07:48:31.999Z</time></trkpt><trkpt lat="42.338069580699106" lon="13.448238826778152"><ele>641.0</ele><time>2026-05-03T07:48:32.999Z</time></trkpt><trkpt lat="42.33802321233736" lon="13.448400134817451"><ele>641.0</ele><time>2026-05-03T07:48:33.999Z</time></trkpt><trkpt lat="42.337969213789435" lon="13.448568071052247"><ele>637.0</ele><time>2026-05-03T07:48:34.999Z</time></trkpt><trkpt lat="42.33792240615923" lon="13.448729719497921"><ele>633.0</ele><time>2026-05-03T07:48:35.999Z</time></trkpt><trkpt lat="42.337876325881524" lon="13.448879352300592"><ele>629.0</ele><time>2026-05-03T07:48:36.999Z</time></trkpt><trkpt lat="42.33783424287027" lon="13.449028726584622"><ele>625.0</ele><time>2026-05-03T07:48:37.999Z</time></trkpt><trkpt lat="42.33780444896264" lon="13.449174474245877"><ele>625.0</ele><time>2026-05-03T07:48:38.999Z</time></trkpt><trkpt lat="42.33777464892008" lon="13.449321928630793"><ele>625.0</ele><time>2026-05-03T07:48:39.999Z</time></trkpt><trkpt lat="42.33775666240589" lon="13.449476459508356"><ele>625.0</ele><time>2026-05-03T07:48:40.999Z</time></trkpt><trkpt lat="42.337751528338714" lon="13.44964425981915"><ele>625.0</ele><time>2026-05-03T07:48:41.999Z</time></trkpt><trkpt lat="42.33777073209766" lon="13.449833253363611"><ele>624.75</ele><time>2026-05-03T07:48:42.999Z</time></trkpt><trkpt lat="42.337795275745535" lon="13.450008271224723"><ele>624.5</ele><time>2026-05-03T07:48:43.999Z</time></trkpt><trkpt lat="42.33781491561528" lon="13.45017370726812"><ele>624.25</ele><time>2026-05-03T07:48:44.999Z</time></trkpt><trkpt lat="42.33782907915592" lon="13.450339023691"><ele>624.0</ele><time>2026-05-03T07:48:45.999Z</time></trkpt><trkpt lat="42.337842253484226" lon="13.45049732483441"><ele>623.6</ele><time>2026-05-03T07:48:46.999Z</time></trkpt><trkpt lat="42.3378480743019" lon="13.450657110273939"><ele>623.2</ele><time>2026-05-03T07:48:47.999Z</time></trkpt><trkpt lat="42.337854662610496" lon="13.450807097113687"><ele>622.8000000000001</ele><time>2026-05-03T07:48:48.999Z</time></trkpt><trkpt lat="42.33785874588105" lon="13.450949491469027"><ele>622.4</ele><time>2026-05-03T07:48:49.999Z</time></trkpt><trkpt lat="42.337862930143174" lon="13.451087367079325"><ele>622.0</ele><time>2026-05-03T07:48:50.999Z</time></trkpt><trkpt lat="42.33786825975915" lon="13.451221363885216"><ele>621.6</ele><time>2026-05-03T07:48:51.999Z</time></trkpt><trkpt lat="42.337874189711" lon="13.451355158210884"><ele>621.2</ele><time>2026-05-03T07:48:52.999Z</time></trkpt><trkpt lat="42.33788470222696" lon="13.451474736707002"><ele>620.8</ele><time>2026-05-03T07:48:53.999Z</time></trkpt><trkpt lat="42.33789307335503" lon="13.451597219377788"><ele>620.4</ele><time>2026-05-03T07:48:54.999Z</time></trkpt><trkpt lat="42.3378998122796" lon="13.451719541045028"><ele>620.0</ele><time>2026-05-03T07:48:55.999Z</time></trkpt><trkpt lat="42.33790833929478" lon="13.451852622365589"><ele>620.0</ele><time>2026-05-03T07:48:56.999Z</time></trkpt><trkpt lat="42.33791446075902" lon="13.451989555998768"><ele>620.0</ele><time>2026-05-03T07:48:57.999Z</time></trkpt><trkpt lat="42.33791594847657" lon="13.452115717283975"><ele>620.0</ele><time>2026-05-03T07:48:58.999Z</time></trkpt><trkpt lat="42.33792448285148" lon="13.452237607522209"><ele>620.0</ele><time>2026-05-03T07:49:00Z</time></trkpt><trkpt lat="42.33791185427383" lon="13.452358218636554"><ele>620.0</ele><time>2026-05-03T07:49:01Z</time></trkpt><trkpt lat="42.33791516135974" lon="13.45247200158166"><ele>619.3333333333333</ele><time>2026-05-03T07:49:02Z</time></trkpt><trkpt lat="42.337918469294806" lon="13.452575515377376"><ele>618.6666666666666</ele><time>2026-05-03T07:49:03Z</time></trkpt><trkpt lat="42.33792700493176" lon="13.452721751950696"><ele>618.0</ele><time>2026-05-03T07:49:05Z</time></trkpt><trkpt lat="42.33793979858193" lon="13.452831966296099"><ele>617.3333333333334</ele><time>2026-05-03T07:49:07Z</time></trkpt><trkpt lat="42.33794400192493" lon="13.452924914354327"><ele>616.6666666666667</ele><time>2026-05-03T07:49:09Z</time></trkpt><trkpt lat="42.33794924747396" lon="13.453015514804912"><ele>616.0</ele><time>2026-05-03T07:49:11Z</time></trkpt><trkpt lat="42.33795595706384" lon="13.453131401916696"><ele>615.25</ele><time>2026-05-03T07:49:13Z</time></trkpt><trkpt lat="42.3379628970599" lon="13.453251268630996"><ele>614.5</ele><time>2026-05-03T07:49:15Z</time></trkpt><trkpt lat="42.33814183600415" lon="13.453308454295843"><ele>613.75</ele><time>2026-05-03T07:49:16Z</time></trkpt><trkpt lat="42.33814038089319" lon="13.453396963680532"><ele>613.0</ele><time>2026-05-03T07:49:17Z</time></trkpt><trkpt lat="42.338162035872784" lon="13.45354791498362"><ele>615.3333333333334</ele><time>2026-05-03T07:49:19Z</time></trkpt><trkpt lat="42.33819909137431" lon="13.453640337422533"><ele>617.6666666666667</ele><time>2026-05-03T07:49:21Z</time></trkpt><trkpt lat="42.338229710366114" lon="13.45377035648757"><ele>620.0</ele><time>2026-05-03T07:49:23Z</time></trkpt><trkpt lat="42.33823962554163" lon="13.45393078497525"><ele>622.3333333333334</ele><time>2026-05-03T07:49:25Z</time></trkpt><trkpt lat="42.33824954149456" lon="13.454020959361964"><ele>624.6666666666666</ele><time>2026-05-03T07:49:26Z</time></trkpt><trkpt lat="42.33825885476553" lon="13.454114561400639"><ele>627.0</ele><time>2026-05-03T07:49:27Z</time></trkpt><trkpt lat="42.33814950821649" lon="13.45422966016816"><ele>627.0</ele><time>2026-05-03T07:49:28Z</time></trkpt><trkpt lat="42.338132459622145" lon="13.454346953879067"><ele>627.0</ele><time>2026-05-03T07:49:29Z</time></trkpt><trkpt lat="42.338119414450794" lon="13.454452366034168"><ele>627.0</ele><time>2026-05-03T07:49:30Z</time></trkpt><trkpt lat="42.3381083296943" lon="13.454562864659685"><ele>627.0</ele><time>2026-05-03T07:49:31Z</time></trkpt><trkpt lat="42.33810450475097" lon="13.4546697124719"><ele>627.0</ele><time>2026-05-03T07:49:32Z</time></trkpt><trkpt lat="42.338085561869704" lon="13.454775052533751"><ele>627.0</ele><time>2026-05-03T07:49:33Z</time></trkpt><trkpt lat="42.3381184575051" lon="13.454887033514284"><ele>626.0</ele><time>2026-05-03T07:49:34Z</time></trkpt><trkpt lat="42.338142592648566" lon="13.454993948197872"><ele>625.0</ele><time>2026-05-03T07:49:35Z</time></trkpt><trkpt lat="42.33816782235023" lon="13.455103004132903"><ele>624.0</ele><time>2026-05-03T07:49:36Z</time></trkpt><trkpt lat="42.338190663068396" lon="13.45519785811089"><ele>623.0</ele><time>2026-05-03T07:49:37Z</time></trkpt><trkpt lat="42.33821300162306" lon="13.45528044514995"><ele>622.0</ele><time>2026-05-03T07:49:38Z</time></trkpt><trkpt lat="42.33824804258039" lon="13.455407519275987"><ele>621.0</ele><time>2026-05-03T07:49:40Z</time></trkpt><trkpt lat="42.338212421064526" lon="13.455504294574498"><ele>617.8</ele><time>2026-05-03T07:49:42Z</time></trkpt><trkpt lat="42.33808447771529" lon="13.455488803936793"><ele>614.6</ele><time>2026-05-03T07:49:46Z</time></trkpt><trkpt lat="42.338065615325945" lon="13.455596915450393"><ele>611.4</ele><time>2026-05-03T07:49:53Z</time></trkpt><trkpt lat="42.33817781529363" lon="13.455636396708135"><ele>608.2</ele><time>2026-05-03T07:49:55Z</time></trkpt><trkpt lat="42.338253412211714" lon="13.45566286403878"><ele>605.0</ele><time>2026-05-03T07:49:56Z</time></trkpt><trkpt lat="42.33835001277763" lon="13.455695913685824"><ele>605.0</ele><time>2026-05-03T07:49:57Z</time></trkpt><trkpt lat="42.33845098733374" lon="13.455729841133644"><ele>605.0</ele><time>2026-05-03T07:49:58Z</time></trkpt><trkpt lat="42.33856690508262" lon="13.455768789474007"><ele>605.0</ele><time>2026-05-03T07:49:59Z</time></trkpt><trkpt lat="42.33869198058515" lon="13.45578582613497"><ele>605.0</ele><time>2026-05-03T07:50:00Z</time></trkpt><trkpt lat="42.33880455546116" lon="13.455828044669873"><ele>606.0</ele><time>2026-05-03T07:50:01Z</time></trkpt><trkpt lat="42.33890951733831" lon="13.455870039578585"><ele>607.0</ele><time>2026-05-03T07:50:02Z</time></trkpt><trkpt lat="42.33900821238236" lon="13.455918734541957"><ele>608.0</ele><time>2026-05-03T07:50:03Z</time></trkpt><trkpt lat="42.33911634547793" lon="13.455956821457118"><ele>609.0</ele><time>2026-05-03T07:50:04Z</time></trkpt><trkpt lat="42.33922516699625" lon="13.455986889733294"><ele>610.0</ele><time>2026-05-03T07:50:05Z</time></trkpt><trkpt lat="42.33932429879608" lon="13.45599161600172"><ele>610.0</ele><time>2026-05-03T07:50:06Z</time></trkpt><trkpt lat="42.339420360221986" lon="13.455978680412702"><ele>610.0</ele><time>2026-05-03T07:50:07Z</time></trkpt><trkpt lat="42.33950984199962" lon="13.455972726420812"><ele>610.0</ele><time>2026-05-03T07:50:08Z</time></trkpt><trkpt lat="42.3395847297032" lon="13.455981767011354"><ele>610.0</ele><time>2026-05-03T07:50:09Z</time></trkpt><trkpt lat="42.339649834114006" lon="13.456071423958829"><ele>610.0</ele><time>2026-05-03T07:50:10Z</time></trkpt><trkpt lat="42.339694088862394" lon="13.456175839665383"><ele>610.0</ele><time>2026-05-03T07:50:11Z</time></trkpt><trkpt lat="42.33971478602798" lon="13.45629089027814"><ele>608.5</ele><time>2026-05-03T07:50:12Z</time></trkpt><trkpt lat="42.33971328036319" lon="13.456392966580143"><ele>607.0</ele><time>2026-05-03T07:50:13Z</time></trkpt><trkpt lat="42.33973756723551" lon="13.456508792186339"><ele>605.5</ele><time>2026-05-03T07:50:15Z</time></trkpt><trkpt lat="42.33975139806343" lon="13.456593744175489"><ele>604.0</ele><time>2026-05-03T07:50:28Z</time></trkpt><trkpt lat="42.33983015550535" lon="13.4566929959716"><ele>602.5</ele><time>2026-05-03T07:50:32Z</time></trkpt><trkpt lat="42.33992610388461" lon="13.456711212181824"><ele>601.0</ele><time>2026-05-03T07:50:33Z</time></trkpt><trkpt lat="42.34004883703472" lon="13.456735008312506"><ele>601.0</ele><time>2026-05-03T07:50:34Z</time></trkpt><trkpt lat="42.34020554528776" lon="13.456788183186344"><ele>601.0</ele><time>2026-05-03T07:50:35Z</time></trkpt><trkpt lat="42.34038545670604" lon="13.456835179539274"><ele>601.0</ele><time>2026-05-03T07:50:36Z</time></trkpt><trkpt lat="42.34055840751292" lon="13.45688150929184"><ele>600.6666666666667</ele><time>2026-05-03T07:50:37Z</time></trkpt><trkpt lat="42.340739270537036" lon="13.456926243058296"><ele>600.3333333333334</ele><time>2026-05-03T07:50:38Z</time></trkpt><trkpt lat="42.34090901094504" lon="13.45706731644026"><ele>600.0</ele><time>2026-05-03T07:50:39Z</time></trkpt><trkpt lat="42.34109178489504" lon="13.457153953072165"><ele>600.3333333333334</ele><time>2026-05-03T07:50:40Z</time></trkpt><trkpt lat="42.341257415450116" lon="13.457253727747837"><ele>600.6666666666667</ele><time>2026-05-03T07:50:41Z</time></trkpt><trkpt lat="42.34139955842786" lon="13.457373950423415"><ele>601.0</ele><time>2026-05-03T07:50:42Z</time></trkpt><trkpt lat="42.341517604918565" lon="13.457520787277806"><ele>601.0</ele><time>2026-05-03T07:50:43Z</time></trkpt><trkpt lat="42.34163598471536" lon="13.457694209338413"><ele>601.0</ele><time>2026-05-03T07:50:44Z</time></trkpt><trkpt lat="42.34176601522889" lon="13.457879076032022"><ele>601.0</ele><time>2026-05-03T07:50:45Z</time></trkpt><trkpt lat="42.34188503031084" lon="13.458041688701279"><ele>601.0</ele><time>2026-05-03T07:50:46Z</time></trkpt><trkpt lat="42.34200040795205" lon="13.45819325980157"><ele>601.0</ele><time>2026-05-03T07:50:47Z</time></trkpt><trkpt lat="42.34210897305883" lon="13.458329813261349"><ele>601.0</ele><time>2026-05-03T07:50:48Z</time></trkpt><trkpt lat="42.3422088004887" lon="13.458461838502911"><ele>601.0</ele><time>2026-05-03T07:50:49Z</time></trkpt><trkpt lat="42.34230480988097" lon="13.458592960279146"><ele>601.0</ele><time>2026-05-03T07:50:50Z</time></trkpt><trkpt lat="42.342413977650345" lon="13.458735539137383"><ele>601.0</ele><time>2026-05-03T07:50:51Z</time></trkpt><trkpt lat="42.342521638206804" lon="13.458871834091296"><ele>601.0</ele><time>2026-05-03T07:50:52Z</time></trkpt><trkpt lat="42.34262808715733" lon="13.45901304856376"><ele>601.0</ele><time>2026-05-03T07:50:53Z</time></trkpt><trkpt lat="42.342733932408954" lon="13.459160850360119"><ele>601.0</ele><time>2026-05-03T07:50:54Z</time></trkpt><trkpt lat="42.342848464858456" lon="13.459317946466093"><ele>601.0</ele><time>2026-05-03T07:50:55Z</time></trkpt><trkpt lat="42.34297042923483" lon="13.459472780615101"><ele>601.0</ele><time>2026-05-03T07:50:56Z</time></trkpt><trkpt lat="42.34309238696473" lon="13.459627814118232"><ele>602.6666666666667</ele><time>2026-05-03T07:50:57Z</time></trkpt><trkpt lat="42.34322561073262" lon="13.459802159575563"><ele>604.3333333333334</ele><time>2026-05-03T07:50:58Z</time></trkpt><trkpt lat="42.343361954563164" lon="13.459980128721574"><ele>606.0</ele><time>2026-05-03T07:50:59Z</time></trkpt><trkpt lat="42.34350063051028" lon="13.460161895596293"><ele>606.0</ele><time>2026-05-03T07:51:00Z</time></trkpt><trkpt lat="42.34363697020456" lon="13.460347938014442"><ele>606.0</ele><time>2026-05-03T07:51:01Z</time></trkpt><trkpt lat="42.343765334796956" lon="13.460526112045887"><ele>606.0</ele><time>2026-05-03T07:51:02Z</time></trkpt><trkpt lat="42.34388845938223" lon="13.460683071085354"><ele>607.0</ele><time>2026-05-03T07:51:03Z</time></trkpt><trkpt lat="42.344006425605905" lon="13.460828052042874"><ele>608.0</ele><time>2026-05-03T07:51:04Z</time></trkpt><trkpt lat="42.34411454743594" lon="13.460970222467898"><ele>609.0</ele><time>2026-05-03T07:51:05Z</time></trkpt><trkpt lat="42.34421552802984" lon="13.461100068850772"><ele>610.0</ele><time>2026-05-03T07:51:06.001Z</time></trkpt><trkpt lat="42.34431915270051" lon="13.461223101872708"><ele>609.75</ele><time>2026-05-03T07:51:07.001Z</time></trkpt><trkpt lat="42.344426976290094" lon="13.461342958858674"><ele>609.5</ele><time>2026-05-03T07:51:08.001Z</time></trkpt><trkpt lat="42.34453449652759" lon="13.461468689722011"><ele>609.25</ele><time>2026-05-03T07:51:09.001Z</time></trkpt><trkpt lat="42.344648104443124" lon="13.461602058061146"><ele>609.0</ele><time>2026-05-03T07:51:10.001Z</time></trkpt><trkpt lat="42.344765223427636" lon="13.461738052269697"><ele>609.75</ele><time>2026-05-03T07:51:11Z</time></trkpt><trkpt lat="42.344885458259114" lon="13.461871790846695"><ele>610.5</ele><time>2026-05-03T07:51:12Z</time></trkpt><trkpt lat="42.34499561902871" lon="13.46198429391332"><ele>611.25</ele><time>2026-05-03T07:51:13Z</time></trkpt><trkpt lat="42.34511051305163" lon="13.462097121141888"><ele>612.0</ele><time>2026-05-03T07:51:14Z</time></trkpt><trkpt lat="42.345219398111325" lon="13.462196844949563"><ele>612.0</ele><time>2026-05-03T07:51:15Z</time></trkpt><trkpt lat="42.34532064636979" lon="13.462285831710641"><ele>612.0</ele><time>2026-05-03T07:51:16Z</time></trkpt><trkpt lat="42.3454095868778" lon="13.462361333449977"><ele>612.0</ele><time>2026-05-03T07:51:17Z</time></trkpt><trkpt lat="42.34547429111142" lon="13.462419180941106"><ele>612.0</ele><time>2026-05-03T07:51:18Z</time></trkpt><trkpt lat="42.34553197932711" lon="13.462467403968388"><ele>612.0</ele><time>2026-05-03T07:51:20Z</time></trkpt><trkpt lat="42.34560071406213" lon="13.462537998902755"><ele>612.0</ele><time>2026-05-03T07:51:23Z</time></trkpt><trkpt lat="42.34559904567429" lon="13.462666257362056"><ele>612.0</ele><time>2026-05-03T07:51:26Z</time></trkpt><trkpt lat="42.3455080719919" lon="13.462795401410048"><ele>612.0</ele><time>2026-05-03T07:51:28Z</time></trkpt><trkpt lat="42.34544157467572" lon="13.462869927489086"><ele>612.0</ele><time>2026-05-03T07:51:29Z</time></trkpt><trkpt lat="42.34536419056938" lon="13.462976721015186"><ele>612.0</ele><time>2026-05-03T07:51:30Z</time></trkpt><trkpt lat="42.34527760324091" lon="13.463114076136423"><ele>612.6666666666666</ele><time>2026-05-03T07:51:31Z</time></trkpt><trkpt lat="42.345183267663806" lon="13.463279205058113"><ele>613.3333333333333</ele><time>2026-05-03T07:51:32Z</time></trkpt><trkpt lat="42.34509361531004" lon="13.46345052653066"><ele>614.0</ele><time>2026-05-03T07:51:33Z</time></trkpt><trkpt lat="42.345018009979725" lon="13.46361207186617"><ele>614.0</ele><time>2026-05-03T07:51:34Z</time></trkpt><trkpt lat="42.34496294135169" lon="13.463777873873031"><ele>614.0</ele><time>2026-05-03T07:51:35Z</time></trkpt><trkpt lat="42.3449218997406" lon="13.463951074416109"><ele>614.0</ele><time>2026-05-03T07:51:36Z</time></trkpt><trkpt lat="42.34489274627857" lon="13.46413286259682"><ele>614.0</ele><time>2026-05-03T07:51:37Z</time></trkpt><trkpt lat="42.34485970555214" lon="13.46430617826595"><ele>614.2</ele><time>2026-05-03T07:51:38Z</time></trkpt><trkpt lat="42.34482103070017" lon="13.464469877409812"><ele>614.4</ele><time>2026-05-03T07:51:39Z</time></trkpt><trkpt lat="42.34478071588147" lon="13.464616323506215"><ele>614.6</ele><time>2026-05-03T07:51:40Z</time></trkpt><trkpt lat="42.34473959972309" lon="13.464736974648524"><ele>614.8</ele><time>2026-05-03T07:51:41Z</time></trkpt><trkpt lat="42.34472610930555" lon="13.464835234058988"><ele>615.0</ele><time>2026-05-03T07:51:42Z</time></trkpt><trkpt lat="42.34469661713348" lon="13.464942112651213"><ele>614.8333333333334</ele><time>2026-05-03T07:51:43Z</time></trkpt><trkpt lat="42.34467206528334" lon="13.465049842650965"><ele>614.6666666666666</ele><time>2026-05-03T07:51:44Z</time></trkpt><trkpt lat="42.34464880160021" lon="13.46515145476453"><ele>614.5</ele><time>2026-05-03T07:51:45Z</time></trkpt><trkpt lat="42.344633042324176" lon="13.46524116525295"><ele>614.3333333333333</ele><time>2026-05-03T07:51:46Z</time></trkpt><trkpt lat="42.34461277936873" lon="13.465339990291517"><ele>614.1666666666666</ele><time>2026-05-03T07:51:47Z</time></trkpt><trkpt lat="42.34458523319415" lon="13.46544730878637"><ele>614.0</ele><time>2026-05-03T07:51:48Z</time></trkpt><trkpt lat="42.34454703165259" lon="13.465545936548374"><ele>614.0</ele><time>2026-05-03T07:51:49Z</time></trkpt><trkpt lat="42.344505406158774" lon="13.465647751798208"><ele>614.0</ele><time>2026-05-03T07:51:50Z</time></trkpt><trkpt lat="42.3444673728847" lon="13.465735870190029"><ele>614.0</ele><time>2026-05-03T07:51:51Z</time></trkpt><trkpt lat="42.344431842781844" lon="13.465818915270372"><ele>614.0</ele><time>2026-05-03T07:51:52Z</time></trkpt><trkpt lat="42.344399309723634" lon="13.46589940047076"><ele>614.0</ele><time>2026-05-03T07:51:53Z</time></trkpt><trkpt lat="42.34437062205677" lon="13.466017382142024"><ele>614.0</ele><time>2026-05-03T07:51:55Z</time></trkpt><trkpt lat="42.34443032748267" lon="13.466104710194278"><ele>614.0</ele><time>2026-05-03T07:51:57Z</time></trkpt><trkpt lat="42.344496659121674" lon="13.466149471089782"><ele>614.0</ele><time>2026-05-03T07:51:58Z</time></trkpt><trkpt lat="42.344591850981274" lon="13.466190898997317"><ele>614.0</ele><time>2026-05-03T07:51:59Z</time></trkpt><trkpt lat="42.34470488548323" lon="13.466230592244413"><ele>614.0</ele><time>2026-05-03T07:52:00Z</time></trkpt><trkpt lat="42.34483295626916" lon="13.466269970687648"><ele>614.0</ele><time>2026-05-03T07:52:01Z</time></trkpt><trkpt lat="42.34496250528385" lon="13.466297177135093"><ele>614.2</ele><time>2026-05-03T07:52:02Z</time></trkpt><trkpt lat="42.3450807836073" lon="13.466311163966223"><ele>614.4</ele><time>2026-05-03T07:52:03Z</time></trkpt><trkpt lat="42.34518771397569" lon="13.466303025684917"><ele>614.6</ele><time>2026-05-03T07:52:04Z</time></trkpt><trkpt lat="42.34528449319517" lon="13.466288598844745"><ele>614.8</ele><time>2026-05-03T07:52:05Z</time></trkpt><trkpt lat="42.34537228166188" lon="13.46627686570639"><ele>615.0</ele><time>2026-05-03T07:52:06Z</time></trkpt><trkpt lat="42.34546205023212" lon="13.466279868636244"><ele>615.8</ele><time>2026-05-03T07:52:07Z</time></trkpt><trkpt lat="42.34555579189277" lon="13.466319714250512"><ele>616.6</ele><time>2026-05-03T07:52:08Z</time></trkpt><trkpt lat="42.34565677803168" lon="13.466382020621085"><ele>617.4</ele><time>2026-05-03T07:52:09Z</time></trkpt><trkpt lat="42.34575858150297" lon="13.466446581493072"><ele>618.2</ele><time>2026-05-03T07:52:10Z</time></trkpt><trkpt lat="42.34585821357047" lon="13.466508769623545"><ele>619.0</ele><time>2026-05-03T07:52:11Z</time></trkpt><trkpt lat="42.34595212865197" lon="13.466568184560323"><ele>619.0</ele><time>2026-05-03T07:52:12Z</time></trkpt><trkpt lat="42.34605116028952" lon="13.466630324730934"><ele>619.0</ele><time>2026-05-03T07:52:13Z</time></trkpt><trkpt lat="42.34614826365808" lon="13.466697900703274"><ele>619.0</ele><time>2026-05-03T07:52:14Z</time></trkpt><trkpt lat="42.34623259653989" lon="13.466754818353564"><ele>619.0</ele><time>2026-05-03T07:52:15Z</time></trkpt><trkpt lat="42.34630940900993" lon="13.466816398597144"><ele>619.0</ele><time>2026-05-03T07:52:16Z</time></trkpt><trkpt lat="42.346384626542715" lon="13.466898626828844"><ele>619.5</ele><time>2026-05-03T07:52:17Z</time></trkpt><trkpt lat="42.34645546344322" lon="13.467002131070629"><ele>620.0</ele><time>2026-05-03T07:52:18Z</time></trkpt><trkpt lat="42.346528317355705" lon="13.467125639608007"><ele>620.5</ele><time>2026-05-03T07:52:19Z</time></trkpt><trkpt lat="42.34660336026563" lon="13.467254572243297"><ele>621.0</ele><time>2026-05-03T07:52:20Z</time></trkpt><trkpt lat="42.34668107754146" lon="13.467370891317964"><ele>621.0</ele><time>2026-05-03T07:52:21Z</time></trkpt><trkpt lat="42.34675003804169" lon="13.467487556318549"><ele>621.0</ele><time>2026-05-03T07:52:22Z</time></trkpt><trkpt lat="42.34682331829212" lon="13.467610217283822"><ele>621.0</ele><time>2026-05-03T07:52:23Z</time></trkpt><trkpt lat="42.34689313254329" lon="13.467720132092676"><ele>621.0</ele><time>2026-05-03T07:52:24Z</time></trkpt><trkpt lat="42.346959378623296" lon="13.467816804307235"><ele>621.0</ele><time>2026-05-03T07:52:25Z</time></trkpt><trkpt lat="42.34702046286355" lon="13.467878483593411"><ele>621.0</ele><time>2026-05-03T07:52:26Z</time></trkpt><trkpt lat="42.34709441181517" lon="13.467893319736548"><ele>621.0</ele><time>2026-05-03T07:52:27Z</time></trkpt><trkpt lat="42.34719573290091" lon="13.467879725682367"><ele>621.0</ele><time>2026-05-03T07:52:28Z</time></trkpt><trkpt lat="42.34730424382823" lon="13.467847171447469"><ele>621.0</ele><time>2026-05-03T07:52:29Z</time></trkpt><trkpt lat="42.34740396488875" lon="13.467822496040565"><ele>621.0</ele><time>2026-05-03T07:52:30Z</time></trkpt><trkpt lat="42.34749013392282" lon="13.467825501010513"><ele>621.5</ele><time>2026-05-03T07:52:31Z</time></trkpt><trkpt lat="42.347577453428286" lon="13.467848546222319"><ele>622.0</ele><time>2026-05-03T07:52:32Z</time></trkpt><trkpt lat="42.347677386257836" lon="13.467896277809766"><ele>622.5</ele><time>2026-05-03T07:52:33Z</time></trkpt><trkpt lat="42.34779879831386" lon="13.467954055446477"><ele>623.0</ele><time>2026-05-03T07:52:34Z</time></trkpt><trkpt lat="42.34793637928146" lon="13.46800237277724"><ele>623.6666666666666</ele><time>2026-05-03T07:52:35Z</time></trkpt><trkpt lat="42.34809097399961" lon="13.468050776594247"><ele>624.3333333333334</ele><time>2026-05-03T07:52:36Z</time></trkpt><trkpt lat="42.34825285174297" lon="13.46810229680167"><ele>625.0</ele><time>2026-05-03T07:52:37Z</time></trkpt><trkpt lat="42.34841651040442" lon="13.468166463916484"><ele>625.0</ele><time>2026-05-03T07:52:38Z</time></trkpt><trkpt lat="42.34856635316528" lon="13.468241688208451"><ele>625.0</ele><time>2026-05-03T07:52:39Z</time></trkpt><trkpt lat="42.348708130454476" lon="13.468309191372606"><ele>625.0</ele><time>2026-05-03T07:52:40Z</time></trkpt><trkpt lat="42.348848884176626" lon="13.46836742927117"><ele>625.75</ele><time>2026-05-03T07:52:41Z</time></trkpt><trkpt lat="42.34899431581457" lon="13.46841936224942"><ele>626.5</ele><time>2026-05-03T07:52:42Z</time></trkpt><trkpt lat="42.34913378192651" lon="13.468449347910074"><ele>627.25</ele><time>2026-05-03T07:52:43Z</time></trkpt><trkpt lat="42.34925912870493" lon="13.468463608337322"><ele>628.0</ele><time>2026-05-03T07:52:44Z</time></trkpt><trkpt lat="42.34936794548947" lon="13.468470458351556"><ele>628.0</ele><time>2026-05-03T07:52:45Z</time></trkpt><trkpt lat="42.349472531395854" lon="13.46847686051898"><ele>628.0</ele><time>2026-05-03T07:52:46Z</time></trkpt><trkpt lat="42.34956927303157" lon="13.468485066073205"><ele>628.0</ele><time>2026-05-03T07:52:47Z</time></trkpt><trkpt lat="42.34966056618503" lon="13.468489087076787"><ele>628.0</ele><time>2026-05-03T07:52:48Z</time></trkpt><trkpt lat="42.34975946923696" lon="13.468482931779834"><ele>628.0</ele><time>2026-05-03T07:52:49Z</time></trkpt><trkpt lat="42.349858808819725" lon="13.46848535440465"><ele>628.1999999999999</ele><time>2026-05-03T07:52:50Z</time></trkpt><trkpt lat="42.349968746162446" lon="13.46849829322296"><ele>628.4</ele><time>2026-05-03T07:52:51Z</time></trkpt><trkpt lat="42.350072082807785" lon="13.468534599008885"><ele>628.5999999999999</ele><time>2026-05-03T07:52:52Z</time></trkpt><trkpt lat="42.350160322261615" lon="13.468600410594373"><ele>628.8</ele><time>2026-05-03T07:52:53Z</time></trkpt><trkpt lat="42.350268177845884" lon="13.468691800880046"><ele>629.0</ele><time>2026-05-03T07:52:54Z</time></trkpt><trkpt lat="42.35036860720178" lon="13.468800098337896"><ele>629.0</ele><time>2026-05-03T07:52:55Z</time></trkpt><trkpt lat="42.350472872051746" lon="13.468903518977854"><ele>629.0</ele><time>2026-05-03T07:52:56Z</time></trkpt><trkpt lat="42.350573683055" lon="13.468981736515317"><ele>629.0</ele><time>2026-05-03T07:52:57Z</time></trkpt><trkpt lat="42.35068480659572" lon="13.469031723789818"><ele>629.0</ele><time>2026-05-03T07:52:58Z</time></trkpt><trkpt lat="42.35080458574141" lon="13.469054106539012"><ele>629.3333333333333</ele><time>2026-05-03T07:52:59Z</time></trkpt><trkpt lat="42.350912108789196" lon="13.469058236119167"><ele>629.6666666666666</ele><time>2026-05-03T07:53:00Z</time></trkpt><trkpt lat="42.3509895643706" lon="13.469059080914072"><ele>630.0</ele><time>2026-05-03T07:53:01Z</time></trkpt><trkpt lat="42.351067452909" lon="13.469049148851532"><ele>630.3333333333334</ele><time>2026-05-03T07:53:03Z</time></trkpt><trkpt lat="42.35113532728446" lon="13.469028639894011"><ele>630.6666666666667</ele><time>2026-05-03T07:53:07Z</time></trkpt><trkpt lat="42.35122960879679" lon="13.468970926585985"><ele>631.0</ele><time>2026-05-03T07:53:09Z</time></trkpt><trkpt lat="42.35131850799756" lon="13.468916545061138"><ele>632.0</ele><time>2026-05-03T07:53:11Z</time></trkpt><trkpt lat="42.35141451102809" lon="13.468829439807026"><ele>633.0</ele><time>2026-05-03T07:53:13Z</time></trkpt><trkpt lat="42.35148887756206" lon="13.468715740549513"><ele>634.0</ele><time>2026-05-03T07:53:15Z</time></trkpt><trkpt lat="42.351566220911295" lon="13.468651642861992"><ele>635.0</ele><time>2026-05-03T07:53:17Z</time></trkpt><trkpt lat="42.35167649141745" lon="13.468696139669396"><ele>636.0</ele><time>2026-05-03T07:53:19Z</time></trkpt><trkpt lat="42.35175160254337" lon="13.468780524500984"><ele>636.0</ele><time>2026-05-03T07:53:20Z</time></trkpt><trkpt lat="42.35182678395644" lon="13.468877541069146"><ele>636.0</ele><time>2026-05-03T07:53:21Z</time></trkpt><trkpt lat="42.35191204222482" lon="13.468983990907764"><ele>636.0</ele><time>2026-05-03T07:53:22Z</time></trkpt><trkpt lat="42.35200352508768" lon="13.469103978853134"><ele>636.0</ele><time>2026-05-03T07:53:23Z</time></trkpt><trkpt lat="42.35209836737988" lon="13.469222567858584"><ele>636.0</ele><time>2026-05-03T07:53:24Z</time></trkpt><trkpt lat="42.35218746636186" lon="13.469328147236006"><ele>636.0</ele><time>2026-05-03T07:53:25Z</time></trkpt><trkpt lat="42.352266877392445" lon="13.469421059534818"><ele>636.0</ele><time>2026-05-03T07:53:26Z</time></trkpt><trkpt lat="42.35234342212429" lon="13.469504367612362"><ele>636.0</ele><time>2026-05-03T07:53:27Z</time></trkpt><trkpt lat="42.352422081444224" lon="13.46958714443082"><ele>636.0</ele><time>2026-05-03T07:53:28Z</time></trkpt><trkpt lat="42.35249153365965" lon="13.469666122257218"><ele>636.5</ele><time>2026-05-03T07:53:29Z</time></trkpt><trkpt lat="42.352561101313796" lon="13.469748374158176"><ele>637.0</ele><time>2026-05-03T07:53:30Z</time></trkpt><trkpt lat="42.352629832751" lon="13.469828047958393"><ele>637.5</ele><time>2026-05-03T07:53:31Z</time></trkpt><trkpt lat="42.352692924070354" lon="13.469897300932256"><ele>638.0</ele><time>2026-05-03T07:53:32Z</time></trkpt><trkpt lat="42.35275458207848" lon="13.46996638312758"><ele>638.5</ele><time>2026-05-03T07:53:33Z</time></trkpt><trkpt lat="42.35282425844692" lon="13.470040600313347"><ele>639.0</ele><time>2026-05-03T07:53:34Z</time></trkpt><trkpt lat="42.352894302401566" lon="13.470127819244508"><ele>639.0</ele><time>2026-05-03T07:53:35Z</time></trkpt><trkpt lat="42.352961845897426" lon="13.470227243818725"><ele>639.0</ele><time>2026-05-03T07:53:36Z</time></trkpt><trkpt lat="42.35302588276317" lon="13.470324767718841"><ele>639.0</ele><time>2026-05-03T07:53:37Z</time></trkpt><trkpt lat="42.35308959395974" lon="13.470424061038866"><ele>639.0</ele><time>2026-05-03T07:53:38Z</time></trkpt><trkpt lat="42.35314983367412" lon="13.47051430933431"><ele>639.0</ele><time>2026-05-03T07:53:39Z</time></trkpt><trkpt lat="42.35320380166195" lon="13.470600251038338"><ele>639.6</ele><time>2026-05-03T07:53:40Z</time></trkpt><trkpt lat="42.35324889822176" lon="13.470683358790145"><ele>640.2</ele><time>2026-05-03T07:53:41Z</time></trkpt><trkpt lat="42.3532909254037" lon="13.470762357124494"><ele>640.8000000000001</ele><time>2026-05-03T07:53:42Z</time></trkpt><trkpt lat="42.35335289159393" lon="13.47091577348324"><ele>641.4</ele><time>2026-05-03T07:53:44Z</time></trkpt><trkpt lat="42.35337712667186" lon="13.470996587623368"><ele>642.0</ele><time>2026-05-03T07:53:45Z</time></trkpt><trkpt lat="42.35343533868439" lon="13.471122278163906"><ele>642.0</ele><time>2026-05-03T07:53:47Z</time></trkpt><trkpt lat="42.353474793929536" lon="13.471199309909888"><ele>642.0</ele><time>2026-05-03T07:53:48Z</time></trkpt><trkpt lat="42.3535212568928" lon="13.471274402688875"><ele>642.0</ele><time>2026-05-03T07:53:49Z</time></trkpt><trkpt lat="42.35356985779173" lon="13.471339818082457"><ele>642.0</ele><time>2026-05-03T07:53:50Z</time></trkpt><trkpt lat="42.35364972889846" lon="13.471434670156171"><ele>642.0</ele><time>2026-05-03T07:53:52Z</time></trkpt><trkpt lat="42.35371173153608" lon="13.471507157175319"><ele>642.0</ele><time>2026-05-03T07:53:56Z</time></trkpt><trkpt lat="42.353822175970386" lon="13.471553704307125"><ele>642.3333333333334</ele><time>2026-05-03T07:53:59Z</time></trkpt><trkpt lat="42.3539007740887" lon="13.471539973789785"><ele>642.6666666666666</ele><time>2026-05-03T07:54:00Z</time></trkpt><trkpt lat="42.35397607261455" lon="13.47151450039955"><ele>643.0</ele><time>2026-05-03T07:54:01Z</time></trkpt><trkpt lat="42.35404903188346" lon="13.471482695379938"><ele>643.3333333333333</ele><time>2026-05-03T07:54:02Z</time></trkpt><trkpt lat="42.35411769352838" lon="13.471459729860078"><ele>643.6666666666666</ele><time>2026-05-03T07:54:03Z</time></trkpt><trkpt lat="42.354199355410685" lon="13.471439490540492"><ele>644.0</ele><time>2026-05-03T07:54:04Z</time></trkpt><trkpt lat="42.35429210582975" lon="13.471419659851435"><ele>644.0</ele><time>2026-05-03T07:54:05Z</time></trkpt><trkpt lat="42.354377651416925" lon="13.47140157886752"><ele>644.0</ele><time>2026-05-03T07:54:06Z</time></trkpt><trkpt lat="42.354449560332796" lon="13.471395623742362"><ele>644.0</ele><time>2026-05-03T07:54:07Z</time></trkpt><trkpt lat="42.35451391243339" lon="13.471421994111257"><ele>644.0</ele><time>2026-05-03T07:54:08Z</time></trkpt><trkpt lat="42.35457329892253" lon="13.471478648725615"><ele>644.0</ele><time>2026-05-03T07:54:09Z</time></trkpt><trkpt lat="42.35462757177265" lon="13.4715551634094"><ele>644.0</ele><time>2026-05-03T07:54:10Z</time></trkpt><trkpt lat="42.35469464381902" lon="13.471639461597409"><ele>644.6</ele><time>2026-05-03T07:54:11Z</time></trkpt><trkpt lat="42.35477528157822" lon="13.471733523415129"><ele>645.2</ele><time>2026-05-03T07:54:12Z</time></trkpt><trkpt lat="42.35485739690693" lon="13.471825842262518"><ele>645.8000000000001</ele><time>2026-05-03T07:54:13Z</time></trkpt><trkpt lat="42.35492862590076" lon="13.471919181826783"><ele>646.4000000000001</ele><time>2026-05-03T07:54:14Z</time></trkpt><trkpt lat="42.354991229163524" lon="13.47200786911457"><ele>647.0</ele><time>2026-05-03T07:54:15Z</time></trkpt><trkpt lat="42.355053984617356" lon="13.472093611589647"><ele>647.0</ele><time>2026-05-03T07:54:16Z</time></trkpt><trkpt lat="42.355136708360604" lon="13.4721913568401"><ele>647.0</ele><time>2026-05-03T07:54:17Z</time></trkpt><trkpt lat="42.355225854551506" lon="13.472296433773986"><ele>647.0</ele><time>2026-05-03T07:54:18Z</time></trkpt><trkpt lat="42.35530530488604" lon="13.472396585008632"><ele>647.0</ele><time>2026-05-03T07:54:19Z</time></trkpt><trkpt lat="42.35537607713032" lon="13.472487751250037"><ele>647.0</ele><time>2026-05-03T07:54:20Z</time></trkpt><trkpt lat="42.355453616008234" lon="13.47258300020071"><ele>647.0</ele><time>2026-05-03T07:54:21Z</time></trkpt><trkpt lat="42.35553659463694" lon="13.472678872688304"><ele>647.0</ele><time>2026-05-03T07:54:22Z</time></trkpt><trkpt lat="42.35561392632721" lon="13.472762992343391"><ele>647.0</ele><time>2026-05-03T07:54:23Z</time></trkpt><trkpt lat="42.355693288803" lon="13.472847588521416"><ele>647.0</ele><time>2026-05-03T07:54:24Z</time></trkpt><trkpt lat="42.35576898585856" lon="13.472931896031854"><ele>647.0</ele><time>2026-05-03T07:54:25Z</time></trkpt><trkpt lat="42.35584574924259" lon="13.473014482482071"><ele>647.6</ele><time>2026-05-03T07:54:26Z</time></trkpt><trkpt lat="42.35593022351707" lon="13.473101926443052"><ele>648.2</ele><time>2026-05-03T07:54:27Z</time></trkpt><trkpt lat="42.3560158104112" lon="13.47318608659383"><ele>648.8</ele><time>2026-05-03T07:54:28Z</time></trkpt><trkpt lat="42.356089557160004" lon="13.473260366885121"><ele>649.4</ele><time>2026-05-03T07:54:29Z</time></trkpt><trkpt lat="42.356154538573186" lon="13.473326129122425"><ele>650.0</ele><time>2026-05-03T07:54:30Z</time></trkpt><trkpt lat="42.35620831847491" lon="13.473389183895236"><ele>650.0</ele><time>2026-05-03T07:54:31Z</time></trkpt><trkpt lat="42.35625669680523" lon="13.473444166339636"><ele>650.0</ele><time>2026-05-03T07:54:32Z</time></trkpt><trkpt lat="42.35636833307899" lon="13.473501763135033"><ele>650.0</ele><time>2026-05-03T07:54:34Z</time></trkpt><trkpt lat="42.35647819950714" lon="13.473514930458817"><ele>650.0</ele><time>2026-05-03T07:54:36Z</time></trkpt><trkpt lat="42.356583345343935" lon="13.473608035712038"><ele>650.0</ele><time>2026-05-03T07:54:38Z</time></trkpt><trkpt lat="42.35662229210605" lon="13.473716109125611"><ele>651.5</ele><time>2026-05-03T07:54:39Z</time></trkpt><trkpt lat="42.35665560757917" lon="13.473847328965908"><ele>653.0</ele><time>2026-05-03T07:54:40Z</time></trkpt><trkpt lat="42.356699121724354" lon="13.473984877804329"><ele>654.5</ele><time>2026-05-03T07:54:41Z</time></trkpt><trkpt lat="42.35674951825761" lon="13.474138465465172"><ele>656.0</ele><time>2026-05-03T07:54:42Z</time></trkpt><trkpt lat="42.35680227226274" lon="13.474290620364192"><ele>656.0</ele><time>2026-05-03T07:54:43Z</time></trkpt><trkpt lat="42.35684736393594" lon="13.47442280197121"><ele>656.0</ele><time>2026-05-03T07:54:44Z</time></trkpt><trkpt lat="42.356888223382775" lon="13.474545059311847"><ele>656.0</ele><time>2026-05-03T07:54:45Z</time></trkpt><trkpt lat="42.35693532140898" lon="13.47467442593612"><ele>656.0</ele><time>2026-05-03T07:54:46Z</time></trkpt><trkpt lat="42.35698276848598" lon="13.474805928849957"><ele>656.0</ele><time>2026-05-03T07:54:47Z</time></trkpt><trkpt lat="42.357030458229424" lon="13.474945750084492"><ele>657.8</ele><time>2026-05-03T07:54:48Z</time></trkpt><trkpt lat="42.35707345428126" lon="13.475078468611247"><ele>659.5999999999999</ele><time>2026-05-03T07:54:49Z</time></trkpt><trkpt lat="42.357109116714525" lon="13.47520257485203"><ele>661.4</ele><time>2026-05-03T07:54:50Z</time></trkpt><trkpt lat="42.35713689146873" lon="13.475318921115155"><ele>663.2</ele><time>2026-05-03T07:54:51Z</time></trkpt><trkpt lat="42.35715762822661" lon="13.475446060440436"><ele>665.0</ele><time>2026-05-03T07:54:52Z</time></trkpt><trkpt lat="42.35718629714004" lon="13.475570423139438"><ele>667.2</ele><time>2026-05-03T07:54:53Z</time></trkpt><trkpt lat="42.35721402644625" lon="13.475690173374861"><ele>669.4</ele><time>2026-05-03T07:54:53.999Z</time></trkpt><trkpt lat="42.35724057187675" lon="13.475815946397987"><ele>671.5999999999999</ele><time>2026-05-03T07:54:54.999Z</time></trkpt><trkpt lat="42.35726107434164" lon="13.475944622993447"><ele>673.8</ele><time>2026-05-03T07:54:55.999Z</time></trkpt><trkpt lat="42.357262138669725" lon="13.476073127747846"><ele>676.0</ele><time>2026-05-03T07:54:56.999Z</time></trkpt><trkpt lat="42.35725410538908" lon="13.476204468761154"><ele>677.75</ele><time>2026-05-03T07:54:57.999Z</time></trkpt><trkpt lat="42.357238600169765" lon="13.47635151152756"><ele>679.5</ele><time>2026-05-03T07:54:58.999Z</time></trkpt><trkpt lat="42.357238011879836" lon="13.476514888876213"><ele>681.25</ele><time>2026-05-03T07:54:59.999Z</time></trkpt><trkpt lat="42.3572466320611" lon="13.476691379098177"><ele>683.0</ele><time>2026-05-03T07:55:00.999Z</time></trkpt><trkpt lat="42.35725760960351" lon="13.476852719370255"><ele>683.0</ele><time>2026-05-03T07:55:01.999Z</time></trkpt><trkpt lat="42.357265171627525" lon="13.477001946654502"><ele>683.0</ele><time>2026-05-03T07:55:02.999Z</time></trkpt><trkpt lat="42.357279345208504" lon="13.477126468519744"><ele>683.0</ele><time>2026-05-03T07:55:03.999Z</time></trkpt><trkpt lat="42.357296374598434" lon="13.47723262688157"><ele>683.0</ele><time>2026-05-03T07:55:04.999Z</time></trkpt><trkpt lat="42.35731656550623" lon="13.477329855480466"><ele>683.0</ele><time>2026-05-03T07:55:05.999Z</time></trkpt><trkpt lat="42.35733057091891" lon="13.47743457070432"><ele>683.0</ele><time>2026-05-03T07:55:06.999Z</time></trkpt><trkpt lat="42.35734192897316" lon="13.477553591353042"><ele>684.2</ele><time>2026-05-03T07:55:07.999Z</time></trkpt><trkpt lat="42.35735497840989" lon="13.477679471649003"><ele>685.4</ele><time>2026-05-03T07:55:08.999Z</time></trkpt><trkpt lat="42.35736916719318" lon="13.477818484150802"><ele>686.6</ele><time>2026-05-03T07:55:09.999Z</time></trkpt><trkpt lat="42.357378482393216" lon="13.477954270069059"><ele>687.8000000000001</ele><time>2026-05-03T07:55:10.999Z</time></trkpt><trkpt lat="42.35740244439417" lon="13.47809383928713"><ele>689.0</ele><time>2026-05-03T07:55:11.999Z</time></trkpt><trkpt lat="42.35743834017761" lon="13.478232136506575"><ele>690.3333333333333</ele><time>2026-05-03T07:55:12.999Z</time></trkpt><trkpt lat="42.357473583819804" lon="13.478344164787224"><ele>691.6666666666666</ele><time>2026-05-03T07:55:13.999Z</time></trkpt><trkpt lat="42.357508926291736" lon="13.478456317176056"><ele>693.0</ele><time>2026-05-03T07:55:14.999Z</time></trkpt><trkpt lat="42.35753840045845" lon="13.478567561743976"><ele>694.3333333333334</ele><time>2026-05-03T07:55:15.999Z</time></trkpt><trkpt lat="42.35755601390281" lon="13.478655707996205"><ele>695.6666666666667</ele><time>2026-05-03T07:55:16.999Z</time></trkpt><trkpt lat="42.35756283796597" lon="13.478743473193296"><ele>697.0</ele><time>2026-05-03T07:55:18Z</time></trkpt><trkpt lat="42.35757698957652" lon="13.478843749309645"><ele>698.8</ele><time>2026-05-03T07:55:19Z</time></trkpt><trkpt lat="42.35759763013234" lon="13.478975988586205"><ele>700.6</ele><time>2026-05-03T07:55:20Z</time></trkpt><trkpt lat="42.35761263626734" lon="13.47911001620596"><ele>702.4</ele><time>2026-05-03T07:55:21Z</time></trkpt><trkpt lat="42.35762942260209" lon="13.4792436280356"><ele>704.1999999999999</ele><time>2026-05-03T07:55:22Z</time></trkpt><trkpt lat="42.35764704257121" lon="13.479380164103334"><ele>706.0</ele><time>2026-05-03T07:55:23Z</time></trkpt><trkpt lat="42.35765947294227" lon="13.479507727483089"><ele>707.8</ele><time>2026-05-03T07:55:24Z</time></trkpt><trkpt lat="42.35767716469505" lon="13.47963693667662"><ele>709.5999999999999</ele><time>2026-05-03T07:55:25Z</time></trkpt><trkpt lat="42.357696366329925" lon="13.479760767453081"><ele>711.4</ele><time>2026-05-03T07:55:26Z</time></trkpt><trkpt lat="42.357716363165565" lon="13.47990090149377"><ele>713.2</ele><time>2026-05-03T07:55:27Z</time></trkpt><trkpt lat="42.357736201086325" lon="13.480053860023709"><ele>715.0</ele><time>2026-05-03T07:55:28Z</time></trkpt><trkpt lat="42.35775339474369" lon="13.480205522507575"><ele>715.0</ele><time>2026-05-03T07:55:29Z</time></trkpt><trkpt lat="42.35775980893193" lon="13.480349178397725"><ele>715.0</ele><time>2026-05-03T07:55:30Z</time></trkpt><trkpt lat="42.35773386083332" lon="13.480483095344347"><ele>715.0</ele><time>2026-05-03T07:55:31Z</time></trkpt><trkpt lat="42.35769816484823" lon="13.480600616100162"><ele>715.0</ele><time>2026-05-03T07:55:32Z</time></trkpt><trkpt lat="42.35767002505042" lon="13.480728513881221"><ele>715.0</ele><time>2026-05-03T07:55:33Z</time></trkpt><trkpt lat="42.357675587659834" lon="13.48085552065954"><ele>716.3333333333334</ele><time>2026-05-03T07:55:34Z</time></trkpt><trkpt lat="42.357702858862424" lon="13.48094630438473"><ele>717.6666666666667</ele><time>2026-05-03T07:55:35Z</time></trkpt><trkpt lat="42.35773715945983" lon="13.481021704284261"><ele>719.0</ele><time>2026-05-03T07:55:37Z</time></trkpt><trkpt lat="42.35773962729678" lon="13.481136334043317"><ele>720.3333333333334</ele><time>2026-05-03T07:55:40Z</time></trkpt><trkpt lat="42.357738370375046" lon="13.48123621648437"><ele>721.6666666666666</ele><time>2026-05-03T07:55:42Z</time></trkpt><trkpt lat="42.35772933835355" lon="13.48136747778456"><ele>723.0</ele><time>2026-05-03T07:55:44Z</time></trkpt><trkpt lat="42.35771209828422" lon="13.481532985737713"><ele>724.6666666666666</ele><time>2026-05-03T07:55:46Z</time></trkpt><trkpt lat="42.35769943097379" lon="13.481642863320626"><ele>726.3333333333334</ele><time>2026-05-03T07:55:47Z</time></trkpt><trkpt lat="42.35768312749702" lon="13.481779116949701"><ele>728.0</ele><time>2026-05-03T07:55:48Z</time></trkpt><trkpt lat="42.35766186849063" lon="13.481906332998653"><ele>729.6666666666667</ele><time>2026-05-03T07:55:49Z</time></trkpt><trkpt lat="42.35763832144284" lon="13.482004026524686"><ele>731.3333333333334</ele><time>2026-05-03T07:55:50Z</time></trkpt><trkpt lat="42.35761984193187" lon="13.482098041977295"><ele>733.0</ele><time>2026-05-03T07:55:51Z</time></trkpt><trkpt lat="42.35759158947261" lon="13.482216867230424"><ele>734.6666666666667</ele><time>2026-05-03T07:55:52Z</time></trkpt><trkpt lat="42.35756832434074" lon="13.482333514070033"><ele>736.3333333333334</ele><time>2026-05-03T07:55:53Z</time></trkpt><trkpt lat="42.35756432741841" lon="13.482441997643111"><ele>738.0</ele><time>2026-05-03T07:55:54Z</time></trkpt><trkpt lat="42.35756443953066" lon="13.482559190511738"><ele>739.6666666666666</ele><time>2026-05-03T07:55:55Z</time></trkpt><trkpt lat="42.35757206114766" lon="13.482677565076214"><ele>741.3333333333333</ele><time>2026-05-03T07:55:56Z</time></trkpt><trkpt lat="42.35758253022088" lon="13.48280961126553"><ele>743.0</ele><time>2026-05-03T07:55:57Z</time></trkpt><trkpt lat="42.357597223234265" lon="13.482930491638893"><ele>744.4</ele><time>2026-05-03T07:55:58Z</time></trkpt><trkpt lat="42.35761295420283" lon="13.483056852342377"><ele>745.8</ele><time>2026-05-03T07:55:59Z</time></trkpt><trkpt lat="42.35762315420776" lon="13.483179029194769"><ele>747.2</ele><time>2026-05-03T07:56:00Z</time></trkpt><trkpt lat="42.35763029459176" lon="13.483308540375647"><ele>748.6</ele><time>2026-05-03T07:56:01Z</time></trkpt><trkpt lat="42.35763787853112" lon="13.483445459761093"><ele>750.0</ele><time>2026-05-03T07:56:02Z</time></trkpt><trkpt lat="42.35764713646231" lon="13.483577658531676"><ele>750.0</ele><time>2026-05-03T07:56:03Z</time></trkpt><trkpt lat="42.35765747263173" lon="13.483697646767363"><ele>750.0</ele><time>2026-05-03T07:56:04Z</time></trkpt><trkpt lat="42.35767887431865" lon="13.48380336635703"><ele>750.0</ele><time>2026-05-03T07:56:05Z</time></trkpt><trkpt lat="42.3577060191931" lon="13.483926607251828"><ele>750.0</ele><time>2026-05-03T07:56:06Z</time></trkpt><trkpt lat="42.35772779207693" lon="13.484066742761403"><ele>750.0</ele><time>2026-05-03T07:56:07Z</time></trkpt><trkpt lat="42.35775221030514" lon="13.484211574748846"><ele>751.0</ele><time>2026-05-03T07:56:08Z</time></trkpt><trkpt lat="42.35776916998349" lon="13.484361349532238"><ele>752.0</ele><time>2026-05-03T07:56:09Z</time></trkpt><trkpt lat="42.35777372309236" lon="13.484505308373329"><ele>753.0</ele><time>2026-05-03T07:56:10Z</time></trkpt><trkpt lat="42.35776796350634" lon="13.484660625208042"><ele>754.0</ele><time>2026-05-03T07:56:11Z</time></trkpt><trkpt lat="42.357758103997355" lon="13.484821549788471"><ele>754.6</ele><time>2026-05-03T07:56:12Z</time></trkpt><trkpt lat="42.357737231135374" lon="13.484974409595704"><ele>755.2</ele><time>2026-05-03T07:56:13Z</time></trkpt><trkpt lat="42.35771757941911" lon="13.485114897413215"><ele>755.8000000000001</ele><time>2026-05-03T07:56:14Z</time></trkpt><trkpt lat="42.35770430180605" lon="13.485254474072242"><ele>756.4000000000001</ele><time>2026-05-03T07:56:15Z</time></trkpt><trkpt lat="42.35769527272212" lon="13.48539444246136"><ele>757.0</ele><time>2026-05-03T07:56:16Z</time></trkpt><trkpt lat="42.35768546418707" lon="13.485511265178108"><ele>757.0</ele><time>2026-05-03T07:56:17Z</time></trkpt><trkpt lat="42.35767863107115" lon="13.485613775347952"><ele>757.0</ele><time>2026-05-03T07:56:18Z</time></trkpt><trkpt lat="42.35767690141024" lon="13.48570381501091"><ele>757.0</ele><time>2026-05-03T07:56:19Z</time></trkpt><trkpt lat="42.3576787023627" lon="13.485795092539924"><ele>757.0</ele><time>2026-05-03T07:56:20Z</time></trkpt><trkpt lat="42.35769495727986" lon="13.48588959889336"><ele>757.0</ele><time>2026-05-03T07:56:21Z</time></trkpt><trkpt lat="42.35772274805824" lon="13.486004726532952"><ele>757.0</ele><time>2026-05-03T07:56:22Z</time></trkpt><trkpt lat="42.35775552835269" lon="13.48612966528494"><ele>757.0</ele><time>2026-05-03T07:56:23Z</time></trkpt><trkpt lat="42.35780211061323" lon="13.486236732500833"><ele>757.0</ele><time>2026-05-03T07:56:24Z</time></trkpt><trkpt lat="42.35784729719807" lon="13.486342068059438"><ele>757.0</ele><time>2026-05-03T07:56:25Z</time></trkpt><trkpt lat="42.35788837626801" lon="13.486435009379084"><ele>757.0</ele><time>2026-05-03T07:56:26Z</time></trkpt><trkpt lat="42.35793507636748" lon="13.48652879014278"><ele>757.0</ele><time>2026-05-03T07:56:27Z</time></trkpt><trkpt lat="42.35799680946303" lon="13.486599298074207"><ele>757.0</ele><time>2026-05-03T07:56:27.999Z</time></trkpt><trkpt lat="42.358067484374885" lon="13.48668346283461"><ele>758.2</ele><time>2026-05-03T07:56:28.999Z</time></trkpt><trkpt lat="42.3581470767686" lon="13.486775381837404"><ele>759.4000000000001</ele><time>2026-05-03T07:56:29.999Z</time></trkpt><trkpt lat="42.358222585372445" lon="13.48687332780159"><ele>760.5999999999999</ele><time>2026-05-03T07:56:30.999Z</time></trkpt><trkpt lat="42.35829876585021" lon="13.48697099630693"><ele>761.8</ele><time>2026-05-03T07:56:31.999Z</time></trkpt><trkpt lat="42.35837050874636" lon="13.487063633853282"><ele>763.0</ele><time>2026-05-03T07:56:32.999Z</time></trkpt><trkpt lat="42.35843804586798" lon="13.487149321802502"><ele>763.0</ele><time>2026-05-03T07:56:33.999Z</time></trkpt><trkpt lat="42.35851788110792" lon="13.48723472346637"><ele>763.0</ele><time>2026-05-03T07:56:34.999Z</time></trkpt><trkpt lat="42.35859167666781" lon="13.487326147676974"><ele>763.0</ele><time>2026-05-03T07:56:35.999Z</time></trkpt><trkpt lat="42.35865651461646" lon="13.4874136727064"><ele>763.0</ele><time>2026-05-03T07:56:36.999Z</time></trkpt><trkpt lat="42.35871605925509" lon="13.487506394259004"><ele>763.0</ele><time>2026-05-03T07:56:37.999Z</time></trkpt><trkpt lat="42.35876357915045" lon="13.487609413270738"><ele>763.0</ele><time>2026-05-03T07:56:38.999Z</time></trkpt><trkpt lat="42.35881511790898" lon="13.487731857669775"><ele>763.0</ele><time>2026-05-03T07:56:39.999Z</time></trkpt><trkpt lat="42.35887484937571" lon="13.487852950601713"><ele>763.0</ele><time>2026-05-03T07:56:40.999Z</time></trkpt><trkpt lat="42.358927910182835" lon="13.487957100839592"><ele>763.0</ele><time>2026-05-03T07:56:41.999Z</time></trkpt><trkpt lat="42.35897217900864" lon="13.488030970512229"><ele>763.0</ele><time>2026-05-03T07:56:42.999Z</time></trkpt><trkpt lat="42.359033589032585" lon="13.488094016830981"><ele>766.4</ele><time>2026-05-03T07:56:44.999Z</time></trkpt><trkpt lat="42.35912385288407" lon="13.48819596151685"><ele>769.8</ele><time>2026-05-03T07:56:46.999Z</time></trkpt><trkpt lat="42.35917817781436" lon="13.48827438625908"><ele>773.2</ele><time>2026-05-03T07:56:47.999Z</time></trkpt><trkpt lat="42.35922617911168" lon="13.488341237104716"><ele>776.6</ele><time>2026-05-03T07:56:48.999Z</time></trkpt><trkpt lat="42.35931995461567" lon="13.488465258341515"><ele>780.0</ele><time>2026-05-03T07:56:50.999Z</time></trkpt><trkpt lat="42.35937938857975" lon="13.488551734840753"><ele>780.0</ele><time>2026-05-03T07:56:51.999Z</time></trkpt><trkpt lat="42.35944254628812" lon="13.488650003286176"><ele>780.0</ele><time>2026-05-03T07:56:52.999Z</time></trkpt><trkpt lat="42.35949510240726" lon="13.48874279185625"><ele>780.0</ele><time>2026-05-03T07:56:53.999Z</time></trkpt><trkpt lat="42.35953404257348" lon="13.488845968204489"><ele>780.0</ele><time>2026-05-03T07:56:54.999Z</time></trkpt><trkpt lat="42.35957929120327" lon="13.488955271081366"><ele>780.0</ele><time>2026-05-03T07:56:55.999Z</time></trkpt><trkpt lat="42.359630731520376" lon="13.489038811350738"><ele>780.0</ele><time>2026-05-03T07:56:56.999Z</time></trkpt><trkpt lat="42.359684884650925" lon="13.489122904545557"><ele>782.0</ele><time>2026-05-03T07:56:57.999Z</time></trkpt><trkpt lat="42.359750100681026" lon="13.489204408660266"><ele>784.0</ele><time>2026-05-03T07:56:58.999Z</time></trkpt><trkpt lat="42.359822985335356" lon="13.48928400520304"><ele>786.0</ele><time>2026-05-03T07:56:59.999Z</time></trkpt><trkpt lat="42.35989601226979" lon="13.48935407794764"><ele>788.0</ele><time>2026-05-03T07:57:00.999Z</time></trkpt><trkpt lat="42.35995535372765" lon="13.489412804893027"><ele>790.0</ele><time>2026-05-03T07:57:01.999Z</time></trkpt><trkpt lat="42.36004570328189" lon="13.489441767265653"><ele>792.0</ele><time>2026-05-03T07:57:02.999Z</time></trkpt><trkpt lat="42.360137644744384" lon="13.489480159509046"><ele>792.0</ele><time>2026-05-03T07:57:03.999Z</time></trkpt><trkpt lat="42.36021441814489" lon="13.489552746368384"><ele>792.0</ele><time>2026-05-03T07:57:04.999Z</time></trkpt><trkpt lat="42.36027125002743" lon="13.489629696233647"><ele>792.0</ele><time>2026-05-03T07:57:05.999Z</time></trkpt><trkpt lat="42.360342754211246" lon="13.489716661806558"><ele>792.0</ele><time>2026-05-03T07:57:06.999Z</time></trkpt><trkpt lat="42.36042457655647" lon="13.489792672754438"><ele>792.0</ele><time>2026-05-03T07:57:07.999Z</time></trkpt><trkpt lat="42.360515251389856" lon="13.489847550153387"><ele>793.3333333333334</ele><time>2026-05-03T07:57:08.999Z</time></trkpt><trkpt lat="42.3605854645628" lon="13.48989604126064"><ele>794.6666666666667</ele><time>2026-05-03T07:57:09.999Z</time></trkpt><trkpt lat="42.36065528247193" lon="13.48993543775438"><ele>796.0</ele><time>2026-05-03T07:57:10.999Z</time></trkpt><trkpt lat="42.36071639730052" lon="13.490006873187829"><ele>797.3333333333334</ele><time>2026-05-03T07:57:11.999Z</time></trkpt><trkpt lat="42.360781622930375" lon="13.490082783451262"><ele>798.6666666666667</ele><time>2026-05-03T07:57:12.999Z</time></trkpt><trkpt lat="42.36084883823992" lon="13.490154315250136"><ele>800.0</ele><time>2026-05-03T07:57:13.999Z</time></trkpt><trkpt lat="42.36091974206543" lon="13.490206390295114"><ele>800.0000000000001</ele><time>2026-05-03T07:57:14.999Z</time></trkpt><trkpt lat="42.36099535941421" lon="13.490253625420804"><ele>800.0</ele><time>2026-05-03T07:57:15.999Z</time></trkpt><trkpt lat="42.36107404998437" lon="13.490289854157464"><ele>800.0</ele><time>2026-05-03T07:57:16.999Z</time></trkpt><trkpt lat="42.36115353607063" lon="13.490333364536063"><ele>800.0</ele><time>2026-05-03T07:57:17.999Z</time></trkpt><trkpt lat="42.361233762913" lon="13.49038305683517"><ele>800.0000000000001</ele><time>2026-05-03T07:57:18.999Z</time></trkpt><trkpt lat="42.36131605320856" lon="13.490453590839513"><ele>800.0</ele><time>2026-05-03T07:57:19.999Z</time></trkpt><trkpt lat="42.36138826941862" lon="13.490526070889082"><ele>802.0000000000001</ele><time>2026-05-03T07:57:20.999Z</time></trkpt><trkpt lat="42.361453320518" lon="13.490602315479927"><ele>804.0</ele><time>2026-05-03T07:57:21.999Z</time></trkpt><trkpt lat="42.3615158882212" lon="13.490658903485327"><ele>806.0</ele><time>2026-05-03T07:57:22.999Z</time></trkpt><trkpt lat="42.36158947596944" lon="13.490705378166709"><ele>808.0</ele><time>2026-05-03T07:57:24Z</time></trkpt><trkpt lat="42.36165994938552" lon="13.490755613156452"><ele>810.0000000000001</ele><time>2026-05-03T07:57:25Z</time></trkpt><trkpt lat="42.361715657685" lon="13.490810180424685"><ele>812.0</ele><time>2026-05-03T07:57:26Z</time></trkpt><trkpt lat="42.36177480191479" lon="13.490857167853436"><ele>812.0000000000001</ele><time>2026-05-03T07:57:27Z</time></trkpt><trkpt lat="42.361872080268014" lon="13.49090852926403"><ele>812.0</ele><time>2026-05-03T07:57:29Z</time></trkpt><trkpt lat="42.361922056499374" lon="13.490967849157363"><ele>812.0</ele><time>2026-05-03T07:57:30Z</time></trkpt><trkpt lat="42.36197171843779" lon="13.49103489414617"><ele>812.0</ele><time>2026-05-03T07:57:31Z</time></trkpt><trkpt lat="42.362032347399655" lon="13.491129571135883"><ele>812.0000000000001</ele><time>2026-05-03T07:57:32Z</time></trkpt><trkpt lat="42.362080439077" lon="13.49121448109102"><ele>812.0</ele><time>2026-05-03T07:57:33Z</time></trkpt><trkpt lat="42.36213278954913" lon="13.491302153404256"><ele>813.4000000000001</ele><time>2026-05-03T07:57:34Z</time></trkpt><trkpt lat="42.362198703262685" lon="13.49139617285558"><ele>814.8000000000001</ele><time>2026-05-03T07:57:35Z</time></trkpt><trkpt lat="42.36226999335436" lon="13.491486469350034"><ele>816.2</ele><time>2026-05-03T07:57:36Z</time></trkpt><trkpt lat="42.36233985573673" lon="13.491572986841533"><ele>817.6</ele><time>2026-05-03T07:57:37Z</time></trkpt><trkpt lat="42.362405743151754" lon="13.491652859479291"><ele>819.0</ele><time>2026-05-03T07:57:38Z</time></trkpt><trkpt lat="42.36246257518871" lon="13.491732892504226"><ele>819.0</ele><time>2026-05-03T07:57:39Z</time></trkpt><trkpt lat="42.36251251041843" lon="13.491819613032677"><ele>819.0</ele><time>2026-05-03T07:57:40Z</time></trkpt><trkpt lat="42.362560027404264" lon="13.491925207475878"><ele>819.0</ele><time>2026-05-03T07:57:41Z</time></trkpt><trkpt lat="42.36260318202609" lon="13.492037288592675"><ele>819.0</ele><time>2026-05-03T07:57:42Z</time></trkpt><trkpt lat="42.3626314893282" lon="13.492153216365159"><ele>819.0</ele><time>2026-05-03T07:57:43Z</time></trkpt><trkpt lat="42.3626678888272" lon="13.49227229028584"><ele>820.5</ele><time>2026-05-03T07:57:44Z</time></trkpt><trkpt lat="42.36268792857956" lon="13.492369848362864"><ele>822.0</ele><time>2026-05-03T07:57:44.999Z</time></trkpt><trkpt lat="42.36271098237155" lon="13.492475780316978"><ele>823.5</ele><time>2026-05-03T07:57:45.999Z</time></trkpt><trkpt lat="42.36273969449794" lon="13.492582071412418"><ele>825.0</ele><time>2026-05-03T07:57:46.999Z</time></trkpt><trkpt lat="42.36277003354148" lon="13.492698550215694"><ele>826.5</ele><time>2026-05-03T07:57:47.999Z</time></trkpt><trkpt lat="42.36280421080849" lon="13.492802616187404"><ele>828.0</ele><time>2026-05-03T07:57:48.999Z</time></trkpt><trkpt lat="42.36282460418692" lon="13.492909239362337"><ele>830.6666666666666</ele><time>2026-05-03T07:57:49.999Z</time></trkpt><trkpt lat="42.362817637039605" lon="13.493008943180442"><ele>833.3333333333333</ele><time>2026-05-03T07:57:50.999Z</time></trkpt><trkpt lat="42.3628003497629" lon="13.493109220739663"><ele>836.0</ele><time>2026-05-03T07:57:51.999Z</time></trkpt><trkpt lat="42.36278816934531" lon="13.493220637125365"><ele>838.6666666666666</ele><time>2026-05-03T07:57:52.999Z</time></trkpt><trkpt lat="42.36279088549567" lon="13.493328945754586"><ele>841.3333333333333</ele><time>2026-05-03T07:57:53.999Z</time></trkpt><trkpt lat="42.3628059960929" lon="13.493427867277711"><ele>844.0</ele><time>2026-05-03T07:57:54.999Z</time></trkpt><trkpt lat="42.36287815381955" lon="13.493579633172777"><ele>843.9999999999999</ele><time>2026-05-03T07:57:56.999Z</time></trkpt><trkpt lat="42.36292939054073" lon="13.493662053785489"><ele>844.0</ele><time>2026-05-03T07:57:57.999Z</time></trkpt><trkpt lat="42.3629457436482" lon="13.493773502095502"><ele>844.0</ele><time>2026-05-03T07:57:58.999Z</time></trkpt><trkpt lat="42.36294897120821" lon="13.493896651620625"><ele>844.0</ele><time>2026-05-03T07:57:59.999Z</time></trkpt><trkpt lat="42.362941061341644" lon="13.494016279884313"><ele>843.9999999999999</ele><time>2026-05-03T07:58:00.999Z</time></trkpt><trkpt lat="42.362949343020105" lon="13.494150389895964"><ele>844.0</ele><time>2026-05-03T07:58:01.999Z</time></trkpt><trkpt lat="42.362957524935894" lon="13.494257563278943"><ele>845.8571428571429</ele><time>2026-05-03T07:58:02.999Z</time></trkpt><trkpt lat="42.36297368504674" lon="13.494354736409921"><ele>847.7142857142858</ele><time>2026-05-03T07:58:03.999Z</time></trkpt><trkpt lat="42.36299053613547" lon="13.494459472391108"><ele>849.5714285714286</ele><time>2026-05-03T07:58:04.999Z</time></trkpt><trkpt lat="42.3629848883887" lon="13.4945516786464"><ele>851.4285714285714</ele><time>2026-05-03T07:58:05.999Z</time></trkpt><trkpt lat="42.36297244446353" lon="13.494666928796917"><ele>853.2857142857142</ele><time>2026-05-03T07:58:06.999Z</time></trkpt><trkpt lat="42.36296354512965" lon="13.494753896589009"><ele>855.1428571428571</ele><time>2026-05-03T07:58:07.999Z</time></trkpt><trkpt lat="42.3629526354886" lon="13.494851296969575"><ele>857.0</ele><time>2026-05-03T07:58:08.999Z</time></trkpt><trkpt lat="42.362944702408136" lon="13.494963421815473"><ele>858.0000000000001</ele><time>2026-05-03T07:58:09.999Z</time></trkpt><trkpt lat="42.36294671036824" lon="13.495065726636788"><ele>859.0</ele><time>2026-05-03T07:58:10.999Z</time></trkpt><trkpt lat="42.362933493739675" lon="13.495178455035017"><ele>860.0</ele><time>2026-05-03T07:58:11.999Z</time></trkpt><trkpt lat="42.362919789929734" lon="13.495288536712643"><ele>861.0</ele><time>2026-05-03T07:58:12.999Z</time></trkpt><trkpt lat="42.36290925500006" lon="13.49541209778999"><ele>862.0000000000001</ele><time>2026-05-03T07:58:13.999Z</time></trkpt><trkpt lat="42.362897843757246" lon="13.495556293636774"><ele>863.0</ele><time>2026-05-03T07:58:14.999Z</time></trkpt><trkpt lat="42.362878627189666" lon="13.495716034070089"><ele>863.4</ele><time>2026-05-03T07:58:15.999Z</time></trkpt><trkpt lat="42.362877168494435" lon="13.49585581653477"><ele>863.8</ele><time>2026-05-03T07:58:16.999Z</time></trkpt><trkpt lat="42.362870973400376" lon="13.49600922461909"><ele>864.2</ele><time>2026-05-03T07:58:17.999Z</time></trkpt><trkpt lat="42.36286007644362" lon="13.496154936340108"><ele>864.6</ele><time>2026-05-03T07:58:18.999Z</time></trkpt><trkpt lat="42.362835431346184" lon="13.49630458319155"><ele>865.0</ele><time>2026-05-03T07:58:19.999Z</time></trkpt><trkpt lat="42.362830488387225" lon="13.4964409162134"><ele>865.9999999999999</ele><time>2026-05-03T07:58:20.999Z</time></trkpt><trkpt lat="42.36282442460511" lon="13.496545996244604"><ele>867.0</ele><time>2026-05-03T07:58:21.999Z</time></trkpt><trkpt lat="42.362828082445056" lon="13.49666280629818"><ele>868.0</ele><time>2026-05-03T07:58:22.999Z</time></trkpt><trkpt lat="42.362857691929555" lon="13.496782397244814"><ele>869.0</ele><time>2026-05-03T07:58:23.999Z</time></trkpt><trkpt lat="42.362885608803545" lon="13.496893411860134"><ele>869.9999999999999</ele><time>2026-05-03T07:58:24.999Z</time></trkpt><trkpt lat="42.36291386227131" lon="13.497007466913061"><ele>871.0</ele><time>2026-05-03T07:58:25.999Z</time></trkpt><trkpt lat="42.362929934809856" lon="13.49710586187093"><ele>871.8</ele><time>2026-05-03T07:58:26.999Z</time></trkpt><trkpt lat="42.362917741648666" lon="13.497197641697374"><ele>872.5999999999999</ele><time>2026-05-03T07:58:27.999Z</time></trkpt><trkpt lat="42.36290168931395" lon="13.497329960913625"><ele>873.4</ele><time>2026-05-03T07:58:28.999Z</time></trkpt><trkpt lat="42.362892581766566" lon="13.497451179501185"><ele>874.2</ele><time>2026-05-03T07:58:29.999Z</time></trkpt><trkpt lat="42.36290837631422" lon="13.49757227825582"><ele>875.0</ele><time>2026-05-03T07:58:30.999Z</time></trkpt><trkpt lat="42.36296228169768" lon="13.497723549096094"><ele>875.0</ele><time>2026-05-03T07:58:32.999Z</time></trkpt><trkpt lat="42.36301235498263" lon="13.497816188740059"><ele>875.0</ele><time>2026-05-03T07:58:33.999Z</time></trkpt><trkpt lat="42.363048554886845" lon="13.497910222266244"><ele>875.0</ele><time>2026-05-03T07:58:34.999Z</time></trkpt><trkpt lat="42.363099830332004" lon="13.498004630420526"><ele>875.0</ele><time>2026-05-03T07:58:35.999Z</time></trkpt><trkpt lat="42.363181637971685" lon="13.498079417264481"><ele>875.0</ele><time>2026-05-03T07:58:37.999Z</time></trkpt><trkpt lat="42.36330528880121" lon="13.49819555704412"><ele>878.6</ele><time>2026-05-03T07:58:39.999Z</time></trkpt><trkpt lat="42.36336653983799" lon="13.498250798837509"><ele>882.2</ele><time>2026-05-03T07:58:40.999Z</time></trkpt><trkpt lat="42.36342791020162" lon="13.498309218775264"><ele>885.8</ele><time>2026-05-03T07:58:41.999Z</time></trkpt><trkpt lat="42.363535265977056" lon="13.498415766247229"><ele>889.4</ele><time>2026-05-03T07:58:43.999Z</time></trkpt><trkpt lat="42.363588740970066" lon="13.498479029279657"><ele>893.0</ele><time>2026-05-03T07:58:44.999Z</time></trkpt><trkpt lat="42.36364360837425" lon="13.498625461521517"><ele>893.0</ele><time>2026-05-03T07:58:46.999Z</time></trkpt><trkpt lat="42.36365715268868" lon="13.498710660059189"><ele>893.0</ele><time>2026-05-03T07:58:47.999Z</time></trkpt><trkpt lat="42.363706974985895" lon="13.498884043851564"><ele>893.0</ele><time>2026-05-03T07:58:49.999Z</time></trkpt><trkpt lat="42.36376282183198" lon="13.499006933432787"><ele>893.0</ele><time>2026-05-03T07:58:51.999Z</time></trkpt><trkpt lat="42.363869102906165" lon="13.499113612148316"><ele>893.0</ele><time>2026-05-03T07:58:53.999Z</time></trkpt><trkpt lat="42.363918700313015" lon="13.49917090507771"><ele>895.1666666666667</ele><time>2026-05-03T07:58:54.999Z</time></trkpt><trkpt lat="42.36394847189377" lon="13.499248039888093"><ele>897.3333333333334</ele><time>2026-05-03T07:58:55.999Z</time></trkpt><trkpt lat="42.36399911520001" lon="13.499382958050017"><ele>899.5</ele><time>2026-05-03T07:58:57.999Z</time></trkpt><trkpt lat="42.364069156336065" lon="13.499465326111412"><ele>901.6666666666667</ele><time>2026-05-03T07:58:59.999Z</time></trkpt><trkpt lat="42.36412602677268" lon="13.499536125731147"><ele>903.8333333333334</ele><time>2026-05-03T07:59:00.999Z</time></trkpt><trkpt lat="42.364183773764076" lon="13.499609639177198"><ele>906.0</ele><time>2026-05-03T07:59:01.999Z</time></trkpt><trkpt lat="42.364263067040454" lon="13.499759312941034"><ele>906.2857142857142</ele><time>2026-05-03T07:59:03.999Z</time></trkpt><trkpt lat="42.364295887906415" lon="13.499833094770556"><ele>906.5714285714286</ele><time>2026-05-03T07:59:04.999Z</time></trkpt><trkpt lat="42.36433489271562" lon="13.49990953696452"><ele>906.8571428571429</ele><time>2026-05-03T07:59:05.999Z</time></trkpt><trkpt lat="42.3643777096807" lon="13.4999841150391"><ele>907.1428571428571</ele><time>2026-05-03T07:59:06.999Z</time></trkpt><trkpt lat="42.36441207927057" lon="13.500064305615796"><ele>907.4285714285716</ele><time>2026-05-03T07:59:07.999Z</time></trkpt><trkpt lat="42.36445069051259" lon="13.500156886698901"><ele>907.7142857142858</ele><time>2026-05-03T07:59:08.999Z</time></trkpt><trkpt lat="42.36448821717355" lon="13.500232977271986"><ele>908.0</ele><time>2026-05-03T07:59:09.999Z</time></trkpt><trkpt lat="42.364527762463695" lon="13.500310514149913"><ele>908.0000000000001</ele><time>2026-05-03T07:59:10.999Z</time></trkpt><trkpt lat="42.36456561475733" lon="13.5003913154572"><ele>908.0</ele><time>2026-05-03T07:59:11.999Z</time></trkpt><trkpt lat="42.364597194143414" lon="13.50047852647452"><ele>908.0</ele><time>2026-05-03T07:59:12.999Z</time></trkpt><trkpt lat="42.364634144227196" lon="13.500559867611162"><ele>908.0</ele><time>2026-05-03T07:59:13.999Z</time></trkpt><trkpt lat="42.364687775692154" lon="13.500685515913228"><ele>908.0000000000001</ele><time>2026-05-03T07:59:15.999Z</time></trkpt><trkpt lat="42.36471839639292" lon="13.50078134039751"><ele>908.0</ele><time>2026-05-03T07:59:16.999Z</time></trkpt><trkpt lat="42.36477068184099" lon="13.500919508282985"><ele>910.4</ele><time>2026-05-03T07:59:18.999Z</time></trkpt><trkpt lat="42.36483912782255" lon="13.501084031674463"><ele>912.8</ele><time>2026-05-03T07:59:20.999Z</time></trkpt><trkpt lat="42.36486967411221" lon="13.501167263042783"><ele>915.2</ele><time>2026-05-03T07:59:21.999Z</time></trkpt><trkpt lat="42.36490008273969" lon="13.501324253897016"><ele>917.6</ele><time>2026-05-03T07:59:23.999Z</time></trkpt><trkpt lat="42.36491214413762" lon="13.501411254341992"><ele>920.0</ele><time>2026-05-03T07:59:24.999Z</time></trkpt><trkpt lat="42.364932293116674" lon="13.501503490192817"><ele>920.9999999999999</ele><time>2026-05-03T07:59:25.999Z</time></trkpt><trkpt lat="42.364949701781036" lon="13.501606812708879"><ele>922.0</ele><time>2026-05-03T07:59:26.999Z</time></trkpt><trkpt lat="42.36498181014037" lon="13.501705406673345"><ele>922.9999999999999</ele><time>2026-05-03T07:59:27.999Z</time></trkpt><trkpt lat="42.36499942214297" lon="13.501799578147457"><ele>923.9999999999999</ele><time>2026-05-03T07:59:28.999Z</time></trkpt><trkpt lat="42.36502571726289" lon="13.501880121970478"><ele>925.0</ele><time>2026-05-03T07:59:29.999Z</time></trkpt><trkpt lat="42.36504733184825" lon="13.501961090297053"><ele>925.9999999999999</ele><time>2026-05-03T07:59:30.999Z</time></trkpt><trkpt lat="42.3650832882534" lon="13.50204941854012"><ele>926.9999999999999</ele><time>2026-05-03T07:59:31.999Z</time></trkpt><trkpt lat="42.36510597041104" lon="13.50213777852034"><ele>928.0</ele><time>2026-05-03T07:59:32.999Z</time></trkpt><trkpt lat="42.36513030173877" lon="13.502246931157467"><ele>929.0</ele><time>2026-05-03T07:59:33.999Z</time></trkpt><trkpt lat="42.36515027350955" lon="13.502332305285398"><ele>930.0</ele><time>2026-05-03T07:59:34.999Z</time></trkpt><trkpt lat="42.36515541556744" lon="13.502423523229597"><ele>931.0</ele><time>2026-05-03T07:59:35.999Z</time></trkpt><trkpt lat="42.36518580906985" lon="13.50259165757564"><ele>932.0</ele><time>2026-05-03T07:59:37.999Z</time></trkpt><trkpt lat="42.36521109810344" lon="13.502673529314796"><ele>933.0</ele><time>2026-05-03T07:59:38.999Z</time></trkpt><trkpt lat="42.36524218549723" lon="13.50277745659321"><ele>933.0</ele><time>2026-05-03T07:59:39.999Z</time></trkpt><trkpt lat="42.3652792929213" lon="13.502872698755723"><ele>933.0</ele><time>2026-05-03T07:59:40.999Z</time></trkpt><trkpt lat="42.365301408350994" lon="13.502960996995256"><ele>933.0</ele><time>2026-05-03T07:59:41.999Z</time></trkpt><trkpt lat="42.36538705306149" lon="13.503103203691992"><ele>933.0</ele><time>2026-05-03T07:59:43.999Z</time></trkpt><trkpt lat="42.365434947406364" lon="13.503213045312288"><ele>933.0</ele><time>2026-05-03T07:59:44.999Z</time></trkpt><trkpt lat="42.365487062365084" lon="13.503329938334806"><ele>934.3333333333334</ele><time>2026-05-03T07:59:45.999Z</time></trkpt><trkpt lat="42.36555356638316" lon="13.503443207904999"><ele>935.6666666666667</ele><time>2026-05-03T07:59:46.999Z</time></trkpt><trkpt lat="42.365610424906684" lon="13.503549460907427"><ele>937.0</ele><time>2026-05-03T07:59:47.999Z</time></trkpt><trkpt lat="42.36565089192812" lon="13.503650299371225"><ele>938.3333333333334</ele><time>2026-05-03T07:59:48.999Z</time></trkpt><trkpt lat="42.365693488934674" lon="13.503741426592965"><ele>939.6666666666667</ele><time>2026-05-03T07:59:49.999Z</time></trkpt><trkpt lat="42.36572677820093" lon="13.503814569020356"><ele>941.0</ele><time>2026-05-03T07:59:50.999Z</time></trkpt><trkpt lat="42.36575162530231" lon="13.503916626519395"><ele>941.6666666666667</ele><time>2026-05-03T07:59:51.999Z</time></trkpt><trkpt lat="42.36577923510956" lon="13.504010017960468"><ele>942.3333333333334</ele><time>2026-05-03T07:59:52.999Z</time></trkpt><trkpt lat="42.36580623311428" lon="13.504100652022663"><ele>943.0</ele><time>2026-05-03T07:59:53.999Z</time></trkpt><trkpt lat="42.365838597058115" lon="13.504266624990505"><ele>943.6666666666667</ele><time>2026-05-03T07:59:55.999Z</time></trkpt><trkpt lat="42.36583801686339" lon="13.504353744900545"><ele>944.3333333333334</ele><time>2026-05-03T07:59:56.999Z</time></trkpt><trkpt lat="42.36583336909205" lon="13.504500969375483"><ele>945.0</ele><time>2026-05-03T07:59:58.999Z</time></trkpt><trkpt lat="42.365811254818915" lon="13.504669069826997"><ele>945.1666666666666</ele><time>2026-05-03T08:00:00.999Z</time></trkpt><trkpt lat="42.36580324464932" lon="13.504790498666598"><ele>945.3333333333333</ele><time>2026-05-03T08:00:01.999Z</time></trkpt><trkpt lat="42.365804462772196" lon="13.504885938818612"><ele>945.5</ele><time>2026-05-03T08:00:02.999Z</time></trkpt><trkpt lat="42.36582253481295" lon="13.504984729513346"><ele>945.6666666666666</ele><time>2026-05-03T08:00:03.999Z</time></trkpt><trkpt lat="42.365842031830546" lon="13.505067785101383"><ele>945.8333333333333</ele><time>2026-05-03T08:00:04.999Z</time></trkpt><trkpt lat="42.36585877473785" lon="13.505179400990915"><ele>946.0</ele><time>2026-05-03T08:00:05.999Z</time></trkpt><trkpt lat="42.365896332525914" lon="13.50531473910198"><ele>946.1666666666666</ele><time>2026-05-03T08:00:07.999Z</time></trkpt><trkpt lat="42.36592050577214" lon="13.50541385038839"><ele>946.3333333333333</ele><time>2026-05-03T08:00:08.999Z</time></trkpt><trkpt lat="42.365935325091804" lon="13.505508029183003"><ele>946.5</ele><time>2026-05-03T08:00:09.999Z</time></trkpt><trkpt lat="42.365949666534014" lon="13.505671545824816"><ele>946.6666666666667</ele><time>2026-05-03T08:00:11.999Z</time></trkpt><trkpt lat="42.365966687120725" lon="13.505775640123362"><ele>946.8333333333334</ele><time>2026-05-03T08:00:13.999Z</time></trkpt><trkpt lat="42.36598655985948" lon="13.505890414127022"><ele>947.0</ele><time>2026-05-03T08:00:31.999Z</time></trkpt><trkpt lat="42.366002112291554" lon="13.50603023821477"><ele>947.0000000000001</ele><time>2026-05-03T08:00:33.999Z</time></trkpt><trkpt lat="42.366009205550164" lon="13.5061244226773"><ele>947.0</ele><time>2026-05-03T08:00:34.999Z</time></trkpt><trkpt lat="42.36600567032132" lon="13.506227796879234"><ele>947.0</ele><time>2026-05-03T08:00:35.999Z</time></trkpt><trkpt lat="42.366014230234306" lon="13.506325264724369"><ele>947.0</ele><time>2026-05-03T08:00:36.999Z</time></trkpt><trkpt lat="42.36601727326746" lon="13.506440383875077"><ele>947.0000000000001</ele><time>2026-05-03T08:00:37.999Z</time></trkpt><trkpt lat="42.36608196211818" lon="13.506526691546574"><ele>947.0</ele><time>2026-05-03T08:00:39.999Z</time></trkpt><trkpt lat="42.36616462074938" lon="13.506638654494433"><ele>947.4000000000001</ele><time>2026-05-03T08:00:41.999Z</time></trkpt><trkpt lat="42.366197971088546" lon="13.50671707004696"><ele>947.8000000000001</ele><time>2026-05-03T08:00:42.999Z</time></trkpt><trkpt lat="42.36622796127041" lon="13.506799281837967"><ele>948.2</ele><time>2026-05-03T08:00:43.999Z</time></trkpt><trkpt lat="42.3663117489873" lon="13.506935533541713"><ele>948.6</ele><time>2026-05-03T08:00:45.999Z</time></trkpt><trkpt lat="42.36636201592587" lon="13.506993805542548"><ele>949.0</ele><time>2026-05-03T08:00:46.999Z</time></trkpt><trkpt lat="42.36645652061702" lon="13.507100108113624"><ele>950.8333333333333</ele><time>2026-05-03T08:00:48.999Z</time></trkpt><trkpt lat="42.366503107105196" lon="13.507179759835262"><ele>952.6666666666666</ele><time>2026-05-03T08:00:49.999Z</time></trkpt><trkpt lat="42.36654844585833" lon="13.507256039345249"><ele>954.5</ele><time>2026-05-03T08:00:50.999Z</time></trkpt><trkpt lat="42.36660141734154" lon="13.507346523426543"><ele>956.3333333333333</ele><time>2026-05-03T08:00:52.999Z</time></trkpt><trkpt lat="42.36664569878229" lon="13.507428005322982"><ele>958.1666666666666</ele><time>2026-05-03T08:00:54.999Z</time></trkpt><trkpt lat="42.36669527178543" lon="13.507508027896023"><ele>960.0</ele><time>2026-05-03T08:00:57.999Z</time></trkpt><trkpt lat="42.36674529453663" lon="13.507578298474717"><ele>960.0</ele><time>2026-05-03T08:00:59.999Z</time></trkpt><trkpt lat="42.36669218227121" lon="13.507690044904564"><ele>960.0</ele><time>2026-05-03T08:01:03.999Z</time></trkpt><trkpt lat="42.36662159511454" lon="13.507717639750135"><ele>960.0</ele><time>2026-05-03T08:01:04.999Z</time></trkpt><trkpt lat="42.366548199918824" lon="13.507763000467309"><ele>960.0</ele><time>2026-05-03T08:01:05.999Z</time></trkpt><trkpt lat="42.366471557424475" lon="13.507825797835787"><ele>960.0</ele><time>2026-05-03T08:01:06.999Z</time></trkpt><trkpt lat="42.36641149473255" lon="13.507865360178766"><ele>960.0</ele><time>2026-05-03T08:01:07.999Z</time></trkpt><trkpt lat="42.36634922141909" lon="13.507914603721092"><ele>958.8333333333334</ele><time>2026-05-03T08:01:08.999Z</time></trkpt><trkpt lat="42.36627602958077" lon="13.507961909353291"><ele>957.6666666666667</ele><time>2026-05-03T08:01:09.999Z</time></trkpt><trkpt lat="42.36620456685034" lon="13.508012474633832"><ele>956.5</ele><time>2026-05-03T08:01:10.999Z</time></trkpt><trkpt lat="42.36613548486745" lon="13.508055368529359"><ele>955.3333333333334</ele><time>2026-05-03T08:01:11.999Z</time></trkpt><trkpt lat="42.36607671489897" lon="13.508109521285853"><ele>954.1666666666667</ele><time>2026-05-03T08:01:12.999Z</time></trkpt><trkpt lat="42.366014095851995" lon="13.508238082740043"><ele>953.0</ele><time>2026-05-03T08:01:14.999Z</time></trkpt><trkpt lat="42.36596512284921" lon="13.50836001890926"><ele>953.0</ele><time>2026-05-03T08:01:16.999Z</time></trkpt><trkpt lat="42.365914624582864" lon="13.508486506765628"><ele>953.0</ele><time>2026-05-03T08:01:18.999Z</time></trkpt><trkpt lat="42.36582493248364" lon="13.50856646956641"><ele>953.0</ele><time>2026-05-03T08:01:20.999Z</time></trkpt><trkpt lat="42.36577107214135" lon="13.508634174470393"><ele>953.0</ele><time>2026-05-03T08:01:22.999Z</time></trkpt><trkpt lat="42.365756918379226" lon="13.508770307612657"><ele>953.0</ele><time>2026-05-03T08:01:24.999Z</time></trkpt><trkpt lat="42.365741847350165" lon="13.508874960263256"><ele>954.0000000000001</ele><time>2026-05-03T08:01:25.999Z</time></trkpt><trkpt lat="42.36571740564958" lon="13.50898821629175"><ele>955.0</ele><time>2026-05-03T08:01:26.999Z</time></trkpt><trkpt lat="42.365677665591555" lon="13.5090767074518"><ele>956.0</ele><time>2026-05-03T08:01:27.999Z</time></trkpt><trkpt lat="42.36561147044286" lon="13.509184313288339"><ele>957.0</ele><time>2026-05-03T08:01:29.999Z</time></trkpt><trkpt lat="42.36559015723746" lon="13.509316841187095"><ele>958.0000000000001</ele><time>2026-05-03T08:01:31.999Z</time></trkpt><trkpt lat="42.36559367602403" lon="13.509412625026435"><ele>959.0</ele><time>2026-05-03T08:01:32.999Z</time></trkpt><trkpt lat="42.365600249500005" lon="13.509545827600357"><ele>958.6</ele><time>2026-05-03T08:01:34.999Z</time></trkpt><trkpt lat="42.36564629912843" lon="13.509677839925162"><ele>958.2</ele><time>2026-05-03T08:01:37Z</time></trkpt><trkpt lat="42.365752912235166" lon="13.509786755504807"><ele>957.8000000000001</ele><time>2026-05-03T08:01:39Z</time></trkpt><trkpt lat="42.36583200831913" lon="13.50983547715275"><ele>957.4000000000001</ele><time>2026-05-03T08:01:40Z</time></trkpt><trkpt lat="42.36589875770122" lon="13.509879437316192"><ele>957.0</ele><time>2026-05-03T08:01:41Z</time></trkpt><trkpt lat="42.36596705289112" lon="13.509911095479584"><ele>957.0</ele><time>2026-05-03T08:01:42Z</time></trkpt><trkpt lat="42.366031863128676" lon="13.509929156139911"><ele>957.0</ele><time>2026-05-03T08:01:43Z</time></trkpt><trkpt lat="42.3660944937176" lon="13.510004046202248"><ele>957.0</ele><time>2026-05-03T08:01:45Z</time></trkpt><trkpt lat="42.36606412948493" lon="13.510167929945013"><ele>957.0</ele><time>2026-05-03T08:01:47Z</time></trkpt><trkpt lat="42.366020905934796" lon="13.51026564392984"><ele>957.0</ele><time>2026-05-03T08:01:48Z</time></trkpt><trkpt lat="42.36598977977886" lon="13.510387728614045"><ele>956.8333333333334</ele><time>2026-05-03T08:01:49Z</time></trkpt><trkpt lat="42.36596118709342" lon="13.510485469596789"><ele>956.6666666666667</ele><time>2026-05-03T08:01:50Z</time></trkpt><trkpt lat="42.365917214222065" lon="13.51057568275597"><ele>956.5</ele><time>2026-05-03T08:01:51Z</time></trkpt><trkpt lat="42.36585079183605" lon="13.510637284700335"><ele>956.3333333333334</ele><time>2026-05-03T08:01:52Z</time></trkpt><trkpt lat="42.365772872387446" lon="13.51069067016662"><ele>956.1666666666667</ele><time>2026-05-03T08:01:53Z</time></trkpt><trkpt lat="42.36570442415695" lon="13.510772438083588"><ele>956.0</ele><time>2026-05-03T08:01:54Z</time></trkpt><trkpt lat="42.36564655615767" lon="13.5108840225775"><ele>956.0000000000001</ele><time>2026-05-03T08:01:55Z</time></trkpt><trkpt lat="42.3656042708139" lon="13.51100247528547"><ele>956.0</ele><time>2026-05-03T08:01:56Z</time></trkpt><trkpt lat="42.3655717220512" lon="13.511111570379082"><ele>956.0</ele><time>2026-05-03T08:01:57Z</time></trkpt><trkpt lat="42.365556492954255" lon="13.511227339963755"><ele>956.0</ele><time>2026-05-03T08:01:58Z</time></trkpt><trkpt lat="42.365553653294334" lon="13.51133112020963"><ele>956.0000000000001</ele><time>2026-05-03T08:01:59Z</time></trkpt><trkpt lat="42.36552701474596" lon="13.511448296299406"><ele>956.0</ele><time>2026-05-03T08:02:00Z</time></trkpt><trkpt lat="42.36548605920373" lon="13.511564360690342"><ele>956.1999999999999</ele><time>2026-05-03T08:02:01Z</time></trkpt><trkpt lat="42.365450449162985" lon="13.511682081317783"><ele>956.3999999999999</ele><time>2026-05-03T08:02:01.999Z</time></trkpt><trkpt lat="42.36541060530194" lon="13.511809906233516"><ele>956.6</ele><time>2026-05-03T08:02:02.999Z</time></trkpt><trkpt lat="42.365383382912974" lon="13.511906715342828"><ele>956.8</ele><time>2026-05-03T08:02:03.999Z</time></trkpt><trkpt lat="42.36536504564481" lon="13.512001646552532"><ele>957.0</ele><time>2026-05-03T08:02:04.999Z</time></trkpt><trkpt lat="42.365371213887734" lon="13.512155792145"><ele>957.0</ele><time>2026-05-03T08:02:06.999Z</time></trkpt><trkpt lat="42.365378628317984" lon="13.512312010483607"><ele>957.0</ele><time>2026-05-03T08:02:08.999Z</time></trkpt><trkpt lat="42.3654069796297" lon="13.51247741781721"><ele>957.0</ele><time>2026-05-03T08:02:10.999Z</time></trkpt><trkpt lat="42.3654628471077" lon="13.512588580256962"><ele>957.0</ele><time>2026-05-03T08:02:11.999Z</time></trkpt><trkpt lat="42.365494453570065" lon="13.512745600144065"><ele>957.0</ele><time>2026-05-03T08:02:12.999Z</time></trkpt><trkpt lat="42.36551040592938" lon="13.512884467247872"><ele>957.0</ele><time>2026-05-03T08:02:13.999Z</time></trkpt><trkpt lat="42.36552155782832" lon="13.513017479391683"><ele>957.0</ele><time>2026-05-03T08:02:14.999Z</time></trkpt><trkpt lat="42.36553317696828" lon="13.513119879125622"><ele>957.0</ele><time>2026-05-03T08:02:15.999Z</time></trkpt><trkpt lat="42.36552098475897" lon="13.513230446379016"><ele>957.0</ele><time>2026-05-03T08:02:17.999Z</time></trkpt><trkpt lat="42.365431317978434" lon="13.51324031854704"><ele>957.0</ele><time>2026-05-03T08:02:19.999Z</time></trkpt><trkpt lat="42.36533060898668" lon="13.51314779845628"><ele>957.0</ele><time>2026-05-03T08:02:21.999Z</time></trkpt><trkpt lat="42.36528466931316" lon="13.513066641860771"><ele>957.0</ele><time>2026-05-03T08:02:22.999Z</time></trkpt><trkpt lat="42.365235117713866" lon="13.512967106721494"><ele>957.0</ele><time>2026-05-03T08:02:23.999Z</time></trkpt><trkpt lat="42.36518795573049" lon="13.512869560689001"><ele>957.0</ele><time>2026-05-03T08:02:24.999Z</time></trkpt><trkpt lat="42.36512302649953" lon="13.512771475701916"><ele>957.0</ele><time>2026-05-03T08:02:25.999Z</time></trkpt><trkpt lat="42.36505137920167" lon="13.512685671618284"><ele>957.0</ele><time>2026-05-03T08:02:26.999Z</time></trkpt><trkpt lat="42.3649820404967" lon="13.512611291849215"><ele>957.0</ele><time>2026-05-03T08:02:27.999Z</time></trkpt><trkpt lat="42.364959615101895" lon="13.512528068556126"><ele>957.0</ele><time>2026-05-03T08:02:28.999Z</time></trkpt><trkpt lat="42.36492945076675" lon="13.512449076981218"><ele>957.0</ele><time>2026-05-03T08:02:29.999Z</time></trkpt><trkpt lat="42.36487944983757" lon="13.512362378738858"><ele>957.0</ele><time>2026-05-03T08:02:30.999Z</time></trkpt><trkpt lat="42.36482409323377" lon="13.512302297760472"><ele>957.0</ele><time>2026-05-03T08:02:31.999Z</time></trkpt><trkpt lat="42.364779799220486" lon="13.512232633291424"><ele>957.0</ele><time>2026-05-03T08:02:32.999Z</time></trkpt><trkpt lat="42.36473318024087" lon="13.512155996265983"><ele>957.0</ele><time>2026-05-03T08:02:33.999Z</time></trkpt><trkpt lat="42.36467025979377" lon="13.51208539651792"><ele>957.0</ele><time>2026-05-03T08:02:34.999Z</time></trkpt><trkpt lat="42.364595260412386" lon="13.512027657222758"><ele>957.0</ele><time>2026-05-03T08:02:35.999Z</time></trkpt><trkpt lat="42.36453591427061" lon="13.511974141918078"><ele>957.0</ele><time>2026-05-03T08:02:36.999Z</time></trkpt><trkpt lat="42.36447714842708" lon="13.511917040172179"><ele>955.1666666666666</ele><time>2026-05-03T08:02:37.999Z</time></trkpt><trkpt lat="42.364421147156484" lon="13.51183776396638"><ele>953.3333333333333</ele><time>2026-05-03T08:02:38.999Z</time></trkpt><trkpt lat="42.36436786417684" lon="13.511773312785861"><ele>951.5</ele><time>2026-05-03T08:02:39.999Z</time></trkpt><trkpt lat="42.36431157412327" lon="13.511707455786631"><ele>949.6666666666666</ele><time>2026-05-03T08:02:40.999Z</time></trkpt><trkpt lat="42.36425431588668" lon="13.511644294058623"><ele>947.8333333333333</ele><time>2026-05-03T08:02:41.999Z</time></trkpt><trkpt lat="42.36420920882879" lon="13.511579215992265"><ele>946.0</ele><time>2026-05-03T08:02:42.999Z</time></trkpt><trkpt lat="42.364121269845114" lon="13.511477132998078"><ele>945.9999999999999</ele><time>2026-05-03T08:02:44.999Z</time></trkpt><trkpt lat="42.364044940930114" lon="13.511449289424057"><ele>946.0</ele><time>2026-05-03T08:02:45.999Z</time></trkpt><trkpt lat="42.36396545610262" lon="13.511423004131501"><ele>946.0</ele><time>2026-05-03T08:02:46.999Z</time></trkpt><trkpt lat="42.363883206736695" lon="13.511391463280962"><ele>946.0</ele><time>2026-05-03T08:02:47.999Z</time></trkpt><trkpt lat="42.363807786024815" lon="13.511369608156963"><ele>945.9999999999999</ele><time>2026-05-03T08:02:48.999Z</time></trkpt><trkpt lat="42.36373206250614" lon="13.51135864367556"><ele>946.0</ele><time>2026-05-03T08:02:49.999Z</time></trkpt><trkpt lat="42.36366299761478" lon="13.511341104590345"><ele>946.1428571428571</ele><time>2026-05-03T08:02:50.999Z</time></trkpt><trkpt lat="42.363600016789604" lon="13.511313380474816"><ele>946.2857142857142</ele><time>2026-05-03T08:02:51.999Z</time></trkpt><trkpt lat="42.36353772577635" lon="13.511282840808672"><ele>946.4285714285713</ele><time>2026-05-03T08:02:52.999Z</time></trkpt><trkpt lat="42.36346848530694" lon="13.511267335778452"><ele>946.5714285714286</ele><time>2026-05-03T08:02:53.999Z</time></trkpt><trkpt lat="42.363403265630176" lon="13.511274253488116"><ele>946.7142857142856</ele><time>2026-05-03T08:02:54.999Z</time></trkpt><trkpt lat="42.36333338607078" lon="13.511243165711887"><ele>946.8571428571428</ele><time>2026-05-03T08:02:55.999Z</time></trkpt><trkpt lat="42.3632700312024" lon="13.511221886437417"><ele>947.0</ele><time>2026-05-03T08:02:56.999Z</time></trkpt><trkpt lat="42.36320436629638" lon="13.511207022915537"><ele>946.0000000000001</ele><time>2026-05-03T08:02:57.999Z</time></trkpt><trkpt lat="42.36312101127164" lon="13.511106763782138"><ele>945.0</ele><time>2026-05-03T08:02:59.999Z</time></trkpt><trkpt lat="42.363068184975575" lon="13.511017857598706"><ele>944.0</ele><time>2026-05-03T08:03:00.999Z</time></trkpt><trkpt lat="42.363015767325905" lon="13.510949801903212"><ele>943.0</ele><time>2026-05-03T08:03:01.999Z</time></trkpt><trkpt lat="42.362954633998605" lon="13.510902613686767"><ele>942.0000000000001</ele><time>2026-05-03T08:03:02.999Z</time></trkpt><trkpt lat="42.362895018197996" lon="13.510848988899527"><ele>941.0</ele><time>2026-05-03T08:03:03.999Z</time></trkpt><trkpt lat="42.362848623931335" lon="13.510760060361553"><ele>939.5000000000001</ele><time>2026-05-03T08:03:04.999Z</time></trkpt><trkpt lat="42.362785455558324" lon="13.510668616600247"><ele>938.0</ele><time>2026-05-03T08:03:05.999Z</time></trkpt><trkpt lat="42.36272184483918" lon="13.510592663713298"><ele>936.5</ele><time>2026-05-03T08:03:06.999Z</time></trkpt><trkpt lat="42.362656434934" lon="13.510534619060838"><ele>935.0</ele><time>2026-05-03T08:03:07.999Z</time></trkpt><trkpt lat="42.362593537667145" lon="13.510497162381881"><ele>933.5000000000001</ele><time>2026-05-03T08:03:08.999Z</time></trkpt><trkpt lat="42.36252816542802" lon="13.510494114275236"><ele>932.0</ele><time>2026-05-03T08:03:09.999Z</time></trkpt><trkpt lat="42.36245088179062" lon="13.510513087501439"><ele>932.0000000000001</ele><time>2026-05-03T08:03:10.999Z</time></trkpt><trkpt lat="42.36237910388432" lon="13.510530220609297"><ele>932.0</ele><time>2026-05-03T08:03:11.999Z</time></trkpt><trkpt lat="42.362305442072085" lon="13.51053428567147"><ele>932.0</ele><time>2026-05-03T08:03:12.999Z</time></trkpt><trkpt lat="42.362234334153406" lon="13.510557680647588"><ele>932.0</ele><time>2026-05-03T08:03:13.999Z</time></trkpt><trkpt lat="42.36215302160941" lon="13.510599813750357"><ele>932.0000000000001</ele><time>2026-05-03T08:03:14.999Z</time></trkpt><trkpt lat="42.36208251569537" lon="13.510634995561844"><ele>932.0</ele><time>2026-05-03T08:03:15.999Z</time></trkpt><trkpt lat="42.36201525477927" lon="13.510643627839256"><ele>930.6666666666667</ele><time>2026-05-03T08:03:16.999Z</time></trkpt><trkpt lat="42.361945146347146" lon="13.510633562647595"><ele>929.3333333333334</ele><time>2026-05-03T08:03:17.999Z</time></trkpt><trkpt lat="42.361859114435816" lon="13.51062397176874"><ele>928.0</ele><time>2026-05-03T08:03:18.999Z</time></trkpt><trkpt lat="42.36179292959855" lon="13.510654316261382"><ele>926.6666666666667</ele><time>2026-05-03T08:03:19.999Z</time></trkpt><trkpt lat="42.36171972248307" lon="13.51070019594725"><ele>925.3333333333334</ele><time>2026-05-03T08:03:20.999Z</time></trkpt><trkpt lat="42.36164312173967" lon="13.510726406116799"><ele>924.0</ele><time>2026-05-03T08:03:21.999Z</time></trkpt><trkpt lat="42.36156905092599" lon="13.510722550893384"><ele>924.0</ele><time>2026-05-03T08:03:22.999Z</time></trkpt><trkpt lat="42.361491201682476" lon="13.510713764186049"><ele>924.0</ele><time>2026-05-03T08:03:23.999Z</time></trkpt><trkpt lat="42.36141903937738" lon="13.51070731750835"><ele>924.0</ele><time>2026-05-03T08:03:24.999Z</time></trkpt><trkpt lat="42.36133668089036" lon="13.510703000062602"><ele>924.0</ele><time>2026-05-03T08:03:25.999Z</time></trkpt><trkpt lat="42.361263308553355" lon="13.510681556617703"><ele>924.0</ele><time>2026-05-03T08:03:26.999Z</time></trkpt><trkpt lat="42.361183513389086" lon="13.51064053424479"><ele>924.0</ele><time>2026-05-03T08:03:27.999Z</time></trkpt><trkpt lat="42.361110271421424" lon="13.510595876278561"><ele>923.1666666666666</ele><time>2026-05-03T08:03:28.999Z</time></trkpt><trkpt lat="42.361025368963766" lon="13.510569334974067"><ele>922.3333333333333</ele><time>2026-05-03T08:03:29.999Z</time></trkpt><trkpt lat="42.36093995176317" lon="13.510565734400663"><ele>921.5</ele><time>2026-05-03T08:03:30.999Z</time></trkpt><trkpt lat="42.36086382454067" lon="13.510547772245154"><ele>920.6666666666666</ele><time>2026-05-03T08:03:31.999Z</time></trkpt><trkpt lat="42.36079163906909" lon="13.51050409851928"><ele>919.8333333333333</ele><time>2026-05-03T08:03:32.999Z</time></trkpt><trkpt lat="42.360723510553264" lon="13.510467586363847"><ele>919.0</ele><time>2026-05-03T08:03:33.999Z</time></trkpt><trkpt lat="42.3606605170695" lon="13.510425892764754"><ele>918.8333333333333</ele><time>2026-05-03T08:03:34.999Z</time></trkpt><trkpt lat="42.360603299344" lon="13.510364007633784"><ele>918.6666666666666</ele><time>2026-05-03T08:03:35.999Z</time></trkpt><trkpt lat="42.36054329331273" lon="13.51030563667279"><ele>918.5</ele><time>2026-05-03T08:03:36.999Z</time></trkpt><trkpt lat="42.360487662230675" lon="13.5102611629881"><ele>918.3333333333333</ele><time>2026-05-03T08:03:37.999Z</time></trkpt><trkpt lat="42.36039220789837" lon="13.510175396990658"><ele>918.1666666666666</ele><time>2026-05-03T08:03:39.999Z</time></trkpt><trkpt lat="42.36033496842753" lon="13.510118254434012"><ele>918.0</ele><time>2026-05-03T08:03:40.999Z</time></trkpt><trkpt lat="42.36029316344606" lon="13.510051288599893"><ele>916.0</ele><time>2026-05-03T08:03:42Z</time></trkpt><trkpt lat="42.36024332552107" lon="13.509998120012186"><ele>914.0</ele><time>2026-05-03T08:03:43Z</time></trkpt><trkpt lat="42.360146630607815" lon="13.509882685733926"><ele>912.0</ele><time>2026-05-03T08:03:45Z</time></trkpt><trkpt lat="42.360098549795836" lon="13.509814820931744"><ele>910.0</ele><time>2026-05-03T08:03:46Z</time></trkpt><trkpt lat="42.36004642578451" lon="13.509766661312602"><ele>908.0</ele><time>2026-05-03T08:03:47Z</time></trkpt><trkpt lat="42.35997134742021" lon="13.5096593100689"><ele>906.0</ele><time>2026-05-03T08:03:49Z</time></trkpt><trkpt lat="42.35992334528868" lon="13.509506868996851"><ele>905.8333333333334</ele><time>2026-05-03T08:03:51Z</time></trkpt><trkpt lat="42.35990673948949" lon="13.509414784286804"><ele>905.6666666666667</ele><time>2026-05-03T08:03:52Z</time></trkpt><trkpt lat="42.359887349969924" lon="13.50930168253923"><ele>905.5</ele><time>2026-05-03T08:03:53Z</time></trkpt><trkpt lat="42.35985682971896" lon="13.509200803709103"><ele>905.3333333333334</ele><time>2026-05-03T08:03:54Z</time></trkpt><trkpt lat="42.359823291838865" lon="13.50910152005161"><ele>905.1666666666667</ele><time>2026-05-03T08:03:55Z</time></trkpt><trkpt lat="42.35979907934501" lon="13.508994279530688"><ele>905.0</ele><time>2026-05-03T08:03:56Z</time></trkpt><trkpt lat="42.359790666639235" lon="13.508883287968404"><ele>905.0</ele><time>2026-05-03T08:03:57Z</time></trkpt><trkpt lat="42.35976836362891" lon="13.508766709745222"><ele>905.0</ele><time>2026-05-03T08:03:58Z</time></trkpt><trkpt lat="42.3597466736244" lon="13.508647650809129"><ele>905.0</ele><time>2026-05-03T08:03:59Z</time></trkpt><trkpt lat="42.35971478439404" lon="13.508520520889826"><ele>905.0</ele><time>2026-05-03T08:04:00Z</time></trkpt><trkpt lat="42.35969723360005" lon="13.508396934780961"><ele>905.0</ele><time>2026-05-03T08:04:01Z</time></trkpt><trkpt lat="42.359680733915496" lon="13.508285520464458"><ele>902.8</ele><time>2026-05-03T08:04:02Z</time></trkpt><trkpt lat="42.35966402220895" lon="13.508178448418336"><ele>900.6</ele><time>2026-05-03T08:04:03Z</time></trkpt><trkpt lat="42.35964896307181" lon="13.508058308276953"><ele>898.4000000000001</ele><time>2026-05-03T08:04:04Z</time></trkpt><trkpt lat="42.35962249332853" lon="13.50792887193646"><ele>896.2</ele><time>2026-05-03T08:04:05Z</time></trkpt><trkpt lat="42.359598835115065" lon="13.507804268780557"><ele>894.0</ele><time>2026-05-03T08:04:06Z</time></trkpt><trkpt lat="42.35957471968069" lon="13.507687639006376"><ele>892.8333333333334</ele><time>2026-05-03T08:04:07Z</time></trkpt><trkpt lat="42.35955866878131" lon="13.507580778233837"><ele>891.6666666666667</ele><time>2026-05-03T08:04:08Z</time></trkpt><trkpt lat="42.35956054923108" lon="13.507466301394146"><ele>890.5</ele><time>2026-05-03T08:04:09Z</time></trkpt><trkpt lat="42.35957430577598" lon="13.507356255799222"><ele>889.3333333333334</ele><time>2026-05-03T08:04:10Z</time></trkpt><trkpt lat="42.359567723429365" lon="13.5072541557534"><ele>888.1666666666667</ele><time>2026-05-03T08:04:11Z</time></trkpt><trkpt lat="42.35952337697595" lon="13.507151464585773"><ele>887.0</ele><time>2026-05-03T08:04:12Z</time></trkpt><trkpt lat="42.35948745467636" lon="13.507071270818807"><ele>886.0000000000001</ele><time>2026-05-03T08:04:13Z</time></trkpt><trkpt lat="42.359493057928866" lon="13.506925455629045"><ele>885.0</ele><time>2026-05-03T08:04:15.001Z</time></trkpt><trkpt lat="42.35950966761711" lon="13.506832077409873"><ele>884.0</ele><time>2026-05-03T08:04:16.001Z</time></trkpt><trkpt lat="42.359501700783866" lon="13.506721793339738"><ele>883.0</ele><time>2026-05-03T08:04:17.001Z</time></trkpt><trkpt lat="42.359479596370136" lon="13.506617154308785"><ele>882.0000000000001</ele><time>2026-05-03T08:04:18.001Z</time></trkpt><trkpt lat="42.359445941486946" lon="13.506517470143763"><ele>881.0</ele><time>2026-05-03T08:04:19Z</time></trkpt><trkpt lat="42.35941863109935" lon="13.506428885017073"><ele>881.0000000000001</ele><time>2026-05-03T08:04:20Z</time></trkpt><trkpt lat="42.35938935241618" lon="13.506312318960303"><ele>881.0</ele><time>2026-05-03T08:04:22Z</time></trkpt><trkpt lat="42.359316294543554" lon="13.50625839509415"><ele>881.0</ele><time>2026-05-03T08:04:25Z</time></trkpt><trkpt lat="42.35925551580025" lon="13.506287948395618"><ele>881.0</ele><time>2026-05-03T08:04:26Z</time></trkpt><trkpt lat="42.35917833507402" lon="13.506340390530449"><ele>881.0000000000001</ele><time>2026-05-03T08:04:27Z</time></trkpt><trkpt lat="42.35909362500224" lon="13.5063380833126"><ele>881.0</ele><time>2026-05-03T08:04:28Z</time></trkpt><trkpt lat="42.35900155778447" lon="13.506281086478634"><ele>880.25</ele><time>2026-05-03T08:04:29Z</time></trkpt><trkpt lat="42.35890129001648" lon="13.506191760266356"><ele>879.5</ele><time>2026-05-03T08:04:30Z</time></trkpt><trkpt lat="42.35879521987533" lon="13.50606136183101"><ele>878.75</ele><time>2026-05-03T08:04:31Z</time></trkpt><trkpt lat="42.35870771980512" lon="13.505893751725768"><ele>878.0</ele><time>2026-05-03T08:04:32Z</time></trkpt><trkpt lat="42.35862557658838" lon="13.505713018505798"><ele>877.3333333333334</ele><time>2026-05-03T08:04:33Z</time></trkpt><trkpt lat="42.358540075491455" lon="13.505540480865886"><ele>876.6666666666667</ele><time>2026-05-03T08:04:34Z</time></trkpt><trkpt lat="42.35844454230593" lon="13.50536814370653"><ele>876.0</ele><time>2026-05-03T08:04:35Z</time></trkpt><trkpt lat="42.358354810504906" lon="13.505207683497229"><ele>876.0</ele><time>2026-05-03T08:04:36Z</time></trkpt><trkpt lat="42.35825753452349" lon="13.505070999110744"><ele>876.0</ele><time>2026-05-03T08:04:37Z</time></trkpt><trkpt lat="42.35815801488451" lon="13.50495285258402"><ele>876.0</ele><time>2026-05-03T08:04:38Z</time></trkpt><trkpt lat="42.35805092790052" lon="13.50485462642112"><ele>876.0</ele><time>2026-05-03T08:04:39Z</time></trkpt><trkpt lat="42.35793252872047" lon="13.504769400995833"><ele>876.0</ele><time>2026-05-03T08:04:40Z</time></trkpt><trkpt lat="42.357830000911974" lon="13.504690235147775"><ele>875.9999999999999</ele><time>2026-05-03T08:04:41Z</time></trkpt><trkpt lat="42.35773763553119" lon="13.504619759543283"><ele>875.9999999999999</ele><time>2026-05-03T08:04:42Z</time></trkpt><trkpt lat="42.35764765395036" lon="13.504564260938315"><ele>876.0</ele><time>2026-05-03T08:04:43Z</time></trkpt><trkpt lat="42.357549495398814" lon="13.504519273085"><ele>876.0</ele><time>2026-05-03T08:04:44Z</time></trkpt><trkpt lat="42.35744175033088" lon="13.50448076331201"><ele>876.0</ele><time>2026-05-03T08:04:45Z</time></trkpt><trkpt lat="42.357343315045014" lon="13.504464361865509"><ele>876.0</ele><time>2026-05-03T08:04:46Z</time></trkpt><trkpt lat="42.357258530371396" lon="13.504460948768289"><ele>876.0</ele><time>2026-05-03T08:04:47Z</time></trkpt><trkpt lat="42.35718399996775" lon="13.504467335252896"><ele>876.0</ele><time>2026-05-03T08:04:48Z</time></trkpt><trkpt lat="42.35711066237949" lon="13.504482330486663"><ele>876.0</ele><time>2026-05-03T08:04:49Z</time></trkpt><trkpt lat="42.35701597752465" lon="13.504504291019323"><ele>876.0</ele><time>2026-05-03T08:04:50Z</time></trkpt><trkpt lat="42.356906699511235" lon="13.504549916418146"><ele>880.4</ele><time>2026-05-03T08:04:51Z</time></trkpt><trkpt lat="42.356795986682066" lon="13.504612208984863"><ele>884.8</ele><time>2026-05-03T08:04:52Z</time></trkpt><trkpt lat="42.35670294355816" lon="13.5046847155071"><ele>889.1999999999999</ele><time>2026-05-03T08:04:53Z</time></trkpt><trkpt lat="42.356640498631535" lon="13.504770848315733"><ele>893.5999999999999</ele><time>2026-05-03T08:04:54Z</time></trkpt><trkpt lat="42.35659452243916" lon="13.504866599800296"><ele>898.0</ele><time>2026-05-03T08:04:55Z</time></trkpt><trkpt lat="42.356554587706" lon="13.504951450344558"><ele>897.9999999999999</ele><time>2026-05-03T08:04:56Z</time></trkpt><trkpt lat="42.35652652956972" lon="13.505031928139056"><ele>898.0</ele><time>2026-05-03T08:04:57Z</time></trkpt><trkpt lat="42.35650297917886" lon="13.50511204327414"><ele>898.0</ele><time>2026-05-03T08:04:58Z</time></trkpt><trkpt lat="42.35646344336467" lon="13.505226686710076"><ele>898.0</ele><time>2026-05-03T08:05:00Z</time></trkpt><trkpt lat="42.356430475883315" lon="13.50532025037512"><ele>897.9999999999999</ele><time>2026-05-03T08:05:02Z</time></trkpt><trkpt lat="42.35642462364422" lon="13.50544457475361"><ele>898.0</ele><time>2026-05-03T08:11:22Z</time></trkpt><trkpt lat="42.356360206756364" lon="13.505563915960884"><ele>900.1666666666666</ele><time>2026-05-03T08:11:24Z</time></trkpt><trkpt lat="42.35630241240808" lon="13.505636178386156"><ele>902.3333333333333</ele><time>2026-05-03T08:11:25Z</time></trkpt><trkpt lat="42.35624253300972" lon="13.505679716781689"><ele>904.5</ele><time>2026-05-03T08:11:26Z</time></trkpt><trkpt lat="42.35617643514338" lon="13.505714057885674"><ele>906.6666666666667</ele><time>2026-05-03T08:11:27Z</time></trkpt><trkpt lat="42.35611024786823" lon="13.505722846964929"><ele>908.8333333333334</ele><time>2026-05-03T08:11:28Z</time></trkpt><trkpt lat="42.35603403045144" lon="13.505698973473077"><ele>911.0</ele><time>2026-05-03T08:11:30Z</time></trkpt><trkpt lat="42.355936784638544" lon="13.505645320481898"><ele>911.0</ele><time>2026-05-03T08:11:41Z</time></trkpt><trkpt lat="42.355873433187455" lon="13.505603410847584"><ele>910.9999999999999</ele><time>2026-05-03T08:11:42Z</time></trkpt><trkpt lat="42.35580164143278" lon="13.505541530408498"><ele>910.9999999999999</ele><time>2026-05-03T08:11:43Z</time></trkpt><trkpt lat="42.355723007149045" lon="13.50547996908597"><ele>911.0</ele><time>2026-05-03T08:11:44Z</time></trkpt><trkpt lat="42.355631456469865" lon="13.505395738357883"><ele>911.0</ele><time>2026-05-03T08:11:45Z</time></trkpt><trkpt lat="42.355550589295014" lon="13.505290809950042"><ele>913.25</ele><time>2026-05-03T08:11:46Z</time></trkpt><trkpt lat="42.355466774198064" lon="13.50516498446181"><ele>915.5</ele><time>2026-05-03T08:11:47Z</time></trkpt><trkpt lat="42.35538626704239" lon="13.505014760782764"><ele>917.75</ele><time>2026-05-03T08:11:48Z</time></trkpt><trkpt lat="42.355306289791585" lon="13.50483734587562"><ele>920.0</ele><time>2026-05-03T08:11:49Z</time></trkpt><trkpt lat="42.35523309083669" lon="13.504640574423338"><ele>916.6666666666667</ele><time>2026-05-03T08:11:50Z</time></trkpt><trkpt lat="42.3551787548506" lon="13.504431709242311"><ele>913.3333333333333</ele><time>2026-05-03T08:11:51Z</time></trkpt><trkpt lat="42.35513504203421" lon="13.504220298488924"><ele>910.0</ele><time>2026-05-03T08:11:52Z</time></trkpt><trkpt lat="42.355085532282224" lon="13.5040252982218"><ele>910.0</ele><time>2026-05-03T08:11:53Z</time></trkpt><trkpt lat="42.35501903529588" lon="13.503850740254219"><ele>910.0</ele><time>2026-05-03T08:11:54Z</time></trkpt><trkpt lat="42.35495236764604" lon="13.50369681343091"><ele>910.0</ele><time>2026-05-03T08:11:55Z</time></trkpt><trkpt lat="42.354910924927765" lon="13.503543134034247"><ele>910.0</ele><time>2026-05-03T08:11:56Z</time></trkpt><trkpt lat="42.35485312283414" lon="13.503436760052319"><ele>909.3333333333333</ele><time>2026-05-03T08:11:57Z</time></trkpt><trkpt lat="42.35481868508832" lon="13.503348435549894"><ele>908.6666666666666</ele><time>2026-05-03T08:11:58Z</time></trkpt><trkpt lat="42.35476961188152" lon="13.503291487668058"><ele>908.0</ele><time>2026-05-03T08:11:59Z</time></trkpt><trkpt lat="42.354704179424" lon="13.503274470475295"><ele>907.3333333333333</ele><time>2026-05-03T08:12:00Z</time></trkpt><trkpt lat="42.35462901166608" lon="13.503453959666253"><ele>906.6666666666666</ele><time>2026-05-03T08:12:02Z</time></trkpt><trkpt lat="42.35464489068433" lon="13.503567089316707"><ele>906.0</ele><time>2026-05-03T08:12:03Z</time></trkpt><trkpt lat="42.35469273730352" lon="13.503677711643352"><ele>907.0</ele><time>2026-05-03T08:12:04Z</time></trkpt><trkpt lat="42.35476395115864" lon="13.50379405465759"><ele>908.0</ele><time>2026-05-03T08:12:05Z</time></trkpt><trkpt lat="42.35483267128068" lon="13.503915139757964"><ele>909.0</ele><time>2026-05-03T08:12:06Z</time></trkpt><trkpt lat="42.354898094629796" lon="13.504069484586669"><ele>910.0</ele><time>2026-05-03T08:12:07Z</time></trkpt><trkpt lat="42.354944825582024" lon="13.504246581183839"><ele>910.0</ele><time>2026-05-03T08:12:08Z</time></trkpt><trkpt lat="42.35496325522343" lon="13.50444442470356"><ele>910.0</ele><time>2026-05-03T08:12:09Z</time></trkpt><trkpt lat="42.35497335567026" lon="13.504657684031983"><ele>910.0</ele><time>2026-05-03T08:12:10Z</time></trkpt><trkpt lat="42.35500132692971" lon="13.504886586910754"><ele>913.3333333333333</ele><time>2026-05-03T08:12:11Z</time></trkpt><trkpt lat="42.355047614153804" lon="13.5051160491014"><ele>916.6666666666667</ele><time>2026-05-03T08:12:12Z</time></trkpt><trkpt lat="42.355110194022515" lon="13.505334524022148"><ele>920.0</ele><time>2026-05-03T08:12:13Z</time></trkpt><trkpt lat="42.35518969288894" lon="13.50553934257862"><ele>922.3333333333334</ele><time>2026-05-03T08:12:14Z</time></trkpt><trkpt lat="42.355285253540515" lon="13.505739162017091"><ele>924.6666666666667</ele><time>2026-05-03T08:12:15Z</time></trkpt><trkpt lat="42.35538523123653" lon="13.505930281575274"><ele>927.0</ele><time>2026-05-03T08:12:16Z</time></trkpt><trkpt lat="42.355490306527074" lon="13.506119124909187"><ele>929.3333333333333</ele><time>2026-05-03T08:12:17Z</time></trkpt><trkpt lat="42.35559204158151" lon="13.50630450756253"><ele>931.6666666666666</ele><time>2026-05-03T08:12:18Z</time></trkpt><trkpt lat="42.35569530368168" lon="13.506490676421643"><ele>934.0</ele><time>2026-05-03T08:12:19Z</time></trkpt><trkpt lat="42.355809258330105" lon="13.506688957881936"><ele>934.0</ele><time>2026-05-03T08:12:20Z</time></trkpt><trkpt lat="42.35592649324661" lon="13.506875033556337"><ele>934.0</ele><time>2026-05-03T08:12:21Z</time></trkpt><trkpt lat="42.356049206281796" lon="13.507059942374635"><ele>934.0</ele><time>2026-05-03T08:12:22Z</time></trkpt><trkpt lat="42.356170454038335" lon="13.507246764538996"><ele>933.3333333333333</ele><time>2026-05-03T08:12:23Z</time></trkpt><trkpt lat="42.35628454885744" lon="13.507437795772852"><ele>932.6666666666667</ele><time>2026-05-03T08:12:24Z</time></trkpt><trkpt lat="42.3563859619671" lon="13.507635704356282"><ele>932.0</ele><time>2026-05-03T08:12:25Z</time></trkpt><trkpt lat="42.356473594815824" lon="13.507839928872881"><ele>938.0</ele><time>2026-05-03T08:12:26Z</time></trkpt><trkpt lat="42.35655076831148" lon="13.508056875233033"><ele>944.0</ele><time>2026-05-03T08:12:27Z</time></trkpt><trkpt lat="42.356623434698285" lon="13.50828126120385"><ele>950.0</ele><time>2026-05-03T08:12:28Z</time></trkpt><trkpt lat="42.35669060000357" lon="13.508491161009134"><ele>950.0</ele><time>2026-05-03T08:12:29Z</time></trkpt><trkpt lat="42.3567596845919" lon="13.508667396135216"><ele>950.0</ele><time>2026-05-03T08:12:30Z</time></trkpt><trkpt lat="42.3568307787185" lon="13.50880665445645"><ele>950.0</ele><time>2026-05-03T08:12:31Z</time></trkpt><trkpt lat="42.356898156358085" lon="13.508894793666396"><ele>950.0</ele><time>2026-05-03T08:12:32Z</time></trkpt><trkpt lat="42.356988638410016" lon="13.508942775231976"><ele>950.6</ele><time>2026-05-03T08:12:33Z</time></trkpt><trkpt lat="42.3570990983912" lon="13.508954518860861"><ele>951.2</ele><time>2026-05-03T08:12:34Z</time></trkpt><trkpt lat="42.35722503884049" lon="13.508951796539264"><ele>951.8</ele><time>2026-05-03T08:12:35Z</time></trkpt><trkpt lat="42.35732725604849" lon="13.50895662346111"><ele>952.4</ele><time>2026-05-03T08:12:36Z</time></trkpt><trkpt lat="42.35740401983667" lon="13.5089726985345"><ele>953.0</ele><time>2026-05-03T08:12:37Z</time></trkpt><trkpt lat="42.35747005394066" lon="13.508994141522054"><ele>953.0</ele><time>2026-05-03T08:12:38Z</time></trkpt><trkpt lat="42.35759628604327" lon="13.509111838676356"><ele>953.0</ele><time>2026-05-03T08:12:40Z</time></trkpt><trkpt lat="42.35766940029193" lon="13.50922816947675"><ele>953.0</ele><time>2026-05-03T08:12:41Z</time></trkpt><trkpt lat="42.35776207324523" lon="13.509362665536152"><ele>953.0</ele><time>2026-05-03T08:12:42Z</time></trkpt><trkpt lat="42.35782108271227" lon="13.509510324142463"><ele>955.75</ele><time>2026-05-03T08:12:43Z</time></trkpt><trkpt lat="42.35787719243948" lon="13.509642217815973"><ele>958.5</ele><time>2026-05-03T08:12:44Z</time></trkpt><trkpt lat="42.357917575336366" lon="13.509780854684177"><ele>961.25</ele><time>2026-05-03T08:12:45Z</time></trkpt><trkpt lat="42.35794967201211" lon="13.509945093362989"><ele>964.0</ele><time>2026-05-03T08:12:46Z</time></trkpt><trkpt lat="42.35796852110296" lon="13.510124873955888"><ele>963.9999999999999</ele><time>2026-05-03T08:12:47Z</time></trkpt><trkpt lat="42.35796435366836" lon="13.510288466672774"><ele>964.0</ele><time>2026-05-03T08:12:48Z</time></trkpt><trkpt lat="42.35794702544743" lon="13.51041757429094"><ele>964.0</ele><time>2026-05-03T08:12:49Z</time></trkpt><trkpt lat="42.35792971702453" lon="13.510502857948024"><ele>964.0</ele><time>2026-05-03T08:12:50Z</time></trkpt><trkpt lat="42.357868245285026" lon="13.510567993219883"><ele>963.9999999999999</ele><time>2026-05-03T08:12:51Z</time></trkpt><trkpt lat="42.357798327364925" lon="13.510584289674274"><ele>964.0</ele><time>2026-05-03T08:12:52Z</time></trkpt><trkpt lat="42.35771337387441" lon="13.510585783589816"><ele>964.4000000000001</ele><time>2026-05-03T08:12:53Z</time></trkpt><trkpt lat="42.35763980287245" lon="13.510570609294525"><ele>964.8000000000001</ele><time>2026-05-03T08:12:54Z</time></trkpt><trkpt lat="42.35753995653522" lon="13.510595743414305"><ele>965.1999999999999</ele><time>2026-05-03T08:12:56Z</time></trkpt><trkpt lat="42.3575856596193" lon="13.510793495813422"><ele>965.5999999999999</ele><time>2026-05-03T08:12:59Z</time></trkpt><trkpt lat="42.35765102963069" lon="13.510895830215597"><ele>966.0</ele><time>2026-05-03T08:13:00Z</time></trkpt><trkpt lat="42.35770145641233" lon="13.511048230790761"><ele>966.0</ele><time>2026-05-03T08:13:01Z</time></trkpt><trkpt lat="42.35777028296794" lon="13.511229343396252"><ele>966.0</ele><time>2026-05-03T08:13:02Z</time></trkpt><trkpt lat="42.35784778770219" lon="13.511440826984751"><ele>966.0</ele><time>2026-05-03T08:13:03Z</time></trkpt><trkpt lat="42.35793484249955" lon="13.511674911418485"><ele>966.0</ele><time>2026-05-03T08:13:04Z</time></trkpt><trkpt lat="42.3580273880716" lon="13.51189199190387"><ele>966.0</ele><time>2026-05-03T08:13:05Z</time></trkpt><trkpt lat="42.35810635851881" lon="13.512107801399786"><ele>966.0</ele><time>2026-05-03T08:13:06Z</time></trkpt><trkpt lat="42.358185181815735" lon="13.512317850845351"><ele>967.0</ele><time>2026-05-03T08:13:07Z</time></trkpt><trkpt lat="42.35826164414853" lon="13.512518880969155"><ele>968.0</ele><time>2026-05-03T08:13:08Z</time></trkpt><trkpt lat="42.358341197916694" lon="13.512716504310196"><ele>969.0</ele><time>2026-05-03T08:13:09Z</time></trkpt><trkpt lat="42.358408439362655" lon="13.51290249799213"><ele>969.6666666666667</ele><time>2026-05-03T08:13:10Z</time></trkpt><trkpt lat="42.35847510015438" lon="13.513073804620516"><ele>970.3333333333334</ele><time>2026-05-03T08:13:11Z</time></trkpt><trkpt lat="42.35853805975073" lon="13.513254892177986"><ele>971.0</ele><time>2026-05-03T08:13:12Z</time></trkpt><trkpt lat="42.35861033934088" lon="13.513459284631363"><ele>971.0</ele><time>2026-05-03T08:13:13Z</time></trkpt><trkpt lat="42.35868659412131" lon="13.513668091199737"><ele>971.0</ele><time>2026-05-03T08:13:14Z</time></trkpt><trkpt lat="42.35877214863874" lon="13.513884324789615"><ele>971.0</ele><time>2026-05-03T08:13:15Z</time></trkpt><trkpt lat="42.3588626385645" lon="13.514108502258122"><ele>974.6666666666667</ele><time>2026-05-03T08:13:16Z</time></trkpt><trkpt lat="42.358951179286755" lon="13.514324525842698"><ele>978.3333333333333</ele><time>2026-05-03T08:13:17Z</time></trkpt><trkpt lat="42.35903717038754" lon="13.514519025639654"><ele>982.0</ele><time>2026-05-03T08:13:18Z</time></trkpt><trkpt lat="42.3591159750298" lon="13.51469775360452"><ele>982.6</ele><time>2026-05-03T08:13:19Z</time></trkpt><trkpt lat="42.35918564856315" lon="13.51485807077215"><ele>983.2</ele><time>2026-05-03T08:13:20Z</time></trkpt><trkpt lat="42.35924668164364" lon="13.514988803340053"><ele>983.8</ele><time>2026-05-03T08:13:21Z</time></trkpt><trkpt lat="42.359320367040446" lon="13.515056564798323"><ele>984.4</ele><time>2026-05-03T08:13:22Z</time></trkpt><trkpt lat="42.359406367503986" lon="13.515084877104108"><ele>985.0</ele><time>2026-05-03T08:13:23Z</time></trkpt><trkpt lat="42.359485169983415" lon="13.515082343842336"><ele>984.9999999999999</ele><time>2026-05-03T08:13:24Z</time></trkpt><trkpt lat="42.35954952295852" lon="13.515063583540403"><ele>985.0</ele><time>2026-05-03T08:13:25Z</time></trkpt><trkpt lat="42.359624360290496" lon="13.51500723582136"><ele>985.0</ele><time>2026-05-03T08:13:27Z</time></trkpt><trkpt lat="42.35969330260867" lon="13.514942180658275"><ele>985.0</ele><time>2026-05-03T08:13:30Z</time></trkpt><trkpt lat="42.359574403373806" lon="13.514969101077508"><ele>984.9999999999999</ele><time>2026-05-03T08:13:35Z</time></trkpt><trkpt lat="42.35951369444774" lon="13.515010087216973"><ele>985.0</ele><time>2026-05-03T08:13:41Z</time></trkpt><trkpt lat="42.359376585111264" lon="13.51503756415895"><ele>985.0</ele><time>2026-05-03T08:13:43Z</time></trkpt><trkpt lat="42.3592795971738" lon="13.514992517914026"><ele>985.0</ele><time>2026-05-03T08:13:44Z</time></trkpt><trkpt lat="42.35923151766592" lon="13.514866070466896"><ele>985.0</ele><time>2026-05-03T08:13:45Z</time></trkpt><trkpt lat="42.35915182770183" lon="13.514738404075834"><ele>985.0</ele><time>2026-05-03T08:13:46Z</time></trkpt><trkpt lat="42.359097266615336" lon="13.51457656970196"><ele>984.25</ele><time>2026-05-03T08:13:47Z</time></trkpt><trkpt lat="42.35904265655325" lon="13.514435998640927"><ele>983.5</ele><time>2026-05-03T08:13:48Z</time></trkpt><trkpt lat="42.35898263421699" lon="13.514302074972386"><ele>982.75</ele><time>2026-05-03T08:13:49Z</time></trkpt><trkpt lat="42.35892204505692" lon="13.514166886538804"><ele>982.0</ele><time>2026-05-03T08:13:50Z</time></trkpt><trkpt lat="42.358856766612696" lon="13.514046329466566"><ele>980.0</ele><time>2026-05-03T08:13:51Z</time></trkpt><trkpt lat="42.35880892244225" lon="13.51393040627658"><ele>978.0</ele><time>2026-05-03T08:13:52Z</time></trkpt><trkpt lat="42.35877280368657" lon="13.513833076494452"><ele>976.0</ele><time>2026-05-03T08:13:53Z</time></trkpt><trkpt lat="42.35873957045617" lon="13.513717480518027"><ele>974.0</ele><time>2026-05-03T08:13:55Z</time></trkpt><trkpt lat="42.3586563445889" lon="13.513857837592207"><ele>972.0</ele><time>2026-05-03T08:13:59Z</time></trkpt><trkpt lat="42.35872851715093" lon="13.514037417527774"><ele>972.0</ele><time>2026-05-03T08:14:01Z</time></trkpt><trkpt lat="42.35876615196728" lon="13.51415299840595"><ele>972.0</ele><time>2026-05-03T08:14:02Z</time></trkpt><trkpt lat="42.35881236889736" lon="13.514263262524885"><ele>972.0</ele><time>2026-05-03T08:14:03Z</time></trkpt><trkpt lat="42.35885976378044" lon="13.514362431532378"><ele>972.0</ele><time>2026-05-03T08:14:04Z</time></trkpt><trkpt lat="42.35891451815107" lon="13.514471819326"><ele>972.0</ele><time>2026-05-03T08:14:05Z</time></trkpt><trkpt lat="42.359022393634376" lon="13.51452221945747"><ele>974.1666666666666</ele><time>2026-05-03T08:14:06Z</time></trkpt><trkpt lat="42.35906076640307" lon="13.514614616272176"><ele>976.3333333333333</ele><time>2026-05-03T08:14:07Z</time></trkpt><trkpt lat="42.359103616912115" lon="13.514716238686182"><ele>978.5</ele><time>2026-05-03T08:14:08Z</time></trkpt><trkpt lat="42.359154664805466" lon="13.514828642484538"><ele>980.6666666666666</ele><time>2026-05-03T08:14:09Z</time></trkpt><trkpt lat="42.35921033418553" lon="13.514944008677984"><ele>982.8333333333333</ele><time>2026-05-03T08:14:10Z</time></trkpt><trkpt lat="42.35926228990287" lon="13.515027058702215"><ele>985.0</ele><time>2026-05-03T08:14:11Z</time></trkpt><trkpt lat="42.35932832113418" lon="13.515131097832736"><ele>985.0</ele><time>2026-05-03T08:14:12Z</time></trkpt><trkpt lat="42.35938177613885" lon="13.515215321700582"><ele>985.0</ele><time>2026-05-03T08:14:13Z</time></trkpt><trkpt lat="42.35942154562496" lon="13.515290362994564"><ele>985.0</ele><time>2026-05-03T08:14:14Z</time></trkpt><trkpt lat="42.35917940800104" lon="13.515681737008515"><ele>986.0</ele><time>2026-05-03T08:14:16Z</time></trkpt><trkpt lat="42.359125380580224" lon="13.5157995726991"><ele>987.0</ele><time>2026-05-03T08:14:17Z</time></trkpt><trkpt lat="42.359094515450835" lon="13.515917270529753"><ele>988.0</ele><time>2026-05-03T08:14:18Z</time></trkpt><trkpt lat="42.35906678486807" lon="13.516048650905866"><ele>989.0</ele><time>2026-05-03T08:14:19Z</time></trkpt><trkpt lat="42.35905294440959" lon="13.51616806352853"><ele>990.0</ele><time>2026-05-03T08:14:20Z</time></trkpt><trkpt lat="42.35904914748491" lon="13.51628722939282"><ele>993.0</ele><time>2026-05-03T08:14:21Z</time></trkpt><trkpt lat="42.35904825678662" lon="13.516410238696366"><ele>996.0</ele><time>2026-05-03T08:14:22Z</time></trkpt><trkpt lat="42.35903143237421" lon="13.516559671966212"><ele>999.0</ele><time>2026-05-03T08:14:23Z</time></trkpt><trkpt lat="42.359010929592635" lon="13.516708729783293"><ele>1002.0</ele><time>2026-05-03T08:14:24Z</time></trkpt><trkpt lat="42.35897544041548" lon="13.51684195417262"><ele>1005.0</ele><time>2026-05-03T08:14:25Z</time></trkpt><trkpt lat="42.35890705024402" lon="13.51698763102906"><ele>1003.8</ele><time>2026-05-03T08:14:26Z</time></trkpt><trkpt lat="42.35883455160769" lon="13.517133409482897"><ele>1002.6</ele><time>2026-05-03T08:14:27Z</time></trkpt><trkpt lat="42.35877187388643" lon="13.51726243800348"><ele>1001.4000000000001</ele><time>2026-05-03T08:14:28Z</time></trkpt><trkpt lat="42.35871623727369" lon="13.517386631225312"><ele>1000.2</ele><time>2026-05-03T08:14:29Z</time></trkpt><trkpt lat="42.35866475345232" lon="13.517488805216114"><ele>999.0</ele><time>2026-05-03T08:14:30Z</time></trkpt><trkpt lat="42.35861358001607" lon="13.517570483665683"><ele>999.0</ele><time>2026-05-03T08:14:31Z</time></trkpt><trkpt lat="42.35856476217365" lon="13.51767233145674"><ele>999.0</ele><time>2026-05-03T08:14:33Z</time></trkpt><trkpt lat="42.358622913278516" lon="13.517772447205255"><ele>999.0</ele><time>2026-05-03T08:14:35Z</time></trkpt><trkpt lat="42.35870614143516" lon="13.517757758999196"><ele>999.0</ele><time>2026-05-03T08:14:37Z</time></trkpt><trkpt lat="42.358754234052405" lon="13.517697704755673"><ele>999.0</ele><time>2026-05-03T08:14:38Z</time></trkpt><trkpt lat="42.35878645431771" lon="13.517613236110952"><ele>999.0</ele><time>2026-05-03T08:14:39Z</time></trkpt><trkpt lat="42.35883959167853" lon="13.517529951540636"><ele>1000.0</ele><time>2026-05-03T08:14:40Z</time></trkpt><trkpt lat="42.358898995534545" lon="13.517433910771617"><ele>1001.0</ele><time>2026-05-03T08:14:41Z</time></trkpt><trkpt lat="42.358966166170795" lon="13.5173319556684"><ele>1002.0</ele><time>2026-05-03T08:14:42Z</time></trkpt><trkpt lat="42.359019658696305" lon="13.517258159169703"><ele>1003.0</ele><time>2026-05-03T08:14:43Z</time></trkpt><trkpt lat="42.359082862210336" lon="13.517197476238795"><ele>1004.0</ele><time>2026-05-03T08:14:44Z</time></trkpt><trkpt lat="42.35912982739509" lon="13.517132272512628"><ele>1005.0</ele><time>2026-05-03T08:14:45Z</time></trkpt><trkpt lat="42.35918270702731" lon="13.517056148531767"><ele>1005.0000000000001</ele><time>2026-05-03T08:14:46Z</time></trkpt><trkpt lat="42.35922701735715" lon="13.51699555300189"><ele>1005.0</ele><time>2026-05-03T08:14:47Z</time></trkpt><trkpt lat="42.35926627276235" lon="13.516910521361748"><ele>1005.0000000000001</ele><time>2026-05-03T08:14:48Z</time></trkpt><trkpt lat="42.35930974259514" lon="13.516835355218065"><ele>1005.0000000000001</ele><time>2026-05-03T08:14:49Z</time></trkpt><trkpt lat="42.359359811110146" lon="13.516773851924597"><ele>1005.0</ele><time>2026-05-03T08:14:50Z</time></trkpt><trkpt lat="42.35942183220225" lon="13.516711232615858"><ele>1005.0000000000001</ele><time>2026-05-03T08:14:51Z</time></trkpt><trkpt lat="42.35949960317872" lon="13.516660197739045"><ele>1005.0000000000001</ele><time>2026-05-03T08:14:52Z</time></trkpt><trkpt lat="42.35957474863782" lon="13.516626179691858"><ele>1005.0</ele><time>2026-05-03T08:14:53Z</time></trkpt><trkpt lat="42.359661230041944" lon="13.516585298337507"><ele>1005.0</ele><time>2026-05-03T08:14:54Z</time></trkpt><trkpt lat="42.359736982633954" lon="13.516558354645163"><ele>1005.0</ele><time>2026-05-03T08:14:55Z</time></trkpt><trkpt lat="42.35982761155174" lon="13.51654735754949"><ele>1005.0</ele><time>2026-05-03T08:14:56Z</time></trkpt><trkpt lat="42.35991605281317" lon="13.516520574300372"><ele>1005.0</ele><time>2026-05-03T08:14:57Z</time></trkpt><trkpt lat="42.359998683229215" lon="13.516494111444691"><ele>1005.0</ele><time>2026-05-03T08:14:58Z</time></trkpt><trkpt lat="42.36007205467786" lon="13.516480032969612"><ele>1007.8333333333334</ele><time>2026-05-03T08:14:59Z</time></trkpt><trkpt lat="42.360152707326" lon="13.51647059852046"><ele>1010.6666666666667</ele><time>2026-05-03T08:15:00Z</time></trkpt><trkpt lat="42.360232981727066" lon="13.51646330015028"><ele>1013.5</ele><time>2026-05-03T08:15:01Z</time></trkpt><trkpt lat="42.36031316357252" lon="13.516445581789045"><ele>1016.3333333333334</ele><time>2026-05-03T08:15:02Z</time></trkpt><trkpt lat="42.360400956053844" lon="13.516450960083965"><ele>1019.1666666666667</ele><time>2026-05-03T08:15:03Z</time></trkpt><trkpt lat="42.36049231722861" lon="13.516462914701359"><ele>1022.0</ele><time>2026-05-03T08:15:04Z</time></trkpt><trkpt lat="42.36057644080847" lon="13.51647739617353"><ele>1023.5000000000001</ele><time>2026-05-03T08:15:05Z</time></trkpt><trkpt lat="42.360662339778465" lon="13.516505197277903"><ele>1025.0</ele><time>2026-05-03T08:15:06Z</time></trkpt><trkpt lat="42.36074894344994" lon="13.516542038873283"><ele>1026.5</ele><time>2026-05-03T08:15:07Z</time></trkpt><trkpt lat="42.36083493269788" lon="13.516594862288034"><ele>1028.0</ele><time>2026-05-03T08:15:08Z</time></trkpt><trkpt lat="42.36092353183356" lon="13.516614300956215"><ele>1029.5</ele><time>2026-05-03T08:15:09Z</time></trkpt><trkpt lat="42.36099932936969" lon="13.516622279147137"><ele>1031.0</ele><time>2026-05-03T08:15:10Z</time></trkpt><trkpt lat="42.36112280554912" lon="13.516611982165003"><ele>1031.0</ele><time>2026-05-03T08:15:12Z</time></trkpt><trkpt lat="42.36118922489409" lon="13.516607903443312"><ele>1031.0</ele><time>2026-05-03T08:15:13Z</time></trkpt><trkpt lat="42.36126924948598" lon="13.516610837890939"><ele>1031.0</ele><time>2026-05-03T08:15:14Z</time></trkpt><trkpt lat="42.36136840841099" lon="13.516606963111492"><ele>1031.0</ele><time>2026-05-03T08:15:15Z</time></trkpt><trkpt lat="42.36148001170854" lon="13.516597561568007"><ele>1031.0</ele><time>2026-05-03T08:15:16Z</time></trkpt><trkpt lat="42.36158198890227" lon="13.516580843865142"><ele>1032.5</ele><time>2026-05-03T08:15:17Z</time></trkpt><trkpt lat="42.36169970415076" lon="13.516576164861336"><ele>1034.0</ele><time>2026-05-03T08:15:18Z</time></trkpt><trkpt lat="42.36181778147114" lon="13.51658357166959"><ele>1035.5</ele><time>2026-05-03T08:15:19Z</time></trkpt><trkpt lat="42.36192491616231" lon="13.516582057082625"><ele>1037.0</ele><time>2026-05-03T08:15:20Z</time></trkpt><trkpt lat="42.362036392091966" lon="13.516580423070398"><ele>1037.0</ele><time>2026-05-03T08:15:21Z</time></trkpt><trkpt lat="42.36216075442846" lon="13.516572952137231"><ele>1037.0</ele><time>2026-05-03T08:15:22Z</time></trkpt><trkpt lat="42.36227688974473" lon="13.516568681241496"><ele>1037.0</ele><time>2026-05-03T08:15:23Z</time></trkpt><trkpt lat="42.362387207202836" lon="13.51658081563127"><ele>1037.0</ele><time>2026-05-03T08:15:24Z</time></trkpt><trkpt lat="42.36251369419213" lon="13.516594516943524"><ele>1038.25</ele><time>2026-05-03T08:15:25Z</time></trkpt><trkpt lat="42.362652636843016" lon="13.516618515456544"><ele>1039.5</ele><time>2026-05-03T08:15:26Z</time></trkpt><trkpt lat="42.362776621742256" lon="13.51664411504809"><ele>1040.75</ele><time>2026-05-03T08:15:27Z</time></trkpt><trkpt lat="42.36289525690509" lon="13.51667426845128"><ele>1042.0</ele><time>2026-05-03T08:15:28Z</time></trkpt><trkpt lat="42.362987836760894" lon="13.516724288797565"><ele>1042.0</ele><time>2026-05-03T08:15:29Z</time></trkpt><trkpt lat="42.36307737796003" lon="13.5167727471293"><ele>1042.0</ele><time>2026-05-03T08:15:30Z</time></trkpt><trkpt lat="42.363169956865065" lon="13.516842483977985"><ele>1042.0</ele><time>2026-05-03T08:15:31Z</time></trkpt><trkpt lat="42.36326132928021" lon="13.516925749240196"><ele>1042.0</ele><time>2026-05-03T08:15:32Z</time></trkpt><trkpt lat="42.36337710161685" lon="13.517029521354845"><ele>1045.5</ele><time>2026-05-03T08:15:33Z</time></trkpt><trkpt lat="42.36349447360577" lon="13.517113921160641"><ele>1049.0</ele><time>2026-05-03T08:15:34Z</time></trkpt><trkpt lat="42.363600481387884" lon="13.517176117061103"><ele>1052.5</ele><time>2026-05-03T08:15:35Z</time></trkpt><trkpt lat="42.36370716236507" lon="13.517231332123332"><ele>1056.0</ele><time>2026-05-03T08:15:36Z</time></trkpt><trkpt lat="42.36382280524191" lon="13.51727954688263"><ele>1056.0</ele><time>2026-05-03T08:15:37Z</time></trkpt><trkpt lat="42.363915967720835" lon="13.517306630132435"><ele>1056.0</ele><time>2026-05-03T08:15:38Z</time></trkpt><trkpt lat="42.36400916104385" lon="13.517324525544907"><ele>1056.0</ele><time>2026-05-03T08:15:39Z</time></trkpt><trkpt lat="42.3640888883987" lon="13.517344929744509"><ele>1056.0</ele><time>2026-05-03T08:15:40Z</time></trkpt><trkpt lat="42.36415547013922" lon="13.517360811630576"><ele>1056.0</ele><time>2026-05-03T08:15:41Z</time></trkpt><trkpt lat="42.36428610847308" lon="13.517388065156418"><ele>1056.0</ele><time>2026-05-03T08:15:42Z</time></trkpt><trkpt lat="42.36439090857078" lon="13.51738991078095"><ele>1056.0</ele><time>2026-05-03T08:15:43Z</time></trkpt><trkpt lat="42.36449891368152" lon="13.51740724135244"><ele>1056.0</ele><time>2026-05-03T08:15:44Z</time></trkpt><trkpt lat="42.364594863129135" lon="13.51746007240174"><ele>1056.0</ele><time>2026-05-03T08:15:45Z</time></trkpt><trkpt lat="42.36469683379521" lon="13.517474038705547"><ele>1056.0</ele><time>2026-05-03T08:15:46Z</time></trkpt><trkpt lat="42.3647864595598" lon="13.517511185556708"><ele>1056.8</ele><time>2026-05-03T08:15:47Z</time></trkpt><trkpt lat="42.364873995659266" lon="13.517565884085247"><ele>1057.6</ele><time>2026-05-03T08:15:48Z</time></trkpt><trkpt lat="42.3649685753509" lon="13.517591944594463"><ele>1058.4</ele><time>2026-05-03T08:15:49Z</time></trkpt><trkpt lat="42.36506214218197" lon="13.51762987823008"><ele>1059.2</ele><time>2026-05-03T08:15:50Z</time></trkpt><trkpt lat="42.36515342625189" lon="13.517704829570274"><ele>1060.0</ele><time>2026-05-03T08:15:51Z</time></trkpt><trkpt lat="42.365245779207605" lon="13.517733286409655"><ele>1060.0</ele><time>2026-05-03T08:15:52Z</time></trkpt><trkpt lat="42.36533860502181" lon="13.517800363375706"><ele>1060.0</ele><time>2026-05-03T08:15:53Z</time></trkpt><trkpt lat="42.3654248643397" lon="13.517850860121923"><ele>1060.0</ele><time>2026-05-03T08:15:54Z</time></trkpt><trkpt lat="42.3655110313979" lon="13.517919152120326"><ele>1060.0</ele><time>2026-05-03T08:15:55Z</time></trkpt><trkpt lat="42.36561455930714" lon="13.517968333968327"><ele>1060.0</ele><time>2026-05-03T08:15:56Z</time></trkpt><trkpt lat="42.36570864979737" lon="13.518025882683432"><ele>1061.5</ele><time>2026-05-03T08:15:57Z</time></trkpt><trkpt lat="42.36576509064347" lon="13.518071936016266"><ele>1063.0</ele><time>2026-05-03T08:15:58Z</time></trkpt><trkpt lat="42.36582287567726" lon="13.518172562078766"><ele>1064.5</ele><time>2026-05-03T08:16:00Z</time></trkpt><trkpt lat="42.365747833586866" lon="13.518256615422413"><ele>1066.0</ele><time>2026-05-03T08:16:02Z</time></trkpt><trkpt lat="42.36565660728091" lon="13.518232232440045"><ele>1067.5</ele><time>2026-05-03T08:16:04Z</time></trkpt><trkpt lat="42.36558999407054" lon="13.51818757586058"><ele>1069.0</ele><time>2026-05-03T08:16:05Z</time></trkpt><trkpt lat="42.3654702497739" lon="13.518156613207598"><ele>1070.6000000000001</ele><time>2026-05-03T08:16:06Z</time></trkpt><trkpt lat="42.36535589879079" lon="13.518130853854233"><ele>1072.2</ele><time>2026-05-03T08:16:06.999Z</time></trkpt><trkpt lat="42.365249949466175" lon="13.518126241123197"><ele>1073.8000000000002</ele><time>2026-05-03T08:16:07.999Z</time></trkpt><trkpt lat="42.365137699142025" lon="13.518140447955302"><ele>1075.4</ele><time>2026-05-03T08:16:08.999Z</time></trkpt><trkpt lat="42.36502617897207" lon="13.51813817741471"><ele>1077.0</ele><time>2026-05-03T08:16:09.999Z</time></trkpt><trkpt lat="42.36491269270365" lon="13.518155086493554"><ele>1077.0</ele><time>2026-05-03T08:16:10.999Z</time></trkpt><trkpt lat="42.36481689038187" lon="13.518167412222548"><ele>1077.0</ele><time>2026-05-03T08:16:11.999Z</time></trkpt><trkpt lat="42.364741985725274" lon="13.51817704928646"><ele>1077.0</ele><time>2026-05-03T08:16:12.999Z</time></trkpt><trkpt lat="42.36467515071925" lon="13.518191875435225"><ele>1077.0</ele><time>2026-05-03T08:16:13.999Z</time></trkpt><trkpt lat="42.36462107339993" lon="13.518310085062456"><ele>1077.0</ele><time>2026-05-03T08:16:15.999Z</time></trkpt><trkpt lat="42.36464670241055" lon="13.518455064863721"><ele>1077.0</ele><time>2026-05-03T08:16:18Z</time></trkpt><trkpt lat="42.36472609256894" lon="13.518480612201525"><ele>1077.0</ele><time>2026-05-03T08:16:19Z</time></trkpt><trkpt lat="42.364797576454755" lon="13.51847689609896"><ele>1077.0</ele><time>2026-05-03T08:16:20Z</time></trkpt><trkpt lat="42.36486632187785" lon="13.518450515100628"><ele>1077.0</ele><time>2026-05-03T08:16:21Z</time></trkpt><trkpt lat="42.36494479794142" lon="13.518470474389996"><ele>1077.0</ele><time>2026-05-03T08:16:22Z</time></trkpt><trkpt lat="42.36501504038584" lon="13.518485005134108"><ele>1077.0</ele><time>2026-05-03T08:16:23Z</time></trkpt><trkpt lat="42.36523066710677" lon="13.518601528547038"><ele>1077.0</ele><time>2026-05-03T08:16:25Z</time></trkpt><trkpt lat="42.36530696350443" lon="13.518697842663073"><ele>1077.0</ele><time>2026-05-03T08:16:26Z</time></trkpt><trkpt lat="42.36540392517364" lon="13.518800753247268"><ele>1077.0</ele><time>2026-05-03T08:16:27Z</time></trkpt><trkpt lat="42.36551395015674" lon="13.518891396113116"><ele>1077.0</ele><time>2026-05-03T08:16:28Z</time></trkpt><trkpt lat="42.36561566427919" lon="13.518991992021853"><ele>1078.6</ele><time>2026-05-03T08:16:29Z</time></trkpt><trkpt lat="42.36570435614324" lon="13.519084433985485"><ele>1080.2</ele><time>2026-05-03T08:16:30Z</time></trkpt><trkpt lat="42.36576330237089" lon="13.519189859131325"><ele>1081.8</ele><time>2026-05-03T08:16:31Z</time></trkpt><trkpt lat="42.365804406869145" lon="13.519267261009393"><ele>1083.4</ele><time>2026-05-03T08:16:32Z</time></trkpt><trkpt lat="42.36580061172059" lon="13.51945366155538"><ele>1085.0</ele><time>2026-05-03T08:16:34Z</time></trkpt><trkpt lat="42.365793642930626" lon="13.519568251524623"><ele>1087.2</ele><time>2026-05-03T08:16:35Z</time></trkpt><trkpt lat="42.365795613386176" lon="13.519693375294581"><ele>1089.4</ele><time>2026-05-03T08:16:36Z</time></trkpt><trkpt lat="42.365796054800974" lon="13.519826641709512"><ele>1091.6</ele><time>2026-05-03T08:16:37Z</time></trkpt><trkpt lat="42.365794491961296" lon="13.519965500234584"><ele>1093.8</ele><time>2026-05-03T08:16:38Z</time></trkpt><trkpt lat="42.36579291326281" lon="13.520105767861272"><ele>1096.0</ele><time>2026-05-03T08:16:39Z</time></trkpt><trkpt lat="42.36579272643158" lon="13.520249600542869"><ele>1096.0</ele><time>2026-05-03T08:16:40Z</time></trkpt><trkpt lat="42.36581243482164" lon="13.520383046727487"><ele>1096.0</ele><time>2026-05-03T08:16:41Z</time></trkpt><trkpt lat="42.365827769427106" lon="13.520522817392918"><ele>1096.0</ele><time>2026-05-03T08:16:42Z</time></trkpt><trkpt lat="42.365850337702575" lon="13.520666945101869"><ele>1096.0</ele><time>2026-05-03T08:16:43Z</time></trkpt><trkpt lat="42.3658658459087" lon="13.52082997401828"><ele>1096.0</ele><time>2026-05-03T08:16:44Z</time></trkpt><trkpt lat="42.36586322807781" lon="13.520978268858624"><ele>1096.75</ele><time>2026-05-03T08:16:45Z</time></trkpt><trkpt lat="42.36585474404039" lon="13.521121067250668"><ele>1097.5</ele><time>2026-05-03T08:16:46Z</time></trkpt><trkpt lat="42.36584109305051" lon="13.521266862801713"><ele>1098.25</ele><time>2026-05-03T08:16:47Z</time></trkpt><trkpt lat="42.36582582430606" lon="13.521426196060927"><ele>1099.0</ele><time>2026-05-03T08:16:48Z</time></trkpt><trkpt lat="42.365807010459584" lon="13.521587052406522"><ele>1099.4</ele><time>2026-05-03T08:16:49Z</time></trkpt><trkpt lat="42.365770131842034" lon="13.521732487801604"><ele>1099.8000000000002</ele><time>2026-05-03T08:16:50Z</time></trkpt><trkpt lat="42.365740313723244" lon="13.521871593145574"><ele>1100.1999999999998</ele><time>2026-05-03T08:16:51Z</time></trkpt><trkpt lat="42.365733304027714" lon="13.522003763613661"><ele>1100.6</ele><time>2026-05-03T08:16:52Z</time></trkpt><trkpt lat="42.365747491862855" lon="13.522144486608088"><ele>1101.0</ele><time>2026-05-03T08:16:53Z</time></trkpt><trkpt lat="42.365745940885" lon="13.522284993143389"><ele>1102.1666666666667</ele><time>2026-05-03T08:16:54Z</time></trkpt><trkpt lat="42.365723986360514" lon="13.522383318888998"><ele>1103.3333333333333</ele><time>2026-05-03T08:16:55Z</time></trkpt><trkpt lat="42.365680303073255" lon="13.522448589249867"><ele>1104.5</ele><time>2026-05-03T08:16:56Z</time></trkpt><trkpt lat="42.365614642090804" lon="13.522539155712515"><ele>1105.6666666666665</ele><time>2026-05-03T08:16:57Z</time></trkpt><trkpt lat="42.36555116974329" lon="13.522642119304901"><ele>1106.8333333333333</ele><time>2026-05-03T08:16:58Z</time></trkpt><trkpt lat="42.36548583921996" lon="13.522749692231363"><ele>1108.0</ele><time>2026-05-03T08:16:59Z</time></trkpt><trkpt lat="42.36540570509328" lon="13.522880694147245"><ele>1109.5</ele><time>2026-05-03T08:17:00Z</time></trkpt><trkpt lat="42.36531943739356" lon="13.523015545459097"><ele>1111.0</ele><time>2026-05-03T08:17:01Z</time></trkpt><trkpt lat="42.365226805595505" lon="13.523147749974425"><ele>1112.5</ele><time>2026-05-03T08:17:02Z</time></trkpt><trkpt lat="42.36514843795125" lon="13.523256708622085"><ele>1114.0</ele><time>2026-05-03T08:17:03Z</time></trkpt><trkpt lat="42.36509812233573" lon="13.52336724809713"><ele>1114.0</ele><time>2026-05-03T08:17:04Z</time></trkpt><trkpt lat="42.36501801011701" lon="13.523487008110726"><ele>1114.0</ele><time>2026-05-03T08:17:05Z</time></trkpt><trkpt lat="42.36493568025977" lon="13.523604706122182"><ele>1114.0</ele><time>2026-05-03T08:17:06Z</time></trkpt><trkpt lat="42.364864482516225" lon="13.523706265755697"><ele>1114.0</ele><time>2026-05-03T08:17:07Z</time></trkpt><trkpt lat="42.36480222369214" lon="13.5237932064285"><ele>1114.0</ele><time>2026-05-03T08:17:08Z</time></trkpt><trkpt lat="42.36473829972464" lon="13.523889069228089"><ele>1115.6000000000001</ele><time>2026-05-03T08:17:09Z</time></trkpt><trkpt lat="42.364683920145865" lon="13.524003132819718"><ele>1117.2</ele><time>2026-05-03T08:17:10Z</time></trkpt><trkpt lat="42.364639944830934" lon="13.524121949480957"><ele>1118.8000000000002</ele><time>2026-05-03T08:17:11Z</time></trkpt><trkpt lat="42.36460336493254" lon="13.524248062189901"><ele>1120.4</ele><time>2026-05-03T08:17:12Z</time></trkpt><trkpt lat="42.36457149015419" lon="13.524388182632462"><ele>1122.0</ele><time>2026-05-03T08:17:13Z</time></trkpt><trkpt lat="42.36453021792007" lon="13.524536591392447"><ele>1122.2</ele><time>2026-05-03T08:17:14Z</time></trkpt><trkpt lat="42.36450123994036" lon="13.524676951855435"><ele>1122.4</ele><time>2026-05-03T08:17:15Z</time></trkpt><trkpt lat="42.36447897107841" lon="13.52483559767331"><ele>1122.6</ele><time>2026-05-03T08:17:16Z</time></trkpt><trkpt lat="42.36447290379898" lon="13.524981768694335"><ele>1122.8</ele><time>2026-05-03T08:17:17Z</time></trkpt><trkpt lat="42.364481886833445" lon="13.525116200105268"><ele>1123.0</ele><time>2026-05-03T08:17:18Z</time></trkpt><trkpt lat="42.36451427216591" lon="13.525262897701477"><ele>1123.25</ele><time>2026-05-03T08:17:19Z</time></trkpt><trkpt lat="42.36455629011633" lon="13.525422456074654"><ele>1123.5</ele><time>2026-05-03T08:17:20Z</time></trkpt><trkpt lat="42.364591628325726" lon="13.525594536858799"><ele>1123.75</ele><time>2026-05-03T08:17:21Z</time></trkpt><trkpt lat="42.364594906597986" lon="13.52576595043809"><ele>1124.0</ele><time>2026-05-03T08:17:22Z</time></trkpt><trkpt lat="42.36459109994571" lon="13.525942669511574"><ele>1124.0</ele><time>2026-05-03T08:17:23Z</time></trkpt><trkpt lat="42.3645854283975" lon="13.526116793320039"><ele>1124.0</ele><time>2026-05-03T08:17:24Z</time></trkpt><trkpt lat="42.36457786259622" lon="13.526263912936027"><ele>1124.0</ele><time>2026-05-03T08:17:25Z</time></trkpt><trkpt lat="42.36455257211468" lon="13.526414754807728"><ele>1124.0</ele><time>2026-05-03T08:17:26Z</time></trkpt><trkpt lat="42.36453165228476" lon="13.52656178353453"><ele>1124.4</ele><time>2026-05-03T08:17:27Z</time></trkpt><trkpt lat="42.364527477085765" lon="13.526697458302626"><ele>1124.8000000000002</ele><time>2026-05-03T08:17:28Z</time></trkpt><trkpt lat="42.364533947483935" lon="13.52683541319927"><ele>1125.1999999999998</ele><time>2026-05-03T08:17:29Z</time></trkpt><trkpt lat="42.364550390510104" lon="13.526986566525968"><ele>1125.6</ele><time>2026-05-03T08:17:30Z</time></trkpt><trkpt lat="42.3645658710654" lon="13.52712289624134"><ele>1126.0</ele><time>2026-05-03T08:17:31Z</time></trkpt><trkpt lat="42.364578974182834" lon="13.527257582723236"><ele>1127.2</ele><time>2026-05-03T08:17:32Z</time></trkpt><trkpt lat="42.364600956356455" lon="13.527399373951898"><ele>1128.3999999999999</ele><time>2026-05-03T08:17:33Z</time></trkpt><trkpt lat="42.36462908970688" lon="13.527541155491045"><ele>1129.6</ele><time>2026-05-03T08:17:34Z</time></trkpt><trkpt lat="42.36463574048279" lon="13.527678887180361"><ele>1130.8</ele><time>2026-05-03T08:17:35Z</time></trkpt><trkpt lat="42.364628789072384" lon="13.527813860847736"><ele>1132.0</ele><time>2026-05-03T08:17:36Z</time></trkpt><trkpt lat="42.36461880014402" lon="13.527948465568675"><ele>1133.5</ele><time>2026-05-03T08:17:37Z</time></trkpt><trkpt lat="42.364599392101454" lon="13.528085862809263"><ele>1135.0</ele><time>2026-05-03T08:17:38Z</time></trkpt><trkpt lat="42.364578475700704" lon="13.528245770276639"><ele>1136.5</ele><time>2026-05-03T08:17:39Z</time></trkpt><trkpt lat="42.364544971048126" lon="13.528407483716062"><ele>1138.0</ele><time>2026-05-03T08:17:40Z</time></trkpt><trkpt lat="42.364527164391674" lon="13.528573258877461"><ele>1138.0</ele><time>2026-05-03T08:17:41Z</time></trkpt><trkpt lat="42.36451252553961" lon="13.52871937764091"><ele>1138.0</ele><time>2026-05-03T08:17:42Z</time></trkpt><trkpt lat="42.36452067680231" lon="13.528880164199087"><ele>1138.0</ele><time>2026-05-03T08:17:43Z</time></trkpt><trkpt lat="42.36454130478947" lon="13.529034599096189"><ele>1138.0</ele><time>2026-05-03T08:17:44Z</time></trkpt><trkpt lat="42.36455960270072" lon="13.529173134545573"><ele>1138.0</ele><time>2026-05-03T08:17:45Z</time></trkpt><trkpt lat="42.364560943318324" lon="13.529289780916848"><ele>1139.6666666666665</ele><time>2026-05-03T08:17:46Z</time></trkpt><trkpt lat="42.364553501625046" lon="13.52938099721207"><ele>1141.3333333333333</ele><time>2026-05-03T08:17:47Z</time></trkpt><trkpt lat="42.36463616932389" lon="13.529460940304734"><ele>1143.0</ele><time>2026-05-03T08:17:49Z</time></trkpt><trkpt lat="42.36470312455923" lon="13.529463095587321"><ele>1144.6666666666667</ele><time>2026-05-03T08:17:50Z</time></trkpt><trkpt lat="42.364775900580774" lon="13.529399995415014"><ele>1146.3333333333335</ele><time>2026-05-03T08:17:51Z</time></trkpt><trkpt lat="42.364810537632124" lon="13.529325463239218"><ele>1148.0</ele><time>2026-05-03T08:17:52Z</time></trkpt><trkpt lat="42.36482682163014" lon="13.52921720436477"><ele>1149.6</ele><time>2026-05-03T08:17:53Z</time></trkpt><trkpt lat="42.36484367228853" lon="13.529118617714749"><ele>1151.1999999999998</ele><time>2026-05-03T08:17:54Z</time></trkpt><trkpt lat="42.36494065642517" lon="13.528991417237913"><ele>1152.8</ele><time>2026-05-03T08:17:56Z</time></trkpt><trkpt lat="42.36502173086336" lon="13.528918871397403"><ele>1154.3999999999999</ele><time>2026-05-03T08:17:57Z</time></trkpt><trkpt lat="42.365114545093306" lon="13.5288432855617"><ele>1156.0</ele><time>2026-05-03T08:17:58Z</time></trkpt><trkpt lat="42.365212393497856" lon="13.5287731584761"><ele>1155.1666666666665</ele><time>2026-05-03T08:17:59Z</time></trkpt><trkpt lat="42.36531077707722" lon="13.528712387650362"><ele>1154.3333333333333</ele><time>2026-05-03T08:18:00Z</time></trkpt><trkpt lat="42.365388847336575" lon="13.528656996018649"><ele>1153.5</ele><time>2026-05-03T08:18:01Z</time></trkpt><trkpt lat="42.36544451316529" lon="13.528615284008572"><ele>1152.6666666666667</ele><time>2026-05-03T08:18:02Z</time></trkpt><trkpt lat="42.36551763548356" lon="13.528591130975245"><ele>1151.8333333333335</ele><time>2026-05-03T08:18:03.999Z</time></trkpt><trkpt lat="42.365590220678904" lon="13.528649242830351"><ele>1151.0</ele><time>2026-05-03T08:18:06.999Z</time></trkpt><trkpt lat="42.3655683348825" lon="13.528776153729833"><ele>1152.0</ele><time>2026-05-03T08:18:08.999Z</time></trkpt><trkpt lat="42.36544861299157" lon="13.528847104463349"><ele>1153.0</ele><time>2026-05-03T08:18:10.999Z</time></trkpt><trkpt lat="42.36537005941007" lon="13.528894117023334"><ele>1154.0</ele><time>2026-05-03T08:18:11.999Z</time></trkpt><trkpt lat="42.36528612712553" lon="13.528952842355649"><ele>1155.0</ele><time>2026-05-03T08:18:12.999Z</time></trkpt><trkpt lat="42.365208487241915" lon="13.529026913777063"><ele>1156.0</ele><time>2026-05-03T08:18:13.999Z</time></trkpt><trkpt lat="42.36514865060957" lon="13.529119238930786"><ele>1156.0</ele><time>2026-05-03T08:18:14.999Z</time></trkpt><trkpt lat="42.365100117466945" lon="13.529236944770355"><ele>1156.0</ele><time>2026-05-03T08:18:15.999Z</time></trkpt><trkpt lat="42.36506910317856" lon="13.529367648083166"><ele>1156.0</ele><time>2026-05-03T08:18:16.999Z</time></trkpt><trkpt lat="42.36505994329901" lon="13.529483506889802"><ele>1156.0</ele><time>2026-05-03T08:18:17.999Z</time></trkpt><trkpt lat="42.365061351083476" lon="13.529596649185544"><ele>1156.0</ele><time>2026-05-03T08:18:18.999Z</time></trkpt><trkpt lat="42.36507424695994" lon="13.529714219373007"><ele>1156.8333333333333</ele><time>2026-05-03T08:18:19.999Z</time></trkpt><trkpt lat="42.365108939668744" lon="13.529804553719346"><ele>1157.6666666666665</ele><time>2026-05-03T08:18:20.999Z</time></trkpt><trkpt lat="42.365154988300596" lon="13.529869986893411"><ele>1158.5</ele><time>2026-05-03T08:18:21.999Z</time></trkpt><trkpt lat="42.365210417180606" lon="13.529940647833554"><ele>1159.3333333333333</ele><time>2026-05-03T08:18:22.999Z</time></trkpt><trkpt lat="42.36527595258066" lon="13.530019622835052"><ele>1160.1666666666667</ele><time>2026-05-03T08:18:24Z</time></trkpt><trkpt lat="42.365349228646664" lon="13.530101811822272"><ele>1161.0</ele><time>2026-05-03T08:18:25Z</time></trkpt><trkpt lat="42.36542921008822" lon="13.530180000700296"><ele>1161.0</ele><time>2026-05-03T08:18:26Z</time></trkpt><trkpt lat="42.36550125486017" lon="13.530266506519174"><ele>1161.0</ele><time>2026-05-03T08:18:27Z</time></trkpt><trkpt lat="42.36555078115137" lon="13.530348178781765"><ele>1161.0</ele><time>2026-05-03T08:18:28Z</time></trkpt><trkpt lat="42.3655852287782" lon="13.530430858671117"><ele>1161.0</ele><time>2026-05-03T08:18:29Z</time></trkpt><trkpt lat="42.365609834381424" lon="13.530519150676476"><ele>1161.0</ele><time>2026-05-03T08:18:30Z</time></trkpt><trkpt lat="42.365630297176814" lon="13.530638558143714"><ele>1161.0</ele><time>2026-05-03T08:18:31Z</time></trkpt><trkpt lat="42.36563699337526" lon="13.530780658742493"><ele>1164.0</ele><time>2026-05-03T08:18:32Z</time></trkpt><trkpt lat="42.36564845865307" lon="13.530934894237422"><ele>1167.0</ele><time>2026-05-03T08:18:33Z</time></trkpt><trkpt lat="42.36567983967838" lon="13.531084550608583"><ele>1170.0</ele><time>2026-05-03T08:18:34Z</time></trkpt><trkpt lat="42.36572181468061" lon="13.531220865743197"><ele>1173.0</ele><time>2026-05-03T08:18:35Z</time></trkpt><trkpt lat="42.36577696798588" lon="13.531358398488134"><ele>1174.0</ele><time>2026-05-03T08:18:36Z</time></trkpt><trkpt lat="42.3658450881071" lon="13.531480129549395"><ele>1175.0</ele><time>2026-05-03T08:18:37Z</time></trkpt><trkpt lat="42.36590388435775" lon="13.531600045161873"><ele>1176.0</ele><time>2026-05-03T08:18:38Z</time></trkpt><trkpt lat="42.365940376763376" lon="13.53173220675413"><ele>1177.0</ele><time>2026-05-03T08:18:39Z</time></trkpt><trkpt lat="42.3659814420823" lon="13.531866977557119"><ele>1178.0</ele><time>2026-05-03T08:18:40Z</time></trkpt><trkpt lat="42.366012204414176" lon="13.531984788653348"><ele>1178.2</ele><time>2026-05-03T08:18:41Z</time></trkpt><trkpt lat="42.366029883850395" lon="13.5320989936062"><ele>1178.4</ele><time>2026-05-03T08:18:42Z</time></trkpt><trkpt lat="42.36602300723111" lon="13.53222429180166"><ele>1178.6000000000001</ele><time>2026-05-03T08:18:43Z</time></trkpt><trkpt lat="42.36601071824349" lon="13.53236267702243"><ele>1178.8</ele><time>2026-05-03T08:18:44Z</time></trkpt><trkpt lat="42.36598491334465" lon="13.532485073359693"><ele>1179.0</ele><time>2026-05-03T08:18:45Z</time></trkpt><trkpt lat="42.365926405436376" lon="13.53259928263639"><ele>1179.0</ele><time>2026-05-03T08:18:46Z</time></trkpt><trkpt lat="42.36585058571449" lon="13.532700226979221"><ele>1179.0</ele><time>2026-05-03T08:18:47Z</time></trkpt><trkpt lat="42.36576386789442" lon="13.532814637364622"><ele>1179.0</ele><time>2026-05-03T08:18:48Z</time></trkpt><trkpt lat="42.36566555957692" lon="13.532931123975894"><ele>1179.0</ele><time>2026-05-03T08:18:49Z</time></trkpt><trkpt lat="42.36557064279436" lon="13.533008265897339"><ele>1183.8</ele><time>2026-05-03T08:18:50Z</time></trkpt><trkpt lat="42.365471157642034" lon="13.533058442076912"><ele>1188.6000000000001</ele><time>2026-05-03T08:18:51Z</time></trkpt><trkpt lat="42.36537265192553" lon="13.533116296884817"><ele>1193.4</ele><time>2026-05-03T08:18:52Z</time></trkpt><trkpt lat="42.3652719843761" lon="13.533209593325505"><ele>1198.2</ele><time>2026-05-03T08:18:53Z</time></trkpt><trkpt lat="42.36519572993735" lon="13.533321547794966"><ele>1203.0</ele><time>2026-05-03T08:18:54Z</time></trkpt><trkpt lat="42.36512585200987" lon="13.533467112810907"><ele>1203.0</ele><time>2026-05-03T08:18:55Z</time></trkpt><trkpt lat="42.36506474491438" lon="13.53362866767312"><ele>1203.0</ele><time>2026-05-03T08:18:56Z</time></trkpt><trkpt lat="42.36503116899852" lon="13.53377965568741"><ele>1203.0</ele><time>2026-05-03T08:18:57Z</time></trkpt><trkpt lat="42.36501858545766" lon="13.533956592718836"><ele>1203.0</ele><time>2026-05-03T08:18:58Z</time></trkpt><trkpt lat="42.365011598605996" lon="13.534132180569099"><ele>1204.25</ele><time>2026-05-03T08:18:59Z</time></trkpt><trkpt lat="42.36499875510381" lon="13.53429072203334"><ele>1205.5</ele><time>2026-05-03T08:19:00Z</time></trkpt><trkpt lat="42.36497991973364" lon="13.534476767672816"><ele>1206.75</ele><time>2026-05-03T08:19:01Z</time></trkpt><trkpt lat="42.3649733539996" lon="13.534659487239255"><ele>1208.0</ele><time>2026-05-03T08:19:02Z</time></trkpt><trkpt lat="42.36497460284249" lon="13.534848629674828"><ele>1209.0</ele><time>2026-05-03T08:19:03Z</time></trkpt><trkpt lat="42.36497039940746" lon="13.535003776135486"><ele>1210.0</ele><time>2026-05-03T08:19:04Z</time></trkpt><trkpt lat="42.36495846913267" lon="13.535139633505546"><ele>1211.0</ele><time>2026-05-03T08:19:05Z</time></trkpt><trkpt lat="42.36495059249877" lon="13.535288592327516"><ele>1212.0</ele><time>2026-05-03T08:19:06Z</time></trkpt><trkpt lat="42.364927790331244" lon="13.535422350526439"><ele>1213.0</ele><time>2026-05-03T08:19:07Z</time></trkpt><trkpt lat="42.364893132177194" lon="13.535585137093712"><ele>1213.25</ele><time>2026-05-03T08:19:08Z</time></trkpt><trkpt lat="42.36485085002215" lon="13.535762088680158"><ele>1213.5</ele><time>2026-05-03T08:19:09Z</time></trkpt><trkpt lat="42.36480740881008" lon="13.535933988566073"><ele>1213.75</ele><time>2026-05-03T08:19:10Z</time></trkpt><trkpt lat="42.36476140476999" lon="13.536096406879993"><ele>1214.0</ele><time>2026-05-03T08:19:11Z</time></trkpt><trkpt lat="42.364722086709506" lon="13.536272694729417"><ele>1214.5</ele><time>2026-05-03T08:19:12Z</time></trkpt><trkpt lat="42.36468481399918" lon="13.53645428592356"><ele>1215.0</ele><time>2026-05-03T08:19:13Z</time></trkpt><trkpt lat="42.36464791849039" lon="13.536599898529271"><ele>1215.5</ele><time>2026-05-03T08:19:14Z</time></trkpt><trkpt lat="42.36464352631875" lon="13.53676448647217"><ele>1216.0</ele><time>2026-05-03T08:19:15Z</time></trkpt><trkpt lat="42.36461069763104" lon="13.536910999104904"><ele>1216.75</ele><time>2026-05-03T08:19:16Z</time></trkpt><trkpt lat="42.36455272424613" lon="13.537055611562662"><ele>1217.5</ele><time>2026-05-03T08:19:17Z</time></trkpt><trkpt lat="42.36447157377701" lon="13.537197918575552"><ele>1218.25</ele><time>2026-05-03T08:19:18Z</time></trkpt><trkpt lat="42.364391384327305" lon="13.537349248719831"><ele>1219.0</ele><time>2026-05-03T08:19:19Z</time></trkpt><trkpt lat="42.36430249831089" lon="13.53751144152734"><ele>1219.0</ele><time>2026-05-03T08:19:20Z</time></trkpt><trkpt lat="42.364212341555195" lon="13.537657616374457"><ele>1219.0</ele><time>2026-05-03T08:19:21Z</time></trkpt><trkpt lat="42.364136900019666" lon="13.537790643929892"><ele>1219.0</ele><time>2026-05-03T08:19:22Z</time></trkpt><trkpt lat="42.3640662863096" lon="13.537944433691854"><ele>1219.0</ele><time>2026-05-03T08:19:23Z</time></trkpt><trkpt lat="42.363989328928916" lon="13.538108340052739"><ele>1220.25</ele><time>2026-05-03T08:19:24Z</time></trkpt><trkpt lat="42.36390951932832" lon="13.538241613406694"><ele>1221.5</ele><time>2026-05-03T08:19:25Z</time></trkpt><trkpt lat="42.36381185367387" lon="13.538356237875082"><ele>1222.75</ele><time>2026-05-03T08:19:26Z</time></trkpt><trkpt lat="42.36369489034958" lon="13.538481452569691"><ele>1224.0</ele><time>2026-05-03T08:19:27Z</time></trkpt><trkpt lat="42.36357351802581" lon="13.538629679686217"><ele>1225.3333333333333</ele><time>2026-05-03T08:19:28Z</time></trkpt><trkpt lat="42.3634567052734" lon="13.538779622604272"><ele>1226.6666666666665</ele><time>2026-05-03T08:19:29Z</time></trkpt><trkpt lat="42.36334833735268" lon="13.538911641104866"><ele>1228.0</ele><time>2026-05-03T08:19:30Z</time></trkpt><trkpt lat="42.363245402216535" lon="13.539047663513779"><ele>1228.0</ele><time>2026-05-03T08:19:31Z</time></trkpt><trkpt lat="42.36314107459973" lon="13.539195064573237"><ele>1228.0</ele><time>2026-05-03T08:19:32Z</time></trkpt><trkpt lat="42.36304962324967" lon="13.539333381284015"><ele>1228.0</ele><time>2026-05-03T08:19:33Z</time></trkpt><trkpt lat="42.362960571321906" lon="13.539469084671804"><ele>1228.0</ele><time>2026-05-03T08:19:34Z</time></trkpt><trkpt lat="42.36286824987991" lon="13.539629233783446"><ele>1227.5</ele><time>2026-05-03T08:19:35Z</time></trkpt><trkpt lat="42.362757603165505" lon="13.539769093310603"><ele>1227.0</ele><time>2026-05-03T08:19:36Z</time></trkpt><trkpt lat="42.36266012166101" lon="13.539904020821725"><ele>1226.5</ele><time>2026-05-03T08:19:37Z</time></trkpt><trkpt lat="42.36257028902236" lon="13.540045981698103"><ele>1226.0</ele><time>2026-05-03T08:19:38Z</time></trkpt><trkpt lat="42.362497306379886" lon="13.540218977921276"><ele>1227.3333333333335</ele><time>2026-05-03T08:19:39Z</time></trkpt><trkpt lat="42.36243376769708" lon="13.540412083190192"><ele>1228.6666666666667</ele><time>2026-05-03T08:19:40Z</time></trkpt><trkpt lat="42.36237892780249" lon="13.540612971762293"><ele>1230.0</ele><time>2026-05-03T08:19:41Z</time></trkpt><trkpt lat="42.36232332958184" lon="13.540818025945498"><ele>1230.0</ele><time>2026-05-03T08:19:42Z</time></trkpt><trkpt lat="42.36226938734542" lon="13.541023012716744"><ele>1230.0</ele><time>2026-05-03T08:19:43Z</time></trkpt><trkpt lat="42.362212827447955" lon="13.541224901444757"><ele>1230.0</ele><time>2026-05-03T08:19:44Z</time></trkpt><trkpt lat="42.36215353161732" lon="13.541413698354638"><ele>1230.0</ele><time>2026-05-03T08:19:45Z</time></trkpt><trkpt lat="42.36209591138823" lon="13.54161904370373"><ele>1230.0</ele><time>2026-05-03T08:19:46Z</time></trkpt><trkpt lat="42.36204021902703" lon="13.541816757457086"><ele>1230.0</ele><time>2026-05-03T08:19:47Z</time></trkpt><trkpt lat="42.36198891393758" lon="13.541997267446781"><ele>1230.0</ele><time>2026-05-03T08:19:48Z</time></trkpt><trkpt lat="42.36193430675228" lon="13.542199450828036"><ele>1230.0</ele><time>2026-05-03T08:19:49Z</time></trkpt><trkpt lat="42.36187602971505" lon="13.542402256389993"><ele>1230.0</ele><time>2026-05-03T08:19:50Z</time></trkpt><trkpt lat="42.36182914146919" lon="13.542583988714913"><ele>1230.0</ele><time>2026-05-03T08:19:51Z</time></trkpt><trkpt lat="42.361788116510624" lon="13.542753883578257"><ele>1230.0</ele><time>2026-05-03T08:19:52Z</time></trkpt><trkpt lat="42.361770213052615" lon="13.542921548358395"><ele>1230.0</ele><time>2026-05-03T08:19:53Z</time></trkpt><trkpt lat="42.36177214701116" lon="13.54311158883835"><ele>1230.0</ele><time>2026-05-03T08:19:54Z</time></trkpt><trkpt lat="42.3617720558534" lon="13.543315966532326"><ele>1230.0</ele><time>2026-05-03T08:19:55Z</time></trkpt><trkpt lat="42.36176119361971" lon="13.543512496216525"><ele>1230.0</ele><time>2026-05-03T08:19:56Z</time></trkpt><trkpt lat="42.36173552887223" lon="13.543695037452588"><ele>1230.0</ele><time>2026-05-03T08:19:57Z</time></trkpt><trkpt lat="42.361692127829805" lon="13.543868969868809"><ele>1230.0</ele><time>2026-05-03T08:19:58Z</time></trkpt><trkpt lat="42.36163578025639" lon="13.54401375661179"><ele>1230.75</ele><time>2026-05-03T08:19:59Z</time></trkpt><trkpt lat="42.36160160530978" lon="13.544161349921755"><ele>1231.5</ele><time>2026-05-03T08:20:00Z</time></trkpt><trkpt lat="42.361583625877465" lon="13.544311017190841"><ele>1232.25</ele><time>2026-05-03T08:20:01Z</time></trkpt><trkpt lat="42.361566675436904" lon="13.544467653720139"><ele>1233.0</ele><time>2026-05-03T08:20:02Z</time></trkpt><trkpt lat="42.36154580307848" lon="13.544618549870199"><ele>1233.5</ele><time>2026-05-03T08:20:03Z</time></trkpt><trkpt lat="42.3615254650018" lon="13.544743713447255"><ele>1234.0</ele><time>2026-05-03T08:20:04Z</time></trkpt><trkpt lat="42.36151292327062" lon="13.544858689671507"><ele>1234.5</ele><time>2026-05-03T08:20:05Z</time></trkpt><trkpt lat="42.36151733431866" lon="13.544970048495285"><ele>1235.0</ele><time>2026-05-03T08:20:06Z</time></trkpt><trkpt lat="42.361529512783086" lon="13.545076623718721"><ele>1235.5</ele><time>2026-05-03T08:20:07Z</time></trkpt><trkpt lat="42.3615400148865" lon="13.545173324492461"><ele>1236.0</ele><time>2026-05-03T08:20:08Z</time></trkpt><trkpt lat="42.361551369127774" lon="13.545275800247655"><ele>1235.8333333333333</ele><time>2026-05-03T08:20:09Z</time></trkpt><trkpt lat="42.361549867870536" lon="13.545393353944334"><ele>1235.6666666666667</ele><time>2026-05-03T08:20:10Z</time></trkpt><trkpt lat="42.361541795371515" lon="13.54550505378878"><ele>1235.5</ele><time>2026-05-03T08:20:11Z</time></trkpt><trkpt lat="42.36153363887723" lon="13.545606177137403"><ele>1235.3333333333335</ele><time>2026-05-03T08:20:12Z</time></trkpt><trkpt lat="42.36151550423409" lon="13.545709339480338"><ele>1235.1666666666667</ele><time>2026-05-03T08:20:13Z</time></trkpt><trkpt lat="42.36150068918581" lon="13.545823299704377"><ele>1235.0</ele><time>2026-05-03T08:20:14Z</time></trkpt><trkpt lat="42.36149971529153" lon="13.5459447679302"><ele>1235.0</ele><time>2026-05-03T08:20:15Z</time></trkpt><trkpt lat="42.36152789338953" lon="13.54604943951961"><ele>1235.0</ele><time>2026-05-03T08:20:16Z</time></trkpt><trkpt lat="42.361558949709185" lon="13.546147685707554"><ele>1235.0</ele><time>2026-05-03T08:20:17Z</time></trkpt><trkpt lat="42.36158002414957" lon="13.546240757241764"><ele>1235.0</ele><time>2026-05-03T08:20:18Z</time></trkpt><trkpt lat="42.36158406922635" lon="13.5463348943612"><ele>1235.0</ele><time>2026-05-03T08:20:19Z</time></trkpt><trkpt lat="42.36157271034257" lon="13.546432869623159"><ele>1235.0</ele><time>2026-05-03T08:20:20Z</time></trkpt><trkpt lat="42.36154813910263" lon="13.546537143904969"><ele>1234.8333333333335</ele><time>2026-05-03T08:20:21Z</time></trkpt><trkpt lat="42.36152292443335" lon="13.546636771478406"><ele>1234.6666666666667</ele><time>2026-05-03T08:20:22Z</time></trkpt><trkpt lat="42.36149122002646" lon="13.546726531474471"><ele>1234.5</ele><time>2026-05-03T08:20:23Z</time></trkpt><trkpt lat="42.36144160655748" lon="13.546803836889326"><ele>1234.3333333333333</ele><time>2026-05-03T08:20:24Z</time></trkpt><trkpt lat="42.361382731944744" lon="13.546890163895979"><ele>1234.1666666666665</ele><time>2026-05-03T08:20:25Z</time></trkpt><trkpt lat="42.361328827500934" lon="13.546971748889518"><ele>1234.0</ele><time>2026-05-03T08:20:26Z</time></trkpt><trkpt lat="42.36129444110801" lon="13.547058508539378"><ele>1232.5</ele><time>2026-05-03T08:20:27Z</time></trkpt><trkpt lat="42.36126899732229" lon="13.547150142273058"><ele>1231.0</ele><time>2026-05-03T08:20:28Z</time></trkpt><trkpt lat="42.36124201124801" lon="13.547245508016577"><ele>1229.5</ele><time>2026-05-03T08:20:29Z</time></trkpt><trkpt lat="42.36121897995932" lon="13.547350545826813"><ele>1228.0</ele><time>2026-05-03T08:20:30Z</time></trkpt><trkpt lat="42.36117234498881" lon="13.54745397644534"><ele>1226.5</ele><time>2026-05-03T08:20:31Z</time></trkpt><trkpt lat="42.361123071745304" lon="13.547547910085578"><ele>1225.0</ele><time>2026-05-03T08:20:32Z</time></trkpt><trkpt lat="42.361072948865306" lon="13.547637125210931"><ele>1225.0</ele><time>2026-05-03T08:20:33Z</time></trkpt><trkpt lat="42.36102800205022" lon="13.547754456852415"><ele>1225.0</ele><time>2026-05-03T08:20:34Z</time></trkpt><trkpt lat="42.36098837019008" lon="13.547858235113175"><ele>1225.0</ele><time>2026-05-03T08:20:35Z</time></trkpt><trkpt lat="42.360946232617195" lon="13.54794861811225"><ele>1225.0</ele><time>2026-05-03T08:20:36Z</time></trkpt><trkpt lat="42.360896838435295" lon="13.548005036505497"><ele>1225.0</ele><time>2026-05-03T08:20:37Z</time></trkpt><trkpt lat="42.3608402659421" lon="13.548060454964434"><ele>1225.0</ele><time>2026-05-03T08:20:38Z</time></trkpt><trkpt lat="42.36079082109618" lon="13.548116910822197"><ele>1225.0</ele><time>2026-05-03T08:20:39Z</time></trkpt><trkpt lat="42.3607508453248" lon="13.54818988772846"><ele>1225.0</ele><time>2026-05-03T08:20:40Z</time></trkpt><trkpt lat="42.36071107540202" lon="13.54827377801348"><ele>1225.0</ele><time>2026-05-03T08:20:41Z</time></trkpt><trkpt lat="42.360669240772324" lon="13.548391644932577"><ele>1225.0</ele><time>2026-05-03T08:20:42Z</time></trkpt><trkpt lat="42.36062868274391" lon="13.548527047681697"><ele>1225.0</ele><time>2026-05-03T08:20:43Z</time></trkpt><trkpt lat="42.360592989408474" lon="13.548674191243775"><ele>1224.0</ele><time>2026-05-03T08:20:44Z</time></trkpt><trkpt lat="42.36056584660383" lon="13.54882392692399"><ele>1223.0</ele><time>2026-05-03T08:20:45Z</time></trkpt><trkpt lat="42.36054955139036" lon="13.548961824409536"><ele>1222.0</ele><time>2026-05-03T08:20:46Z</time></trkpt><trkpt lat="42.36053054210488" lon="13.549114876382234"><ele>1221.0</ele><time>2026-05-03T08:20:47Z</time></trkpt><trkpt lat="42.360510089547546" lon="13.549271513041013"><ele>1220.0</ele><time>2026-05-03T08:20:48Z</time></trkpt><trkpt lat="42.3604817435937" lon="13.54941580302225"><ele>1219.0</ele><time>2026-05-03T08:20:49Z</time></trkpt><trkpt lat="42.360443832438186" lon="13.549549657914573"><ele>1218.0</ele><time>2026-05-03T08:20:50Z</time></trkpt><trkpt lat="42.36040393718794" lon="13.549678751495378"><ele>1217.0</ele><time>2026-05-03T08:20:51Z</time></trkpt><trkpt lat="42.36037657744593" lon="13.549831458639193"><ele>1216.0</ele><time>2026-05-03T08:20:52Z</time></trkpt><trkpt lat="42.36035592074842" lon="13.549996801648302"><ele>1215.0</ele><time>2026-05-03T08:20:53Z</time></trkpt><trkpt lat="42.3603268557321" lon="13.550172893664628"><ele>1215.0</ele><time>2026-05-03T08:20:54Z</time></trkpt><trkpt lat="42.36029802477075" lon="13.550335111302685"><ele>1215.0</ele><time>2026-05-03T08:20:55Z</time></trkpt><trkpt lat="42.36027081270327" lon="13.550493353687433"><ele>1215.0</ele><time>2026-05-03T08:20:56Z</time></trkpt><trkpt lat="42.36023708689389" lon="13.550672432248263"><ele>1215.0</ele><time>2026-05-03T08:20:57Z</time></trkpt><trkpt lat="42.360198943419064" lon="13.55086315282367"><ele>1214.5</ele><time>2026-05-03T08:20:58Z</time></trkpt><trkpt lat="42.36015524553816" lon="13.551048690527761"><ele>1214.0</ele><time>2026-05-03T08:20:59Z</time></trkpt><trkpt lat="42.360113125535996" lon="13.551223826172267"><ele>1213.5</ele><time>2026-05-03T08:21:00Z</time></trkpt><trkpt lat="42.36007576207353" lon="13.551397066262503"><ele>1213.0</ele><time>2026-05-03T08:21:01Z</time></trkpt><trkpt lat="42.3600435462821" lon="13.5515639040692"><ele>1212.75</ele><time>2026-05-03T08:21:02Z</time></trkpt><trkpt lat="42.36001152683154" lon="13.551718075300723"><ele>1212.5</ele><time>2026-05-03T08:21:03Z</time></trkpt><trkpt lat="42.359961731233334" lon="13.551886763041423"><ele>1212.25</ele><time>2026-05-03T08:21:04Z</time></trkpt><trkpt lat="42.35991159611088" lon="13.552016631311751"><ele>1212.0</ele><time>2026-05-03T08:21:05Z</time></trkpt><trkpt lat="42.35986210043457" lon="13.552176835582443"><ele>1211.75</ele><time>2026-05-03T08:21:06Z</time></trkpt><trkpt lat="42.35980546507425" lon="13.552328877237088"><ele>1211.5</ele><time>2026-05-03T08:21:07Z</time></trkpt><trkpt lat="42.35973841755006" lon="13.552453971327393"><ele>1211.25</ele><time>2026-05-03T08:21:08Z</time></trkpt><trkpt lat="42.35966403362559" lon="13.552591956984832"><ele>1211.0</ele><time>2026-05-03T08:21:09Z</time></trkpt><trkpt lat="42.35958181386294" lon="13.55273734114258"><ele>1211.0</ele><time>2026-05-03T08:21:10Z</time></trkpt><trkpt lat="42.35951429366036" lon="13.552890567388912"><ele>1211.0</ele><time>2026-05-03T08:21:11Z</time></trkpt><trkpt lat="42.35944895698225" lon="13.55302781748164"><ele>1211.0</ele><time>2026-05-03T08:21:12Z</time></trkpt><trkpt lat="42.35938381362086" lon="13.553187594650337"><ele>1211.0</ele><time>2026-05-03T08:21:13Z</time></trkpt><trkpt lat="42.35932478143938" lon="13.553355366923286"><ele>1211.0</ele><time>2026-05-03T08:21:14Z</time></trkpt><trkpt lat="42.359280487747654" lon="13.553522540406018"><ele>1211.0</ele><time>2026-05-03T08:21:15Z</time></trkpt><trkpt lat="42.35923950487773" lon="13.553685314345918"><ele>1211.0</ele><time>2026-05-03T08:21:16Z</time></trkpt><trkpt lat="42.35920156759652" lon="13.553825548452188"><ele>1211.0</ele><time>2026-05-03T08:21:17Z</time></trkpt><trkpt lat="42.35914967681604" lon="13.553959845063003"><ele>1211.25</ele><time>2026-05-03T08:21:18Z</time></trkpt><trkpt lat="42.35908641116956" lon="13.55410656480025"><ele>1211.5</ele><time>2026-05-03T08:21:19Z</time></trkpt><trkpt lat="42.35901574138238" lon="13.55426169241879"><ele>1211.75</ele><time>2026-05-03T08:21:20Z</time></trkpt><trkpt lat="42.358957779920985" lon="13.554391248390836"><ele>1212.0</ele><time>2026-05-03T08:21:21Z</time></trkpt><trkpt lat="42.35890457352455" lon="13.554517159928615"><ele>1214.5</ele><time>2026-05-03T08:21:22Z</time></trkpt><trkpt lat="42.35885357120551" lon="13.554648241008733"><ele>1217.0</ele><time>2026-05-03T08:21:23Z</time></trkpt><trkpt lat="42.35880739686217" lon="13.55477756687333"><ele>1219.5</ele><time>2026-05-03T08:21:24Z</time></trkpt><trkpt lat="42.35874868723078" lon="13.554923096480833"><ele>1222.0</ele><time>2026-05-03T08:21:25Z</time></trkpt><trkpt lat="42.358696069765195" lon="13.555071327678602"><ele>1222.0</ele><time>2026-05-03T08:21:26Z</time></trkpt><trkpt lat="42.35865761976166" lon="13.555203059186756"><ele>1222.0</ele><time>2026-05-03T08:21:27Z</time></trkpt><trkpt lat="42.358619836935375" lon="13.55533472361797"><ele>1222.0</ele><time>2026-05-03T08:21:28Z</time></trkpt><trkpt lat="42.3585703645216" lon="13.555486425868727"><ele>1222.0</ele><time>2026-05-03T08:21:29Z</time></trkpt><trkpt lat="42.35853170004968" lon="13.555611506230642"><ele>1222.0</ele><time>2026-05-03T08:21:30Z</time></trkpt><trkpt lat="42.35849882273334" lon="13.555724572379022"><ele>1221.0</ele><time>2026-05-03T08:21:31Z</time></trkpt><trkpt lat="42.35846796245849" lon="13.555833786640346"><ele>1220.0</ele><time>2026-05-03T08:21:32Z</time></trkpt><trkpt lat="42.35844443198984" lon="13.555952385122136"><ele>1219.0</ele><time>2026-05-03T08:21:33Z</time></trkpt><trkpt lat="42.35842822440693" lon="13.556075434356513"><ele>1218.0</ele><time>2026-05-03T08:21:34Z</time></trkpt><trkpt lat="42.35842935371498" lon="13.5562085678616"><ele>1217.0</ele><time>2026-05-03T08:21:35Z</time></trkpt><trkpt lat="42.358437142272905" lon="13.556343814793557"><ele>1215.8</ele><time>2026-05-03T08:21:36Z</time></trkpt><trkpt lat="42.35845054684251" lon="13.556483479404946"><ele>1214.6</ele><time>2026-05-03T08:21:37Z</time></trkpt><trkpt lat="42.35846843546553" lon="13.556624305677298"><ele>1213.3999999999999</ele><time>2026-05-03T08:21:38Z</time></trkpt><trkpt lat="42.35848204194714" lon="13.55675193569442"><ele>1212.2</ele><time>2026-05-03T08:21:39Z</time></trkpt><trkpt lat="42.35848684774271" lon="13.556852296468724"><ele>1211.0</ele><time>2026-05-03T08:21:40Z</time></trkpt><trkpt lat="42.35849974900364" lon="13.556973227323764"><ele>1211.0</ele><time>2026-05-03T08:21:41Z</time></trkpt><trkpt lat="42.3585262286059" lon="13.557087139330921"><ele>1211.0</ele><time>2026-05-03T08:21:42Z</time></trkpt><trkpt lat="42.358574867717586" lon="13.557166025151446"><ele>1211.0</ele><time>2026-05-03T08:21:43Z</time></trkpt><trkpt lat="42.35863169105389" lon="13.557275509700403"><ele>1211.0</ele><time>2026-05-03T08:21:44Z</time></trkpt><trkpt lat="42.35869366238388" lon="13.557382466144274"><ele>1211.0</ele><time>2026-05-03T08:21:45Z</time></trkpt><trkpt lat="42.358744363068254" lon="13.557505382664568"><ele>1211.0</ele><time>2026-05-03T08:21:46Z</time></trkpt><trkpt lat="42.35878111430684" lon="13.557614643924055"><ele>1211.0</ele><time>2026-05-03T08:21:47Z</time></trkpt><trkpt lat="42.35880623968391" lon="13.557734162611434"><ele>1211.0</ele><time>2026-05-03T08:21:48Z</time></trkpt><trkpt lat="42.358813316961005" lon="13.557860451516976"><ele>1211.0</ele><time>2026-05-03T08:21:49Z</time></trkpt><trkpt lat="42.35881088738579" lon="13.557994066473007"><ele>1211.0</ele><time>2026-05-03T08:21:50Z</time></trkpt><trkpt lat="42.35880562527215" lon="13.558133099991435"><ele>1210.8</ele><time>2026-05-03T08:21:51Z</time></trkpt><trkpt lat="42.358808511279975" lon="13.558260905479905"><ele>1210.6</ele><time>2026-05-03T08:21:52Z</time></trkpt><trkpt lat="42.358836217553296" lon="13.558404084477978"><ele>1210.4</ele><time>2026-05-03T08:21:53Z</time></trkpt><trkpt lat="42.358872179627795" lon="13.558551869062534"><ele>1210.2</ele><time>2026-05-03T08:21:54Z</time></trkpt><trkpt lat="42.35891045410041" lon="13.558712285069733"><ele>1210.0</ele><time>2026-05-03T08:21:55Z</time></trkpt><trkpt lat="42.35894340546053" lon="13.55886064113459"><ele>1208.4</ele><time>2026-05-03T08:21:56Z</time></trkpt><trkpt lat="42.358967552222666" lon="13.558989875019803"><ele>1206.8</ele><time>2026-05-03T08:21:57Z</time></trkpt><trkpt lat="42.35899377898345" lon="13.559114410275543"><ele>1205.2</ele><time>2026-05-03T08:21:58Z</time></trkpt><trkpt lat="42.359019429533106" lon="13.559233252650344"><ele>1203.6</ele><time>2026-05-03T08:21:59Z</time></trkpt><trkpt lat="42.35902992551303" lon="13.55937130017828"><ele>1202.0</ele><time>2026-05-03T08:22:00Z</time></trkpt><trkpt lat="42.35902586225867" lon="13.559512460480459"><ele>1202.0</ele><time>2026-05-03T08:22:01Z</time></trkpt><trkpt lat="42.358998937511366" lon="13.559674277967767"><ele>1202.0</ele><time>2026-05-03T08:22:02Z</time></trkpt><trkpt lat="42.35897158559899" lon="13.559815523393329"><ele>1202.0</ele><time>2026-05-03T08:22:03Z</time></trkpt><trkpt lat="42.35895324416468" lon="13.559967824055862"><ele>1202.0</ele><time>2026-05-03T08:22:04Z</time></trkpt><trkpt lat="42.358937782964254" lon="13.560114651225545"><ele>1202.0</ele><time>2026-05-03T08:22:05Z</time></trkpt><trkpt lat="42.358927873293624" lon="13.560269888500342"><ele>1202.0</ele><time>2026-05-03T08:22:06Z</time></trkpt><trkpt lat="42.35891944321284" lon="13.560419951695437"><ele>1202.0</ele><time>2026-05-03T08:22:07Z</time></trkpt><trkpt lat="42.35891173481608" lon="13.560556742444593"><ele>1202.0</ele><time>2026-05-03T08:22:08Z</time></trkpt><trkpt lat="42.35891263603305" lon="13.560704664373365"><ele>1202.0</ele><time>2026-05-03T08:22:09Z</time></trkpt><trkpt lat="42.35891325218871" lon="13.560872904141425"><ele>1201.8</ele><time>2026-05-03T08:22:10Z</time></trkpt><trkpt lat="42.35891170499583" lon="13.561028898499051"><ele>1201.6</ele><time>2026-05-03T08:22:11Z</time></trkpt><trkpt lat="42.358913866419726" lon="13.561167488134876"><ele>1201.3999999999999</ele><time>2026-05-03T08:22:12Z</time></trkpt><trkpt lat="42.358909105902" lon="13.561296509029829"><ele>1201.2</ele><time>2026-05-03T08:22:13Z</time></trkpt><trkpt lat="42.35890833560494" lon="13.561431702734039"><ele>1201.0</ele><time>2026-05-03T08:22:14Z</time></trkpt><trkpt lat="42.35890392623666" lon="13.561571705896531"><ele>1200.3999999999999</ele><time>2026-05-03T08:22:15Z</time></trkpt><trkpt lat="42.35889649397602" lon="13.561691899691494"><ele>1199.8</ele><time>2026-05-03T08:22:16Z</time></trkpt><trkpt lat="42.358889753754205" lon="13.56182116941845"><ele>1199.1999999999998</ele><time>2026-05-03T08:22:17Z</time></trkpt><trkpt lat="42.35888740564822" lon="13.56197641648218"><ele>1198.6</ele><time>2026-05-03T08:22:18Z</time></trkpt><trkpt lat="42.35888473344398" lon="13.562107305147245"><ele>1198.0</ele><time>2026-05-03T08:22:19Z</time></trkpt><trkpt lat="42.35888197456915" lon="13.56224266375616"><ele>1198.0</ele><time>2026-05-03T08:22:20Z</time></trkpt><trkpt lat="42.35887824864135" lon="13.562394761014836"><ele>1198.0</ele><time>2026-05-03T08:22:21Z</time></trkpt><trkpt lat="42.358870836101644" lon="13.562525183912912"><ele>1198.0</ele><time>2026-05-03T08:22:22Z</time></trkpt><trkpt lat="42.35887493054176" lon="13.562663227372317"><ele>1198.0</ele><time>2026-05-03T08:22:23Z</time></trkpt><trkpt lat="42.358880305939664" lon="13.562788416555179"><ele>1198.0</ele><time>2026-05-03T08:22:24Z</time></trkpt><trkpt lat="42.35888992298988" lon="13.56294034911931"><ele>1196.4</ele><time>2026-05-03T08:22:25Z</time></trkpt><trkpt lat="42.3589114214349" lon="13.563090066699996"><ele>1194.8</ele><time>2026-05-03T08:22:26Z</time></trkpt><trkpt lat="42.35893797160488" lon="13.56323983637373"><ele>1193.2</ele><time>2026-05-03T08:22:27Z</time></trkpt><trkpt lat="42.35896849276855" lon="13.563382969113666"><ele>1191.6</ele><time>2026-05-03T08:22:28Z</time></trkpt><trkpt lat="42.358991003283485" lon="13.563513092746723"><ele>1190.0</ele><time>2026-05-03T08:22:29Z</time></trkpt><trkpt lat="42.35900429867634" lon="13.563650815964793"><ele>1189.2</ele><time>2026-05-03T08:22:30Z</time></trkpt><trkpt lat="42.359006265558875" lon="13.563786447056705"><ele>1188.4</ele><time>2026-05-03T08:22:31Z</time></trkpt><trkpt lat="42.35898895860101" lon="13.56391338979517"><ele>1187.6</ele><time>2026-05-03T08:22:32Z</time></trkpt><trkpt lat="42.35897571211848" lon="13.564032420670467"><ele>1186.8</ele><time>2026-05-03T08:22:33Z</time></trkpt><trkpt lat="42.35897402872023" lon="13.564161843717384"><ele>1186.0</ele><time>2026-05-03T08:22:34Z</time></trkpt><trkpt lat="42.35898821637291" lon="13.564293765527207"><ele>1186.0</ele><time>2026-05-03T08:22:35Z</time></trkpt><trkpt lat="42.35900551566081" lon="13.564416828307694"><ele>1186.0</ele><time>2026-05-03T08:22:36Z</time></trkpt><trkpt lat="42.359016019365555" lon="13.564527428689845"><ele>1186.0</ele><time>2026-05-03T08:22:37Z</time></trkpt><trkpt lat="42.359003562516754" lon="13.564635217719411"><ele>1186.0</ele><time>2026-05-03T08:22:38Z</time></trkpt><trkpt lat="42.35897781684263" lon="13.56473642032139"><ele>1186.0</ele><time>2026-05-03T08:22:39Z</time></trkpt><trkpt lat="42.358944564948295" lon="13.564861508688182"><ele>1186.0</ele><time>2026-05-03T08:22:40Z</time></trkpt><trkpt lat="42.35890848891042" lon="13.564977480987828"><ele>1187.0</ele><time>2026-05-03T08:22:41Z</time></trkpt><trkpt lat="42.35888177360988" lon="13.565092242862804"><ele>1188.0</ele><time>2026-05-03T08:22:42Z</time></trkpt><trkpt lat="42.35886805927943" lon="13.565199788440275"><ele>1189.0</ele><time>2026-05-03T08:22:43Z</time></trkpt><trkpt lat="42.3588513715824" lon="13.565308897074198"><ele>1190.0</ele><time>2026-05-03T08:22:44Z</time></trkpt><trkpt lat="42.35883306753715" lon="13.565447801661003"><ele>1191.0</ele><time>2026-05-03T08:22:45Z</time></trkpt><trkpt lat="42.358821119254294" lon="13.565606038838157"><ele>1191.0</ele><time>2026-05-03T08:22:46Z</time></trkpt><trkpt lat="42.35881308782832" lon="13.565755244763249"><ele>1191.0</ele><time>2026-05-03T08:22:47Z</time></trkpt><trkpt lat="42.358803972500446" lon="13.565887239381587"><ele>1191.0</ele><time>2026-05-03T08:22:48Z</time></trkpt><trkpt lat="42.35879828618181" lon="13.566045937280668"><ele>1191.0</ele><time>2026-05-03T08:22:49Z</time></trkpt><trkpt lat="42.358798766383" lon="13.56620875644349"><ele>1191.0</ele><time>2026-05-03T08:22:50Z</time></trkpt><trkpt lat="42.35880379519454" lon="13.566356469426301"><ele>1191.0</ele><time>2026-05-03T08:22:51Z</time></trkpt><trkpt lat="42.358811172038315" lon="13.566502764151886"><ele>1191.0</ele><time>2026-05-03T08:22:52Z</time></trkpt><trkpt lat="42.35881818522361" lon="13.56663877923995"><ele>1191.0</ele><time>2026-05-03T08:22:53Z</time></trkpt><trkpt lat="42.35881895829441" lon="13.566780823429184"><ele>1191.0</ele><time>2026-05-03T08:22:54Z</time></trkpt><trkpt lat="42.35882486717849" lon="13.566914126276457"><ele>1191.0</ele><time>2026-05-03T08:22:55Z</time></trkpt><trkpt lat="42.358838769034755" lon="13.567040644816919"><ele>1191.3999999999999</ele><time>2026-05-03T08:22:56Z</time></trkpt><trkpt lat="42.358834113044615" lon="13.567157171268802"><ele>1191.8</ele><time>2026-05-03T08:22:57Z</time></trkpt><trkpt lat="42.35882082165499" lon="13.567276823054966"><ele>1192.1999999999998</ele><time>2026-05-03T08:22:58Z</time></trkpt><trkpt lat="42.35881056004649" lon="13.56743403109848"><ele>1192.6</ele><time>2026-05-03T08:22:59Z</time></trkpt><trkpt lat="42.3588058124944" lon="13.56761846833039"><ele>1193.0</ele><time>2026-05-03T08:23:00Z</time></trkpt><trkpt lat="42.35879947867172" lon="13.567813731811476"><ele>1192.5</ele><time>2026-05-03T08:23:01Z</time></trkpt><trkpt lat="42.35878706571308" lon="13.567994725858478"><ele>1192.0</ele><time>2026-05-03T08:23:02Z</time></trkpt><trkpt lat="42.35876736765496" lon="13.568160852835026"><ele>1191.5</ele><time>2026-05-03T08:23:03Z</time></trkpt><trkpt lat="42.35874602308422" lon="13.568318922591631"><ele>1191.0</ele><time>2026-05-03T08:23:04Z</time></trkpt><trkpt lat="42.35872098905523" lon="13.568488726594255"><ele>1191.0</ele><time>2026-05-03T08:23:05Z</time></trkpt><trkpt lat="42.35868827683675" lon="13.568672916093176"><ele>1191.0</ele><time>2026-05-03T08:23:06Z</time></trkpt><trkpt lat="42.35865282036711" lon="13.568867619163921"><ele>1191.0</ele><time>2026-05-03T08:23:07Z</time></trkpt><trkpt lat="42.358611500697" lon="13.569050985351609"><ele>1191.0</ele><time>2026-05-03T08:23:08Z</time></trkpt><trkpt lat="42.35854706500128" lon="13.569212497676935"><ele>1192.0</ele><time>2026-05-03T08:23:09Z</time></trkpt><trkpt lat="42.35844968928485" lon="13.569366524471562"><ele>1193.0</ele><time>2026-05-03T08:23:10Z</time></trkpt><trkpt lat="42.35833662556823" lon="13.569520249662638"><ele>1194.0</ele><time>2026-05-03T08:23:11Z</time></trkpt><trkpt lat="42.35822122834095" lon="13.569690001220316"><ele>1194.0</ele><time>2026-05-03T08:23:12Z</time></trkpt><trkpt lat="42.35811521286312" lon="13.569871684033465"><ele>1194.0</ele><time>2026-05-03T08:23:13Z</time></trkpt><trkpt lat="42.35802287078422" lon="13.570036461053471"><ele>1194.0</ele><time>2026-05-03T08:23:14Z</time></trkpt><trkpt lat="42.35793278491324" lon="13.570193806113263"><ele>1193.6666666666667</ele><time>2026-05-03T08:23:15Z</time></trkpt><trkpt lat="42.35784324183384" lon="13.570351903617366"><ele>1193.3333333333335</ele><time>2026-05-03T08:23:16Z</time></trkpt><trkpt lat="42.357753579844506" lon="13.570530000336122"><ele>1193.0</ele><time>2026-05-03T08:23:17Z</time></trkpt><trkpt lat="42.357670032592935" lon="13.570723786147976"><ele>1192.3333333333335</ele><time>2026-05-03T08:23:18Z</time></trkpt><trkpt lat="42.35759200761973" lon="13.570913384127204"><ele>1191.6666666666667</ele><time>2026-05-03T08:23:19Z</time></trkpt><trkpt lat="42.35750133181033" lon="13.571096856871035"><ele>1191.0</ele><time>2026-05-03T08:23:20Z</time></trkpt><trkpt lat="42.35740414660103" lon="13.571269070795674"><ele>1191.0</ele><time>2026-05-03T08:23:21Z</time></trkpt><trkpt lat="42.357307377364016" lon="13.571428116044554"><ele>1191.0</ele><time>2026-05-03T08:23:22Z</time></trkpt><trkpt lat="42.35721321468794" lon="13.57157504242415"><ele>1191.0</ele><time>2026-05-03T08:23:23Z</time></trkpt><trkpt lat="42.35712525243217" lon="13.57172189943658"><ele>1191.0</ele><time>2026-05-03T08:23:24Z</time></trkpt><trkpt lat="42.35704722474846" lon="13.57187842690254"><ele>1189.75</ele><time>2026-05-03T08:23:25Z</time></trkpt><trkpt lat="42.35696826359355" lon="13.572035964528169"><ele>1188.5</ele><time>2026-05-03T08:23:26Z</time></trkpt><trkpt lat="42.356889041763935" lon="13.572171949222954"><ele>1187.25</ele><time>2026-05-03T08:23:27Z</time></trkpt><trkpt lat="42.35680722978862" lon="13.57228350330345"><ele>1186.0</ele><time>2026-05-03T08:23:28Z</time></trkpt><trkpt lat="42.35672212563052" lon="13.572378602416041"><ele>1186.0</ele><time>2026-05-03T08:23:29Z</time></trkpt><trkpt lat="42.356621290875516" lon="13.572458337171568"><ele>1186.0</ele><time>2026-05-03T08:23:30Z</time></trkpt><trkpt lat="42.35651781963234" lon="13.5725074283449"><ele>1186.0</ele><time>2026-05-03T08:23:31Z</time></trkpt><trkpt lat="42.35641795452385" lon="13.572508841938454"><ele>1186.0</ele><time>2026-05-03T08:23:32Z</time></trkpt><trkpt lat="42.356324708910705" lon="13.572471226749517"><ele>1186.0</ele><time>2026-05-03T08:23:33Z</time></trkpt><trkpt lat="42.35623222731759" lon="13.572428600693234"><ele>1185.0</ele><time>2026-05-03T08:23:34Z</time></trkpt><trkpt lat="42.356122449411984" lon="13.572395291311624"><ele>1184.0</ele><time>2026-05-03T08:23:35Z</time></trkpt><trkpt lat="42.35600535905738" lon="13.572394506780233"><ele>1183.0</ele><time>2026-05-03T08:23:36Z</time></trkpt><trkpt lat="42.35589015519528" lon="13.572422436448221"><ele>1182.0</ele><time>2026-05-03T08:23:37Z</time></trkpt><trkpt lat="42.35576700057557" lon="13.572468942033122"><ele>1182.0</ele><time>2026-05-03T08:23:38Z</time></trkpt><trkpt lat="42.35563172417061" lon="13.572529832681287"><ele>1182.0</ele><time>2026-05-03T08:23:39Z</time></trkpt><trkpt lat="42.3554993868194" lon="13.572596426492433"><ele>1182.0</ele><time>2026-05-03T08:23:40Z</time></trkpt><trkpt lat="42.35537787702604" lon="13.572670630617331"><ele>1182.0</ele><time>2026-05-03T08:23:41Z</time></trkpt><trkpt lat="42.35526203972711" lon="13.572748121229566"><ele>1180.5</ele><time>2026-05-03T08:23:42Z</time></trkpt><trkpt lat="42.355137625635145" lon="13.57282969092777"><ele>1179.0</ele><time>2026-05-03T08:23:43Z</time></trkpt><trkpt lat="42.35500112913245" lon="13.572911236604705"><ele>1177.5</ele><time>2026-05-03T08:23:44Z</time></trkpt><trkpt lat="42.354866000053924" lon="13.572980965740829"><ele>1176.0</ele><time>2026-05-03T08:23:45Z</time></trkpt><trkpt lat="42.35473402257019" lon="13.573049567984512"><ele>1175.75</ele><time>2026-05-03T08:23:46Z</time></trkpt><trkpt lat="42.35461824403028" lon="13.573114032493189"><ele>1175.5</ele><time>2026-05-03T08:23:47Z</time></trkpt><trkpt lat="42.35450247801628" lon="13.573178659358144"><ele>1175.25</ele><time>2026-05-03T08:23:48Z</time></trkpt><trkpt lat="42.35437945043053" lon="13.573246596070668"><ele>1175.0</ele><time>2026-05-03T08:23:49Z</time></trkpt><trkpt lat="42.35424586426512" lon="13.573316038593063"><ele>1175.0</ele><time>2026-05-03T08:23:50Z</time></trkpt><trkpt lat="42.35411611123913" lon="13.573382970473032"><ele>1175.0</ele><time>2026-05-03T08:23:51Z</time></trkpt><trkpt lat="42.35399326332844" lon="13.573456682633141"><ele>1175.0</ele><time>2026-05-03T08:23:52Z</time></trkpt><trkpt lat="42.35387258211781" lon="13.573549232164341"><ele>1175.0</ele><time>2026-05-03T08:23:53Z</time></trkpt><trkpt lat="42.35375145611284" lon="13.573632642683005"><ele>1172.25</ele><time>2026-05-03T08:23:54Z</time></trkpt><trkpt lat="42.35363235620285" lon="13.573716689338637"><ele>1169.5</ele><time>2026-05-03T08:23:55Z</time></trkpt><trkpt lat="42.353516724916176" lon="13.573789975362804"><ele>1166.75</ele><time>2026-05-03T08:23:56Z</time></trkpt><trkpt lat="42.35339776439173" lon="13.573857697595386"><ele>1164.0</ele><time>2026-05-03T08:23:57Z</time></trkpt><trkpt lat="42.353286716526426" lon="13.5739210017421"><ele>1164.0</ele><time>2026-05-03T08:23:58Z</time></trkpt><trkpt lat="42.353189290225465" lon="13.573977304603991"><ele>1164.0</ele><time>2026-05-03T08:23:59Z</time></trkpt><trkpt lat="42.353093496662986" lon="13.57404510067441"><ele>1164.0</ele><time>2026-05-03T08:24:00Z</time></trkpt><trkpt lat="42.35301329271282" lon="13.574107889529252"><ele>1164.0</ele><time>2026-05-03T08:24:01Z</time></trkpt><trkpt lat="42.35293370954821" lon="13.574170562219106"><ele>1164.0</ele><time>2026-05-03T08:24:02Z</time></trkpt><trkpt lat="42.35285567964779" lon="13.574220330410919"><ele>1162.8</ele><time>2026-05-03T08:24:03Z</time></trkpt><trkpt lat="42.35277187865558" lon="13.5742436509364"><ele>1161.6000000000001</ele><time>2026-05-03T08:24:04Z</time></trkpt><trkpt lat="42.35267641191544" lon="13.5742433567457"><ele>1160.4</ele><time>2026-05-03T08:24:05Z</time></trkpt><trkpt lat="42.352579067154224" lon="13.574233840827942"><ele>1159.2</ele><time>2026-05-03T08:24:06Z</time></trkpt><trkpt lat="42.35248396493998" lon="13.574198336740304"><ele>1158.0</ele><time>2026-05-03T08:24:07Z</time></trkpt><trkpt lat="42.352390348171596" lon="13.574142871078477"><ele>1158.0</ele><time>2026-05-03T08:24:08Z</time></trkpt><trkpt lat="42.352285744972775" lon="13.574063988790739"><ele>1158.0</ele><time>2026-05-03T08:24:09Z</time></trkpt><trkpt lat="42.35217100651389" lon="13.573975268749248"><ele>1158.0</ele><time>2026-05-03T08:24:10Z</time></trkpt><trkpt lat="42.35205543505673" lon="13.573876076364133"><ele>1158.0</ele><time>2026-05-03T08:24:11Z</time></trkpt><trkpt lat="42.35193799353213" lon="13.573777221026388"><ele>1156.75</ele><time>2026-05-03T08:24:12Z</time></trkpt><trkpt lat="42.351817733918544" lon="13.57368724543013"><ele>1155.5</ele><time>2026-05-03T08:24:13Z</time></trkpt><trkpt lat="42.35169385175119" lon="13.57360364528512"><ele>1154.25</ele><time>2026-05-03T08:24:14Z</time></trkpt><trkpt lat="42.351573462418635" lon="13.573519701920441"><ele>1153.0</ele><time>2026-05-03T08:24:15Z</time></trkpt><trkpt lat="42.35145923390221" lon="13.573425854244592"><ele>1151.5</ele><time>2026-05-03T08:24:16Z</time></trkpt><trkpt lat="42.35135082270985" lon="13.573312175054259"><ele>1150.0</ele><time>2026-05-03T08:24:17Z</time></trkpt><trkpt lat="42.35124711688475" lon="13.573188917827189"><ele>1148.5</ele><time>2026-05-03T08:24:18Z</time></trkpt><trkpt lat="42.351154468399734" lon="13.573069696130526"><ele>1147.0</ele><time>2026-05-03T08:24:19Z</time></trkpt><trkpt lat="42.35107025746555" lon="13.572947700201096"><ele>1147.5</ele><time>2026-05-03T08:24:20Z</time></trkpt><trkpt lat="42.350991814263594" lon="13.572814850739796"><ele>1148.0</ele><time>2026-05-03T08:24:21Z</time></trkpt><trkpt lat="42.35091387459742" lon="13.572682848114317"><ele>1148.5</ele><time>2026-05-03T08:24:22Z</time></trkpt><trkpt lat="42.350833040863876" lon="13.572565262494292"><ele>1149.0</ele><time>2026-05-03T08:24:23Z</time></trkpt><trkpt lat="42.350731887956314" lon="13.572464501059196"><ele>1149.0</ele><time>2026-05-03T08:24:24Z</time></trkpt><trkpt lat="42.350616977674406" lon="13.572380952114527"><ele>1149.0</ele><time>2026-05-03T08:24:25Z</time></trkpt><trkpt lat="42.35049554749209" lon="13.572317905425408"><ele>1149.0</ele><time>2026-05-03T08:24:26Z</time></trkpt><trkpt lat="42.35038337079841" lon="13.572249500767818"><ele>1149.0</ele><time>2026-05-03T08:24:27Z</time></trkpt><trkpt lat="42.35027490781666" lon="13.572156132182197"><ele>1147.75</ele><time>2026-05-03T08:24:28Z</time></trkpt><trkpt lat="42.35014956164956" lon="13.572044447170065"><ele>1146.5</ele><time>2026-05-03T08:24:29Z</time></trkpt><trkpt lat="42.35003322795651" lon="13.571939482828407"><ele>1145.25</ele><time>2026-05-03T08:24:30Z</time></trkpt><trkpt lat="42.34991572288039" lon="13.571842995442394"><ele>1144.0</ele><time>2026-05-03T08:24:31Z</time></trkpt><trkpt lat="42.349810362011134" lon="13.57174942027947"><ele>1144.0</ele><time>2026-05-03T08:24:32Z</time></trkpt><trkpt lat="42.34971833943514" lon="13.571627387519777"><ele>1144.0</ele><time>2026-05-03T08:24:33Z</time></trkpt><trkpt lat="42.34962619984086" lon="13.571497525285018"><ele>1144.0</ele><time>2026-05-03T08:24:34Z</time></trkpt><trkpt lat="42.349544831828105" lon="13.571402850030461"><ele>1144.0</ele><time>2026-05-03T08:24:35Z</time></trkpt><trkpt lat="42.34944175323084" lon="13.571335355862347"><ele>1140.5</ele><time>2026-05-03T08:24:36Z</time></trkpt><trkpt lat="42.34932324602557" lon="13.571290453235768"><ele>1137.0</ele><time>2026-05-03T08:24:37Z</time></trkpt><trkpt lat="42.349191871950445" lon="13.571265915451653"><ele>1133.5</ele><time>2026-05-03T08:24:38Z</time></trkpt><trkpt lat="42.349053072049145" lon="13.571252507436627"><ele>1130.0</ele><time>2026-05-03T08:24:39Z</time></trkpt><trkpt lat="42.348916815255365" lon="13.571227515801315"><ele>1129.75</ele><time>2026-05-03T08:24:40.001Z</time></trkpt><trkpt lat="42.34878715847955" lon="13.571195858674637"><ele>1129.5</ele><time>2026-05-03T08:24:41.001Z</time></trkpt><trkpt lat="42.3486602860268" lon="13.571135434920821"><ele>1129.25</ele><time>2026-05-03T08:24:42.001Z</time></trkpt><trkpt lat="42.34854193180509" lon="13.571059699527815"><ele>1129.0</ele><time>2026-05-03T08:24:43.001Z</time></trkpt><trkpt lat="42.348419078451464" lon="13.570978369809195"><ele>1129.0</ele><time>2026-05-03T08:24:44.001Z</time></trkpt><trkpt lat="42.34830893195724" lon="13.570897208289168"><ele>1129.0</ele><time>2026-05-03T08:24:45.001Z</time></trkpt><trkpt lat="42.34821738839168" lon="13.570824567436723"><ele>1129.0</ele><time>2026-05-03T08:24:46.001Z</time></trkpt><trkpt lat="42.34814707009623" lon="13.570753051179485"><ele>1129.0</ele><time>2026-05-03T08:24:47.001Z</time></trkpt><trkpt lat="42.34809289065025" lon="13.570661435656936"><ele>1129.0</ele><time>2026-05-03T08:24:48.001Z</time></trkpt><trkpt lat="42.348043147648134" lon="13.570543755040937"><ele>1127.4</ele><time>2026-05-03T08:24:49.001Z</time></trkpt><trkpt lat="42.347991688603884" lon="13.570395912426338"><ele>1125.8000000000002</ele><time>2026-05-03T08:24:50.001Z</time></trkpt><trkpt lat="42.34793635066772" lon="13.570252723070352"><ele>1124.1999999999998</ele><time>2026-05-03T08:24:51.001Z</time></trkpt><trkpt lat="42.34786981781831" lon="13.570135213172982"><ele>1122.6</ele><time>2026-05-03T08:24:52.001Z</time></trkpt><trkpt lat="42.34779667202972" lon="13.570043758096602"><ele>1121.0</ele><time>2026-05-03T08:24:53.001Z</time></trkpt><trkpt lat="42.34772471538462" lon="13.569972449755019"><ele>1121.0</ele><time>2026-05-03T08:24:54.001Z</time></trkpt><trkpt lat="42.347653980661285" lon="13.569901317551366"><ele>1121.0</ele><time>2026-05-03T08:24:55.001Z</time></trkpt><trkpt lat="42.3475931222481" lon="13.569834008955254"><ele>1121.0</ele><time>2026-05-03T08:24:56.001Z</time></trkpt><trkpt lat="42.347526463234345" lon="13.569770399980959"><ele>1121.0</ele><time>2026-05-03T08:24:57.001Z</time></trkpt><trkpt lat="42.347454232066006" lon="13.569735341949752"><ele>1121.0</ele><time>2026-05-03T08:24:58.001Z</time></trkpt><trkpt lat="42.34736184524134" lon="13.56971949702578"><ele>1121.0</ele><time>2026-05-03T08:24:59.001Z</time></trkpt><trkpt lat="42.34725625758667" lon="13.569726371181472"><ele>1120.6</ele><time>2026-05-03T08:25:00.001Z</time></trkpt><trkpt lat="42.347150791374936" lon="13.569755241437331"><ele>1120.1999999999998</ele><time>2026-05-03T08:25:01.001Z</time></trkpt><trkpt lat="42.34704483277609" lon="13.569799849952256"><ele>1119.8000000000002</ele><time>2026-05-03T08:25:02Z</time></trkpt><trkpt lat="42.34694074475792" lon="13.569863438771607"><ele>1119.4</ele><time>2026-05-03T08:25:03Z</time></trkpt><trkpt lat="42.34683990525657" lon="13.569901279746068"><ele>1119.0</ele><time>2026-05-03T08:25:04Z</time></trkpt><trkpt lat="42.34672268318811" lon="13.569914528197229"><ele>1119.0</ele><time>2026-05-03T08:25:05Z</time></trkpt><trkpt lat="42.346603898773296" lon="13.569907842589915"><ele>1119.0</ele><time>2026-05-03T08:25:06Z</time></trkpt><trkpt lat="42.346480297935635" lon="13.569910324022931"><ele>1119.0</ele><time>2026-05-03T08:25:07Z</time></trkpt><trkpt lat="42.34636253421501" lon="13.569940129437601"><ele>1119.0</ele><time>2026-05-03T08:25:08Z</time></trkpt><trkpt lat="42.34625866008828" lon="13.56999382144169"><ele>1118.0</ele><time>2026-05-03T08:25:09Z</time></trkpt><trkpt lat="42.34616315036065" lon="13.570088571110043"><ele>1117.0</ele><time>2026-05-03T08:25:10Z</time></trkpt><trkpt lat="42.34607095832958" lon="13.570208571329758"><ele>1116.0</ele><time>2026-05-03T08:25:11Z</time></trkpt><trkpt lat="42.345979968022235" lon="13.570324122488703"><ele>1115.0</ele><time>2026-05-03T08:25:12Z</time></trkpt><trkpt lat="42.34590013098776" lon="13.570442465176486"><ele>1115.0</ele><time>2026-05-03T08:25:13Z</time></trkpt><trkpt lat="42.345826162703595" lon="13.570553888549505"><ele>1115.0</ele><time>2026-05-03T08:25:14Z</time></trkpt><trkpt lat="42.345778171398884" lon="13.570684135486548"><ele>1115.0</ele><time>2026-05-03T08:25:15Z</time></trkpt><trkpt lat="42.34575534207351" lon="13.570830339058977"><ele>1115.0</ele><time>2026-05-03T08:25:16Z</time></trkpt><trkpt lat="42.34573215036922" lon="13.570980276632067"><ele>1115.0</ele><time>2026-05-03T08:25:17Z</time></trkpt><trkpt lat="42.34569125622719" lon="13.571110477290178"><ele>1116.5</ele><time>2026-05-03T08:25:18Z</time></trkpt><trkpt lat="42.345619717085725" lon="13.571216188414562"><ele>1118.0</ele><time>2026-05-03T08:25:19Z</time></trkpt><trkpt lat="42.345523642277726" lon="13.57131010973041"><ele>1119.5</ele><time>2026-05-03T08:25:20Z</time></trkpt><trkpt lat="42.34542094194807" lon="13.571389847680338"><ele>1121.0</ele><time>2026-05-03T08:25:21Z</time></trkpt><trkpt lat="42.34531012410957" lon="13.571484772619735"><ele>1117.75</ele><time>2026-05-03T08:25:22Z</time></trkpt><trkpt lat="42.34521964913467" lon="13.571578780225234"><ele>1114.5</ele><time>2026-05-03T08:25:23Z</time></trkpt><trkpt lat="42.345147543300435" lon="13.57170524967376"><ele>1111.25</ele><time>2026-05-03T08:25:24Z</time></trkpt><trkpt lat="42.34509521615169" lon="13.571857750928952"><ele>1108.0</ele><time>2026-05-03T08:25:25Z</time></trkpt><trkpt lat="42.34504820523256" lon="13.572039860506905"><ele>1108.0</ele><time>2026-05-03T08:25:26Z</time></trkpt><trkpt lat="42.344999249011" lon="13.57222088938573"><ele>1108.0</ele><time>2026-05-03T08:25:27Z</time></trkpt><trkpt lat="42.344930337787616" lon="13.572382701254252"><ele>1108.0</ele><time>2026-05-03T08:25:28Z</time></trkpt><trkpt lat="42.34485462713855" lon="13.572530672119512"><ele>1108.0</ele><time>2026-05-03T08:25:29Z</time></trkpt><trkpt lat="42.3447646159676" lon="13.572646710761559"><ele>1107.6</ele><time>2026-05-03T08:25:30Z</time></trkpt><trkpt lat="42.34467305956619" lon="13.572750708265675"><ele>1107.1999999999998</ele><time>2026-05-03T08:25:31Z</time></trkpt><trkpt lat="42.344593590414746" lon="13.572836238871416"><ele>1106.8</ele><time>2026-05-03T08:25:32Z</time></trkpt><trkpt lat="42.34452587335195" lon="13.572917309101188"><ele>1106.3999999999999</ele><time>2026-05-03T08:25:33Z</time></trkpt><trkpt lat="42.34445944845522" lon="13.57299848096151"><ele>1106.0</ele><time>2026-05-03T08:25:34Z</time></trkpt><trkpt lat="42.344395387852224" lon="13.573074750133696"><ele>1106.0</ele><time>2026-05-03T08:25:35Z</time></trkpt><trkpt lat="42.344331778328055" lon="13.573146154755067"><ele>1106.0</ele><time>2026-05-03T08:25:36Z</time></trkpt><trkpt lat="42.34427220541146" lon="13.573217573739907"><ele>1106.0</ele><time>2026-05-03T08:25:37Z</time></trkpt><trkpt lat="42.34421854039534" lon="13.573284324511977"><ele>1106.0</ele><time>2026-05-03T08:25:38Z</time></trkpt><trkpt lat="42.344166464588916" lon="13.573347871056749"><ele>1106.0</ele><time>2026-05-03T08:25:39Z</time></trkpt><trkpt lat="42.34410941555801" lon="13.573409176881032"><ele>1106.0</ele><time>2026-05-03T08:25:40Z</time></trkpt><trkpt lat="42.34405510570604" lon="13.573471220339036"><ele>1106.0</ele><time>2026-05-03T08:25:41Z</time></trkpt><trkpt lat="42.344001214940924" lon="13.573532725615543"><ele>1106.0</ele><time>2026-05-03T08:25:42Z</time></trkpt><trkpt lat="42.34394814067007" lon="13.573591223021815"><ele>1106.0</ele><time>2026-05-03T08:25:43Z</time></trkpt><trkpt lat="42.34389189551438" lon="13.57365988132422"><ele>1106.0</ele><time>2026-05-03T08:25:44Z</time></trkpt><trkpt lat="42.343826919320556" lon="13.57373353357993"><ele>1106.0</ele><time>2026-05-03T08:25:45Z</time></trkpt><trkpt lat="42.34376568264198" lon="13.573803567063607"><ele>1106.0</ele><time>2026-05-03T08:25:46Z</time></trkpt><trkpt lat="42.34371129360869" lon="13.573871870822106"><ele>1106.0</ele><time>2026-05-03T08:25:47Z</time></trkpt><trkpt lat="42.343662968075904" lon="13.573941317759685"><ele>1105.1666666666667</ele><time>2026-05-03T08:25:48Z</time></trkpt><trkpt lat="42.34362030129471" lon="13.574008994867466"><ele>1104.3333333333335</ele><time>2026-05-03T08:25:49Z</time></trkpt><trkpt lat="42.34357877158424" lon="13.574077656032337"><ele>1103.5</ele><time>2026-05-03T08:25:50Z</time></trkpt><trkpt lat="42.3434943237055" lon="13.574211335191109"><ele>1102.6666666666667</ele><time>2026-05-03T08:25:52Z</time></trkpt><trkpt lat="42.343451299623226" lon="13.57427888248947"><ele>1101.8333333333333</ele><time>2026-05-03T08:25:53Z</time></trkpt><trkpt lat="42.34340246996956" lon="13.574362268111766"><ele>1101.0</ele><time>2026-05-03T08:25:54Z</time></trkpt><trkpt lat="42.3433501388351" lon="13.574458957204737"><ele>1101.1666666666667</ele><time>2026-05-03T08:25:55Z</time></trkpt><trkpt lat="42.34329353818829" lon="13.57455117062335"><ele>1101.3333333333333</ele><time>2026-05-03T08:25:56Z</time></trkpt><trkpt lat="42.343238324451896" lon="13.574633859007713"><ele>1101.5</ele><time>2026-05-03T08:25:57Z</time></trkpt><trkpt lat="42.34317987438226" lon="13.574703779933191"><ele>1101.6666666666665</ele><time>2026-05-03T08:25:58Z</time></trkpt><trkpt lat="42.34312149152593" lon="13.574772259338582"><ele>1101.8333333333333</ele><time>2026-05-03T08:25:59Z</time></trkpt><trkpt lat="42.34304845543903" lon="13.574850493033857"><ele>1102.0</ele><time>2026-05-03T08:26:00Z</time></trkpt><trkpt lat="42.34297010697411" lon="13.574926873554242"><ele>1102.0</ele><time>2026-05-03T08:26:01Z</time></trkpt><trkpt lat="42.34289055557354" lon="13.574994556949834"><ele>1102.0</ele><time>2026-05-03T08:26:02Z</time></trkpt><trkpt lat="42.34280837289068" lon="13.575066259879051"><ele>1102.0</ele><time>2026-05-03T08:26:03Z</time></trkpt><trkpt lat="42.342726579438875" lon="13.575148629247185"><ele>1102.0</ele><time>2026-05-03T08:26:04Z</time></trkpt><trkpt lat="42.34265996186173" lon="13.575239469096253"><ele>1102.0</ele><time>2026-05-03T08:26:05Z</time></trkpt><trkpt lat="42.34259268158633" lon="13.575340988434567"><ele>1102.2</ele><time>2026-05-03T08:26:06Z</time></trkpt><trkpt lat="42.34252334166709" lon="13.575454542984593"><ele>1102.4</ele><time>2026-05-03T08:26:07Z</time></trkpt><trkpt lat="42.342457218560845" lon="13.575547708898664"><ele>1102.6</ele><time>2026-05-03T08:26:08Z</time></trkpt><trkpt lat="42.34239468938515" lon="13.575635273921351"><ele>1102.8</ele><time>2026-05-03T08:26:09Z</time></trkpt><trkpt lat="42.34232939344779" lon="13.57573563548478"><ele>1103.0</ele><time>2026-05-03T08:26:10Z</time></trkpt><trkpt lat="42.34226233201838" lon="13.575846882026852"><ele>1101.75</ele><time>2026-05-03T08:26:11Z</time></trkpt><trkpt lat="42.342185924606184" lon="13.575960057633699"><ele>1100.5</ele><time>2026-05-03T08:26:12Z</time></trkpt><trkpt lat="42.342111521068844" lon="13.576062399036292"><ele>1099.25</ele><time>2026-05-03T08:26:13Z</time></trkpt><trkpt lat="42.342034805131114" lon="13.576173203348562"><ele>1098.0</ele><time>2026-05-03T08:26:14Z</time></trkpt><trkpt lat="42.34195630894451" lon="13.576293002794767"><ele>1098.0</ele><time>2026-05-03T08:26:15Z</time></trkpt><trkpt lat="42.34188270383362" lon="13.576396956009301"><ele>1098.0</ele><time>2026-05-03T08:26:16Z</time></trkpt><trkpt lat="42.34181494706637" lon="13.576503818664674"><ele>1098.0</ele><time>2026-05-03T08:26:17Z</time></trkpt><trkpt lat="42.341751034249825" lon="13.576606642547114"><ele>1098.0</ele><time>2026-05-03T08:26:18Z</time></trkpt><trkpt lat="42.34167689011977" lon="13.576714294111799"><ele>1098.0</ele><time>2026-05-03T08:26:19Z</time></trkpt><trkpt lat="42.34160101140531" lon="13.576825178208619"><ele>1098.0</ele><time>2026-05-03T08:26:20Z</time></trkpt><trkpt lat="42.341522342199475" lon="13.576937466118054"><ele>1098.0</ele><time>2026-05-03T08:26:21Z</time></trkpt><trkpt lat="42.34144896284529" lon="13.577041644410803"><ele>1098.0</ele><time>2026-05-03T08:26:22Z</time></trkpt><trkpt lat="42.341379093842534" lon="13.577140197127926"><ele>1098.0</ele><time>2026-05-03T08:26:23Z</time></trkpt><trkpt lat="42.341313270814624" lon="13.577236386916713"><ele>1098.0</ele><time>2026-05-03T08:26:24Z</time></trkpt><trkpt lat="42.3412477172191" lon="13.577332167486302"><ele>1097.5</ele><time>2026-05-03T08:26:25Z</time></trkpt><trkpt lat="42.34116315905337" lon="13.577455820134249"><ele>1097.0</ele><time>2026-05-03T08:26:26Z</time></trkpt><trkpt lat="42.341067606394525" lon="13.577584735791605"><ele>1096.5</ele><time>2026-05-03T08:26:27Z</time></trkpt><trkpt lat="42.34097538858858" lon="13.57770808882133"><ele>1096.0</ele><time>2026-05-03T08:26:28Z</time></trkpt><trkpt lat="42.34088546625924" lon="13.577838515673402"><ele>1097.0</ele><time>2026-05-03T08:26:29Z</time></trkpt><trkpt lat="42.340793806603976" lon="13.577969636578155"><ele>1098.0</ele><time>2026-05-03T08:26:30Z</time></trkpt><trkpt lat="42.34069626667649" lon="13.578105407278153"><ele>1099.0</ele><time>2026-05-03T08:26:31Z</time></trkpt><trkpt lat="42.34060851948995" lon="13.578233330405288"><ele>1100.0</ele><time>2026-05-03T08:26:32Z</time></trkpt><trkpt lat="42.340520461497825" lon="13.578349919337773"><ele>1098.0</ele><time>2026-05-03T08:26:33Z</time></trkpt><trkpt lat="42.34043766215249" lon="13.578460124600221"><ele>1096.0</ele><time>2026-05-03T08:26:34Z</time></trkpt><trkpt lat="42.34035164566772" lon="13.578573553567628"><ele>1094.0</ele><time>2026-05-03T08:26:35Z</time></trkpt><trkpt lat="42.34026454516275" lon="13.57869119494824"><ele>1092.0</ele><time>2026-05-03T08:26:36Z</time></trkpt><trkpt lat="42.340179411240904" lon="13.578810197524048"><ele>1092.0</ele><time>2026-05-03T08:26:37Z</time></trkpt><trkpt lat="42.34009422490435" lon="13.578926640235869"><ele>1092.0</ele><time>2026-05-03T08:26:38Z</time></trkpt><trkpt lat="42.34000721176034" lon="13.57904442043779"><ele>1092.0</ele><time>2026-05-03T08:26:39Z</time></trkpt><trkpt lat="42.33991577117096" lon="13.579164938707141"><ele>1092.0</ele><time>2026-05-03T08:26:40Z</time></trkpt><trkpt lat="42.339832663242284" lon="13.579280497523492"><ele>1092.0</ele><time>2026-05-03T08:26:41Z</time></trkpt><trkpt lat="42.33975554302403" lon="13.579394758879967"><ele>1092.0</ele><time>2026-05-03T08:26:42Z</time></trkpt><trkpt lat="42.339678089057664" lon="13.579516906845482"><ele>1092.0</ele><time>2026-05-03T08:26:43Z</time></trkpt><trkpt lat="42.339598454573526" lon="13.579649173920703"><ele>1092.0</ele><time>2026-05-03T08:26:44Z</time></trkpt><trkpt lat="42.33952090072483" lon="13.57978392779257"><ele>1090.75</ele><time>2026-05-03T08:26:45Z</time></trkpt><trkpt lat="42.33944224292348" lon="13.579921579567793"><ele>1089.5</ele><time>2026-05-03T08:26:46.001Z</time></trkpt><trkpt lat="42.339356646467536" lon="13.580056938227647"><ele>1088.25</ele><time>2026-05-03T08:26:47.001Z</time></trkpt><trkpt lat="42.33925979558067" lon="13.580199682765967"><ele>1087.0</ele><time>2026-05-03T08:26:48.001Z</time></trkpt><trkpt lat="42.339151603524776" lon="13.580328665482803"><ele>1087.5</ele><time>2026-05-03T08:26:49.001Z</time></trkpt><trkpt lat="42.339041602017424" lon="13.580438763715852"><ele>1088.0</ele><time>2026-05-03T08:26:50.001Z</time></trkpt><trkpt lat="42.33893872675834" lon="13.58052553877303"><ele>1088.5</ele><time>2026-05-03T08:26:51.001Z</time></trkpt><trkpt lat="42.33884673449186" lon="13.580612122609155"><ele>1089.0</ele><time>2026-05-03T08:26:52.001Z</time></trkpt><trkpt lat="42.338776051730726" lon="13.58068312998386"><ele>1089.0</ele><time>2026-05-03T08:26:53.001Z</time></trkpt><trkpt lat="42.33872088413726" lon="13.580736524742386"><ele>1089.0</ele><time>2026-05-03T08:26:54Z</time></trkpt><trkpt lat="42.338604873243376" lon="13.580803154784508"><ele>1089.0</ele><time>2026-05-03T08:26:56Z</time></trkpt><trkpt lat="42.33848673502807" lon="13.580790725994273"><ele>1089.0</ele><time>2026-05-03T08:26:58Z</time></trkpt><trkpt lat="42.33839167011005" lon="13.580736012628812"><ele>1089.0</ele><time>2026-05-03T08:27:00Z</time></trkpt><trkpt lat="42.338328112595015" lon="13.580684150537378"><ele>1089.0</ele><time>2026-05-03T08:27:02Z</time></trkpt><trkpt lat="42.33826685600487" lon="13.580626874595843"><ele>1089.0</ele><time>2026-05-03T08:27:06Z</time></trkpt><trkpt lat="42.3382094011376" lon="13.580563614943165"><ele>1089.0</ele><time>2026-05-03T08:27:08Z</time></trkpt><trkpt lat="42.3381568474065" lon="13.580486953645515"><ele>1089.0</ele><time>2026-05-03T08:27:09Z</time></trkpt><trkpt lat="42.338107516492016" lon="13.58040518958391"><ele>1089.0</ele><time>2026-05-03T08:27:10Z</time></trkpt><trkpt lat="42.33805302814031" lon="13.580311164545774"><ele>1089.0</ele><time>2026-05-03T08:27:11Z</time></trkpt><trkpt lat="42.33799252088243" lon="13.580215027543964"><ele>1089.8333333333333</ele><time>2026-05-03T08:27:12Z</time></trkpt><trkpt lat="42.33793417965841" lon="13.580124428442645"><ele>1090.6666666666667</ele><time>2026-05-03T08:27:13Z</time></trkpt><trkpt lat="42.337889477280214" lon="13.580055532453652"><ele>1091.5</ele><time>2026-05-03T08:27:14Z</time></trkpt><trkpt lat="42.33784621061352" lon="13.579950550117868"><ele>1092.3333333333335</ele><time>2026-05-03T08:27:16Z</time></trkpt><trkpt lat="42.33776330431511" lon="13.579879599907478"><ele>1093.1666666666667</ele><time>2026-05-03T08:31:23Z</time></trkpt><trkpt lat="42.33772148422425" lon="13.579805196544509"><ele>1094.0</ele><time>2026-05-03T08:31:24Z</time></trkpt><trkpt lat="42.33767056890201" lon="13.57970702678199"><ele>1094.0</ele><time>2026-05-03T08:31:25Z</time></trkpt><trkpt lat="42.3375949946433" lon="13.579608041936549"><ele>1094.0</ele><time>2026-05-03T08:31:26Z</time></trkpt><trkpt lat="42.33750068603008" lon="13.579516666418579"><ele>1094.0</ele><time>2026-05-03T08:31:27Z</time></trkpt><trkpt lat="42.337377871198015" lon="13.579446556987989"><ele>1094.0</ele><time>2026-05-03T08:31:28Z</time></trkpt><trkpt lat="42.33723452128444" lon="13.579402236319043"><ele>1094.0</ele><time>2026-05-03T08:31:29Z</time></trkpt><trkpt lat="42.33707872507306" lon="13.579409590164596"><ele>1094.0</ele><time>2026-05-03T08:31:30Z</time></trkpt><trkpt lat="42.33690893917682" lon="13.579458827767008"><ele>1094.0</ele><time>2026-05-03T08:31:31Z</time></trkpt><trkpt lat="42.33672306035759" lon="13.579522171710106"><ele>1094.0</ele><time>2026-05-03T08:31:32Z</time></trkpt><trkpt lat="42.33652806479467" lon="13.57954317007394"><ele>1094.0</ele><time>2026-05-03T08:31:33Z</time></trkpt><trkpt lat="42.33633502323891" lon="13.579535194393982"><ele>1094.0</ele><time>2026-05-03T08:31:34Z</time></trkpt><trkpt lat="42.33614956190883" lon="13.579523617525824"><ele>1093.3333333333335</ele><time>2026-05-03T08:31:35Z</time></trkpt><trkpt lat="42.33597245313016" lon="13.579536234353291"><ele>1092.6666666666667</ele><time>2026-05-03T08:31:36Z</time></trkpt><trkpt lat="42.33580257454216" lon="13.5795714049317"><ele>1092.0</ele><time>2026-05-03T08:31:37Z</time></trkpt><trkpt lat="42.33564137560373" lon="13.579613068226148"><ele>1090.5</ele><time>2026-05-03T08:31:38Z</time></trkpt><trkpt lat="42.33548990565423" lon="13.579642138751177"><ele>1089.0</ele><time>2026-05-03T08:31:39Z</time></trkpt><trkpt lat="42.33534113392736" lon="13.579651849046703"><ele>1087.5</ele><time>2026-05-03T08:31:40Z</time></trkpt><trkpt lat="42.33519531255082" lon="13.579636014327468"><ele>1086.0</ele><time>2026-05-03T08:31:41Z</time></trkpt><trkpt lat="42.33505167377574" lon="13.579598969599667"><ele>1086.0</ele><time>2026-05-03T08:31:42Z</time></trkpt><trkpt lat="42.33489617489656" lon="13.57954429519168"><ele>1086.0</ele><time>2026-05-03T08:31:43Z</time></trkpt><trkpt lat="42.334732693443605" lon="13.579483391012936"><ele>1086.0</ele><time>2026-05-03T08:31:44Z</time></trkpt><trkpt lat="42.334569187546705" lon="13.579430216431335"><ele>1079.6666666666667</ele><time>2026-05-03T08:31:45Z</time></trkpt><trkpt lat="42.334407434094054" lon="13.579389109829528"><ele>1073.3333333333335</ele><time>2026-05-03T08:31:46Z</time></trkpt><trkpt lat="42.33424897166451" lon="13.579362538149576"><ele>1067.0</ele><time>2026-05-03T08:31:47Z</time></trkpt><trkpt lat="42.33409043406108" lon="13.57934254392488"><ele>1067.0</ele><time>2026-05-03T08:31:48Z</time></trkpt><trkpt lat="42.33393181839689" lon="13.57932802114178"><ele>1067.0</ele><time>2026-05-03T08:31:49Z</time></trkpt><trkpt lat="42.333781939487004" lon="13.579305654034169"><ele>1067.0</ele><time>2026-05-03T08:31:50Z</time></trkpt><trkpt lat="42.33365277187561" lon="13.579293400185334"><ele>1067.0</ele><time>2026-05-03T08:31:51Z</time></trkpt><trkpt lat="42.333535780411836" lon="13.579321691435208"><ele>1067.25</ele><time>2026-05-03T08:31:52Z</time></trkpt><trkpt lat="42.33342087930914" lon="13.579408832659537"><ele>1067.5</ele><time>2026-05-03T08:31:53Z</time></trkpt><trkpt lat="42.333314675063015" lon="13.579546208344153"><ele>1067.75</ele><time>2026-05-03T08:31:54Z</time></trkpt><trkpt lat="42.33322991049398" lon="13.57970553116766"><ele>1068.0</ele><time>2026-05-03T08:31:55Z</time></trkpt><trkpt lat="42.333131144477164" lon="13.579830954675591"><ele>1060.75</ele><time>2026-05-03T08:31:56Z</time></trkpt><trkpt lat="42.33303317084005" lon="13.579963774809034"><ele>1053.5</ele><time>2026-05-03T08:31:57Z</time></trkpt><trkpt lat="42.33287056910647" lon="13.579989746919217"><ele>1046.25</ele><time>2026-05-03T08:31:58Z</time></trkpt><trkpt lat="42.33274055078209" lon="13.580040210938895"><ele>1039.0</ele><time>2026-05-03T08:31:59Z</time></trkpt><trkpt lat="42.332611458265625" lon="13.58009106971821"><ele>1039.0</ele><time>2026-05-03T08:32:00Z</time></trkpt><trkpt lat="42.332483815044604" lon="13.58015273326454"><ele>1039.0</ele><time>2026-05-03T08:32:01Z</time></trkpt><trkpt lat="42.33237166899633" lon="13.580207268980764"><ele>1039.0</ele><time>2026-05-03T08:32:02Z</time></trkpt><trkpt lat="42.332274648666676" lon="13.580255626268988"><ele>1039.0</ele><time>2026-05-03T08:32:03Z</time></trkpt><trkpt lat="42.332186147134124" lon="13.580314225055693"><ele>1037.0</ele><time>2026-05-03T08:32:04Z</time></trkpt><trkpt lat="42.33209687088926" lon="13.58036888103389"><ele>1035.0</ele><time>2026-05-03T08:32:04.999Z</time></trkpt><trkpt lat="42.33201577024988" lon="13.580446143443366"><ele>1033.0</ele><time>2026-05-03T08:32:05.999Z</time></trkpt><trkpt lat="42.33197333069994" lon="13.580560769647159"><ele>1031.0</ele><time>2026-05-03T08:32:06.999Z</time></trkpt><trkpt lat="42.33194413528204" lon="13.580700215011602"><ele>1029.0</ele><time>2026-05-03T08:32:07.999Z</time></trkpt><trkpt lat="42.33193989825488" lon="13.58084851431781"><ele>1029.0</ele><time>2026-05-03T08:32:08.999Z</time></trkpt><trkpt lat="42.33196427041592" lon="13.581010263125847"><ele>1029.0</ele><time>2026-05-03T08:32:09.999Z</time></trkpt><trkpt lat="42.33200638725098" lon="13.581185160881622"><ele>1029.0</ele><time>2026-05-03T08:32:10.999Z</time></trkpt><trkpt lat="42.33205059625466" lon="13.581364321944783"><ele>1029.0</ele><time>2026-05-03T08:32:11.999Z</time></trkpt><trkpt lat="42.332076825974504" lon="13.581538530930446"><ele>1029.5</ele><time>2026-05-03T08:32:12.999Z</time></trkpt><trkpt lat="42.3320855110012" lon="13.581736015066488"><ele>1030.0</ele><time>2026-05-03T08:32:13.999Z</time></trkpt><trkpt lat="42.33208123707024" lon="13.581922585061596"><ele>1030.5</ele><time>2026-05-03T08:32:14.999Z</time></trkpt><trkpt lat="42.33206594774185" lon="13.582094724238525"><ele>1031.0</ele><time>2026-05-03T08:32:15.999Z</time></trkpt><trkpt lat="42.332060232470575" lon="13.582259919479615"><ele>1029.75</ele><time>2026-05-03T08:32:16.999Z</time></trkpt><trkpt lat="42.33207235823634" lon="13.582440505026934"><ele>1028.5</ele><time>2026-05-03T08:32:17.999Z</time></trkpt><trkpt lat="42.332112469509696" lon="13.582639975125964"><ele>1027.25</ele><time>2026-05-03T08:32:18.999Z</time></trkpt><trkpt lat="42.33217316779965" lon="13.582829572150251"><ele>1026.0</ele><time>2026-05-03T08:32:19.999Z</time></trkpt><trkpt lat="42.33221988381852" lon="13.583009318054497"><ele>1029.6666666666667</ele><time>2026-05-03T08:32:20.999Z</time></trkpt><trkpt lat="42.33227031621798" lon="13.583205594038054"><ele>1033.3333333333335</ele><time>2026-05-03T08:32:21.999Z</time></trkpt><trkpt lat="42.33232605729904" lon="13.583414441871986"><ele>1037.0</ele><time>2026-05-03T08:32:22.999Z</time></trkpt><trkpt lat="42.33237276788828" lon="13.583623907822162"><ele>1035.25</ele><time>2026-05-03T08:32:23.999Z</time></trkpt><trkpt lat="42.33241316457386" lon="13.583825120462699"><ele>1033.5</ele><time>2026-05-03T08:32:24.999Z</time></trkpt><trkpt lat="42.33244861890386" lon="13.584017623409512"><ele>1031.75</ele><time>2026-05-03T08:32:25.999Z</time></trkpt><trkpt lat="42.33247284185763" lon="13.584205461325046"><ele>1030.0</ele><time>2026-05-03T08:32:26.999Z</time></trkpt><trkpt lat="42.33248501217828" lon="13.584428833643795"><ele>1028.6666666666665</ele><time>2026-05-03T08:32:27.999Z</time></trkpt><trkpt lat="42.33247893739681" lon="13.58466017360069"><ele>1027.3333333333333</ele><time>2026-05-03T08:32:28.999Z</time></trkpt><trkpt lat="42.332472830809664" lon="13.584878832701957"><ele>1026.0</ele><time>2026-05-03T08:32:29.999Z</time></trkpt><trkpt lat="42.33247267865906" lon="13.585091332852715"><ele>1026.0</ele><time>2026-05-03T08:32:30.999Z</time></trkpt><trkpt lat="42.33247585713147" lon="13.585295471811651"><ele>1026.0</ele><time>2026-05-03T08:32:31.999Z</time></trkpt><trkpt lat="42.33247806069544" lon="13.58547999438046"><ele>1026.0</ele><time>2026-05-03T08:32:32.999Z</time></trkpt><trkpt lat="42.33246009435615" lon="13.585651796739441"><ele>1026.0</ele><time>2026-05-03T08:32:33.999Z</time></trkpt><trkpt lat="42.332404034276784" lon="13.585814293964546"><ele>1025.0</ele><time>2026-05-03T08:32:34.999Z</time></trkpt><trkpt lat="42.33232301992475" lon="13.585972111688019"><ele>1024.0</ele><time>2026-05-03T08:32:35.999Z</time></trkpt><trkpt lat="42.33224043188518" lon="13.586134986986606"><ele>1023.0</ele><time>2026-05-03T08:32:36.999Z</time></trkpt><trkpt lat="42.33216749364001" lon="13.586298976236023"><ele>1022.0</ele><time>2026-05-03T08:32:37.999Z</time></trkpt><trkpt lat="42.33208805830522" lon="13.586479508780885"><ele>1018.6666666666667</ele><time>2026-05-03T08:32:38.999Z</time></trkpt><trkpt lat="42.33199959785145" lon="13.586666835999619"><ele>1015.3333333333333</ele><time>2026-05-03T08:32:39.999Z</time></trkpt><trkpt lat="42.33191248941735" lon="13.586846722749469"><ele>1012.0</ele><time>2026-05-03T08:32:40.999Z</time></trkpt><trkpt lat="42.33182418121539" lon="13.587035810360343"><ele>1012.0</ele><time>2026-05-03T08:32:41.999Z</time></trkpt><trkpt lat="42.331736517925926" lon="13.587226896048703"><ele>1012.0</ele><time>2026-05-03T08:32:42.999Z</time></trkpt><trkpt lat="42.33165159924679" lon="13.58741532792707"><ele>1012.0</ele><time>2026-05-03T08:32:43.999Z</time></trkpt><trkpt lat="42.331567431403094" lon="13.587602244689402"><ele>1012.0</ele><time>2026-05-03T08:32:44.999Z</time></trkpt><trkpt lat="42.331489411154394" lon="13.587777787449932"><ele>1012.0</ele><time>2026-05-03T08:32:45.999Z</time></trkpt><trkpt lat="42.33141123726372" lon="13.587943749251018"><ele>1012.0</ele><time>2026-05-03T08:32:46.999Z</time></trkpt><trkpt lat="42.33133294009243" lon="13.588107904750073"><ele>1012.0</ele><time>2026-05-03T08:32:47.999Z</time></trkpt><trkpt lat="42.33126152020084" lon="13.588276438312949"><ele>1008.75</ele><time>2026-05-03T08:32:48.999Z</time></trkpt><trkpt lat="42.33119929285634" lon="13.588448760381878"><ele>1005.5</ele><time>2026-05-03T08:32:49.999Z</time></trkpt><trkpt lat="42.3311464813236" lon="13.588624495107682"><ele>1002.25</ele><time>2026-05-03T08:32:50.999Z</time></trkpt><trkpt lat="42.3310976892827" lon="13.588801455595036"><ele>999.0</ele><time>2026-05-03T08:32:51.999Z</time></trkpt><trkpt lat="42.33105206858408" lon="13.588976435533436"><ele>999.0</ele><time>2026-05-03T08:32:52.999Z</time></trkpt><trkpt lat="42.33100447164" lon="13.58914470538525"><ele>999.0</ele><time>2026-05-03T08:32:53.999Z</time></trkpt><trkpt lat="42.33095378347718" lon="13.58930921353778"><ele>999.0</ele><time>2026-05-03T08:32:54.999Z</time></trkpt><trkpt lat="42.33090400416364" lon="13.589473567236015"><ele>999.0</ele><time>2026-05-03T08:32:55.999Z</time></trkpt><trkpt lat="42.33084574899663" lon="13.589633288976497"><ele>999.25</ele><time>2026-05-03T08:32:56.999Z</time></trkpt><trkpt lat="42.33076656203647" lon="13.589776478191022"><ele>999.5</ele><time>2026-05-03T08:32:57.999Z</time></trkpt><trkpt lat="42.33066265924444" lon="13.589889971604073"><ele>999.75</ele><time>2026-05-03T08:32:58.999Z</time></trkpt><trkpt lat="42.33053783618593" lon="13.589966298788019"><ele>1000.0</ele><time>2026-05-03T08:32:59.999Z</time></trkpt><trkpt lat="42.330404701003296" lon="13.590032577010193"><ele>998.4</ele><time>2026-05-03T08:33:00.999Z</time></trkpt><trkpt lat="42.33027626828128" lon="13.590093026875929"><ele>996.8</ele><time>2026-05-03T08:33:01.999Z</time></trkpt><trkpt lat="42.330170421897" lon="13.590133097887026"><ele>995.2</ele><time>2026-05-03T08:33:02.999Z</time></trkpt><trkpt lat="42.33007952575545" lon="13.590150267638165"><ele>993.6</ele><time>2026-05-03T08:33:03.999Z</time></trkpt><trkpt lat="42.32999840779102" lon="13.590166182190949"><ele>992.0</ele><time>2026-05-03T08:33:04.999Z</time></trkpt><trkpt lat="42.32992700688097" lon="13.590196750226628"><ele>992.0000000000001</ele><time>2026-05-03T08:33:05.999Z</time></trkpt><trkpt lat="42.329864615596854" lon="13.590255866705963"><ele>992.0</ele><time>2026-05-03T08:33:06.999Z</time></trkpt><trkpt lat="42.32981479624127" lon="13.590340214908057"><ele>992.0</ele><time>2026-05-03T08:33:07.999Z</time></trkpt><trkpt lat="42.32976726203667" lon="13.590414736054809"><ele>992.0</ele><time>2026-05-03T08:33:08.999Z</time></trkpt><trkpt lat="42.32971646931494" lon="13.590479335449187"><ele>992.0000000000001</ele><time>2026-05-03T08:33:09.999Z</time></trkpt><trkpt lat="42.32965959115305" lon="13.590576770508832"><ele>992.0</ele><time>2026-05-03T08:33:11.999Z</time></trkpt><trkpt lat="42.32970618868681" lon="13.5906746318331"><ele>993.0</ele><time>2026-05-03T08:33:13.999Z</time></trkpt><trkpt lat="42.32982558793249" lon="13.590745644273419"><ele>994.0</ele><time>2026-05-03T08:33:15.999Z</time></trkpt><trkpt lat="42.32990113562587" lon="13.590779275287584"><ele>995.0</ele><time>2026-05-03T08:33:16.999Z</time></trkpt><trkpt lat="42.32997955200136" lon="13.590822135108207"><ele>996.0</ele><time>2026-05-03T08:33:17.999Z</time></trkpt><trkpt lat="42.330071803101944" lon="13.590876143950467"><ele>997.0</ele><time>2026-05-03T08:33:18.999Z</time></trkpt><trkpt lat="42.33015088098256" lon="13.590928263790117"><ele>997.0</ele><time>2026-05-03T08:33:19.999Z</time></trkpt><trkpt lat="42.330212142686555" lon="13.590962748022308"><ele>997.0</ele><time>2026-05-03T08:33:20.999Z</time></trkpt><trkpt lat="42.330293648503556" lon="13.591036304015072"><ele>997.0</ele><time>2026-05-03T08:33:22.999Z</time></trkpt><trkpt lat="42.33038435437755" lon="13.591117765841727"><ele>997.0</ele><time>2026-05-03T08:33:24.999Z</time></trkpt><trkpt lat="42.33047989883586" lon="13.591227640386363"><ele>997.0</ele><time>2026-05-03T08:33:26.999Z</time></trkpt><trkpt lat="42.3305347047936" lon="13.591290437654633"><ele>1000.2</ele><time>2026-05-03T08:33:27.999Z</time></trkpt><trkpt lat="42.33060237923541" lon="13.59135981452862"><ele>1003.4000000000001</ele><time>2026-05-03T08:33:28.999Z</time></trkpt><trkpt lat="42.33067994277916" lon="13.59143749741126"><ele>1006.5999999999999</ele><time>2026-05-03T08:33:29.999Z</time></trkpt><trkpt lat="42.3307618616698" lon="13.591515456219243"><ele>1009.8</ele><time>2026-05-03T08:33:30.999Z</time></trkpt><trkpt lat="42.33084909168326" lon="13.591605185639738"><ele>1013.0</ele><time>2026-05-03T08:33:31.999Z</time></trkpt><trkpt lat="42.330943581081584" lon="13.591699756295865"><ele>1013.0</ele><time>2026-05-03T08:33:32.999Z</time></trkpt><trkpt lat="42.331035768356784" lon="13.59181531488851"><ele>1013.0</ele><time>2026-05-03T08:33:33.999Z</time></trkpt><trkpt lat="42.33113230979638" lon="13.59195371105483"><ele>1013.0</ele><time>2026-05-03T08:33:34.999Z</time></trkpt><trkpt lat="42.33123928048039" lon="13.59212325338954"><ele>1013.0</ele><time>2026-05-03T08:33:35.999Z</time></trkpt><trkpt lat="42.33135170078184" lon="13.592322814112402"><ele>1017.3333333333334</ele><time>2026-05-03T08:33:36.999Z</time></trkpt><trkpt lat="42.331462959891724" lon="13.592550547216858"><ele>1021.6666666666667</ele><time>2026-05-03T08:33:37.999Z</time></trkpt><trkpt lat="42.33158364402382" lon="13.592800470469058"><ele>1026.0</ele><time>2026-05-03T08:33:38.999Z</time></trkpt><trkpt lat="42.331711836541835" lon="13.59303561634722"><ele>1027.75</ele><time>2026-05-03T08:33:39.999Z</time></trkpt><trkpt lat="42.33181626103134" lon="13.593238372820268"><ele>1029.5</ele><time>2026-05-03T08:33:40.999Z</time></trkpt><trkpt lat="42.33189626509172" lon="13.593398859287491"><ele>1031.25</ele><time>2026-05-03T08:33:41.999Z</time></trkpt><trkpt lat="42.331949830500044" lon="13.593521220061055"><ele>1033.0</ele><time>2026-05-03T08:33:42.999Z</time></trkpt><trkpt lat="42.332005811028225" lon="13.5936286132938"><ele>1034.5</ele><time>2026-05-03T08:33:43.999Z</time></trkpt><trkpt lat="42.33206027774599" lon="13.593710135615773"><ele>1036.0</ele><time>2026-05-03T08:33:44.999Z</time></trkpt><trkpt lat="42.33211853693395" lon="13.593800649046383"><ele>1037.5</ele><time>2026-05-03T08:33:46.999Z</time></trkpt><trkpt lat="42.33210249535216" lon="13.593917375857842"><ele>1039.0</ele><time>2026-05-03T08:33:48.999Z</time></trkpt><trkpt lat="42.33205608237493" lon="13.593980890918099"><ele>1040.5</ele><time>2026-05-03T08:33:49.999Z</time></trkpt><trkpt lat="42.33199461030244" lon="13.594059751871738"><ele>1042.0</ele><time>2026-05-03T08:33:50.999Z</time></trkpt><trkpt lat="42.331951959424565" lon="13.594169424559244"><ele>1042.0</ele><time>2026-05-03T08:33:51.999Z</time></trkpt><trkpt lat="42.331910083263246" lon="13.594301917322777"><ele>1042.0</ele><time>2026-05-03T08:33:52.999Z</time></trkpt><trkpt lat="42.331853122131214" lon="13.594421696296001"><ele>1042.0</ele><time>2026-05-03T08:33:53.999Z</time></trkpt><trkpt lat="42.33179110225324" lon="13.594502857703002"><ele>1042.0</ele><time>2026-05-03T08:33:54.999Z</time></trkpt><trkpt lat="42.3317234591831" lon="13.594600977062662"><ele>1042.0</ele><time>2026-05-03T08:33:55.999Z</time></trkpt><trkpt lat="42.3316492428507" lon="13.594722080400789"><ele>1041.2</ele><time>2026-05-03T08:33:56.999Z</time></trkpt><trkpt lat="42.331605039207325" lon="13.594825796240047"><ele>1040.4</ele><time>2026-05-03T08:33:57.999Z</time></trkpt><trkpt lat="42.331623199230904" lon="13.594930543156352"><ele>1039.6</ele><time>2026-05-03T08:34:00.999Z</time></trkpt><trkpt lat="42.33170626849991" lon="13.59496723641869"><ele>1038.8</ele><time>2026-05-03T08:34:02.999Z</time></trkpt><trkpt lat="42.331813428388315" lon="13.594959589654621"><ele>1038.0</ele><time>2026-05-03T08:34:04.999Z</time></trkpt><trkpt lat="42.33187567945587" lon="13.59509357193314"><ele>1038.0</ele><time>2026-05-03T08:34:06.999Z</time></trkpt><trkpt lat="42.33189545275713" lon="13.595220854529009"><ele>1038.0</ele><time>2026-05-03T08:34:07.999Z</time></trkpt><trkpt lat="42.33191070567157" lon="13.595366242907048"><ele>1038.0</ele><time>2026-05-03T08:34:08.999Z</time></trkpt><trkpt lat="42.33191930935353" lon="13.595514275544122"><ele>1038.0</ele><time>2026-05-03T08:34:09.999Z</time></trkpt><trkpt lat="42.331930197105635" lon="13.595636840269663"><ele>1038.0</ele><time>2026-05-03T08:34:10.999Z</time></trkpt><trkpt lat="42.33193961946065" lon="13.595744181958091"><ele>1037.8</ele><time>2026-05-03T08:34:11.999Z</time></trkpt><trkpt lat="42.33187872095678" lon="13.59589843898201"><ele>1037.6</ele><time>2026-05-03T08:34:13.999Z</time></trkpt><trkpt lat="42.3318062058644" lon="13.595992050528098"><ele>1037.4</ele><time>2026-05-03T08:34:14.999Z</time></trkpt><trkpt lat="42.3317306366993" lon="13.596084517251107"><ele>1037.2</ele><time>2026-05-03T08:34:15.999Z</time></trkpt><trkpt lat="42.331677077566795" lon="13.59618465946825"><ele>1037.0</ele><time>2026-05-03T08:34:16.999Z</time></trkpt><trkpt lat="42.33163601664602" lon="13.59625423504538"><ele>1037.0</ele><time>2026-05-03T08:34:17.999Z</time></trkpt><trkpt lat="42.33152854918171" lon="13.59626609447693"><ele>1037.0</ele><time>2026-05-03T08:34:19.999Z</time></trkpt><trkpt lat="42.331450701208965" lon="13.596217609405763"><ele>1037.0</ele><time>2026-05-03T08:34:20.999Z</time></trkpt><trkpt lat="42.33136385740419" lon="13.596168133109085"><ele>1037.0</ele><time>2026-05-03T08:34:21.999Z</time></trkpt><trkpt lat="42.33127229373259" lon="13.596157655481418"><ele>1037.0</ele><time>2026-05-03T08:34:22.999Z</time></trkpt><trkpt lat="42.33117037100887" lon="13.596205467244822"><ele>1035.0</ele><time>2026-05-03T08:34:23.999Z</time></trkpt><trkpt lat="42.33106659860262" lon="13.596237122596612"><ele>1033.0</ele><time>2026-05-03T08:34:24.999Z</time></trkpt><trkpt lat="42.33097943278511" lon="13.596284702496492"><ele>1031.0</ele><time>2026-05-03T08:34:25.999Z</time></trkpt><trkpt lat="42.33089971114899" lon="13.596369854269922"><ele>1029.0</ele><time>2026-05-03T08:34:26.999Z</time></trkpt><trkpt lat="42.33084089576557" lon="13.596486647316578"><ele>1027.0</ele><time>2026-05-03T08:34:27.999Z</time></trkpt><trkpt lat="42.33078793830067" lon="13.596618228387712"><ele>1027.0</ele><time>2026-05-03T08:34:28.999Z</time></trkpt><trkpt lat="42.330733552607654" lon="13.596735849096843"><ele>1027.0</ele><time>2026-05-03T08:34:29.999Z</time></trkpt><trkpt lat="42.33069834324553" lon="13.596863452301916"><ele>1027.0</ele><time>2026-05-03T08:34:30.999Z</time></trkpt><trkpt lat="42.3306872158459" lon="13.59700276273419"><ele>1027.0</ele><time>2026-05-03T08:34:31.999Z</time></trkpt><trkpt lat="42.330681343762265" lon="13.597137551580923"><ele>1027.0</ele><time>2026-05-03T08:34:32.999Z</time></trkpt><trkpt lat="42.33066814042973" lon="13.597274369999766"><ele>1027.2</ele><time>2026-05-03T08:34:33.999Z</time></trkpt><trkpt lat="42.33064999727264" lon="13.597382098754707"><ele>1027.4</ele><time>2026-05-03T08:34:34.999Z</time></trkpt><trkpt lat="42.33061708795745" lon="13.597479972268887"><ele>1027.6</ele><time>2026-05-03T08:34:35.999Z</time></trkpt><trkpt lat="42.33054464881784" lon="13.597534947061309"><ele>1027.8</ele><time>2026-05-03T08:34:36.999Z</time></trkpt><trkpt lat="42.330450972156946" lon="13.597584676495376"><ele>1028.0</ele><time>2026-05-03T08:34:37.999Z</time></trkpt><trkpt lat="42.33036335568881" lon="13.597664488724005"><ele>1027.2</ele><time>2026-05-03T08:34:38.999Z</time></trkpt><trkpt lat="42.33029819721291" lon="13.597764477535316"><ele>1026.4</ele><time>2026-05-03T08:34:39.999Z</time></trkpt><trkpt lat="42.33022145979208" lon="13.597882821292044"><ele>1025.6000000000001</ele><time>2026-05-03T08:34:40.999Z</time></trkpt><trkpt lat="42.330148352059524" lon="13.597968457431584"><ele>1024.8</ele><time>2026-05-03T08:34:41.999Z</time></trkpt><trkpt lat="42.33007424155164" lon="13.59801604761741"><ele>1024.0</ele><time>2026-05-03T08:34:42.999Z</time></trkpt><trkpt lat="42.32997200456404" lon="13.598041539239038"><ele>1024.0</ele><time>2026-05-03T08:34:43.999Z</time></trkpt><trkpt lat="42.32987878230743" lon="13.59805021755741"><ele>1024.0</ele><time>2026-05-03T08:34:44.999Z</time></trkpt><trkpt lat="42.3297878342405" lon="13.598109258808424"><ele>1024.0</ele><time>2026-05-03T08:34:45.999Z</time></trkpt><trkpt lat="42.32969424893779" lon="13.598206356517386"><ele>1024.0</ele><time>2026-05-03T08:34:46.999Z</time></trkpt><trkpt lat="42.32958665244893" lon="13.59830789227717"><ele>1024.0</ele><time>2026-05-03T08:34:47.999Z</time></trkpt><trkpt lat="42.329492529467444" lon="13.598382135902735"><ele>1024.3333333333333</ele><time>2026-05-03T08:34:48.999Z</time></trkpt><trkpt lat="42.3294141755086" lon="13.598479987125204"><ele>1024.6666666666665</ele><time>2026-05-03T08:34:49.999Z</time></trkpt><trkpt lat="42.32935276521457" lon="13.598576322195667"><ele>1025.0</ele><time>2026-05-03T08:34:50.999Z</time></trkpt><trkpt lat="42.3292811059671" lon="13.598648457936353"><ele>1025.3333333333333</ele><time>2026-05-03T08:34:52.999Z</time></trkpt><trkpt lat="42.329217590976256" lon="13.598641898972192"><ele>1025.6666666666667</ele><time>2026-05-03T08:34:53.999Z</time></trkpt><trkpt lat="42.329138092504046" lon="13.598658136803511"><ele>1026.0</ele><time>2026-05-03T08:34:54.999Z</time></trkpt><trkpt lat="42.32906241644974" lon="13.598707358125406"><ele>1026.0</ele><time>2026-05-03T08:34:55.999Z</time></trkpt><trkpt lat="42.32900546449178" lon="13.598783093043377"><ele>1026.0</ele><time>2026-05-03T08:34:56.999Z</time></trkpt><trkpt lat="42.32893979293864" lon="13.598892524304977"><ele>1026.0</ele><time>2026-05-03T08:34:57.999Z</time></trkpt><trkpt lat="42.32887799688899" lon="13.598994592328447"><ele>1026.0</ele><time>2026-05-03T08:34:58.999Z</time></trkpt><trkpt lat="42.32882108404202" lon="13.599071545395942"><ele>1026.0</ele><time>2026-05-03T08:34:59.999Z</time></trkpt><trkpt lat="42.32876733771946" lon="13.599146895126694"><ele>1026.0</ele><time>2026-05-03T08:35:00.999Z</time></trkpt><trkpt lat="42.32871153163451" lon="13.59923673623816"><ele>1025.1666666666667</ele><time>2026-05-03T08:35:01.999Z</time></trkpt><trkpt lat="42.328650176193534" lon="13.599346477330224"><ele>1024.3333333333333</ele><time>2026-05-03T08:35:02.999Z</time></trkpt><trkpt lat="42.32859969038791" lon="13.599459635667264"><ele>1023.5</ele><time>2026-05-03T08:35:03.999Z</time></trkpt><trkpt lat="42.32855303512675" lon="13.59955392281301"><ele>1022.6666666666666</ele><time>2026-05-03T08:35:04.999Z</time></trkpt><trkpt lat="42.328494689775326" lon="13.599619818184037"><ele>1021.8333333333333</ele><time>2026-05-03T08:35:05.999Z</time></trkpt><trkpt lat="42.328422686390866" lon="13.599681846891539"><ele>1021.0</ele><time>2026-05-03T08:35:06.999Z</time></trkpt><trkpt lat="42.328345245725025" lon="13.599760000175554"><ele>1021.0</ele><time>2026-05-03T08:35:07.999Z</time></trkpt><trkpt lat="42.32827002401372" lon="13.599839948742396"><ele>1020.9999999999999</ele><time>2026-05-03T08:35:08.999Z</time></trkpt><trkpt lat="42.3281993775489" lon="13.599906071173498"><ele>1020.9999999999999</ele><time>2026-05-03T08:35:09.999Z</time></trkpt><trkpt lat="42.32812898871743" lon="13.599991023213281"><ele>1021.0</ele><time>2026-05-03T08:35:10.999Z</time></trkpt><trkpt lat="42.32806535524319" lon="13.600088491556813"><ele>1021.0</ele><time>2026-05-03T08:35:11.999Z</time></trkpt><trkpt lat="42.32802035636167" lon="13.600198760288988"><ele>1020.4</ele><time>2026-05-03T08:35:12.999Z</time></trkpt><trkpt lat="42.32797540577081" lon="13.600337532806584"><ele>1019.8</ele><time>2026-05-03T08:35:13.999Z</time></trkpt><trkpt lat="42.32791204206042" lon="13.600449950515635"><ele>1019.1999999999999</ele><time>2026-05-03T08:35:14.999Z</time></trkpt><trkpt lat="42.32781190456156" lon="13.60053781170627"><ele>1018.5999999999999</ele><time>2026-05-03T08:35:15.999Z</time></trkpt><trkpt lat="42.327724492794395" lon="13.600630726938576"><ele>1018.0</ele><time>2026-05-03T08:35:16.999Z</time></trkpt><trkpt lat="42.32765360382077" lon="13.600735580938611"><ele>1018.0</ele><time>2026-05-03T08:35:17.999Z</time></trkpt><trkpt lat="42.32759410565162" lon="13.60084385066362"><ele>1018.0</ele><time>2026-05-03T08:35:18.999Z</time></trkpt><trkpt lat="42.32752693938038" lon="13.600968685442288"><ele>1018.0</ele><time>2026-05-03T08:35:19.999Z</time></trkpt><trkpt lat="42.32747483917475" lon="13.601098752035522"><ele>1018.0</ele><time>2026-05-03T08:35:20.999Z</time></trkpt><trkpt lat="42.32740789882864" lon="13.601248501009064"><ele>1017.8333333333333</ele><time>2026-05-03T08:35:21.999Z</time></trkpt><trkpt lat="42.32734946130183" lon="13.601357750051669"><ele>1017.6666666666666</ele><time>2026-05-03T08:35:22.999Z</time></trkpt><trkpt lat="42.327284014432614" lon="13.601460667606101"><ele>1017.5</ele><time>2026-05-03T08:35:23.999Z</time></trkpt><trkpt lat="42.3272298475509" lon="13.60155685799834"><ele>1017.3333333333333</ele><time>2026-05-03T08:35:24.999Z</time></trkpt><trkpt lat="42.327198916282434" lon="13.601653664647712"><ele>1017.1666666666666</ele><time>2026-05-03T08:35:25.999Z</time></trkpt><trkpt lat="42.3271696053553" lon="13.601738908513084"><ele>1017.0</ele><time>2026-05-03T08:35:26.999Z</time></trkpt><trkpt lat="42.327105754946885" lon="13.601852004069475"><ele>1017.0</ele><time>2026-05-03T08:35:28.999Z</time></trkpt><trkpt lat="42.32705749477783" lon="13.601936330497296"><ele>1017.0</ele><time>2026-05-03T08:35:30.999Z</time></trkpt><trkpt lat="42.32701162652999" lon="13.602011995957373"><ele>1017.0</ele><time>2026-05-03T08:35:39.999Z</time></trkpt><trkpt lat="42.32698786416412" lon="13.60211177555967"><ele>1017.0</ele><time>2026-05-03T08:35:43.999Z</time></trkpt><trkpt lat="42.32698323601684" lon="13.602196793227856"><ele>1017.0</ele><time>2026-05-03T08:35:45.999Z</time></trkpt><trkpt lat="42.32695562485211" lon="13.602285432047593"><ele>1017.0</ele><time>2026-05-03T08:35:47.999Z</time></trkpt><trkpt lat="42.32690087348989" lon="13.602418471865748"><ele>1017.0</ele><time>2026-05-03T08:35:49.999Z</time></trkpt><trkpt lat="42.32688576988666" lon="13.60251930248396"><ele>1017.0</ele><time>2026-05-03T08:35:50.999Z</time></trkpt><trkpt lat="42.32687220887485" lon="13.602647965459715"><ele>1017.0</ele><time>2026-05-03T08:35:51.999Z</time></trkpt><trkpt lat="42.32683065790345" lon="13.602773499682174"><ele>1017.0</ele><time>2026-05-03T08:35:52.999Z</time></trkpt><trkpt lat="42.32677178027929" lon="13.602891252106446"><ele>1017.0</ele><time>2026-05-03T08:35:53.999Z</time></trkpt><trkpt lat="42.32670239285509" lon="13.603011892092045"><ele>1017.0</ele><time>2026-05-03T08:35:54.999Z</time></trkpt><trkpt lat="42.32664923125471" lon="13.603129901290307"><ele>1017.0</ele><time>2026-05-03T08:35:55.999Z</time></trkpt><trkpt lat="42.32658384790408" lon="13.603238715066782"><ele>1017.0</ele><time>2026-05-03T08:35:56.999Z</time></trkpt><trkpt lat="42.32651222286941" lon="13.603328913122576"><ele>1017.0</ele><time>2026-05-03T08:35:57.999Z</time></trkpt><trkpt lat="42.326437756489106" lon="13.603423258335171"><ele>1017.0</ele><time>2026-05-03T08:35:58.999Z</time></trkpt><trkpt lat="42.32635629359175" lon="13.603517887573187"><ele>1016.0</ele><time>2026-05-03T08:35:59.999Z</time></trkpt><trkpt lat="42.32627544479748" lon="13.603615215438221"><ele>1015.0</ele><time>2026-05-03T08:36:00.999Z</time></trkpt><trkpt lat="42.326201623120006" lon="13.603707029481482"><ele>1014.0</ele><time>2026-05-03T08:36:01.999Z</time></trkpt><trkpt lat="42.32614211966841" lon="13.603803444032003"><ele>1013.0</ele><time>2026-05-03T08:36:02.999Z</time></trkpt><trkpt lat="42.32607550022348" lon="13.603891977090056"><ele>1012.0</ele><time>2026-05-03T08:36:03.999Z</time></trkpt><trkpt lat="42.326001195399414" lon="13.603982423089006"><ele>1011.9999999999999</ele><time>2026-05-03T08:36:04.999Z</time></trkpt><trkpt lat="42.325937600166284" lon="13.604065742261579"><ele>1012.0</ele><time>2026-05-03T08:36:05.999Z</time></trkpt><trkpt lat="42.32588340568627" lon="13.604164402593788"><ele>1012.0</ele><time>2026-05-03T08:36:06.999Z</time></trkpt><trkpt lat="42.32583966910809" lon="13.604269442891772"><ele>1012.0</ele><time>2026-05-03T08:36:07.999Z</time></trkpt><trkpt lat="42.32580774496006" lon="13.60437613403607"><ele>1011.9999999999999</ele><time>2026-05-03T08:36:08.999Z</time></trkpt><trkpt lat="42.32576466485148" lon="13.604467581434434"><ele>1012.0</ele><time>2026-05-03T08:36:09.999Z</time></trkpt><trkpt lat="42.32568472888659" lon="13.604552690266853"><ele>1011.8</ele><time>2026-05-03T08:36:10.999Z</time></trkpt><trkpt lat="42.32560839420716" lon="13.604622424454853"><ele>1011.6</ele><time>2026-05-03T08:36:11.999Z</time></trkpt><trkpt lat="42.325535397079236" lon="13.604723521446124"><ele>1011.3999999999999</ele><time>2026-05-03T08:36:12.999Z</time></trkpt><trkpt lat="42.32548462757272" lon="13.604836926833055"><ele>1011.1999999999999</ele><time>2026-05-03T08:36:13.999Z</time></trkpt><trkpt lat="42.32544683456879" lon="13.604954854850353"><ele>1011.0</ele><time>2026-05-03T08:36:14.999Z</time></trkpt><trkpt lat="42.325405702745954" lon="13.605056660344491"><ele>1011.0</ele><time>2026-05-03T08:36:15.999Z</time></trkpt><trkpt lat="42.32535095870766" lon="13.605146947096578"><ele>1010.9999999999999</ele><time>2026-05-03T08:36:16.999Z</time></trkpt><trkpt lat="42.32528246485964" lon="13.605240037928134"><ele>1010.9999999999999</ele><time>2026-05-03T08:36:17.999Z</time></trkpt><trkpt lat="42.3252261040587" lon="13.605347651797574"><ele>1011.0</ele><time>2026-05-03T08:36:18.999Z</time></trkpt><trkpt lat="42.32518350180966" lon="13.605451618955302"><ele>1011.0</ele><time>2026-05-03T08:36:19.999Z</time></trkpt><trkpt lat="42.32514155340248" lon="13.605566576303898"><ele>1010.0</ele><time>2026-05-03T08:36:20.999Z</time></trkpt><trkpt lat="42.32511003152159" lon="13.60566340567289"><ele>1009.0</ele><time>2026-05-03T08:36:21.999Z</time></trkpt><trkpt lat="42.325079576136154" lon="13.605762916008521"><ele>1008.0</ele><time>2026-05-03T08:36:22.999Z</time></trkpt><trkpt lat="42.3250465678996" lon="13.605878733474425"><ele>1007.0</ele><time>2026-05-03T08:36:23.999Z</time></trkpt><trkpt lat="42.32500782627335" lon="13.60599257025957"><ele>1006.0</ele><time>2026-05-03T08:36:24.999Z</time></trkpt><trkpt lat="42.32499732230293" lon="13.606097687883628"><ele>1005.0</ele><time>2026-05-03T08:36:25.999Z</time></trkpt><trkpt lat="42.325008290764046" lon="13.606198480892633"><ele>1005.0</ele><time>2026-05-03T08:36:26.999Z</time></trkpt><trkpt lat="42.32501413314514" lon="13.606283940235274"><ele>1005.0</ele><time>2026-05-03T08:36:27.999Z</time></trkpt><trkpt lat="42.32494994714248" lon="13.606381249447386"><ele>1005.0</ele><time>2026-05-03T08:36:29.999Z</time></trkpt><trkpt lat="42.32487855867044" lon="13.606447875870947"><ele>1005.0</ele><time>2026-05-03T08:36:30.999Z</time></trkpt><trkpt lat="42.32479426403621" lon="13.606522320535397"><ele>1005.0</ele><time>2026-05-03T08:36:31.999Z</time></trkpt><trkpt lat="42.324738640082124" lon="13.60658968988895"><ele>1005.0</ele><time>2026-05-03T08:36:32.999Z</time></trkpt><trkpt lat="42.324659369144875" lon="13.606713321112979"><ele>1004.2</ele><time>2026-05-03T08:36:34.999Z</time></trkpt><trkpt lat="42.32459266174846" lon="13.606831293110744"><ele>1003.4</ele><time>2026-05-03T08:36:35.999Z</time></trkpt><trkpt lat="42.324528417042714" lon="13.606865811510064"><ele>1002.5999999999999</ele><time>2026-05-03T08:36:36.999Z</time></trkpt><trkpt lat="42.32445307080107" lon="13.606894332167919"><ele>1001.8</ele><time>2026-05-03T08:36:37.999Z</time></trkpt><trkpt lat="42.32432601323535" lon="13.606984255060297"><ele>1001.0</ele><time>2026-05-03T08:36:39.999Z</time></trkpt><trkpt lat="42.32426456926374" lon="13.60701717626441"><ele>999.3333333333334</ele><time>2026-05-03T08:36:40.999Z</time></trkpt><trkpt lat="42.324176631581196" lon="13.607128694640018"><ele>997.6666666666667</ele><time>2026-05-03T08:36:42.999Z</time></trkpt><trkpt lat="42.32412297737829" lon="13.607217324694233"><ele>996.0</ele><time>2026-05-03T08:36:43.999Z</time></trkpt><trkpt lat="42.324073328555606" lon="13.60729143796697"><ele>994.3333333333333</ele><time>2026-05-03T08:36:44.999Z</time></trkpt><trkpt lat="42.32402550549152" lon="13.607359276704933"><ele>992.6666666666666</ele><time>2026-05-03T08:36:45.999Z</time></trkpt><trkpt lat="42.32397189042809" lon="13.607431221638608"><ele>991.0</ele><time>2026-05-03T08:36:46.999Z</time></trkpt><trkpt lat="42.32391621723384" lon="13.607509120916852"><ele>990.6666666666666</ele><time>2026-05-03T08:36:47.999Z</time></trkpt><trkpt lat="42.3238753858525" lon="13.607672198673654"><ele>990.3333333333333</ele><time>2026-05-03T08:36:49.999Z</time></trkpt><trkpt lat="42.32387158031286" lon="13.607774291785365"><ele>990.0</ele><time>2026-05-03T08:36:50.999Z</time></trkpt><trkpt lat="42.323857901236856" lon="13.607864103470767"><ele>989.6666666666667</ele><time>2026-05-03T08:36:51.999Z</time></trkpt><trkpt lat="42.32381627596989" lon="13.607940817894544"><ele>989.3333333333334</ele><time>2026-05-03T08:36:52.999Z</time></trkpt><trkpt lat="42.323773651843034" lon="13.608049045577113"><ele>989.0</ele><time>2026-05-03T08:36:53.999Z</time></trkpt><trkpt lat="42.32373234606514" lon="13.608165929150323"><ele>989.0000000000001</ele><time>2026-05-03T08:36:54.999Z</time></trkpt><trkpt lat="42.32367784866254" lon="13.608246137122375"><ele>989.0</ele><time>2026-05-03T08:36:55.999Z</time></trkpt><trkpt lat="42.323648344454526" lon="13.6083385831068"><ele>989.0</ele><time>2026-05-03T08:36:56.999Z</time></trkpt><trkpt lat="42.3236121990948" lon="13.608408848935234"><ele>989.0</ele><time>2026-05-03T08:36:57.999Z</time></trkpt><trkpt lat="42.32357237209047" lon="13.60854750434881"><ele>989.0000000000001</ele><time>2026-05-03T08:36:59.999Z</time></trkpt><trkpt lat="42.323520441901515" lon="13.60868540336399"><ele>989.0</ele><time>2026-05-03T08:37:01.999Z</time></trkpt><trkpt lat="42.32345490918929" lon="13.608851261965105"><ele>986.4000000000001</ele><time>2026-05-03T08:37:03.999Z</time></trkpt><trkpt lat="42.323407286252866" lon="13.608961704719338"><ele>983.8000000000001</ele><time>2026-05-03T08:37:04.999Z</time></trkpt><trkpt lat="42.32334380544185" lon="13.609060523860128"><ele>981.1999999999999</ele><time>2026-05-03T08:37:05.999Z</time></trkpt><trkpt lat="42.323278517749266" lon="13.609167205814492"><ele>978.5999999999999</ele><time>2026-05-03T08:37:06.999Z</time></trkpt><trkpt lat="42.3232266478123" lon="13.609266830822223"><ele>976.0</ele><time>2026-05-03T08:37:07.999Z</time></trkpt><trkpt lat="42.323179863399695" lon="13.609377653995274"><ele>975.9999999999999</ele><time>2026-05-03T08:37:08.999Z</time></trkpt><trkpt lat="42.323141323426945" lon="13.609475318306716"><ele>976.0</ele><time>2026-05-03T08:37:09.999Z</time></trkpt><trkpt lat="42.32309602504915" lon="13.609579483588"><ele>976.0</ele><time>2026-05-03T08:37:10.999Z</time></trkpt><trkpt lat="42.32304632370194" lon="13.609659114789384"><ele>976.0</ele><time>2026-05-03T08:37:11.999Z</time></trkpt><trkpt lat="42.32299223503653" lon="13.609737159733251"><ele>975.9999999999999</ele><time>2026-05-03T08:37:12.999Z</time></trkpt><trkpt lat="42.322943119525064" lon="13.609834087065042"><ele>976.0</ele><time>2026-05-03T08:37:13.999Z</time></trkpt><trkpt lat="42.32288870577758" lon="13.609929318208621"><ele>975.9999999999999</ele><time>2026-05-03T08:37:14.999Z</time></trkpt><trkpt lat="42.32283508063697" lon="13.610029794521095"><ele>976.0</ele><time>2026-05-03T08:37:15.999Z</time></trkpt><trkpt lat="42.322780679437436" lon="13.610126851674037"><ele>976.0</ele><time>2026-05-03T08:37:16.999Z</time></trkpt><trkpt lat="42.32271566381932" lon="13.610219864408975"><ele>976.0</ele><time>2026-05-03T08:37:17.999Z</time></trkpt><trkpt lat="42.322673980269855" lon="13.610314036010946"><ele>975.9999999999999</ele><time>2026-05-03T08:37:18.999Z</time></trkpt><trkpt lat="42.322640027858256" lon="13.610423134427142"><ele>976.0</ele><time>2026-05-03T08:37:19.999Z</time></trkpt><trkpt lat="42.322611300011886" lon="13.610532621559528"><ele>974.1666666666666</ele><time>2026-05-03T08:37:20.999Z</time></trkpt><trkpt lat="42.32257154635588" lon="13.61063098784813"><ele>972.3333333333333</ele><time>2026-05-03T08:37:21.999Z</time></trkpt><trkpt lat="42.32251494312699" lon="13.610717021369652"><ele>970.5</ele><time>2026-05-03T08:37:22.999Z</time></trkpt><trkpt lat="42.32244869347518" lon="13.610792435404443"><ele>968.6666666666667</ele><time>2026-05-03T08:37:23.999Z</time></trkpt><trkpt lat="42.32237472739744" lon="13.610884318096172"><ele>966.8333333333334</ele><time>2026-05-03T08:37:24.999Z</time></trkpt><trkpt lat="42.322311016929454" lon="13.610971040332124"><ele>965.0</ele><time>2026-05-03T08:37:25.999Z</time></trkpt><trkpt lat="42.322247097885274" lon="13.611051858721085"><ele>965.5000000000001</ele><time>2026-05-03T08:37:26.999Z</time></trkpt><trkpt lat="42.3221876198665" lon="13.611129062746095"><ele>966.0</ele><time>2026-05-03T08:37:27.999Z</time></trkpt><trkpt lat="42.32213555103701" lon="13.611220418861377"><ele>966.5</ele><time>2026-05-03T08:37:28.999Z</time></trkpt><trkpt lat="42.32207784081139" lon="13.611298439797332"><ele>967.0</ele><time>2026-05-03T08:37:29.999Z</time></trkpt><trkpt lat="42.322016833642714" lon="13.611345157092913"><ele>967.5000000000001</ele><time>2026-05-03T08:37:30.999Z</time></trkpt><trkpt lat="42.321953652866284" lon="13.611362744500582"><ele>968.0</ele><time>2026-05-03T08:37:32Z</time></trkpt><trkpt lat="42.321869610106226" lon="13.61147426010634"><ele>966.0000000000001</ele><time>2026-05-03T08:37:34Z</time></trkpt><trkpt lat="42.32181472214699" lon="13.611580374666264"><ele>964.0</ele><time>2026-05-03T08:37:35Z</time></trkpt><trkpt lat="42.321753112195296" lon="13.611663106864325"><ele>962.0</ele><time>2026-05-03T08:37:36Z</time></trkpt><trkpt lat="42.321696538064636" lon="13.611734442087583"><ele>960.0</ele><time>2026-05-03T08:37:37Z</time></trkpt><trkpt lat="42.32165160906427" lon="13.611826022096555"><ele>958.0000000000001</ele><time>2026-05-03T08:37:38Z</time></trkpt><trkpt lat="42.321622975507914" lon="13.611941250637168"><ele>956.0</ele><time>2026-05-03T08:37:39Z</time></trkpt><trkpt lat="42.32159820024391" lon="13.612070131038132"><ele>955.0</ele><time>2026-05-03T08:37:40Z</time></trkpt><trkpt lat="42.32157172332903" lon="13.612195663188631"><ele>953.9999999999999</ele><time>2026-05-03T08:37:41Z</time></trkpt><trkpt lat="42.321542982599986" lon="13.612314568853618"><ele>952.9999999999999</ele><time>2026-05-03T08:37:42Z</time></trkpt><trkpt lat="42.32149867145568" lon="13.612414857113201"><ele>952.0</ele><time>2026-05-03T08:37:43Z</time></trkpt><trkpt lat="42.321432019715076" lon="13.61251326227999"><ele>951.0</ele><time>2026-05-03T08:37:44Z</time></trkpt><trkpt lat="42.321353113997866" lon="13.612611281544636"><ele>950.0</ele><time>2026-05-03T08:37:45Z</time></trkpt><trkpt lat="42.321275070812355" lon="13.612737212805193"><ele>948.9999999999999</ele><time>2026-05-03T08:37:46Z</time></trkpt><trkpt lat="42.321216303503114" lon="13.612876715397865"><ele>947.9999999999999</ele><time>2026-05-03T08:37:47Z</time></trkpt><trkpt lat="42.321156417659196" lon="13.61298765020702"><ele>947.0</ele><time>2026-05-03T08:37:48Z</time></trkpt><trkpt lat="42.32108883713006" lon="13.613089721091931"><ele>946.0</ele><time>2026-05-03T08:37:49Z</time></trkpt><trkpt lat="42.32099806876136" lon="13.613195598025534"><ele>946.0</ele><time>2026-05-03T08:37:50Z</time></trkpt><trkpt lat="42.320911433911384" lon="13.613310221186278"><ele>946.0</ele><time>2026-05-03T08:37:51Z</time></trkpt><trkpt lat="42.32084159952362" lon="13.613386123872866"><ele>946.0</ele><time>2026-05-03T08:37:52Z</time></trkpt><trkpt lat="42.32074311217036" lon="13.61342849716776"><ele>946.0</ele><time>2026-05-03T08:37:54Z</time></trkpt><trkpt lat="42.32063766043118" lon="13.61330171111188"><ele>946.0</ele><time>2026-05-03T08:37:55.999Z</time></trkpt><trkpt lat="42.32059576772773" lon="13.613206757673522"><ele>945.9999999999999</ele><time>2026-05-03T08:37:56.999Z</time></trkpt><trkpt lat="42.32052757329576" lon="13.613125316529993"><ele>945.9999999999999</ele><time>2026-05-03T08:37:58.999Z</time></trkpt><trkpt lat="42.32046274501836" lon="13.613200795675832"><ele>946.0</ele><time>2026-05-03T08:38:00.999Z</time></trkpt><trkpt lat="42.320435625936184" lon="13.613379819379098"><ele>946.0</ele><time>2026-05-03T08:38:02.999Z</time></trkpt><trkpt lat="42.32039134797695" lon="13.613464026023866"><ele>946.5999999999999</ele><time>2026-05-03T08:38:03.999Z</time></trkpt><trkpt lat="42.320321001008715" lon="13.613542831512424"><ele>947.1999999999999</ele><time>2026-05-03T08:38:04.999Z</time></trkpt><trkpt lat="42.32026619546093" lon="13.613649189978274"><ele>947.8000000000001</ele><time>2026-05-03T08:38:05.999Z</time></trkpt><trkpt lat="42.32022794922906" lon="13.61377550814729"><ele>948.4000000000001</ele><time>2026-05-03T08:38:06.999Z</time></trkpt><trkpt lat="42.32018819754106" lon="13.613940475848853"><ele>949.0</ele><time>2026-05-03T08:38:08.999Z</time></trkpt><trkpt lat="42.32017126387726" lon="13.614075654613874"><ele>949.0</ele><time>2026-05-03T08:38:09.999Z</time></trkpt><trkpt lat="42.320144649821856" lon="13.614220275916962"><ele>949.0000000000001</ele><time>2026-05-03T08:38:10.999Z</time></trkpt><trkpt lat="42.32008874615384" lon="13.614329524827465"><ele>949.0000000000001</ele><time>2026-05-03T08:38:11.999Z</time></trkpt><trkpt lat="42.320019419620046" lon="13.614415442221663"><ele>949.0</ele><time>2026-05-03T08:38:12.999Z</time></trkpt><trkpt lat="42.319944518012434" lon="13.614479542275163"><ele>949.0</ele><time>2026-05-03T08:38:13.999Z</time></trkpt><trkpt lat="42.319895467036915" lon="13.614555962283916"><ele>948.6</ele><time>2026-05-03T08:38:14.999Z</time></trkpt><trkpt lat="42.31985020396933" lon="13.614647694557563"><ele>948.2</ele><time>2026-05-03T08:38:15.999Z</time></trkpt><trkpt lat="42.31979828742583" lon="13.614763252234685"><ele>947.8000000000001</ele><time>2026-05-03T08:38:16.999Z</time></trkpt><trkpt lat="42.31974158877975" lon="13.614885016242571"><ele>947.4000000000001</ele><time>2026-05-03T08:38:17.999Z</time></trkpt><trkpt lat="42.31967998425612" lon="13.615001523274355"><ele>947.0</ele><time>2026-05-03T08:38:18.999Z</time></trkpt><trkpt lat="42.31961862020703" lon="13.6151095226576"><ele>948.6</ele><time>2026-05-03T08:38:19.999Z</time></trkpt><trkpt lat="42.31957054287856" lon="13.615220513045069"><ele>950.2</ele><time>2026-05-03T08:38:20.999Z</time></trkpt><trkpt lat="42.31953397593042" lon="13.615323862286246"><ele>951.8</ele><time>2026-05-03T08:38:21.999Z</time></trkpt><trkpt lat="42.319486668860655" lon="13.61542786555746"><ele>953.4</ele><time>2026-05-03T08:38:22.999Z</time></trkpt><trkpt lat="42.31940768853244" lon="13.615519921287882"><ele>955.0</ele><time>2026-05-03T08:38:23.999Z</time></trkpt><trkpt lat="42.31932456082743" lon="13.615598581111982"><ele>954.9999999999999</ele><time>2026-05-03T08:38:24.999Z</time></trkpt><trkpt lat="42.31926335902523" lon="13.615671223315568"><ele>955.0</ele><time>2026-05-03T08:38:25.999Z</time></trkpt><trkpt lat="42.31922353993381" lon="13.615742143971387"><ele>954.9999999999999</ele><time>2026-05-03T08:38:26.999Z</time></trkpt><trkpt lat="42.319184908769564" lon="13.615826148555524"><ele>954.9999999999999</ele><time>2026-05-03T08:38:27.999Z</time></trkpt><trkpt lat="42.31915783987885" lon="13.615910650192394"><ele>955.0</ele><time>2026-05-03T08:38:28.999Z</time></trkpt><trkpt lat="42.31915536739192" lon="13.616003796538907"><ele>954.9999999999999</ele><time>2026-05-03T08:38:29.999Z</time></trkpt><trkpt lat="42.31912916630567" lon="13.616104169628183"><ele>954.9999999999999</ele><time>2026-05-03T08:38:30.999Z</time></trkpt><trkpt lat="42.319097828048896" lon="13.616186594065777"><ele>954.8571428571427</ele><time>2026-05-03T08:38:31.999Z</time></trkpt><trkpt lat="42.319056393965035" lon="13.616272537078192"><ele>954.7142857142857</ele><time>2026-05-03T08:38:32.999Z</time></trkpt><trkpt lat="42.319019617873565" lon="13.61635217309713"><ele>954.5714285714284</ele><time>2026-05-03T08:38:33.999Z</time></trkpt><trkpt lat="42.31899307040847" lon="13.616438223869183"><ele>954.4285714285713</ele><time>2026-05-03T08:38:34.999Z</time></trkpt><trkpt lat="42.31894422192469" lon="13.616518332080442"><ele>954.2857142857142</ele><time>2026-05-03T08:38:35.999Z</time></trkpt><trkpt lat="42.31888470095403" lon="13.616581032704527"><ele>954.1428571428571</ele><time>2026-05-03T08:38:36.999Z</time></trkpt><trkpt lat="42.318832065488664" lon="13.616662134625042"><ele>954.0</ele><time>2026-05-03T08:38:37.999Z</time></trkpt><trkpt lat="42.31876391420049" lon="13.616731580453877"><ele>954.8333333333334</ele><time>2026-05-03T08:38:38.999Z</time></trkpt><trkpt lat="42.31869255578563" lon="13.616791076438433"><ele>955.6666666666667</ele><time>2026-05-03T08:38:39.999Z</time></trkpt><trkpt lat="42.318635166620744" lon="13.616836275983031"><ele>956.5</ele><time>2026-05-03T08:38:40.999Z</time></trkpt><trkpt lat="42.31858178157912" lon="13.616939214180888"><ele>957.3333333333334</ele><time>2026-05-03T08:38:42.999Z</time></trkpt><trkpt lat="42.31853647159277" lon="13.617013053275457"><ele>958.1666666666667</ele><time>2026-05-03T08:38:43.999Z</time></trkpt><trkpt lat="42.31847292435674" lon="13.61708698616926"><ele>959.0</ele><time>2026-05-03T08:38:44.999Z</time></trkpt><trkpt lat="42.31840070852949" lon="13.617151904750251"><ele>959.0000000000001</ele><time>2026-05-03T08:38:45.999Z</time></trkpt><trkpt lat="42.31833281191697" lon="13.617212557831005"><ele>959.0</ele><time>2026-05-03T08:38:46.999Z</time></trkpt><trkpt lat="42.31825095583907" lon="13.617261099890836"><ele>959.0</ele><time>2026-05-03T08:38:47.999Z</time></trkpt><trkpt lat="42.31818279852218" lon="13.617333161032803"><ele>959.0</ele><time>2026-05-03T08:38:48.999Z</time></trkpt><trkpt lat="42.31810763572589" lon="13.617419517162515"><ele>959.0000000000001</ele><time>2026-05-03T08:38:49.999Z</time></trkpt><trkpt lat="42.31802790649339" lon="13.617482436056607"><ele>959.0</ele><time>2026-05-03T08:38:50.999Z</time></trkpt><trkpt lat="42.31793394682138" lon="13.617534655308024"><ele>959.75</ele><time>2026-05-03T08:38:51.999Z</time></trkpt><trkpt lat="42.31783692915495" lon="13.617613518621315"><ele>960.5</ele><time>2026-05-03T08:38:52.999Z</time></trkpt><trkpt lat="42.31774261683145" lon="13.617720400562355"><ele>961.25</ele><time>2026-05-03T08:38:53.999Z</time></trkpt><trkpt lat="42.31764628781941" lon="13.617820510979401"><ele>962.0</ele><time>2026-05-03T08:38:54.999Z</time></trkpt><trkpt lat="42.31754919489119" lon="13.617907125180809"><ele>962.0</ele><time>2026-05-03T08:38:55.999Z</time></trkpt><trkpt lat="42.317474305234775" lon="13.617998276353303"><ele>962.0</ele><time>2026-05-03T08:38:56.999Z</time></trkpt><trkpt lat="42.31740408937068" lon="13.61808455897844"><ele>962.0</ele><time>2026-05-03T08:38:57.999Z</time></trkpt><trkpt lat="42.317317495303485" lon="13.6181498167711"><ele>962.0</ele><time>2026-05-03T08:38:58.999Z</time></trkpt><trkpt lat="42.31723544516796" lon="13.618226325016396"><ele>962.0</ele><time>2026-05-03T08:38:59.999Z</time></trkpt><trkpt lat="42.31715263263091" lon="13.618322396212502"><ele>963.1666666666667</ele><time>2026-05-03T08:39:00.999Z</time></trkpt><trkpt lat="42.317072776233765" lon="13.61839675630868"><ele>964.3333333333334</ele><time>2026-05-03T08:39:01.999Z</time></trkpt><trkpt lat="42.31700176339261" lon="13.618474607729512"><ele>965.5</ele><time>2026-05-03T08:39:02.999Z</time></trkpt><trkpt lat="42.316942704442845" lon="13.618552308836607"><ele>966.6666666666667</ele><time>2026-05-03T08:39:03.999Z</time></trkpt><trkpt lat="42.316877488277164" lon="13.618632507705042"><ele>967.8333333333334</ele><time>2026-05-03T08:39:04.999Z</time></trkpt><trkpt lat="42.3167983226429" lon="13.61869060608059"><ele>969.0</ele><time>2026-05-03T08:39:05.999Z</time></trkpt><trkpt lat="42.316715632211455" lon="13.618745685308188"><ele>969.0</ele><time>2026-05-03T08:39:06.999Z</time></trkpt><trkpt lat="42.31663947583302" lon="13.618802274331367"><ele>969.0</ele><time>2026-05-03T08:39:07.999Z</time></trkpt><trkpt lat="42.31658722367099" lon="13.618861946977475"><ele>969.0</ele><time>2026-05-03T08:39:08.999Z</time></trkpt><trkpt lat="42.31649341421695" lon="13.618963242459795"><ele>969.0</ele><time>2026-05-03T08:39:10.999Z</time></trkpt><trkpt lat="42.31642268840924" lon="13.619022743817744"><ele>969.0</ele><time>2026-05-03T08:39:11.999Z</time></trkpt><trkpt lat="42.31635132081321" lon="13.619080784809434"><ele>969.0</ele><time>2026-05-03T08:39:12.999Z</time></trkpt><trkpt lat="42.31630377202176" lon="13.619141809934412"><ele>971.0</ele><time>2026-05-03T08:39:13.999Z</time></trkpt><trkpt lat="42.31627842104911" lon="13.619225276424068"><ele>973.0000000000001</ele><time>2026-05-03T08:39:14.999Z</time></trkpt><trkpt lat="42.3162374126106" lon="13.619384305421404"><ele>975.0000000000001</ele><time>2026-05-03T08:39:16.999Z</time></trkpt><trkpt lat="42.31620756163009" lon="13.619549106535887"><ele>977.0</ele><time>2026-05-03T08:39:18.999Z</time></trkpt><trkpt lat="42.3162120761357" lon="13.619717277022065"><ele>979.0</ele><time>2026-05-03T08:39:21Z</time></trkpt><trkpt lat="42.31615089880473" lon="13.619830940110543"><ele>978.9999999999999</ele><time>2026-05-03T08:39:23Z</time></trkpt><trkpt lat="42.316049879645725" lon="13.619859863767738"><ele>979.0</ele><time>2026-05-03T08:39:25Z</time></trkpt><trkpt lat="42.315996551820554" lon="13.619912846350804"><ele>979.0</ele><time>2026-05-03T08:39:26Z</time></trkpt><trkpt lat="42.315953822773814" lon="13.619995330162977"><ele>979.0</ele><time>2026-05-03T08:39:27Z</time></trkpt><trkpt lat="42.31591320036932" lon="13.620070929029344"><ele>978.9999999999999</ele><time>2026-05-03T08:39:28Z</time></trkpt><trkpt lat="42.3158519765307" lon="13.620131839971096"><ele>979.0</ele><time>2026-05-03T08:39:29Z</time></trkpt><trkpt lat="42.315775387044496" lon="13.620192666112818"><ele>979.0</ele><time>2026-05-03T08:39:30Z</time></trkpt><trkpt lat="42.31572193936711" lon="13.620301052310577"><ele>979.0000000000001</ele><time>2026-05-03T08:39:31Z</time></trkpt><trkpt lat="42.3156776446839" lon="13.620417034773597"><ele>979.0000000000001</ele><time>2026-05-03T08:39:32Z</time></trkpt><trkpt lat="42.315625637871435" lon="13.620485341493595"><ele>979.0</ele><time>2026-05-03T08:39:33Z</time></trkpt><trkpt lat="42.31550897525224" lon="13.620472847678855"><ele>979.0</ele><time>2026-05-03T08:39:35Z</time></trkpt><trkpt lat="42.315419534874245" lon="13.620512551351236"><ele>979.2</ele><time>2026-05-03T08:39:37Z</time></trkpt><trkpt lat="42.31537174743213" lon="13.62060347884925"><ele>979.4000000000001</ele><time>2026-05-03T08:39:38Z</time></trkpt><trkpt lat="42.315305093090764" lon="13.620695409284012"><ele>979.6</ele><time>2026-05-03T08:39:39Z</time></trkpt><trkpt lat="42.315243073159856" lon="13.620784359379408"><ele>979.8</ele><time>2026-05-03T08:39:40Z</time></trkpt><trkpt lat="42.315179995836935" lon="13.620864024453176"><ele>980.0</ele><time>2026-05-03T08:39:41Z</time></trkpt><trkpt lat="42.31510465858195" lon="13.620946893521417"><ele>980.0</ele><time>2026-05-03T08:39:42Z</time></trkpt><trkpt lat="42.31501281743975" lon="13.621019627529972"><ele>980.0</ele><time>2026-05-03T08:39:43Z</time></trkpt><trkpt lat="42.31492080690607" lon="13.621061828453133"><ele>980.0</ele><time>2026-05-03T08:39:44Z</time></trkpt><trkpt lat="42.31482271868528" lon="13.621109385930657"><ele>980.0</ele><time>2026-05-03T08:39:45Z</time></trkpt><trkpt lat="42.31473474460489" lon="13.621144326071255"><ele>980.0</ele><time>2026-05-03T08:39:46Z</time></trkpt><trkpt lat="42.31465681151864" lon="13.62119135374866"><ele>980.1666666666667</ele><time>2026-05-03T08:39:47Z</time></trkpt><trkpt lat="42.31457468621184" lon="13.62124669225962"><ele>980.3333333333334</ele><time>2026-05-03T08:39:48Z</time></trkpt><trkpt lat="42.31450280173216" lon="13.621295709150631"><ele>980.5</ele><time>2026-05-03T08:39:49Z</time></trkpt><trkpt lat="42.3144392337787" lon="13.621355498173163"><ele>980.6666666666667</ele><time>2026-05-03T08:39:50Z</time></trkpt><trkpt lat="42.31437217435073" lon="13.621426063547771"><ele>980.8333333333334</ele><time>2026-05-03T08:39:51Z</time></trkpt><trkpt lat="42.31431073750793" lon="13.621486001151375"><ele>981.0</ele><time>2026-05-03T08:39:52Z</time></trkpt><trkpt lat="42.314251840019715" lon="13.6215296857573"><ele>981.0</ele><time>2026-05-03T08:39:53Z</time></trkpt><trkpt lat="42.31417979796325" lon="13.621585170075525"><ele>981.0</ele><time>2026-05-03T08:39:54Z</time></trkpt><trkpt lat="42.31411229737085" lon="13.621632404003078"><ele>981.0</ele><time>2026-05-03T08:39:55Z</time></trkpt><trkpt lat="42.314057614057546" lon="13.62168884118626"><ele>981.0</ele><time>2026-05-03T08:39:56Z</time></trkpt><trkpt lat="42.314001094561064" lon="13.621749266094103"><ele>981.0</ele><time>2026-05-03T08:39:57Z</time></trkpt><trkpt lat="42.313912990560716" lon="13.621761345282325"><ele>981.0</ele><time>2026-05-03T08:40:00Z</time></trkpt><trkpt lat="42.31385739534227" lon="13.621713711362638"><ele>983.0</ele><time>2026-05-03T08:40:01Z</time></trkpt><trkpt lat="42.31378646774103" lon="13.621682675871222"><ele>985.0</ele><time>2026-05-03T08:40:02Z</time></trkpt><trkpt lat="42.313713068281444" lon="13.621699208142491"><ele>987.0</ele><time>2026-05-03T08:40:03Z</time></trkpt><trkpt lat="42.3136184589734" lon="13.621790573640398"><ele>989.0</ele><time>2026-05-03T08:40:05Z</time></trkpt><trkpt lat="42.31355870970386" lon="13.62185083293455"><ele>991.0</ele><time>2026-05-03T08:40:06Z</time></trkpt><trkpt lat="42.31350192070963" lon="13.621907663949637"><ele>993.0</ele><time>2026-05-03T08:40:07Z</time></trkpt><trkpt lat="42.3134382688379" lon="13.621960373479288"><ele>991.3333333333334</ele><time>2026-05-03T08:40:08Z</time></trkpt><trkpt lat="42.3133648241215" lon="13.622027100565026"><ele>989.6666666666667</ele><time>2026-05-03T08:40:09Z</time></trkpt><trkpt lat="42.31330116706561" lon="13.622111163078623"><ele>988.0</ele><time>2026-05-03T08:40:10Z</time></trkpt><trkpt lat="42.31324898505764" lon="13.622195191226131"><ele>986.3333333333334</ele><time>2026-05-03T08:40:11Z</time></trkpt><trkpt lat="42.31321004784409" lon="13.622291920964575"><ele>984.6666666666667</ele><time>2026-05-03T08:40:12Z</time></trkpt><trkpt lat="42.31315042617453" lon="13.622382800576714"><ele>983.0</ele><time>2026-05-03T08:40:13Z</time></trkpt><trkpt lat="42.31308474527501" lon="13.622468843526514"><ele>984.3333333333334</ele><time>2026-05-03T08:40:14Z</time></trkpt><trkpt lat="42.31302257144505" lon="13.622535002880056"><ele>985.6666666666667</ele><time>2026-05-03T08:40:15Z</time></trkpt><trkpt lat="42.3129581449379" lon="13.62259652578608"><ele>987.0</ele><time>2026-05-03T08:40:16Z</time></trkpt><trkpt lat="42.31289750588298" lon="13.622682924386455"><ele>988.3333333333333</ele><time>2026-05-03T08:40:17Z</time></trkpt><trkpt lat="42.31283750534781" lon="13.622769299727027"><ele>989.6666666666666</ele><time>2026-05-03T08:40:18Z</time></trkpt><trkpt lat="42.312785899219" lon="13.622857664985238"><ele>991.0</ele><time>2026-05-03T08:40:19Z</time></trkpt><trkpt lat="42.31272932352337" lon="13.622942849925726"><ele>991.0</ele><time>2026-05-03T08:40:20Z</time></trkpt><trkpt lat="42.31268003759598" lon="13.623018694110561"><ele>990.9999999999999</ele><time>2026-05-03T08:40:21Z</time></trkpt><trkpt lat="42.312631951420656" lon="13.623169653625089"><ele>990.9999999999999</ele><time>2026-05-03T08:40:23Z</time></trkpt><trkpt lat="42.31255277337068" lon="13.623271137215514"><ele>991.0</ele><time>2026-05-03T08:40:25Z</time></trkpt><trkpt lat="42.31246646591943" lon="13.623351040453212"><ele>991.0</ele><time>2026-05-03T08:40:27Z</time></trkpt><trkpt lat="42.31241053427926" lon="13.623423108425655"><ele>990.9999999999999</ele><time>2026-05-03T08:40:28Z</time></trkpt><trkpt lat="42.31237764424116" lon="13.62351297775143"><ele>991.0</ele><time>2026-05-03T08:40:29Z</time></trkpt><trkpt lat="42.312346984364105" lon="13.623600727553674"><ele>991.0</ele><time>2026-05-03T08:40:30Z</time></trkpt><trkpt lat="42.3122539539357" lon="13.623740088060577"><ele>991.0</ele><time>2026-05-03T08:40:32Z</time></trkpt><trkpt lat="42.312202249263464" lon="13.623833734735596"><ele>990.9999999999999</ele><time>2026-05-03T08:40:33Z</time></trkpt><trkpt lat="42.3121622169124" lon="13.623922166899613"><ele>991.0</ele><time>2026-05-03T08:40:34Z</time></trkpt><trkpt lat="42.31213183318277" lon="13.624000167113097"><ele>991.4999999999999</ele><time>2026-05-03T08:40:35Z</time></trkpt><trkpt lat="42.312108957482174" lon="13.624079863241167"><ele>992.0</ele><time>2026-05-03T08:40:36Z</time></trkpt><trkpt lat="42.31205568516048" lon="13.62416683810803"><ele>992.5</ele><time>2026-05-03T08:40:37Z</time></trkpt><trkpt lat="42.31200592286858" lon="13.624239482588171"><ele>993.0</ele><time>2026-05-03T08:40:38Z</time></trkpt><trkpt lat="42.31196219884924" lon="13.624329439073199"><ele>993.4999999999999</ele><time>2026-05-03T08:40:39Z</time></trkpt><trkpt lat="42.31192650079036" lon="13.624424855654151"><ele>994.0</ele><time>2026-05-03T08:40:40Z</time></trkpt><trkpt lat="42.311883387026796" lon="13.624503853135375"><ele>993.9999999999999</ele><time>2026-05-03T08:40:41Z</time></trkpt><trkpt lat="42.31184326140421" lon="13.624596141889866"><ele>994.0</ele><time>2026-05-03T08:40:42Z</time></trkpt><trkpt lat="42.31181455301658" lon="13.624684885766598"><ele>994.0</ele><time>2026-05-03T08:40:43Z</time></trkpt><trkpt lat="42.31177377047583" lon="13.624750725056204"><ele>994.0</ele><time>2026-05-03T08:40:44Z</time></trkpt><trkpt lat="42.31171897687295" lon="13.624845063608225"><ele>993.9999999999999</ele><time>2026-05-03T08:40:45Z</time></trkpt><trkpt lat="42.31165136280255" lon="13.624911560531467"><ele>994.0</ele><time>2026-05-03T08:40:46Z</time></trkpt><trkpt lat="42.31158406280492" lon="13.624961855949525"><ele>993.9999999999999</ele><time>2026-05-03T08:40:47Z</time></trkpt><trkpt lat="42.311519697538785" lon="13.625051104447985"><ele>994.0</ele><time>2026-05-03T08:40:48Z</time></trkpt><trkpt lat="42.311450951160154" lon="13.625157907449273"><ele>994.0</ele><time>2026-05-03T08:40:48.999Z</time></trkpt><trkpt lat="42.31138999187161" lon="13.625249613370855"><ele>994.0</ele><time>2026-05-03T08:40:49.999Z</time></trkpt><trkpt lat="42.31135899546255" lon="13.625325263456162"><ele>993.9999999999999</ele><time>2026-05-03T08:40:50.999Z</time></trkpt><trkpt lat="42.31131187378575" lon="13.625412984988426"><ele>994.0</ele><time>2026-05-03T08:40:51.999Z</time></trkpt><trkpt lat="42.311250832648355" lon="13.625538220651185"><ele>997.6</ele><time>2026-05-03T08:40:52.999Z</time></trkpt><trkpt lat="42.311191681131376" lon="13.625674007669671"><ele>1001.2</ele><time>2026-05-03T08:40:53.999Z</time></trkpt><trkpt lat="42.31112575148607" lon="13.625778876736774"><ele>1004.8000000000001</ele><time>2026-05-03T08:40:54.999Z</time></trkpt><trkpt lat="42.31108365924042" lon="13.625873508895653"><ele>1008.4000000000001</ele><time>2026-05-03T08:40:55.999Z</time></trkpt><trkpt lat="42.311038418558624" lon="13.625977548640316"><ele>1012.0</ele><time>2026-05-03T08:40:56.999Z</time></trkpt><trkpt lat="42.310982865081336" lon="13.626084579282812"><ele>1010.0</ele><time>2026-05-03T08:40:57.999Z</time></trkpt><trkpt lat="42.31093861326031" lon="13.626203523219827"><ele>1008.0</ele><time>2026-05-03T08:40:58.999Z</time></trkpt><trkpt lat="42.31088752686664" lon="13.626329206917285"><ele>1006.0</ele><time>2026-05-03T08:40:59.999Z</time></trkpt><trkpt lat="42.31084069257298" lon="13.626455268718132"><ele>1004.0</ele><time>2026-05-03T08:41:00.999Z</time></trkpt><trkpt lat="42.31079158834656" lon="13.626576216422311"><ele>1002.0</ele><time>2026-05-03T08:41:01.999Z</time></trkpt><trkpt lat="42.31073236871849" lon="13.62667704495547"><ele>1002.0</ele><time>2026-05-03T08:41:02.999Z</time></trkpt><trkpt lat="42.3106705987839" lon="13.626784547673502"><ele>1002.0</ele><time>2026-05-03T08:41:03.999Z</time></trkpt><trkpt lat="42.31059978315965" lon="13.626893147536471"><ele>1002.0</ele><time>2026-05-03T08:41:04.999Z</time></trkpt><trkpt lat="42.31053245625329" lon="13.626988426320338"><ele>1002.0</ele><time>2026-05-03T08:41:05.999Z</time></trkpt><trkpt lat="42.310478905112255" lon="13.627085345623831"><ele>1002.0</ele><time>2026-05-03T08:41:06.999Z</time></trkpt><trkpt lat="42.31043520135711" lon="13.627200219745596"><ele>1002.8333333333334</ele><time>2026-05-03T08:41:07.999Z</time></trkpt><trkpt lat="42.31038808630982" lon="13.627304144681554"><ele>1003.6666666666667</ele><time>2026-05-03T08:41:08.999Z</time></trkpt><trkpt lat="42.31034593870752" lon="13.627417721260551"><ele>1004.5</ele><time>2026-05-03T08:41:09.999Z</time></trkpt><trkpt lat="42.310301197663506" lon="13.627517847848896"><ele>1005.3333333333334</ele><time>2026-05-03T08:41:10.999Z</time></trkpt><trkpt lat="42.310251863786455" lon="13.627615925415972"><ele>1006.1666666666667</ele><time>2026-05-03T08:41:11.999Z</time></trkpt><trkpt lat="42.31018614264276" lon="13.627690464756425"><ele>1007.0</ele><time>2026-05-03T08:41:12.999Z</time></trkpt><trkpt lat="42.31011609920443" lon="13.627744444135102"><ele>1005.6666666666667</ele><time>2026-05-03T08:41:13.999Z</time></trkpt><trkpt lat="42.31006869249592" lon="13.62781740422627"><ele>1004.3333333333334</ele><time>2026-05-03T08:41:14.999Z</time></trkpt><trkpt lat="42.310026095889754" lon="13.627910047758679"><ele>1003.0</ele><time>2026-05-03T08:41:15.999Z</time></trkpt><trkpt lat="42.30998159610815" lon="13.6280209787567"><ele>1001.6666666666667</ele><time>2026-05-03T08:41:16.999Z</time></trkpt><trkpt lat="42.30994068375764" lon="13.628125270080682"><ele>1000.3333333333334</ele><time>2026-05-03T08:41:17.999Z</time></trkpt><trkpt lat="42.30990597550747" lon="13.628206911724456"><ele>999.0</ele><time>2026-05-03T08:41:18.999Z</time></trkpt><trkpt lat="42.30984168129649" lon="13.628345151830004"><ele>999.0</ele><time>2026-05-03T08:41:20.999Z</time></trkpt><trkpt lat="42.30979708256827" lon="13.62843255863423"><ele>999.0</ele><time>2026-05-03T08:41:21.999Z</time></trkpt><trkpt lat="42.30975203391658" lon="13.628530770984728"><ele>999.0</ele><time>2026-05-03T08:41:22.999Z</time></trkpt><trkpt lat="42.309712517848" lon="13.628612724265873"><ele>999.0</ele><time>2026-05-03T08:41:23.999Z</time></trkpt><trkpt lat="42.309664769591635" lon="13.628708753139357"><ele>999.0</ele><time>2026-05-03T08:41:24.999Z</time></trkpt><trkpt lat="42.30962302370771" lon="13.628788647027696"><ele>999.0</ele><time>2026-05-03T08:41:26Z</time></trkpt><trkpt lat="42.30958284845264" lon="13.628864300925544"><ele>1001.0</ele><time>2026-05-03T08:41:27Z</time></trkpt><trkpt lat="42.309549110109444" lon="13.628938290076324"><ele>1003.0000000000001</ele><time>2026-05-03T08:41:28Z</time></trkpt><trkpt lat="42.30952053779913" lon="13.629019651752987"><ele>1005.0</ele><time>2026-05-03T08:41:29Z</time></trkpt><trkpt lat="42.309498993379734" lon="13.629112984468197"><ele>1007.0</ele><time>2026-05-03T08:41:30Z</time></trkpt><trkpt lat="42.30948082734122" lon="13.629211257445975"><ele>1009.0000000000001</ele><time>2026-05-03T08:41:31Z</time></trkpt><trkpt lat="42.3094414656257" lon="13.629291395861078"><ele>1011.0</ele><time>2026-05-03T08:41:32Z</time></trkpt><trkpt lat="42.30938964486048" lon="13.629355595579698"><ele>1013.0</ele><time>2026-05-03T08:41:33Z</time></trkpt><trkpt lat="42.30933740921771" lon="13.629428946820223"><ele>1012.5000000000001</ele><time>2026-05-03T08:41:34Z</time></trkpt><trkpt lat="42.30929163008611" lon="13.629495627301912"><ele>1012.0</ele><time>2026-05-03T08:41:35Z</time></trkpt><trkpt lat="42.30923979820572" lon="13.629589248456432"><ele>1011.5</ele><time>2026-05-03T08:41:36Z</time></trkpt><trkpt lat="42.309185789728815" lon="13.62966451217751"><ele>1011.0</ele><time>2026-05-03T08:41:37Z</time></trkpt><trkpt lat="42.30913675669573" lon="13.629745808477594"><ele>1010.5000000000001</ele><time>2026-05-03T08:41:38Z</time></trkpt><trkpt lat="42.309082664029546" lon="13.62983167685745"><ele>1010.0</ele><time>2026-05-03T08:41:39Z</time></trkpt><trkpt lat="42.30902043420165" lon="13.629921054213241"><ele>1010.0</ele><time>2026-05-03T08:41:40Z</time></trkpt><trkpt lat="42.3089815243405" lon="13.629996434054364"><ele>1010.0</ele><time>2026-05-03T08:41:41Z</time></trkpt><trkpt lat="42.308958042013785" lon="13.630139340666013"><ele>1010.0</ele><time>2026-05-03T08:41:44Z</time></trkpt><trkpt lat="42.30892751499475" lon="13.630261272129992"><ele>1010.0</ele><time>2026-05-03T08:41:45.999Z</time></trkpt><trkpt lat="42.30889712581916" lon="13.630390970013803"><ele>1010.0</ele><time>2026-05-03T08:41:47.999Z</time></trkpt><trkpt lat="42.30886067832026" lon="13.630503383750609"><ele>1009.8333333333334</ele><time>2026-05-03T08:41:49.999Z</time></trkpt><trkpt lat="42.30884911426539" lon="13.630606430941237"><ele>1009.6666666666667</ele><time>2026-05-03T08:41:51.999Z</time></trkpt><trkpt lat="42.308859233743306" lon="13.630734414176152"><ele>1009.5</ele><time>2026-05-03T08:41:53.999Z</time></trkpt><trkpt lat="42.30887593186966" lon="13.630838445775105"><ele>1009.3333333333333</ele><time>2026-05-03T08:41:55.999Z</time></trkpt><trkpt lat="42.30889660295539" lon="13.630924368910652"><ele>1009.1666666666666</ele><time>2026-05-03T08:41:57.999Z</time></trkpt><trkpt lat="42.30892861831182" lon="13.631023863518315"><ele>1009.0</ele><time>2026-05-03T08:42:00.999Z</time></trkpt><trkpt lat="42.308959766001124" lon="13.6311282554765"><ele>1009.8000000000001</ele><time>2026-05-03T08:42:03.999Z</time></trkpt><trkpt lat="42.30895881744428" lon="13.63124697166195"><ele>1010.6000000000001</ele><time>2026-05-03T08:42:05.998Z</time></trkpt><trkpt lat="42.30891260253635" lon="13.631383606358762"><ele>1011.4</ele><time>2026-05-03T08:42:07.998Z</time></trkpt><trkpt lat="42.30884239784261" lon="13.631534260199595"><ele>1012.2</ele><time>2026-05-03T08:42:09.998Z</time></trkpt><trkpt lat="42.308828919030375" lon="13.631620615914947"><ele>1013.0</ele><time>2026-05-03T08:42:10.998Z</time></trkpt><trkpt lat="42.30880494865967" lon="13.631752283306957"><ele>1010.2</ele><time>2026-05-03T08:42:11.998Z</time></trkpt><trkpt lat="42.3087843065258" lon="13.631883565637695"><ele>1007.4</ele><time>2026-05-03T08:42:12.998Z</time></trkpt><trkpt lat="42.30874809703197" lon="13.632000260199298"><ele>1004.6000000000001</ele><time>2026-05-03T08:42:13.998Z</time></trkpt><trkpt lat="42.30870997837283" lon="13.63210917712018"><ele>1001.8000000000001</ele><time>2026-05-03T08:42:14.998Z</time></trkpt><trkpt lat="42.3086723387887" lon="13.632230047791005"><ele>999.0</ele><time>2026-05-03T08:42:15.998Z</time></trkpt><trkpt lat="42.308627649414426" lon="13.632330384109366"><ele>999.0</ele><time>2026-05-03T08:42:16.998Z</time></trkpt><trkpt lat="42.30858000906706" lon="13.632438632432054"><ele>999.0000000000001</ele><time>2026-05-03T08:42:17.998Z</time></trkpt><trkpt lat="42.30852356236094" lon="13.63255026352548"><ele>999.0000000000001</ele><time>2026-05-03T08:42:18.998Z</time></trkpt><trkpt lat="42.308447065564835" lon="13.632683526097761"><ele>999.0</ele><time>2026-05-03T08:42:19.998Z</time></trkpt><trkpt lat="42.30838430655968" lon="13.63282029025542"><ele>999.0</ele><time>2026-05-03T08:42:20.998Z</time></trkpt><trkpt lat="42.308329049919855" lon="13.632946990122294"><ele>999.0</ele><time>2026-05-03T08:42:21.998Z</time></trkpt><trkpt lat="42.30826044874701" lon="13.633076347435875"><ele>999.0000000000001</ele><time>2026-05-03T08:42:22.998Z</time></trkpt><trkpt lat="42.30820446494234" lon="13.633191455010277"><ele>999.0000000000001</ele><time>2026-05-03T08:42:23.998Z</time></trkpt><trkpt lat="42.30814488999859" lon="13.633303950987969"><ele>999.0</ele><time>2026-05-03T08:42:24.998Z</time></trkpt><trkpt lat="42.30809129513609" lon="13.63343274705806"><ele>999.0</ele><time>2026-05-03T08:42:25.998Z</time></trkpt><trkpt lat="42.30803698578173" lon="13.63353767087496"><ele>997.1666666666666</ele><time>2026-05-03T08:42:26.998Z</time></trkpt><trkpt lat="42.30799595336413" lon="13.633655230222283"><ele>995.3333333333333</ele><time>2026-05-03T08:42:27.998Z</time></trkpt><trkpt lat="42.30794888114009" lon="13.633741069477004"><ele>993.5</ele><time>2026-05-03T08:42:28.998Z</time></trkpt><trkpt lat="42.30792879692327" lon="13.633828859339408"><ele>991.6666666666666</ele><time>2026-05-03T08:42:29.998Z</time></trkpt><trkpt lat="42.30790169532719" lon="13.633914824890391"><ele>989.8333333333333</ele><time>2026-05-03T08:42:30.998Z</time></trkpt><trkpt lat="42.30782989861214" lon="13.633979229905833"><ele>988.0</ele><time>2026-05-03T08:42:31.998Z</time></trkpt><trkpt lat="42.30773339979659" lon="13.634015801282704"><ele>988.0</ele><time>2026-05-03T08:42:32.998Z</time></trkpt><trkpt lat="42.30764748973388" lon="13.634032396248678"><ele>988.0</ele><time>2026-05-03T08:42:33.998Z</time></trkpt><trkpt lat="42.30756875165162" lon="13.634073244765464"><ele>988.0</ele><time>2026-05-03T08:42:34.998Z</time></trkpt><trkpt lat="42.30751864855111" lon="13.634174374349314"><ele>988.0</ele><time>2026-05-03T08:42:35.998Z</time></trkpt><trkpt lat="42.307444663651566" lon="13.634286137035797"><ele>988.0</ele><time>2026-05-03T08:42:36.998Z</time></trkpt><trkpt lat="42.30735670262151" lon="13.63441544111822"><ele>987.25</ele><time>2026-05-03T08:42:37.998Z</time></trkpt><trkpt lat="42.307263744139455" lon="13.634539590395534"><ele>986.5</ele><time>2026-05-03T08:42:38.998Z</time></trkpt><trkpt lat="42.30718464383869" lon="13.634656019376937"><ele>985.75</ele><time>2026-05-03T08:42:39.998Z</time></trkpt><trkpt lat="42.30710880891812" lon="13.634821331612054"><ele>985.0</ele><time>2026-05-03T08:42:40.998Z</time></trkpt><trkpt lat="42.30703337751798" lon="13.634996209134641"><ele>985.0</ele><time>2026-05-03T08:42:41.998Z</time></trkpt><trkpt lat="42.30695463900735" lon="13.63515347417573"><ele>985.0</ele><time>2026-05-03T08:42:42.998Z</time></trkpt><trkpt lat="42.30688997977131" lon="13.635313985863005"><ele>985.0</ele><time>2026-05-03T08:42:43.998Z</time></trkpt><trkpt lat="42.30681331571647" lon="13.63547135022114"><ele>985.0</ele><time>2026-05-03T08:42:44.998Z</time></trkpt><trkpt lat="42.306735883332294" lon="13.63560486182601"><ele>984.0</ele><time>2026-05-03T08:42:45.998Z</time></trkpt><trkpt lat="42.3066569886956" lon="13.63573167975907"><ele>983.0</ele><time>2026-05-03T08:42:46.998Z</time></trkpt><trkpt lat="42.30658423485874" lon="13.635860064497622"><ele>982.0</ele><time>2026-05-03T08:42:47.998Z</time></trkpt><trkpt lat="42.30652294158591" lon="13.635993655237984"><ele>981.0</ele><time>2026-05-03T08:42:48.998Z</time></trkpt><trkpt lat="42.30645127030313" lon="13.636119688772794"><ele>980.25</ele><time>2026-05-03T08:42:49.998Z</time></trkpt><trkpt lat="42.30637856456417" lon="13.636283951844687"><ele>979.5</ele><time>2026-05-03T08:42:50.998Z</time></trkpt><trkpt lat="42.30631037717226" lon="13.636435954592395"><ele>978.75</ele><time>2026-05-03T08:42:51.998Z</time></trkpt><trkpt lat="42.30625844315793" lon="13.636582593616856"><ele>978.0</ele><time>2026-05-03T08:42:52.998Z</time></trkpt><trkpt lat="42.306215630578706" lon="13.636742792633877"><ele>978.0</ele><time>2026-05-03T08:42:53.998Z</time></trkpt><trkpt lat="42.30618474079718" lon="13.63688229358086"><ele>978.0</ele><time>2026-05-03T08:42:54.998Z</time></trkpt><trkpt lat="42.30614978881073" lon="13.637026167304182"><ele>978.0</ele><time>2026-05-03T08:42:55.998Z</time></trkpt><trkpt lat="42.30609777919648" lon="13.63718773208179"><ele>978.0</ele><time>2026-05-03T08:42:56.998Z</time></trkpt><trkpt lat="42.30605261976637" lon="13.637326288263628"><ele>977.0</ele><time>2026-05-03T08:42:57.998Z</time></trkpt><trkpt lat="42.3060168094629" lon="13.637459806799454"><ele>976.0</ele><time>2026-05-03T08:42:58.998Z</time></trkpt><trkpt lat="42.305977793843454" lon="13.6376030719365"><ele>975.0</ele><time>2026-05-03T08:42:59.998Z</time></trkpt><trkpt lat="42.30593999403909" lon="13.637734678309059"><ele>974.0</ele><time>2026-05-03T08:43:00.998Z</time></trkpt><trkpt lat="42.30589988224172" lon="13.637858769531986"><ele>973.0</ele><time>2026-05-03T08:43:01.998Z</time></trkpt><trkpt lat="42.30586788182181" lon="13.637979871388678"><ele>972.3333333333333</ele><time>2026-05-03T08:43:02.998Z</time></trkpt><trkpt lat="42.305846721879306" lon="13.63809391683716"><ele>971.6666666666666</ele><time>2026-05-03T08:43:03.998Z</time></trkpt><trkpt lat="42.30583220781364" lon="13.638235608720969"><ele>971.0</ele><time>2026-05-03T08:43:04.998Z</time></trkpt><trkpt lat="42.30582959771337" lon="13.638350568995874"><ele>970.3333333333333</ele><time>2026-05-03T08:43:05.998Z</time></trkpt><trkpt lat="42.30582255304584" lon="13.638448975321344"><ele>969.6666666666666</ele><time>2026-05-03T08:43:06.998Z</time></trkpt><trkpt lat="42.30578763561779" lon="13.63853720655147"><ele>969.0</ele><time>2026-05-03T08:43:07.998Z</time></trkpt><trkpt lat="42.305748143855055" lon="13.638611222672479"><ele>968.8333333333334</ele><time>2026-05-03T08:43:08.998Z</time></trkpt><trkpt lat="42.30567879037594" lon="13.63876444956541"><ele>968.6666666666667</ele><time>2026-05-03T08:43:10.998Z</time></trkpt><trkpt lat="42.30566695409777" lon="13.638855745816723"><ele>968.5</ele><time>2026-05-03T08:43:11.998Z</time></trkpt><trkpt lat="42.30565446512206" lon="13.638948798271944"><ele>968.3333333333334</ele><time>2026-05-03T08:43:12.998Z</time></trkpt><trkpt lat="42.30563886978008" lon="13.639080838380162"><ele>968.1666666666667</ele><time>2026-05-03T08:43:14.998Z</time></trkpt><trkpt lat="42.305613337646456" lon="13.639161684767707"><ele>968.0</ele><time>2026-05-03T08:43:15.998Z</time></trkpt><trkpt lat="42.30557292287529" lon="13.639233662936716"><ele>968.0</ele><time>2026-05-03T08:43:16.998Z</time></trkpt><trkpt lat="42.30554143426263" lon="13.639307697578253"><ele>968.0</ele><time>2026-05-03T08:43:17.998Z</time></trkpt><trkpt lat="42.30546621091741" lon="13.639442595371635"><ele>968.0</ele><time>2026-05-03T08:43:19.998Z</time></trkpt><trkpt lat="42.305406252433635" lon="13.639584273731064"><ele>968.0</ele><time>2026-05-03T08:43:21.998Z</time></trkpt><trkpt lat="42.30537589777368" lon="13.639690242158798"><ele>968.0</ele><time>2026-05-03T08:43:22.998Z</time></trkpt><trkpt lat="42.30535683521044" lon="13.639805119786445"><ele>966.0</ele><time>2026-05-03T08:43:23.998Z</time></trkpt><trkpt lat="42.30532275489921" lon="13.639890328879092"><ele>963.9999999999999</ele><time>2026-05-03T08:43:24.998Z</time></trkpt><trkpt lat="42.30529868219628" lon="13.639973801080194"><ele>962.0</ele><time>2026-05-03T08:43:25.998Z</time></trkpt><trkpt lat="42.30527213038538" lon="13.640065357189131"><ele>960.0</ele><time>2026-05-03T08:43:26.998Z</time></trkpt><trkpt lat="42.30524564696579" lon="13.640174043818485"><ele>957.9999999999999</ele><time>2026-05-03T08:43:27.998Z</time></trkpt><trkpt lat="42.30522237572038" lon="13.640264899356797"><ele>956.0</ele><time>2026-05-03T08:43:28.998Z</time></trkpt><trkpt lat="42.305212869611736" lon="13.640356064647602"><ele>954.0</ele><time>2026-05-03T08:43:29.998Z</time></trkpt><trkpt lat="42.30518523353792" lon="13.64044904773066"><ele>951.6</ele><time>2026-05-03T08:43:30.998Z</time></trkpt><trkpt lat="42.30513621898478" lon="13.640623210661326"><ele>949.2</ele><time>2026-05-03T08:43:32.999Z</time></trkpt><trkpt lat="42.30508894780956" lon="13.640694300148413"><ele>946.8000000000001</ele><time>2026-05-03T08:43:33.999Z</time></trkpt><trkpt lat="42.30500961338445" lon="13.6408002324115"><ele>944.4000000000001</ele><time>2026-05-03T08:43:35.999Z</time></trkpt><trkpt lat="42.30497838083538" lon="13.64091587298732"><ele>942.0</ele><time>2026-05-03T08:43:37.999Z</time></trkpt><trkpt lat="42.30499758561812" lon="13.64102996510818"><ele>942.0</ele><time>2026-05-03T08:43:39.999Z</time></trkpt><trkpt lat="42.304991701336625" lon="13.641125384934782"><ele>942.0</ele><time>2026-05-03T08:43:40.999Z</time></trkpt><trkpt lat="42.30498137655137" lon="13.641215047462696"><ele>942.0</ele><time>2026-05-03T08:43:41.999Z</time></trkpt><trkpt lat="42.304982513303145" lon="13.641309982065323"><ele>942.0</ele><time>2026-05-03T08:43:42.999Z</time></trkpt><trkpt lat="42.30496087640137" lon="13.641405465620199"><ele>942.0</ele><time>2026-05-03T08:43:43.999Z</time></trkpt><trkpt lat="42.30490645776215" lon="13.64151289071756"><ele>942.0</ele><time>2026-05-03T08:43:44.999Z</time></trkpt><trkpt lat="42.30486603502097" lon="13.64161944560077"><ele>940.8333333333334</ele><time>2026-05-03T08:43:45.999Z</time></trkpt><trkpt lat="42.30484696985181" lon="13.641735248009464"><ele>939.6666666666667</ele><time>2026-05-03T08:43:46.999Z</time></trkpt><trkpt lat="42.30483520008479" lon="13.641842311537724"><ele>938.5</ele><time>2026-05-03T08:43:48Z</time></trkpt><trkpt lat="42.304825851919134" lon="13.641928340255111"><ele>937.3333333333334</ele><time>2026-05-03T08:43:49Z</time></trkpt><trkpt lat="42.30476954614007" lon="13.64207184514712"><ele>936.1666666666667</ele><time>2026-05-03T08:43:51Z</time></trkpt><trkpt lat="42.30472393099072" lon="13.642145165424449"><ele>935.0</ele><time>2026-05-03T08:43:52Z</time></trkpt><trkpt lat="42.304669105866594" lon="13.642201392295375"><ele>932.1666666666667</ele><time>2026-05-03T08:43:53Z</time></trkpt><trkpt lat="42.30460343888519" lon="13.642250897247807"><ele>929.3333333333334</ele><time>2026-05-03T08:43:54Z</time></trkpt><trkpt lat="42.304550277725895" lon="13.642307959072818"><ele>926.5</ele><time>2026-05-03T08:43:55Z</time></trkpt><trkpt lat="42.30448409808103" lon="13.642388730639558"><ele>923.6666666666667</ele><time>2026-05-03T08:43:56Z</time></trkpt><trkpt lat="42.30442605921307" lon="13.642482567872806"><ele>920.8333333333334</ele><time>2026-05-03T08:43:57Z</time></trkpt><trkpt lat="42.304376532672265" lon="13.642563148763198"><ele>918.0</ele><time>2026-05-03T08:43:58Z</time></trkpt><trkpt lat="42.30433033551713" lon="13.642626036247982"><ele>918.0</ele><time>2026-05-03T08:43:59Z</time></trkpt><trkpt lat="42.3042805638409" lon="13.6426893738642"><ele>918.0</ele><time>2026-05-03T08:44:00Z</time></trkpt><trkpt lat="42.304231353226804" lon="13.6427511381329"><ele>918.0</ele><time>2026-05-03T08:44:01Z</time></trkpt><trkpt lat="42.30418087974778" lon="13.642804204651274"><ele>918.0</ele><time>2026-05-03T08:44:02Z</time></trkpt><trkpt lat="42.30407648502488" lon="13.642836622757695"><ele>918.0</ele><time>2026-05-03T08:44:04Z</time></trkpt><trkpt lat="42.30401061272642" lon="13.642822981253493"><ele>918.0</ele><time>2026-05-03T08:44:06Z</time></trkpt><trkpt lat="42.303934514441565" lon="13.642863407617195"><ele>915.8</ele><time>2026-05-03T08:44:29Z</time></trkpt><trkpt lat="42.30386318001274" lon="13.642923534473374"><ele>913.5999999999999</ele><time>2026-05-03T08:44:30.999Z</time></trkpt><trkpt lat="42.30376314115705" lon="13.642968203545253"><ele>911.4000000000001</ele><time>2026-05-03T08:44:32.999Z</time></trkpt><trkpt lat="42.30364247080289" lon="13.643002057248784"><ele>909.2</ele><time>2026-05-03T08:44:34.999Z</time></trkpt><trkpt lat="42.30355936371979" lon="13.643012056703704"><ele>907.0</ele><time>2026-05-03T08:44:36.999Z</time></trkpt><trkpt lat="42.30346602100192" lon="13.643039212620995"><ele>907.0</ele><time>2026-05-03T08:44:38.999Z</time></trkpt><trkpt lat="42.30337328857137" lon="13.643073581691066"><ele>907.0</ele><time>2026-05-03T08:44:40.999Z</time></trkpt><trkpt lat="42.30326405362867" lon="13.643123414445721"><ele>907.0</ele><time>2026-05-03T08:44:42.999Z</time></trkpt><trkpt lat="42.30316568874842" lon="13.643167108944905"><ele>907.0</ele><time>2026-05-03T08:44:44.999Z</time></trkpt><trkpt lat="42.30307640037754" lon="13.643189486552162"><ele>907.0</ele><time>2026-05-03T08:44:46.999Z</time></trkpt><trkpt lat="42.302978449115386" lon="13.64320928383956"><ele>903.8</ele><time>2026-05-03T08:44:48.999Z</time></trkpt><trkpt lat="42.30286416242541" lon="13.64321330602048"><ele>900.6</ele><time>2026-05-03T08:44:50.999Z</time></trkpt><trkpt lat="42.30274917354706" lon="13.643223918405045"><ele>897.3999999999999</ele><time>2026-05-03T08:44:52.999Z</time></trkpt><trkpt lat="42.30263909218065" lon="13.643200430755321"><ele>894.1999999999999</ele><time>2026-05-03T08:44:54.999Z</time></trkpt><trkpt lat="42.302568482804936" lon="13.643165543425354"><ele>891.0</ele><time>2026-05-03T08:44:55.999Z</time></trkpt><trkpt lat="42.302449587789184" lon="13.643112288033372"><ele>891.0000000000001</ele><time>2026-05-03T08:44:57.999Z</time></trkpt><trkpt lat="42.302378191437796" lon="13.643103942676237"><ele>891.0</ele><time>2026-05-03T08:44:58.999Z</time></trkpt><trkpt lat="42.3023023257133" lon="13.643119946041534"><ele>891.0</ele><time>2026-05-03T08:44:59.999Z</time></trkpt><trkpt lat="42.30223647695701" lon="13.643149952807239"><ele>891.0</ele><time>2026-05-03T08:45:00.999Z</time></trkpt><trkpt lat="42.302175873403286" lon="13.64319286889874"><ele>891.0</ele><time>2026-05-03T08:45:01.999Z</time></trkpt><trkpt lat="42.30211537167442" lon="13.64324997011377"><ele>891.0000000000001</ele><time>2026-05-03T08:45:02.999Z</time></trkpt><trkpt lat="42.30205120840357" lon="13.643303778568036"><ele>891.0</ele><time>2026-05-03T08:45:03.999Z</time></trkpt><trkpt lat="42.30197813921659" lon="13.64332994501412"><ele>889.5714285714287</ele><time>2026-05-03T08:45:04.999Z</time></trkpt><trkpt lat="42.301909958147604" lon="13.643334803416867"><ele>888.1428571428571</ele><time>2026-05-03T08:45:05.999Z</time></trkpt><trkpt lat="42.301838918622" lon="13.643344066770526"><ele>886.7142857142858</ele><time>2026-05-03T08:45:06.999Z</time></trkpt><trkpt lat="42.30176064480886" lon="13.643364815233184"><ele>885.2857142857143</ele><time>2026-05-03T08:45:07.999Z</time></trkpt><trkpt lat="42.30169716523036" lon="13.643381801652353"><ele>883.8571428571429</ele><time>2026-05-03T08:45:08.999Z</time></trkpt><trkpt lat="42.30162281085132" lon="13.643397221254359"><ele>882.4285714285714</ele><time>2026-05-03T08:45:09.999Z</time></trkpt><trkpt lat="42.301545933191704" lon="13.64341288585126"><ele>881.0</ele><time>2026-05-03T08:45:10.999Z</time></trkpt><trkpt lat="42.30147604915268" lon="13.643435095252311"><ele>879.8333333333334</ele><time>2026-05-03T08:45:11.999Z</time></trkpt><trkpt lat="42.3014115039571" lon="13.643465925367632"><ele>878.6666666666667</ele><time>2026-05-03T08:45:12.999Z</time></trkpt><trkpt lat="42.30134501968089" lon="13.643492745385975"><ele>877.5</ele><time>2026-05-03T08:45:13.999Z</time></trkpt><trkpt lat="42.301271912140855" lon="13.643528851903337"><ele>876.3333333333333</ele><time>2026-05-03T08:45:14.999Z</time></trkpt><trkpt lat="42.30120208902565" lon="13.643564388942794"><ele>875.1666666666666</ele><time>2026-05-03T08:45:15.999Z</time></trkpt><trkpt lat="42.301116386302425" lon="13.643595467775794"><ele>874.0</ele><time>2026-05-03T08:45:16.999Z</time></trkpt><trkpt lat="42.30103000431268" lon="13.643624937241054"><ele>873.4999999999999</ele><time>2026-05-03T08:45:17.999Z</time></trkpt><trkpt lat="42.30095382689653" lon="13.643648371472976"><ele>873.0</ele><time>2026-05-03T08:45:18.999Z</time></trkpt><trkpt lat="42.300878164295604" lon="13.64367916443083"><ele>872.5</ele><time>2026-05-03T08:45:19.999Z</time></trkpt><trkpt lat="42.300791389021676" lon="13.643713799475565"><ele>872.0</ele><time>2026-05-03T08:45:20.999Z</time></trkpt><trkpt lat="42.30071023399143" lon="13.64374757100182"><ele>871.4999999999999</ele><time>2026-05-03T08:45:21.999Z</time></trkpt><trkpt lat="42.30062630585906" lon="13.643788498146261"><ele>871.0</ele><time>2026-05-03T08:45:22.999Z</time></trkpt><trkpt lat="42.30053817994793" lon="13.643842984780399"><ele>869.8</ele><time>2026-05-03T08:45:23.999Z</time></trkpt><trkpt lat="42.30044171910887" lon="13.64387544052435"><ele>868.5999999999999</ele><time>2026-05-03T08:45:24.999Z</time></trkpt><trkpt lat="42.30034425810885" lon="13.643881425276366"><ele>867.4</ele><time>2026-05-03T08:45:25.999Z</time></trkpt><trkpt lat="42.30025297075665" lon="13.643896242639746"><ele>866.2</ele><time>2026-05-03T08:45:26.999Z</time></trkpt><trkpt lat="42.300164043376334" lon="13.64391399962757"><ele>865.0</ele><time>2026-05-03T08:45:27.999Z</time></trkpt><trkpt lat="42.30008964093111" lon="13.643922205351213"><ele>864.9999999999999</ele><time>2026-05-03T08:45:28.999Z</time></trkpt><trkpt lat="42.29999319717147" lon="13.643925450955319"><ele>865.0</ele><time>2026-05-03T08:45:29.999Z</time></trkpt><trkpt lat="42.299896341423164" lon="13.643911009654428"><ele>865.0</ele><time>2026-05-03T08:45:30.999Z</time></trkpt><trkpt lat="42.299808470513355" lon="13.64390061856802"><ele>865.0</ele><time>2026-05-03T08:45:31.999Z</time></trkpt><trkpt lat="42.29973663058649" lon="13.643879468363037"><ele>864.9999999999999</ele><time>2026-05-03T08:45:32.999Z</time></trkpt><trkpt lat="42.29966474360981" lon="13.643831416386117"><ele>865.0</ele><time>2026-05-03T08:45:33.999Z</time></trkpt><trkpt lat="42.29958096196742" lon="13.643765446959513"><ele>864.0</ele><time>2026-05-03T08:45:34.999Z</time></trkpt><trkpt lat="42.29948295692199" lon="13.64366794446968"><ele>863.0</ele><time>2026-05-03T08:45:35.999Z</time></trkpt><trkpt lat="42.299372546806296" lon="13.64355848650589"><ele>862.0</ele><time>2026-05-03T08:45:36.999Z</time></trkpt><trkpt lat="42.29925419585743" lon="13.64344631256636"><ele>861.0</ele><time>2026-05-03T08:45:38Z</time></trkpt><trkpt lat="42.29914169055169" lon="13.64334505990284"><ele>859.75</ele><time>2026-05-03T08:45:39Z</time></trkpt><trkpt lat="42.29902444348162" lon="13.643241034157414"><ele>858.5</ele><time>2026-05-03T08:45:40Z</time></trkpt><trkpt lat="42.298906208136465" lon="13.643129749569004"><ele>857.25</ele><time>2026-05-03T08:45:41Z</time></trkpt><trkpt lat="42.29878130459715" lon="13.643002572795444"><ele>856.0</ele><time>2026-05-03T08:45:42Z</time></trkpt><trkpt lat="42.29866548332191" lon="13.642868974383061"><ele>851.6666666666666</ele><time>2026-05-03T08:45:43Z</time></trkpt><trkpt lat="42.29856509391977" lon="13.64272078376434"><ele>847.3333333333333</ele><time>2026-05-03T08:45:44Z</time></trkpt><trkpt lat="42.29847159278027" lon="13.642556183433992"><ele>843.0</ele><time>2026-05-03T08:45:45Z</time></trkpt><trkpt lat="42.29837707123197" lon="13.642377130770301"><ele>843.0</ele><time>2026-05-03T08:45:46Z</time></trkpt><trkpt lat="42.29826712472023" lon="13.642213418044667"><ele>843.0</ele><time>2026-05-03T08:45:47Z</time></trkpt><trkpt lat="42.29815301379644" lon="13.642065154220491"><ele>843.0</ele><time>2026-05-03T08:45:48Z</time></trkpt><trkpt lat="42.298066005314475" lon="13.641948482529894"><ele>843.0</ele><time>2026-05-03T08:45:49Z</time></trkpt><trkpt lat="42.29801974189185" lon="13.641887377398152"><ele>841.0</ele><time>2026-05-03T08:45:50Z</time></trkpt><trkpt lat="42.29795809357916" lon="13.641856092986849"><ele>839.0</ele><time>2026-05-03T08:45:51Z</time></trkpt><trkpt lat="42.29788648086273" lon="13.641820221044615"><ele>837.0</ele><time>2026-05-03T08:45:52Z</time></trkpt><trkpt lat="42.29780698576645" lon="13.64178052735517"><ele>835.0</ele><time>2026-05-03T08:45:53Z</time></trkpt><trkpt lat="42.29774128971378" lon="13.64173348955406"><ele>833.0</ele><time>2026-05-03T08:45:54Z</time></trkpt><trkpt lat="42.297668245791385" lon="13.641687663278411"><ele>831.0</ele><time>2026-05-03T08:45:55Z</time></trkpt><trkpt lat="42.297587961937296" lon="13.641654938623901"><ele>831.0</ele><time>2026-05-03T08:45:56Z</time></trkpt><trkpt lat="42.29748065632464" lon="13.641638321370596"><ele>831.0</ele><time>2026-05-03T08:45:57Z</time></trkpt><trkpt lat="42.29737919324843" lon="13.641644193943387"><ele>831.0</ele><time>2026-05-03T08:45:58Z</time></trkpt><trkpt lat="42.29727833577536" lon="13.641645152834144"><ele>831.0</ele><time>2026-05-03T08:45:59Z</time></trkpt><trkpt lat="42.297192230129355" lon="13.641636833298273"><ele>831.0</ele><time>2026-05-03T08:46:00Z</time></trkpt><trkpt lat="42.29710869244843" lon="13.641612823984115"><ele>829.5</ele><time>2026-05-03T08:46:01Z</time></trkpt><trkpt lat="42.297027922049956" lon="13.641594793461552"><ele>828.0</ele><time>2026-05-03T08:46:02Z</time></trkpt><trkpt lat="42.296944616579644" lon="13.641579317873186"><ele>826.5</ele><time>2026-05-03T08:46:03Z</time></trkpt><trkpt lat="42.29686634366753" lon="13.64155987631737"><ele>825.0</ele><time>2026-05-03T08:46:04Z</time></trkpt><trkpt lat="42.29678448372842" lon="13.641538636423267"><ele>823.5</ele><time>2026-05-03T08:46:05Z</time></trkpt><trkpt lat="42.296714741646255" lon="13.641524978759564"><ele>822.0</ele><time>2026-05-03T08:46:06Z</time></trkpt><trkpt lat="42.29663847572358" lon="13.641539231104657"><ele>822.0</ele><time>2026-05-03T08:46:07Z</time></trkpt><trkpt lat="42.296545644805676" lon="13.641568114926176"><ele>822.0</ele><time>2026-05-03T08:46:08Z</time></trkpt><trkpt lat="42.29645519151985" lon="13.641587162788609"><ele>822.0</ele><time>2026-05-03T08:46:09Z</time></trkpt><trkpt lat="42.2963621519617" lon="13.641581234806395"><ele>822.0</ele><time>2026-05-03T08:46:10Z</time></trkpt><trkpt lat="42.29625412161784" lon="13.641567833661819"><ele>822.0</ele><time>2026-05-03T08:46:11Z</time></trkpt><trkpt lat="42.29614822252527" lon="13.641538152157418"><ele>820.2</ele><time>2026-05-03T08:46:12Z</time></trkpt><trkpt lat="42.29604315927758" lon="13.641500614124048"><ele>818.4000000000001</ele><time>2026-05-03T08:46:13Z</time></trkpt><trkpt lat="42.295956100158925" lon="13.641448170395808"><ele>816.5999999999999</ele><time>2026-05-03T08:46:14Z</time></trkpt><trkpt lat="42.29586709962979" lon="13.641385033352789"><ele>814.8</ele><time>2026-05-03T08:46:15Z</time></trkpt><trkpt lat="42.295777118368285" lon="13.641334601683095"><ele>813.0</ele><time>2026-05-03T08:46:16Z</time></trkpt><trkpt lat="42.29567765833663" lon="13.641312847439075"><ele>811.2</ele><time>2026-05-03T08:46:17Z</time></trkpt><trkpt lat="42.295563032073794" lon="13.641304584804733"><ele>809.4</ele><time>2026-05-03T08:46:18Z</time></trkpt><trkpt lat="42.295455061694" lon="13.64129533197394"><ele>807.6</ele><time>2026-05-03T08:46:19Z</time></trkpt><trkpt lat="42.295365344707925" lon="13.641286242403657"><ele>805.8000000000001</ele><time>2026-05-03T08:46:20Z</time></trkpt><trkpt lat="42.29528661527468" lon="13.641277570074338"><ele>804.0</ele><time>2026-05-03T08:46:21Z</time></trkpt><trkpt lat="42.295194118932024" lon="13.641270947508712"><ele>804.0</ele><time>2026-05-03T08:46:22Z</time></trkpt><trkpt lat="42.29508533963192" lon="13.64126625750565"><ele>804.0</ele><time>2026-05-03T08:46:23Z</time></trkpt><trkpt lat="42.29498395734241" lon="13.641272288061739"><ele>804.0</ele><time>2026-05-03T08:46:24Z</time></trkpt><trkpt lat="42.2949058272788" lon="13.64127225190852"><ele>804.0</ele><time>2026-05-03T08:46:25Z</time></trkpt><trkpt lat="42.29482795880065" lon="13.641279865440605"><ele>804.0</ele><time>2026-05-03T08:46:26Z</time></trkpt><trkpt lat="42.29474852234095" lon="13.641255893261752"><ele>804.0</ele><time>2026-05-03T08:46:27Z</time></trkpt><trkpt lat="42.29466129334386" lon="13.641225444768464"><ele>803.0</ele><time>2026-05-03T08:46:28Z</time></trkpt><trkpt lat="42.29459243839291" lon="13.641188231109698"><ele>802.0</ele><time>2026-05-03T08:46:29Z</time></trkpt><trkpt lat="42.29452938546383" lon="13.641142735728165"><ele>801.0</ele><time>2026-05-03T08:46:30Z</time></trkpt><trkpt lat="42.294446494689716" lon="13.64110593015102"><ele>800.0</ele><time>2026-05-03T08:46:32Z</time></trkpt><trkpt lat="42.29433629768445" lon="13.641142167579524"><ele>799.0</ele><time>2026-05-03T08:46:34.999Z</time></trkpt><trkpt lat="42.29427282761558" lon="13.6412246397112"><ele>798.0</ele><time>2026-05-03T08:46:35.999Z</time></trkpt><trkpt lat="42.2941941644187" lon="13.64132174355524"><ele>798.0</ele><time>2026-05-03T08:46:36.999Z</time></trkpt><trkpt lat="42.294113951664784" lon="13.64140368125808"><ele>798.0</ele><time>2026-05-03T08:46:37.999Z</time></trkpt><trkpt lat="42.2940428166507" lon="13.641475023652491"><ele>798.0</ele><time>2026-05-03T08:46:38.999Z</time></trkpt><trkpt lat="42.29397842275066" lon="13.641551335108325"><ele>798.0</ele><time>2026-05-03T08:46:39.999Z</time></trkpt><trkpt lat="42.29390718981478" lon="13.641640343632332"><ele>798.0</ele><time>2026-05-03T08:46:40.999Z</time></trkpt><trkpt lat="42.293841885753224" lon="13.641736438509032"><ele>798.0</ele><time>2026-05-03T08:46:41.999Z</time></trkpt><trkpt lat="42.29378797057673" lon="13.641843525726658"><ele>798.0</ele><time>2026-05-03T08:46:42.999Z</time></trkpt><trkpt lat="42.293740546311625" lon="13.641964212260342"><ele>798.0</ele><time>2026-05-03T08:46:43.999Z</time></trkpt><trkpt lat="42.293705473297486" lon="13.642078173459046"><ele>798.0</ele><time>2026-05-03T08:46:44.999Z</time></trkpt><trkpt lat="42.29366944844037" lon="13.642188497186595"><ele>798.0</ele><time>2026-05-03T08:46:45.999Z</time></trkpt><trkpt lat="42.29361719272822" lon="13.642293264685488"><ele>798.0</ele><time>2026-05-03T08:46:46.999Z</time></trkpt><trkpt lat="42.29353769770352" lon="13.642373974422364"><ele>798.0</ele><time>2026-05-03T08:46:47.999Z</time></trkpt><trkpt lat="42.29343047775705" lon="13.642437046621051"><ele>798.0</ele><time>2026-05-03T08:46:48.999Z</time></trkpt><trkpt lat="42.29329620637547" lon="13.642493531323023"><ele>798.0</ele><time>2026-05-03T08:46:49.999Z</time></trkpt><trkpt lat="42.293138224142176" lon="13.642570746406303"><ele>797.6666666666667</ele><time>2026-05-03T08:46:50.999Z</time></trkpt><trkpt lat="42.292965284632196" lon="13.642665776381437"><ele>797.3333333333334</ele><time>2026-05-03T08:46:51.999Z</time></trkpt><trkpt lat="42.29280858342597" lon="13.642750946665304"><ele>797.0</ele><time>2026-05-03T08:46:52.999Z</time></trkpt><trkpt lat="42.29266095644724" lon="13.642825875391317"><ele>797.0</ele><time>2026-05-03T08:46:53.999Z</time></trkpt><trkpt lat="42.29249250832518" lon="13.642913409110399"><ele>797.0</ele><time>2026-05-03T08:46:54.999Z</time></trkpt><trkpt lat="42.29230936929069" lon="13.64300437907179"><ele>797.0</ele><time>2026-05-03T08:46:55.999Z</time></trkpt><trkpt lat="42.29211358934569" lon="13.643093995298331"><ele>796.3333333333334</ele><time>2026-05-03T08:46:56.999Z</time></trkpt><trkpt lat="42.291933334825735" lon="13.643165624543743"><ele>795.6666666666667</ele><time>2026-05-03T08:46:57.999Z</time></trkpt><trkpt lat="42.291781741635795" lon="13.643213460897016"><ele>795.0</ele><time>2026-05-03T08:46:58.999Z</time></trkpt><trkpt lat="42.29164977143678" lon="13.643230418452506"><ele>795.0</ele><time>2026-05-03T08:46:59.999Z</time></trkpt><trkpt lat="42.29151657469613" lon="13.643216199847268"><ele>795.0</ele><time>2026-05-03T08:47:00.999Z</time></trkpt><trkpt lat="42.29139100158145" lon="13.643156303891363"><ele>795.0</ele><time>2026-05-03T08:47:01.999Z</time></trkpt><trkpt lat="42.2912689146764" lon="13.643075038529034"><ele>795.0</ele><time>2026-05-03T08:47:02.999Z</time></trkpt><trkpt lat="42.29112653405412" lon="13.643045159530951"><ele>793.6666666666667</ele><time>2026-05-03T08:47:03.999Z</time></trkpt><trkpt lat="42.290968863471264" lon="13.643095171695382"><ele>792.3333333333334</ele><time>2026-05-03T08:47:04.999Z</time></trkpt><trkpt lat="42.29079298199679" lon="13.643160217802835"><ele>791.0</ele><time>2026-05-03T08:47:05.999Z</time></trkpt><trkpt lat="42.2906124749162" lon="13.64321083294224"><ele>789.3333333333334</ele><time>2026-05-03T08:47:06.999Z</time></trkpt><trkpt lat="42.29044568352628" lon="13.643233040308285"><ele>787.6666666666667</ele><time>2026-05-03T08:47:07.999Z</time></trkpt><trkpt lat="42.290288636464794" lon="13.643234446839294"><ele>786.0</ele><time>2026-05-03T08:47:08.999Z</time></trkpt><trkpt lat="42.29013958234354" lon="13.643246529463735"><ele>786.0</ele><time>2026-05-03T08:47:09.999Z</time></trkpt><trkpt lat="42.29000406067098" lon="13.643265594598583"><ele>786.0</ele><time>2026-05-03T08:47:10.999Z</time></trkpt><trkpt lat="42.289885527459994" lon="13.643285321186175"><ele>786.0</ele><time>2026-05-03T08:47:11.999Z</time></trkpt><trkpt lat="42.28979683431035" lon="13.643320529275385"><ele>786.0</ele><time>2026-05-03T08:47:12.999Z</time></trkpt><trkpt lat="42.2897418003428" lon="13.643393828706758"><ele>786.0</ele><time>2026-05-03T08:47:13.999Z</time></trkpt><trkpt lat="42.289698963726046" lon="13.643497604697744"><ele>787.25</ele><time>2026-05-03T08:47:14.999Z</time></trkpt><trkpt lat="42.289699441559485" lon="13.643644135751234"><ele>788.5</ele><time>2026-05-03T08:47:15.999Z</time></trkpt><trkpt lat="42.28973637821091" lon="13.643807801755472"><ele>789.75</ele><time>2026-05-03T08:47:16.999Z</time></trkpt><trkpt lat="42.289791023762845" lon="13.643978000789676"><ele>791.0</ele><time>2026-05-03T08:47:17.999Z</time></trkpt><trkpt lat="42.28983402735541" lon="13.644153186171513"><ele>791.0</ele><time>2026-05-03T08:47:18.999Z</time></trkpt><trkpt lat="42.28985203289067" lon="13.644362474642216"><ele>791.0</ele><time>2026-05-03T08:47:19.999Z</time></trkpt><trkpt lat="42.28987180055116" lon="13.64458403785358"><ele>791.0</ele><time>2026-05-03T08:47:20.999Z</time></trkpt><trkpt lat="42.28990885640052" lon="13.64480315041328"><ele>792.0</ele><time>2026-05-03T08:47:21.999Z</time></trkpt><trkpt lat="42.289960541592656" lon="13.645000599945485"><ele>793.0</ele><time>2026-05-03T08:47:22.999Z</time></trkpt><trkpt lat="42.29001344394728" lon="13.64516820360109"><ele>794.0</ele><time>2026-05-03T08:47:23.999Z</time></trkpt><trkpt lat="42.29005937797274" lon="13.645323230309272"><ele>795.0</ele><time>2026-05-03T08:47:24.999Z</time></trkpt><trkpt lat="42.290093219109366" lon="13.645472491283856"><ele>795.25</ele><time>2026-05-03T08:47:25.999Z</time></trkpt><trkpt lat="42.29011603638501" lon="13.64563120194679"><ele>795.5</ele><time>2026-05-03T08:47:26.999Z</time></trkpt><trkpt lat="42.290116819946626" lon="13.645808345657331"><ele>795.75</ele><time>2026-05-03T08:47:27.999Z</time></trkpt><trkpt lat="42.29009834726983" lon="13.645993917129811"><ele>796.0</ele><time>2026-05-03T08:47:28.999Z</time></trkpt><trkpt lat="42.29007444431382" lon="13.646196900318033"><ele>798.0</ele><time>2026-05-03T08:47:29.999Z</time></trkpt><trkpt lat="42.290032489905194" lon="13.646374126822172"><ele>800.0</ele><time>2026-05-03T08:47:30.999Z</time></trkpt><trkpt lat="42.28994734751705" lon="13.64655168883564"><ele>802.0</ele><time>2026-05-03T08:47:31.999Z</time></trkpt><trkpt lat="42.28984009490856" lon="13.646714677283386"><ele>798.3333333333333</ele><time>2026-05-03T08:47:32.999Z</time></trkpt><trkpt lat="42.28974313794725" lon="13.64690785529276"><ele>794.6666666666667</ele><time>2026-05-03T08:47:33.999Z</time></trkpt><trkpt lat="42.28966327416065" lon="13.647112529035121"><ele>791.0</ele><time>2026-05-03T08:47:34.999Z</time></trkpt><trkpt lat="42.28960651549507" lon="13.6472932393896"><ele>791.0</ele><time>2026-05-03T08:47:35.999Z</time></trkpt><trkpt lat="42.28956909186677" lon="13.647477222015262"><ele>791.0</ele><time>2026-05-03T08:47:36.999Z</time></trkpt><trkpt lat="42.28953090175324" lon="13.647659715016857"><ele>791.0</ele><time>2026-05-03T08:47:37.999Z</time></trkpt><trkpt lat="42.2894512092239" lon="13.647830312703253"><ele>791.0</ele><time>2026-05-03T08:47:38.999Z</time></trkpt><trkpt lat="42.28932569406027" lon="13.648001032733012"><ele>792.6666666666667</ele><time>2026-05-03T08:47:39.999Z</time></trkpt><trkpt lat="42.289189216789104" lon="13.648185392231065"><ele>794.3333333333333</ele><time>2026-05-03T08:47:40.999Z</time></trkpt><trkpt lat="42.28905297647548" lon="13.648358888414345"><ele>796.0</ele><time>2026-05-03T08:47:41.999Z</time></trkpt><trkpt lat="42.28892201300233" lon="13.64851334759048"><ele>793.3333333333333</ele><time>2026-05-03T08:47:42.999Z</time></trkpt><trkpt lat="42.28879206692474" lon="13.648662245958752"><ele>790.6666666666667</ele><time>2026-05-03T08:47:44Z</time></trkpt><trkpt lat="42.288657808299476" lon="13.64882152922499"><ele>788.0</ele><time>2026-05-03T08:47:45Z</time></trkpt><trkpt lat="42.288533976051" lon="13.648978027551403"><ele>788.0</ele><time>2026-05-03T08:47:46Z</time></trkpt><trkpt lat="42.28838074427459" lon="13.649112658712852"><ele>788.0</ele><time>2026-05-03T08:47:47Z</time></trkpt><trkpt lat="42.28823586475587" lon="13.649256781009415"><ele>788.0</ele><time>2026-05-03T08:47:48Z</time></trkpt><trkpt lat="42.288104411293915" lon="13.649414143217875"><ele>785.3333333333334</ele><time>2026-05-03T08:47:49Z</time></trkpt><trkpt lat="42.28798806942494" lon="13.649583610230323"><ele>782.6666666666667</ele><time>2026-05-03T08:47:50Z</time></trkpt><trkpt lat="42.2878785903089" lon="13.649792979622136"><ele>780.0</ele><time>2026-05-03T08:47:51Z</time></trkpt><trkpt lat="42.28779024125726" lon="13.65002430496219"><ele>780.0</ele><time>2026-05-03T08:47:52Z</time></trkpt><trkpt lat="42.287718841141874" lon="13.650237829851422"><ele>780.0</ele><time>2026-05-03T08:47:53Z</time></trkpt><trkpt lat="42.28764932930452" lon="13.65043152692365"><ele>780.0</ele><time>2026-05-03T08:47:54Z</time></trkpt><trkpt lat="42.28759222226456" lon="13.65063287946572"><ele>781.6666666666667</ele><time>2026-05-03T08:47:55Z</time></trkpt><trkpt lat="42.28755552437242" lon="13.650848313332105"><ele>783.3333333333334</ele><time>2026-05-03T08:47:56Z</time></trkpt><trkpt lat="42.28753251197989" lon="13.651046353378252"><ele>785.0</ele><time>2026-05-03T08:47:57Z</time></trkpt><trkpt lat="42.287456302101766" lon="13.651337353016018"><ele>786.0</ele><time>2026-05-03T08:47:58Z</time></trkpt><trkpt lat="42.28746302495879" lon="13.651539858969937"><ele>787.0</ele><time>2026-05-03T08:47:59Z</time></trkpt><trkpt lat="42.28750555230015" lon="13.651752439793377"><ele>788.0</ele><time>2026-05-03T08:48:00.001Z</time></trkpt><trkpt lat="42.28755741082954" lon="13.65196344254832"><ele>789.25</ele><time>2026-05-03T08:48:01.001Z</time></trkpt><trkpt lat="42.28755955672398" lon="13.652146104660758"><ele>790.5</ele><time>2026-05-03T08:48:02.001Z</time></trkpt><trkpt lat="42.28751170399297" lon="13.65230765583504"><ele>791.75</ele><time>2026-05-03T08:48:03.001Z</time></trkpt><trkpt lat="42.28741508794698" lon="13.65244574051056"><ele>793.0</ele><time>2026-05-03T08:48:04.001Z</time></trkpt><trkpt lat="42.287302443393806" lon="13.652584293298787"><ele>789.75</ele><time>2026-05-03T08:48:05.001Z</time></trkpt><trkpt lat="42.287200285403976" lon="13.65272597059111"><ele>786.5</ele><time>2026-05-03T08:48:06.001Z</time></trkpt><trkpt lat="42.287120328407084" lon="13.652877030820198"><ele>783.25</ele><time>2026-05-03T08:48:07.001Z</time></trkpt><trkpt lat="42.28707358375385" lon="13.653079778744889"><ele>780.0</ele><time>2026-05-03T08:48:08.001Z</time></trkpt><trkpt lat="42.287049656300134" lon="13.653312311237858"><ele>780.0</ele><time>2026-05-03T08:48:09.001Z</time></trkpt><trkpt lat="42.28703255503603" lon="13.653557675289736"><ele>780.0</ele><time>2026-05-03T08:48:10.001Z</time></trkpt><trkpt lat="42.287004025900536" lon="13.653781766813891"><ele>780.0</ele><time>2026-05-03T08:48:11.001Z</time></trkpt><trkpt lat="42.28695883562577" lon="13.653978796541287"><ele>781.75</ele><time>2026-05-03T08:48:12.001Z</time></trkpt><trkpt lat="42.286905790340874" lon="13.654132549055445"><ele>783.5</ele><time>2026-05-03T08:48:13.001Z</time></trkpt><trkpt lat="42.28683537918957" lon="13.65427676534789"><ele>785.25</ele><time>2026-05-03T08:48:14.001Z</time></trkpt><trkpt lat="42.28674829985599" lon="13.654403520755263"><ele>787.0</ele><time>2026-05-03T08:48:15Z</time></trkpt><trkpt lat="42.28664896287062" lon="13.654521664556816"><ele>788.0</ele><time>2026-05-03T08:48:16Z</time></trkpt><trkpt lat="42.28656595523706" lon="13.654631760274054"><ele>789.0</ele><time>2026-05-03T08:48:17Z</time></trkpt><trkpt lat="42.28648341266061" lon="13.654742039531012"><ele>790.0</ele><time>2026-05-03T08:48:18Z</time></trkpt><trkpt lat="42.28640273432975" lon="13.654844958409756"><ele>791.0</ele><time>2026-05-03T08:48:19Z</time></trkpt><trkpt lat="42.286336003175904" lon="13.654936703913426"><ele>792.0</ele><time>2026-05-03T08:48:20Z</time></trkpt><trkpt lat="42.286279677877864" lon="13.655018252561854"><ele>790.5</ele><time>2026-05-03T08:48:21Z</time></trkpt><trkpt lat="42.28622560813744" lon="13.655082930913236"><ele>789.0</ele><time>2026-05-03T08:48:22Z</time></trkpt><trkpt lat="42.28619941915887" lon="13.655180206657661"><ele>787.5</ele><time>2026-05-03T08:48:24Z</time></trkpt><trkpt lat="42.286206219502425" lon="13.655310512821083"><ele>786.0</ele><time>2026-05-03T08:48:28Z</time></trkpt><trkpt lat="42.28618723765658" lon="13.655408805933925"><ele>784.5</ele><time>2026-05-03T08:48:29Z</time></trkpt><trkpt lat="42.286160821431594" lon="13.655515862429278"><ele>783.0</ele><time>2026-05-03T08:48:30Z</time></trkpt><trkpt lat="42.28613024689275" lon="13.655615780568475"><ele>783.0</ele><time>2026-05-03T08:48:31Z</time></trkpt><trkpt lat="42.28611059125787" lon="13.655701237425783"><ele>783.0</ele><time>2026-05-03T08:48:32Z</time></trkpt><trkpt lat="42.28607647260405" lon="13.65585119885721"><ele>783.0</ele><time>2026-05-03T08:48:34Z</time></trkpt><trkpt lat="42.28607256140477" lon="13.655960340803908"><ele>783.0</ele><time>2026-05-03T08:48:35Z</time></trkpt><trkpt lat="42.286070950844234" lon="13.656081168914994"><ele>783.0</ele><time>2026-05-03T08:48:36Z</time></trkpt><trkpt lat="42.286067717050614" lon="13.656231123125483"><ele>783.8</ele><time>2026-05-03T08:48:37Z</time></trkpt><trkpt lat="42.2860720776622" lon="13.656374261176191"><ele>784.5999999999999</ele><time>2026-05-03T08:48:38Z</time></trkpt><trkpt lat="42.286074434922014" lon="13.6565254309999"><ele>785.4000000000001</ele><time>2026-05-03T08:48:39Z</time></trkpt><trkpt lat="42.286074275440455" lon="13.656655224734035"><ele>786.2</ele><time>2026-05-03T08:48:40Z</time></trkpt><trkpt lat="42.28607386765372" lon="13.65675930115647"><ele>787.0</ele><time>2026-05-03T08:48:41Z</time></trkpt><trkpt lat="42.286061896770626" lon="13.65688071444834"><ele>788.8</ele><time>2026-05-03T08:48:43Z</time></trkpt><trkpt lat="42.2860401478985" lon="13.65699218889432"><ele>790.6</ele><time>2026-05-03T08:48:45Z</time></trkpt><trkpt lat="42.285994210921125" lon="13.65707328203177"><ele>792.4</ele><time>2026-05-03T08:48:46Z</time></trkpt><trkpt lat="42.28592986256579" lon="13.657162233925055"><ele>794.1999999999999</ele><time>2026-05-03T08:48:47Z</time></trkpt><trkpt lat="42.28585688702344" lon="13.657274906178456"><ele>796.0</ele><time>2026-05-03T08:48:48Z</time></trkpt><trkpt lat="42.28578549315264" lon="13.657388516500143"><ele>796.0</ele><time>2026-05-03T08:48:49Z</time></trkpt><trkpt lat="42.285723593624574" lon="13.657499549319567"><ele>796.0</ele><time>2026-05-03T08:48:50Z</time></trkpt><trkpt lat="42.28565972903101" lon="13.65761009923608"><ele>796.0</ele><time>2026-05-03T08:48:51Z</time></trkpt><trkpt lat="42.28560174005418" lon="13.657708954032048"><ele>796.0</ele><time>2026-05-03T08:48:52Z</time></trkpt><trkpt lat="42.28554264861614" lon="13.657796949879245"><ele>796.0</ele><time>2026-05-03T08:48:53Z</time></trkpt><trkpt lat="42.2854855408515" lon="13.65787706836528"><ele>794.8333333333333</ele><time>2026-05-03T08:48:54Z</time></trkpt><trkpt lat="42.28543703873108" lon="13.657956826333143"><ele>793.6666666666666</ele><time>2026-05-03T08:48:55Z</time></trkpt><trkpt lat="42.28539572820488" lon="13.658026900101977"><ele>792.5</ele><time>2026-05-03T08:48:56Z</time></trkpt><trkpt lat="42.28533155265005" lon="13.658185930439066"><ele>791.3333333333333</ele><time>2026-05-03T08:48:58Z</time></trkpt><trkpt lat="42.285306085907486" lon="13.658266302646608"><ele>790.1666666666666</ele><time>2026-05-03T08:48:59Z</time></trkpt><trkpt lat="42.285261307729904" lon="13.65834818996169"><ele>789.0</ele><time>2026-05-03T08:49:00Z</time></trkpt><trkpt lat="42.285212534925606" lon="13.658422017679555"><ele>789.0</ele><time>2026-05-03T08:49:01Z</time></trkpt><trkpt lat="42.28515356530551" lon="13.658483269212818"><ele>789.0</ele><time>2026-05-03T08:49:02Z</time></trkpt><trkpt lat="42.28511844884733" lon="13.658583006256055"><ele>789.0</ele><time>2026-05-03T08:49:03Z</time></trkpt><trkpt lat="42.285077325780016" lon="13.658681470884275"><ele>789.0</ele><time>2026-05-03T08:49:04Z</time></trkpt><trkpt lat="42.28506046236014" lon="13.658776399423092"><ele>789.0</ele><time>2026-05-03T08:49:05Z</time></trkpt><trkpt lat="42.28503775502002" lon="13.658885107756047"><ele>789.0</ele><time>2026-05-03T08:49:06Z</time></trkpt><trkpt lat="42.28501022333562" lon="13.658991516525495"><ele>790.0</ele><time>2026-05-03T08:49:07Z</time></trkpt><trkpt lat="42.284981687798926" lon="13.659094462308614"><ele>791.0</ele><time>2026-05-03T08:49:08Z</time></trkpt><trkpt lat="42.28495746812153" lon="13.65918587668736"><ele>792.0</ele><time>2026-05-03T08:49:09Z</time></trkpt><trkpt lat="42.284923540582625" lon="13.65926123227842"><ele>793.0</ele><time>2026-05-03T08:49:10Z</time></trkpt><trkpt lat="42.28487388675894" lon="13.659336326481348"><ele>794.0</ele><time>2026-05-03T08:49:11Z</time></trkpt><trkpt lat="42.28480877324505" lon="13.659429319119653"><ele>795.0</ele><time>2026-05-03T08:49:12Z</time></trkpt><trkpt lat="42.284743897919945" lon="13.65952337865644"><ele>795.0</ele><time>2026-05-03T08:49:13Z</time></trkpt><trkpt lat="42.28468555996273" lon="13.659607295112604"><ele>795.0</ele><time>2026-05-03T08:49:14Z</time></trkpt><trkpt lat="42.284643181933845" lon="13.659689981004039"><ele>795.0</ele><time>2026-05-03T08:49:15Z</time></trkpt><trkpt lat="42.28458662550223" lon="13.659818255895056"><ele>795.0</ele><time>2026-05-03T08:49:17Z</time></trkpt><trkpt lat="42.284646266015905" lon="13.659858708218339"><ele>795.0</ele><time>2026-05-03T08:49:38Z</time></trkpt><trkpt lat="42.28475214083037" lon="13.659756618868064"><ele>795.0</ele><time>2026-05-03T08:49:40Z</time></trkpt><trkpt lat="42.28481970976644" lon="13.659726171115306"><ele>795.0</ele><time>2026-05-03T08:49:41Z</time></trkpt><trkpt lat="42.28488504848048" lon="13.659678419043093"><ele>795.0</ele><time>2026-05-03T08:49:43Z</time></trkpt><trkpt lat="42.284905007710464" lon="13.659762155123062"><ele>795.0</ele><time>2026-05-03T08:49:45Z</time></trkpt><trkpt lat="42.284849669425874" lon="13.659918962031949"><ele>795.0</ele><time>2026-05-03T08:49:47Z</time></trkpt><trkpt lat="42.2847920055862" lon="13.660037073112877"><ele>795.0</ele><time>2026-05-03T08:49:48Z</time></trkpt><trkpt lat="42.28472360789" lon="13.660143942983149"><ele>795.0</ele><time>2026-05-03T08:49:49Z</time></trkpt><trkpt lat="42.28463160256331" lon="13.660227889102421"><ele>795.0</ele><time>2026-05-03T08:49:50Z</time></trkpt><trkpt lat="42.28454673902044" lon="13.6603189533893"><ele>795.0</ele><time>2026-05-03T08:49:51Z</time></trkpt><trkpt lat="42.28444401475384" lon="13.660414615856865"><ele>795.0</ele><time>2026-05-03T08:49:52Z</time></trkpt><trkpt lat="42.28433310443073" lon="13.660503971340972"><ele>800.25</ele><time>2026-05-03T08:49:53Z</time></trkpt><trkpt lat="42.28422331084001" lon="13.660599499090736"><ele>805.5</ele><time>2026-05-03T08:49:54Z</time></trkpt><trkpt lat="42.28413027465478" lon="13.660713997206816"><ele>810.75</ele><time>2026-05-03T08:49:55Z</time></trkpt><trkpt lat="42.28405317369582" lon="13.660849815535082"><ele>816.0</ele><time>2026-05-03T08:49:56Z</time></trkpt><trkpt lat="42.283992368442505" lon="13.660983270630924"><ele>816.0</ele><time>2026-05-03T08:49:57Z</time></trkpt><trkpt lat="42.283941042338725" lon="13.661107609371522"><ele>816.0</ele><time>2026-05-03T08:49:58Z</time></trkpt><trkpt lat="42.28388754015939" lon="13.661238024279033"><ele>816.0</ele><time>2026-05-03T08:49:59Z</time></trkpt><trkpt lat="42.28383458606322" lon="13.661384944651354"><ele>816.0</ele><time>2026-05-03T08:50:00Z</time></trkpt><trkpt lat="42.28377806621109" lon="13.661541926682288"><ele>814.75</ele><time>2026-05-03T08:50:01Z</time></trkpt><trkpt lat="42.28372566656341" lon="13.66171523921268"><ele>813.5</ele><time>2026-05-03T08:50:02Z</time></trkpt><trkpt lat="42.28367101063762" lon="13.661889043724708"><ele>812.25</ele><time>2026-05-03T08:50:03Z</time></trkpt><trkpt lat="42.283613000942445" lon="13.662076349779273"><ele>811.0</ele><time>2026-05-03T08:50:04Z</time></trkpt><trkpt lat="42.28355355317761" lon="13.662263157221137"><ele>815.75</ele><time>2026-05-03T08:50:05Z</time></trkpt><trkpt lat="42.28348184595945" lon="13.66245105185133"><ele>820.5</ele><time>2026-05-03T08:50:06Z</time></trkpt><trkpt lat="42.28341255289591" lon="13.662635645330102"><ele>825.25</ele><time>2026-05-03T08:50:07Z</time></trkpt><trkpt lat="42.283357417838495" lon="13.662790152326322"><ele>830.0</ele><time>2026-05-03T08:50:08Z</time></trkpt><trkpt lat="42.283310416380985" lon="13.662934101786819"><ele>827.0</ele><time>2026-05-03T08:50:09Z</time></trkpt><trkpt lat="42.283261415610895" lon="13.66306300971265"><ele>824.0</ele><time>2026-05-03T08:50:10Z</time></trkpt><trkpt lat="42.28320609942278" lon="13.66319523714992"><ele>821.0</ele><time>2026-05-03T08:50:11Z</time></trkpt><trkpt lat="42.28315237451434" lon="13.663321215006494"><ele>818.0</ele><time>2026-05-03T08:50:12Z</time></trkpt><trkpt lat="42.2830959884532" lon="13.66344499633353"><ele>815.0</ele><time>2026-05-03T08:50:13Z</time></trkpt><trkpt lat="42.283041335999485" lon="13.663570631657919"><ele>817.6</ele><time>2026-05-03T08:50:14Z</time></trkpt><trkpt lat="42.282984138685265" lon="13.663700506717941"><ele>820.2</ele><time>2026-05-03T08:50:15Z</time></trkpt><trkpt lat="42.28293117719706" lon="13.663820548790127"><ele>822.8</ele><time>2026-05-03T08:50:16Z</time></trkpt><trkpt lat="42.282875322224236" lon="13.663937417085199"><ele>825.4</ele><time>2026-05-03T08:50:17Z</time></trkpt><trkpt lat="42.282820589617906" lon="13.66406084458572"><ele>828.0</ele><time>2026-05-03T08:50:18Z</time></trkpt><trkpt lat="42.28277403826008" lon="13.664174952030569"><ele>828.0</ele><time>2026-05-03T08:50:19Z</time></trkpt><trkpt lat="42.282728267698445" lon="13.664280908532438"><ele>828.0</ele><time>2026-05-03T08:50:20Z</time></trkpt><trkpt lat="42.28267647264644" lon="13.664396938653445"><ele>828.0</ele><time>2026-05-03T08:50:21Z</time></trkpt><trkpt lat="42.28262489935748" lon="13.664512517570678"><ele>828.0</ele><time>2026-05-03T08:50:22Z</time></trkpt><trkpt lat="42.282573560878035" lon="13.664639268308806"><ele>828.0</ele><time>2026-05-03T08:50:23Z</time></trkpt><trkpt lat="42.28252508086752" lon="13.664755585914852"><ele>831.75</ele><time>2026-05-03T08:50:24Z</time></trkpt><trkpt lat="42.282473659424824" lon="13.664888881911208"><ele>835.5</ele><time>2026-05-03T08:50:25Z</time></trkpt><trkpt lat="42.28241293822422" lon="13.665034278188903"><ele>839.25</ele><time>2026-05-03T08:50:26Z</time></trkpt><trkpt lat="42.282351191782475" lon="13.665189145561882"><ele>843.0</ele><time>2026-05-03T08:50:27Z</time></trkpt><trkpt lat="42.28228104953783" lon="13.665350963912326"><ele>837.6666666666667</ele><time>2026-05-03T08:50:28Z</time></trkpt><trkpt lat="42.28220368809643" lon="13.665527425573048"><ele>832.3333333333334</ele><time>2026-05-03T08:50:29Z</time></trkpt><trkpt lat="42.282107345984436" lon="13.66575098775516"><ele>827.0</ele><time>2026-05-03T08:50:30Z</time></trkpt><trkpt lat="42.28200166733108" lon="13.666004886675987"><ele>832.0</ele><time>2026-05-03T08:50:31Z</time></trkpt><trkpt lat="42.28189495130842" lon="13.666252877488393"><ele>837.0</ele><time>2026-05-03T08:50:32Z</time></trkpt><trkpt lat="42.28180279290835" lon="13.666470906545596"><ele>842.0</ele><time>2026-05-03T08:50:33Z</time></trkpt><trkpt lat="42.281716369874445" lon="13.666670226112766"><ele>842.0</ele><time>2026-05-03T08:50:34Z</time></trkpt><trkpt lat="42.28163395403898" lon="13.666845994976747"><ele>842.0</ele><time>2026-05-03T08:50:35Z</time></trkpt><trkpt lat="42.28154110767113" lon="13.667019340890224"><ele>842.0</ele><time>2026-05-03T08:50:36Z</time></trkpt><trkpt lat="42.28145472057998" lon="13.667200333446969"><ele>838.3333333333334</ele><time>2026-05-03T08:50:37Z</time></trkpt><trkpt lat="42.281377400451454" lon="13.667375276584668"><ele>834.6666666666667</ele><time>2026-05-03T08:50:38Z</time></trkpt><trkpt lat="42.281311427799146" lon="13.667553853809366"><ele>831.0</ele><time>2026-05-03T08:50:39Z</time></trkpt><trkpt lat="42.281232403123084" lon="13.667735937336724"><ele>835.0</ele><time>2026-05-03T08:50:40Z</time></trkpt><trkpt lat="42.28114459711397" lon="13.667933561969594"><ele>839.0</ele><time>2026-05-03T08:50:41Z</time></trkpt><trkpt lat="42.281049464137865" lon="13.668133772427925"><ele>843.0</ele><time>2026-05-03T08:50:42Z</time></trkpt><trkpt lat="42.28095641396652" lon="13.668312197113112"><ele>843.0</ele><time>2026-05-03T08:50:43Z</time></trkpt><trkpt lat="42.28086718488414" lon="13.668475279404744"><ele>843.0</ele><time>2026-05-03T08:50:44Z</time></trkpt><trkpt lat="42.280767395308295" lon="13.668639509282203"><ele>843.0</ele><time>2026-05-03T08:50:45Z</time></trkpt><trkpt lat="42.28065631544014" lon="13.668812289995065"><ele>840.3333333333333</ele><time>2026-05-03T08:50:46Z</time></trkpt><trkpt lat="42.280539187571726" lon="13.668989315221372"><ele>837.6666666666666</ele><time>2026-05-03T08:50:47Z</time></trkpt><trkpt lat="42.28042697140862" lon="13.669145316859893"><ele>835.0</ele><time>2026-05-03T08:50:48Z</time></trkpt><trkpt lat="42.2803241471374" lon="13.669303231891455"><ele>840.3333333333333</ele><time>2026-05-03T08:50:49Z</time></trkpt><trkpt lat="42.28021694045115" lon="13.669464694246923"><ele>845.6666666666667</ele><time>2026-05-03T08:50:50Z</time></trkpt><trkpt lat="42.28011098892325" lon="13.66963427461037"><ele>851.0</ele><time>2026-05-03T08:50:51Z</time></trkpt><trkpt lat="42.279992239058195" lon="13.669811356773534"><ele>851.0</ele><time>2026-05-03T08:50:52Z</time></trkpt><trkpt lat="42.27987292181053" lon="13.669995634425469"><ele>851.0</ele><time>2026-05-03T08:50:53Z</time></trkpt><trkpt lat="42.2797638365515" lon="13.67016688878983"><ele>851.0</ele><time>2026-05-03T08:50:54Z</time></trkpt><trkpt lat="42.279657246146805" lon="13.670326505147008"><ele>848.3333333333334</ele><time>2026-05-03T08:50:55Z</time></trkpt><trkpt lat="42.27954664828655" lon="13.670490719622686"><ele>845.6666666666667</ele><time>2026-05-03T08:50:56Z</time></trkpt><trkpt lat="42.27943652072965" lon="13.670660121099576"><ele>843.0</ele><time>2026-05-03T08:50:57Z</time></trkpt><trkpt lat="42.27932341406447" lon="13.670820075392736"><ele>843.0</ele><time>2026-05-03T08:50:58Z</time></trkpt><trkpt lat="42.27921251385239" lon="13.670986303932512"><ele>843.0</ele><time>2026-05-03T08:50:59Z</time></trkpt><trkpt lat="42.279099396816754" lon="13.671142164889908"><ele>843.0</ele><time>2026-05-03T08:51:00Z</time></trkpt><trkpt lat="42.27898063814093" lon="13.671303571336646"><ele>841.0</ele><time>2026-05-03T08:51:01Z</time></trkpt><trkpt lat="42.27886302459954" lon="13.671471266307234"><ele>839.0</ele><time>2026-05-03T08:51:02Z</time></trkpt><trkpt lat="42.278748747709926" lon="13.67163856436762"><ele>837.0</ele><time>2026-05-03T08:51:03Z</time></trkpt><trkpt lat="42.278640369109056" lon="13.671799127184814"><ele>842.0</ele><time>2026-05-03T08:51:04Z</time></trkpt><trkpt lat="42.278525328677986" lon="13.67196026812514"><ele>847.0</ele><time>2026-05-03T08:51:05Z</time></trkpt><trkpt lat="42.278419676871394" lon="13.672123145062553"><ele>852.0</ele><time>2026-05-03T08:51:06Z</time></trkpt><trkpt lat="42.278316466689" lon="13.672296497033482"><ele>852.0</ele><time>2026-05-03T08:51:07Z</time></trkpt><trkpt lat="42.278218089277104" lon="13.672468142937854"><ele>852.0</ele><time>2026-05-03T08:51:08Z</time></trkpt><trkpt lat="42.27812450652252" lon="13.672606285043635"><ele>852.0</ele><time>2026-05-03T08:51:09Z</time></trkpt><trkpt lat="42.278026816654055" lon="13.672746426506485"><ele>852.0</ele><time>2026-05-03T08:51:10Z</time></trkpt><trkpt lat="42.277927100900975" lon="13.67290409077189"><ele>848.3333333333333</ele><time>2026-05-03T08:51:11Z</time></trkpt><trkpt lat="42.27781842742609" lon="13.673057504792906"><ele>844.6666666666666</ele><time>2026-05-03T08:51:12Z</time></trkpt><trkpt lat="42.27770651099304" lon="13.67322111830363"><ele>841.0</ele><time>2026-05-03T08:51:13Z</time></trkpt><trkpt lat="42.27759448142155" lon="13.673381731965254"><ele>841.0</ele><time>2026-05-03T08:51:14Z</time></trkpt><trkpt lat="42.27748225938269" lon="13.67354443152244"><ele>841.0</ele><time>2026-05-03T08:51:15Z</time></trkpt><trkpt lat="42.27736796584631" lon="13.673701491548373"><ele>841.0</ele><time>2026-05-03T08:51:16Z</time></trkpt><trkpt lat="42.27725971131782" lon="13.673862654756476"><ele>840.3333333333333</ele><time>2026-05-03T08:51:17Z</time></trkpt><trkpt lat="42.27714634441949" lon="13.674019288224216"><ele>839.6666666666667</ele><time>2026-05-03T08:51:18Z</time></trkpt><trkpt lat="42.27704740407686" lon="13.67417962770338"><ele>839.0</ele><time>2026-05-03T08:51:19Z</time></trkpt><trkpt lat="42.276949353499276" lon="13.674336201522097"><ele>842.25</ele><time>2026-05-03T08:51:20Z</time></trkpt><trkpt lat="42.27686243843812" lon="13.674469841478652"><ele>845.5</ele><time>2026-05-03T08:51:21Z</time></trkpt><trkpt lat="42.27677192899052" lon="13.674597458079583"><ele>848.75</ele><time>2026-05-03T08:51:22Z</time></trkpt><trkpt lat="42.27667872474947" lon="13.67473060501457"><ele>852.0</ele><time>2026-05-03T08:51:23Z</time></trkpt><trkpt lat="42.27658316150376" lon="13.674861513389324"><ele>852.0</ele><time>2026-05-03T08:51:24Z</time></trkpt><trkpt lat="42.276482474269784" lon="13.674994425142406"><ele>852.0</ele><time>2026-05-03T08:51:25Z</time></trkpt><trkpt lat="42.27637156425721" lon="13.67513710887213"><ele>852.0</ele><time>2026-05-03T08:51:26Z</time></trkpt><trkpt lat="42.2762613601" lon="13.67528801238677"><ele>850.6666666666667</ele><time>2026-05-03T08:51:27Z</time></trkpt><trkpt lat="42.27614896069326" lon="13.675442125334385"><ele>849.3333333333334</ele><time>2026-05-03T08:51:28Z</time></trkpt><trkpt lat="42.276030539669804" lon="13.675595822093866"><ele>848.0</ele><time>2026-05-03T08:51:29Z</time></trkpt><trkpt lat="42.275913502299005" lon="13.675752242727386"><ele>848.0</ele><time>2026-05-03T08:51:30Z</time></trkpt><trkpt lat="42.27578706409283" lon="13.67591015864152"><ele>848.0</ele><time>2026-05-03T08:51:31Z</time></trkpt><trkpt lat="42.27566115802996" lon="13.676073706642491"><ele>848.0</ele><time>2026-05-03T08:51:32Z</time></trkpt><trkpt lat="42.27554876154527" lon="13.676230314108496"><ele>847.5</ele><time>2026-05-03T08:51:33Z</time></trkpt><trkpt lat="42.275444694673396" lon="13.67637879199384"><ele>847.0</ele><time>2026-05-03T08:51:34Z</time></trkpt><trkpt lat="42.275366357315676" lon="13.67648936070073"><ele>846.5</ele><time>2026-05-03T08:51:35Z</time></trkpt><trkpt lat="42.275282640846676" lon="13.676598962301174"><ele>846.0</ele><time>2026-05-03T08:51:36Z</time></trkpt><trkpt lat="42.27519124670817" lon="13.676717716175826"><ele>846.0</ele><time>2026-05-03T08:51:37Z</time></trkpt><trkpt lat="42.27510276806598" lon="13.676832209317084"><ele>846.0</ele><time>2026-05-03T08:51:38Z</time></trkpt><trkpt lat="42.275006149960426" lon="13.676973924931511"><ele>846.0</ele><time>2026-05-03T08:51:39Z</time></trkpt><trkpt lat="42.274909760626606" lon="13.677113323976725"><ele>846.0</ele><time>2026-05-03T08:51:40Z</time></trkpt><trkpt lat="42.274811240145205" lon="13.677245564941057"><ele>846.75</ele><time>2026-05-03T08:51:41Z</time></trkpt><trkpt lat="42.27472811312444" lon="13.677371174967396"><ele>847.5</ele><time>2026-05-03T08:51:42Z</time></trkpt><trkpt lat="42.274635020428406" lon="13.677486307792629"><ele>848.25</ele><time>2026-05-03T08:51:43Z</time></trkpt><trkpt lat="42.27453283523432" lon="13.677607920558197"><ele>849.0</ele><time>2026-05-03T08:51:44Z</time></trkpt><trkpt lat="42.274433880928036" lon="13.677732518116876"><ele>853.75</ele><time>2026-05-03T08:51:45Z</time></trkpt><trkpt lat="42.27432659267187" lon="13.677860823482604"><ele>858.5</ele><time>2026-05-03T08:51:46Z</time></trkpt><trkpt lat="42.27422443352666" lon="13.677996755341928"><ele>863.25</ele><time>2026-05-03T08:51:47Z</time></trkpt><trkpt lat="42.27412115811862" lon="13.678129881054895"><ele>868.0</ele><time>2026-05-03T08:51:48Z</time></trkpt><trkpt lat="42.2740242538887" lon="13.67828850158565"><ele>867.25</ele><time>2026-05-03T08:51:49Z</time></trkpt><trkpt lat="42.273923935999726" lon="13.678399081998588"><ele>866.5</ele><time>2026-05-03T08:51:50Z</time></trkpt><trkpt lat="42.27382299779237" lon="13.678532000310653"><ele>865.75</ele><time>2026-05-03T08:51:51Z</time></trkpt><trkpt lat="42.27372113847605" lon="13.678674500431642"><ele>865.0</ele><time>2026-05-03T08:51:52Z</time></trkpt><trkpt lat="42.27362502728051" lon="13.678828792689552"><ele>865.0</ele><time>2026-05-03T08:51:53Z</time></trkpt><trkpt lat="42.273519469239325" lon="13.678989450051017"><ele>865.0</ele><time>2026-05-03T08:51:54Z</time></trkpt><trkpt lat="42.27341716878245" lon="13.679133431953149"><ele>865.0</ele><time>2026-05-03T08:51:55Z</time></trkpt><trkpt lat="42.273328802935175" lon="13.679281473261248"><ele>865.0</ele><time>2026-05-03T08:51:56Z</time></trkpt><trkpt lat="42.273246487596296" lon="13.679439014414243"><ele>868.0</ele><time>2026-05-03T08:51:57Z</time></trkpt><trkpt lat="42.27317788163844" lon="13.679603299085294"><ele>871.0</ele><time>2026-05-03T08:51:58Z</time></trkpt><trkpt lat="42.273113885284936" lon="13.679767619537483"><ele>874.0</ele><time>2026-05-03T08:51:59Z</time></trkpt><trkpt lat="42.27306040361989" lon="13.67992853398839"><ele>877.0</ele><time>2026-05-03T08:52:00.001Z</time></trkpt><trkpt lat="42.2730212494306" lon="13.680062155512656"><ele>873.5</ele><time>2026-05-03T08:52:01Z</time></trkpt><trkpt lat="42.27297057050722" lon="13.680194573655882"><ele>870.0</ele><time>2026-05-03T08:52:02.001Z</time></trkpt><trkpt lat="42.27291660360561" lon="13.680355629796882"><ele>866.5</ele><time>2026-05-03T08:52:03.001Z</time></trkpt><trkpt lat="42.27286090371895" lon="13.680498073614444"><ele>863.0</ele><time>2026-05-03T08:52:04.001Z</time></trkpt><trkpt lat="42.272816040950836" lon="13.680620800520039"><ele>863.0</ele><time>2026-05-03T08:52:05.001Z</time></trkpt><trkpt lat="42.27276423201908" lon="13.68074978358666"><ele>863.0</ele><time>2026-05-03T08:52:06.001Z</time></trkpt><trkpt lat="42.272700935114564" lon="13.680912322667384"><ele>863.0</ele><time>2026-05-03T08:52:07Z</time></trkpt><trkpt lat="42.272630681001665" lon="13.681095612630292"><ele>863.0</ele><time>2026-05-03T08:52:08Z</time></trkpt><trkpt lat="42.272550098449514" lon="13.681292496106176"><ele>866.6666666666667</ele><time>2026-05-03T08:52:09.001Z</time></trkpt><trkpt lat="42.27246842444974" lon="13.68149216347398"><ele>870.3333333333333</ele><time>2026-05-03T08:52:10Z</time></trkpt><trkpt lat="42.272399202841605" lon="13.681679098129162"><ele>874.0</ele><time>2026-05-03T08:52:11Z</time></trkpt><trkpt lat="42.272334654762275" lon="13.681844068888903"><ele>870.3333333333333</ele><time>2026-05-03T08:52:12Z</time></trkpt><trkpt lat="42.272266457189886" lon="13.682011134194928"><ele>866.6666666666667</ele><time>2026-05-03T08:52:13Z</time></trkpt><trkpt lat="42.27219374335629" lon="13.682196287265507"><ele>863.0</ele><time>2026-05-03T08:52:14Z</time></trkpt><trkpt lat="42.27212138093697" lon="13.682385588273027"><ele>863.0</ele><time>2026-05-03T08:52:15Z</time></trkpt><trkpt lat="42.2720483377141" lon="13.682567279387651"><ele>863.0</ele><time>2026-05-03T08:52:16Z</time></trkpt><trkpt lat="42.27197581620057" lon="13.682747878058656"><ele>863.0</ele><time>2026-05-03T08:52:17Z</time></trkpt><trkpt lat="42.27190643565454" lon="13.682917632312918"><ele>863.0</ele><time>2026-05-03T08:52:18Z</time></trkpt><trkpt lat="42.27184222388354" lon="13.683089001062651"><ele>865.25</ele><time>2026-05-03T08:52:19Z</time></trkpt><trkpt lat="42.271787382121886" lon="13.683271738305182"><ele>867.5</ele><time>2026-05-03T08:52:20Z</time></trkpt><trkpt lat="42.271743381097046" lon="13.683431844394448"><ele>869.75</ele><time>2026-05-03T08:52:21Z</time></trkpt><trkpt lat="42.271701205275434" lon="13.683603502725246"><ele>872.0</ele><time>2026-05-03T08:52:22Z</time></trkpt><trkpt lat="42.27164847871177" lon="13.68378269325027"><ele>871.2</ele><time>2026-05-03T08:52:23Z</time></trkpt><trkpt lat="42.2715930696648" lon="13.683937312100118"><ele>870.4000000000001</ele><time>2026-05-03T08:52:24Z</time></trkpt><trkpt lat="42.2715576207984" lon="13.684066226725507"><ele>869.5999999999999</ele><time>2026-05-03T08:52:25Z</time></trkpt><trkpt lat="42.27149577580436" lon="13.684194321631775"><ele>868.8</ele><time>2026-05-03T08:52:26Z</time></trkpt><trkpt lat="42.27143809495035" lon="13.684301093789054"><ele>868.0</ele><time>2026-05-03T08:52:27Z</time></trkpt><trkpt lat="42.27136587685408" lon="13.684409725656652"><ele>872.5</ele><time>2026-05-03T08:52:28Z</time></trkpt><trkpt lat="42.27128335655262" lon="13.684533864027621"><ele>877.0</ele><time>2026-05-03T08:52:29Z</time></trkpt><trkpt lat="42.27120385445416" lon="13.684665094738493"><ele>881.5</ele><time>2026-05-03T08:52:30Z</time></trkpt><trkpt lat="42.27113236015315" lon="13.68478542827952"><ele>886.0</ele><time>2026-05-03T08:52:31Z</time></trkpt><trkpt lat="42.271063343639625" lon="13.684907844648173"><ele>886.0</ele><time>2026-05-03T08:52:32Z</time></trkpt><trkpt lat="42.27099685802245" lon="13.68503666375707"><ele>885.9999999999999</ele><time>2026-05-03T08:52:33Z</time></trkpt><trkpt lat="42.27093251397276" lon="13.685139534445977"><ele>885.9999999999999</ele><time>2026-05-03T08:52:34Z</time></trkpt><trkpt lat="42.27087873359064" lon="13.685254725247178"><ele>886.0</ele><time>2026-05-03T08:52:35Z</time></trkpt><trkpt lat="42.27082760320275" lon="13.6853648335631"><ele>886.0</ele><time>2026-05-03T08:52:36Z</time></trkpt><trkpt lat="42.27078210268629" lon="13.68546864592374"><ele>889.4</ele><time>2026-05-03T08:52:37Z</time></trkpt><trkpt lat="42.27072594976828" lon="13.685578743725914"><ele>892.8</ele><time>2026-05-03T08:52:38Z</time></trkpt><trkpt lat="42.27068545321539" lon="13.685691206166782"><ele>896.1999999999999</ele><time>2026-05-03T08:52:39Z</time></trkpt><trkpt lat="42.270651341517684" lon="13.685806468454846"><ele>899.5999999999999</ele><time>2026-05-03T08:52:40Z</time></trkpt><trkpt lat="42.27062329297822" lon="13.685908376777565"><ele>903.0</ele><time>2026-05-03T08:52:41Z</time></trkpt><trkpt lat="42.270609403342775" lon="13.686027030620265"><ele>901.5999999999999</ele><time>2026-05-03T08:52:42Z</time></trkpt><trkpt lat="42.270599577774654" lon="13.686158796963127"><ele>900.1999999999999</ele><time>2026-05-03T08:52:43Z</time></trkpt><trkpt lat="42.27060053306639" lon="13.68630923328593"><ele>898.8</ele><time>2026-05-03T08:52:44Z</time></trkpt><trkpt lat="42.27061832670142" lon="13.686451768831937"><ele>897.4</ele><time>2026-05-03T08:52:45Z</time></trkpt><trkpt lat="42.27063708897406" lon="13.686595303229359"><ele>896.0</ele><time>2026-05-03T08:52:46Z</time></trkpt><trkpt lat="42.27068498961202" lon="13.686745634273759"><ele>900.1999999999999</ele><time>2026-05-03T08:52:47Z</time></trkpt><trkpt lat="42.27074368306679" lon="13.686882214595045"><ele>904.3999999999999</ele><time>2026-05-03T08:52:48Z</time></trkpt><trkpt lat="42.27078520773677" lon="13.68701167104025"><ele>908.6</ele><time>2026-05-03T08:52:49Z</time></trkpt><trkpt lat="42.27079370809769" lon="13.68712551403332"><ele>912.8</ele><time>2026-05-03T08:52:50Z</time></trkpt><trkpt lat="42.270786203356536" lon="13.68725520952549"><ele>917.0</ele><time>2026-05-03T08:52:51Z</time></trkpt><trkpt lat="42.270782335359115" lon="13.687403392263269"><ele>917.75</ele><time>2026-05-03T08:52:52Z</time></trkpt><trkpt lat="42.27077586956221" lon="13.687612445843257"><ele>918.5</ele><time>2026-05-03T08:52:53Z</time></trkpt><trkpt lat="42.27075448351317" lon="13.687789517043235"><ele>919.25</ele><time>2026-05-03T08:52:54Z</time></trkpt><trkpt lat="42.27073655400453" lon="13.68796755654264"><ele>920.0</ele><time>2026-05-03T08:52:55Z</time></trkpt><trkpt lat="42.27073844975273" lon="13.68806001137455"><ele>920.0000000000001</ele><time>2026-05-03T08:52:56Z</time></trkpt><trkpt lat="42.27075999802967" lon="13.688147756123104"><ele>920.0</ele><time>2026-05-03T08:52:57Z</time></trkpt><trkpt lat="42.270811217998414" lon="13.6882084677586"><ele>920.0</ele><time>2026-05-03T08:52:58Z</time></trkpt><trkpt lat="42.27087633164109" lon="13.68821433848517"><ele>920.0</ele><time>2026-05-03T08:52:59Z</time></trkpt><trkpt lat="42.27097497615189" lon="13.68812973457412"><ele>920.0000000000001</ele><time>2026-05-03T08:53:01Z</time></trkpt><trkpt lat="42.27101027191676" lon="13.688036041771646"><ele>920.0</ele><time>2026-05-03T08:53:02Z</time></trkpt><trkpt lat="42.271031579234354" lon="13.687928038704468"><ele>920.0000000000001</ele><time>2026-05-03T08:53:03Z</time></trkpt><trkpt lat="42.271052910081465" lon="13.687832056122364"><ele>920.0</ele><time>2026-05-03T08:53:04Z</time></trkpt><trkpt lat="42.27106307024646" lon="13.687728588139459"><ele>920.0</ele><time>2026-05-03T08:53:05Z</time></trkpt><trkpt lat="42.271077547542085" lon="13.687594577937913"><ele>920.0</ele><time>2026-05-03T08:53:06Z</time></trkpt><trkpt lat="42.27109470791085" lon="13.687471507597886"><ele>920.0000000000001</ele><time>2026-05-03T08:53:07Z</time></trkpt><trkpt lat="42.271131167364864" lon="13.687343926550628"><ele>920.0</ele><time>2026-05-03T08:53:08Z</time></trkpt><trkpt lat="42.271175548958375" lon="13.687206125189018"><ele>919.4</ele><time>2026-05-03T08:53:09Z</time></trkpt><trkpt lat="42.27122198158092" lon="13.687067637663052"><ele>918.8</ele><time>2026-05-03T08:53:10Z</time></trkpt><trkpt lat="42.27126717869357" lon="13.686966834410038"><ele>918.2</ele><time>2026-05-03T08:53:11Z</time></trkpt><trkpt lat="42.271321825176244" lon="13.686882459129958"><ele>917.6</ele><time>2026-05-03T08:53:12Z</time></trkpt><trkpt lat="42.27139515274825" lon="13.686817616817219"><ele>917.0</ele><time>2026-05-03T08:53:14Z</time></trkpt><trkpt lat="42.27143902677549" lon="13.68691371991825"><ele>918.1666666666667</ele><time>2026-05-03T08:53:16Z</time></trkpt><trkpt lat="42.2714833942538" lon="13.687065119741716"><ele>919.3333333333334</ele><time>2026-05-03T08:53:18Z</time></trkpt><trkpt lat="42.271438626783215" lon="13.687155721564627"><ele>920.5</ele><time>2026-05-03T08:53:19Z</time></trkpt><trkpt lat="42.27141536557664" lon="13.68725145580849"><ele>921.6666666666667</ele><time>2026-05-03T08:53:20Z</time></trkpt><trkpt lat="42.2713837562573" lon="13.687351582658895"><ele>922.8333333333334</ele><time>2026-05-03T08:53:21Z</time></trkpt><trkpt lat="42.27137018292725" lon="13.68746502093926"><ele>924.0</ele><time>2026-05-03T08:53:22Z</time></trkpt><trkpt lat="42.27136416168956" lon="13.687588147942915"><ele>924.0</ele><time>2026-05-03T08:53:23Z</time></trkpt><trkpt lat="42.27136514122872" lon="13.687702733358265"><ele>924.0000000000001</ele><time>2026-05-03T08:53:24Z</time></trkpt><trkpt lat="42.2713928925373" lon="13.687844221133073"><ele>924.0000000000001</ele><time>2026-05-03T08:53:25Z</time></trkpt><trkpt lat="42.27142544627359" lon="13.687971572798412"><ele>924.0</ele><time>2026-05-03T08:53:26Z</time></trkpt><trkpt lat="42.271470780345325" lon="13.688064720749983"><ele>924.0</ele><time>2026-05-03T08:53:27Z</time></trkpt><trkpt lat="42.27151925193669" lon="13.688145309505561"><ele>927.6</ele><time>2026-05-03T08:53:28Z</time></trkpt><trkpt lat="42.27158251645506" lon="13.688215955063733"><ele>931.2</ele><time>2026-05-03T08:53:29Z</time></trkpt><trkpt lat="42.27165065303926" lon="13.688280878991272"><ele>934.8000000000001</ele><time>2026-05-03T08:53:30Z</time></trkpt><trkpt lat="42.27173408432742" lon="13.688324856792597"><ele>938.4000000000001</ele><time>2026-05-03T08:53:31Z</time></trkpt><trkpt lat="42.27182632265571" lon="13.688350312283449"><ele>942.0</ele><time>2026-05-03T08:53:32Z</time></trkpt><trkpt lat="42.27193793305882" lon="13.68838808932627"><ele>942.0</ele><time>2026-05-03T08:53:33Z</time></trkpt><trkpt lat="42.27204439797718" lon="13.688436848343779"><ele>942.0</ele><time>2026-05-03T08:53:34Z</time></trkpt><trkpt lat="42.27213921883607" lon="13.688485320909622"><ele>942.0</ele><time>2026-05-03T08:53:35Z</time></trkpt><trkpt lat="42.27223650202254" lon="13.688531908361245"><ele>942.0</ele><time>2026-05-03T08:53:36Z</time></trkpt><trkpt lat="42.272337599169106" lon="13.688590649258838"><ele>942.0</ele><time>2026-05-03T08:53:37Z</time></trkpt><trkpt lat="42.27243340262098" lon="13.688630455353188"><ele>940.8</ele><time>2026-05-03T08:53:38Z</time></trkpt><trkpt lat="42.27252877225594" lon="13.688688728584593"><ele>939.6</ele><time>2026-05-03T08:53:39Z</time></trkpt><trkpt lat="42.272636715280925" lon="13.688764144614419"><ele>938.3999999999999</ele><time>2026-05-03T08:53:40Z</time></trkpt><trkpt lat="42.272727832459566" lon="13.68883485592054"><ele>937.1999999999999</ele><time>2026-05-03T08:53:41Z</time></trkpt><trkpt lat="42.272824825335796" lon="13.68891852692498"><ele>936.0</ele><time>2026-05-03T08:53:42Z</time></trkpt><trkpt lat="42.27292591652342" lon="13.689017012593634"><ele>936.0</ele><time>2026-05-03T08:53:43Z</time></trkpt><trkpt lat="42.273038862241386" lon="13.689120201487256"><ele>936.0</ele><time>2026-05-03T08:53:44Z</time></trkpt><trkpt lat="42.27314768879599" lon="13.689235762849563"><ele>936.0</ele><time>2026-05-03T08:53:45Z</time></trkpt><trkpt lat="42.2732454796026" lon="13.68934544480459"><ele>936.0</ele><time>2026-05-03T08:53:46Z</time></trkpt><trkpt lat="42.2733358092957" lon="13.689437270900537"><ele>936.1999999999999</ele><time>2026-05-03T08:53:47Z</time></trkpt><trkpt lat="42.27342939344931" lon="13.689508101799325"><ele>936.3999999999999</ele><time>2026-05-03T08:53:48Z</time></trkpt><trkpt lat="42.273527294109236" lon="13.68954118555159"><ele>936.6</ele><time>2026-05-03T08:53:49Z</time></trkpt><trkpt lat="42.273639454369544" lon="13.68953087185638"><ele>936.8</ele><time>2026-05-03T08:53:50Z</time></trkpt><trkpt lat="42.27376303649743" lon="13.689510518966825"><ele>937.0</ele><time>2026-05-03T08:53:51Z</time></trkpt><trkpt lat="42.273872147583106" lon="13.689457528195796"><ele>942.5</ele><time>2026-05-03T08:53:52Z</time></trkpt><trkpt lat="42.27396451486348" lon="13.68937581005662"><ele>948.0</ele><time>2026-05-03T08:53:53Z</time></trkpt><trkpt lat="42.274061665436406" lon="13.689293052911193"><ele>953.5</ele><time>2026-05-03T08:53:54Z</time></trkpt><trkpt lat="42.274169288871946" lon="13.689187444891186"><ele>959.0</ele><time>2026-05-03T08:53:55Z</time></trkpt><trkpt lat="42.27426205554919" lon="13.689084767409208"><ele>959.0</ele><time>2026-05-03T08:53:56Z</time></trkpt><trkpt lat="42.27436404112507" lon="13.688993425710018"><ele>959.0</ele><time>2026-05-03T08:53:57Z</time></trkpt><trkpt lat="42.27447408517805" lon="13.688910921403695"><ele>959.0</ele><time>2026-05-03T08:53:58Z</time></trkpt><trkpt lat="42.27459357144902" lon="13.688839357816319"><ele>959.0</ele><time>2026-05-03T08:53:59Z</time></trkpt><trkpt lat="42.27471398783704" lon="13.688773458801563"><ele>958.5</ele><time>2026-05-03T08:54:00Z</time></trkpt><trkpt lat="42.274838942837704" lon="13.688710000195067"><ele>958.0</ele><time>2026-05-03T08:54:01Z</time></trkpt><trkpt lat="42.27496493590773" lon="13.688641865353423"><ele>957.5</ele><time>2026-05-03T08:54:02.001Z</time></trkpt><trkpt lat="42.275100380267844" lon="13.688570192678176"><ele>957.0</ele><time>2026-05-03T08:54:03.001Z</time></trkpt><trkpt lat="42.27523566503917" lon="13.68848202490987"><ele>958.25</ele><time>2026-05-03T08:54:04.001Z</time></trkpt><trkpt lat="42.27537309451117" lon="13.68840234147163"><ele>959.5</ele><time>2026-05-03T08:54:05.001Z</time></trkpt><trkpt lat="42.27549950041004" lon="13.688351121988083"><ele>960.75</ele><time>2026-05-03T08:54:06.001Z</time></trkpt><trkpt lat="42.27562758199565" lon="13.688304080233191"><ele>962.0</ele><time>2026-05-03T08:54:07.001Z</time></trkpt><trkpt lat="42.27574887337901" lon="13.688255235593479"><ele>962.0</ele><time>2026-05-03T08:54:08.001Z</time></trkpt><trkpt lat="42.27586394256138" lon="13.688205898041996"><ele>962.0</ele><time>2026-05-03T08:54:09.001Z</time></trkpt><trkpt lat="42.275983523449916" lon="13.688124097640276"><ele>962.0</ele><time>2026-05-03T08:54:10.001Z</time></trkpt><trkpt lat="42.2761034177399" lon="13.688016965192885"><ele>962.0</ele><time>2026-05-03T08:54:11.001Z</time></trkpt><trkpt lat="42.27624326322745" lon="13.687909333155769"><ele>962.0</ele><time>2026-05-03T08:54:12.001Z</time></trkpt><trkpt lat="42.27638562305682" lon="13.687803017936215"><ele>962.0</ele><time>2026-05-03T08:54:13.001Z</time></trkpt><trkpt lat="42.276534372756615" lon="13.687689715647812"><ele>962.0</ele><time>2026-05-03T08:54:14.001Z</time></trkpt><trkpt lat="42.27668674092075" lon="13.68757263448249"><ele>964.3333333333334</ele><time>2026-05-03T08:54:15.001Z</time></trkpt><trkpt lat="42.27683889464492" lon="13.687461322082534"><ele>966.6666666666667</ele><time>2026-05-03T08:54:16.001Z</time></trkpt><trkpt lat="42.27699504299174" lon="13.687361027787704"><ele>969.0</ele><time>2026-05-03T08:54:17.001Z</time></trkpt><trkpt lat="42.27714358306407" lon="13.687274710673547"><ele>967.75</ele><time>2026-05-03T08:54:18.001Z</time></trkpt><trkpt lat="42.27728087503194" lon="13.687189281818851"><ele>966.5</ele><time>2026-05-03T08:54:19.001Z</time></trkpt><trkpt lat="42.277407615404144" lon="13.68709786922544"><ele>965.25</ele><time>2026-05-03T08:54:20.001Z</time></trkpt><trkpt lat="42.277516422011765" lon="13.687008596578691"><ele>964.0</ele><time>2026-05-03T08:54:21.001Z</time></trkpt><trkpt lat="42.27759211050281" lon="13.68691318403031"><ele>963.9999999999999</ele><time>2026-05-03T08:54:22.001Z</time></trkpt><trkpt lat="42.27765506969382" lon="13.686842242491736"><ele>964.0</ele><time>2026-05-03T08:54:24.001Z</time></trkpt><trkpt lat="42.27771249837367" lon="13.686904254912443"><ele>964.0</ele><time>2026-05-03T08:54:27Z</time></trkpt><trkpt lat="42.27773054025581" lon="13.687031221746075"><ele>964.0</ele><time>2026-05-03T08:54:29Z</time></trkpt><trkpt lat="42.277716815072175" lon="13.687116745488641"><ele>963.9999999999999</ele><time>2026-05-03T08:54:31Z</time></trkpt><trkpt lat="42.277723021411944" lon="13.687223083084179"><ele>964.0</ele><time>2026-05-03T08:54:36Z</time></trkpt><trkpt lat="42.277769373497016" lon="13.687315040654324"><ele>964.0</ele><time>2026-05-03T08:55:04Z</time></trkpt><trkpt lat="42.277752957848016" lon="13.687430388712556"><ele>964.0000000000001</ele><time>2026-05-03T08:55:06Z</time></trkpt><trkpt lat="42.27768148989244" lon="13.687577126568204"><ele>964.0000000000001</ele><time>2026-05-03T08:55:08Z</time></trkpt><trkpt lat="42.27765320882517" lon="13.687688388617342"><ele>964.0</ele><time>2026-05-03T08:55:09Z</time></trkpt><trkpt lat="42.2776295105713" lon="13.68779958381516"><ele>964.0</ele><time>2026-05-03T08:55:10Z</time></trkpt><trkpt lat="42.27760141137757" lon="13.687900644950176"><ele>963.1666666666666</ele><time>2026-05-03T08:55:11Z</time></trkpt><trkpt lat="42.27756613258756" lon="13.687981926195492"><ele>962.3333333333333</ele><time>2026-05-03T08:55:12Z</time></trkpt><trkpt lat="42.27751485827624" lon="13.688047766387406"><ele>961.5</ele><time>2026-05-03T08:55:13Z</time></trkpt><trkpt lat="42.27745939644414" lon="13.688117677507707"><ele>960.6666666666667</ele><time>2026-05-03T08:55:14Z</time></trkpt><trkpt lat="42.277414173669506" lon="13.688201902467082"><ele>959.8333333333334</ele><time>2026-05-03T08:55:15Z</time></trkpt><trkpt lat="42.277408903259655" lon="13.688311621603848"><ele>959.0</ele><time>2026-05-03T08:55:17Z</time></trkpt><trkpt lat="42.277480126715005" lon="13.688352010097868"><ele>959.0</ele><time>2026-05-03T08:55:19Z</time></trkpt><trkpt lat="42.277546157167926" lon="13.68837041927099"><ele>959.0</ele><time>2026-05-03T08:55:20Z</time></trkpt><trkpt lat="42.27761881490352" lon="13.688380880925205"><ele>959.0</ele><time>2026-05-03T08:55:21Z</time></trkpt><trkpt lat="42.277693521527716" lon="13.688382038472987"><ele>959.0</ele><time>2026-05-03T08:55:22Z</time></trkpt><trkpt lat="42.27776566169546" lon="13.688397221675329"><ele>959.0</ele><time>2026-05-03T08:55:23Z</time></trkpt><trkpt lat="42.2778246917913" lon="13.688441632611339"><ele>959.0</ele><time>2026-05-03T08:55:24Z</time></trkpt><trkpt lat="42.277901750096014" lon="13.688505586065162"><ele>959.0</ele><time>2026-05-03T08:55:25Z</time></trkpt><trkpt lat="42.277998321349685" lon="13.688543148120667"><ele>959.0</ele><time>2026-05-03T08:55:26Z</time></trkpt><trkpt lat="42.27808849930413" lon="13.688570808785435"><ele>959.0000000000001</ele><time>2026-05-03T08:55:27Z</time></trkpt><trkpt lat="42.27817993460668" lon="13.688582476513456"><ele>959.0000000000001</ele><time>2026-05-03T08:55:28Z</time></trkpt><trkpt lat="42.27826735714331" lon="13.688613267666115"><ele>959.0</ele><time>2026-05-03T08:55:29Z</time></trkpt><trkpt lat="42.27834663885542" lon="13.688669418603796"><ele>959.0</ele><time>2026-05-03T08:55:30Z</time></trkpt><trkpt lat="42.27843309667445" lon="13.688736996663028"><ele>958.2</ele><time>2026-05-03T08:55:31Z</time></trkpt><trkpt lat="42.2785166868926" lon="13.68881109674264"><ele>957.4000000000001</ele><time>2026-05-03T08:55:32Z</time></trkpt><trkpt lat="42.27859121691271" lon="13.688897358976448"><ele>956.6</ele><time>2026-05-03T08:55:33Z</time></trkpt><trkpt lat="42.278660226833644" lon="13.689010955964072"><ele>955.8</ele><time>2026-05-03T08:55:34Z</time></trkpt><trkpt lat="42.278742376043276" lon="13.689131440770627"><ele>955.0</ele><time>2026-05-03T08:55:35Z</time></trkpt><trkpt lat="42.2788352288053" lon="13.689261796826313"><ele>955.0</ele><time>2026-05-03T08:55:36Z</time></trkpt><trkpt lat="42.27892694343759" lon="13.6893863797126"><ele>955.0</ele><time>2026-05-03T08:55:37Z</time></trkpt><trkpt lat="42.27901313983091" lon="13.689486031458475"><ele>955.0</ele><time>2026-05-03T08:55:38Z</time></trkpt><trkpt lat="42.279083044602835" lon="13.689582970967084"><ele>955.0</ele><time>2026-05-03T08:55:39Z</time></trkpt><trkpt lat="42.279153847919645" lon="13.689682899221127"><ele>955.0</ele><time>2026-05-03T08:55:40Z</time></trkpt><trkpt lat="42.279223946650276" lon="13.689763285090503"><ele>955.6666666666666</ele><time>2026-05-03T08:55:41Z</time></trkpt><trkpt lat="42.279308801078564" lon="13.68981893016216"><ele>956.3333333333333</ele><time>2026-05-03T08:55:42Z</time></trkpt><trkpt lat="42.27939112151802" lon="13.689827754153345"><ele>957.0</ele><time>2026-05-03T08:55:43Z</time></trkpt><trkpt lat="42.279469083454615" lon="13.68982397508072"><ele>957.6666666666667</ele><time>2026-05-03T08:55:44Z</time></trkpt><trkpt lat="42.27954241684361" lon="13.689837692311245"><ele>958.3333333333334</ele><time>2026-05-03T08:55:45Z</time></trkpt><trkpt lat="42.27961237402187" lon="13.689889023680676"><ele>959.0</ele><time>2026-05-03T08:55:46Z</time></trkpt><trkpt lat="42.2796723848578" lon="13.689983432022954"><ele>959.0</ele><time>2026-05-03T08:55:47Z</time></trkpt><trkpt lat="42.27972124911349" lon="13.69009533818836"><ele>959.0000000000001</ele><time>2026-05-03T08:55:48Z</time></trkpt><trkpt lat="42.27977777438689" lon="13.690184296727537"><ele>959.0000000000001</ele><time>2026-05-03T08:55:49Z</time></trkpt><trkpt lat="42.279850965966695" lon="13.690230380406861"><ele>959.0</ele><time>2026-05-03T08:55:50Z</time></trkpt><trkpt lat="42.27994746763269" lon="13.690275159207546"><ele>959.0</ele><time>2026-05-03T08:55:51Z</time></trkpt><trkpt lat="42.280030546163204" lon="13.690305555284816"><ele>959.5000000000001</ele><time>2026-05-03T08:55:52Z</time></trkpt><trkpt lat="42.28009508802767" lon="13.69030447795685"><ele>960.0</ele><time>2026-05-03T08:55:53Z</time></trkpt><trkpt lat="42.28017732951878" lon="13.690302657916563"><ele>960.5</ele><time>2026-05-03T08:55:54Z</time></trkpt><trkpt lat="42.28025870383857" lon="13.690311239215111"><ele>961.0</ele><time>2026-05-03T08:55:55Z</time></trkpt><trkpt lat="42.28034186795612" lon="13.69033111017849"><ele>961.5000000000001</ele><time>2026-05-03T08:55:56Z</time></trkpt><trkpt lat="42.2804056742015" lon="13.690370111285109"><ele>962.0</ele><time>2026-05-03T08:55:57Z</time></trkpt><trkpt lat="42.28045260058034" lon="13.69047031818805"><ele>962.0</ele><time>2026-05-03T08:55:58Z</time></trkpt><trkpt lat="42.2805071233665" lon="13.69059414943519"><ele>962.0</ele><time>2026-05-03T08:55:59Z</time></trkpt><trkpt lat="42.28054963208328" lon="13.690732046905765"><ele>962.0</ele><time>2026-05-03T08:56:00Z</time></trkpt><trkpt lat="42.28056438053642" lon="13.690876628507626"><ele>962.0</ele><time>2026-05-03T08:56:01Z</time></trkpt><trkpt lat="42.28056794343333" lon="13.691024765503194"><ele>962.0</ele><time>2026-05-03T08:56:02Z</time></trkpt><trkpt lat="42.28056425203975" lon="13.691184467910666"><ele>962.75</ele><time>2026-05-03T08:56:03Z</time></trkpt><trkpt lat="42.28053813703019" lon="13.691345696761816"><ele>963.5</ele><time>2026-05-03T08:56:04Z</time></trkpt><trkpt lat="42.280510626023556" lon="13.69149868395131"><ele>964.25</ele><time>2026-05-03T08:56:05Z</time></trkpt><trkpt lat="42.28047662381241" lon="13.691636071064934"><ele>965.0</ele><time>2026-05-03T08:56:06Z</time></trkpt><trkpt lat="42.28042136773023" lon="13.691769330321263"><ele>965.0</ele><time>2026-05-03T08:56:07Z</time></trkpt><trkpt lat="42.2803638606148" lon="13.691894759810953"><ele>965.0</ele><time>2026-05-03T08:56:08Z</time></trkpt><trkpt lat="42.280322127012354" lon="13.692052220627607"><ele>965.0</ele><time>2026-05-03T08:56:09Z</time></trkpt><trkpt lat="42.28027261443571" lon="13.692211106160999"><ele>965.0</ele><time>2026-05-03T08:56:10Z</time></trkpt><trkpt lat="42.28022490585993" lon="13.69234671110183"><ele>968.25</ele><time>2026-05-03T08:56:11Z</time></trkpt><trkpt lat="42.28017401808208" lon="13.692486095600213"><ele>971.5</ele><time>2026-05-03T08:56:12Z</time></trkpt><trkpt lat="42.28010972429822" lon="13.692654905750539"><ele>974.75</ele><time>2026-05-03T08:56:13Z</time></trkpt><trkpt lat="42.28005695680157" lon="13.692784982097066"><ele>978.0</ele><time>2026-05-03T08:56:14Z</time></trkpt><trkpt lat="42.280016181135814" lon="13.69288485811074"><ele>979.2</ele><time>2026-05-03T08:56:15Z</time></trkpt><trkpt lat="42.28002659215222" lon="13.693050066900657"><ele>980.4</ele><time>2026-05-03T08:56:17Z</time></trkpt><trkpt lat="42.28004770168482" lon="13.693165738246966"><ele>981.6000000000001</ele><time>2026-05-03T08:56:18Z</time></trkpt><trkpt lat="42.28005517267544" lon="13.693279495634034"><ele>982.8000000000001</ele><time>2026-05-03T08:56:19Z</time></trkpt><trkpt lat="42.280062061480585" lon="13.693396032647131"><ele>984.0</ele><time>2026-05-03T08:56:20Z</time></trkpt><trkpt lat="42.28007048373057" lon="13.69352833925581"><ele>983.6</ele><time>2026-05-03T08:56:21Z</time></trkpt><trkpt lat="42.28008133374736" lon="13.69366013315692"><ele>983.2</ele><time>2026-05-03T08:56:22Z</time></trkpt><trkpt lat="42.28008022037231" lon="13.693794201186797"><ele>982.8000000000001</ele><time>2026-05-03T08:56:23Z</time></trkpt><trkpt lat="42.28007493471151" lon="13.693922215826287"><ele>982.4000000000001</ele><time>2026-05-03T08:56:24Z</time></trkpt><trkpt lat="42.28008045178264" lon="13.69405386270531"><ele>982.0</ele><time>2026-05-03T08:56:25Z</time></trkpt><trkpt lat="42.28008427014783" lon="13.69419079090581"><ele>982.0</ele><time>2026-05-03T08:56:26Z</time></trkpt><trkpt lat="42.280072007839216" lon="13.694330214571751"><ele>982.0</ele><time>2026-05-03T08:56:27Z</time></trkpt><trkpt lat="42.280060889181335" lon="13.694465909499316"><ele>982.0</ele><time>2026-05-03T08:56:28Z</time></trkpt><trkpt lat="42.28006076956925" lon="13.694599537409365"><ele>982.0</ele><time>2026-05-03T08:56:29Z</time></trkpt><trkpt lat="42.280051228538355" lon="13.694720174395245"><ele>982.0</ele><time>2026-05-03T08:56:30Z</time></trkpt><trkpt lat="42.28001676762528" lon="13.694841874789715"><ele>981.1666666666666</ele><time>2026-05-03T08:56:31Z</time></trkpt><trkpt lat="42.27998444907609" lon="13.694957355573067"><ele>980.3333333333333</ele><time>2026-05-03T08:56:32Z</time></trkpt><trkpt lat="42.27997774591819" lon="13.695079472191402"><ele>979.5</ele><time>2026-05-03T08:56:33Z</time></trkpt><trkpt lat="42.27999733636513" lon="13.695197720258923"><ele>978.6666666666667</ele><time>2026-05-03T08:56:34Z</time></trkpt><trkpt lat="42.28003706251952" lon="13.69529805957945"><ele>977.8333333333334</ele><time>2026-05-03T08:56:35Z</time></trkpt><trkpt lat="42.28008401819815" lon="13.695400938754982"><ele>977.0</ele><time>2026-05-03T08:56:36Z</time></trkpt><trkpt lat="42.28012856097252" lon="13.695489532789978"><ele>975.8333333333334</ele><time>2026-05-03T08:56:37Z</time></trkpt><trkpt lat="42.280220908988966" lon="13.695586415829606"><ele>974.6666666666667</ele><time>2026-05-03T08:56:39Z</time></trkpt><trkpt lat="42.28028844195299" lon="13.695649419073572"><ele>973.5</ele><time>2026-05-03T08:56:40Z</time></trkpt><trkpt lat="42.280366860042875" lon="13.695709356053323"><ele>972.3333333333333</ele><time>2026-05-03T08:56:41Z</time></trkpt><trkpt lat="42.28043525992351" lon="13.695763429111462"><ele>971.1666666666666</ele><time>2026-05-03T08:56:42Z</time></trkpt><trkpt lat="42.280491171374635" lon="13.6958337073245"><ele>970.0</ele><time>2026-05-03T08:56:43Z</time></trkpt><trkpt lat="42.28060199125825" lon="13.695921162320758"><ele>973.2</ele><time>2026-05-03T08:56:45Z</time></trkpt><trkpt lat="42.280695031533114" lon="13.69597028833104"><ele>976.4</ele><time>2026-05-03T08:56:47Z</time></trkpt><trkpt lat="42.280828486590515" lon="13.69594977443018"><ele>979.5999999999999</ele><time>2026-05-03T08:56:49Z</time></trkpt><trkpt lat="42.280910466692035" lon="13.695932844070937"><ele>982.8</ele><time>2026-05-03T08:56:50Z</time></trkpt><trkpt lat="42.28098013278644" lon="13.69589580727283"><ele>986.0</ele><time>2026-05-03T08:56:51Z</time></trkpt><trkpt lat="42.281057072567485" lon="13.69586136206006"><ele>986.0000000000001</ele><time>2026-05-03T08:56:52Z</time></trkpt><trkpt lat="42.281144565162485" lon="13.695814728927049"><ele>986.0</ele><time>2026-05-03T08:56:53Z</time></trkpt><trkpt lat="42.28122221663791" lon="13.695759995050492"><ele>986.0</ele><time>2026-05-03T08:56:54Z</time></trkpt><trkpt lat="42.28130217759976" lon="13.695732155880536"><ele>986.0</ele><time>2026-05-03T08:56:55Z</time></trkpt><trkpt lat="42.28138212710673" lon="13.695787612781618"><ele>986.0000000000001</ele><time>2026-05-03T08:56:57Z</time></trkpt><trkpt lat="42.28141131491097" lon="13.695864323480622"><ele>986.0</ele><time>2026-05-03T08:56:58Z</time></trkpt><trkpt lat="42.28144144558749" lon="13.695979446119946"><ele>986.8</ele><time>2026-05-03T08:56:59Z</time></trkpt><trkpt lat="42.28148663436365" lon="13.69609995423615"><ele>987.5999999999999</ele><time>2026-05-03T08:57:00Z</time></trkpt><trkpt lat="42.28154971464863" lon="13.69621835719251"><ele>988.4</ele><time>2026-05-03T08:57:01Z</time></trkpt><trkpt lat="42.28161224536581" lon="13.696341965678295"><ele>989.2</ele><time>2026-05-03T08:57:02Z</time></trkpt><trkpt lat="42.28166810376709" lon="13.696444750798724"><ele>990.0</ele><time>2026-05-03T08:57:03Z</time></trkpt><trkpt lat="42.28173868888585" lon="13.696524253536882"><ele>990.0</ele><time>2026-05-03T08:57:04Z</time></trkpt><trkpt lat="42.28182203132268" lon="13.696608886417021"><ele>990.0</ele><time>2026-05-03T08:57:05Z</time></trkpt><trkpt lat="42.281904797033356" lon="13.696695587824767"><ele>990.0</ele><time>2026-05-03T08:57:06Z</time></trkpt><trkpt lat="42.281964393142296" lon="13.696777883051878"><ele>990.0</ele><time>2026-05-03T08:57:07Z</time></trkpt><trkpt lat="42.282017930983855" lon="13.696865790607726"><ele>990.0</ele><time>2026-05-03T08:57:08Z</time></trkpt><trkpt lat="42.282098824644876" lon="13.696952364420667"><ele>990.0</ele><time>2026-05-03T08:57:10Z</time></trkpt><trkpt lat="42.28214851020591" lon="13.696810670869734"><ele>990.0</ele><time>2026-05-03T08:57:12Z</time></trkpt><trkpt lat="42.282120714260024" lon="13.696661873511642"><ele>990.0</ele><time>2026-05-03T08:57:14Z</time></trkpt><trkpt lat="42.28205829209968" lon="13.696495786913593"><ele>990.0</ele><time>2026-05-03T08:57:16Z</time></trkpt><trkpt lat="42.28212094113318" lon="13.696353335983535"><ele>990.0</ele><time>2026-05-03T08:57:18Z</time></trkpt><trkpt lat="42.28216953521651" lon="13.696294335329087"><ele>990.0</ele><time>2026-05-03T08:57:19Z</time></trkpt><trkpt lat="42.28222780686752" lon="13.696223829872858"><ele>990.0</ele><time>2026-05-03T08:57:20Z</time></trkpt><trkpt lat="42.28227313348509" lon="13.696117370859628"><ele>990.0</ele><time>2026-05-03T08:57:21Z</time></trkpt><trkpt lat="42.28229796183732" lon="13.69601258023707"><ele>990.0</ele><time>2026-05-03T08:57:22Z</time></trkpt><trkpt lat="42.282305824693914" lon="13.695897627502896"><ele>990.0</ele><time>2026-05-03T08:57:23Z</time></trkpt><trkpt lat="42.2823089858191" lon="13.695741681051642"><ele>985.6</ele><time>2026-05-03T08:57:24Z</time></trkpt><trkpt lat="42.28231603332357" lon="13.695608235149049"><ele>981.2</ele><time>2026-05-03T08:57:25Z</time></trkpt><trkpt lat="42.28233226729077" lon="13.695471730452926"><ele>976.8</ele><time>2026-05-03T08:57:26Z</time></trkpt><trkpt lat="42.28233622433092" lon="13.695343776784222"><ele>972.4</ele><time>2026-05-03T08:57:27Z</time></trkpt><trkpt lat="42.2823409416045" lon="13.695217234028954"><ele>968.0</ele><time>2026-05-03T08:57:28Z</time></trkpt><trkpt lat="42.28234358688598" lon="13.695095478930334"><ele>967.5000000000001</ele><time>2026-05-03T08:57:29Z</time></trkpt><trkpt lat="42.282349549794475" lon="13.694979909096165"><ele>967.0</ele><time>2026-05-03T08:57:30Z</time></trkpt><trkpt lat="42.282350136245604" lon="13.694872099944263"><ele>966.5</ele><time>2026-05-03T08:57:31Z</time></trkpt><trkpt lat="42.28234027454842" lon="13.694755762732507"><ele>966.0</ele><time>2026-05-03T08:57:32Z</time></trkpt><trkpt lat="42.28232679455808" lon="13.694652604509804"><ele>965.5000000000001</ele><time>2026-05-03T08:57:33Z</time></trkpt><trkpt lat="42.2823078470326" lon="13.694526876146845"><ele>965.0</ele><time>2026-05-03T08:57:34Z</time></trkpt><trkpt lat="42.28228610731225" lon="13.694403269691698"><ele>963.6666666666667</ele><time>2026-05-03T08:57:35Z</time></trkpt><trkpt lat="42.28226038926636" lon="13.694304655025258"><ele>962.3333333333334</ele><time>2026-05-03T08:57:36Z</time></trkpt><trkpt lat="42.282238169428624" lon="13.69419680407685"><ele>961.0</ele><time>2026-05-03T08:57:37Z</time></trkpt><trkpt lat="42.28222873969722" lon="13.694112307958468"><ele>959.6666666666667</ele><time>2026-05-03T08:57:38Z</time></trkpt><trkpt lat="42.28223091238947" lon="13.693999594188536"><ele>958.3333333333334</ele><time>2026-05-03T08:57:39Z</time></trkpt><trkpt lat="42.28224927995489" lon="13.693898916899728"><ele>957.0</ele><time>2026-05-03T08:57:40Z</time></trkpt><trkpt lat="42.28227931427839" lon="13.693806430178686"><ele>957.0</ele><time>2026-05-03T08:57:41Z</time></trkpt><trkpt lat="42.28231243158575" lon="13.69371541690981"><ele>957.0</ele><time>2026-05-03T08:57:42Z</time></trkpt><trkpt lat="42.28234046038543" lon="13.693616499948842"><ele>957.0</ele><time>2026-05-03T08:57:43Z</time></trkpt><trkpt lat="42.282355181851734" lon="13.693523056866665"><ele>957.0</ele><time>2026-05-03T08:57:44Z</time></trkpt><trkpt lat="42.28235913624117" lon="13.693415563739473"><ele>957.0</ele><time>2026-05-03T08:57:45Z</time></trkpt><trkpt lat="42.282365656887166" lon="13.693315311914153"><ele>957.0</ele><time>2026-05-03T08:57:46Z</time></trkpt><trkpt lat="42.282375991325154" lon="13.693203235537405"><ele>957.1666666666666</ele><time>2026-05-03T08:57:47Z</time></trkpt><trkpt lat="42.282389459725955" lon="13.693102430967784"><ele>957.3333333333333</ele><time>2026-05-03T08:57:48Z</time></trkpt><trkpt lat="42.282411554077015" lon="13.692988701954532"><ele>957.5</ele><time>2026-05-03T08:57:49Z</time></trkpt><trkpt lat="42.28243935645632" lon="13.692885038415973"><ele>957.6666666666666</ele><time>2026-05-03T08:57:50Z</time></trkpt><trkpt lat="42.28247384743435" lon="13.692779350691369"><ele>957.8333333333333</ele><time>2026-05-03T08:57:51Z</time></trkpt><trkpt lat="42.28251127269345" lon="13.692674200029145"><ele>958.0</ele><time>2026-05-03T08:57:52Z</time></trkpt><trkpt lat="42.28255011826487" lon="13.692563764430545"><ele>958.0</ele><time>2026-05-03T08:57:53Z</time></trkpt><trkpt lat="42.282586670018176" lon="13.692451099263737"><ele>958.0</ele><time>2026-05-03T08:57:54Z</time></trkpt><trkpt lat="42.28263109551375" lon="13.69233146642108"><ele>958.0</ele><time>2026-05-03T08:57:55Z</time></trkpt><trkpt lat="42.28266926704779" lon="13.69223210954094"><ele>958.0</ele><time>2026-05-03T08:57:56Z</time></trkpt><trkpt lat="42.28272461526387" lon="13.692137219930025"><ele>958.0</ele><time>2026-05-03T08:57:57Z</time></trkpt><trkpt lat="42.282780066183115" lon="13.692042597594416"><ele>957.9999999999999</ele><time>2026-05-03T08:57:58Z</time></trkpt><trkpt lat="42.28283980362402" lon="13.691953311701551"><ele>958.0</ele><time>2026-05-03T08:57:59Z</time></trkpt><trkpt lat="42.28289689629552" lon="13.691871193747609"><ele>958.0</ele><time>2026-05-03T08:58:00Z</time></trkpt><trkpt lat="42.28294694192055" lon="13.691793317239235"><ele>958.0</ele><time>2026-05-03T08:58:01Z</time></trkpt><trkpt lat="42.28298806545917" lon="13.691701283596705"><ele>957.9999999999999</ele><time>2026-05-03T08:58:02Z</time></trkpt><trkpt lat="42.28306463165583" lon="13.691614337417057"><ele>958.0</ele><time>2026-05-03T08:58:03Z</time></trkpt><trkpt lat="42.28314372142022" lon="13.691547429316737"><ele>954.2</ele><time>2026-05-03T08:58:04Z</time></trkpt><trkpt lat="42.28323416035456" lon="13.691487420083117"><ele>950.4</ele><time>2026-05-03T08:58:05Z</time></trkpt><trkpt lat="42.283326151603156" lon="13.69141585176127"><ele>946.6000000000001</ele><time>2026-05-03T08:58:06Z</time></trkpt><trkpt lat="42.28342382861439" lon="13.69134643067139"><ele>942.8000000000001</ele><time>2026-05-03T08:58:07Z</time></trkpt><trkpt lat="42.28351873182374" lon="13.691286881932761"><ele>939.0</ele><time>2026-05-03T08:58:08Z</time></trkpt><trkpt lat="42.28361546720164" lon="13.691224549501028"><ele>939.0</ele><time>2026-05-03T08:58:09Z</time></trkpt><trkpt lat="42.2837112285736" lon="13.691163015199724"><ele>939.0000000000001</ele><time>2026-05-03T08:58:10Z</time></trkpt><trkpt lat="42.28380233668132" lon="13.691101807884179"><ele>939.0000000000001</ele><time>2026-05-03T08:58:11Z</time></trkpt><trkpt lat="42.28389301741464" lon="13.691037536513797"><ele>939.0</ele><time>2026-05-03T08:58:12Z</time></trkpt><trkpt lat="42.28398170430727" lon="13.690979867502254"><ele>939.0</ele><time>2026-05-03T08:58:13Z</time></trkpt><trkpt lat="42.28405939852058" lon="13.690937231712983"><ele>939.8000000000001</ele><time>2026-05-03T08:58:14Z</time></trkpt><trkpt lat="42.28412959255472" lon="13.690896299784162"><ele>940.6000000000001</ele><time>2026-05-03T08:58:15Z</time></trkpt><trkpt lat="42.28421223928102" lon="13.6908818347461"><ele>941.4</ele><time>2026-05-03T08:58:16Z</time></trkpt><trkpt lat="42.28431002723372" lon="13.690906603725752"><ele>942.2</ele><time>2026-05-03T08:58:17Z</time></trkpt><trkpt lat="42.284409690300116" lon="13.69095546860269"><ele>943.0</ele><time>2026-05-03T08:58:18Z</time></trkpt><trkpt lat="42.284491337879224" lon="13.691005716675027"><ele>943.0</ele><time>2026-05-03T08:58:19Z</time></trkpt><trkpt lat="42.28457852837893" lon="13.691067991432195"><ele>943.0</ele><time>2026-05-03T08:58:20Z</time></trkpt><trkpt lat="42.284694541963304" lon="13.691113965306757"><ele>943.0</ele><time>2026-05-03T08:58:21Z</time></trkpt><trkpt lat="42.284822541427516" lon="13.691145818921651"><ele>943.0</ele><time>2026-05-03T08:58:22Z</time></trkpt><trkpt lat="42.28507869593355" lon="13.691226764792907"><ele>934.5</ele><time>2026-05-03T08:58:24Z</time></trkpt><trkpt lat="42.28519761643729" lon="13.691252631374304"><ele>926.0</ele><time>2026-05-03T08:58:25Z</time></trkpt><trkpt lat="42.285330019490026" lon="13.691285626483532"><ele>917.5</ele><time>2026-05-03T08:58:26Z</time></trkpt><trkpt lat="42.285415991441205" lon="13.691294398942834"><ele>909.0</ele><time>2026-05-03T08:58:27Z</time></trkpt><trkpt lat="42.285531266075346" lon="13.691302452739553"><ele>909.5</ele><time>2026-05-03T08:58:28Z</time></trkpt><trkpt lat="42.28564123273521" lon="13.69128433693465"><ele>910.0</ele><time>2026-05-03T08:58:29Z</time></trkpt><trkpt lat="42.285763396764715" lon="13.6912607834769"><ele>910.5</ele><time>2026-05-03T08:58:30Z</time></trkpt><trkpt lat="42.285878526611306" lon="13.691232232030544"><ele>911.0</ele><time>2026-05-03T08:58:31Z</time></trkpt><trkpt lat="42.2860059384901" lon="13.691206123123477"><ele>911.0</ele><time>2026-05-03T08:58:32Z</time></trkpt><trkpt lat="42.28614075457885" lon="13.691167147576433"><ele>911.0</ele><time>2026-05-03T08:58:33Z</time></trkpt><trkpt lat="42.28627910073235" lon="13.691125007235193"><ele>911.0</ele><time>2026-05-03T08:58:34Z</time></trkpt><trkpt lat="42.28641818416936" lon="13.691091483786286"><ele>911.0</ele><time>2026-05-03T08:58:35Z</time></trkpt><trkpt lat="42.286562972520656" lon="13.691056793373113"><ele>918.0</ele><time>2026-05-03T08:58:36Z</time></trkpt><trkpt lat="42.2866960217201" lon="13.691033268649958"><ele>925.0</ele><time>2026-05-03T08:58:37Z</time></trkpt><trkpt lat="42.28682828751642" lon="13.691002019348163"><ele>932.0</ele><time>2026-05-03T08:58:38Z</time></trkpt><trkpt lat="42.286944204133384" lon="13.69095964088346"><ele>939.0</ele><time>2026-05-03T08:58:39Z</time></trkpt><trkpt lat="42.287056738654506" lon="13.690916699815183"><ele>939.0</ele><time>2026-05-03T08:58:40Z</time></trkpt><trkpt lat="42.28716210246095" lon="13.690875881517519"><ele>939.0000000000001</ele><time>2026-05-03T08:58:41Z</time></trkpt><trkpt lat="42.287260525657025" lon="13.690829597084592"><ele>939.0000000000001</ele><time>2026-05-03T08:58:42Z</time></trkpt><trkpt lat="42.28736780047951" lon="13.690779298695166"><ele>939.0</ele><time>2026-05-03T08:58:43Z</time></trkpt><trkpt lat="42.287478763779674" lon="13.6907305952458"><ele>939.0</ele><time>2026-05-03T08:58:44Z</time></trkpt><trkpt lat="42.287576833626694" lon="13.690693016445941"><ele>935.8000000000001</ele><time>2026-05-03T08:58:45Z</time></trkpt><trkpt lat="42.287675790254454" lon="13.690667083398518"><ele>932.6000000000001</ele><time>2026-05-03T08:58:46Z</time></trkpt><trkpt lat="42.28777794963636" lon="13.690639931415635"><ele>929.4</ele><time>2026-05-03T08:58:47Z</time></trkpt><trkpt lat="42.287888324287366" lon="13.690601777366817"><ele>926.2</ele><time>2026-05-03T08:58:48Z</time></trkpt><trkpt lat="42.28798333729406" lon="13.690560594975551"><ele>923.0</ele><time>2026-05-03T08:58:49Z</time></trkpt><trkpt lat="42.28808768054094" lon="13.69050312030893"><ele>919.5999999999999</ele><time>2026-05-03T08:58:50Z</time></trkpt><trkpt lat="42.288200316722" lon="13.690447703242231"><ele>916.1999999999999</ele><time>2026-05-03T08:58:51Z</time></trkpt><trkpt lat="42.288304191239654" lon="13.690393215605686"><ele>912.8</ele><time>2026-05-03T08:58:52Z</time></trkpt><trkpt lat="42.28838267098427" lon="13.690361149847998"><ele>909.4</ele><time>2026-05-03T08:58:53Z</time></trkpt><trkpt lat="42.28847203666254" lon="13.690347093953536"><ele>906.0</ele><time>2026-05-03T08:58:54Z</time></trkpt><trkpt lat="42.288564701986786" lon="13.690346815937895"><ele>906.0</ele><time>2026-05-03T08:58:55Z</time></trkpt><trkpt lat="42.28865396954082" lon="13.6903685456782"><ele>906.0</ele><time>2026-05-03T08:58:56Z</time></trkpt><trkpt lat="42.2887308358122" lon="13.69040460117088"><ele>906.0</ele><time>2026-05-03T08:58:57Z</time></trkpt><trkpt lat="42.28879686018251" lon="13.690450808800508"><ele>906.0</ele><time>2026-05-03T08:58:58Z</time></trkpt><trkpt lat="42.28885385751147" lon="13.6904911563039"><ele>906.0</ele><time>2026-05-03T08:58:59Z</time></trkpt><trkpt lat="42.28891602667212" lon="13.690523347721445"><ele>906.0</ele><time>2026-05-03T08:59:00Z</time></trkpt><trkpt lat="42.28899089647826" lon="13.69053983395108"><ele>905.1666666666666</ele><time>2026-05-03T08:59:01Z</time></trkpt><trkpt lat="42.28906521493905" lon="13.69055977687956"><ele>904.3333333333333</ele><time>2026-05-03T08:59:02Z</time></trkpt><trkpt lat="42.28912965863663" lon="13.69055730747593"><ele>903.5</ele><time>2026-05-03T08:59:03Z</time></trkpt><trkpt lat="42.28920043650226" lon="13.690545382804167"><ele>902.6666666666666</ele><time>2026-05-03T08:59:04Z</time></trkpt><trkpt lat="42.2893336769957" lon="13.69051992650788"><ele>901.8333333333333</ele><time>2026-05-03T08:59:06Z</time></trkpt><trkpt lat="42.289405044889364" lon="13.690500895072658"><ele>901.0</ele><time>2026-05-03T08:59:07Z</time></trkpt><trkpt lat="42.289471521896544" lon="13.690493675325625"><ele>900.9999999999999</ele><time>2026-05-03T08:59:08Z</time></trkpt><trkpt lat="42.28954067350447" lon="13.69049541298997"><ele>901.0</ele><time>2026-05-03T08:59:09Z</time></trkpt><trkpt lat="42.289613650397044" lon="13.690512779063697"><ele>901.0</ele><time>2026-05-03T08:59:10Z</time></trkpt><trkpt lat="42.28970785869448" lon="13.690537025665979"><ele>901.0</ele><time>2026-05-03T08:59:11Z</time></trkpt><trkpt lat="42.28979122615183" lon="13.690569781808845"><ele>900.9999999999999</ele><time>2026-05-03T08:59:12Z</time></trkpt><trkpt lat="42.28987193377704" lon="13.690598765143625"><ele>901.0</ele><time>2026-05-03T08:59:13Z</time></trkpt><trkpt lat="42.28995417145285" lon="13.690626461706449"><ele>900.4285714285714</ele><time>2026-05-03T08:59:14Z</time></trkpt><trkpt lat="42.29002425590096" lon="13.69062533418044"><ele>899.8571428571429</ele><time>2026-05-03T08:59:15Z</time></trkpt><trkpt lat="42.29009677362793" lon="13.690635202145547"><ele>899.2857142857143</ele><time>2026-05-03T08:59:16Z</time></trkpt><trkpt lat="42.29016376294948" lon="13.690637314023975"><ele>898.7142857142858</ele><time>2026-05-03T08:59:17Z</time></trkpt><trkpt lat="42.290238376839206" lon="13.690658988911009"><ele>898.1428571428571</ele><time>2026-05-03T08:59:18Z</time></trkpt><trkpt lat="42.290302096337875" lon="13.690618700911855"><ele>897.5714285714287</ele><time>2026-05-03T08:59:19Z</time></trkpt><trkpt lat="42.29037431705526" lon="13.690601589682082"><ele>897.0</ele><time>2026-05-03T08:59:20Z</time></trkpt><trkpt lat="42.29044984833937" lon="13.690565253993224"><ele>897.0</ele><time>2026-05-03T08:59:21Z</time></trkpt><trkpt lat="42.290519001945604" lon="13.690532188871199"><ele>897.0</ele><time>2026-05-03T08:59:22Z</time></trkpt><trkpt lat="42.29059988683843" lon="13.690503567691785"><ele>897.0</ele><time>2026-05-03T08:59:23Z</time></trkpt><trkpt lat="42.29066730349361" lon="13.690512167940364"><ele>897.0</ele><time>2026-05-03T08:59:24Z</time></trkpt><trkpt lat="42.290735948093804" lon="13.690508592620068"><ele>897.0</ele><time>2026-05-03T08:59:25Z</time></trkpt><trkpt lat="42.2908018297137" lon="13.690523968470579"><ele>897.0</ele><time>2026-05-03T08:59:26Z</time></trkpt><trkpt lat="42.2908780539195" lon="13.690533345514389"><ele>897.0</ele><time>2026-05-03T08:59:27Z</time></trkpt><trkpt lat="42.29094791995724" lon="13.690535520378804"><ele>895.3333333333334</ele><time>2026-05-03T08:59:28Z</time></trkpt><trkpt lat="42.29101325758347" lon="13.690532349046594"><ele>893.6666666666667</ele><time>2026-05-03T08:59:29Z</time></trkpt><trkpt lat="42.2911042640075" lon="13.690509668988962"><ele>892.0</ele><time>2026-05-03T08:59:30Z</time></trkpt><trkpt lat="42.29118636262486" lon="13.690477309812557"><ele>890.3333333333334</ele><time>2026-05-03T08:59:31Z</time></trkpt><trkpt lat="42.29127179308085" lon="13.690423200408098"><ele>888.6666666666667</ele><time>2026-05-03T08:59:32Z</time></trkpt><trkpt lat="42.29134355493254" lon="13.6903586439349"><ele>887.0</ele><time>2026-05-03T08:59:33Z</time></trkpt><trkpt lat="42.29141234943632" lon="13.690278303579127"><ele>885.3333333333334</ele><time>2026-05-03T08:59:34Z</time></trkpt><trkpt lat="42.29148078730458" lon="13.690204491704135"><ele>883.6666666666667</ele><time>2026-05-03T08:59:35Z</time></trkpt><trkpt lat="42.291548158760015" lon="13.690129836769241"><ele>882.0</ele><time>2026-05-03T08:59:36Z</time></trkpt><trkpt lat="42.29160665090358" lon="13.690059441566902"><ele>880.3333333333333</ele><time>2026-05-03T08:59:37Z</time></trkpt><trkpt lat="42.29166738662704" lon="13.689994418702645"><ele>878.6666666666666</ele><time>2026-05-03T08:59:38Z</time></trkpt><trkpt lat="42.29171385230817" lon="13.689932601363067"><ele>877.0</ele><time>2026-05-03T08:59:39Z</time></trkpt><trkpt lat="42.291759657878565" lon="13.689867018552656"><ele>877.0</ele><time>2026-05-03T08:59:40Z</time></trkpt><trkpt lat="42.29185039304591" lon="13.689824545679722"><ele>877.0</ele><time>2026-05-03T08:59:41Z</time></trkpt><trkpt lat="42.291939217473406" lon="13.689790498511421"><ele>877.0</ele><time>2026-05-03T08:59:42Z</time></trkpt><trkpt lat="42.29202116513777" lon="13.689753103708393"><ele>877.0</ele><time>2026-05-03T08:59:43Z</time></trkpt><trkpt lat="42.29209666998799" lon="13.689689113630802"><ele>877.0</ele><time>2026-05-03T08:59:44Z</time></trkpt><trkpt lat="42.2921659278997" lon="13.68960455102111"><ele>877.0</ele><time>2026-05-03T08:59:45Z</time></trkpt><trkpt lat="42.292241090457566" lon="13.68949124132521"><ele>877.0</ele><time>2026-05-03T08:59:46Z</time></trkpt><trkpt lat="42.292321558386966" lon="13.689359993731111"><ele>877.0</ele><time>2026-05-03T08:59:47Z</time></trkpt><trkpt lat="42.292408982050304" lon="13.689230037561357"><ele>877.0</ele><time>2026-05-03T08:59:48Z</time></trkpt><trkpt lat="42.29249420765463" lon="13.689107993750076"><ele>875.4000000000001</ele><time>2026-05-03T08:59:49Z</time></trkpt><trkpt lat="42.29257564440358" lon="13.68900408823113"><ele>873.8000000000001</ele><time>2026-05-03T08:59:50Z</time></trkpt><trkpt lat="42.29265704012438" lon="13.688927603846968"><ele>872.2</ele><time>2026-05-03T08:59:51Z</time></trkpt><trkpt lat="42.29273366360864" lon="13.688850478384461"><ele>870.6</ele><time>2026-05-03T08:59:52Z</time></trkpt><trkpt lat="42.29280498101463" lon="13.688795227058797"><ele>869.0</ele><time>2026-05-03T08:59:53Z</time></trkpt><trkpt lat="42.29287156372604" lon="13.688770495674587"><ele>869.0000000000001</ele><time>2026-05-03T08:59:54Z</time></trkpt><trkpt lat="42.29294079359533" lon="13.688731396544059"><ele>869.0</ele><time>2026-05-03T08:59:55Z</time></trkpt><trkpt lat="42.29300619016002" lon="13.688691965104555"><ele>869.0</ele><time>2026-05-03T08:59:56Z</time></trkpt><trkpt lat="42.2930787174548" lon="13.688635742826778"><ele>869.0</ele><time>2026-05-03T08:59:57Z</time></trkpt><trkpt lat="42.29314962404491" lon="13.688599198503258"><ele>869.0000000000001</ele><time>2026-05-03T08:59:58Z</time></trkpt><trkpt lat="42.29322231543648" lon="13.688570363250419"><ele>869.0</ele><time>2026-05-03T08:59:59Z</time></trkpt><trkpt lat="42.29329164544826" lon="13.688569083135969"><ele>869.0</ele><time>2026-05-03T09:00:00Z</time></trkpt><trkpt lat="42.29339061131762" lon="13.688575951171902"><ele>869.0000000000001</ele><time>2026-05-03T09:00:02Z</time></trkpt><trkpt lat="42.29341080627245" lon="13.688685031894902"><ele>869.0000000000001</ele><time>2026-05-03T09:00:05Z</time></trkpt><trkpt lat="42.29337220115359" lon="13.688759603907032"><ele>869.0</ele><time>2026-05-03T09:00:06Z</time></trkpt><trkpt lat="42.29328488007942" lon="13.688844898158102"><ele>869.0</ele><time>2026-05-03T09:00:07Z</time></trkpt><trkpt lat="42.29319456158643" lon="13.688931825505497"><ele>869.0</ele><time>2026-05-03T09:00:08Z</time></trkpt><trkpt lat="42.29309372694781" lon="13.689050064547885"><ele>869.0</ele><time>2026-05-03T09:00:09Z</time></trkpt><trkpt lat="42.293013459547154" lon="13.689181088636001"><ele>869.0</ele><time>2026-05-03T09:00:10Z</time></trkpt><trkpt lat="42.29294359762378" lon="13.689304829405664"><ele>869.0</ele><time>2026-05-03T09:00:11Z</time></trkpt><trkpt lat="42.29287723416202" lon="13.689435538889517"><ele>866.5</ele><time>2026-05-03T09:00:12Z</time></trkpt><trkpt lat="42.2927979581349" lon="13.689609246489445"><ele>864.0</ele><time>2026-05-03T09:00:13Z</time></trkpt><trkpt lat="42.29273604175982" lon="13.689760559884245"><ele>861.5</ele><time>2026-05-03T09:00:14Z</time></trkpt><trkpt lat="42.29266299465333" lon="13.689943777737293"><ele>859.0</ele><time>2026-05-03T09:00:15Z</time></trkpt><trkpt lat="42.29258199608828" lon="13.690143501463837"><ele>858.0</ele><time>2026-05-03T09:00:16Z</time></trkpt><trkpt lat="42.29251803348359" lon="13.690362916401979"><ele>857.0</ele><time>2026-05-03T09:00:17Z</time></trkpt><trkpt lat="42.29245520356933" lon="13.690569463212608"><ele>856.0</ele><time>2026-05-03T09:00:18Z</time></trkpt><trkpt lat="42.292432534433416" lon="13.690780190410676"><ele>856.0</ele><time>2026-05-03T09:00:19Z</time></trkpt><trkpt lat="42.29243426953337" lon="13.690965145610706"><ele>856.0</ele><time>2026-05-03T09:00:20Z</time></trkpt><trkpt lat="42.29239761671266" lon="13.691159423957803"><ele>856.0</ele><time>2026-05-03T09:00:21Z</time></trkpt><trkpt lat="42.29234580207027" lon="13.69132965937678"><ele>856.0</ele><time>2026-05-03T09:00:22Z</time></trkpt><trkpt lat="42.29228879770248" lon="13.691505643523211"><ele>857.5</ele><time>2026-05-03T09:00:23Z</time></trkpt><trkpt lat="42.29220928775996" lon="13.691678340832315"><ele>859.0</ele><time>2026-05-03T09:00:24Z</time></trkpt><trkpt lat="42.292113300886" lon="13.691829161568672"><ele>860.5</ele><time>2026-05-03T09:00:25Z</time></trkpt><trkpt lat="42.292018493222756" lon="13.691942871797597"><ele>862.0</ele><time>2026-05-03T09:00:26Z</time></trkpt><trkpt lat="42.29191750321713" lon="13.692060473156634"><ele>862.0</ele><time>2026-05-03T09:00:27Z</time></trkpt><trkpt lat="42.29178798398256" lon="13.692209005811305"><ele>862.0</ele><time>2026-05-03T09:00:28Z</time></trkpt><trkpt lat="42.29164100528147" lon="13.692355999623695"><ele>862.0</ele><time>2026-05-03T09:00:29Z</time></trkpt><trkpt lat="42.291511799526155" lon="13.692489335924819"><ele>862.0</ele><time>2026-05-03T09:00:30Z</time></trkpt><trkpt lat="42.29139090178874" lon="13.692613510767504"><ele>862.0</ele><time>2026-05-03T09:00:31Z</time></trkpt><trkpt lat="42.2912870810143" lon="13.692747439918232"><ele>862.0</ele><time>2026-05-03T09:00:32Z</time></trkpt><trkpt lat="42.29122408881225" lon="13.692846120987936"><ele>862.0</ele><time>2026-05-03T09:00:33Z</time></trkpt><trkpt lat="42.291181883694165" lon="13.69297603086866"><ele>862.0</ele><time>2026-05-03T09:00:35Z</time></trkpt><trkpt lat="42.29113369505769" lon="13.693067575163992"><ele>862.0</ele><time>2026-05-03T09:00:37Z</time></trkpt><trkpt lat="42.29105161407736" lon="13.693158654197108"><ele>862.0</ele><time>2026-05-03T09:00:40Z</time></trkpt><trkpt lat="42.29101855980883" lon="13.693261613853437"><ele>862.0</ele><time>2026-05-03T09:00:41Z</time></trkpt><trkpt lat="42.29093339491089" lon="13.693358409614236"><ele>862.0</ele><time>2026-05-03T09:00:43Z</time></trkpt><trkpt lat="42.29084787221959" lon="13.693449104442688"><ele>862.0</ele><time>2026-05-03T09:00:45Z</time></trkpt><trkpt lat="42.29077138385948" lon="13.69351461678201"><ele>862.0</ele><time>2026-05-03T09:00:47Z</time></trkpt><trkpt lat="42.29068302472463" lon="13.693571033248165"><ele>862.0</ele><time>2026-05-03T09:00:49Z</time></trkpt><trkpt lat="42.290639389124415" lon="13.69366995494541"><ele>862.0</ele><time>2026-05-03T09:00:51Z</time></trkpt><trkpt lat="42.290566343301975" lon="13.693809472655158"><ele>862.0</ele><time>2026-05-03T09:00:53Z</time></trkpt><trkpt lat="42.290503695774554" lon="13.69386190442789"><ele>858.6666666666666</ele><time>2026-05-03T09:00:54Z</time></trkpt><trkpt lat="42.29042246596449" lon="13.69393964502467"><ele>855.3333333333333</ele><time>2026-05-03T09:00:55Z</time></trkpt><trkpt lat="42.29037206226488" lon="13.694003353329498"><ele>852.0</ele><time>2026-05-03T09:00:56Z</time></trkpt><trkpt lat="42.28982352433773" lon="13.693657490884517"><ele>849.8333333333334</ele><time>2026-05-03T09:00:57Z</time></trkpt><trkpt lat="42.28975247121672" lon="13.693711899356282"><ele>847.6666666666667</ele><time>2026-05-03T09:00:58Z</time></trkpt><trkpt lat="42.289682994663906" lon="13.693774028360625"><ele>845.5</ele><time>2026-05-03T09:00:59Z</time></trkpt><trkpt lat="42.28962411982519" lon="13.693835790792674"><ele>843.3333333333334</ele><time>2026-05-03T09:01:00Z</time></trkpt><trkpt lat="42.28958106235122" lon="13.693915093212885"><ele>841.1666666666667</ele><time>2026-05-03T09:01:01Z</time></trkpt><trkpt lat="42.28954441171142" lon="13.69401084145007"><ele>839.0</ele><time>2026-05-03T09:01:02Z</time></trkpt><trkpt lat="42.289511737102806" lon="13.69411573655762"><ele>839.0000000000001</ele><time>2026-05-03T09:01:03Z</time></trkpt><trkpt lat="42.28947659199081" lon="13.6942213102837"><ele>839.0</ele><time>2026-05-03T09:01:04Z</time></trkpt><trkpt lat="42.289440225431505" lon="13.694306365729986"><ele>839.0</ele><time>2026-05-03T09:01:05Z</time></trkpt><trkpt lat="42.28939860593586" lon="13.694400820670053"><ele>839.0</ele><time>2026-05-03T09:01:06Z</time></trkpt><trkpt lat="42.28934733731177" lon="13.694521064869738"><ele>839.0000000000001</ele><time>2026-05-03T09:01:07Z</time></trkpt><trkpt lat="42.28929224405051" lon="13.694643237332183"><ele>839.0</ele><time>2026-05-03T09:01:08Z</time></trkpt><trkpt lat="42.28923014772707" lon="13.694759882793269"><ele>838.0</ele><time>2026-05-03T09:01:09Z</time></trkpt><trkpt lat="42.289169569673405" lon="13.694877440391654"><ele>837.0</ele><time>2026-05-03T09:01:10Z</time></trkpt><trkpt lat="42.289109385649326" lon="13.6949987886915"><ele>836.0</ele><time>2026-05-03T09:01:11Z</time></trkpt><trkpt lat="42.28904775961152" lon="13.695121052385185"><ele>835.0</ele><time>2026-05-03T09:01:12Z</time></trkpt><trkpt lat="42.288983016419174" lon="13.695243858217403"><ele>834.0</ele><time>2026-05-03T09:01:13Z</time></trkpt><trkpt lat="42.28891628185931" lon="13.695369914444816"><ele>831.0</ele><time>2026-05-03T09:01:14Z</time></trkpt><trkpt lat="42.28886338345751" lon="13.695496384657314"><ele>828.0</ele><time>2026-05-03T09:01:15Z</time></trkpt><trkpt lat="42.288823938663135" lon="13.695637970594557"><ele>825.0</ele><time>2026-05-03T09:01:16Z</time></trkpt><trkpt lat="42.28877473650086" lon="13.695772157898887"><ele>822.0</ele><time>2026-05-03T09:01:17Z</time></trkpt><trkpt lat="42.28871610952228" lon="13.695861156584279"><ele>819.0</ele><time>2026-05-03T09:01:18Z</time></trkpt><trkpt lat="42.28866093996117" lon="13.695927633759762"><ele>819.0</ele><time>2026-05-03T09:01:19Z</time></trkpt><trkpt lat="42.28860209408858" lon="13.695979037228255"><ele>819.0</ele><time>2026-05-03T09:01:20Z</time></trkpt><trkpt lat="42.288520219970145" lon="13.696011550203158"><ele>819.0</ele><time>2026-05-03T09:01:21Z</time></trkpt><trkpt lat="42.28843194197729" lon="13.696029456879938"><ele>819.0</ele><time>2026-05-03T09:01:22Z</time></trkpt><trkpt lat="42.28834854667057" lon="13.696071529564183"><ele>819.0</ele><time>2026-05-03T09:01:23Z</time></trkpt><trkpt lat="42.288278474389486" lon="13.696123205259148"><ele>819.0</ele><time>2026-05-03T09:01:24Z</time></trkpt><trkpt lat="42.288208601200196" lon="13.69619125273168"><ele>818.2</ele><time>2026-05-03T09:01:25Z</time></trkpt><trkpt lat="42.28813659063761" lon="13.69627442850221"><ele>817.4000000000001</ele><time>2026-05-03T09:01:26Z</time></trkpt><trkpt lat="42.288068610298176" lon="13.696356334867104"><ele>816.6</ele><time>2026-05-03T09:01:27Z</time></trkpt><trkpt lat="42.28800255858882" lon="13.696435366555438"><ele>815.8</ele><time>2026-05-03T09:01:28Z</time></trkpt><trkpt lat="42.28794948986154" lon="13.696492219634619"><ele>815.0</ele><time>2026-05-03T09:01:29Z</time></trkpt><trkpt lat="42.28785891937584" lon="13.696619629748223"><ele>813.0000000000001</ele><time>2026-05-03T09:01:31Z</time></trkpt><trkpt lat="42.28775609241251" lon="13.696730805029102"><ele>811.0</ele><time>2026-05-03T09:01:33Z</time></trkpt><trkpt lat="42.287687142883804" lon="13.696761536145468"><ele>809.0</ele><time>2026-05-03T09:01:34Z</time></trkpt><trkpt lat="42.2876294044011" lon="13.696834600870808"><ele>807.0</ele><time>2026-05-03T09:01:35Z</time></trkpt><trkpt lat="42.28759657748392" lon="13.69693206147725"><ele>805.0000000000001</ele><time>2026-05-03T09:01:36Z</time></trkpt><trkpt lat="42.28758136037301" lon="13.697042361527897"><ele>803.0</ele><time>2026-05-03T09:01:37Z</time></trkpt><trkpt lat="42.287584321757095" lon="13.697176590877373"><ele>802.4</ele><time>2026-05-03T09:01:38Z</time></trkpt><trkpt lat="42.28758911209762" lon="13.697317190517424"><ele>801.8</ele><time>2026-05-03T09:01:39Z</time></trkpt><trkpt lat="42.28757599824013" lon="13.697443610736643"><ele>801.2</ele><time>2026-05-03T09:01:40Z</time></trkpt><trkpt lat="42.2875265379494" lon="13.697563737884519"><ele>800.6</ele><time>2026-05-03T09:01:41Z</time></trkpt><trkpt lat="42.28745749235209" lon="13.697674749555675"><ele>800.0</ele><time>2026-05-03T09:01:42Z</time></trkpt><trkpt lat="42.28738763598175" lon="13.697787552358115"><ele>799.75</ele><time>2026-05-03T09:01:43Z</time></trkpt><trkpt lat="42.28733404306895" lon="13.697935937820738"><ele>799.5</ele><time>2026-05-03T09:01:44Z</time></trkpt><trkpt lat="42.28730046917651" lon="13.698089476912948"><ele>799.25</ele><time>2026-05-03T09:01:45Z</time></trkpt><trkpt lat="42.28727961335093" lon="13.698235877460183"><ele>799.0</ele><time>2026-05-03T09:01:46Z</time></trkpt><trkpt lat="42.28726213837671" lon="13.698376183688602"><ele>798.2</ele><time>2026-05-03T09:01:47Z</time></trkpt><trkpt lat="42.28722881642901" lon="13.698499669067486"><ele>797.4000000000001</ele><time>2026-05-03T09:01:48Z</time></trkpt><trkpt lat="42.28717678976062" lon="13.698615002068225"><ele>796.6</ele><time>2026-05-03T09:01:49Z</time></trkpt><trkpt lat="42.287135252710236" lon="13.69872280504154"><ele>795.8</ele><time>2026-05-03T09:01:50Z</time></trkpt><trkpt lat="42.28710660817591" lon="13.69883662987066"><ele>795.0</ele><time>2026-05-03T09:01:51Z</time></trkpt><trkpt lat="42.2870805678662" lon="13.698971228492173"><ele>794.4</ele><time>2026-05-03T09:01:52Z</time></trkpt><trkpt lat="42.28704512863892" lon="13.699105342238443"><ele>793.8</ele><time>2026-05-03T09:01:53Z</time></trkpt><trkpt lat="42.28700661346054" lon="13.699215201574274"><ele>793.2</ele><time>2026-05-03T09:01:54Z</time></trkpt><trkpt lat="42.28697352973232" lon="13.699341803872091"><ele>792.6</ele><time>2026-05-03T09:01:55Z</time></trkpt><trkpt lat="42.2869565980571" lon="13.699461475902849"><ele>792.0</ele><time>2026-05-03T09:01:56Z</time></trkpt><trkpt lat="42.28694347578508" lon="13.699603384853575"><ele>791.0</ele><time>2026-05-03T09:01:58Z</time></trkpt><trkpt lat="42.28692228398602" lon="13.69976615107545"><ele>790.0</ele><time>2026-05-03T09:02:00Z</time></trkpt><trkpt lat="42.286932827450435" lon="13.69987005274775"><ele>789.0</ele><time>2026-05-03T09:02:01Z</time></trkpt><trkpt lat="42.28692930347399" lon="13.699987760851894"><ele>788.0</ele><time>2026-05-03T09:02:02Z</time></trkpt><trkpt lat="42.28690872902353" lon="13.700093373338445"><ele>787.0</ele><time>2026-05-03T09:02:03Z</time></trkpt><trkpt lat="42.28688780926826" lon="13.700198587605241"><ele>786.0</ele><time>2026-05-03T09:02:04Z</time></trkpt><trkpt lat="42.286869640107724" lon="13.70032759398844"><ele>785.1999999999999</ele><time>2026-05-03T09:02:05Z</time></trkpt><trkpt lat="42.2868543305436" lon="13.700460337750224"><ele>784.4</ele><time>2026-05-03T09:02:06Z</time></trkpt><trkpt lat="42.28683925513393" lon="13.700596735455155"><ele>783.6</ele><time>2026-05-03T09:02:07Z</time></trkpt><trkpt lat="42.28682123052697" lon="13.70070744564002"><ele>782.8</ele><time>2026-05-03T09:02:08Z</time></trkpt><trkpt lat="42.286809034800065" lon="13.700799158548952"><ele>782.0</ele><time>2026-05-03T09:02:09Z</time></trkpt><trkpt lat="42.28681914958505" lon="13.700954452426505"><ele>782.0</ele><time>2026-05-03T09:02:11Z</time></trkpt><trkpt lat="42.286850383493274" lon="13.701056565377268"><ele>782.0</ele><time>2026-05-03T09:02:12Z</time></trkpt><trkpt lat="42.28688517971601" lon="13.701180881633062"><ele>782.0</ele><time>2026-05-03T09:02:13Z</time></trkpt><trkpt lat="42.28691931581953" lon="13.70131319954333"><ele>782.0</ele><time>2026-05-03T09:02:14Z</time></trkpt><trkpt lat="42.28693772657321" lon="13.701436651852838"><ele>782.0</ele><time>2026-05-03T09:02:15Z</time></trkpt><trkpt lat="42.28692789982252" lon="13.701540628970779"><ele>782.0000000000001</ele><time>2026-05-03T09:02:16Z</time></trkpt><trkpt lat="42.28690057160362" lon="13.701665252059989"><ele>782.0</ele><time>2026-05-03T09:02:17Z</time></trkpt><trkpt lat="42.28688110839229" lon="13.701787511332494"><ele>782.0</ele><time>2026-05-03T09:02:18Z</time></trkpt><trkpt lat="42.286876848548495" lon="13.701907907389662"><ele>782.0</ele><time>2026-05-03T09:02:19Z</time></trkpt><trkpt lat="42.28690000379194" lon="13.701990890210457"><ele>782.0000000000001</ele><time>2026-05-03T09:02:23Z</time></trkpt><trkpt lat="42.28695454496252" lon="13.701935352236015"><ele>782.0</ele><time>2026-05-03T09:02:26Z</time></trkpt><trkpt lat="42.28697835740241" lon="13.701827467873795"><ele>782.0</ele><time>2026-05-03T09:02:28Z</time></trkpt><trkpt lat="42.28705845071174" lon="13.701840733143252"><ele>782.0</ele><time>2026-05-03T09:02:31Z</time></trkpt><trkpt lat="42.28700452971638" lon="13.701996343238392"><ele>782.0</ele><time>2026-05-03T09:02:34Z</time></trkpt><trkpt lat="42.286947271288916" lon="13.702100721161806"><ele>782.0</ele><time>2026-05-03T09:02:35Z</time></trkpt><trkpt lat="42.2868978534742" lon="13.702208550951093"><ele>782.0</ele><time>2026-05-03T09:02:36Z</time></trkpt><trkpt lat="42.28685002632626" lon="13.70232124366871"><ele>782.0</ele><time>2026-05-03T09:02:37Z</time></trkpt><trkpt lat="42.28680258336478" lon="13.702459000407687"><ele>782.0</ele><time>2026-05-03T09:02:38Z</time></trkpt><trkpt lat="42.28676279876131" lon="13.702596810041946"><ele>782.0</ele><time>2026-05-03T09:02:39Z</time></trkpt><trkpt lat="42.2867102684591" lon="13.702763993531175"><ele>782.0</ele><time>2026-05-03T09:02:40Z</time></trkpt><trkpt lat="42.28664195153851" lon="13.70291511042943"><ele>783.0</ele><time>2026-05-03T09:02:41Z</time></trkpt><trkpt lat="42.28658011495322" lon="13.703056932658003"><ele>784.0</ele><time>2026-05-03T09:02:42Z</time></trkpt><trkpt lat="42.286517407990075" lon="13.70321479687478"><ele>785.0</ele><time>2026-05-03T09:02:43Z</time></trkpt><trkpt lat="42.286459116282174" lon="13.703381118300927"><ele>786.0</ele><time>2026-05-03T09:02:44Z</time></trkpt><trkpt lat="42.286403661582625" lon="13.703545871901563"><ele>784.0</ele><time>2026-05-03T09:02:45Z</time></trkpt><trkpt lat="42.28636370899194" lon="13.703694536371701"><ele>782.0</ele><time>2026-05-03T09:02:46Z</time></trkpt><trkpt lat="42.28634450972691" lon="13.703790212750771"><ele>780.0</ele><time>2026-05-03T09:02:47Z</time></trkpt><trkpt lat="42.28630334319634" lon="13.703865937854506"><ele>778.0</ele><time>2026-05-03T09:02:51Z</time></trkpt><trkpt lat="42.286208572602916" lon="13.703887522873318"><ele>776.0</ele><time>2026-05-03T09:02:56Z</time></trkpt><trkpt lat="42.28608677148409" lon="13.703847358355812"><ele>776.0000000000001</ele><time>2026-05-03T09:02:58Z</time></trkpt><trkpt lat="42.28597251646198" lon="13.703812160395977"><ele>776.0</ele><time>2026-05-03T09:03:00Z</time></trkpt><trkpt lat="42.28590333121892" lon="13.70379272332007"><ele>776.0</ele><time>2026-05-03T09:03:01Z</time></trkpt><trkpt lat="42.28583380871244" lon="13.703779874508925"><ele>776.0</ele><time>2026-05-03T09:03:02Z</time></trkpt><trkpt lat="42.28575804849277" lon="13.703770810849715"><ele>776.0000000000001</ele><time>2026-05-03T09:03:03Z</time></trkpt><trkpt lat="42.28569186018813" lon="13.703775401563762"><ele>776.0</ele><time>2026-05-03T09:03:04Z</time></trkpt><trkpt lat="42.28562218820207" lon="13.703777225910406"><ele>780.0</ele><time>2026-05-03T09:03:05Z</time></trkpt><trkpt lat="42.2855240095633" lon="13.703854015780346"><ele>784.0</ele><time>2026-05-03T09:03:07Z</time></trkpt><trkpt lat="42.28548134888745" lon="13.703943477085797"><ele>788.0</ele><time>2026-05-03T09:03:08Z</time></trkpt><trkpt lat="42.28542093068061" lon="13.704038585253986"><ele>792.0</ele><time>2026-05-03T09:03:09Z</time></trkpt><trkpt lat="42.285344700627896" lon="13.704156381551892"><ele>796.0</ele><time>2026-05-03T09:03:10Z</time></trkpt><trkpt lat="42.285281451611176" lon="13.704270084842937"><ele>796.0</ele><time>2026-05-03T09:03:11Z</time></trkpt><trkpt lat="42.28521380557705" lon="13.704400030558945"><ele>796.0</ele><time>2026-05-03T09:03:12Z</time></trkpt><trkpt lat="42.285172519195676" lon="13.704521212984478"><ele>796.0</ele><time>2026-05-03T09:03:13Z</time></trkpt><trkpt lat="42.28514720566094" lon="13.704633797961502"><ele>796.0</ele><time>2026-05-03T09:03:14Z</time></trkpt><trkpt lat="42.285116146084" lon="13.704753232097257"><ele>796.0</ele><time>2026-05-03T09:03:15Z</time></trkpt><trkpt lat="42.28509111061594" lon="13.704865702401904"><ele>794.8</ele><time>2026-05-03T09:03:16Z</time></trkpt><trkpt lat="42.285061877409646" lon="13.704977709580923"><ele>793.5999999999999</ele><time>2026-05-03T09:03:17Z</time></trkpt><trkpt lat="42.2850322427452" lon="13.705087400937137"><ele>792.4</ele><time>2026-05-03T09:03:18Z</time></trkpt><trkpt lat="42.28501663403356" lon="13.705190041037293"><ele>791.2</ele><time>2026-05-03T09:03:19Z</time></trkpt><trkpt lat="42.2849852967603" lon="13.70531399693015"><ele>790.0</ele><time>2026-05-03T09:03:20Z</time></trkpt><trkpt lat="42.284938544338154" lon="13.705440971404801"><ele>788.75</ele><time>2026-05-03T09:03:21Z</time></trkpt><trkpt lat="42.28488649811116" lon="13.705575882626341"><ele>787.5</ele><time>2026-05-03T09:03:22Z</time></trkpt><trkpt lat="42.28483151486281" lon="13.7057231909361"><ele>786.25</ele><time>2026-05-03T09:03:23Z</time></trkpt><trkpt lat="42.28478574162208" lon="13.705871295015095"><ele>785.0</ele><time>2026-05-03T09:03:24Z</time></trkpt><trkpt lat="42.28475372891623" lon="13.705998734231521"><ele>789.8</ele><time>2026-05-03T09:03:25Z</time></trkpt><trkpt lat="42.284730861500066" lon="13.70612080615792"><ele>794.6</ele><time>2026-05-03T09:03:26Z</time></trkpt><trkpt lat="42.28469796311072" lon="13.706266853833826"><ele>799.4000000000001</ele><time>2026-05-03T09:03:27Z</time></trkpt><trkpt lat="42.284642042147425" lon="13.70639256615654"><ele>804.2</ele><time>2026-05-03T09:03:28Z</time></trkpt><trkpt lat="42.28457408941529" lon="13.706507630563758"><ele>809.0</ele><time>2026-05-03T09:03:29Z</time></trkpt><trkpt lat="42.284511214247246" lon="13.706639966278424"><ele>809.0</ele><time>2026-05-03T09:03:30Z</time></trkpt><trkpt lat="42.28443912549041" lon="13.706748853860143"><ele>809.0</ele><time>2026-05-03T09:03:31Z</time></trkpt><trkpt lat="42.28435110416923" lon="13.706860437026304"><ele>809.0</ele><time>2026-05-03T09:03:32Z</time></trkpt><trkpt lat="42.284264634763204" lon="13.706961491723398"><ele>809.0</ele><time>2026-05-03T09:03:33Z</time></trkpt><trkpt lat="42.28419165795622" lon="13.707043779603127"><ele>809.0</ele><time>2026-05-03T09:03:34Z</time></trkpt><trkpt lat="42.28410631581223" lon="13.707155164067299"><ele>808.0</ele><time>2026-05-03T09:03:35Z</time></trkpt><trkpt lat="42.28401551343568" lon="13.70726763962439"><ele>807.0</ele><time>2026-05-03T09:03:36Z</time></trkpt><trkpt lat="42.283918380958085" lon="13.707386565585322"><ele>806.0</ele><time>2026-05-03T09:03:37Z</time></trkpt><trkpt lat="42.28384291560122" lon="13.707515918480837"><ele>805.0</ele><time>2026-05-03T09:03:38Z</time></trkpt><trkpt lat="42.28375729940956" lon="13.707631571683695"><ele>808.25</ele><time>2026-05-03T09:03:39Z</time></trkpt><trkpt lat="42.28368760788588" lon="13.707774199992874"><ele>811.5</ele><time>2026-05-03T09:03:40Z</time></trkpt><trkpt lat="42.28362169834078" lon="13.707913318097944"><ele>814.75</ele><time>2026-05-03T09:03:41Z</time></trkpt><trkpt lat="42.28356578629752" lon="13.70803688271052"><ele>818.0</ele><time>2026-05-03T09:03:42Z</time></trkpt><trkpt lat="42.28348778953829" lon="13.70815722057442"><ele>818.0</ele><time>2026-05-03T09:03:43Z</time></trkpt><trkpt lat="42.28341099595947" lon="13.708266317727674"><ele>818.0</ele><time>2026-05-03T09:03:44Z</time></trkpt><trkpt lat="42.28333207427118" lon="13.708364684285598"><ele>818.0</ele><time>2026-05-03T09:03:45Z</time></trkpt><trkpt lat="42.28324323866398" lon="13.70847354622001"><ele>818.0</ele><time>2026-05-03T09:03:46Z</time></trkpt><trkpt lat="42.28315511627127" lon="13.708575951665676"><ele>818.5999999999999</ele><time>2026-05-03T09:03:47Z</time></trkpt><trkpt lat="42.28305763144339" lon="13.708677552930427"><ele>819.1999999999999</ele><time>2026-05-03T09:03:48Z</time></trkpt><trkpt lat="42.28298105167007" lon="13.708764406712186"><ele>819.8</ele><time>2026-05-03T09:03:49Z</time></trkpt><trkpt lat="42.282904203126925" lon="13.708813545140195"><ele>820.4</ele><time>2026-05-03T09:03:50Z</time></trkpt><trkpt lat="42.28281855136567" lon="13.708831075423321"><ele>821.0</ele><time>2026-05-03T09:03:51Z</time></trkpt><trkpt lat="42.28272286911202" lon="13.708862132395224"><ele>821.0</ele><time>2026-05-03T09:03:52Z</time></trkpt><trkpt lat="42.282602225540494" lon="13.708937194122008"><ele>821.0</ele><time>2026-05-03T09:03:53Z</time></trkpt><trkpt lat="42.28248311180469" lon="13.709021577972779"><ele>821.0</ele><time>2026-05-03T09:03:54Z</time></trkpt><trkpt lat="42.28236528179555" lon="13.709119327931012"><ele>821.0</ele><time>2026-05-03T09:03:55Z</time></trkpt><trkpt lat="42.28226377861861" lon="13.709201296272514"><ele>821.25</ele><time>2026-05-03T09:03:56Z</time></trkpt><trkpt lat="42.28215913963867" lon="13.709271283899643"><ele>821.5</ele><time>2026-05-03T09:03:57Z</time></trkpt><trkpt lat="42.28204183966497" lon="13.709357448564104"><ele>821.75</ele><time>2026-05-03T09:03:58Z</time></trkpt><trkpt lat="42.28193277878542" lon="13.709439955722424"><ele>822.0</ele><time>2026-05-03T09:03:59Z</time></trkpt><trkpt lat="42.281845758127204" lon="13.709502067969137"><ele>822.0</ele><time>2026-05-03T09:04:00Z</time></trkpt><trkpt lat="42.28175765759129" lon="13.709552975224018"><ele>822.0</ele><time>2026-05-03T09:04:01Z</time></trkpt><trkpt lat="42.28166813031682" lon="13.709583764953155"><ele>822.0</ele><time>2026-05-03T09:04:02Z</time></trkpt><trkpt lat="42.28156255589727" lon="13.709650412008033"><ele>822.0</ele><time>2026-05-03T09:04:03Z</time></trkpt><trkpt lat="42.281467719174785" lon="13.709742718164781"><ele>822.0</ele><time>2026-05-03T09:04:04Z</time></trkpt><trkpt lat="42.281368600709136" lon="13.709838355348998"><ele>827.25</ele><time>2026-05-03T09:04:05Z</time></trkpt><trkpt lat="42.28125928704088" lon="13.709906076234994"><ele>832.5</ele><time>2026-05-03T09:04:06Z</time></trkpt><trkpt lat="42.281146198554055" lon="13.709944129048916"><ele>837.75</ele><time>2026-05-03T09:04:07Z</time></trkpt><trkpt lat="42.28103209183051" lon="13.709975853224554"><ele>843.0</ele><time>2026-05-03T09:04:08Z</time></trkpt><trkpt lat="42.280925683952496" lon="13.710007159254413"><ele>843.0</ele><time>2026-05-03T09:04:09Z</time></trkpt><trkpt lat="42.28082391468521" lon="13.710056048145782"><ele>843.0</ele><time>2026-05-03T09:04:10Z</time></trkpt><trkpt lat="42.28072717298953" lon="13.710099749486982"><ele>843.0</ele><time>2026-05-03T09:04:11Z</time></trkpt><trkpt lat="42.28063131044899" lon="13.710124348455428"><ele>843.0</ele><time>2026-05-03T09:04:12Z</time></trkpt><trkpt lat="42.28055218154611" lon="13.710136316904741"><ele>843.0</ele><time>2026-05-03T09:04:13Z</time></trkpt><trkpt lat="42.280446759886836" lon="13.710137895105936"><ele>845.2</ele><time>2026-05-03T09:04:14Z</time></trkpt><trkpt lat="42.28034413924796" lon="13.710141500730485"><ele>847.4</ele><time>2026-05-03T09:04:15Z</time></trkpt><trkpt lat="42.28022614187216" lon="13.710146029641434"><ele>849.6000000000001</ele><time>2026-05-03T09:04:16Z</time></trkpt><trkpt lat="42.280122012631075" lon="13.710149735644707"><ele>851.8000000000001</ele><time>2026-05-03T09:04:17Z</time></trkpt><trkpt lat="42.28003009717119" lon="13.71017501687778"><ele>854.0</ele><time>2026-05-03T09:04:18Z</time></trkpt><trkpt lat="42.279923756935595" lon="13.710203761642695"><ele>854.0</ele><time>2026-05-03T09:04:19Z</time></trkpt><trkpt lat="42.27980124759881" lon="13.710219709175021"><ele>854.0</ele><time>2026-05-03T09:04:20Z</time></trkpt><trkpt lat="42.27967672770429" lon="13.710213898071437"><ele>854.0</ele><time>2026-05-03T09:04:21Z</time></trkpt><trkpt lat="42.27956993997565" lon="13.710207860527513"><ele>854.0</ele><time>2026-05-03T09:04:22Z</time></trkpt><trkpt lat="42.27944079085192" lon="13.710192326621424"><ele>855.4000000000001</ele><time>2026-05-03T09:04:23Z</time></trkpt><trkpt lat="42.279308055404094" lon="13.710184240627871"><ele>856.8000000000001</ele><time>2026-05-03T09:04:24Z</time></trkpt><trkpt lat="42.27921680204849" lon="13.71018434349125"><ele>858.1999999999999</ele><time>2026-05-03T09:04:25Z</time></trkpt><trkpt lat="42.279147242969124" lon="13.710143679653276"><ele>859.5999999999999</ele><time>2026-05-03T09:04:26Z</time></trkpt><trkpt lat="42.27907416598067" lon="13.710090744514986"><ele>861.0</ele><time>2026-05-03T09:04:27Z</time></trkpt><trkpt lat="42.27897550355254" lon="13.710061541573115"><ele>864.25</ele><time>2026-05-03T09:04:28Z</time></trkpt><trkpt lat="42.27884960426656" lon="13.710069917697032"><ele>867.5</ele><time>2026-05-03T09:04:29Z</time></trkpt><trkpt lat="42.2787180644318" lon="13.710103238948046"><ele>870.75</ele><time>2026-05-03T09:04:30Z</time></trkpt><trkpt lat="42.27857454667427" lon="13.710136824373324"><ele>874.0</ele><time>2026-05-03T09:04:31Z</time></trkpt><trkpt lat="42.2784430125297" lon="13.710154533854224"><ele>874.0</ele><time>2026-05-03T09:04:32Z</time></trkpt><trkpt lat="42.27833122906197" lon="13.710157524723401"><ele>874.0000000000001</ele><time>2026-05-03T09:04:33Z</time></trkpt><trkpt lat="42.27824002510511" lon="13.710185072446588"><ele>874.0000000000001</ele><time>2026-05-03T09:04:34Z</time></trkpt><trkpt lat="42.278143307072575" lon="13.710238512302556"><ele>874.0</ele><time>2026-05-03T09:04:35Z</time></trkpt><trkpt lat="42.27803344533656" lon="13.710267644579845"><ele>874.0</ele><time>2026-05-03T09:04:36Z</time></trkpt><trkpt lat="42.27792391737011" lon="13.710302339645287"><ele>875.2</ele><time>2026-05-03T09:04:37Z</time></trkpt><trkpt lat="42.27783869424307" lon="13.710319182700204"><ele>876.4000000000001</ele><time>2026-05-03T09:04:38Z</time></trkpt><trkpt lat="42.2777312203079" lon="13.710339387350327"><ele>877.6</ele><time>2026-05-03T09:04:39Z</time></trkpt><trkpt lat="42.27762861689591" lon="13.710332458870965"><ele>878.8</ele><time>2026-05-03T09:04:40Z</time></trkpt><trkpt lat="42.27753401386515" lon="13.710346135675595"><ele>880.0</ele><time>2026-05-03T09:04:41Z</time></trkpt><trkpt lat="42.27743989147066" lon="13.710364443490645"><ele>879.9999999999999</ele><time>2026-05-03T09:04:42Z</time></trkpt><trkpt lat="42.27736600532036" lon="13.710411649017532"><ele>880.0</ele><time>2026-05-03T09:04:43Z</time></trkpt><trkpt lat="42.277294889767404" lon="13.710482353121886"><ele>880.0</ele><time>2026-05-03T09:04:45Z</time></trkpt><trkpt lat="42.27724754833031" lon="13.710544467492761"><ele>880.0</ele><time>2026-05-03T09:04:47Z</time></trkpt><trkpt lat="42.277192351720046" lon="13.710607408186995"><ele>879.9999999999999</ele><time>2026-05-03T09:05:33Z</time></trkpt><trkpt lat="42.277102150453764" lon="13.710627210062917"><ele>880.0</ele><time>2026-05-03T09:05:35Z</time></trkpt><trkpt lat="42.27700482206112" lon="13.71065048893121"><ele>879.0</ele><time>2026-05-03T09:05:37Z</time></trkpt><trkpt lat="42.27689482775121" lon="13.710694736210332"><ele>878.0</ele><time>2026-05-03T09:05:39Z</time></trkpt><trkpt lat="42.276784986526415" lon="13.710743116737975"><ele>877.0</ele><time>2026-05-03T09:05:41Z</time></trkpt><trkpt lat="42.276665561540504" lon="13.710764632734397"><ele>876.0</ele><time>2026-05-03T09:05:43Z</time></trkpt><trkpt lat="42.27658832638217" lon="13.710748798865971"><ele>875.0</ele><time>2026-05-03T09:05:44Z</time></trkpt><trkpt lat="42.2765131718245" lon="13.71072474780182"><ele>875.0</ele><time>2026-05-03T09:05:45Z</time></trkpt><trkpt lat="42.276441824068435" lon="13.710702776373171"><ele>875.0</ele><time>2026-05-03T09:05:46Z</time></trkpt><trkpt lat="42.27636161618468" lon="13.71070455091468"><ele>875.0</ele><time>2026-05-03T09:05:47Z</time></trkpt><trkpt lat="42.276252473868624" lon="13.710691262846236"><ele>875.0</ele><time>2026-05-03T09:05:49Z</time></trkpt><trkpt lat="42.276136758237115" lon="13.710763545857743"><ele>875.0</ele><time>2026-05-03T09:05:51Z</time></trkpt><trkpt lat="42.27606759397807" lon="13.710850048810478"><ele>873.4</ele><time>2026-05-03T09:05:52Z</time></trkpt><trkpt lat="42.27599089562809" lon="13.710924272947748"><ele>871.8</ele><time>2026-05-03T09:05:53Z</time></trkpt><trkpt lat="42.27591349197911" lon="13.710977688092987"><ele>870.2</ele><time>2026-05-03T09:05:54Z</time></trkpt><trkpt lat="42.27582019055891" lon="13.71101296480033"><ele>868.6</ele><time>2026-05-03T09:05:55Z</time></trkpt><trkpt lat="42.275726330560474" lon="13.711037530336133"><ele>867.0</ele><time>2026-05-03T09:05:56Z</time></trkpt><trkpt lat="42.27564328251894" lon="13.711063887508876"><ele>868.2</ele><time>2026-05-03T09:05:57Z</time></trkpt><trkpt lat="42.27554852828063" lon="13.711099912655882"><ele>869.4000000000001</ele><time>2026-05-03T09:05:58Z</time></trkpt><trkpt lat="42.275453557029614" lon="13.711171430075847"><ele>870.5999999999999</ele><time>2026-05-03T09:05:59Z</time></trkpt><trkpt lat="42.27535999129965" lon="13.711251538957038"><ele>871.8</ele><time>2026-05-03T09:06:00Z</time></trkpt><trkpt lat="42.275257021799604" lon="13.711300256243957"><ele>873.0</ele><time>2026-05-03T09:06:01Z</time></trkpt><trkpt lat="42.275155652802255" lon="13.71136520700785"><ele>873.0</ele><time>2026-05-03T09:06:02Z</time></trkpt><trkpt lat="42.27506606832482" lon="13.711467373146931"><ele>873.0</ele><time>2026-05-03T09:06:03Z</time></trkpt><trkpt lat="42.27498546264447" lon="13.71157222802033"><ele>873.0</ele><time>2026-05-03T09:06:04Z</time></trkpt><trkpt lat="42.27489675862257" lon="13.711677507721822"><ele>873.0</ele><time>2026-05-03T09:06:05Z</time></trkpt><trkpt lat="42.27481287539737" lon="13.711773541282465"><ele>873.2</ele><time>2026-05-03T09:06:06Z</time></trkpt><trkpt lat="42.27473296644663" lon="13.71187112363153"><ele>873.4</ele><time>2026-05-03T09:06:07Z</time></trkpt><trkpt lat="42.2746640175883" lon="13.71194579857565"><ele>873.6000000000001</ele><time>2026-05-03T09:06:08Z</time></trkpt><trkpt lat="42.27458436042765" lon="13.712006734799537"><ele>873.8000000000001</ele><time>2026-05-03T09:06:09Z</time></trkpt><trkpt lat="42.27450244337533" lon="13.71208337644066"><ele>874.0</ele><time>2026-05-03T09:06:10Z</time></trkpt><trkpt lat="42.27442655599154" lon="13.712152735976996"><ele>873.9999999999999</ele><time>2026-05-03T09:06:11Z</time></trkpt><trkpt lat="42.27434507505407" lon="13.712208639845015"><ele>874.0</ele><time>2026-05-03T09:06:12Z</time></trkpt><trkpt lat="42.27427027254653" lon="13.71224612666265"><ele>874.0</ele><time>2026-05-03T09:06:13Z</time></trkpt><trkpt lat="42.27419199578415" lon="13.712177028548215"><ele>874.0</ele><time>2026-05-03T09:06:16Z</time></trkpt><trkpt lat="42.27410314445092" lon="13.712222680452333"><ele>873.9999999999999</ele><time>2026-05-03T09:06:18Z</time></trkpt><trkpt lat="42.27405729170001" lon="13.712302976031841"><ele>874.0</ele><time>2026-05-03T09:06:19Z</time></trkpt><trkpt lat="42.27400839430375" lon="13.712392293254828"><ele>874.0</ele><time>2026-05-03T09:06:20Z</time></trkpt><trkpt lat="42.27396205284866" lon="13.712495964994423"><ele>874.0000000000001</ele><time>2026-05-03T09:06:21Z</time></trkpt><trkpt lat="42.273917008497556" lon="13.712582164113387"><ele>874.0000000000001</ele><time>2026-05-03T09:06:23Z</time></trkpt><trkpt lat="42.273856569167414" lon="13.712533314623975"><ele>874.0</ele><time>2026-05-03T09:06:25Z</time></trkpt><trkpt lat="42.27385410778499" lon="13.712338077548374"><ele>874.0</ele><time>2026-05-03T09:06:27Z</time></trkpt><trkpt lat="42.27385310144486" lon="13.71222553707631"><ele>874.9999999999999</ele><time>2026-05-03T09:06:28Z</time></trkpt><trkpt lat="42.27384029276626" lon="13.712122225829864"><ele>876.0</ele><time>2026-05-03T09:06:29Z</time></trkpt><trkpt lat="42.27383246089716" lon="13.712022252525784"><ele>877.0</ele><time>2026-05-03T09:06:30Z</time></trkpt><trkpt lat="42.273812456289136" lon="13.711924628842974"><ele>878.0</ele><time>2026-05-03T09:06:31Z</time></trkpt><trkpt lat="42.27378051785371" lon="13.711805795164008"><ele>878.9999999999999</ele><time>2026-05-03T09:06:32Z</time></trkpt><trkpt lat="42.273732415810365" lon="13.711680988099436"><ele>880.0</ele><time>2026-05-03T09:06:33Z</time></trkpt><trkpt lat="42.27368669122483" lon="13.71154939919496"><ele>880.0</ele><time>2026-05-03T09:06:34Z</time></trkpt><trkpt lat="42.27364055322017" lon="13.711415757547682"><ele>880.0</ele><time>2026-05-03T09:06:35Z</time></trkpt><trkpt lat="42.27359873060065" lon="13.711296531515309"><ele>880.0</ele><time>2026-05-03T09:06:36Z</time></trkpt><trkpt lat="42.27355873666622" lon="13.711188289812325"><ele>880.0</ele><time>2026-05-03T09:06:37.001Z</time></trkpt><trkpt lat="42.27350683332825" lon="13.711078797743712"><ele>880.0</ele><time>2026-05-03T09:06:38.001Z</time></trkpt><trkpt lat="42.27343604147142" lon="13.710959779038683"><ele>879.2</ele><time>2026-05-03T09:06:39.001Z</time></trkpt><trkpt lat="42.273382043988214" lon="13.710845040722386"><ele>878.4</ele><time>2026-05-03T09:06:40.001Z</time></trkpt><trkpt lat="42.27334163034966" lon="13.710734330428554"><ele>877.5999999999999</ele><time>2026-05-03T09:06:41.001Z</time></trkpt><trkpt lat="42.27330014443107" lon="13.710628238401634"><ele>876.8</ele><time>2026-05-03T09:06:42.001Z</time></trkpt><trkpt lat="42.27324338136944" lon="13.710531328241723"><ele>876.0</ele><time>2026-05-03T09:06:43.001Z</time></trkpt><trkpt lat="42.27318281045773" lon="13.710452136546522"><ele>876.0</ele><time>2026-05-03T09:06:44.001Z</time></trkpt><trkpt lat="42.27312254379483" lon="13.710385044893316"><ele>876.0</ele><time>2026-05-03T09:06:45.001Z</time></trkpt><trkpt lat="42.27305908719434" lon="13.710344102946914"><ele>876.0</ele><time>2026-05-03T09:06:46.001Z</time></trkpt><trkpt lat="42.27299272642338" lon="13.710338451256607"><ele>876.0</ele><time>2026-05-03T09:06:47.001Z</time></trkpt><trkpt lat="42.27290689488703" lon="13.710365175457813"><ele>876.0</ele><time>2026-05-03T09:06:48.001Z</time></trkpt><trkpt lat="42.272799811569314" lon="13.710387828876842"><ele>876.0</ele><time>2026-05-03T09:06:49.001Z</time></trkpt><trkpt lat="42.27266446479728" lon="13.710418101898243"><ele>877.1666666666666</ele><time>2026-05-03T09:06:50.001Z</time></trkpt><trkpt lat="42.27254497824211" lon="13.710431302725395"><ele>878.3333333333333</ele><time>2026-05-03T09:06:51.001Z</time></trkpt><trkpt lat="42.27246356391761" lon="13.71044192069398"><ele>879.5</ele><time>2026-05-03T09:06:52Z</time></trkpt><trkpt lat="42.272399090269595" lon="13.71037834364119"><ele>880.6666666666666</ele><time>2026-05-03T09:06:54Z</time></trkpt><trkpt lat="42.27237230187236" lon="13.710287174918687"><ele>881.8333333333333</ele><time>2026-05-03T09:06:55Z</time></trkpt><trkpt lat="42.27233871894491" lon="13.710179472569047"><ele>883.0</ele><time>2026-05-03T09:06:56Z</time></trkpt><trkpt lat="42.27230705944501" lon="13.710096968047004"><ele>882.2</ele><time>2026-05-03T09:06:57Z</time></trkpt><trkpt lat="42.27219127951108" lon="13.710039015245137"><ele>881.4</ele><time>2026-05-03T09:06:59Z</time></trkpt><trkpt lat="42.27211038367538" lon="13.710021702158649"><ele>880.6000000000001</ele><time>2026-05-03T09:07:00Z</time></trkpt><trkpt lat="42.2720423624372" lon="13.70996317341913"><ele>879.8000000000001</ele><time>2026-05-03T09:07:01Z</time></trkpt><trkpt lat="42.27196851032432" lon="13.709873959901717"><ele>879.0</ele><time>2026-05-03T09:07:02Z</time></trkpt><trkpt lat="42.2719070569726" lon="13.709763042469644"><ele>879.0</ele><time>2026-05-03T09:07:03Z</time></trkpt><trkpt lat="42.27184978457798" lon="13.709663679934506"><ele>879.0000000000001</ele><time>2026-05-03T09:07:04Z</time></trkpt><trkpt lat="42.27179923773609" lon="13.709561921839011"><ele>879.0000000000001</ele><time>2026-05-03T09:07:05Z</time></trkpt><trkpt lat="42.27176328025549" lon="13.709437965762154"><ele>879.0</ele><time>2026-05-03T09:07:06Z</time></trkpt><trkpt lat="42.27173644030999" lon="13.709282167016257"><ele>879.0</ele><time>2026-05-03T09:07:07Z</time></trkpt><trkpt lat="42.271709059765584" lon="13.709140649027228"><ele>878.8000000000001</ele><time>2026-05-03T09:07:08Z</time></trkpt><trkpt lat="42.27169312272301" lon="13.709031130838683"><ele>878.6000000000001</ele><time>2026-05-03T09:07:09Z</time></trkpt><trkpt lat="42.27166445601858" lon="13.708920417456685"><ele>878.4</ele><time>2026-05-03T09:07:10Z</time></trkpt><trkpt lat="42.27163371064116" lon="13.708799207653554"><ele>878.2</ele><time>2026-05-03T09:07:11Z</time></trkpt><trkpt lat="42.271615460919314" lon="13.7086576292244"><ele>878.0</ele><time>2026-05-03T09:07:12Z</time></trkpt><trkpt lat="42.271599688600176" lon="13.708519898300164"><ele>877.25</ele><time>2026-05-03T09:07:13Z</time></trkpt><trkpt lat="42.27159516690909" lon="13.708387300452687"><ele>876.5</ele><time>2026-05-03T09:07:14Z</time></trkpt><trkpt lat="42.27159648100423" lon="13.708219393367475"><ele>875.75</ele><time>2026-05-03T09:07:15Z</time></trkpt><trkpt lat="42.27158671825254" lon="13.708020818492555"><ele>875.0</ele><time>2026-05-03T09:07:16Z</time></trkpt><trkpt lat="42.271578086713845" lon="13.707845544027919"><ele>874.0</ele><time>2026-05-03T09:07:17Z</time></trkpt><trkpt lat="42.2715673871831" lon="13.707709180504338"><ele>873.0</ele><time>2026-05-03T09:07:18Z</time></trkpt><trkpt lat="42.2715552859438" lon="13.707577577978617"><ele>872.0</ele><time>2026-05-03T09:07:19Z</time></trkpt><trkpt lat="42.27156433298894" lon="13.70745753606166"><ele>871.0</ele><time>2026-05-03T09:07:20Z</time></trkpt><trkpt lat="42.271593346076756" lon="13.707327894569955"><ele>870.0</ele><time>2026-05-03T09:07:21Z</time></trkpt><trkpt lat="42.27162871945035" lon="13.707197008511608"><ele>870.0</ele><time>2026-05-03T09:07:22Z</time></trkpt><trkpt lat="42.27164529326522" lon="13.707046670520475"><ele>870.0</ele><time>2026-05-03T09:07:23Z</time></trkpt><trkpt lat="42.27165547633935" lon="13.706903338752289"><ele>870.0</ele><time>2026-05-03T09:07:24Z</time></trkpt><trkpt lat="42.27167360923157" lon="13.706765282102301"><ele>870.0</ele><time>2026-05-03T09:07:25Z</time></trkpt><trkpt lat="42.27169219088413" lon="13.706623626957063"><ele>870.0</ele><time>2026-05-03T09:07:26Z</time></trkpt><trkpt lat="42.271703063452" lon="13.706500434335211"><ele>868.5</ele><time>2026-05-03T09:07:27Z</time></trkpt><trkpt lat="42.271712757086405" lon="13.706388864247758"><ele>867.0</ele><time>2026-05-03T09:07:28Z</time></trkpt><trkpt lat="42.27171991393108" lon="13.706260522593197"><ele>865.5</ele><time>2026-05-03T09:07:29Z</time></trkpt><trkpt lat="42.271715280013815" lon="13.706151902557071"><ele>864.0</ele><time>2026-05-03T09:07:30Z</time></trkpt><trkpt lat="42.27172178573375" lon="13.706033859369844"><ele>862.5</ele><time>2026-05-03T09:07:31Z</time></trkpt><trkpt lat="42.2717202134433" lon="13.705916648371158"><ele>861.0</ele><time>2026-05-03T09:07:32Z</time></trkpt><trkpt lat="42.271716959242234" lon="13.705784196385748"><ele>859.5999999999999</ele><time>2026-05-03T09:07:33Z</time></trkpt><trkpt lat="42.271707465885065" lon="13.705654956020634"><ele>858.1999999999999</ele><time>2026-05-03T09:07:34Z</time></trkpt><trkpt lat="42.27169231518658" lon="13.705526670386533"><ele>856.8000000000001</ele><time>2026-05-03T09:07:35Z</time></trkpt><trkpt lat="42.271663144487675" lon="13.705410213827024"><ele>855.4000000000001</ele><time>2026-05-03T09:07:36Z</time></trkpt><trkpt lat="42.271630134785596" lon="13.705302242913683"><ele>854.0</ele><time>2026-05-03T09:07:37Z</time></trkpt><trkpt lat="42.27158973822247" lon="13.705198470958702"><ele>853.1666666666667</ele><time>2026-05-03T09:07:38Z</time></trkpt><trkpt lat="42.271543757246604" lon="13.705126669530799"><ele>852.3333333333334</ele><time>2026-05-03T09:07:39Z</time></trkpt><trkpt lat="42.27140933361191" lon="13.705088497398153"><ele>851.5</ele><time>2026-05-03T09:07:41Z</time></trkpt><trkpt lat="42.271337744954266" lon="13.7050424623538"><ele>850.6666666666667</ele><time>2026-05-03T09:07:42Z</time></trkpt><trkpt lat="42.27129261862492" lon="13.704966333252765"><ele>849.8333333333334</ele><time>2026-05-03T09:07:43Z</time></trkpt><trkpt lat="42.27122792775225" lon="13.70490339524877"><ele>849.0</ele><time>2026-05-03T09:07:44Z</time></trkpt><trkpt lat="42.27116441958767" lon="13.704837878349023"><ele>848.0</ele><time>2026-05-03T09:07:45Z</time></trkpt><trkpt lat="42.271103934341255" lon="13.704739634097837"><ele>847.0</ele><time>2026-05-03T09:07:46Z</time></trkpt><trkpt lat="42.27105756073235" lon="13.7046265584238"><ele>846.0</ele><time>2026-05-03T09:07:47Z</time></trkpt><trkpt lat="42.271006911518576" lon="13.704520209237032"><ele>845.0</ele><time>2026-05-03T09:07:48Z</time></trkpt><trkpt lat="42.27096296401699" lon="13.704404545333961"><ele>844.0</ele><time>2026-05-03T09:07:49Z</time></trkpt><trkpt lat="42.270915804498344" lon="13.704296381989463"><ele>842.8333333333333</ele><time>2026-05-03T09:07:50Z</time></trkpt><trkpt lat="42.270881767342324" lon="13.704194478302085"><ele>841.6666666666666</ele><time>2026-05-03T09:07:51Z</time></trkpt><trkpt lat="42.27083838458298" lon="13.704097670916461"><ele>840.5</ele><time>2026-05-03T09:07:52Z</time></trkpt><trkpt lat="42.27077471694013" lon="13.704025132474232"><ele>839.3333333333333</ele><time>2026-05-03T09:07:53Z</time></trkpt><trkpt lat="42.27069182678208" lon="13.7039977830156"><ele>838.1666666666666</ele><time>2026-05-03T09:07:54Z</time></trkpt><trkpt lat="42.27060090995232" lon="13.703995533578771"><ele>837.0</ele><time>2026-05-03T09:07:55Z</time></trkpt><trkpt lat="42.27051386505028" lon="13.703973690429503"><ele>836.6</ele><time>2026-05-03T09:07:56Z</time></trkpt><trkpt lat="42.270390899869675" lon="13.70394984707031"><ele>836.2</ele><time>2026-05-03T09:07:58Z</time></trkpt><trkpt lat="42.27029464771219" lon="13.70395658122625"><ele>835.8</ele><time>2026-05-03T09:07:59Z</time></trkpt><trkpt lat="42.270206994907376" lon="13.70396110060535"><ele>835.4</ele><time>2026-05-03T09:08:00Z</time></trkpt><trkpt lat="42.270128721851165" lon="13.703962446484665"><ele>835.0</ele><time>2026-05-03T09:08:01Z</time></trkpt><trkpt lat="42.27006386274572" lon="13.703952100428149"><ele>835.0</ele><time>2026-05-03T09:08:02Z</time></trkpt><trkpt lat="42.26997545196316" lon="13.703835728528118"><ele>835.0</ele><time>2026-05-03T09:08:04Z</time></trkpt><trkpt lat="42.269920001763914" lon="13.703735010855905"><ele>835.0</ele><time>2026-05-03T09:08:05Z</time></trkpt><trkpt lat="42.26984401228254" lon="13.70366644691703"><ele>835.0</ele><time>2026-05-03T09:08:06Z</time></trkpt><trkpt lat="42.269734900754315" lon="13.703617631132786"><ele>835.0</ele><time>2026-05-03T09:08:07Z</time></trkpt><trkpt lat="42.26961919587011" lon="13.7035669816709"><ele>833.0</ele><time>2026-05-03T09:08:08Z</time></trkpt><trkpt lat="42.269506065199295" lon="13.703523222694965"><ele>831.0</ele><time>2026-05-03T09:08:09Z</time></trkpt><trkpt lat="42.269400015302956" lon="13.703491367113122"><ele>829.0</ele><time>2026-05-03T09:08:10Z</time></trkpt><trkpt lat="42.26929865995126" lon="13.703462152895842"><ele>827.0</ele><time>2026-05-03T09:08:11Z</time></trkpt><trkpt lat="42.26920666862615" lon="13.703421283199043"><ele>825.0</ele><time>2026-05-03T09:08:12Z</time></trkpt><trkpt lat="42.269121858591355" lon="13.703352231045931"><ele>825.0</ele><time>2026-05-03T09:08:13Z</time></trkpt><trkpt lat="42.26904183623182" lon="13.7032772658318"><ele>825.0</ele><time>2026-05-03T09:08:14Z</time></trkpt><trkpt lat="42.26896062804897" lon="13.703214203120352"><ele>825.0</ele><time>2026-05-03T09:08:15Z</time></trkpt><trkpt lat="42.26889055545637" lon="13.70316216735216"><ele>825.0</ele><time>2026-05-03T09:08:16Z</time></trkpt><trkpt lat="42.268805550393886" lon="13.703127740218388"><ele>825.0</ele><time>2026-05-03T09:08:17Z</time></trkpt><trkpt lat="42.268695399457485" lon="13.703123265753902"><ele>823.6666666666666</ele><time>2026-05-03T09:08:18Z</time></trkpt><trkpt lat="42.268595286681546" lon="13.703125201845559"><ele>822.3333333333333</ele><time>2026-05-03T09:08:19Z</time></trkpt><trkpt lat="42.268531391735294" lon="13.703132480067836"><ele>821.0</ele><time>2026-05-03T09:08:20Z</time></trkpt><trkpt lat="42.26846457162518" lon="13.703136999483956"><ele>819.6666666666666</ele><time>2026-05-03T09:08:23Z</time></trkpt><trkpt lat="42.26839689130854" lon="13.70322521568425"><ele>818.3333333333333</ele><time>2026-05-03T09:08:26Z</time></trkpt><trkpt lat="42.26838234076439" lon="13.703314284518576"><ele>817.0</ele><time>2026-05-03T09:08:27Z</time></trkpt><trkpt lat="42.268372296915565" lon="13.703426761959262"><ele>816.9999999999999</ele><time>2026-05-03T09:08:28Z</time></trkpt><trkpt lat="42.268366162006785" lon="13.703525136152582"><ele>817.0</ele><time>2026-05-03T09:08:29Z</time></trkpt><trkpt lat="42.26835118575622" lon="13.70361399630254"><ele>817.0</ele><time>2026-05-03T09:08:30Z</time></trkpt><trkpt lat="42.26832438168774" lon="13.703698927399103"><ele>817.0</ele><time>2026-05-03T09:08:31Z</time></trkpt><trkpt lat="42.2683057929665" lon="13.703788976296964"><ele>816.9999999999999</ele><time>2026-05-03T09:08:32Z</time></trkpt><trkpt lat="42.2682355989824" lon="13.703941583465637"><ele>817.0</ele><time>2026-05-03T09:08:34Z</time></trkpt><trkpt lat="42.26817385242986" lon="13.70405638794035"><ele>817.0</ele><time>2026-05-03T09:08:36Z</time></trkpt><trkpt lat="42.268120272252865" lon="13.704209337656733"><ele>817.0</ele><time>2026-05-03T09:08:38Z</time></trkpt><trkpt lat="42.268097799933436" lon="13.704304941548756"><ele>817.0</ele><time>2026-05-03T09:08:39Z</time></trkpt><trkpt lat="42.2680742109498" lon="13.704400867473224"><ele>817.0</ele><time>2026-05-03T09:08:40Z</time></trkpt><trkpt lat="42.26804636506384" lon="13.704519834197729"><ele>817.0</ele><time>2026-05-03T09:08:41Z</time></trkpt><trkpt lat="42.26801748565338" lon="13.704625448772898"><ele>818.4999999999999</ele><time>2026-05-03T09:08:42Z</time></trkpt><trkpt lat="42.26800162982615" lon="13.704717621999475"><ele>820.0</ele><time>2026-05-03T09:08:43Z</time></trkpt><trkpt lat="42.2679925133556" lon="13.704853334341466"><ele>821.5</ele><time>2026-05-03T09:08:45Z</time></trkpt><trkpt lat="42.267933651442625" lon="13.704737208975963"><ele>823.0</ele><time>2026-05-03T09:08:51Z</time></trkpt><trkpt lat="42.267935497426166" lon="13.704623533109915"><ele>824.4999999999999</ele><time>2026-05-03T09:08:52Z</time></trkpt><trkpt lat="42.26792036402263" lon="13.704523984621982"><ele>826.0</ele><time>2026-05-03T09:08:53Z</time></trkpt><trkpt lat="42.26790114318363" lon="13.704425650471942"><ele>824.4999999999999</ele><time>2026-05-03T09:08:54Z</time></trkpt><trkpt lat="42.26787868197248" lon="13.704280493291826"><ele>823.0</ele><time>2026-05-03T09:08:56Z</time></trkpt><trkpt lat="42.2678351899883" lon="13.704167345246194"><ele>821.5</ele><time>2026-05-03T09:08:58Z</time></trkpt><trkpt lat="42.26773318811504" lon="13.704135426169358"><ele>820.0</ele><time>2026-05-03T09:09:00Z</time></trkpt><trkpt lat="42.26766690101297" lon="13.704143741176768"><ele>818.4999999999999</ele><time>2026-05-03T09:09:01Z</time></trkpt><trkpt lat="42.26759639871094" lon="13.704137363700024"><ele>817.0</ele><time>2026-05-03T09:09:02Z</time></trkpt><trkpt lat="42.26753819282385" lon="13.704095219025472"><ele>817.0</ele><time>2026-05-03T09:09:03Z</time></trkpt><trkpt lat="42.26747472458772" lon="13.704022665947585"><ele>817.0</ele><time>2026-05-03T09:09:04Z</time></trkpt><trkpt lat="42.26740687715182" lon="13.703936649121157"><ele>817.0</ele><time>2026-05-03T09:09:05Z</time></trkpt><trkpt lat="42.267326515471346" lon="13.70383373711031"><ele>817.0</ele><time>2026-05-03T09:09:06Z</time></trkpt><trkpt lat="42.267237660043115" lon="13.703731820812726"><ele>817.0</ele><time>2026-05-03T09:09:07Z</time></trkpt><trkpt lat="42.26712878790901" lon="13.703615731684994"><ele>816.0</ele><time>2026-05-03T09:09:08Z</time></trkpt><trkpt lat="42.26703876824215" lon="13.703511278966687"><ele>815.0</ele><time>2026-05-03T09:09:09Z</time></trkpt><trkpt lat="42.266963410838656" lon="13.703412806229652"><ele>814.0</ele><time>2026-05-03T09:09:10Z</time></trkpt><trkpt lat="42.26689981596749" lon="13.703329390708268"><ele>813.0</ele><time>2026-05-03T09:09:11Z</time></trkpt><trkpt lat="42.26684134160191" lon="13.703235613443265"><ele>812.0</ele><time>2026-05-03T09:09:12Z</time></trkpt><trkpt lat="42.266784214055825" lon="13.703145327506013"><ele>812.0000000000001</ele><time>2026-05-03T09:09:13Z</time></trkpt><trkpt lat="42.266747022247394" lon="13.703062425948403"><ele>812.0</ele><time>2026-05-03T09:09:14.001Z</time></trkpt><trkpt lat="42.26670912777452" lon="13.702985019068333"><ele>812.0</ele><time>2026-05-03T09:09:15Z</time></trkpt><trkpt lat="42.26663383860136" lon="13.702899576768145"><ele>812.0</ele><time>2026-05-03T09:09:17Z</time></trkpt><trkpt lat="42.26654770325299" lon="13.702916747669873"><ele>812.0000000000001</ele><time>2026-05-03T09:09:19Z</time></trkpt><trkpt lat="42.26645546251599" lon="13.7029787049767"><ele>812.0</ele><time>2026-05-03T09:09:21Z</time></trkpt><trkpt lat="42.266356210266856" lon="13.70305563229891"><ele>810.5</ele><time>2026-05-03T09:09:23Z</time></trkpt><trkpt lat="42.266255336772" lon="13.703133844847747"><ele>809.0</ele><time>2026-05-03T09:09:25Z</time></trkpt><trkpt lat="42.26615143962787" lon="13.703205375537202"><ele>807.5</ele><time>2026-05-03T09:09:27Z</time></trkpt><trkpt lat="42.26604641752829" lon="13.703289429407794"><ele>806.0</ele><time>2026-05-03T09:09:29Z</time></trkpt><trkpt lat="42.26594519664264" lon="13.703376293825386"><ele>806.0</ele><time>2026-05-03T09:09:31Z</time></trkpt><trkpt lat="42.26583321855142" lon="13.703421329789856"><ele>806.0</ele><time>2026-05-03T09:09:33Z</time></trkpt><trkpt lat="42.26570823645132" lon="13.703438321241451"><ele>806.0</ele><time>2026-05-03T09:09:35Z</time></trkpt><trkpt lat="42.265588715615394" lon="13.703442707251478"><ele>806.0</ele><time>2026-05-03T09:09:37Z</time></trkpt><trkpt lat="42.26547597999582" lon="13.703459732532588"><ele>805.8333333333334</ele><time>2026-05-03T09:09:39Z</time></trkpt><trkpt lat="42.26541195314735" lon="13.70345349351926"><ele>805.6666666666667</ele><time>2026-05-03T09:09:40Z</time></trkpt><trkpt lat="42.26534059698712" lon="13.70345182425407"><ele>805.5</ele><time>2026-05-03T09:09:41Z</time></trkpt><trkpt lat="42.26526436160042" lon="13.703457741301914"><ele>805.3333333333333</ele><time>2026-05-03T09:09:42Z</time></trkpt><trkpt lat="42.26519755780346" lon="13.70346216489558"><ele>805.1666666666666</ele><time>2026-05-03T09:09:43Z</time></trkpt><trkpt lat="42.26507410343195" lon="13.703479742379916"><ele>805.0</ele><time>2026-05-03T09:09:45Z</time></trkpt><trkpt lat="42.26500505717038" lon="13.703480357511845"><ele>805.0</ele><time>2026-05-03T09:09:46Z</time></trkpt><trkpt lat="42.26492711447974" lon="13.703488887924305"><ele>805.0</ele><time>2026-05-03T09:09:47Z</time></trkpt><trkpt lat="42.26485096432467" lon="13.703486294304044"><ele>805.0</ele><time>2026-05-03T09:09:48Z</time></trkpt><trkpt lat="42.2647787818184" lon="13.703471659198302"><ele>805.0</ele><time>2026-05-03T09:09:49Z</time></trkpt><trkpt lat="42.26471155054298" lon="13.7034549490825"><ele>805.0</ele><time>2026-05-03T09:09:50Z</time></trkpt><trkpt lat="42.264629562420374" lon="13.703431123660692"><ele>805.0</ele><time>2026-05-03T09:09:51Z</time></trkpt><trkpt lat="42.26456693278577" lon="13.70340145675983"><ele>805.0</ele><time>2026-05-03T09:09:52Z</time></trkpt><trkpt lat="42.26446052927976" lon="13.703355929646277"><ele>805.3333333333333</ele><time>2026-05-03T09:09:54Z</time></trkpt><trkpt lat="42.26436840453141" lon="13.70330729368899"><ele>805.6666666666666</ele><time>2026-05-03T09:09:56Z</time></trkpt><trkpt lat="42.26427069031129" lon="13.70325417796881"><ele>806.0</ele><time>2026-05-03T09:09:58Z</time></trkpt><trkpt lat="42.264190816190364" lon="13.703198002581864"><ele>806.3333333333333</ele><time>2026-05-03T09:10:00Z</time></trkpt><trkpt lat="42.264134033767554" lon="13.703152166942585"><ele>806.6666666666666</ele><time>2026-05-03T09:10:01Z</time></trkpt><trkpt lat="42.2640703861236" lon="13.703088022638052"><ele>807.0</ele><time>2026-05-03T09:10:02Z</time></trkpt><trkpt lat="42.26401251575052" lon="13.703003878185783"><ele>807.0</ele><time>2026-05-03T09:10:03Z</time></trkpt><trkpt lat="42.26396123615416" lon="13.702913771388468"><ele>807.0</ele><time>2026-05-03T09:10:04Z</time></trkpt><trkpt lat="42.26391555014801" lon="13.702798604102194"><ele>807.0</ele><time>2026-05-03T09:10:05Z</time></trkpt><trkpt lat="42.26388185216742" lon="13.702681942742409"><ele>807.0</ele><time>2026-05-03T09:10:06Z</time></trkpt><trkpt lat="42.26384184723708" lon="13.702567188238211"><ele>807.0</ele><time>2026-05-03T09:10:07Z</time></trkpt><trkpt lat="42.263791056416565" lon="13.702444708258136"><ele>806.6</ele><time>2026-05-03T09:10:08Z</time></trkpt><trkpt lat="42.263752099390715" lon="13.702328544741272"><ele>806.2</ele><time>2026-05-03T09:10:09Z</time></trkpt><trkpt lat="42.26370977974189" lon="13.702195526152124"><ele>805.8</ele><time>2026-05-03T09:10:10Z</time></trkpt><trkpt lat="42.26365116579649" lon="13.702047916991939"><ele>805.4</ele><time>2026-05-03T09:10:11Z</time></trkpt><trkpt lat="42.263580289334804" lon="13.70194742106139"><ele>805.0</ele><time>2026-05-03T09:10:12Z</time></trkpt><trkpt lat="42.26349371791399" lon="13.701825648462226"><ele>804.6666666666666</ele><time>2026-05-03T09:10:13Z</time></trkpt><trkpt lat="42.26342895148106" lon="13.701722788098248"><ele>804.3333333333333</ele><time>2026-05-03T09:10:14Z</time></trkpt><trkpt lat="42.263373449056076" lon="13.70165920189374"><ele>804.0</ele><time>2026-05-03T09:10:15Z</time></trkpt><trkpt lat="42.26331309014656" lon="13.701631898605495"><ele>803.6666666666667</ele><time>2026-05-03T09:10:16Z</time></trkpt><trkpt lat="42.26324201108569" lon="13.701638368034995"><ele>803.3333333333334</ele><time>2026-05-03T09:10:17Z</time></trkpt><trkpt lat="42.263159329121635" lon="13.701672973633926"><ele>803.0</ele><time>2026-05-03T09:10:18Z</time></trkpt><trkpt lat="42.26305464133071" lon="13.70169173107652"><ele>804.25</ele><time>2026-05-03T09:10:19Z</time></trkpt><trkpt lat="42.262943406359845" lon="13.701699173866022"><ele>805.5</ele><time>2026-05-03T09:10:20Z</time></trkpt><trkpt lat="42.26284077577415" lon="13.701761426536091"><ele>806.75</ele><time>2026-05-03T09:10:21Z</time></trkpt><trkpt lat="42.26274597406943" lon="13.701857543757788"><ele>808.0</ele><time>2026-05-03T09:10:22Z</time></trkpt><trkpt lat="42.262638750814006" lon="13.701961289281924"><ele>808.0</ele><time>2026-05-03T09:10:23Z</time></trkpt><trkpt lat="42.26251639727509" lon="13.702062031627568"><ele>808.0</ele><time>2026-05-03T09:10:24Z</time></trkpt><trkpt lat="42.26237650002645" lon="13.702164382529878"><ele>808.0</ele><time>2026-05-03T09:10:25Z</time></trkpt><trkpt lat="42.26222466977917" lon="13.70225054936677"><ele>816.3333333333333</ele><time>2026-05-03T09:10:26Z</time></trkpt><trkpt lat="42.262084988525146" lon="13.702360200748616"><ele>824.6666666666667</ele><time>2026-05-03T09:10:27Z</time></trkpt><trkpt lat="42.26195343441641" lon="13.702499055638189"><ele>833.0</ele><time>2026-05-03T09:10:28Z</time></trkpt><trkpt lat="42.26181867488302" lon="13.70262608451497"><ele>832.0</ele><time>2026-05-03T09:10:29Z</time></trkpt><trkpt lat="42.261687863735304" lon="13.7027514086614"><ele>831.0</ele><time>2026-05-03T09:10:30Z</time></trkpt><trkpt lat="42.261569458283475" lon="13.70288447875064"><ele>830.0</ele><time>2026-05-03T09:10:30.999Z</time></trkpt><trkpt lat="42.261434722579224" lon="13.702980827568263"><ele>830.0</ele><time>2026-05-03T09:10:31.999Z</time></trkpt><trkpt lat="42.261308999482864" lon="13.703068194005716"><ele>830.0</ele><time>2026-05-03T09:10:32.999Z</time></trkpt><trkpt lat="42.26116879562121" lon="13.703137367335058"><ele>830.0</ele><time>2026-05-03T09:10:33.999Z</time></trkpt><trkpt lat="42.26102724601182" lon="13.703237534000166"><ele>830.0</ele><time>2026-05-03T09:10:34.999Z</time></trkpt><trkpt lat="42.26088166746257" lon="13.703329922348535"><ele>830.0</ele><time>2026-05-03T09:10:35.999Z</time></trkpt><trkpt lat="42.26075450901448" lon="13.703393408651317"><ele>830.0</ele><time>2026-05-03T09:10:36.999Z</time></trkpt><trkpt lat="42.26061391755158" lon="13.703456396420743"><ele>830.0</ele><time>2026-05-03T09:10:37.999Z</time></trkpt><trkpt lat="42.26046712988282" lon="13.703494060621285"><ele>830.0</ele><time>2026-05-03T09:10:38.999Z</time></trkpt><trkpt lat="42.260306736919624" lon="13.703528967295837"><ele>830.0</ele><time>2026-05-03T09:10:39.999Z</time></trkpt><trkpt lat="42.26016259562393" lon="13.703559527298179"><ele>830.0</ele><time>2026-05-03T09:10:40.999Z</time></trkpt><trkpt lat="42.26007742145664" lon="13.70358291344185"><ele>830.0</ele><time>2026-05-03T09:10:41.999Z</time></trkpt><trkpt lat="42.259968638872316" lon="13.703538491389804"><ele>830.0</ele><time>2026-05-03T09:10:43.999Z</time></trkpt><trkpt lat="42.25992524326883" lon="13.703465409408135"><ele>830.0</ele><time>2026-05-03T09:10:44.999Z</time></trkpt><trkpt lat="42.259901878151226" lon="13.703349329504064"><ele>830.0</ele><time>2026-05-03T09:10:45.999Z</time></trkpt><trkpt lat="42.25989261164522" lon="13.703200194134114"><ele>830.0</ele><time>2026-05-03T09:10:47Z</time></trkpt><trkpt lat="42.25988374622095" lon="13.703022182992939"><ele>830.0</ele><time>2026-05-03T09:10:48Z</time></trkpt><trkpt lat="42.25987009617953" lon="13.70282568546564"><ele>831.75</ele><time>2026-05-03T09:10:49Z</time></trkpt><trkpt lat="42.25986114381294" lon="13.702625288681393"><ele>833.5</ele><time>2026-05-03T09:10:50Z</time></trkpt><trkpt lat="42.25985262057679" lon="13.702447902204689"><ele>835.25</ele><time>2026-05-03T09:10:51Z</time></trkpt><trkpt lat="42.259854164937906" lon="13.702291064968366"><ele>837.0</ele><time>2026-05-03T09:10:52Z</time></trkpt><trkpt lat="42.259874113480265" lon="13.702129969672368"><ele>837.0</ele><time>2026-05-03T09:10:53Z</time></trkpt><trkpt lat="42.2599003503671" lon="13.701972551790883"><ele>837.0</ele><time>2026-05-03T09:10:54Z</time></trkpt><trkpt lat="42.25991568946405" lon="13.701835603268874"><ele>837.0</ele><time>2026-05-03T09:10:55Z</time></trkpt><trkpt lat="42.259917455550934" lon="13.701698853551411"><ele>837.0</ele><time>2026-05-03T09:10:56Z</time></trkpt><trkpt lat="42.2598918063847" lon="13.70156061006026"><ele>837.0</ele><time>2026-05-03T09:10:57Z</time></trkpt><trkpt lat="42.25983951556892" lon="13.701448885003089"><ele>835.5</ele><time>2026-05-03T09:10:58Z</time></trkpt><trkpt lat="42.259765111581856" lon="13.701352718997555"><ele>834.0</ele><time>2026-05-03T09:10:59Z</time></trkpt><trkpt lat="42.25965606464669" lon="13.701293654882795"><ele>832.5</ele><time>2026-05-03T09:11:00Z</time></trkpt><trkpt lat="42.259533985363646" lon="13.701241830831005"><ele>831.0</ele><time>2026-05-03T09:11:01Z</time></trkpt><trkpt lat="42.259407061390746" lon="13.701176234478162"><ele>831.0</ele><time>2026-05-03T09:11:02Z</time></trkpt><trkpt lat="42.25928670512482" lon="13.701088201722936"><ele>831.0</ele><time>2026-05-03T09:11:03Z</time></trkpt><trkpt lat="42.25915647213033" lon="13.70100490637678"><ele>831.0</ele><time>2026-05-03T09:11:04Z</time></trkpt><trkpt lat="42.25903617533967" lon="13.700941258121023"><ele>831.0</ele><time>2026-05-03T09:11:05Z</time></trkpt><trkpt lat="42.258924909802474" lon="13.700898638547713"><ele>836.0</ele><time>2026-05-03T09:11:06Z</time></trkpt><trkpt lat="42.25879591291947" lon="13.70083050978132"><ele>841.0</ele><time>2026-05-03T09:11:07Z</time></trkpt><trkpt lat="42.258663312708386" lon="13.700771266877773"><ele>846.0</ele><time>2026-05-03T09:11:08Z</time></trkpt><trkpt lat="42.258527068642856" lon="13.700710769483107"><ele>851.0</ele><time>2026-05-03T09:11:09Z</time></trkpt><trkpt lat="42.25838135676963" lon="13.70064715298493"><ele>851.0</ele><time>2026-05-03T09:11:10Z</time></trkpt><trkpt lat="42.25822624616329" lon="13.700588308372797"><ele>851.0</ele><time>2026-05-03T09:11:11Z</time></trkpt><trkpt lat="42.25807644953736" lon="13.70055522166359"><ele>851.0</ele><time>2026-05-03T09:11:12Z</time></trkpt><trkpt lat="42.25791813725118" lon="13.700538149961265"><ele>853.0</ele><time>2026-05-03T09:11:13Z</time></trkpt><trkpt lat="42.257767019777695" lon="13.700547030247167"><ele>855.0</ele><time>2026-05-03T09:11:14Z</time></trkpt><trkpt lat="42.25764363006426" lon="13.700576766060937"><ele>857.0</ele><time>2026-05-03T09:11:15Z</time></trkpt><trkpt lat="42.25754422177798" lon="13.700645362674988"><ele>859.0</ele><time>2026-05-03T09:11:16Z</time></trkpt><trkpt lat="42.2574667564966" lon="13.700714549044582"><ele>858.9999999999999</ele><time>2026-05-03T09:11:17Z</time></trkpt><trkpt lat="42.25739097204986" lon="13.700752980340903"><ele>859.0</ele><time>2026-05-03T09:11:18Z</time></trkpt><trkpt lat="42.25732658974139" lon="13.700784081402302"><ele>859.0</ele><time>2026-05-03T09:11:19Z</time></trkpt><trkpt lat="42.257236604203186" lon="13.700827211486986"><ele>859.0</ele><time>2026-05-03T09:11:21Z</time></trkpt><trkpt lat="42.2571526074901" lon="13.700822359568251"><ele>858.9999999999999</ele><time>2026-05-03T09:11:23Z</time></trkpt><trkpt lat="42.257138630095056" lon="13.700661088919714"><ele>859.0</ele><time>2026-05-03T09:11:25Z</time></trkpt><trkpt lat="42.25713897955465" lon="13.700549121865121"><ele>858.0</ele><time>2026-05-03T09:11:26Z</time></trkpt><trkpt lat="42.257112982762955" lon="13.70042281547981"><ele>857.0000000000001</ele><time>2026-05-03T09:11:27Z</time></trkpt><trkpt lat="42.2570717539957" lon="13.70029953576106"><ele>856.0000000000001</ele><time>2026-05-03T09:11:28Z</time></trkpt><trkpt lat="42.25704201586742" lon="13.70020222439351"><ele>855.0</ele><time>2026-05-03T09:11:29Z</time></trkpt><trkpt lat="42.256938163971" lon="13.700129154156631"><ele>854.0</ele><time>2026-05-03T09:11:31Z</time></trkpt><trkpt lat="42.25684611851534" lon="13.700172629569535"><ele>853.5</ele><time>2026-05-03T09:11:32Z</time></trkpt><trkpt lat="42.25672900111038" lon="13.70025482644198"><ele>853.0</ele><time>2026-05-03T09:11:33Z</time></trkpt><trkpt lat="42.25659680358346" lon="13.700325094030498"><ele>852.5</ele><time>2026-05-03T09:11:34Z</time></trkpt><trkpt lat="42.2564626276107" lon="13.700374654750714"><ele>852.0</ele><time>2026-05-03T09:11:35Z</time></trkpt><trkpt lat="42.25631949487992" lon="13.700448807032874"><ele>852.0</ele><time>2026-05-03T09:11:36Z</time></trkpt><trkpt lat="42.25616136561981" lon="13.700567552866358"><ele>852.0</ele><time>2026-05-03T09:11:37Z</time></trkpt><trkpt lat="42.25600511145148" lon="13.700685339763215"><ele>852.0</ele><time>2026-05-03T09:11:38Z</time></trkpt><trkpt lat="42.25585800881999" lon="13.700789919663421"><ele>852.0</ele><time>2026-05-03T09:11:39Z</time></trkpt><trkpt lat="42.25572334811458" lon="13.700888106864483"><ele>852.0</ele><time>2026-05-03T09:11:40Z</time></trkpt><trkpt lat="42.25559151747709" lon="13.700979985376447"><ele>852.0</ele><time>2026-05-03T09:11:41Z</time></trkpt><trkpt lat="42.25546237856183" lon="13.701069321429143"><ele>852.0</ele><time>2026-05-03T09:11:42Z</time></trkpt><trkpt lat="42.25532991434511" lon="13.701151889801977"><ele>855.0</ele><time>2026-05-03T09:11:43Z</time></trkpt><trkpt lat="42.25518995912039" lon="13.70121108390715"><ele>858.0</ele><time>2026-05-03T09:11:44Z</time></trkpt><trkpt lat="42.255035472007734" lon="13.70125280589451"><ele>861.0</ele><time>2026-05-03T09:11:45Z</time></trkpt><trkpt lat="42.254868181393746" lon="13.701289831802354"><ele>857.3333333333333</ele><time>2026-05-03T09:11:46Z</time></trkpt><trkpt lat="42.25470946246536" lon="13.7013143522588"><ele>853.6666666666666</ele><time>2026-05-03T09:11:47Z</time></trkpt><trkpt lat="42.25455708621404" lon="13.701324232859992"><ele>850.0</ele><time>2026-05-03T09:11:48Z</time></trkpt><trkpt lat="42.25441613719203" lon="13.701327732052578"><ele>850.0</ele><time>2026-05-03T09:11:49Z</time></trkpt><trkpt lat="42.25427832551788" lon="13.701311503465059"><ele>850.0</ele><time>2026-05-03T09:11:50Z</time></trkpt><trkpt lat="42.25414390970058" lon="13.701302596829407"><ele>850.0</ele><time>2026-05-03T09:11:51Z</time></trkpt><trkpt lat="42.25402018388956" lon="13.701303827309752"><ele>850.0</ele><time>2026-05-03T09:11:52Z</time></trkpt><trkpt lat="42.25391179094621" lon="13.701301822247325"><ele>845.0</ele><time>2026-05-03T09:11:53Z</time></trkpt><trkpt lat="42.25381405512616" lon="13.701314389401311"><ele>840.0</ele><time>2026-05-03T09:11:54Z</time></trkpt><trkpt lat="42.253713686232715" lon="13.701373859865422"><ele>835.0</ele><time>2026-05-03T09:11:55Z</time></trkpt><trkpt lat="42.25359556680068" lon="13.701449014172386"><ele>830.0</ele><time>2026-05-03T09:11:56Z</time></trkpt><trkpt lat="42.25347569373763" lon="13.701499468633118"><ele>830.0</ele><time>2026-05-03T09:11:57Z</time></trkpt><trkpt lat="42.25336374343087" lon="13.701558182877491"><ele>830.0</ele><time>2026-05-03T09:11:58Z</time></trkpt><trkpt lat="42.25325842159861" lon="13.701660769500235"><ele>830.0</ele><time>2026-05-03T09:11:59Z</time></trkpt><trkpt lat="42.25313802050244" lon="13.70180068754347"><ele>830.0</ele><time>2026-05-03T09:12:00Z</time></trkpt><trkpt lat="42.25299939630157" lon="13.701927860732525"><ele>827.6666666666667</ele><time>2026-05-03T09:12:01Z</time></trkpt><trkpt lat="42.252853623112806" lon="13.702055339815413"><ele>825.3333333333333</ele><time>2026-05-03T09:12:02Z</time></trkpt><trkpt lat="42.252715011851485" lon="13.702184485425963"><ele>823.0</ele><time>2026-05-03T09:12:03Z</time></trkpt><trkpt lat="42.25258214301024" lon="13.70230791121278"><ele>823.0</ele><time>2026-05-03T09:12:04Z</time></trkpt><trkpt lat="42.25245117251594" lon="13.702430031445585"><ele>823.0</ele><time>2026-05-03T09:12:05Z</time></trkpt><trkpt lat="42.25232743140521" lon="13.702553955341276"><ele>823.0</ele><time>2026-05-03T09:12:06Z</time></trkpt><trkpt lat="42.252207948253286" lon="13.702670831961845"><ele>822.5</ele><time>2026-05-03T09:12:07Z</time></trkpt><trkpt lat="42.25208562168762" lon="13.702777140796277"><ele>822.0</ele><time>2026-05-03T09:12:08Z</time></trkpt><trkpt lat="42.25196030049323" lon="13.70287429948549"><ele>821.5</ele><time>2026-05-03T09:12:09Z</time></trkpt><trkpt lat="42.2518319492614" lon="13.702943357120768"><ele>821.0</ele><time>2026-05-03T09:12:10Z</time></trkpt><trkpt lat="42.25170019669519" lon="13.702978272206815"><ele>821.0</ele><time>2026-05-03T09:12:11Z</time></trkpt><trkpt lat="42.25156731568443" lon="13.702997119404815"><ele>821.0</ele><time>2026-05-03T09:12:12Z</time></trkpt><trkpt lat="42.251447950400774" lon="13.70301670152081"><ele>821.0</ele><time>2026-05-03T09:12:12.999Z</time></trkpt><trkpt lat="42.251339299398396" lon="13.703029182506148"><ele>821.0</ele><time>2026-05-03T09:12:13.999Z</time></trkpt><trkpt lat="42.251240630031766" lon="13.703031191395324"><ele>819.0</ele><time>2026-05-03T09:12:14.999Z</time></trkpt><trkpt lat="42.25114353181204" lon="13.703031185734593"><ele>817.0</ele><time>2026-05-03T09:12:15.999Z</time></trkpt><trkpt lat="42.251046271831186" lon="13.703056311263966"><ele>815.0</ele><time>2026-05-03T09:12:16.999Z</time></trkpt><trkpt lat="42.25093772140107" lon="13.703114633256787"><ele>813.0</ele><time>2026-05-03T09:12:17.999Z</time></trkpt><trkpt lat="42.25081820892569" lon="13.703206092306099"><ele>813.0</ele><time>2026-05-03T09:12:18.999Z</time></trkpt><trkpt lat="42.25069077672083" lon="13.703308331054345"><ele>813.0</ele><time>2026-05-03T09:12:19.999Z</time></trkpt><trkpt lat="42.250567974386676" lon="13.703418231490755"><ele>813.0</ele><time>2026-05-03T09:12:20.999Z</time></trkpt><trkpt lat="42.250448204517554" lon="13.703524221005793"><ele>813.0</ele><time>2026-05-03T09:12:21.999Z</time></trkpt><trkpt lat="42.25035014878203" lon="13.703634180411573"><ele>811.75</ele><time>2026-05-03T09:12:22.999Z</time></trkpt><trkpt lat="42.250255433411034" lon="13.70377394747792"><ele>810.5</ele><time>2026-05-03T09:12:23.999Z</time></trkpt><trkpt lat="42.25015188747861" lon="13.70392856897982"><ele>809.25</ele><time>2026-05-03T09:12:24.999Z</time></trkpt><trkpt lat="42.25003378091757" lon="13.70404644920673"><ele>808.0</ele><time>2026-05-03T09:12:25.999Z</time></trkpt><trkpt lat="42.249910035322" lon="13.704124279221215"><ele>807.75</ele><time>2026-05-03T09:12:26.999Z</time></trkpt><trkpt lat="42.2497892712374" lon="13.704194098987296"><ele>807.5</ele><time>2026-05-03T09:12:27.999Z</time></trkpt><trkpt lat="42.24968927274278" lon="13.70427163845126"><ele>807.25</ele><time>2026-05-03T09:12:28.999Z</time></trkpt><trkpt lat="42.24960219118408" lon="13.704361219947955"><ele>807.0</ele><time>2026-05-03T09:12:29.999Z</time></trkpt><trkpt lat="42.24953298900458" lon="13.704459262874328"><ele>807.0</ele><time>2026-05-03T09:12:30.999Z</time></trkpt><trkpt lat="42.24948108007456" lon="13.704556438542234"><ele>807.0</ele><time>2026-05-03T09:12:31.999Z</time></trkpt><trkpt lat="42.24943414303765" lon="13.704645115960577"><ele>807.0</ele><time>2026-05-03T09:12:32.999Z</time></trkpt><trkpt lat="42.24939367481033" lon="13.704726491437244"><ele>807.0</ele><time>2026-05-03T09:12:33.999Z</time></trkpt><trkpt lat="42.24932631587043" lon="13.70481151746458"><ele>807.0</ele><time>2026-05-03T09:12:35.999Z</time></trkpt><trkpt lat="42.24940425275814" lon="13.704780395793088"><ele>807.0</ele><time>2026-05-03T09:12:41.999Z</time></trkpt><trkpt lat="42.249418987093804" lon="13.70468653772664"><ele>807.0</ele><time>2026-05-03T09:12:42.999Z</time></trkpt><trkpt lat="42.249457878970354" lon="13.704576864669676"><ele>807.0</ele><time>2026-05-03T09:12:43.999Z</time></trkpt><trkpt lat="42.24951140447151" lon="13.704489835487612"><ele>807.0</ele><time>2026-05-03T09:12:44.999Z</time></trkpt><trkpt lat="42.24957352959423" lon="13.704396405190568"><ele>807.0</ele><time>2026-05-03T09:12:45.999Z</time></trkpt><trkpt lat="42.24963609353874" lon="13.704313608501211"><ele>807.0</ele><time>2026-05-03T09:12:46.999Z</time></trkpt><trkpt lat="42.24969426810182" lon="13.70425484845734"><ele>807.0</ele><time>2026-05-03T09:12:47.999Z</time></trkpt><trkpt lat="42.24975265393094" lon="13.704209519077727"><ele>807.1666666666666</ele><time>2026-05-03T09:12:48.999Z</time></trkpt><trkpt lat="42.249820514350176" lon="13.70415584357524"><ele>807.3333333333333</ele><time>2026-05-03T09:12:49.999Z</time></trkpt><trkpt lat="42.24991479194752" lon="13.70410554333933"><ele>807.5</ele><time>2026-05-03T09:12:52Z</time></trkpt><trkpt lat="42.2499710532072" lon="13.704163240088418"><ele>807.6666666666666</ele><time>2026-05-03T09:12:54Z</time></trkpt><trkpt lat="42.25000105508458" lon="13.704245338704787"><ele>807.8333333333333</ele><time>2026-05-03T09:12:56Z</time></trkpt><trkpt lat="42.2499776519392" lon="13.704340592457752"><ele>808.0</ele><time>2026-05-03T09:12:58Z</time></trkpt><trkpt lat="42.249946538702275" lon="13.704418270519097"><ele>807.8</ele><time>2026-05-03T09:13:00Z</time></trkpt><trkpt lat="42.24988410838127" lon="13.704580901626894"><ele>807.5999999999999</ele><time>2026-05-03T09:13:02Z</time></trkpt><trkpt lat="42.24984941139235" lon="13.704679803290537"><ele>807.4000000000001</ele><time>2026-05-03T09:13:03Z</time></trkpt><trkpt lat="42.24982496444587" lon="13.704776216127323"><ele>807.2</ele><time>2026-05-03T09:13:04Z</time></trkpt><trkpt lat="42.24979917336286" lon="13.704888588490169"><ele>807.0</ele><time>2026-05-03T09:13:05Z</time></trkpt><trkpt lat="42.24977226844035" lon="13.705006190206815"><ele>807.0</ele><time>2026-05-03T09:13:06Z</time></trkpt><trkpt lat="42.249732588680004" lon="13.705146039887344"><ele>807.0</ele><time>2026-05-03T09:13:07Z</time></trkpt><trkpt lat="42.2496807887357" lon="13.705245206186481"><ele>807.0</ele><time>2026-05-03T09:13:08Z</time></trkpt><trkpt lat="42.24960100611642" lon="13.705343172682024"><ele>807.0</ele><time>2026-05-03T09:13:09Z</time></trkpt><trkpt lat="42.24951176731145" lon="13.705439576460561"><ele>807.0</ele><time>2026-05-03T09:13:10Z</time></trkpt><trkpt lat="42.249416929594965" lon="13.70552677101584"><ele>810.2</ele><time>2026-05-03T09:13:11Z</time></trkpt><trkpt lat="42.24931958296886" lon="13.705613433577279"><ele>813.4000000000001</ele><time>2026-05-03T09:13:12Z</time></trkpt><trkpt lat="42.24922784331207" lon="13.705681035895125"><ele>816.5999999999999</ele><time>2026-05-03T09:13:13Z</time></trkpt><trkpt lat="42.24914181534235" lon="13.705721130833814"><ele>819.8</ele><time>2026-05-03T09:13:14Z</time></trkpt><trkpt lat="42.249073519132466" lon="13.7057668977446"><ele>823.0</ele><time>2026-05-03T09:13:15Z</time></trkpt><trkpt lat="42.2490079526219" lon="13.70583194124694"><ele>822.0</ele><time>2026-05-03T09:13:16Z</time></trkpt><trkpt lat="42.248918406990924" lon="13.705913778040522"><ele>821.0</ele><time>2026-05-03T09:13:17Z</time></trkpt><trkpt lat="42.24882357795058" lon="13.706012847396446"><ele>820.0</ele><time>2026-05-03T09:13:18Z</time></trkpt><trkpt lat="42.24872401735818" lon="13.706109159467115"><ele>819.0</ele><time>2026-05-03T09:13:19Z</time></trkpt><trkpt lat="42.248627988136434" lon="13.70620190850661"><ele>821.6</ele><time>2026-05-03T09:13:20Z</time></trkpt><trkpt lat="42.24855313172116" lon="13.706270866200859"><ele>824.2</ele><time>2026-05-03T09:13:21Z</time></trkpt><trkpt lat="42.24848260873712" lon="13.706323278268277"><ele>826.8000000000001</ele><time>2026-05-03T09:13:23Z</time></trkpt><trkpt lat="42.24838334177202" lon="13.706425381558397"><ele>829.4000000000001</ele><time>2026-05-03T09:13:25Z</time></trkpt><trkpt lat="42.24833579814695" lon="13.706506087882063"><ele>832.0</ele><time>2026-05-03T09:13:26Z</time></trkpt><trkpt lat="42.248332248631996" lon="13.706664806820992"><ele>831.9999999999999</ele><time>2026-05-03T09:13:28Z</time></trkpt><trkpt lat="42.2482754126211" lon="13.70673447715957"><ele>832.0</ele><time>2026-05-03T09:13:29Z</time></trkpt><trkpt lat="42.24825691220005" lon="13.706845139391998"><ele>832.0</ele><time>2026-05-03T09:13:30Z</time></trkpt><trkpt lat="42.24825914749455" lon="13.706937373347026"><ele>832.0</ele><time>2026-05-03T09:13:31Z</time></trkpt><trkpt lat="42.24829548894451" lon="13.70707183380879"><ele>831.9999999999999</ele><time>2026-05-03T09:13:33Z</time></trkpt><trkpt lat="42.248315677337246" lon="13.707192536719909"><ele>832.0</ele><time>2026-05-03T09:13:35Z</time></trkpt><trkpt lat="42.24830404635464" lon="13.707326793967436"><ele>832.0</ele><time>2026-05-03T09:13:37Z</time></trkpt><trkpt lat="42.24827783066854" lon="13.707483775239558"><ele>832.0</ele><time>2026-05-03T09:13:39Z</time></trkpt><trkpt lat="42.248252707311494" lon="13.707666540594612"><ele>832.0</ele><time>2026-05-03T09:13:41Z</time></trkpt><trkpt lat="42.248230133634884" lon="13.707746249897285"><ele>832.0</ele><time>2026-05-03T09:13:42Z</time></trkpt><trkpt lat="42.248187657606294" lon="13.70783400026856"><ele>832.0</ele><time>2026-05-03T09:13:44Z</time></trkpt><trkpt lat="42.24818335607632" lon="13.707926966779269"><ele>829.2</ele><time>2026-05-03T09:13:48Z</time></trkpt><trkpt lat="42.24812143179348" lon="13.708011690340886"><ele>826.4000000000001</ele><time>2026-05-03T09:13:58.999Z</time></trkpt><trkpt lat="42.24808333889898" lon="13.708152065777732"><ele>823.5999999999999</ele><time>2026-05-03T09:14:00.999Z</time></trkpt><trkpt lat="42.24803904709549" lon="13.708215780223908"><ele>820.8</ele><time>2026-05-03T09:14:01.999Z</time></trkpt><trkpt lat="42.247988831681226" lon="13.708270434917045"><ele>818.0</ele><time>2026-05-03T09:14:02.999Z</time></trkpt><trkpt lat="42.24787116058223" lon="13.70835015271652"><ele>818.0000000000001</ele><time>2026-05-03T09:14:04.999Z</time></trkpt><trkpt lat="42.24775812261727" lon="13.708430235817756"><ele>818.0</ele><time>2026-05-03T09:14:06.999Z</time></trkpt><trkpt lat="42.24770173580871" lon="13.708478302040056"><ele>818.0</ele><time>2026-05-03T09:14:07.999Z</time></trkpt><trkpt lat="42.2476393995783" lon="13.708533975390717"><ele>818.0</ele><time>2026-05-03T09:14:08.999Z</time></trkpt><trkpt lat="42.24755315356682" lon="13.708613480041363"><ele>818.0000000000001</ele><time>2026-05-03T09:14:10.999Z</time></trkpt><trkpt lat="42.24749079625366" lon="13.70865620772143"><ele>818.0</ele><time>2026-05-03T09:14:12.999Z</time></trkpt><trkpt lat="42.24741442110174" lon="13.708626683566612"><ele>815.5999999999999</ele><time>2026-05-03T09:14:14.999Z</time></trkpt><trkpt lat="42.24734911049048" lon="13.708586659189962"><ele>813.1999999999999</ele><time>2026-05-03T09:14:16.999Z</time></trkpt><trkpt lat="42.2472922370961" lon="13.70848953613969"><ele>810.8</ele><time>2026-05-03T09:14:18.999Z</time></trkpt><trkpt lat="42.24723265695358" lon="13.708342803938343"><ele>808.4</ele><time>2026-05-03T09:14:20.999Z</time></trkpt><trkpt lat="42.247206029149716" lon="13.70818857795577"><ele>806.0</ele><time>2026-05-03T09:14:22.999Z</time></trkpt><trkpt lat="42.247203564364824" lon="13.708096459894634"><ele>806.0</ele><time>2026-05-03T09:14:23.999Z</time></trkpt><trkpt lat="42.247199321007265" lon="13.70800995185378"><ele>806.0</ele><time>2026-05-03T09:14:24.999Z</time></trkpt><trkpt lat="42.24719012201385" lon="13.707921479491883"><ele>806.0</ele><time>2026-05-03T09:14:25.999Z</time></trkpt><trkpt lat="42.247187352378674" lon="13.707829878937021"><ele>806.0</ele><time>2026-05-03T09:14:26.999Z</time></trkpt><trkpt lat="42.24718248438279" lon="13.70773600313033"><ele>806.0</ele><time>2026-05-03T09:14:27.999Z</time></trkpt><trkpt lat="42.24717952282007" lon="13.707641080828216"><ele>806.0</ele><time>2026-05-03T09:14:28.999Z</time></trkpt><trkpt lat="42.24717805308521" lon="13.707552948196948"><ele>806.0</ele><time>2026-05-03T09:14:29.999Z</time></trkpt><trkpt lat="42.247177067160145" lon="13.707467326746816"><ele>806.0</ele><time>2026-05-03T09:14:30.999Z</time></trkpt><trkpt lat="42.247177889003204" lon="13.707378014594589"><ele>806.0</ele><time>2026-05-03T09:14:31.999Z</time></trkpt><trkpt lat="42.24716544829124" lon="13.70728697064681"><ele>806.0</ele><time>2026-05-03T09:14:32.999Z</time></trkpt><trkpt lat="42.24711713013235" lon="13.707158100326986"><ele>806.0</ele><time>2026-05-03T09:14:34.999Z</time></trkpt><trkpt lat="42.24702559951997" lon="13.707156927285753"><ele>806.0</ele><time>2026-05-03T09:14:36.999Z</time></trkpt><trkpt lat="42.24689651885602" lon="13.707169564280424"><ele>806.0000000000001</ele><time>2026-05-03T09:14:38.999Z</time></trkpt><trkpt lat="42.24681997113907" lon="13.707169229541483"><ele>806.0</ele><time>2026-05-03T09:14:39.999Z</time></trkpt><trkpt lat="42.246753610026836" lon="13.707167454961942"><ele>806.0</ele><time>2026-05-03T09:14:40.999Z</time></trkpt><trkpt lat="42.24669785928016" lon="13.707120390602638"><ele>806.0</ele><time>2026-05-03T09:14:42.999Z</time></trkpt><trkpt lat="42.246678851052984" lon="13.707024807313646"><ele>806.0000000000001</ele><time>2026-05-03T09:14:44.999Z</time></trkpt><trkpt lat="42.24669356104268" lon="13.706866094754265"><ele>806.0</ele><time>2026-05-03T09:14:46.999Z</time></trkpt><trkpt lat="42.246703811487855" lon="13.706768945377389"><ele>806.0000000000001</ele><time>2026-05-03T09:14:47.999Z</time></trkpt><trkpt lat="42.246654201824164" lon="13.706683973743472"><ele>806.0</ele><time>2026-05-03T09:14:49.999Z</time></trkpt><trkpt lat="42.246564346143856" lon="13.706655683767982"><ele>806.0</ele><time>2026-05-03T09:14:51.999Z</time></trkpt><trkpt lat="42.24650528894229" lon="13.706740563122548"><ele>806.0</ele><time>2026-05-03T09:14:54.999Z</time></trkpt><trkpt lat="42.24647172252828" lon="13.706872510717112"><ele>806.0000000000001</ele><time>2026-05-03T09:15:09Z</time></trkpt><trkpt lat="42.2464634917967" lon="13.706960966226191"><ele>806.0</ele><time>2026-05-03T09:15:11Z</time></trkpt><trkpt lat="42.24647924394251" lon="13.707049730010299"><ele>804.0</ele><time>2026-05-03T09:15:25.999Z</time></trkpt><trkpt lat="42.24641425980589" lon="13.707078171046025"><ele>802.0</ele><time>2026-05-03T09:15:34.999Z</time></trkpt><trkpt lat="42.246343674714396" lon="13.707047148414864"><ele>800.0</ele><time>2026-05-03T09:15:35.999Z</time></trkpt><trkpt lat="42.24628043148394" lon="13.706984050484635"><ele>798.0</ele><time>2026-05-03T09:15:36.999Z</time></trkpt><trkpt lat="42.24623973603053" lon="13.70682854720484"><ele>796.0</ele><time>2026-05-03T09:15:38.999Z</time></trkpt><trkpt lat="42.24615598924238" lon="13.707017010948228"><ele>795.4</ele><time>2026-05-03T09:15:39.999Z</time></trkpt><trkpt lat="42.24609258914219" lon="13.707036777850918"><ele>794.8</ele><time>2026-05-03T09:15:42.999Z</time></trkpt><trkpt lat="42.24610493583379" lon="13.707147144093312"><ele>794.1999999999999</ele><time>2026-05-03T09:15:44.999Z</time></trkpt><trkpt lat="42.24611828153528" lon="13.7072410819011"><ele>793.5999999999999</ele><time>2026-05-03T09:15:45.999Z</time></trkpt><trkpt lat="42.24613354341468" lon="13.707369355758004"><ele>793.0</ele><time>2026-05-03T09:15:47.999Z</time></trkpt><trkpt lat="42.24612745818105" lon="13.70755294551618"><ele>792.9999999999999</ele><time>2026-05-03T09:15:49.999Z</time></trkpt><trkpt lat="42.24613077844366" lon="13.707677704093978"><ele>793.0</ele><time>2026-05-03T09:15:50.999Z</time></trkpt><trkpt lat="42.24612354873935" lon="13.707802538311643"><ele>793.0</ele><time>2026-05-03T09:15:51.999Z</time></trkpt><trkpt lat="42.24611169406514" lon="13.70791737049846"><ele>793.0</ele><time>2026-05-03T09:15:52.999Z</time></trkpt><trkpt lat="42.246105797604244" lon="13.708026880973607"><ele>792.9999999999999</ele><time>2026-05-03T09:15:53.999Z</time></trkpt><trkpt lat="42.246102015622654" lon="13.708136673329458"><ele>793.0</ele><time>2026-05-03T09:15:54.999Z</time></trkpt><trkpt lat="42.24609510323234" lon="13.708261141430762"><ele>792.4</ele><time>2026-05-03T09:15:55.999Z</time></trkpt><trkpt lat="42.246073059519354" lon="13.708397434064798"><ele>791.8</ele><time>2026-05-03T09:15:56.999Z</time></trkpt><trkpt lat="42.24605812161442" lon="13.708524100885793"><ele>791.2</ele><time>2026-05-03T09:15:57.999Z</time></trkpt><trkpt lat="42.24604384890627" lon="13.70864189535968"><ele>790.6</ele><time>2026-05-03T09:15:58.999Z</time></trkpt><trkpt lat="42.24603462751351" lon="13.708763963702042"><ele>790.0</ele><time>2026-05-03T09:15:59.999Z</time></trkpt><trkpt lat="42.24602709374395" lon="13.708881028253534"><ele>789.0</ele><time>2026-05-03T09:16:00.999Z</time></trkpt><trkpt lat="42.246021422289736" lon="13.708994054006814"><ele>788.0</ele><time>2026-05-03T09:16:01.999Z</time></trkpt><trkpt lat="42.24601518866632" lon="13.709108934442318"><ele>787.0</ele><time>2026-05-03T09:16:02.999Z</time></trkpt><trkpt lat="42.24585227422018" lon="13.709280533883053"><ele>786.0</ele><time>2026-05-03T09:16:03.999Z</time></trkpt><trkpt lat="42.245872870123655" lon="13.709402533806223"><ele>785.75</ele><time>2026-05-03T09:16:04.999Z</time></trkpt><trkpt lat="42.24591131452221" lon="13.709539543875833"><ele>785.5</ele><time>2026-05-03T09:16:05.999Z</time></trkpt><trkpt lat="42.24609872871554" lon="13.709557786630095"><ele>785.25</ele><time>2026-05-03T09:16:06.999Z</time></trkpt><trkpt lat="42.246159445317126" lon="13.709669222110842"><ele>785.0</ele><time>2026-05-03T09:16:07.999Z</time></trkpt><trkpt lat="42.24624588293717" lon="13.709790172872895"><ele>785.0</ele><time>2026-05-03T09:16:08.999Z</time></trkpt><trkpt lat="42.24632617982942" lon="13.709882989782017"><ele>785.0</ele><time>2026-05-03T09:16:09.999Z</time></trkpt><trkpt lat="42.24640183364537" lon="13.70998575724501"><ele>785.0</ele><time>2026-05-03T09:16:10.999Z</time></trkpt><trkpt lat="42.246500348996484" lon="13.710047314498818"><ele>785.0</ele><time>2026-05-03T09:16:11.999Z</time></trkpt><trkpt lat="42.24660087545676" lon="13.710104098824253"><ele>785.0</ele><time>2026-05-03T09:16:12.999Z</time></trkpt><trkpt lat="42.246721657176515" lon="13.710138130500335"><ele>786.0</ele><time>2026-05-03T09:16:13.999Z</time></trkpt><trkpt lat="42.24686098304414" lon="13.71014557989611"><ele>787.0</ele><time>2026-05-03T09:16:14.999Z</time></trkpt><trkpt lat="42.2470199087997" lon="13.71010361126866"><ele>788.0</ele><time>2026-05-03T09:16:15.999Z</time></trkpt><trkpt lat="42.24719036925834" lon="13.710038741656643"><ele>786.3333333333334</ele><time>2026-05-03T09:16:16.999Z</time></trkpt><trkpt lat="42.2473606476064" lon="13.709971843392742"><ele>784.6666666666667</ele><time>2026-05-03T09:16:17.999Z</time></trkpt><trkpt lat="42.24752393706777" lon="13.709937591945907"><ele>783.0</ele><time>2026-05-03T09:16:18.999Z</time></trkpt><trkpt lat="42.24767678179343" lon="13.709901771575945"><ele>783.0</ele><time>2026-05-03T09:16:19.999Z</time></trkpt><trkpt lat="42.24781177828674" lon="13.709888716945208"><ele>783.0</ele><time>2026-05-03T09:16:20.999Z</time></trkpt><trkpt lat="42.24792689954901" lon="13.709915120472994"><ele>783.0</ele><time>2026-05-03T09:16:21.999Z</time></trkpt><trkpt lat="42.248029222574225" lon="13.709980298400716"><ele>783.0</ele><time>2026-05-03T09:16:22.999Z</time></trkpt><trkpt lat="42.24811328692413" lon="13.71007998359731"><ele>783.75</ele><time>2026-05-03T09:16:23.999Z</time></trkpt><trkpt lat="42.24815450419734" lon="13.71021748910324"><ele>784.5</ele><time>2026-05-03T09:16:24.999Z</time></trkpt><trkpt lat="42.24816267798147" lon="13.71037398514434"><ele>785.25</ele><time>2026-05-03T09:16:25.999Z</time></trkpt><trkpt lat="42.24812615486297" lon="13.71053048207519"><ele>786.0</ele><time>2026-05-03T09:16:26.999Z</time></trkpt><trkpt lat="42.24807530872613" lon="13.71070824077959"><ele>779.6666666666666</ele><time>2026-05-03T09:16:27.999Z</time></trkpt><trkpt lat="42.24801034023483" lon="13.710911620399521"><ele>773.3333333333333</ele><time>2026-05-03T09:16:28.999Z</time></trkpt><trkpt lat="42.2479482404194" lon="13.711137090276285"><ele>767.0</ele><time>2026-05-03T09:16:29.999Z</time></trkpt><trkpt lat="42.247888194535435" lon="13.711347477974495"><ele>767.0</ele><time>2026-05-03T09:16:30.999Z</time></trkpt><trkpt lat="42.24782613760526" lon="13.711539817558334"><ele>767.0</ele><time>2026-05-03T09:16:31.999Z</time></trkpt><trkpt lat="42.24777416856734" lon="13.711730570018993"><ele>767.0</ele><time>2026-05-03T09:16:32.999Z</time></trkpt><trkpt lat="42.24772266270609" lon="13.711917890469582"><ele>767.0</ele><time>2026-05-03T09:16:33.999Z</time></trkpt><trkpt lat="42.247672525002145" lon="13.712102548014073"><ele>767.0</ele><time>2026-05-03T09:16:34.999Z</time></trkpt><trkpt lat="42.24762222455965" lon="13.712312701461949"><ele>767.0</ele><time>2026-05-03T09:16:35.999Z</time></trkpt><trkpt lat="42.247577944172846" lon="13.712539498644707"><ele>767.3333333333333</ele><time>2026-05-03T09:16:36.999Z</time></trkpt><trkpt lat="42.24754234293422" lon="13.712791347177415"><ele>767.6666666666666</ele><time>2026-05-03T09:16:37.999Z</time></trkpt><trkpt lat="42.24751030411144" lon="13.713046379659934"><ele>768.0</ele><time>2026-05-03T09:16:38.999Z</time></trkpt><trkpt lat="42.24748466529198" lon="13.71329285953928"><ele>768.0</ele><time>2026-05-03T09:16:39.999Z</time></trkpt><trkpt lat="42.2474583680647" lon="13.713539305475859"><ele>768.0</ele><time>2026-05-03T09:16:40.999Z</time></trkpt><trkpt lat="42.24743652033942" lon="13.713819095032637"><ele>768.0</ele><time>2026-05-03T09:16:41.999Z</time></trkpt><trkpt lat="42.24742656236706" lon="13.714106740225217"><ele>767.3333333333334</ele><time>2026-05-03T09:16:42.999Z</time></trkpt><trkpt lat="42.247435471351395" lon="13.714371707058186"><ele>766.6666666666667</ele><time>2026-05-03T09:16:43.999Z</time></trkpt><trkpt lat="42.24745159502511" lon="13.714609233499205"><ele>766.0</ele><time>2026-05-03T09:16:44.999Z</time></trkpt><trkpt lat="42.24746647506665" lon="13.714812233411148"><ele>764.0</ele><time>2026-05-03T09:16:45.999Z</time></trkpt><trkpt lat="42.2474761722934" lon="13.715003261910946"><ele>762.0</ele><time>2026-05-03T09:16:46.999Z</time></trkpt><trkpt lat="42.247488759315274" lon="13.71519591174872"><ele>760.0</ele><time>2026-05-03T09:16:47.999Z</time></trkpt><trkpt lat="42.24750292407985" lon="13.715390613477194"><ele>758.0</ele><time>2026-05-03T09:16:48.999Z</time></trkpt><trkpt lat="42.24751902831961" lon="13.715585026414088"><ele>755.3333333333333</ele><time>2026-05-03T09:16:49.999Z</time></trkpt><trkpt lat="42.24754158659569" lon="13.715792777174302"><ele>752.6666666666666</ele><time>2026-05-03T09:16:50.999Z</time></trkpt><trkpt lat="42.24757570723099" lon="13.716005430735935"><ele>750.0</ele><time>2026-05-03T09:16:51.999Z</time></trkpt><trkpt lat="42.24762370722656" lon="13.716200442565688"><ele>747.75</ele><time>2026-05-03T09:16:52.999Z</time></trkpt><trkpt lat="42.247676827907135" lon="13.716392082565221"><ele>745.5</ele><time>2026-05-03T09:16:53.999Z</time></trkpt><trkpt lat="42.247724491324625" lon="13.716582736932692"><ele>743.25</ele><time>2026-05-03T09:16:54.999Z</time></trkpt><trkpt lat="42.24775477396191" lon="13.716763170412179"><ele>741.0</ele><time>2026-05-03T09:16:55.999Z</time></trkpt><trkpt lat="42.24777457600126" lon="13.71693820711581"><ele>741.0</ele><time>2026-05-03T09:16:56.999Z</time></trkpt><trkpt lat="42.247782525779634" lon="13.717091563468273"><ele>741.0</ele><time>2026-05-03T09:16:57.999Z</time></trkpt><trkpt lat="42.24775778512869" lon="13.717216012147265"><ele>741.0</ele><time>2026-05-03T09:16:58.999Z</time></trkpt><trkpt lat="42.247744948827524" lon="13.717319203606117"><ele>741.0</ele><time>2026-05-03T09:16:59.999Z</time></trkpt><trkpt lat="42.247697328315404" lon="13.717388612689431"><ele>741.0</ele><time>2026-05-03T09:17:00.999Z</time></trkpt><trkpt lat="42.24763358853829" lon="13.717482899116245"><ele>741.0</ele><time>2026-05-03T09:17:02.999Z</time></trkpt><trkpt lat="42.24778891261784" lon="13.717494998724026"><ele>741.0</ele><time>2026-05-03T09:17:06.999Z</time></trkpt><trkpt lat="42.24790982513961" lon="13.71756762609929"><ele>741.0</ele><time>2026-05-03T09:17:08.999Z</time></trkpt><trkpt lat="42.24798114903581" lon="13.717625238119696"><ele>741.0</ele><time>2026-05-03T09:17:09.999Z</time></trkpt><trkpt lat="42.248070689628136" lon="13.717681303272334"><ele>742.6666666666666</ele><time>2026-05-03T09:17:10.999Z</time></trkpt><trkpt lat="42.24816040881921" lon="13.71773150672415"><ele>744.3333333333334</ele><time>2026-05-03T09:17:11.999Z</time></trkpt><trkpt lat="42.248241065044894" lon="13.717774761392967"><ele>746.0</ele><time>2026-05-03T09:17:12.999Z</time></trkpt><trkpt lat="42.24830806895553" lon="13.717817546130771"><ele>747.6666666666667</ele><time>2026-05-03T09:17:13.999Z</time></trkpt><trkpt lat="42.248361695850484" lon="13.717885778745897"><ele>749.3333333333334</ele><time>2026-05-03T09:17:14.999Z</time></trkpt><trkpt lat="42.24842214545032" lon="13.717967122364305"><ele>751.0</ele><time>2026-05-03T09:17:15.999Z</time></trkpt><trkpt lat="42.248465025678684" lon="13.718036737462965"><ele>751.0</ele><time>2026-05-03T09:17:16.999Z</time></trkpt><trkpt lat="42.24851999275276" lon="13.71811381338747"><ele>751.0</ele><time>2026-05-03T09:17:18.999Z</time></trkpt><trkpt lat="42.248562748843945" lon="13.718040653356853"><ele>751.0</ele><time>2026-05-03T09:17:24.999Z</time></trkpt><trkpt lat="42.24850357498863" lon="13.717951985397518"><ele>751.0</ele><time>2026-05-03T09:17:27.999Z</time></trkpt><trkpt lat="42.248385001028964" lon="13.717931828350705"><ele>751.0</ele><time>2026-05-03T09:17:29.999Z</time></trkpt><trkpt lat="42.24831390912161" lon="13.717901102248584"><ele>751.0</ele><time>2026-05-03T09:17:32Z</time></trkpt><trkpt lat="42.24825563569209" lon="13.717834207321374"><ele>751.0</ele><time>2026-05-03T09:17:34Z</time></trkpt><trkpt lat="42.24819563346793" lon="13.71777711612078"><ele>751.0</ele><time>2026-05-03T09:17:36Z</time></trkpt><trkpt lat="42.248112789791925" lon="13.71771113735743"><ele>751.0</ele><time>2026-05-03T09:17:38Z</time></trkpt><trkpt lat="42.24799758573007" lon="13.717661258014514"><ele>751.0</ele><time>2026-05-03T09:17:40Z</time></trkpt><trkpt lat="42.24793988249161" lon="13.717620834820998"><ele>751.0</ele><time>2026-05-03T09:17:41Z</time></trkpt><trkpt lat="42.24783815016808" lon="13.717551192505224"><ele>749.3333333333334</ele><time>2026-05-03T09:17:43Z</time></trkpt><trkpt lat="42.247766955058204" lon="13.717508484032937"><ele>747.6666666666667</ele><time>2026-05-03T09:17:45Z</time></trkpt><trkpt lat="42.247719797264786" lon="13.717442466408212"><ele>746.0</ele><time>2026-05-03T09:17:48Z</time></trkpt><trkpt lat="42.24774326770225" lon="13.71731859370977"><ele>744.3333333333334</ele><time>2026-05-03T09:17:50Z</time></trkpt><trkpt lat="42.247812498325324" lon="13.717227478713323"><ele>742.6666666666666</ele><time>2026-05-03T09:17:52Z</time></trkpt><trkpt lat="42.24781212623492" lon="13.717103343083787"><ele>741.0</ele><time>2026-05-03T09:17:54Z</time></trkpt><trkpt lat="42.24780468403863" lon="13.716983931317813"><ele>741.0</ele><time>2026-05-03T09:17:55Z</time></trkpt><trkpt lat="42.24778796097251" lon="13.716828818851866"><ele>741.0</ele><time>2026-05-03T09:17:55.999Z</time></trkpt><trkpt lat="42.24775241168816" lon="13.716667019765522"><ele>741.0</ele><time>2026-05-03T09:17:56.999Z</time></trkpt><trkpt lat="42.24772595973334" lon="13.716554651970739"><ele>741.0</ele><time>2026-05-03T09:17:57.999Z</time></trkpt><trkpt lat="42.24772806854732" lon="13.716418340460073"><ele>741.0</ele><time>2026-05-03T09:18:00.999Z</time></trkpt><trkpt lat="42.24783360131576" lon="13.716403687271995"><ele>741.0</ele><time>2026-05-03T09:18:02.999Z</time></trkpt><trkpt lat="42.247890836265675" lon="13.716453918224907"><ele>741.0</ele><time>2026-05-03T09:18:03.999Z</time></trkpt><trkpt lat="42.24794808743746" lon="13.716539043013064"><ele>741.0</ele><time>2026-05-03T09:18:04.999Z</time></trkpt><trkpt lat="42.248014168396" lon="13.71659336680679"><ele>741.0</ele><time>2026-05-03T09:18:05.999Z</time></trkpt><trkpt lat="42.24808618764182" lon="13.716629102643644"><ele>741.0</ele><time>2026-05-03T09:18:06.999Z</time></trkpt><trkpt lat="42.24817144552469" lon="13.716686082589359"><ele>741.0</ele><time>2026-05-03T09:18:07.999Z</time></trkpt><trkpt lat="42.248255766702584" lon="13.716752611198139"><ele>743.4</ele><time>2026-05-03T09:18:08.999Z</time></trkpt><trkpt lat="42.24832218587066" lon="13.716790986668718"><ele>745.8</ele><time>2026-05-03T09:18:09.999Z</time></trkpt><trkpt lat="42.2484030657026" lon="13.716787588404497"><ele>748.1999999999999</ele><time>2026-05-03T09:18:11.999Z</time></trkpt><trkpt lat="42.248474914794954" lon="13.716703107791943"><ele>750.5999999999999</ele><time>2026-05-03T09:18:13.999Z</time></trkpt><trkpt lat="42.248533941276484" lon="13.716591395019027"><ele>753.0</ele><time>2026-05-03T09:18:15.999Z</time></trkpt><trkpt lat="42.24860684503773" lon="13.716486251808501"><ele>753.0</ele><time>2026-05-03T09:18:17.999Z</time></trkpt><trkpt lat="42.24869349971614" lon="13.716385385453954"><ele>753.0</ele><time>2026-05-03T09:18:19.999Z</time></trkpt><trkpt lat="42.248745258991576" lon="13.71630243807124"><ele>753.0</ele><time>2026-05-03T09:18:20.999Z</time></trkpt><trkpt lat="42.24881973860554" lon="13.716145976787498"><ele>753.0</ele><time>2026-05-03T09:18:22.999Z</time></trkpt><trkpt lat="42.24887544342428" lon="13.716080886681219"><ele>753.0</ele><time>2026-05-03T09:18:24.999Z</time></trkpt><trkpt lat="42.248946411176156" lon="13.716120516394943"><ele>755.4</ele><time>2026-05-03T09:18:26.999Z</time></trkpt><trkpt lat="42.24901338921821" lon="13.716214814187055"><ele>757.8</ele><time>2026-05-03T09:18:27.999Z</time></trkpt><trkpt lat="42.24910795241857" lon="13.71627277764291"><ele>760.2</ele><time>2026-05-03T09:18:28.999Z</time></trkpt><trkpt lat="42.2492041080878" lon="13.716334861180957"><ele>762.6</ele><time>2026-05-03T09:18:29.999Z</time></trkpt><trkpt lat="42.249295748941684" lon="13.716395002983813"><ele>765.0</ele><time>2026-05-03T09:18:30.999Z</time></trkpt><trkpt lat="42.24935603100544" lon="13.716463805829816"><ele>765.0</ele><time>2026-05-03T09:18:31.999Z</time></trkpt><trkpt lat="42.24938869355767" lon="13.716540221230815"><ele>765.0</ele><time>2026-05-03T09:18:32.999Z</time></trkpt><trkpt lat="42.24935232505924" lon="13.716647921837787"><ele>765.0</ele><time>2026-05-03T09:18:33.999Z</time></trkpt><trkpt lat="42.249371277036126" lon="13.716783045260517"><ele>765.0</ele><time>2026-05-03T09:18:34.999Z</time></trkpt><trkpt lat="42.24941538074855" lon="13.716934508276248"><ele>765.0</ele><time>2026-05-03T09:18:35.999Z</time></trkpt><trkpt lat="42.249498638909806" lon="13.717067469126498"><ele>764.0</ele><time>2026-05-03T09:18:36.999Z</time></trkpt><trkpt lat="42.24958315475199" lon="13.717203207733439"><ele>763.0</ele><time>2026-05-03T09:18:37.999Z</time></trkpt><trkpt lat="42.24970061945235" lon="13.717324600698852"><ele>762.0</ele><time>2026-05-03T09:18:38.999Z</time></trkpt><trkpt lat="42.249810325222136" lon="13.717432522167144"><ele>761.0</ele><time>2026-05-03T09:18:39.999Z</time></trkpt><trkpt lat="42.24986867665755" lon="13.717571945389428"><ele>764.0</ele><time>2026-05-03T09:18:40.999Z</time></trkpt><trkpt lat="42.249905198128985" lon="13.717722906908934"><ele>767.0</ele><time>2026-05-03T09:18:41.999Z</time></trkpt><trkpt lat="42.24996024435908" lon="13.717870120830664"><ele>770.0</ele><time>2026-05-03T09:18:42.999Z</time></trkpt><trkpt lat="42.25002161208837" lon="13.717988299397287"><ele>773.0</ele><time>2026-05-03T09:18:43.999Z</time></trkpt><trkpt lat="42.250094606493626" lon="13.718100072865127"><ele>773.0</ele><time>2026-05-03T09:18:44.999Z</time></trkpt><trkpt lat="42.25017124247452" lon="13.718228822423976"><ele>773.0</ele><time>2026-05-03T09:18:45.999Z</time></trkpt><trkpt lat="42.250270166731454" lon="13.718372111102804"><ele>773.0</ele><time>2026-05-03T09:18:46.999Z</time></trkpt><trkpt lat="42.25034542564337" lon="13.718509112166482"><ele>773.0</ele><time>2026-05-03T09:18:47.999Z</time></trkpt><trkpt lat="42.25044476908181" lon="13.718614862219868"><ele>773.0</ele><time>2026-05-03T09:18:48.999Z</time></trkpt><trkpt lat="42.25056377741233" lon="13.718696056993194"><ele>773.0</ele><time>2026-05-03T09:18:49.999Z</time></trkpt><trkpt lat="42.25067460383578" lon="13.718775246304851"><ele>773.0</ele><time>2026-05-03T09:18:50.999Z</time></trkpt><trkpt lat="42.25078745563494" lon="13.718820107811373"><ele>773.0</ele><time>2026-05-03T09:18:51.999Z</time></trkpt><trkpt lat="42.250910821128166" lon="13.718861794117155"><ele>773.0</ele><time>2026-05-03T09:18:52.999Z</time></trkpt><trkpt lat="42.2510516477434" lon="13.718924209579361"><ele>773.0</ele><time>2026-05-03T09:18:53.999Z</time></trkpt><trkpt lat="42.25116886925046" lon="13.71903439098305"><ele>773.0</ele><time>2026-05-03T09:18:54.999Z</time></trkpt><trkpt lat="42.25126527713771" lon="13.719151059653488"><ele>773.0</ele><time>2026-05-03T09:18:55.999Z</time></trkpt><trkpt lat="42.25135520491308" lon="13.719276934096081"><ele>771.5</ele><time>2026-05-03T09:18:56.999Z</time></trkpt><trkpt lat="42.2514338674776" lon="13.719408563075312"><ele>770.0</ele><time>2026-05-03T09:18:57.999Z</time></trkpt><trkpt lat="42.251535622317995" lon="13.719512820051417"><ele>768.5</ele><time>2026-05-03T09:18:58.999Z</time></trkpt><trkpt lat="42.25163704438566" lon="13.719608524608201"><ele>767.0</ele><time>2026-05-03T09:18:59.999Z</time></trkpt><trkpt lat="42.25174647465202" lon="13.719699711452506"><ele>770.25</ele><time>2026-05-03T09:19:00.999Z</time></trkpt><trkpt lat="42.25186406964129" lon="13.719791931793544"><ele>773.5</ele><time>2026-05-03T09:19:01.999Z</time></trkpt><trkpt lat="42.25197239794459" lon="13.719907068498816"><ele>776.75</ele><time>2026-05-03T09:19:02.999Z</time></trkpt><trkpt lat="42.252090558263106" lon="13.71999495982773"><ele>780.0</ele><time>2026-05-03T09:19:03.999Z</time></trkpt><trkpt lat="42.252194572355236" lon="13.720120481743955"><ele>779.25</ele><time>2026-05-03T09:19:04.999Z</time></trkpt><trkpt lat="42.25230521565483" lon="13.720206401179901"><ele>778.5</ele><time>2026-05-03T09:19:05.999Z</time></trkpt><trkpt lat="42.25240150707826" lon="13.720331327459906"><ele>777.75</ele><time>2026-05-03T09:19:06.999Z</time></trkpt><trkpt lat="42.25250980603668" lon="13.720410255583197"><ele>777.0</ele><time>2026-05-03T09:19:07.999Z</time></trkpt><trkpt lat="42.25261691727563" lon="13.720511145318534"><ele>777.0</ele><time>2026-05-03T09:19:08.999Z</time></trkpt><trkpt lat="42.25272201830464" lon="13.720607865026892"><ele>777.0</ele><time>2026-05-03T09:19:09.999Z</time></trkpt><trkpt lat="42.25285435502616" lon="13.720664700642732"><ele>777.0</ele><time>2026-05-03T09:19:10.999Z</time></trkpt><trkpt lat="42.25297986316638" lon="13.720736308697171"><ele>777.0</ele><time>2026-05-03T09:19:11.999Z</time></trkpt><trkpt lat="42.25309765361576" lon="13.72079471613231"><ele>779.2</ele><time>2026-05-03T09:19:12.999Z</time></trkpt><trkpt lat="42.25320867578544" lon="13.72085173349502"><ele>781.4000000000001</ele><time>2026-05-03T09:19:13.999Z</time></trkpt><trkpt lat="42.25331755195248" lon="13.720892302758111"><ele>783.5999999999999</ele><time>2026-05-03T09:19:14.999Z</time></trkpt><trkpt lat="42.253419415882846" lon="13.720917615710697"><ele>785.8</ele><time>2026-05-03T09:19:15.999Z</time></trkpt><trkpt lat="42.253505238429696" lon="13.720960430369002"><ele>788.0</ele><time>2026-05-03T09:19:16.999Z</time></trkpt><trkpt lat="42.25357777907338" lon="13.721019779089174"><ele>786.4</ele><time>2026-05-03T09:19:17.999Z</time></trkpt><trkpt lat="42.2535983884496" lon="13.721125230240409"><ele>784.8</ele><time>2026-05-03T09:19:18.999Z</time></trkpt><trkpt lat="42.253633718783256" lon="13.721237339029043"><ele>783.2</ele><time>2026-05-03T09:19:19.999Z</time></trkpt><trkpt lat="42.25366891091311" lon="13.721349862043484"><ele>781.6</ele><time>2026-05-03T09:19:20.999Z</time></trkpt><trkpt lat="42.25369109407225" lon="13.721445476580671"><ele>780.0</ele><time>2026-05-03T09:19:21.999Z</time></trkpt><trkpt lat="42.2536614126249" lon="13.721639925211361"><ele>780.0</ele><time>2026-05-03T09:19:23.999Z</time></trkpt><trkpt lat="42.25358661097161" lon="13.721745486278527"><ele>780.0</ele><time>2026-05-03T09:19:24.999Z</time></trkpt><trkpt lat="42.253510800144234" lon="13.721857135974933"><ele>780.0</ele><time>2026-05-03T09:19:25.999Z</time></trkpt><trkpt lat="42.25344068096037" lon="13.721983980749016"><ele>780.0</ele><time>2026-05-03T09:19:26.999Z</time></trkpt><trkpt lat="42.25338537524389" lon="13.72210328572936"><ele>780.0</ele><time>2026-05-03T09:19:27.999Z</time></trkpt><trkpt lat="42.253345341617866" lon="13.72221828943019"><ele>781.0</ele><time>2026-05-03T09:19:28.999Z</time></trkpt><trkpt lat="42.25334378587221" lon="13.722352670332356"><ele>782.0</ele><time>2026-05-03T09:19:29.999Z</time></trkpt><trkpt lat="42.25340245185796" lon="13.722475680647763"><ele>783.0</ele><time>2026-05-03T09:19:30.999Z</time></trkpt><trkpt lat="42.253424129246895" lon="13.722610087481465"><ele>784.0</ele><time>2026-05-03T09:19:31.999Z</time></trkpt><trkpt lat="42.253469855986154" lon="13.722754205329913"><ele>785.0</ele><time>2026-05-03T09:19:32.999Z</time></trkpt><trkpt lat="42.2535225918678" lon="13.722881292575302"><ele>786.25</ele><time>2026-05-03T09:19:33.999Z</time></trkpt><trkpt lat="42.25359006000074" lon="13.723016861963034"><ele>787.5</ele><time>2026-05-03T09:19:34.999Z</time></trkpt><trkpt lat="42.25363645055898" lon="13.723174923925692"><ele>788.75</ele><time>2026-05-03T09:19:35.999Z</time></trkpt><trkpt lat="42.25368924911068" lon="13.723314050969343"><ele>790.0</ele><time>2026-05-03T09:19:36.999Z</time></trkpt><trkpt lat="42.253739934398496" lon="13.72344860397306"><ele>790.6</ele><time>2026-05-03T09:19:37.999Z</time></trkpt><trkpt lat="42.25378823988507" lon="13.723593285497541"><ele>791.2</ele><time>2026-05-03T09:19:38.999Z</time></trkpt><trkpt lat="42.25383154242412" lon="13.723730754374921"><ele>791.8</ele><time>2026-05-03T09:19:39.999Z</time></trkpt><trkpt lat="42.2538621619981" lon="13.723837297136066"><ele>792.4</ele><time>2026-05-03T09:19:40.999Z</time></trkpt><trkpt lat="42.253892852821046" lon="13.723942215158846"><ele>793.0</ele><time>2026-05-03T09:19:41.999Z</time></trkpt><trkpt lat="42.253932132452825" lon="13.724042252715568"><ele>791.2</ele><time>2026-05-03T09:19:42.999Z</time></trkpt><trkpt lat="42.25399619321157" lon="13.724128873497705"><ele>789.4</ele><time>2026-05-03T09:19:43.999Z</time></trkpt><trkpt lat="42.254069904786704" lon="13.724165398204944"><ele>787.6</ele><time>2026-05-03T09:19:44.999Z</time></trkpt><trkpt lat="42.254154512278035" lon="13.724203884643405"><ele>785.8000000000001</ele><time>2026-05-03T09:19:46.999Z</time></trkpt><trkpt lat="42.25424998708178" lon="13.724182796879765"><ele>784.0</ele><time>2026-05-03T09:19:49.999Z</time></trkpt><trkpt lat="42.25435916974921" lon="13.724187435646513"><ele>784.0</ele><time>2026-05-03T09:19:51.999Z</time></trkpt><trkpt lat="42.25448519068495" lon="13.724185437052327"><ele>784.0</ele><time>2026-05-03T09:19:53.999Z</time></trkpt><trkpt lat="42.254603996018076" lon="13.724170049369032"><ele>784.0</ele><time>2026-05-03T09:19:55.999Z</time></trkpt><trkpt lat="42.2546808689002" lon="13.724153665711526"><ele>784.0</ele><time>2026-05-03T09:19:56.999Z</time></trkpt><trkpt lat="42.25476480656214" lon="13.724142985456123"><ele>784.0</ele><time>2026-05-03T09:19:57.999Z</time></trkpt><trkpt lat="42.25483440413858" lon="13.724138493864455"><ele>784.5</ele><time>2026-05-03T09:19:58.999Z</time></trkpt><trkpt lat="42.25492431419998" lon="13.724136375817622"><ele>785.0</ele><time>2026-05-03T09:19:59.999Z</time></trkpt><trkpt lat="42.255344220630896" lon="13.725076196756412"><ele>780.25</ele><time>2026-05-03T09:20:06.999Z</time></trkpt><trkpt lat="42.25536194187064" lon="13.725214084724454"><ele>775.5</ele><time>2026-05-03T09:20:07.999Z</time></trkpt><trkpt lat="42.25539623554358" lon="13.72536220881392"><ele>770.75</ele><time>2026-05-03T09:20:08.999Z</time></trkpt><trkpt lat="42.25544385333737" lon="13.7255152242988"><ele>766.0</ele><time>2026-05-03T09:20:09.999Z</time></trkpt><trkpt lat="42.255483519479064" lon="13.725652924467157"><ele>765.8</ele><time>2026-05-03T09:20:10.999Z</time></trkpt><trkpt lat="42.25552426651185" lon="13.725783756017323"><ele>765.5999999999999</ele><time>2026-05-03T09:20:11.999Z</time></trkpt><trkpt lat="42.255568561060734" lon="13.725914367177529"><ele>765.4</ele><time>2026-05-03T09:20:12.999Z</time></trkpt><trkpt lat="42.25561531138861" lon="13.726049650309278"><ele>765.2</ele><time>2026-05-03T09:20:13.999Z</time></trkpt><trkpt lat="42.255666642752814" lon="13.726191210889942"><ele>765.0</ele><time>2026-05-03T09:20:14.999Z</time></trkpt><trkpt lat="42.25570540805012" lon="13.726318548064558"><ele>765.0</ele><time>2026-05-03T09:20:15.999Z</time></trkpt><trkpt lat="42.25573028900257" lon="13.726429516023282"><ele>765.0</ele><time>2026-05-03T09:20:16.999Z</time></trkpt><trkpt lat="42.25572997086457" lon="13.726533842587026"><ele>765.0</ele><time>2026-05-03T09:20:17.999Z</time></trkpt><trkpt lat="42.25569567184758" lon="13.726626727458306"><ele>765.0</ele><time>2026-05-03T09:20:18.999Z</time></trkpt><trkpt lat="42.25564570964095" lon="13.726709496732138"><ele>765.0</ele><time>2026-05-03T09:20:19.999Z</time></trkpt><trkpt lat="42.25558062151241" lon="13.72677629528342"><ele>765.0</ele><time>2026-05-03T09:20:20.999Z</time></trkpt><trkpt lat="42.25551843583127" lon="13.726838191785724"><ele>761.8</ele><time>2026-05-03T09:20:21.999Z</time></trkpt><trkpt lat="42.255473140434646" lon="13.726978039298814"><ele>758.6</ele><time>2026-05-03T09:20:23.999Z</time></trkpt><trkpt lat="42.255480131863735" lon="13.727086661844657"><ele>755.4000000000001</ele><time>2026-05-03T09:20:24.999Z</time></trkpt><trkpt lat="42.25548237140959" lon="13.72720955258383"><ele>752.2</ele><time>2026-05-03T09:20:25.999Z</time></trkpt><trkpt lat="42.255462530144676" lon="13.727331037285767"><ele>749.0</ele><time>2026-05-03T09:20:26.999Z</time></trkpt><trkpt lat="42.255449906905845" lon="13.727429233303255"><ele>749.0</ele><time>2026-05-03T09:20:27.999Z</time></trkpt><trkpt lat="42.25548008355473" lon="13.727575942646675"><ele>749.0</ele><time>2026-05-03T09:20:29.999Z</time></trkpt><trkpt lat="42.25556320690614" lon="13.727595411912734"><ele>749.0</ele><time>2026-05-03T09:20:31.999Z</time></trkpt><trkpt lat="42.255670081842375" lon="13.727542983745685"><ele>749.0</ele><time>2026-05-03T09:20:33.999Z</time></trkpt><trkpt lat="42.25575127541018" lon="13.727512635652257"><ele>749.0</ele><time>2026-05-03T09:20:34.999Z</time></trkpt><trkpt lat="42.25583465058855" lon="13.727535284944238"><ele>750.0</ele><time>2026-05-03T09:20:35.999Z</time></trkpt><trkpt lat="42.25590878484575" lon="13.727584749985295"><ele>751.0</ele><time>2026-05-03T09:20:36.999Z</time></trkpt><trkpt lat="42.25599211320144" lon="13.727643809090985"><ele>752.0</ele><time>2026-05-03T09:20:37.999Z</time></trkpt><trkpt lat="42.256085425275685" lon="13.727702830119732"><ele>753.0</ele><time>2026-05-03T09:20:38.999Z</time></trkpt><trkpt lat="42.256175280322026" lon="13.727768210745028"><ele>754.0</ele><time>2026-05-03T09:20:39.999Z</time></trkpt><trkpt lat="42.25626651966804" lon="13.727831091991803"><ele>749.8000000000001</ele><time>2026-05-03T09:20:40.999Z</time></trkpt><trkpt lat="42.25634494116425" lon="13.727906119249146"><ele>745.6</ele><time>2026-05-03T09:20:41.999Z</time></trkpt><trkpt lat="42.25642085395426" lon="13.727978030779484"><ele>741.4</ele><time>2026-05-03T09:20:42.999Z</time></trkpt><trkpt lat="42.25649767172957" lon="13.728036912065248"><ele>737.2</ele><time>2026-05-03T09:20:43.999Z</time></trkpt><trkpt lat="42.25657576526736" lon="13.728104236863855"><ele>733.0</ele><time>2026-05-03T09:20:44.999Z</time></trkpt><trkpt lat="42.25664997677536" lon="13.728162866383803"><ele>733.0</ele><time>2026-05-03T09:20:45.999Z</time></trkpt><trkpt lat="42.25671354800567" lon="13.728235552789462"><ele>733.0</ele><time>2026-05-03T09:20:46.999Z</time></trkpt><trkpt lat="42.25678704299053" lon="13.728287000043059"><ele>733.0</ele><time>2026-05-03T09:20:47.999Z</time></trkpt><trkpt lat="42.25684431125119" lon="13.728363853597491"><ele>733.0</ele><time>2026-05-03T09:20:48.999Z</time></trkpt><trkpt lat="42.25690650708223" lon="13.728445347376045"><ele>733.0</ele><time>2026-05-03T09:20:49.999Z</time></trkpt><trkpt lat="42.25695953235319" lon="13.728526890228743"><ele>733.0</ele><time>2026-05-03T09:20:50.999Z</time></trkpt><trkpt lat="42.25702635342063" lon="13.72859926681895"><ele>730.6666666666667</ele><time>2026-05-03T09:20:51.999Z</time></trkpt><trkpt lat="42.25710041419441" lon="13.72865918249093"><ele>728.3333333333334</ele><time>2026-05-03T09:20:52.999Z</time></trkpt><trkpt lat="42.257163467029855" lon="13.728724183810389"><ele>726.0</ele><time>2026-05-03T09:20:53.999Z</time></trkpt><trkpt lat="42.257205013428774" lon="13.728801054891703"><ele>723.6666666666666</ele><time>2026-05-03T09:20:54.999Z</time></trkpt><trkpt lat="42.25723908618891" lon="13.728905470088284"><ele>721.3333333333333</ele><time>2026-05-03T09:20:55.999Z</time></trkpt><trkpt lat="42.257259325795374" lon="13.729007925492468"><ele>719.0</ele><time>2026-05-03T09:20:56.999Z</time></trkpt><trkpt lat="42.25729421087205" lon="13.729102952429532"><ele>719.0</ele><time>2026-05-03T09:20:57.999Z</time></trkpt><trkpt lat="42.25732804208646" lon="13.72917853325133"><ele>719.0</ele><time>2026-05-03T09:20:58.999Z</time></trkpt><trkpt lat="42.25737079555216" lon="13.729265553557147"><ele>719.0</ele><time>2026-05-03T09:20:59.999Z</time></trkpt><trkpt lat="42.25740585710991" lon="13.729339363291553"><ele>719.0</ele><time>2026-05-03T09:21:00.999Z</time></trkpt><trkpt lat="42.25749744267759" lon="13.729431371478993"><ele>719.0</ele><time>2026-05-03T09:21:02.999Z</time></trkpt><trkpt lat="42.257563055664946" lon="13.72945942533164"><ele>719.0</ele><time>2026-05-03T09:21:03.999Z</time></trkpt><trkpt lat="42.25763702471805" lon="13.729488982783296"><ele>714.3333333333333</ele><time>2026-05-03T09:21:04.999Z</time></trkpt><trkpt lat="42.25772357806892" lon="13.72952140496804"><ele>709.6666666666666</ele><time>2026-05-03T09:21:05.999Z</time></trkpt><trkpt lat="42.25780261948228" lon="13.729543468105053"><ele>705.0</ele><time>2026-05-03T09:21:06.999Z</time></trkpt><trkpt lat="42.2578889153871" lon="13.72956411010075"><ele>700.3333333333334</ele><time>2026-05-03T09:21:07.999Z</time></trkpt><trkpt lat="42.257978550306" lon="13.729580435206996"><ele>695.6666666666667</ele><time>2026-05-03T09:21:08.999Z</time></trkpt><trkpt lat="42.25806458150713" lon="13.729603075490427"><ele>691.0</ele><time>2026-05-03T09:21:09.999Z</time></trkpt><trkpt lat="42.25815104326622" lon="13.729624249014034"><ele>691.0</ele><time>2026-05-03T09:21:10.999Z</time></trkpt><trkpt lat="42.25823139543476" lon="13.72965312612718"><ele>691.0</ele><time>2026-05-03T09:21:11.999Z</time></trkpt><trkpt lat="42.258318515966536" lon="13.72969175615548"><ele>691.0</ele><time>2026-05-03T09:21:12.999Z</time></trkpt><trkpt lat="42.258402463254356" lon="13.729759642307778"><ele>691.0</ele><time>2026-05-03T09:21:13.999Z</time></trkpt><trkpt lat="42.25848305266709" lon="13.729808351478365"><ele>691.0</ele><time>2026-05-03T09:21:14.999Z</time></trkpt><trkpt lat="42.25856880780137" lon="13.729867098057582"><ele>691.0</ele><time>2026-05-03T09:21:15.999Z</time></trkpt><trkpt lat="42.25865011111221" lon="13.729927889318473"><ele>691.0</ele><time>2026-05-03T09:21:16.999Z</time></trkpt><trkpt lat="42.2587397992692" lon="13.729975981193606"><ele>691.0</ele><time>2026-05-03T09:21:17.999Z</time></trkpt><trkpt lat="42.25883439207751" lon="13.730026839866914"><ele>691.0</ele><time>2026-05-03T09:21:18.999Z</time></trkpt><trkpt lat="42.2589382474032" lon="13.730071699441126"><ele>691.0</ele><time>2026-05-03T09:21:19.999Z</time></trkpt><trkpt lat="42.259041945947814" lon="13.730118385548831"><ele>692.5999999999999</ele><time>2026-05-03T09:21:20.999Z</time></trkpt><trkpt lat="42.25913895424684" lon="13.730160859284174"><ele>694.2</ele><time>2026-05-03T09:21:21.999Z</time></trkpt><trkpt lat="42.25923603586982" lon="13.730198053362335"><ele>695.8</ele><time>2026-05-03T09:21:22.999Z</time></trkpt><trkpt lat="42.25933304530126" lon="13.730235678217275"><ele>697.4000000000001</ele><time>2026-05-03T09:21:23.999Z</time></trkpt><trkpt lat="42.25942522065395" lon="13.730263742170179"><ele>699.0</ele><time>2026-05-03T09:21:24.999Z</time></trkpt><trkpt lat="42.25951517115198" lon="13.730312382198074"><ele>694.1666666666666</ele><time>2026-05-03T09:21:25.999Z</time></trkpt><trkpt lat="42.259602733840545" lon="13.730356724885471"><ele>689.3333333333334</ele><time>2026-05-03T09:21:26.999Z</time></trkpt><trkpt lat="42.25968445426895" lon="13.730399953805275"><ele>684.5</ele><time>2026-05-03T09:21:27.999Z</time></trkpt><trkpt lat="42.259763748094564" lon="13.730432314878906"><ele>679.6666666666667</ele><time>2026-05-03T09:21:28.999Z</time></trkpt><trkpt lat="42.25984284993686" lon="13.730465397703718"><ele>674.8333333333334</ele><time>2026-05-03T09:21:29.999Z</time></trkpt><trkpt lat="42.25992151496556" lon="13.730491553394607"><ele>670.0</ele><time>2026-05-03T09:21:30.999Z</time></trkpt><trkpt lat="42.25999245473759" lon="13.730550127756935"><ele>670.0</ele><time>2026-05-03T09:21:31.999Z</time></trkpt><trkpt lat="42.26008042127642" lon="13.730604745029488"><ele>670.0</ele><time>2026-05-03T09:21:32.999Z</time></trkpt><trkpt lat="42.260153092497" lon="13.730650409952231"><ele>670.0</ele><time>2026-05-03T09:21:33.999Z</time></trkpt><trkpt lat="42.26022819232334" lon="13.73070667682429"><ele>670.0</ele><time>2026-05-03T09:21:34.999Z</time></trkpt><trkpt lat="42.26029231589359" lon="13.730765020670962"><ele>670.0</ele><time>2026-05-03T09:21:35.999Z</time></trkpt><trkpt lat="42.26035984311029" lon="13.730805600592184"><ele>670.0</ele><time>2026-05-03T09:21:36.999Z</time></trkpt><trkpt lat="42.260427114188836" lon="13.730853625806999"><ele>669.9999999999999</ele><time>2026-05-03T09:21:37.999Z</time></trkpt><trkpt lat="42.2604893769761" lon="13.730905214017188"><ele>670.0</ele><time>2026-05-03T09:21:38.999Z</time></trkpt><trkpt lat="42.260547678716954" lon="13.730954099568514"><ele>670.0</ele><time>2026-05-03T09:21:39.999Z</time></trkpt><trkpt lat="42.260602402032255" lon="13.73100513133746"><ele>670.0</ele><time>2026-05-03T09:21:40.999Z</time></trkpt><trkpt lat="42.26066181690831" lon="13.731061198536464"><ele>670.0</ele><time>2026-05-03T09:21:41.999Z</time></trkpt><trkpt lat="42.26073146466692" lon="13.731123472186667"><ele>669.9999999999999</ele><time>2026-05-03T09:21:42.999Z</time></trkpt><trkpt lat="42.26080024221949" lon="13.731191129690211"><ele>670.0</ele><time>2026-05-03T09:21:43.999Z</time></trkpt><trkpt lat="42.260857657397224" lon="13.731276934148786"><ele>667.0</ele><time>2026-05-03T09:21:44.999Z</time></trkpt><trkpt lat="42.26090139486816" lon="13.731375597250292"><ele>664.0</ele><time>2026-05-03T09:21:45.999Z</time></trkpt><trkpt lat="42.260936762658915" lon="13.73145515715995"><ele>661.0</ele><time>2026-05-03T09:21:46.999Z</time></trkpt><trkpt lat="42.26095779323589" lon="13.73153826378603"><ele>658.0</ele><time>2026-05-03T09:21:47.999Z</time></trkpt><trkpt lat="42.260994145185045" lon="13.731628048058552"><ele>655.0</ele><time>2026-05-03T09:21:48.999Z</time></trkpt><trkpt lat="42.261042412632484" lon="13.7317256073314"><ele>652.0</ele><time>2026-05-03T09:21:49.999Z</time></trkpt><trkpt lat="42.26109480816371" lon="13.731820168165921"><ele>652.0</ele><time>2026-05-03T09:21:50.999Z</time></trkpt><trkpt lat="42.261149920726574" lon="13.73188254549646"><ele>652.0</ele><time>2026-05-03T09:21:51.999Z</time></trkpt><trkpt lat="42.26124712964573" lon="13.731972535330678"><ele>652.0</ele><time>2026-05-03T09:21:53.999Z</time></trkpt><trkpt lat="42.261336088477236" lon="13.731968679666023"><ele>652.0</ele><time>2026-05-03T09:21:55.999Z</time></trkpt><trkpt lat="42.26144015046305" lon="13.73199099205444"><ele>652.0</ele><time>2026-05-03T09:21:57.999Z</time></trkpt><trkpt lat="42.261501015339256" lon="13.732018616429679"><ele>652.0</ele><time>2026-05-03T09:21:58.999Z</time></trkpt><trkpt lat="42.2615896787033" lon="13.73215964818408"><ele>651.4000000000001</ele><time>2026-05-03T09:22:00.999Z</time></trkpt><trkpt lat="42.26163521521514" lon="13.732347369051086"><ele>650.8000000000001</ele><time>2026-05-03T09:22:02.999Z</time></trkpt><trkpt lat="42.261621058148755" lon="13.732445669680692"><ele>650.2</ele><time>2026-05-03T09:22:03.999Z</time></trkpt><trkpt lat="42.26160344277638" lon="13.732540891079044"><ele>649.6</ele><time>2026-05-03T09:22:04.999Z</time></trkpt><trkpt lat="42.26159608600957" lon="13.732644013568722"><ele>649.0</ele><time>2026-05-03T09:22:05.999Z</time></trkpt><trkpt lat="42.26159717949276" lon="13.732755507980107"><ele>646.5</ele><time>2026-05-03T09:22:06.999Z</time></trkpt><trkpt lat="42.26159721688325" lon="13.73286618587843"><ele>644.0</ele><time>2026-05-03T09:22:07.999Z</time></trkpt><trkpt lat="42.26161619986915" lon="13.732948739616017"><ele>641.5</ele><time>2026-05-03T09:22:08.999Z</time></trkpt><trkpt lat="42.261628297560264" lon="13.733046367154952"><ele>639.0</ele><time>2026-05-03T09:22:09.999Z</time></trkpt><trkpt lat="42.26164110789036" lon="13.733154254190525"><ele>636.5</ele><time>2026-05-03T09:22:10.999Z</time></trkpt><trkpt lat="42.26165436770869" lon="13.733321197549973"><ele>634.0</ele><time>2026-05-03T09:22:12.999Z</time></trkpt><trkpt lat="42.261666956855684" lon="13.733416882910909"><ele>634.0</ele><time>2026-05-03T09:22:13.999Z</time></trkpt><trkpt lat="42.26168689879047" lon="13.733509607286058"><ele>634.0</ele><time>2026-05-03T09:22:14.999Z</time></trkpt><trkpt lat="42.26170558395917" lon="13.73360513166615"><ele>634.0</ele><time>2026-05-03T09:22:15.999Z</time></trkpt><trkpt lat="42.261736382174945" lon="13.733708871967531"><ele>634.0</ele><time>2026-05-03T09:22:16.999Z</time></trkpt><trkpt lat="42.26176013469918" lon="13.733807946197405"><ele>634.0</ele><time>2026-05-03T09:22:17.999Z</time></trkpt><trkpt lat="42.26177076810239" lon="13.73390928152089"><ele>634.0</ele><time>2026-05-03T09:22:18.999Z</time></trkpt><trkpt lat="42.26176660158062" lon="13.734031287688216"><ele>633.1666666666667</ele><time>2026-05-03T09:22:19.999Z</time></trkpt><trkpt lat="42.26176255995745" lon="13.734145969061569"><ele>632.3333333333334</ele><time>2026-05-03T09:22:20.999Z</time></trkpt><trkpt lat="42.261758624084514" lon="13.73424430010523"><ele>631.5</ele><time>2026-05-03T09:22:21.999Z</time></trkpt><trkpt lat="42.26173504763403" lon="13.734339271615802"><ele>630.6666666666666</ele><time>2026-05-03T09:22:22.999Z</time></trkpt><trkpt lat="42.26170015147282" lon="13.734441284385088"><ele>629.8333333333333</ele><time>2026-05-03T09:22:23.999Z</time></trkpt><trkpt lat="42.2616631953518" lon="13.734545252135218"><ele>629.0</ele><time>2026-05-03T09:22:24.999Z</time></trkpt><trkpt lat="42.26162391856208" lon="13.734641496111406"><ele>629.0</ele><time>2026-05-03T09:22:25.999Z</time></trkpt><trkpt lat="42.26157728391555" lon="13.734734874608062"><ele>629.0</ele><time>2026-05-03T09:22:26.999Z</time></trkpt><trkpt lat="42.26152769573086" lon="13.734820726413108"><ele>629.0</ele><time>2026-05-03T09:22:27.999Z</time></trkpt><trkpt lat="42.261463262257074" lon="13.734903445795705"><ele>629.0</ele><time>2026-05-03T09:22:28.999Z</time></trkpt><trkpt lat="42.26138248755899" lon="13.734991746625909"><ele>629.0</ele><time>2026-05-03T09:22:29.999Z</time></trkpt><trkpt lat="42.261308698023534" lon="13.735074563677419"><ele>625.3333333333333</ele><time>2026-05-03T09:22:30.999Z</time></trkpt><trkpt lat="42.26125388545897" lon="13.735165972978608"><ele>621.6666666666666</ele><time>2026-05-03T09:22:31.999Z</time></trkpt><trkpt lat="42.26119895445363" lon="13.735254214169112"><ele>618.0</ele><time>2026-05-03T09:22:32.999Z</time></trkpt><trkpt lat="42.26117177911484" lon="13.735332682157692"><ele>614.3333333333334</ele><time>2026-05-03T09:22:33.999Z</time></trkpt><trkpt lat="42.26115058868141" lon="13.735445296692312"><ele>610.6666666666667</ele><time>2026-05-03T09:22:34.999Z</time></trkpt><trkpt lat="42.26111828218738" lon="13.735575573264292"><ele>607.0</ele><time>2026-05-03T09:22:35.999Z</time></trkpt><trkpt lat="42.26108465849813" lon="13.73570485422548"><ele>606.5</ele><time>2026-05-03T09:22:36.999Z</time></trkpt><trkpt lat="42.26106500238091" lon="13.735830064246965"><ele>606.0</ele><time>2026-05-03T09:22:37.999Z</time></trkpt><trkpt lat="42.2610523696347" lon="13.73593459771159"><ele>605.5</ele><time>2026-05-03T09:22:38.999Z</time></trkpt><trkpt lat="42.26104081107055" lon="13.736035195659209"><ele>605.0</ele><time>2026-05-03T09:22:39.999Z</time></trkpt><trkpt lat="42.26102303337567" lon="13.736118657897277"><ele>604.5</ele><time>2026-05-03T09:22:40.999Z</time></trkpt><trkpt lat="42.26100401378813" lon="13.736209654619543"><ele>604.0</ele><time>2026-05-03T09:22:41.999Z</time></trkpt><trkpt lat="42.26096074623779" lon="13.736327460748262"><ele>602.4</ele><time>2026-05-03T09:22:43.999Z</time></trkpt><trkpt lat="42.26099819645365" lon="13.736443055564266"><ele>600.8</ele><time>2026-05-03T09:22:46.999Z</time></trkpt><trkpt lat="42.26109352654455" lon="13.73650436234614"><ele>599.2</ele><time>2026-05-03T09:22:48.999Z</time></trkpt><trkpt lat="42.26118235835239" lon="13.736614124302948"><ele>597.6</ele><time>2026-05-03T09:22:50.999Z</time></trkpt><trkpt lat="42.261233490524916" lon="13.736678983051503"><ele>596.0</ele><time>2026-05-03T09:22:51.999Z</time></trkpt><trkpt lat="42.26128379404565" lon="13.736739193024773"><ele>596.0</ele><time>2026-05-03T09:22:52.999Z</time></trkpt><trkpt lat="42.261368527430214" lon="13.736826978170752"><ele>596.0</ele><time>2026-05-03T09:22:54.999Z</time></trkpt><trkpt lat="42.261422647110294" lon="13.736872056427146"><ele>596.0</ele><time>2026-05-03T09:22:55.999Z</time></trkpt><trkpt lat="42.26147748900295" lon="13.736915852985488"><ele>596.0</ele><time>2026-05-03T09:22:56.999Z</time></trkpt><trkpt lat="42.26156860619711" lon="13.736960858037742"><ele>596.0</ele><time>2026-05-03T09:22:58.999Z</time></trkpt><trkpt lat="42.26169170412233" lon="13.736991742590872"><ele>593.5</ele><time>2026-05-03T09:23:00.999Z</time></trkpt><trkpt lat="42.2618206774491" lon="13.737027771142085"><ele>591.0</ele><time>2026-05-03T09:23:02.999Z</time></trkpt><trkpt lat="42.26189495407407" lon="13.737057995100518"><ele>588.5</ele><time>2026-05-03T09:23:03.999Z</time></trkpt><trkpt lat="42.261959376106574" lon="13.737085003318795"><ele>586.0</ele><time>2026-05-03T09:23:04.999Z</time></trkpt><trkpt lat="42.26202042567395" lon="13.737117726165708"><ele>583.5</ele><time>2026-05-03T09:23:05.999Z</time></trkpt><trkpt lat="42.262081923818" lon="13.737173123588203"><ele>581.0</ele><time>2026-05-03T09:23:06.999Z</time></trkpt><trkpt lat="42.26215552778957" lon="13.737235712673783"><ele>581.0</ele><time>2026-05-03T09:23:07.999Z</time></trkpt><trkpt lat="42.26222674479408" lon="13.73729499427719"><ele>581.0</ele><time>2026-05-03T09:23:08.999Z</time></trkpt><trkpt lat="42.262298347471244" lon="13.737344330032137"><ele>581.0</ele><time>2026-05-03T09:23:09.999Z</time></trkpt><trkpt lat="42.26236996774783" lon="13.737397866506555"><ele>581.0</ele><time>2026-05-03T09:23:10.999Z</time></trkpt><trkpt lat="42.26244871391584" lon="13.737455243238422"><ele>581.0</ele><time>2026-05-03T09:23:11.999Z</time></trkpt><trkpt lat="42.262509708895905" lon="13.737499375912801"><ele>581.0</ele><time>2026-05-03T09:23:12.999Z</time></trkpt><trkpt lat="42.262574574086884" lon="13.73753150952632"><ele>582.0</ele><time>2026-05-03T09:23:13.999Z</time></trkpt><trkpt lat="42.26265395795905" lon="13.737547086359367"><ele>583.0</ele><time>2026-05-03T09:23:14.999Z</time></trkpt><trkpt lat="42.26273773036726" lon="13.737559596306772"><ele>584.0</ele><time>2026-05-03T09:23:15.999Z</time></trkpt><trkpt lat="42.26284430323764" lon="13.737570798244482"><ele>585.0</ele><time>2026-05-03T09:23:16.999Z</time></trkpt><trkpt lat="42.26295558710509" lon="13.7376017562597"><ele>586.0</ele><time>2026-05-03T09:23:17.999Z</time></trkpt><trkpt lat="42.26305535036438" lon="13.737631372442378"><ele>586.5</ele><time>2026-05-03T09:23:18.999Z</time></trkpt><trkpt lat="42.26314578801436" lon="13.737656112887542"><ele>587.0</ele><time>2026-05-03T09:23:19.999Z</time></trkpt><trkpt lat="42.26323882389013" lon="13.737679107085041"><ele>587.5</ele><time>2026-05-03T09:23:20.999Z</time></trkpt><trkpt lat="42.263325841930424" lon="13.737700838848484"><ele>588.0</ele><time>2026-05-03T09:23:21.999Z</time></trkpt><trkpt lat="42.26341570313411" lon="13.737722945410471"><ele>588.5</ele><time>2026-05-03T09:23:22.999Z</time></trkpt><trkpt lat="42.263492231633236" lon="13.737737812653029"><ele>589.0</ele><time>2026-05-03T09:23:23.999Z</time></trkpt><trkpt lat="42.263567455246495" lon="13.737746849509975"><ele>584.1666666666667</ele><time>2026-05-03T09:23:24.999Z</time></trkpt><trkpt lat="42.263645051365096" lon="13.737754281384841"><ele>579.3333333333334</ele><time>2026-05-03T09:23:25.999Z</time></trkpt><trkpt lat="42.263715467039226" lon="13.73776558171551"><ele>574.5</ele><time>2026-05-03T09:23:26.999Z</time></trkpt><trkpt lat="42.2638088017295" lon="13.73776619728456"><ele>569.6666666666666</ele><time>2026-05-03T09:23:27.999Z</time></trkpt><trkpt lat="42.26389818523105" lon="13.737750558905043"><ele>564.8333333333333</ele><time>2026-05-03T09:23:28.999Z</time></trkpt><trkpt lat="42.26396137985966" lon="13.737738648684727"><ele>560.0</ele><time>2026-05-03T09:23:29.999Z</time></trkpt><trkpt lat="42.26404411228291" lon="13.737733620370301"><ele>559.3333333333333</ele><time>2026-05-03T09:23:30.999Z</time></trkpt><trkpt lat="42.26411448145881" lon="13.737766818010968"><ele>558.6666666666666</ele><time>2026-05-03T09:23:31.999Z</time></trkpt><trkpt lat="42.26416962425665" lon="13.737810420057842"><ele>558.0</ele><time>2026-05-03T09:23:32.999Z</time></trkpt><trkpt lat="42.264286251325984" lon="13.737881022991626"><ele>557.3333333333334</ele><time>2026-05-03T09:23:34.999Z</time></trkpt><trkpt lat="42.26435962682311" lon="13.737897721980447"><ele>556.6666666666667</ele><time>2026-05-03T09:23:35.999Z</time></trkpt><trkpt lat="42.26442520180646" lon="13.737906550691473"><ele>556.0</ele><time>2026-05-03T09:23:36.999Z</time></trkpt><trkpt lat="42.26449870961618" lon="13.73791451011231"><ele>556.0</ele><time>2026-05-03T09:23:37.999Z</time></trkpt><trkpt lat="42.2645742718271" lon="13.737927723606239"><ele>556.0</ele><time>2026-05-03T09:23:38.999Z</time></trkpt><trkpt lat="42.26464292842723" lon="13.737942364279123"><ele>556.0</ele><time>2026-05-03T09:23:39.999Z</time></trkpt><trkpt lat="42.264749734709845" lon="13.737961742333182"><ele>556.0</ele><time>2026-05-03T09:23:41.999Z</time></trkpt><trkpt lat="42.26483053383938" lon="13.737974459500329"><ele>556.0</ele><time>2026-05-03T09:23:43.999Z</time></trkpt><trkpt lat="42.264899860794515" lon="13.73802500378274"><ele>556.0</ele><time>2026-05-03T09:23:50.999Z</time></trkpt><trkpt lat="42.26501680674477" lon="13.738074391543236"><ele>555.0</ele><time>2026-05-03T09:23:52.999Z</time></trkpt><trkpt lat="42.26510038148955" lon="13.738091130970556"><ele>554.0</ele><time>2026-05-03T09:23:53.999Z</time></trkpt><trkpt lat="42.26520601950081" lon="13.738100091148777"><ele>553.0</ele><time>2026-05-03T09:23:54.999Z</time></trkpt><trkpt lat="42.26537189668718" lon="13.738112706381136"><ele>552.0</ele><time>2026-05-03T09:23:55.999Z</time></trkpt><trkpt lat="42.26558372908894" lon="13.738119736735406"><ele>551.3333333333334</ele><time>2026-05-03T09:23:56.999Z</time></trkpt><trkpt lat="42.26581282629163" lon="13.738115661930172"><ele>550.6666666666667</ele><time>2026-05-03T09:23:57.999Z</time></trkpt><trkpt lat="42.26601605171823" lon="13.738115323037615"><ele>550.0</ele><time>2026-05-03T09:23:58.999Z</time></trkpt><trkpt lat="42.26622671350101" lon="13.738108783328379"><ele>550.0</ele><time>2026-05-03T09:23:59.999Z</time></trkpt><trkpt lat="42.26643490194955" lon="13.73813031545506"><ele>550.0</ele><time>2026-05-03T09:24:00.999Z</time></trkpt><trkpt lat="42.26663950590504" lon="13.73813933736322"><ele>550.0</ele><time>2026-05-03T09:24:01.999Z</time></trkpt><trkpt lat="42.26682579131125" lon="13.73814563312011"><ele>549.0</ele><time>2026-05-03T09:24:02.999Z</time></trkpt><trkpt lat="42.26700384695065" lon="13.738154532551555"><ele>548.0</ele><time>2026-05-03T09:24:03.999Z</time></trkpt><trkpt lat="42.26717998217991" lon="13.738161321109187"><ele>547.0</ele><time>2026-05-03T09:24:04.999Z</time></trkpt><trkpt lat="42.26735382212515" lon="13.738173686650171"><ele>545.6666666666667</ele><time>2026-05-03T09:24:05.999Z</time></trkpt><trkpt lat="42.267529435065484" lon="13.738180328400112"><ele>544.3333333333334</ele><time>2026-05-03T09:24:06.999Z</time></trkpt><trkpt lat="42.267695584215346" lon="13.738187466423048"><ele>543.0</ele><time>2026-05-03T09:24:07.999Z</time></trkpt><trkpt lat="42.26785367367614" lon="13.738199465464072"><ele>543.0</ele><time>2026-05-03T09:24:08.999Z</time></trkpt><trkpt lat="42.26799116702785" lon="13.738212180501192"><ele>543.0</ele><time>2026-05-03T09:24:09.999Z</time></trkpt><trkpt lat="42.26810121498932" lon="13.738228005947532"><ele>543.0</ele><time>2026-05-03T09:24:10.999Z</time></trkpt><trkpt lat="42.268203665918975" lon="13.738229197871197"><ele>543.0</ele><time>2026-05-03T09:24:11.999Z</time></trkpt><trkpt lat="42.26830643266422" lon="13.738230533046764"><ele>542.1666666666666</ele><time>2026-05-03T09:24:12.999Z</time></trkpt><trkpt lat="42.26838931817123" lon="13.738241107283539"><ele>541.3333333333334</ele><time>2026-05-03T09:24:13.999Z</time></trkpt><trkpt lat="42.268457395597935" lon="13.738253384899604"><ele>540.5</ele><time>2026-05-03T09:24:14.999Z</time></trkpt><trkpt lat="42.26851995243394" lon="13.738276317337883"><ele>539.6666666666667</ele><time>2026-05-03T09:24:15.999Z</time></trkpt><trkpt lat="42.26858432743414" lon="13.738302936592149"><ele>538.8333333333334</ele><time>2026-05-03T09:24:16.999Z</time></trkpt><trkpt lat="42.268681312114836" lon="13.738335587762137"><ele>538.0</ele><time>2026-05-03T09:24:18.999Z</time></trkpt><trkpt lat="42.26877049152401" lon="13.738358239821551"><ele>538.0</ele><time>2026-05-03T09:24:20.999Z</time></trkpt><trkpt lat="42.26884058398233" lon="13.738377424489363"><ele>538.0</ele><time>2026-05-03T09:24:21.999Z</time></trkpt><trkpt lat="42.26891304715251" lon="13.73841089616536"><ele>538.0</ele><time>2026-05-03T09:24:22.999Z</time></trkpt><trkpt lat="42.268988625885896" lon="13.738449106818077"><ele>538.0</ele><time>2026-05-03T09:24:23.999Z</time></trkpt><trkpt lat="42.26906486642091" lon="13.738481962090038"><ele>538.0</ele><time>2026-05-03T09:24:24.999Z</time></trkpt><trkpt lat="42.2691413639762" lon="13.738526516691287"><ele>538.0</ele><time>2026-05-03T09:24:25.999Z</time></trkpt><trkpt lat="42.26920763701713" lon="13.738585782933201"><ele>536.0</ele><time>2026-05-03T09:24:26.999Z</time></trkpt><trkpt lat="42.269274717679046" lon="13.73863362198903"><ele>534.0</ele><time>2026-05-03T09:24:27.999Z</time></trkpt><trkpt lat="42.269343507432495" lon="13.738674753914342"><ele>532.0</ele><time>2026-05-03T09:24:28.999Z</time></trkpt><trkpt lat="42.26941253763085" lon="13.738747280862695"><ele>530.0</ele><time>2026-05-03T09:24:30.999Z</time></trkpt><trkpt lat="42.269416178943274" lon="13.73891072131646"><ele>528.0</ele><time>2026-05-03T09:24:32.999Z</time></trkpt><trkpt lat="42.26939718778446" lon="13.739015496269383"><ele>526.0</ele><time>2026-05-03T09:24:33.999Z</time></trkpt><trkpt lat="42.26937488088441" lon="13.739127166594706"><ele>526.0</ele><time>2026-05-03T09:24:34.999Z</time></trkpt><trkpt lat="42.269346053493926" lon="13.739233056246592"><ele>526.0</ele><time>2026-05-03T09:24:35.999Z</time></trkpt><trkpt lat="42.26933297857314" lon="13.739349205059655"><ele>526.0</ele><time>2026-05-03T09:24:36.999Z</time></trkpt><trkpt lat="42.269322404627125" lon="13.739456258635148"><ele>526.0</ele><time>2026-05-03T09:24:37.999Z</time></trkpt><trkpt lat="42.26930229804411" lon="13.739570861097214"><ele>526.0</ele><time>2026-05-03T09:24:38.999Z</time></trkpt><trkpt lat="42.26927750000968" lon="13.739685637929533"><ele>526.0</ele><time>2026-05-03T09:24:39.999Z</time></trkpt><trkpt lat="42.269246873867786" lon="13.739807110992587"><ele>524.6666666666667</ele><time>2026-05-03T09:24:40.999Z</time></trkpt><trkpt lat="42.26921683486458" lon="13.739933638195355"><ele>523.3333333333334</ele><time>2026-05-03T09:24:41.999Z</time></trkpt><trkpt lat="42.26920439470215" lon="13.740043266869352"><ele>522.0</ele><time>2026-05-03T09:24:42.999Z</time></trkpt><trkpt lat="42.26920359534798" lon="13.740133701679651"><ele>520.6666666666666</ele><time>2026-05-03T09:24:43.999Z</time></trkpt><trkpt lat="42.269167251862235" lon="13.740258602519507"><ele>519.3333333333333</ele><time>2026-05-03T09:24:45.999Z</time></trkpt><trkpt lat="42.26911609094331" lon="13.740312026227224"><ele>518.0</ele><time>2026-05-03T09:24:46.999Z</time></trkpt><trkpt lat="42.26905125306673" lon="13.740370236046443"><ele>515.1666666666666</ele><time>2026-05-03T09:24:47.999Z</time></trkpt><trkpt lat="42.268980349122124" lon="13.740428230588057"><ele>512.3333333333333</ele><time>2026-05-03T09:24:48.999Z</time></trkpt><trkpt lat="42.26890771250886" lon="13.740472053067585"><ele>509.5</ele><time>2026-05-03T09:24:49.999Z</time></trkpt><trkpt lat="42.2688374324436" lon="13.74051350873839"><ele>506.66666666666663</ele><time>2026-05-03T09:24:50.999Z</time></trkpt><trkpt lat="42.26877788176826" lon="13.740549922065046"><ele>503.8333333333333</ele><time>2026-05-03T09:24:51.999Z</time></trkpt><trkpt lat="42.268665119300586" lon="13.740588595546738"><ele>501.0</ele><time>2026-05-03T09:24:53.999Z</time></trkpt><trkpt lat="42.26859387922061" lon="13.740540133998561"><ele>501.0</ele><time>2026-05-03T09:24:55.999Z</time></trkpt><trkpt lat="42.26856547115178" lon="13.740388955468289"><ele>501.0</ele><time>2026-05-03T09:24:57.999Z</time></trkpt><trkpt lat="42.268563126617465" lon="13.740293809681946"><ele>501.0</ele><time>2026-05-03T09:24:58.999Z</time></trkpt><trkpt lat="42.26855676016111" lon="13.740194183392243"><ele>501.0</ele><time>2026-05-03T09:24:59.999Z</time></trkpt><trkpt lat="42.268542768468045" lon="13.740108922011295"><ele>501.0</ele><time>2026-05-03T09:25:00.999Z</time></trkpt><trkpt lat="42.268475064017885" lon="13.74001900381992"><ele>501.0</ele><time>2026-05-03T09:25:02.999Z</time></trkpt><trkpt lat="42.26837030327103" lon="13.740041324990685"><ele>501.0</ele><time>2026-05-03T09:25:04.999Z</time></trkpt><trkpt lat="42.26830513993322" lon="13.740180907644922"><ele>501.0</ele><time>2026-05-03T09:25:06.999Z</time></trkpt><trkpt lat="42.26828143551112" lon="13.74027739079778"><ele>501.0</ele><time>2026-05-03T09:25:07.999Z</time></trkpt><trkpt lat="42.268232496651365" lon="13.740332964219919"><ele>501.0</ele><time>2026-05-03T09:25:08.999Z</time></trkpt><trkpt lat="42.26815811460146" lon="13.740370751079599"><ele>501.0</ele><time>2026-05-03T09:25:09.999Z</time></trkpt><trkpt lat="42.26807826689274" lon="13.7404164541207"><ele>501.0</ele><time>2026-05-03T09:25:10.999Z</time></trkpt><trkpt lat="42.267980787988456" lon="13.740452459819306"><ele>499.4</ele><time>2026-05-03T09:25:11.999Z</time></trkpt><trkpt lat="42.26788203283442" lon="13.740480879057559"><ele>497.8</ele><time>2026-05-03T09:25:12.999Z</time></trkpt><trkpt lat="42.267792489150196" lon="13.740501146305203"><ele>496.19999999999993</ele><time>2026-05-03T09:25:13.999Z</time></trkpt><trkpt lat="42.267726974637284" lon="13.740507474660264"><ele>494.59999999999997</ele><time>2026-05-03T09:25:14.999Z</time></trkpt><trkpt lat="42.26759469473999" lon="13.740452372377174"><ele>493.0</ele><time>2026-05-03T09:25:16.999Z</time></trkpt><trkpt lat="42.26751989817674" lon="13.740423000698835"><ele>493.00000000000006</ele><time>2026-05-03T09:25:17.999Z</time></trkpt><trkpt lat="42.26745179341624" lon="13.740371971289168"><ele>493.0</ele><time>2026-05-03T09:25:18.999Z</time></trkpt><trkpt lat="42.26737025479084" lon="13.74030514355184"><ele>493.0</ele><time>2026-05-03T09:25:19.999Z</time></trkpt><trkpt lat="42.26729137665224" lon="13.740245212640135"><ele>493.0</ele><time>2026-05-03T09:25:20.999Z</time></trkpt><trkpt lat="42.26720989508656" lon="13.74019437867084"><ele>493.00000000000006</ele><time>2026-05-03T09:25:21.999Z</time></trkpt><trkpt lat="42.26713900518963" lon="13.740175742344123"><ele>493.0</ele><time>2026-05-03T09:25:22.999Z</time></trkpt><trkpt lat="42.26707704764375" lon="13.740195357055308"><ele>494.59999999999997</ele><time>2026-05-03T09:25:23.999Z</time></trkpt><trkpt lat="42.26695804638302" lon="13.74020475590942"><ele>496.19999999999993</ele><time>2026-05-03T09:25:25.999Z</time></trkpt><trkpt lat="42.266870286644476" lon="13.740175641427737"><ele>497.8</ele><time>2026-05-03T09:25:26.999Z</time></trkpt><trkpt lat="42.26677611713897" lon="13.740158265913037"><ele>499.4</ele><time>2026-05-03T09:25:27.999Z</time></trkpt><trkpt lat="42.26668411415217" lon="13.740169681261332"><ele>501.0</ele><time>2026-05-03T09:25:28.999Z</time></trkpt><trkpt lat="42.266583346393105" lon="13.740199818761354"><ele>498.6666666666667</ele><time>2026-05-03T09:25:29.999Z</time></trkpt><trkpt lat="42.26647639377625" lon="13.740224776656897"><ele>496.33333333333337</ele><time>2026-05-03T09:25:30.999Z</time></trkpt><trkpt lat="42.266380733241206" lon="13.740249969480484"><ele>494.0</ele><time>2026-05-03T09:25:31.999Z</time></trkpt><trkpt lat="42.26630045887168" lon="13.740279348522556"><ele>491.6666666666667</ele><time>2026-05-03T09:25:32.999Z</time></trkpt><trkpt lat="42.26623929147497" lon="13.740309842790436"><ele>489.33333333333337</ele><time>2026-05-03T09:25:33.999Z</time></trkpt><trkpt lat="42.266186884174836" lon="13.740364221674724"><ele>487.0</ele><time>2026-05-03T09:25:34.999Z</time></trkpt><trkpt lat="42.26613822382527" lon="13.740437982586915"><ele>487.00000000000006</ele><time>2026-05-03T09:25:35.999Z</time></trkpt><trkpt lat="42.26608046154176" lon="13.74051427995465"><ele>487.0</ele><time>2026-05-03T09:25:36.999Z</time></trkpt><trkpt lat="42.26601456232475" lon="13.740589084863648"><ele>487.0</ele><time>2026-05-03T09:25:37.999Z</time></trkpt><trkpt lat="42.26594331318506" lon="13.740648984753198"><ele>487.0</ele><time>2026-05-03T09:25:38.999Z</time></trkpt><trkpt lat="42.26586591402742" lon="13.74072746117042"><ele>487.00000000000006</ele><time>2026-05-03T09:25:39.999Z</time></trkpt><trkpt lat="42.26579029574913" lon="13.740813720055025"><ele>487.0</ele><time>2026-05-03T09:25:40.999Z</time></trkpt><trkpt lat="42.265715456723974" lon="13.740886844209331"><ele>487.0</ele><time>2026-05-03T09:25:41.999Z</time></trkpt><trkpt lat="42.265635815173155" lon="13.740938057895981"><ele>487.00000000000006</ele><time>2026-05-03T09:25:42.999Z</time></trkpt><trkpt lat="42.265543285178026" lon="13.74096750166769"><ele>487.00000000000006</ele><time>2026-05-03T09:25:43.999Z</time></trkpt><trkpt lat="42.26544982298668" lon="13.740983911815466"><ele>487.0</ele><time>2026-05-03T09:25:44.999Z</time></trkpt><trkpt lat="42.265355462483114" lon="13.741001318825633"><ele>487.0</ele><time>2026-05-03T09:25:45.999Z</time></trkpt><trkpt lat="42.26526726438004" lon="13.741005311748335"><ele>487.0</ele><time>2026-05-03T09:25:46.999Z</time></trkpt><trkpt lat="42.26517313363009" lon="13.740991849234678"><ele>487.00000000000006</ele><time>2026-05-03T09:25:47.999Z</time></trkpt><trkpt lat="42.26507200666309" lon="13.740974487796668"><ele>487.00000000000006</ele><time>2026-05-03T09:25:48.999Z</time></trkpt><trkpt lat="42.264960437354205" lon="13.740950006361603"><ele>487.0</ele><time>2026-05-03T09:25:49.999Z</time></trkpt><trkpt lat="42.26485846081897" lon="13.740946730466469"><ele>487.0</ele><time>2026-05-03T09:25:50.999Z</time></trkpt><trkpt lat="42.26475946033098" lon="13.740973793521519"><ele>487.6</ele><time>2026-05-03T09:25:51.999Z</time></trkpt><trkpt lat="42.26465720909125" lon="13.74102535965086"><ele>488.20000000000005</ele><time>2026-05-03T09:25:52.999Z</time></trkpt><trkpt lat="42.26456686282887" lon="13.741093478823613"><ele>488.8</ele><time>2026-05-03T09:25:53.999Z</time></trkpt><trkpt lat="42.26446443449958" lon="13.741160229490212"><ele>489.4</ele><time>2026-05-03T09:25:54.999Z</time></trkpt><trkpt lat="42.26435817967823" lon="13.741194717043763"><ele>490.0</ele><time>2026-05-03T09:25:55.999Z</time></trkpt><trkpt lat="42.264258050195245" lon="13.741223319689523"><ele>486.8</ele><time>2026-05-03T09:25:56.999Z</time></trkpt><trkpt lat="42.264161103629654" lon="13.74124335457943"><ele>483.6</ele><time>2026-05-03T09:25:57.999Z</time></trkpt><trkpt lat="42.264059275100415" lon="13.741256867246227"><ele>480.4</ele><time>2026-05-03T09:25:58.999Z</time></trkpt><trkpt lat="42.2639364766765" lon="13.741244060547073"><ele>477.2</ele><time>2026-05-03T09:25:59.999Z</time></trkpt><trkpt lat="42.263826267214235" lon="13.7412411718198"><ele>474.0</ele><time>2026-05-03T09:26:00.999Z</time></trkpt><trkpt lat="42.263718911693886" lon="13.741241066686083"><ele>474.0</ele><time>2026-05-03T09:26:01.999Z</time></trkpt><trkpt lat="42.26362922761667" lon="13.741255365442743"><ele>474.0</ele><time>2026-05-03T09:26:02.999Z</time></trkpt><trkpt lat="42.26356229115637" lon="13.74125895375807"><ele>474.0</ele><time>2026-05-03T09:26:03.999Z</time></trkpt><trkpt lat="42.26350973110176" lon="13.741336647972958"><ele>474.0</ele><time>2026-05-03T09:26:06.999Z</time></trkpt><trkpt lat="42.263464960134954" lon="13.741405078768784"><ele>474.0</ele><time>2026-05-03T09:26:07.999Z</time></trkpt><trkpt lat="42.26341263878936" lon="13.741467347851371"><ele>474.0</ele><time>2026-05-03T09:26:08.999Z</time></trkpt><trkpt lat="42.2633508913242" lon="13.741581801398546"><ele>474.0</ele><time>2026-05-03T09:26:10.999Z</time></trkpt><trkpt lat="42.26333681577288" lon="13.741691984017686"><ele>474.0</ele><time>2026-05-03T09:26:12.999Z</time></trkpt><trkpt lat="42.26323538130344" lon="13.741743781262139"><ele>474.0</ele><time>2026-05-03T09:26:14.999Z</time></trkpt><trkpt lat="42.26316945194185" lon="13.741758597253218"><ele>474.0</ele><time>2026-05-03T09:26:15.999Z</time></trkpt><trkpt lat="42.26312633155245" lon="13.741864499598467"><ele>474.0</ele><time>2026-05-03T09:26:17.999Z</time></trkpt><trkpt lat="42.26314769011977" lon="13.741948077596845"><ele>474.0</ele><time>2026-05-03T09:26:18.999Z</time></trkpt><trkpt lat="42.26318004015117" lon="13.742080655301699"><ele>472.0</ele><time>2026-05-03T09:26:20.999Z</time></trkpt><trkpt lat="42.263124931185864" lon="13.742150196173288"><ele>470.0</ele><time>2026-05-03T09:26:22.999Z</time></trkpt><trkpt lat="42.263021781948815" lon="13.742211531934645"><ele>468.0</ele><time>2026-05-03T09:26:24.999Z</time></trkpt><trkpt lat="42.26301521070261" lon="13.742385625084516"><ele>466.0</ele><time>2026-05-03T09:26:26.999Z</time></trkpt><trkpt lat="42.26303710443924" lon="13.742486643260781"><ele>464.0</ele><time>2026-05-03T09:26:27.999Z</time></trkpt><trkpt lat="42.26305267869029" lon="13.742587168775454"><ele>462.6</ele><time>2026-05-03T09:26:28.999Z</time></trkpt><trkpt lat="42.26301800845149" lon="13.74273134891445"><ele>461.2</ele><time>2026-05-03T09:26:30.999Z</time></trkpt><trkpt lat="42.26290677349073" lon="13.742789639229153"><ele>459.80000000000007</ele><time>2026-05-03T09:26:32.999Z</time></trkpt><trkpt lat="42.26283401835399" lon="13.74280580370185"><ele>458.40000000000003</ele><time>2026-05-03T09:26:33.999Z</time></trkpt><trkpt lat="42.26275069688272" lon="13.742845465586706"><ele>457.0</ele><time>2026-05-03T09:26:34.999Z</time></trkpt><trkpt lat="42.26266711662532" lon="13.742907863052066"><ele>457.00000000000006</ele><time>2026-05-03T09:26:35.999Z</time></trkpt><trkpt lat="42.262586050381294" lon="13.742976515676919"><ele>457.0</ele><time>2026-05-03T09:26:36.999Z</time></trkpt><trkpt lat="42.26251012184759" lon="13.743037519820353"><ele>457.0</ele><time>2026-05-03T09:26:37.999Z</time></trkpt><trkpt lat="42.26243424822162" lon="13.743084690863686"><ele>457.0</ele><time>2026-05-03T09:26:38.999Z</time></trkpt><trkpt lat="42.2623649688049" lon="13.743104098951525"><ele>457.00000000000006</ele><time>2026-05-03T09:26:39.999Z</time></trkpt><trkpt lat="42.26230653194848" lon="13.743153338544749"><ele>457.0</ele><time>2026-05-03T09:26:40.999Z</time></trkpt><trkpt lat="42.26225894090571" lon="13.743223322460901"><ele>457.00000000000006</ele><time>2026-05-03T09:26:41.999Z</time></trkpt><trkpt lat="42.2622190574145" lon="13.743315245105737"><ele>457.0</ele><time>2026-05-03T09:26:42.999Z</time></trkpt><trkpt lat="42.262186016567696" lon="13.743433538935465"><ele>457.0</ele><time>2026-05-03T09:26:43.999Z</time></trkpt><trkpt lat="42.262159441037845" lon="13.74353221650365"><ele>457.0</ele><time>2026-05-03T09:26:44.999Z</time></trkpt><trkpt lat="42.262120913617096" lon="13.743604616078839"><ele>457.00000000000006</ele><time>2026-05-03T09:26:45.999Z</time></trkpt><trkpt lat="42.26208577401106" lon="13.743688837355169"><ele>457.0</ele><time>2026-05-03T09:26:47.999Z</time></trkpt><trkpt lat="42.262159447473366" lon="13.743784066201188"><ele>457.0</ele><time>2026-05-03T09:26:49.999Z</time></trkpt><trkpt lat="42.262221176045365" lon="13.743879389595252"><ele>457.00000000000006</ele><time>2026-05-03T09:26:50.999Z</time></trkpt><trkpt lat="42.26230111283165" lon="13.743963867810498"><ele>457.00000000000006</ele><time>2026-05-03T09:26:51.999Z</time></trkpt><trkpt lat="42.262381328842665" lon="13.744009488759264"><ele>457.0</ele><time>2026-05-03T09:26:52.999Z</time></trkpt><trkpt lat="42.262472400906034" lon="13.743993681696313"><ele>457.0</ele><time>2026-05-03T09:26:53.999Z</time></trkpt><trkpt lat="42.262597993944055" lon="13.743973483784403"><ele>455.6666666666667</ele><time>2026-05-03T09:26:54.999Z</time></trkpt><trkpt lat="42.26274814837725" lon="13.743949032738929"><ele>454.33333333333337</ele><time>2026-05-03T09:26:55.999Z</time></trkpt><trkpt lat="42.2629118668793" lon="13.743931238299936"><ele>453.0</ele><time>2026-05-03T09:26:56.999Z</time></trkpt><trkpt lat="42.263063914020115" lon="13.743920930181062"><ele>452.0</ele><time>2026-05-03T09:26:57.999Z</time></trkpt><trkpt lat="42.26320247912938" lon="13.743913346462703"><ele>451.0</ele><time>2026-05-03T09:26:58.999Z</time></trkpt><trkpt lat="42.26336400577452" lon="13.743899035261366"><ele>450.0</ele><time>2026-05-03T09:26:59.999Z</time></trkpt><trkpt lat="42.26351867759643" lon="13.743906882701193"><ele>450.0</ele><time>2026-05-03T09:27:00.999Z</time></trkpt><trkpt lat="42.26366776526869" lon="13.743940965114742"><ele>450.0</ele><time>2026-05-03T09:27:01.999Z</time></trkpt><trkpt lat="42.2638141826181" lon="13.743985677932308"><ele>450.0</ele><time>2026-05-03T09:27:02.999Z</time></trkpt><trkpt lat="42.2639634572516" lon="13.744020632997385"><ele>449.5</ele><time>2026-05-03T09:27:03.999Z</time></trkpt><trkpt lat="42.2641130526472" lon="13.744040655252627"><ele>449.0</ele><time>2026-05-03T09:27:04.999Z</time></trkpt><trkpt lat="42.26425752704132" lon="13.744067721487609"><ele>448.5</ele><time>2026-05-03T09:27:05.999Z</time></trkpt><trkpt lat="42.26438756887296" lon="13.74409619032017"><ele>448.0</ele><time>2026-05-03T09:27:06.999Z</time></trkpt><trkpt lat="42.26450313672183" lon="13.744100602359103"><ele>448.0</ele><time>2026-05-03T09:27:07.999Z</time></trkpt><trkpt lat="42.26461006639924" lon="13.74408206959128"><ele>448.0</ele><time>2026-05-03T09:27:08.999Z</time></trkpt><trkpt lat="42.264718263567616" lon="13.744028742019307"><ele>448.0</ele><time>2026-05-03T09:27:09.999Z</time></trkpt><trkpt lat="42.26482643021042" lon="13.743962706967631"><ele>448.0</ele><time>2026-05-03T09:27:10.999Z</time></trkpt><trkpt lat="42.26493399064797" lon="13.74387135854683"><ele>448.0</ele><time>2026-05-03T09:27:11.999Z</time></trkpt><trkpt lat="42.265050413800545" lon="13.743759830708981"><ele>448.0</ele><time>2026-05-03T09:27:12.999Z</time></trkpt><trkpt lat="42.26516397076631" lon="13.74367397217051"><ele>448.0</ele><time>2026-05-03T09:27:13.999Z</time></trkpt><trkpt lat="42.265298643135566" lon="13.743599765584573"><ele>448.0</ele><time>2026-05-03T09:27:14.999Z</time></trkpt><trkpt lat="42.265423963655266" lon="13.743541603514739"><ele>448.0</ele><time>2026-05-03T09:27:15.999Z</time></trkpt><trkpt lat="42.26554859323951" lon="13.743503721612102"><ele>448.0</ele><time>2026-05-03T09:27:16.999Z</time></trkpt><trkpt lat="42.26567313546971" lon="13.74350270489879"><ele>448.0</ele><time>2026-05-03T09:27:17.999Z</time></trkpt><trkpt lat="42.265812816062684" lon="13.743517880310451"><ele>448.0</ele><time>2026-05-03T09:27:18.999Z</time></trkpt><trkpt lat="42.26596032358643" lon="13.743512115487658"><ele>448.0</ele><time>2026-05-03T09:27:19.999Z</time></trkpt><trkpt lat="42.2661029805101" lon="13.743494470453022"><ele>448.0</ele><time>2026-05-03T09:27:20.999Z</time></trkpt><trkpt lat="42.266237275283565" lon="13.74350563248944"><ele>448.0</ele><time>2026-05-03T09:27:21.999Z</time></trkpt><trkpt lat="42.26638089305302" lon="13.743551482681788"><ele>448.0</ele><time>2026-05-03T09:27:22.999Z</time></trkpt><trkpt lat="42.266521135103055" lon="13.743593060963665"><ele>447.5</ele><time>2026-05-03T09:27:23.999Z</time></trkpt><trkpt lat="42.26665669688014" lon="13.743598347077652"><ele>447.0</ele><time>2026-05-03T09:27:24.999Z</time></trkpt><trkpt lat="42.266784325020325" lon="13.743590649403505"><ele>446.5</ele><time>2026-05-03T09:27:25.999Z</time></trkpt><trkpt lat="42.26690106655584" lon="13.743566879337642"><ele>446.0</ele><time>2026-05-03T09:27:26.999Z</time></trkpt><trkpt lat="42.26700651861018" lon="13.743518960608629"><ele>446.0</ele><time>2026-05-03T09:27:27.999Z</time></trkpt><trkpt lat="42.2671094981282" lon="13.743449094153213"><ele>446.0</ele><time>2026-05-03T09:27:28.999Z</time></trkpt><trkpt lat="42.26721431982672" lon="13.743401883591428"><ele>446.0</ele><time>2026-05-03T09:27:29.999Z</time></trkpt><trkpt lat="42.26731860738846" lon="13.743382426265503"><ele>446.0</ele><time>2026-05-03T09:27:30.999Z</time></trkpt><trkpt lat="42.26742276966966" lon="13.74337391999967"><ele>446.0</ele><time>2026-05-03T09:27:31.999Z</time></trkpt><trkpt lat="42.267512002331976" lon="13.743361636806956"><ele>444.6</ele><time>2026-05-03T09:27:32.999Z</time></trkpt><trkpt lat="42.2676006555613" lon="13.743354315504385"><ele>443.20000000000005</ele><time>2026-05-03T09:27:33.999Z</time></trkpt><trkpt lat="42.26769331665429" lon="13.743367969653693"><ele>441.79999999999995</ele><time>2026-05-03T09:27:34.999Z</time></trkpt><trkpt lat="42.26779634752884" lon="13.743408571303798"><ele>440.4</ele><time>2026-05-03T09:27:35.999Z</time></trkpt><trkpt lat="42.267900524914836" lon="13.74346453959003"><ele>439.0</ele><time>2026-05-03T09:27:36.999Z</time></trkpt><trkpt lat="42.26800838297547" lon="13.743533949685629"><ele>440.0</ele><time>2026-05-03T09:27:37.999Z</time></trkpt><trkpt lat="42.268105068894386" lon="13.743612073600692"><ele>441.0</ele><time>2026-05-03T09:27:38.999Z</time></trkpt><trkpt lat="42.2681981580171" lon="13.743677891439111"><ele>442.0</ele><time>2026-05-03T09:27:39.999Z</time></trkpt><trkpt lat="42.26828984656389" lon="13.743722960409366"><ele>443.0</ele><time>2026-05-03T09:27:40.999Z</time></trkpt><trkpt lat="42.26838488478026" lon="13.74374850464276"><ele>444.0</ele><time>2026-05-03T09:27:41.999Z</time></trkpt><trkpt lat="42.26847161056052" lon="13.743760059329167"><ele>444.0</ele><time>2026-05-03T09:27:42.999Z</time></trkpt><trkpt lat="42.26856305801349" lon="13.743765881052347"><ele>444.0</ele><time>2026-05-03T09:27:43.999Z</time></trkpt><trkpt lat="42.268641053127126" lon="13.743783514091232"><ele>444.0</ele><time>2026-05-03T09:27:44.999Z</time></trkpt><trkpt lat="42.268718751357056" lon="13.743794988059493"><ele>444.0</ele><time>2026-05-03T09:27:45.999Z</time></trkpt><trkpt lat="42.26878087092164" lon="13.743765841599554"><ele>444.0</ele><time>2026-05-03T09:27:46.999Z</time></trkpt><trkpt lat="42.26883934099777" lon="13.743717739374057"><ele>444.0</ele><time>2026-05-03T09:27:47.999Z</time></trkpt><trkpt lat="42.26890588207021" lon="13.743650822460122"><ele>443.6666666666667</ele><time>2026-05-03T09:27:48.999Z</time></trkpt><trkpt lat="42.26896457612088" lon="13.74358364723402"><ele>443.33333333333337</ele><time>2026-05-03T09:27:49.999Z</time></trkpt><trkpt lat="42.269013251602395" lon="13.743510142558092"><ele>443.0</ele><time>2026-05-03T09:27:50.999Z</time></trkpt><trkpt lat="42.2690426635889" lon="13.7434243556411"><ele>442.6666666666667</ele><time>2026-05-03T09:27:51.999Z</time></trkpt><trkpt lat="42.26907559192767" lon="13.743330887831076"><ele>442.33333333333337</ele><time>2026-05-03T09:27:52.999Z</time></trkpt><trkpt lat="42.269118612121844" lon="13.743253143178908"><ele>442.0</ele><time>2026-05-03T09:27:53.999Z</time></trkpt><trkpt lat="42.269232992711565" lon="13.743212674099334"><ele>440.83333333333337</ele><time>2026-05-03T09:27:55.999Z</time></trkpt><trkpt lat="42.26930147731715" lon="13.743198672157051"><ele>439.6666666666667</ele><time>2026-05-03T09:27:56.999Z</time></trkpt><trkpt lat="42.26938121281678" lon="13.743191495069059"><ele>438.5</ele><time>2026-05-03T09:27:57.999Z</time></trkpt><trkpt lat="42.26945265515799" lon="13.743209017869443"><ele>437.33333333333337</ele><time>2026-05-03T09:27:58.999Z</time></trkpt><trkpt lat="42.26952620031426" lon="13.743220487174455"><ele>436.1666666666667</ele><time>2026-05-03T09:27:59.999Z</time></trkpt><trkpt lat="42.26959292042914" lon="13.74324545226479"><ele>435.0</ele><time>2026-05-03T09:28:00.999Z</time></trkpt><trkpt lat="42.26967538000569" lon="13.743282965192117"><ele>435.0</ele><time>2026-05-03T09:28:01.999Z</time></trkpt><trkpt lat="42.2697636957962" lon="13.743341742537293"><ele>435.0</ele><time>2026-05-03T09:28:02.999Z</time></trkpt><trkpt lat="42.26984950476156" lon="13.743397210120266"><ele>435.0</ele><time>2026-05-03T09:28:03.999Z</time></trkpt><trkpt lat="42.26992264800708" lon="13.743449198413852"><ele>435.0</ele><time>2026-05-03T09:28:04.999Z</time></trkpt><trkpt lat="42.26998776081036" lon="13.74351986465278"><ele>435.0</ele><time>2026-05-03T09:28:05.999Z</time></trkpt><trkpt lat="42.27007059864947" lon="13.74360102149919"><ele>433.6</ele><time>2026-05-03T09:28:06.999Z</time></trkpt><trkpt lat="42.270147433514694" lon="13.743658503868497"><ele>432.2</ele><time>2026-05-03T09:28:07.999Z</time></trkpt><trkpt lat="42.2702356693885" lon="13.743712798843685"><ele>430.79999999999995</ele><time>2026-05-03T09:28:08.999Z</time></trkpt><trkpt lat="42.27033676890579" lon="13.743776872131054"><ele>429.4</ele><time>2026-05-03T09:28:09.999Z</time></trkpt><trkpt lat="42.27043294655061" lon="13.743841145080474"><ele>428.0</ele><time>2026-05-03T09:28:10.999Z</time></trkpt><trkpt lat="42.27052961683832" lon="13.74389632570727"><ele>427.79999999999995</ele><time>2026-05-03T09:28:11.999Z</time></trkpt><trkpt lat="42.27062569308438" lon="13.743927769337557"><ele>427.59999999999997</ele><time>2026-05-03T09:28:12.999Z</time></trkpt><trkpt lat="42.27073599777429" lon="13.743957240135018"><ele>427.40000000000003</ele><time>2026-05-03T09:28:13.999Z</time></trkpt><trkpt lat="42.270827246375205" lon="13.744018499705472"><ele>427.20000000000005</ele><time>2026-05-03T09:28:14.999Z</time></trkpt><trkpt lat="42.270896441431134" lon="13.744082942107067"><ele>427.0</ele><time>2026-05-03T09:28:15.999Z</time></trkpt><trkpt lat="42.27092623558632" lon="13.74418827400225"><ele>427.00000000000006</ele><time>2026-05-03T09:28:17.999Z</time></trkpt><trkpt lat="42.27091415274497" lon="13.74428112378973"><ele>427.0</ele><time>2026-05-03T09:28:20.999Z</time></trkpt><trkpt lat="42.27092997386584" lon="13.744371727843653"><ele>427.0</ele><time>2026-05-03T09:28:22.999Z</time></trkpt><trkpt lat="42.270968706736866" lon="13.74444897445691"><ele>427.0</ele><time>2026-05-03T09:28:23.999Z</time></trkpt><trkpt lat="42.271026939365186" lon="13.744588794951587"><ele>427.00000000000006</ele><time>2026-05-03T09:28:25.999Z</time></trkpt><trkpt lat="42.27107700942686" lon="13.744704175319034"><ele>427.0</ele><time>2026-05-03T09:28:27.999Z</time></trkpt><trkpt lat="42.271145287136804" lon="13.744871473867327"><ele>426.25</ele><time>2026-05-03T09:28:29.999Z</time></trkpt><trkpt lat="42.27120366074617" lon="13.744991146112852"><ele>425.5</ele><time>2026-05-03T09:28:30.999Z</time></trkpt><trkpt lat="42.27128387126959" lon="13.745138928327142"><ele>424.75</ele><time>2026-05-03T09:28:31.999Z</time></trkpt><trkpt lat="42.271355218529145" lon="13.745288321361391"><ele>424.0</ele><time>2026-05-03T09:28:32.999Z</time></trkpt><trkpt lat="42.27141303414648" lon="13.745421335766482"><ele>423.79999999999995</ele><time>2026-05-03T09:28:33.999Z</time></trkpt><trkpt lat="42.2714544124366" lon="13.745545280234898"><ele>423.59999999999997</ele><time>2026-05-03T09:28:34.999Z</time></trkpt><trkpt lat="42.27147276639436" lon="13.74567679478065"><ele>423.4</ele><time>2026-05-03T09:28:35.999Z</time></trkpt><trkpt lat="42.27148317803822" lon="13.745813304397037"><ele>423.2</ele><time>2026-05-03T09:28:36.999Z</time></trkpt><trkpt lat="42.27148570908594" lon="13.745957894306061"><ele>423.0</ele><time>2026-05-03T09:28:37.999Z</time></trkpt><trkpt lat="42.27150816114397" lon="13.746134473832116"><ele>423.0</ele><time>2026-05-03T09:28:38.999Z</time></trkpt><trkpt lat="42.2715473872893" lon="13.74628194831475"><ele>423.0</ele><time>2026-05-03T09:28:39.999Z</time></trkpt><trkpt lat="42.27159920458833" lon="13.746422630115122"><ele>423.0</ele><time>2026-05-03T09:28:40.999Z</time></trkpt><trkpt lat="42.27166218852338" lon="13.746577637374221"><ele>423.0</ele><time>2026-05-03T09:28:41.999Z</time></trkpt><trkpt lat="42.271740463650396" lon="13.746737126425549"><ele>425.0</ele><time>2026-05-03T09:28:42.999Z</time></trkpt><trkpt lat="42.271821027079746" lon="13.746906777130032"><ele>427.0</ele><time>2026-05-03T09:28:43.999Z</time></trkpt><trkpt lat="42.271904109512974" lon="13.74706562236476"><ele>429.0</ele><time>2026-05-03T09:28:44.999Z</time></trkpt><trkpt lat="42.271981164092644" lon="13.747215176385279"><ele>431.0</ele><time>2026-05-03T09:28:45.999Z</time></trkpt><trkpt lat="42.272058574593395" lon="13.747364717631747"><ele>431.0</ele><time>2026-05-03T09:28:46.999Z</time></trkpt><trkpt lat="42.272148454292704" lon="13.7475127484205"><ele>431.0</ele><time>2026-05-03T09:28:47.999Z</time></trkpt><trkpt lat="42.27222186564075" lon="13.74763850470214"><ele>431.0</ele><time>2026-05-03T09:28:48.999Z</time></trkpt><trkpt lat="42.27227247963168" lon="13.747734726682229"><ele>431.0</ele><time>2026-05-03T09:28:49.999Z</time></trkpt><trkpt lat="42.27232352744418" lon="13.747808464555032"><ele>431.0</ele><time>2026-05-03T09:28:50.999Z</time></trkpt><trkpt lat="42.272378047331486" lon="13.74786209971428"><ele>429.75</ele><time>2026-05-03T09:28:51.999Z</time></trkpt><trkpt lat="42.272447142502145" lon="13.747896215007872"><ele>428.5</ele><time>2026-05-03T09:28:52.999Z</time></trkpt><trkpt lat="42.2725458782209" lon="13.747957994898805"><ele>427.25</ele><time>2026-05-03T09:28:53.999Z</time></trkpt><trkpt lat="42.27265461013821" lon="13.74805827060563"><ele>426.0</ele><time>2026-05-03T09:28:54.999Z</time></trkpt><trkpt lat="42.27276979053461" lon="13.748191121340156"><ele>426.0</ele><time>2026-05-03T09:28:55.999Z</time></trkpt><trkpt lat="42.27288531049826" lon="13.748335399419027"><ele>426.0</ele><time>2026-05-03T09:28:56.999Z</time></trkpt><trkpt lat="42.272990191865794" lon="13.74849103290065"><ele>426.0</ele><time>2026-05-03T09:28:57.999Z</time></trkpt><trkpt lat="42.273080009133885" lon="13.748644203525348"><ele>424.25</ele><time>2026-05-03T09:28:58.999Z</time></trkpt><trkpt lat="42.27316921868921" lon="13.748773968560469"><ele>422.5</ele><time>2026-05-03T09:28:59.999Z</time></trkpt><trkpt lat="42.27326047712638" lon="13.74888958095238"><ele>420.75</ele><time>2026-05-03T09:29:00.999Z</time></trkpt><trkpt lat="42.27335529202313" lon="13.748995012709912"><ele>419.0</ele><time>2026-05-03T09:29:01.999Z</time></trkpt><trkpt lat="42.273453669640794" lon="13.74909939925147"><ele>419.0</ele><time>2026-05-03T09:29:02.999Z</time></trkpt><trkpt lat="42.273564954700376" lon="13.749203979415581"><ele>419.0</ele><time>2026-05-03T09:29:03.999Z</time></trkpt><trkpt lat="42.273671775577604" lon="13.749286934192254"><ele>419.0</ele><time>2026-05-03T09:29:04.999Z</time></trkpt><trkpt lat="42.273777637459204" lon="13.74934960061886"><ele>419.0</ele><time>2026-05-03T09:29:05.999Z</time></trkpt><trkpt lat="42.27385661210689" lon="13.749401069047481"><ele>419.0</ele><time>2026-05-03T09:29:07Z</time></trkpt><trkpt lat="42.273923285986506" lon="13.749472635761148"><ele>419.0</ele><time>2026-05-03T09:29:08Z</time></trkpt><trkpt lat="42.27396500967305" lon="13.749629360897073"><ele>419.0</ele><time>2026-05-03T09:29:10Z</time></trkpt><trkpt lat="42.273958257210744" lon="13.749732092844264"><ele>419.0</ele><time>2026-05-03T09:29:11Z</time></trkpt><trkpt lat="42.27391900235868" lon="13.749836366927859"><ele>419.0</ele><time>2026-05-03T09:29:12Z</time></trkpt><trkpt lat="42.2738667616683" lon="13.749966481093262"><ele>419.0</ele><time>2026-05-03T09:29:13Z</time></trkpt><trkpt lat="42.273806970059674" lon="13.750120586138088"><ele>419.0</ele><time>2026-05-03T09:29:14Z</time></trkpt><trkpt lat="42.27374263778596" lon="13.750273200863903"><ele>419.0</ele><time>2026-05-03T09:29:15Z</time></trkpt><trkpt lat="42.27368138908036" lon="13.750408356029496"><ele>419.0</ele><time>2026-05-03T09:29:16Z</time></trkpt><trkpt lat="42.27363376018545" lon="13.75051838858938"><ele>418.99999999999994</ele><time>2026-05-03T09:29:17Z</time></trkpt><trkpt lat="42.27361363686527" lon="13.750608271062681"><ele>419.0</ele><time>2026-05-03T09:29:18Z</time></trkpt><trkpt lat="42.273620079250456" lon="13.750696474784059"><ele>419.0</ele><time>2026-05-03T09:29:19Z</time></trkpt><trkpt lat="42.273651117031065" lon="13.750813878651426"><ele>419.0</ele><time>2026-05-03T09:29:20Z</time></trkpt><trkpt lat="42.27369760169226" lon="13.750947510372205"><ele>418.99999999999994</ele><time>2026-05-03T09:29:21Z</time></trkpt><trkpt lat="42.273754276550775" lon="13.751073855339442"><ele>419.0</ele><time>2026-05-03T09:29:22Z</time></trkpt><trkpt lat="42.273813862345435" lon="13.751157093594333"><ele>418.6</ele><time>2026-05-03T09:29:23Z</time></trkpt><trkpt lat="42.27388519613518" lon="13.751210448064796"><ele>418.2</ele><time>2026-05-03T09:29:24Z</time></trkpt><trkpt lat="42.27396902615855" lon="13.751230150007354"><ele>417.8</ele><time>2026-05-03T09:29:25Z</time></trkpt><trkpt lat="42.27406171624396" lon="13.751208187483533"><ele>417.40000000000003</ele><time>2026-05-03T09:29:26Z</time></trkpt><trkpt lat="42.274164958414765" lon="13.75115104350606"><ele>417.0</ele><time>2026-05-03T09:29:27Z</time></trkpt><trkpt lat="42.27428077958196" lon="13.751085803176794"><ele>416.75</ele><time>2026-05-03T09:29:28Z</time></trkpt><trkpt lat="42.27441004053368" lon="13.751030732970648"><ele>416.5</ele><time>2026-05-03T09:29:29Z</time></trkpt><trkpt lat="42.27452495726729" lon="13.750998227865967"><ele>416.25</ele><time>2026-05-03T09:29:30Z</time></trkpt><trkpt lat="42.27463174883406" lon="13.750973672913217"><ele>416.0</ele><time>2026-05-03T09:29:31Z</time></trkpt><trkpt lat="42.27476247866333" lon="13.75095429832516"><ele>415.0</ele><time>2026-05-03T09:29:32Z</time></trkpt><trkpt lat="42.274898914643266" lon="13.7509486901274"><ele>414.0</ele><time>2026-05-03T09:29:33Z</time></trkpt><trkpt lat="42.275039812955285" lon="13.750951153724646"><ele>413.0</ele><time>2026-05-03T09:29:34Z</time></trkpt><trkpt lat="42.27517907225808" lon="13.750960079008214"><ele>412.0</ele><time>2026-05-03T09:29:35Z</time></trkpt><trkpt lat="42.275332697529045" lon="13.75097269012153"><ele>412.0</ele><time>2026-05-03T09:29:36Z</time></trkpt><trkpt lat="42.27548922872455" lon="13.750982665178535"><ele>412.0</ele><time>2026-05-03T09:29:37Z</time></trkpt><trkpt lat="42.27562986262881" lon="13.751001632736765"><ele>412.0</ele><time>2026-05-03T09:29:37.999Z</time></trkpt><trkpt lat="42.27575842256276" lon="13.75101281512328"><ele>412.0</ele><time>2026-05-03T09:29:38.999Z</time></trkpt><trkpt lat="42.27587434306274" lon="13.751018470789981"><ele>411.40000000000003</ele><time>2026-05-03T09:29:39.999Z</time></trkpt><trkpt lat="42.275979315067936" lon="13.751033936608197"><ele>410.8</ele><time>2026-05-03T09:29:40.999Z</time></trkpt><trkpt lat="42.27606928242405" lon="13.751066740240773"><ele>410.2</ele><time>2026-05-03T09:29:41.999Z</time></trkpt><trkpt lat="42.27615338848636" lon="13.751141281135904"><ele>409.6</ele><time>2026-05-03T09:29:42.999Z</time></trkpt><trkpt lat="42.2762241616802" lon="13.751246583178087"><ele>409.0</ele><time>2026-05-03T09:29:43.999Z</time></trkpt><trkpt lat="42.27630177874593" lon="13.75135977465259"><ele>408.2</ele><time>2026-05-03T09:29:44.999Z</time></trkpt><trkpt lat="42.27638569266671" lon="13.751471204312436"><ele>407.4</ele><time>2026-05-03T09:29:45.999Z</time></trkpt><trkpt lat="42.276467126961094" lon="13.75156086155406"><ele>406.6</ele><time>2026-05-03T09:29:46.999Z</time></trkpt><trkpt lat="42.27655239121209" lon="13.751622295098748"><ele>405.8</ele><time>2026-05-03T09:29:47.999Z</time></trkpt><trkpt lat="42.27664608829879" lon="13.75165943211686"><ele>405.0</ele><time>2026-05-03T09:29:48.999Z</time></trkpt><trkpt lat="42.27675549266555" lon="13.75168722938652"><ele>404.25</ele><time>2026-05-03T09:29:49.999Z</time></trkpt><trkpt lat="42.27689096213342" lon="13.751724995214289"><ele>403.5</ele><time>2026-05-03T09:29:50.999Z</time></trkpt><trkpt lat="42.27702845289713" lon="13.751763908935633"><ele>402.75</ele><time>2026-05-03T09:29:51.999Z</time></trkpt><trkpt lat="42.27715671870525" lon="13.751794559025345"><ele>402.0</ele><time>2026-05-03T09:29:52.999Z</time></trkpt><trkpt lat="42.27728511516596" lon="13.751817615622882"><ele>401.8</ele><time>2026-05-03T09:29:53.999Z</time></trkpt><trkpt lat="42.27739202655625" lon="13.751842380133201"><ele>401.6</ele><time>2026-05-03T09:29:54.999Z</time></trkpt><trkpt lat="42.277483342550106" lon="13.751881220118964"><ele>401.40000000000003</ele><time>2026-05-03T09:29:55.999Z</time></trkpt><trkpt lat="42.2775555574473" lon="13.751934047507614"><ele>401.20000000000005</ele><time>2026-05-03T09:29:56.999Z</time></trkpt><trkpt lat="42.277635223538304" lon="13.751987281028798"><ele>401.0</ele><time>2026-05-03T09:29:57.999Z</time></trkpt><trkpt lat="42.27775696219213" lon="13.752036828708697"><ele>401.3333333333333</ele><time>2026-05-03T09:29:58.999Z</time></trkpt><trkpt lat="42.2779033036828" lon="13.752078269479117"><ele>401.66666666666663</ele><time>2026-05-03T09:29:59.999Z</time></trkpt><trkpt lat="42.27805635616323" lon="13.752130362658685"><ele>402.0</ele><time>2026-05-03T09:30:00.999Z</time></trkpt><trkpt lat="42.27821908878415" lon="13.752176733739521"><ele>402.0</ele><time>2026-05-03T09:30:01.999Z</time></trkpt><trkpt lat="42.278393630867924" lon="13.752195081975744"><ele>402.0</ele><time>2026-05-03T09:30:02.999Z</time></trkpt><trkpt lat="42.27858568812598" lon="13.75219760031874"><ele>402.0</ele><time>2026-05-03T09:30:03.999Z</time></trkpt><trkpt lat="42.27878552366731" lon="13.752200618718332"><ele>400.0</ele><time>2026-05-03T09:30:04.999Z</time></trkpt><trkpt lat="42.27900817255347" lon="13.752201611658084"><ele>398.0</ele><time>2026-05-03T09:30:05.999Z</time></trkpt><trkpt lat="42.279249176484406" lon="13.752196861130216"><ele>398.0</ele><time>2026-05-03T09:30:06.999Z</time></trkpt><trkpt lat="42.27948124690183" lon="13.752188726001604"><ele>398.0</ele><time>2026-05-03T09:30:07.999Z</time></trkpt><trkpt lat="42.27970039604471" lon="13.75217614250813"><ele>395.66666666666663</ele><time>2026-05-03T09:30:08.999Z</time></trkpt><trkpt lat="42.27990413275694" lon="13.752168636963626"><ele>393.33333333333337</ele><time>2026-05-03T09:30:09.999Z</time></trkpt><trkpt lat="42.28007848175612" lon="13.752163200886747"><ele>391.0</ele><time>2026-05-03T09:30:10.999Z</time></trkpt><trkpt lat="42.280235809728765" lon="13.752180160580743"><ele>391.0</ele><time>2026-05-03T09:30:11.999Z</time></trkpt><trkpt lat="42.28039595933555" lon="13.752222493696541"><ele>391.0</ele><time>2026-05-03T09:30:12.999Z</time></trkpt><trkpt lat="42.28055993837416" lon="13.752279722824936"><ele>391.0</ele><time>2026-05-03T09:30:13.999Z</time></trkpt><trkpt lat="42.28071257502062" lon="13.752353133760376"><ele>390.33333333333337</ele><time>2026-05-03T09:30:14.999Z</time></trkpt><trkpt lat="42.280855195434675" lon="13.75244234167161"><ele>389.66666666666663</ele><time>2026-05-03T09:30:15.999Z</time></trkpt><trkpt lat="42.280997137229114" lon="13.752564844564485"><ele>389.0</ele><time>2026-05-03T09:30:16.999Z</time></trkpt><trkpt lat="42.281147509616325" lon="13.752720945342482"><ele>389.0</ele><time>2026-05-03T09:30:17.999Z</time></trkpt><trkpt lat="42.28130392135883" lon="13.752893761239195"><ele>389.0</ele><time>2026-05-03T09:30:18.999Z</time></trkpt><trkpt lat="42.281460918730914" lon="13.753068671022627"><ele>389.0</ele><time>2026-05-03T09:30:19.999Z</time></trkpt><trkpt lat="42.28160208997736" lon="13.753230819577634"><ele>389.0</ele><time>2026-05-03T09:30:20.999Z</time></trkpt><trkpt lat="42.281730588815115" lon="13.753388798238452"><ele>389.0</ele><time>2026-05-03T09:30:21.999Z</time></trkpt><trkpt lat="42.281854740893934" lon="13.753540008222739"><ele>389.0</ele><time>2026-05-03T09:30:22.999Z</time></trkpt><trkpt lat="42.2819794356579" lon="13.753671732047442"><ele>389.66666666666663</ele><time>2026-05-03T09:30:23.999Z</time></trkpt><trkpt lat="42.2821265827687" lon="13.753795542019725"><ele>390.33333333333337</ele><time>2026-05-03T09:30:24.999Z</time></trkpt><trkpt lat="42.282272360586695" lon="13.75389521428708"><ele>391.0</ele><time>2026-05-03T09:30:25.999Z</time></trkpt><trkpt lat="42.282417833430934" lon="13.753983767126389"><ele>391.0</ele><time>2026-05-03T09:30:26.999Z</time></trkpt><trkpt lat="42.282578301674846" lon="13.754085005857002"><ele>391.0</ele><time>2026-05-03T09:30:27.999Z</time></trkpt><trkpt lat="42.282742197863456" lon="13.754187069382512"><ele>391.0</ele><time>2026-05-03T09:30:28.999Z</time></trkpt><trkpt lat="42.28290881555271" lon="13.754285090526217"><ele>390.0</ele><time>2026-05-03T09:30:29.999Z</time></trkpt><trkpt lat="42.2830606631827" lon="13.754372484502737"><ele>389.0</ele><time>2026-05-03T09:30:30.999Z</time></trkpt><trkpt lat="42.28318871036826" lon="13.754445901168726"><ele>388.0</ele><time>2026-05-03T09:30:31.999Z</time></trkpt><trkpt lat="42.28328537480337" lon="13.754491760399448"><ele>387.0</ele><time>2026-05-03T09:30:32.999Z</time></trkpt><trkpt lat="42.283359454328576" lon="13.754523506401291"><ele>387.0</ele><time>2026-05-03T09:30:33.999Z</time></trkpt><trkpt lat="42.283438467539405" lon="13.754556837198978"><ele>387.0</ele><time>2026-05-03T09:30:34.999Z</time></trkpt><trkpt lat="42.28354963610704" lon="13.754578172744369"><ele>387.0</ele><time>2026-05-03T09:30:36.999Z</time></trkpt><trkpt lat="42.283608197511484" lon="13.754509888637665"><ele>387.0</ele><time>2026-05-03T09:30:38.999Z</time></trkpt><trkpt lat="42.2835939930947" lon="13.754335719315886"><ele>387.0</ele><time>2026-05-03T09:30:40.999Z</time></trkpt><trkpt lat="42.28356076626863" lon="13.754188254768849"><ele>385.6666666666667</ele><time>2026-05-03T09:30:41.999Z</time></trkpt><trkpt lat="42.283531188259985" lon="13.75401204769361"><ele>384.33333333333337</ele><time>2026-05-03T09:30:42.999Z</time></trkpt><trkpt lat="42.28350005350686" lon="13.753808706847547"><ele>383.0</ele><time>2026-05-03T09:30:43.999Z</time></trkpt><trkpt lat="42.2834667636072" lon="13.753583998373083"><ele>383.6666666666667</ele><time>2026-05-03T09:30:44.999Z</time></trkpt><trkpt lat="42.28343808251003" lon="13.75336206258659"><ele>384.33333333333337</ele><time>2026-05-03T09:30:45.999Z</time></trkpt><trkpt lat="42.28340704699522" lon="13.753131555383368"><ele>385.0</ele><time>2026-05-03T09:30:46.999Z</time></trkpt><trkpt lat="42.28339326715771" lon="13.752903081638387"><ele>385.25</ele><time>2026-05-03T09:30:47.999Z</time></trkpt><trkpt lat="42.28338477488373" lon="13.752667690401"><ele>385.5</ele><time>2026-05-03T09:30:48.999Z</time></trkpt><trkpt lat="42.28338719628328" lon="13.752471874878651"><ele>385.75</ele><time>2026-05-03T09:30:49.999Z</time></trkpt><trkpt lat="42.28338944570945" lon="13.752353928871957"><ele>386.0</ele><time>2026-05-03T09:30:50.999Z</time></trkpt><trkpt lat="42.28342374072427" lon="13.752227605918868"><ele>386.0</ele><time>2026-05-03T09:30:52.999Z</time></trkpt><trkpt lat="42.28348390977763" lon="13.752198827605433"><ele>386.0</ele><time>2026-05-03T09:30:53.999Z</time></trkpt><trkpt lat="42.28356961819598" lon="13.75220073313514"><ele>386.0</ele><time>2026-05-03T09:30:54.999Z</time></trkpt><trkpt lat="42.283689216054206" lon="13.75223384669507"><ele>386.0</ele><time>2026-05-03T09:30:55.999Z</time></trkpt><trkpt lat="42.2838306277389" lon="13.752274534936895"><ele>386.0</ele><time>2026-05-03T09:30:56.999Z</time></trkpt><trkpt lat="42.28399545023484" lon="13.752316992392567"><ele>385.5</ele><time>2026-05-03T09:30:57.999Z</time></trkpt><trkpt lat="42.28415476682411" lon="13.752359928732586"><ele>385.0</ele><time>2026-05-03T09:30:58.999Z</time></trkpt><trkpt lat="42.28430076002361" lon="13.752403535092236"><ele>384.5</ele><time>2026-05-03T09:30:59.999Z</time></trkpt><trkpt lat="42.28443285546781" lon="13.752449244341873"><ele>384.0</ele><time>2026-05-03T09:31:00.999Z</time></trkpt><trkpt lat="42.28456213340636" lon="13.75249738049893"><ele>384.0</ele><time>2026-05-03T09:31:01.999Z</time></trkpt><trkpt lat="42.2846860586384" lon="13.75254212819653"><ele>384.0</ele><time>2026-05-03T09:31:02.999Z</time></trkpt><trkpt lat="42.28481238334603" lon="13.75259291238679"><ele>384.0</ele><time>2026-05-03T09:31:03.999Z</time></trkpt><trkpt lat="42.28492830054417" lon="13.752651290532599"><ele>384.0</ele><time>2026-05-03T09:31:04.999Z</time></trkpt><trkpt lat="42.28503826285016" lon="13.752718633313261"><ele>383.5</ele><time>2026-05-03T09:31:05.999Z</time></trkpt><trkpt lat="42.28516133845035" lon="13.75279253225566"><ele>383.0</ele><time>2026-05-03T09:31:06.999Z</time></trkpt><trkpt lat="42.28528025169068" lon="13.752846907399377"><ele>382.5</ele><time>2026-05-03T09:31:07.999Z</time></trkpt><trkpt lat="42.285400744291074" lon="13.752890616777117"><ele>382.0</ele><time>2026-05-03T09:31:08.999Z</time></trkpt><trkpt lat="42.2855200722907" lon="13.752929467275205"><ele>381.5</ele><time>2026-05-03T09:31:09.999Z</time></trkpt><trkpt lat="42.28563222322725" lon="13.752965640661644"><ele>381.0</ele><time>2026-05-03T09:31:10.999Z</time></trkpt><trkpt lat="42.28573832659273" lon="13.753001771131496"><ele>380.5</ele><time>2026-05-03T09:31:11.999Z</time></trkpt><trkpt lat="42.28584483809631" lon="13.753040740720678"><ele>380.0</ele><time>2026-05-03T09:31:12.999Z</time></trkpt><trkpt lat="42.28595832966783" lon="13.75308090444853"><ele>380.0</ele><time>2026-05-03T09:31:13.999Z</time></trkpt><trkpt lat="42.286039426561814" lon="13.753106381152426"><ele>380.0</ele><time>2026-05-03T09:31:14.999Z</time></trkpt><trkpt lat="42.286101410196785" lon="13.753124839793049"><ele>380.0</ele><time>2026-05-03T09:31:15.999Z</time></trkpt><trkpt lat="42.28617887536585" lon="13.753139524819247"><ele>380.0</ele><time>2026-05-03T09:31:17.999Z</time></trkpt><trkpt lat="42.286254828714206" lon="13.753149164496339"><ele>380.0</ele><time>2026-05-03T09:31:19.999Z</time></trkpt><trkpt lat="42.286351935071536" lon="13.753174510689776"><ele>380.0</ele><time>2026-05-03T09:31:20.999Z</time></trkpt><trkpt lat="42.28648752000588" lon="13.75321239851575"><ele>379.33333333333337</ele><time>2026-05-03T09:31:22Z</time></trkpt><trkpt lat="42.28663057292759" lon="13.753259320692642"><ele>378.6666666666667</ele><time>2026-05-03T09:31:23Z</time></trkpt><trkpt lat="42.28677985100073" lon="13.753300525554693"><ele>378.0</ele><time>2026-05-03T09:31:24Z</time></trkpt><trkpt lat="42.286935332883225" lon="13.753330904971317"><ele>378.0</ele><time>2026-05-03T09:31:25Z</time></trkpt><trkpt lat="42.28708668875576" lon="13.753380917613324"><ele>378.0</ele><time>2026-05-03T09:31:26Z</time></trkpt><trkpt lat="42.2872363406149" lon="13.753461380124183"><ele>378.0</ele><time>2026-05-03T09:31:27Z</time></trkpt><trkpt lat="42.287376451065754" lon="13.75355292100128"><ele>377.4</ele><time>2026-05-03T09:31:28Z</time></trkpt><trkpt lat="42.28750075268962" lon="13.753631869027279"><ele>376.79999999999995</ele><time>2026-05-03T09:31:29Z</time></trkpt><trkpt lat="42.287603736999124" lon="13.75370085547117"><ele>376.2</ele><time>2026-05-03T09:31:30Z</time></trkpt><trkpt lat="42.287683379957194" lon="13.753761991098443"><ele>375.6</ele><time>2026-05-03T09:31:31Z</time></trkpt><trkpt lat="42.28775456352706" lon="13.753804509433381"><ele>375.0</ele><time>2026-05-03T09:31:32Z</time></trkpt><trkpt lat="42.28782576442667" lon="13.753807524155832"><ele>375.0</ele><time>2026-05-03T09:31:33Z</time></trkpt><trkpt lat="42.28789897321423" lon="13.753754657568068"><ele>375.0</ele><time>2026-05-03T09:31:34Z</time></trkpt><trkpt lat="42.28796689725829" lon="13.753651504407626"><ele>375.0</ele><time>2026-05-03T09:31:35Z</time></trkpt><trkpt lat="42.28804694552195" lon="13.753522047766968"><ele>375.0</ele><time>2026-05-03T09:31:36Z</time></trkpt><trkpt lat="42.288141588446784" lon="13.753384297594172"><ele>375.0</ele><time>2026-05-03T09:31:37Z</time></trkpt><trkpt lat="42.28824361720323" lon="13.753249281157268"><ele>374.75</ele><time>2026-05-03T09:31:38Z</time></trkpt><trkpt lat="42.28833052496178" lon="13.753132621852801"><ele>374.5</ele><time>2026-05-03T09:31:39Z</time></trkpt><trkpt lat="42.28841788437616" lon="13.75299380975042"><ele>374.25</ele><time>2026-05-03T09:31:40Z</time></trkpt><trkpt lat="42.28851184809153" lon="13.752847284568718"><ele>374.0</ele><time>2026-05-03T09:31:41Z</time></trkpt><trkpt lat="42.288611432550134" lon="13.752695034518993"><ele>374.75</ele><time>2026-05-03T09:31:42Z</time></trkpt><trkpt lat="42.28869504097254" lon="13.752543922185152"><ele>375.5</ele><time>2026-05-03T09:31:43Z</time></trkpt><trkpt lat="42.288781062176874" lon="13.752390539313884"><ele>376.25</ele><time>2026-05-03T09:31:43.999Z</time></trkpt><trkpt lat="42.288858758874085" lon="13.75223750172937"><ele>377.0</ele><time>2026-05-03T09:31:44.999Z</time></trkpt><trkpt lat="42.28893687562116" lon="13.75206030521733"><ele>377.0</ele><time>2026-05-03T09:31:45.999Z</time></trkpt><trkpt lat="42.28901566910892" lon="13.751892926982089"><ele>377.0</ele><time>2026-05-03T09:31:47Z</time></trkpt><trkpt lat="42.289093861087295" lon="13.751726252631038"><ele>377.0</ele><time>2026-05-03T09:31:48Z</time></trkpt><trkpt lat="42.2891647802164" lon="13.751557770919897"><ele>377.0</ele><time>2026-05-03T09:31:49Z</time></trkpt><trkpt lat="42.289237112885" lon="13.7513771492098"><ele>378.25</ele><time>2026-05-03T09:31:50Z</time></trkpt><trkpt lat="42.28930556749945" lon="13.751199824871112"><ele>379.5</ele><time>2026-05-03T09:31:51Z</time></trkpt><trkpt lat="42.289369180668736" lon="13.751024441071193"><ele>380.75</ele><time>2026-05-03T09:31:52Z</time></trkpt><trkpt lat="42.289432960706115" lon="13.750862031125966"><ele>382.0</ele><time>2026-05-03T09:31:53Z</time></trkpt><trkpt lat="42.289489806682916" lon="13.750709267312539"><ele>382.0</ele><time>2026-05-03T09:31:54Z</time></trkpt><trkpt lat="42.2895571172904" lon="13.750568107606385"><ele>382.0</ele><time>2026-05-03T09:31:55Z</time></trkpt><trkpt lat="42.28964148444555" lon="13.750428583192043"><ele>382.0</ele><time>2026-05-03T09:31:56Z</time></trkpt><trkpt lat="42.289742089984934" lon="13.750276107403714"><ele>382.0</ele><time>2026-05-03T09:31:57Z</time></trkpt><trkpt lat="42.28982847454017" lon="13.750129361721978"><ele>381.66666666666663</ele><time>2026-05-03T09:31:58Z</time></trkpt><trkpt lat="42.28991391620258" lon="13.749964002855698"><ele>381.3333333333333</ele><time>2026-05-03T09:31:59Z</time></trkpt><trkpt lat="42.290000297438745" lon="13.749780549628245"><ele>381.0</ele><time>2026-05-03T09:32:00Z</time></trkpt><trkpt lat="42.29007591017603" lon="13.749598546052312"><ele>381.0</ele><time>2026-05-03T09:32:01Z</time></trkpt><trkpt lat="42.290143915682734" lon="13.749438069002936"><ele>381.0</ele><time>2026-05-03T09:32:02Z</time></trkpt><trkpt lat="42.290213640120875" lon="13.749288822629346"><ele>381.0</ele><time>2026-05-03T09:32:03Z</time></trkpt><trkpt lat="42.290295587229565" lon="13.749142243735966"><ele>381.0</ele><time>2026-05-03T09:32:04Z</time></trkpt><trkpt lat="42.29039467989913" lon="13.748994597899266"><ele>381.0</ele><time>2026-05-03T09:32:05Z</time></trkpt><trkpt lat="42.29050228954427" lon="13.748840291336693"><ele>381.0</ele><time>2026-05-03T09:32:06Z</time></trkpt><trkpt lat="42.2906015626594" lon="13.748677922075524"><ele>381.0</ele><time>2026-05-03T09:32:07Z</time></trkpt><trkpt lat="42.290693035719855" lon="13.748518954193417"><ele>381.25</ele><time>2026-05-03T09:32:08Z</time></trkpt><trkpt lat="42.29077498788528" lon="13.748374176489582"><ele>381.5</ele><time>2026-05-03T09:32:09Z</time></trkpt><trkpt lat="42.2908584639682" lon="13.748244576787409"><ele>381.75</ele><time>2026-05-03T09:32:10Z</time></trkpt><trkpt lat="42.290939077573434" lon="13.74811615358601"><ele>382.0</ele><time>2026-05-03T09:32:11Z</time></trkpt><trkpt lat="42.291001282104496" lon="13.74799898141639"><ele>382.0</ele><time>2026-05-03T09:32:12Z</time></trkpt><trkpt lat="42.29106784440018" lon="13.747874903733448"><ele>382.0</ele><time>2026-05-03T09:32:13Z</time></trkpt><trkpt lat="42.29114006034342" lon="13.747753824181116"><ele>382.0</ele><time>2026-05-03T09:32:14Z</time></trkpt><trkpt lat="42.291204738752654" lon="13.747647038246916"><ele>382.0</ele><time>2026-05-03T09:32:15Z</time></trkpt><trkpt lat="42.291269109398485" lon="13.747524607256834"><ele>382.0</ele><time>2026-05-03T09:32:16Z</time></trkpt><trkpt lat="42.29132933543682" lon="13.747402972047656"><ele>382.40000000000003</ele><time>2026-05-03T09:32:17Z</time></trkpt><trkpt lat="42.29139568840512" lon="13.747271269428415"><ele>382.8</ele><time>2026-05-03T09:32:18Z</time></trkpt><trkpt lat="42.29147124191292" lon="13.747150445543886"><ele>383.2</ele><time>2026-05-03T09:32:19Z</time></trkpt><trkpt lat="42.29154400629155" lon="13.747055327067436"><ele>383.6</ele><time>2026-05-03T09:32:20Z</time></trkpt><trkpt lat="42.291609955312836" lon="13.746963540042007"><ele>384.0</ele><time>2026-05-03T09:32:21Z</time></trkpt><trkpt lat="42.291664040756196" lon="13.746859194767344"><ele>384.5</ele><time>2026-05-03T09:32:22Z</time></trkpt><trkpt lat="42.29170792501155" lon="13.74675045906131"><ele>385.0</ele><time>2026-05-03T09:32:23Z</time></trkpt><trkpt lat="42.291754721638085" lon="13.746668140013544"><ele>385.5</ele><time>2026-05-03T09:32:24Z</time></trkpt><trkpt lat="42.29180058721903" lon="13.746597756629376"><ele>386.0</ele><time>2026-05-03T09:32:25Z</time></trkpt><trkpt lat="42.291879098467" lon="13.746569509146674"><ele>386.5</ele><time>2026-05-03T09:32:27Z</time></trkpt><trkpt lat="42.29197190614494" lon="13.746683710415253"><ele>387.0</ele><time>2026-05-03T09:32:29Z</time></trkpt><trkpt lat="42.29207431789297" lon="13.746774422973449"><ele>387.0</ele><time>2026-05-03T09:32:30Z</time></trkpt><trkpt lat="42.292197338984444" lon="13.746864611285295"><ele>387.0</ele><time>2026-05-03T09:32:31Z</time></trkpt><trkpt lat="42.29233347275166" lon="13.746956433521108"><ele>387.0</ele><time>2026-05-03T09:32:32Z</time></trkpt><trkpt lat="42.29245540213495" lon="13.747034880003795"><ele>387.0</ele><time>2026-05-03T09:32:33Z</time></trkpt><trkpt lat="42.292565847049566" lon="13.74710590835696"><ele>385.75</ele><time>2026-05-03T09:32:34Z</time></trkpt><trkpt lat="42.29267366537124" lon="13.747166316032878"><ele>384.5</ele><time>2026-05-03T09:32:35Z</time></trkpt><trkpt lat="42.292787569760144" lon="13.747224111393217"><ele>383.25</ele><time>2026-05-03T09:32:36Z</time></trkpt><trkpt lat="42.2929054696388" lon="13.747274606481469"><ele>382.0</ele><time>2026-05-03T09:32:37Z</time></trkpt><trkpt lat="42.293031900482326" lon="13.747324002456843"><ele>383.25</ele><time>2026-05-03T09:32:38Z</time></trkpt><trkpt lat="42.29314997075585" lon="13.747375001319451"><ele>384.5</ele><time>2026-05-03T09:32:39Z</time></trkpt><trkpt lat="42.29325794733316" lon="13.747440856598388"><ele>385.75</ele><time>2026-05-03T09:32:40Z</time></trkpt><trkpt lat="42.29336167526092" lon="13.747525509346655"><ele>387.0</ele><time>2026-05-03T09:32:41Z</time></trkpt><trkpt lat="42.2934808011822" lon="13.747610948950879"><ele>387.0</ele><time>2026-05-03T09:32:42Z</time></trkpt><trkpt lat="42.293615999581775" lon="13.747686321472681"><ele>387.0</ele><time>2026-05-03T09:32:43Z</time></trkpt><trkpt lat="42.29375558550608" lon="13.747758243643077"><ele>387.0</ele><time>2026-05-03T09:32:44Z</time></trkpt><trkpt lat="42.293913656763166" lon="13.747842065320842"><ele>387.0</ele><time>2026-05-03T09:32:45Z</time></trkpt><trkpt lat="42.294066145820025" lon="13.747919587898588"><ele>387.0</ele><time>2026-05-03T09:32:46Z</time></trkpt><trkpt lat="42.29420160546475" lon="13.747999173918174"><ele>387.0</ele><time>2026-05-03T09:32:47Z</time></trkpt><trkpt lat="42.29434035539414" lon="13.74807554657117"><ele>387.0</ele><time>2026-05-03T09:32:48Z</time></trkpt><trkpt lat="42.29448206540656" lon="13.74815476677949"><ele>387.0</ele><time>2026-05-03T09:32:49Z</time></trkpt><trkpt lat="42.29461408965426" lon="13.748233484063569"><ele>387.0</ele><time>2026-05-03T09:32:50Z</time></trkpt><trkpt lat="42.2947358649185" lon="13.74830885402046"><ele>387.0</ele><time>2026-05-03T09:32:51Z</time></trkpt><trkpt lat="42.29485242027394" lon="13.7483825548953"><ele>388.6</ele><time>2026-05-03T09:32:52Z</time></trkpt><trkpt lat="42.29495316850841" lon="13.748445802497336"><ele>390.20000000000005</ele><time>2026-05-03T09:32:53Z</time></trkpt><trkpt lat="42.29504020801527" lon="13.748506416284096"><ele>391.8</ele><time>2026-05-03T09:32:54Z</time></trkpt><trkpt lat="42.29510986966809" lon="13.748556229796952"><ele>393.4</ele><time>2026-05-03T09:32:55Z</time></trkpt><trkpt lat="42.29516678065126" lon="13.748626281327546"><ele>395.0</ele><time>2026-05-03T09:32:57Z</time></trkpt><trkpt lat="42.295252829039576" lon="13.7487242562811"><ele>395.4</ele><time>2026-05-03T09:33:00Z</time></trkpt><trkpt lat="42.2953293241216" lon="13.748764975664336"><ele>395.8</ele><time>2026-05-03T09:33:01Z</time></trkpt><trkpt lat="42.29542494202188" lon="13.74880513978785"><ele>396.20000000000005</ele><time>2026-05-03T09:33:02Z</time></trkpt><trkpt lat="42.29551451962551" lon="13.748836292811745"><ele>396.6</ele><time>2026-05-03T09:33:03Z</time></trkpt><trkpt lat="42.29560508453797" lon="13.748870402105133"><ele>397.0</ele><time>2026-05-03T09:33:04Z</time></trkpt><trkpt lat="42.29570094743689" lon="13.748921203877742"><ele>399.00000000000006</ele><time>2026-05-03T09:33:05Z</time></trkpt><trkpt lat="42.29579077800138" lon="13.74896594602927"><ele>401.0</ele><time>2026-05-03T09:33:06Z</time></trkpt><trkpt lat="42.29586378331903" lon="13.749009507112842"><ele>403.0</ele><time>2026-05-03T09:33:07Z</time></trkpt><trkpt lat="42.2959352142828" lon="13.74907465176558"><ele>405.0</ele><time>2026-05-03T09:33:08Z</time></trkpt><trkpt lat="42.29600443985995" lon="13.749156355161977"><ele>407.00000000000006</ele><time>2026-05-03T09:33:09Z</time></trkpt><trkpt lat="42.29605413051697" lon="13.749240548033494"><ele>409.0</ele><time>2026-05-03T09:33:10Z</time></trkpt><trkpt lat="42.296097673791174" lon="13.749313195656388"><ele>411.0</ele><time>2026-05-03T09:33:11Z</time></trkpt><trkpt lat="42.29615638605129" lon="13.749392622629648"><ele>413.0</ele><time>2026-05-03T09:33:12Z</time></trkpt><trkpt lat="42.29622450322179" lon="13.749477064859809"><ele>415.0</ele><time>2026-05-03T09:33:13Z</time></trkpt><trkpt lat="42.29629867122371" lon="13.749550970321483"><ele>417.0</ele><time>2026-05-03T09:33:14Z</time></trkpt><trkpt lat="42.29638003506813" lon="13.749601889776715"><ele>419.0</ele><time>2026-05-03T09:33:15Z</time></trkpt><trkpt lat="42.29646562718008" lon="13.74964878562176"><ele>420.0</ele><time>2026-05-03T09:33:16Z</time></trkpt><trkpt lat="42.29655399675135" lon="13.749697780854994"><ele>421.0</ele><time>2026-05-03T09:33:17Z</time></trkpt><trkpt lat="42.2966482377202" lon="13.749762034380705"><ele>422.0</ele><time>2026-05-03T09:33:18Z</time></trkpt><trkpt lat="42.29673864518684" lon="13.749841691659237"><ele>423.0</ele><time>2026-05-03T09:33:19Z</time></trkpt><trkpt lat="42.29682187285257" lon="13.749940921599972"><ele>424.0</ele><time>2026-05-03T09:33:20Z</time></trkpt><trkpt lat="42.29689365002272" lon="13.750030327705"><ele>424.00000000000006</ele><time>2026-05-03T09:33:21Z</time></trkpt><trkpt lat="42.296949424570045" lon="13.750111012722499"><ele>424.0</ele><time>2026-05-03T09:33:22Z</time></trkpt><trkpt lat="42.29699649808626" lon="13.750182168757416"><ele>424.0</ele><time>2026-05-03T09:33:23Z</time></trkpt><trkpt lat="42.2970516712809" lon="13.750254427485299"><ele>424.0</ele><time>2026-05-03T09:33:24Z</time></trkpt><trkpt lat="42.29712666079487" lon="13.750314531024001"><ele>424.00000000000006</ele><time>2026-05-03T09:33:25Z</time></trkpt><trkpt lat="42.29721885691297" lon="13.750368593306334"><ele>424.0</ele><time>2026-05-03T09:33:26Z</time></trkpt><trkpt lat="42.297299904435505" lon="13.75041335128151"><ele>424.1666666666667</ele><time>2026-05-03T09:33:27Z</time></trkpt><trkpt lat="42.29736751060039" lon="13.750448267113105"><ele>424.33333333333337</ele><time>2026-05-03T09:33:28Z</time></trkpt><trkpt lat="42.29745807709084" lon="13.750467399892688"><ele>424.5</ele><time>2026-05-03T09:33:30Z</time></trkpt><trkpt lat="42.297525730626674" lon="13.75037586890804"><ele>424.66666666666663</ele><time>2026-05-03T09:33:32Z</time></trkpt><trkpt lat="42.29756083591584" lon="13.750300743398826"><ele>424.8333333333333</ele><time>2026-05-03T09:33:33Z</time></trkpt><trkpt lat="42.2976075340656" lon="13.75021086357253"><ele>425.0</ele><time>2026-05-03T09:33:34Z</time></trkpt><trkpt lat="42.29765423801257" lon="13.750143067211068"><ele>425.6</ele><time>2026-05-03T09:33:35Z</time></trkpt><trkpt lat="42.29778152988392" lon="13.750083569845197"><ele>426.2</ele><time>2026-05-03T09:33:37Z</time></trkpt><trkpt lat="42.29786102813541" lon="13.750058146136684"><ele>426.79999999999995</ele><time>2026-05-03T09:33:38Z</time></trkpt><trkpt lat="42.297942807718755" lon="13.750036031924417"><ele>427.4</ele><time>2026-05-03T09:33:39Z</time></trkpt><trkpt lat="42.29803368604278" lon="13.750019302507104"><ele>428.0</ele><time>2026-05-03T09:33:40Z</time></trkpt><trkpt lat="42.298106494991835" lon="13.750025693622906"><ele>428.3333333333333</ele><time>2026-05-03T09:33:41Z</time></trkpt><trkpt lat="42.298181307180826" lon="13.750021227173184"><ele>428.66666666666663</ele><time>2026-05-03T09:33:42Z</time></trkpt><trkpt lat="42.2982458536784" lon="13.75002465771398"><ele>429.0</ele><time>2026-05-03T09:33:43Z</time></trkpt><trkpt lat="42.298349830051436" lon="13.750025591821677"><ele>429.33333333333337</ele><time>2026-05-03T09:33:45Z</time></trkpt><trkpt lat="42.298452479035845" lon="13.750022433074621"><ele>429.6666666666667</ele><time>2026-05-03T09:33:47Z</time></trkpt><trkpt lat="42.29851759899823" lon="13.750019570645746"><ele>430.0</ele><time>2026-05-03T09:33:48Z</time></trkpt><trkpt lat="42.29858933106731" lon="13.750004440563492"><ele>430.0</ele><time>2026-05-03T09:33:49Z</time></trkpt><trkpt lat="42.29867965312819" lon="13.749979001872477"><ele>430.0</ele><time>2026-05-03T09:33:50Z</time></trkpt><trkpt lat="42.298768237176944" lon="13.749963893309102"><ele>430.0</ele><time>2026-05-03T09:33:51Z</time></trkpt><trkpt lat="42.29883776709215" lon="13.749954558869703"><ele>430.0</ele><time>2026-05-03T09:33:52Z</time></trkpt><trkpt lat="42.29890056026498" lon="13.749926425245752"><ele>430.0</ele><time>2026-05-03T09:34:23Z</time></trkpt><trkpt lat="42.29903578136759" lon="13.749903874228377"><ele>429.4</ele><time>2026-05-03T09:34:25Z</time></trkpt><trkpt lat="42.299120024945694" lon="13.749890951874749"><ele>428.8</ele><time>2026-05-03T09:34:26Z</time></trkpt><trkpt lat="42.29922763147001" lon="13.74986661298471"><ele>428.20000000000005</ele><time>2026-05-03T09:34:27Z</time></trkpt><trkpt lat="42.2993398578863" lon="13.749849893212758"><ele>427.6</ele><time>2026-05-03T09:34:28Z</time></trkpt><trkpt lat="42.29945003351077" lon="13.749839074400018"><ele>427.0</ele><time>2026-05-03T09:34:29Z</time></trkpt><trkpt lat="42.29955495419959" lon="13.749831091058704"><ele>427.0</ele><time>2026-05-03T09:34:30Z</time></trkpt><trkpt lat="42.29965263136224" lon="13.749814487779753"><ele>427.0</ele><time>2026-05-03T09:34:31Z</time></trkpt><trkpt lat="42.299756694942566" lon="13.749753409259823"><ele>427.0</ele><time>2026-05-03T09:34:32Z</time></trkpt><trkpt lat="42.2998920288704" lon="13.749690166908453"><ele>427.0</ele><time>2026-05-03T09:34:33Z</time></trkpt><trkpt lat="42.30003297193049" lon="13.74962424016552"><ele>426.0</ele><time>2026-05-03T09:34:34Z</time></trkpt><trkpt lat="42.30017795961171" lon="13.749575256048455"><ele>425.0</ele><time>2026-05-03T09:34:35Z</time></trkpt><trkpt lat="42.30030099695534" lon="13.749546730969659"><ele>424.0</ele><time>2026-05-03T09:34:36Z</time></trkpt><trkpt lat="42.30042676635736" lon="13.749507433389049"><ele>423.0</ele><time>2026-05-03T09:34:37Z</time></trkpt><trkpt lat="42.30054124603402" lon="13.749464844293236"><ele>421.5</ele><time>2026-05-03T09:34:38Z</time></trkpt><trkpt lat="42.300666572020646" lon="13.749421940859854"><ele>420.0</ele><time>2026-05-03T09:34:39Z</time></trkpt><trkpt lat="42.30078609454142" lon="13.749396137024831"><ele>418.5</ele><time>2026-05-03T09:34:40Z</time></trkpt><trkpt lat="42.30091293767226" lon="13.749372661112872"><ele>417.0</ele><time>2026-05-03T09:34:41Z</time></trkpt><trkpt lat="42.301029678098324" lon="13.749344306013185"><ele>419.8</ele><time>2026-05-03T09:34:42Z</time></trkpt><trkpt lat="42.30114564584431" lon="13.749305588018677"><ele>422.6</ele><time>2026-05-03T09:34:43Z</time></trkpt><trkpt lat="42.301258232892074" lon="13.749251811682477"><ele>425.40000000000003</ele><time>2026-05-03T09:34:44Z</time></trkpt><trkpt lat="42.301335127562204" lon="13.74919700368823"><ele>428.20000000000005</ele><time>2026-05-03T09:34:45Z</time></trkpt><trkpt lat="42.301391621251874" lon="13.749139640801694"><ele>431.0</ele><time>2026-05-03T09:34:46Z</time></trkpt><trkpt lat="42.30144442846372" lon="13.7490662251616"><ele>431.0</ele><time>2026-05-03T09:34:47Z</time></trkpt><trkpt lat="42.30149203499772" lon="13.748976201887631"><ele>431.0</ele><time>2026-05-03T09:34:48Z</time></trkpt><trkpt lat="42.30154768499071" lon="13.748866157992065"><ele>431.0</ele><time>2026-05-03T09:34:49Z</time></trkpt><trkpt lat="42.30161012092144" lon="13.74875077058042"><ele>431.0</ele><time>2026-05-03T09:34:50Z</time></trkpt><trkpt lat="42.301689884982856" lon="13.748649624301182"><ele>431.0</ele><time>2026-05-03T09:34:51Z</time></trkpt><trkpt lat="42.30177142154524" lon="13.748552242901074"><ele>435.8</ele><time>2026-05-03T09:34:52.001Z</time></trkpt><trkpt lat="42.301857509079696" lon="13.748447990941909"><ele>440.6</ele><time>2026-05-03T09:34:53.001Z</time></trkpt><trkpt lat="42.30193171898926" lon="13.748373427703466"><ele>445.4</ele><time>2026-05-03T09:34:54.001Z</time></trkpt><trkpt lat="42.302024397017114" lon="13.74831112739207"><ele>450.2</ele><time>2026-05-03T09:34:55.001Z</time></trkpt><trkpt lat="42.302121443732645" lon="13.748249982161388"><ele>455.0</ele><time>2026-05-03T09:34:56.001Z</time></trkpt><trkpt lat="42.30222242083387" lon="13.748167283489364"><ele>454.0</ele><time>2026-05-03T09:34:57.001Z</time></trkpt><trkpt lat="42.3023106499576" lon="13.748095666570297"><ele>453.0</ele><time>2026-05-03T09:34:58.001Z</time></trkpt><trkpt lat="42.302400581855544" lon="13.748021733735362"><ele>452.0</ele><time>2026-05-03T09:34:59.001Z</time></trkpt><trkpt lat="42.30251018224067" lon="13.747956764027995"><ele>451.0</ele><time>2026-05-03T09:35:00.001Z</time></trkpt><trkpt lat="42.30261819145039" lon="13.74791198220233"><ele>450.0</ele><time>2026-05-03T09:35:01.001Z</time></trkpt><trkpt lat="42.30271174988963" lon="13.747871410986177"><ele>450.0</ele><time>2026-05-03T09:35:02.001Z</time></trkpt><trkpt lat="42.302801820069924" lon="13.747850178358256"><ele>450.0</ele><time>2026-05-03T09:35:03.001Z</time></trkpt><trkpt lat="42.30288695778901" lon="13.74784193425849"><ele>450.0</ele><time>2026-05-03T09:35:04.001Z</time></trkpt><trkpt lat="42.30299220907522" lon="13.747855438237886"><ele>450.0</ele><time>2026-05-03T09:35:05.001Z</time></trkpt><trkpt lat="42.30310955031773" lon="13.747872110238132"><ele>450.0</ele><time>2026-05-03T09:35:06.001Z</time></trkpt><trkpt lat="42.30322746898167" lon="13.747892271650944"><ele>451.5</ele><time>2026-05-03T09:35:07.001Z</time></trkpt><trkpt lat="42.303323576811415" lon="13.747919575818647"><ele>453.0</ele><time>2026-05-03T09:35:08.001Z</time></trkpt><trkpt lat="42.30343416531952" lon="13.747939878679075"><ele>454.5</ele><time>2026-05-03T09:35:09.001Z</time></trkpt><trkpt lat="42.30356669243423" lon="13.747968448468779"><ele>456.0</ele><time>2026-05-03T09:35:10.001Z</time></trkpt><trkpt lat="42.303700833412414" lon="13.747998245684022"><ele>456.0</ele><time>2026-05-03T09:35:11.001Z</time></trkpt><trkpt lat="42.30382253626053" lon="13.748024927597488"><ele>456.0</ele><time>2026-05-03T09:35:12.001Z</time></trkpt><trkpt lat="42.30393252446104" lon="13.74804565334472"><ele>456.0</ele><time>2026-05-03T09:35:13.001Z</time></trkpt><trkpt lat="42.30402520532506" lon="13.748073437516704"><ele>456.0</ele><time>2026-05-03T09:35:14.001Z</time></trkpt><trkpt lat="42.30411410422059" lon="13.748125129762235"><ele>456.0</ele><time>2026-05-03T09:35:15.001Z</time></trkpt><trkpt lat="42.30422086915649" lon="13.74820227370216"><ele>459.20000000000005</ele><time>2026-05-03T09:35:16.001Z</time></trkpt><trkpt lat="42.304342386659236" lon="13.748266860716313"><ele>462.40000000000003</ele><time>2026-05-03T09:35:17.001Z</time></trkpt><trkpt lat="42.304456954506136" lon="13.748320567899881"><ele>465.6</ele><time>2026-05-03T09:35:18.001Z</time></trkpt><trkpt lat="42.30454566937434" lon="13.7483681690253"><ele>468.8</ele><time>2026-05-03T09:35:19.001Z</time></trkpt><trkpt lat="42.30462916534476" lon="13.74839599969193"><ele>472.0</ele><time>2026-05-03T09:35:20.001Z</time></trkpt><trkpt lat="42.30472226549227" lon="13.748395342344166"><ele>475.0</ele><time>2026-05-03T09:35:21.001Z</time></trkpt><trkpt lat="42.30482061481077" lon="13.74837866603948"><ele>478.00000000000006</ele><time>2026-05-03T09:35:22.001Z</time></trkpt><trkpt lat="42.30491387067756" lon="13.74834804167264"><ele>481.00000000000006</ele><time>2026-05-03T09:35:23.001Z</time></trkpt><trkpt lat="42.305008474127085" lon="13.748326749602201"><ele>484.0</ele><time>2026-05-03T09:35:24.001Z</time></trkpt><trkpt lat="42.30509796060058" lon="13.74833593893345"><ele>487.0</ele><time>2026-05-03T09:35:25.001Z</time></trkpt><trkpt lat="42.30516311439825" lon="13.748374261405809"><ele>487.00000000000006</ele><time>2026-05-03T09:35:26.001Z</time></trkpt><trkpt lat="42.30521163850997" lon="13.748429786753718"><ele>487.0</ele><time>2026-05-03T09:35:27.001Z</time></trkpt><trkpt lat="42.305277373409645" lon="13.748491305452372"><ele>487.0</ele><time>2026-05-03T09:35:28.001Z</time></trkpt><trkpt lat="42.30535721562398" lon="13.74850693135005"><ele>487.0</ele><time>2026-05-03T09:35:29.001Z</time></trkpt><trkpt lat="42.30543087143276" lon="13.748498705973828"><ele>487.00000000000006</ele><time>2026-05-03T09:35:30.001Z</time></trkpt><trkpt lat="42.30551930132878" lon="13.74850439906388"><ele>487.0</ele><time>2026-05-03T09:35:31.001Z</time></trkpt><trkpt lat="42.305617648467326" lon="13.748502198681647"><ele>488.20000000000005</ele><time>2026-05-03T09:35:32.001Z</time></trkpt><trkpt lat="42.3057188526075" lon="13.748479871620328"><ele>489.40000000000003</ele><time>2026-05-03T09:35:33.001Z</time></trkpt><trkpt lat="42.30581597804406" lon="13.748435723878131"><ele>490.59999999999997</ele><time>2026-05-03T09:35:34.001Z</time></trkpt><trkpt lat="42.30591075563925" lon="13.748371720719888"><ele>491.79999999999995</ele><time>2026-05-03T09:35:35.001Z</time></trkpt><trkpt lat="42.30600080255929" lon="13.748311827348266"><ele>493.0</ele><time>2026-05-03T09:35:36.001Z</time></trkpt><trkpt lat="42.30609915834339" lon="13.748263103077747"><ele>493.0</ele><time>2026-05-03T09:35:37.001Z</time></trkpt><trkpt lat="42.306206662341914" lon="13.7482271227026"><ele>493.0</ele><time>2026-05-03T09:35:38.001Z</time></trkpt><trkpt lat="42.30632794806265" lon="13.748183542657241"><ele>493.0</ele><time>2026-05-03T09:35:39.001Z</time></trkpt><trkpt lat="42.306440256740764" lon="13.74813389501515"><ele>493.0</ele><time>2026-05-03T09:35:40.001Z</time></trkpt><trkpt lat="42.30653755479861" lon="13.748084133980452"><ele>492.4</ele><time>2026-05-03T09:35:41.001Z</time></trkpt><trkpt lat="42.306635129553115" lon="13.748027420770832"><ele>491.79999999999995</ele><time>2026-05-03T09:35:42.001Z</time></trkpt><trkpt lat="42.30673731444694" lon="13.747984757415086"><ele>491.2</ele><time>2026-05-03T09:35:43.001Z</time></trkpt><trkpt lat="42.30683515017308" lon="13.747950767595718"><ele>490.6</ele><time>2026-05-03T09:35:44.001Z</time></trkpt><trkpt lat="42.30692955035327" lon="13.74793779573248"><ele>490.0</ele><time>2026-05-03T09:35:45.001Z</time></trkpt><trkpt lat="42.307021238224316" lon="13.74793305694044"><ele>490.0</ele><time>2026-05-03T09:35:46.001Z</time></trkpt><trkpt lat="42.3070981996233" lon="13.747914397173586"><ele>490.0</ele><time>2026-05-03T09:35:47.001Z</time></trkpt><trkpt lat="42.30717855708558" lon="13.747904013101573"><ele>490.0</ele><time>2026-05-03T09:35:48.001Z</time></trkpt><trkpt lat="42.30728497376005" lon="13.747923473080272"><ele>490.0</ele><time>2026-05-03T09:35:49.001Z</time></trkpt><trkpt lat="42.30739720115772" lon="13.747918248673626"><ele>490.0</ele><time>2026-05-03T09:35:50.001Z</time></trkpt><trkpt lat="42.307507719688" lon="13.747919324017293"><ele>489.2</ele><time>2026-05-03T09:35:51.001Z</time></trkpt><trkpt lat="42.30761483592022" lon="13.74790820816233"><ele>488.4</ele><time>2026-05-03T09:35:52.001Z</time></trkpt><trkpt lat="42.30772807846587" lon="13.747897690844018"><ele>487.6</ele><time>2026-05-03T09:35:53.001Z</time></trkpt><trkpt lat="42.30782736025561" lon="13.747894370497136"><ele>486.8</ele><time>2026-05-03T09:35:54.001Z</time></trkpt><trkpt lat="42.307937143862276" lon="13.747883093565445"><ele>486.0</ele><time>2026-05-03T09:35:55.001Z</time></trkpt><trkpt lat="42.308034945650704" lon="13.747868882924921"><ele>486.20000000000005</ele><time>2026-05-03T09:35:56Z</time></trkpt><trkpt lat="42.30813814617699" lon="13.747857890130005"><ele>486.40000000000003</ele><time>2026-05-03T09:35:57Z</time></trkpt><trkpt lat="42.30822208665457" lon="13.747854936990874"><ele>486.6</ele><time>2026-05-03T09:35:58Z</time></trkpt><trkpt lat="42.308306460789964" lon="13.747831556264833"><ele>486.8</ele><time>2026-05-03T09:35:59Z</time></trkpt><trkpt lat="42.30840190519354" lon="13.747802241497185"><ele>487.0</ele><time>2026-05-03T09:36:00Z</time></trkpt><trkpt lat="42.308502929517175" lon="13.747786906372195"><ele>487.0</ele><time>2026-05-03T09:36:01Z</time></trkpt><trkpt lat="42.30860925325482" lon="13.747784810506001"><ele>487.00000000000006</ele><time>2026-05-03T09:36:02Z</time></trkpt><trkpt lat="42.30870283517481" lon="13.7477846711888"><ele>487.00000000000006</ele><time>2026-05-03T09:36:03Z</time></trkpt><trkpt lat="42.30878805393028" lon="13.747781849439944"><ele>487.0</ele><time>2026-05-03T09:36:04Z</time></trkpt><trkpt lat="42.30886099155587" lon="13.747773773794268"><ele>487.0</ele><time>2026-05-03T09:36:05Z</time></trkpt><trkpt lat="42.30893848331386" lon="13.747698300983995"><ele>488.33333333333337</ele><time>2026-05-03T09:36:07Z</time></trkpt><trkpt lat="42.30896959853338" lon="13.747533006164536"><ele>489.6666666666667</ele><time>2026-05-03T09:36:09Z</time></trkpt><trkpt lat="42.30897654248077" lon="13.747440205165697"><ele>491.0</ele><time>2026-05-03T09:36:10Z</time></trkpt><trkpt lat="42.30899240938191" lon="13.747343997264355"><ele>492.33333333333337</ele><time>2026-05-03T09:36:11Z</time></trkpt><trkpt lat="42.309036095875115" lon="13.747254152611205"><ele>493.6666666666667</ele><time>2026-05-03T09:36:12Z</time></trkpt><trkpt lat="42.309102359149605" lon="13.747151946323857"><ele>495.0</ele><time>2026-05-03T09:36:13Z</time></trkpt><trkpt lat="42.30918374630815" lon="13.747032803326222"><ele>495.0</ele><time>2026-05-03T09:36:14Z</time></trkpt><trkpt lat="42.309257889940014" lon="13.74690856220936"><ele>495.0</ele><time>2026-05-03T09:36:15Z</time></trkpt><trkpt lat="42.30931890720119" lon="13.746789635774803"><ele>495.0</ele><time>2026-05-03T09:36:16Z</time></trkpt><trkpt lat="42.309385821835825" lon="13.746694751446555"><ele>495.0</ele><time>2026-05-03T09:36:17Z</time></trkpt><trkpt lat="42.309448624496646" lon="13.74660756758928"><ele>495.0</ele><time>2026-05-03T09:36:18Z</time></trkpt><trkpt lat="42.30951685616641" lon="13.746518711630204"><ele>498.5</ele><time>2026-05-03T09:36:19Z</time></trkpt><trkpt lat="42.30957940849248" lon="13.746459063714852"><ele>502.0</ele><time>2026-05-03T09:36:20Z</time></trkpt><trkpt lat="42.30965376819389" lon="13.746417506489385"><ele>505.5</ele><time>2026-05-03T09:36:22Z</time></trkpt><trkpt lat="42.309725393987996" lon="13.746468532304963"><ele>509.0</ele><time>2026-05-03T09:36:24Z</time></trkpt><trkpt lat="42.309794432227264" lon="13.746525203006325"><ele>512.5</ele><time>2026-05-03T09:36:25Z</time></trkpt><trkpt lat="42.309862260667664" lon="13.746588135453097"><ele>516.0</ele><time>2026-05-03T09:36:26Z</time></trkpt><trkpt lat="42.30992362866408" lon="13.746636612006196"><ele>516.0</ele><time>2026-05-03T09:36:27Z</time></trkpt><trkpt lat="42.30998193552528" lon="13.746679678600335"><ele>516.0</ele><time>2026-05-03T09:36:28Z</time></trkpt><trkpt lat="42.310064938634355" lon="13.7467346022308"><ele>516.0</ele><time>2026-05-03T09:36:29Z</time></trkpt><trkpt lat="42.31014813860872" lon="13.746786169950644"><ele>516.0</ele><time>2026-05-03T09:36:30Z</time></trkpt><trkpt lat="42.310244015175" lon="13.746844554357338"><ele>516.0</ele><time>2026-05-03T09:36:31Z</time></trkpt><trkpt lat="42.310346078782096" lon="13.746899250085933"><ele>511.8</ele><time>2026-05-03T09:36:32Z</time></trkpt><trkpt lat="42.31044360900228" lon="13.746948399323767"><ele>507.6</ele><time>2026-05-03T09:36:33Z</time></trkpt><trkpt lat="42.310536478228876" lon="13.747001065005824"><ele>503.4</ele><time>2026-05-03T09:36:34.001Z</time></trkpt><trkpt lat="42.310635171995905" lon="13.74704936239341"><ele>499.2</ele><time>2026-05-03T09:36:35.001Z</time></trkpt><trkpt lat="42.310751742102234" lon="13.747098450131114"><ele>495.0</ele><time>2026-05-03T09:36:36.001Z</time></trkpt><trkpt lat="42.31086059401601" lon="13.747155705646707"><ele>495.0</ele><time>2026-05-03T09:36:37.001Z</time></trkpt><trkpt lat="42.31095924193911" lon="13.747215644163742"><ele>495.0</ele><time>2026-05-03T09:36:38.001Z</time></trkpt><trkpt lat="42.31106298309558" lon="13.747260541647757"><ele>495.0</ele><time>2026-05-03T09:36:39.001Z</time></trkpt><trkpt lat="42.31115384286544" lon="13.747301558219464"><ele>495.0</ele><time>2026-05-03T09:36:40.001Z</time></trkpt><trkpt lat="42.311242270834484" lon="13.747351357652237"><ele>495.0</ele><time>2026-05-03T09:36:41.001Z</time></trkpt><trkpt lat="42.31132948807274" lon="13.747398873188192"><ele>497.0</ele><time>2026-05-03T09:36:42.001Z</time></trkpt><trkpt lat="42.311423852223534" lon="13.747443520694466"><ele>499.0</ele><time>2026-05-03T09:36:43.001Z</time></trkpt><trkpt lat="42.31151348362834" lon="13.747489433034758"><ele>501.0</ele><time>2026-05-03T09:36:44.001Z</time></trkpt><trkpt lat="42.311610177467465" lon="13.747530180731692"><ele>503.0</ele><time>2026-05-03T09:36:45.001Z</time></trkpt><trkpt lat="42.31170393796199" lon="13.747581471587413"><ele>505.0</ele><time>2026-05-03T09:36:46.001Z</time></trkpt><trkpt lat="42.31179378147708" lon="13.747633507216838"><ele>505.0</ele><time>2026-05-03T09:36:47.001Z</time></trkpt><trkpt lat="42.311882449713586" lon="13.747686416850621"><ele>505.0</ele><time>2026-05-03T09:36:48.001Z</time></trkpt><trkpt lat="42.311979177605004" lon="13.747731309673341"><ele>505.0</ele><time>2026-05-03T09:36:49.001Z</time></trkpt><trkpt lat="42.312066425440705" lon="13.747780065431266"><ele>505.0</ele><time>2026-05-03T09:36:50.001Z</time></trkpt><trkpt lat="42.312160451921784" lon="13.747819850811972"><ele>505.0</ele><time>2026-05-03T09:36:51.001Z</time></trkpt><trkpt lat="42.312256961010405" lon="13.747860422810945"><ele>498.8</ele><time>2026-05-03T09:36:52.001Z</time></trkpt><trkpt lat="42.31234611669466" lon="13.747906300455465"><ele>492.6</ele><time>2026-05-03T09:36:53.001Z</time></trkpt><trkpt lat="42.31243440273656" lon="13.747949383092186"><ele>486.4</ele><time>2026-05-03T09:36:54.001Z</time></trkpt><trkpt lat="42.312517310309715" lon="13.747998248870394"><ele>480.2</ele><time>2026-05-03T09:36:55.001Z</time></trkpt><trkpt lat="42.31260937948588" lon="13.74804444179606"><ele>474.0</ele><time>2026-05-03T09:36:56.001Z</time></trkpt><trkpt lat="42.312691703033316" lon="13.748105749268124"><ele>474.0</ele><time>2026-05-03T09:36:57.001Z</time></trkpt><trkpt lat="42.31277523084049" lon="13.748162683291708"><ele>474.0</ele><time>2026-05-03T09:36:58.001Z</time></trkpt><trkpt lat="42.31286482244872" lon="13.748212292381584"><ele>474.0</ele><time>2026-05-03T09:36:59.001Z</time></trkpt><trkpt lat="42.312965913999975" lon="13.74826836479341"><ele>474.0</ele><time>2026-05-03T09:37:00.001Z</time></trkpt><trkpt lat="42.31305504880608" lon="13.748319652279632"><ele>474.0</ele><time>2026-05-03T09:37:01.001Z</time></trkpt><trkpt lat="42.313146298951" lon="13.748372304224633"><ele>473.6</ele><time>2026-05-03T09:37:02.001Z</time></trkpt><trkpt lat="42.313245120430295" lon="13.748411367274572"><ele>473.2</ele><time>2026-05-03T09:37:03.001Z</time></trkpt><trkpt lat="42.31333726226072" lon="13.748451215862309"><ele>472.80000000000007</ele><time>2026-05-03T09:37:04.001Z</time></trkpt><trkpt lat="42.31343283879624" lon="13.748497535535785"><ele>472.40000000000003</ele><time>2026-05-03T09:37:05.001Z</time></trkpt><trkpt lat="42.31353041504155" lon="13.748545066568512"><ele>472.0</ele><time>2026-05-03T09:37:06.001Z</time></trkpt><trkpt lat="42.31362714642179" lon="13.748589469809621"><ele>467.40000000000003</ele><time>2026-05-03T09:37:07.001Z</time></trkpt><trkpt lat="42.31372346728226" lon="13.748606887518555"><ele>462.80000000000007</ele><time>2026-05-03T09:37:08.001Z</time></trkpt><trkpt lat="42.31381896368435" lon="13.74860612833739"><ele>458.2</ele><time>2026-05-03T09:37:09.001Z</time></trkpt><trkpt lat="42.31393182816744" lon="13.748598445505149"><ele>453.6</ele><time>2026-05-03T09:37:10.001Z</time></trkpt><trkpt lat="42.31405754981006" lon="13.748595838065125"><ele>449.0</ele><time>2026-05-03T09:37:11.001Z</time></trkpt><trkpt lat="42.314185576229654" lon="13.74859404497038"><ele>449.0</ele><time>2026-05-03T09:37:12.001Z</time></trkpt><trkpt lat="42.314300269889635" lon="13.748598803437396"><ele>449.0</ele><time>2026-05-03T09:37:13.001Z</time></trkpt><trkpt lat="42.31440505648949" lon="13.748601629091858"><ele>449.0</ele><time>2026-05-03T09:37:14.001Z</time></trkpt><trkpt lat="42.31452475267827" lon="13.748606207743938"><ele>449.0</ele><time>2026-05-03T09:37:15.001Z</time></trkpt><trkpt lat="42.31463274210127" lon="13.748606074803593"><ele>449.0</ele><time>2026-05-03T09:37:16.001Z</time></trkpt><trkpt lat="42.314735547723195" lon="13.748602989382862"><ele>448.79999999999995</ele><time>2026-05-03T09:37:17.001Z</time></trkpt><trkpt lat="42.31483400397569" lon="13.748607303224814"><ele>448.59999999999997</ele><time>2026-05-03T09:37:18.001Z</time></trkpt><trkpt lat="42.314940008655334" lon="13.748617427597067"><ele>448.4</ele><time>2026-05-03T09:37:19.001Z</time></trkpt><trkpt lat="42.31504450493479" lon="13.748618225436788"><ele>448.2</ele><time>2026-05-03T09:37:20.001Z</time></trkpt><trkpt lat="42.315144262586145" lon="13.748620022414219"><ele>448.0</ele><time>2026-05-03T09:37:21.001Z</time></trkpt><trkpt lat="42.315248612216" lon="13.74862344359159"><ele>448.0</ele><time>2026-05-03T09:37:22.001Z</time></trkpt><trkpt lat="42.31535628047447" lon="13.748623984163267"><ele>447.99999999999994</ele><time>2026-05-03T09:37:23.001Z</time></trkpt><trkpt lat="42.31545852810812" lon="13.748619650564502"><ele>447.99999999999994</ele><time>2026-05-03T09:37:24.001Z</time></trkpt><trkpt lat="42.31555761950724" lon="13.74861229034535"><ele>448.0</ele><time>2026-05-03T09:37:25.001Z</time></trkpt><trkpt lat="42.31566621864583" lon="13.748602621079987"><ele>448.0</ele><time>2026-05-03T09:37:26.001Z</time></trkpt><trkpt lat="42.31576464450071" lon="13.748592665366964"><ele>448.59999999999997</ele><time>2026-05-03T09:37:27.001Z</time></trkpt><trkpt lat="42.315869727509885" lon="13.748597344784844"><ele>449.19999999999993</ele><time>2026-05-03T09:37:28.001Z</time></trkpt><trkpt lat="42.31597436768309" lon="13.748617418333435"><ele>449.8</ele><time>2026-05-03T09:37:29.001Z</time></trkpt><trkpt lat="42.316082927680306" lon="13.748632533986935"><ele>450.4</ele><time>2026-05-03T09:37:30.001Z</time></trkpt><trkpt lat="42.316175278099024" lon="13.748638495191702"><ele>451.0</ele><time>2026-05-03T09:37:31.001Z</time></trkpt><trkpt lat="42.31626550862595" lon="13.748638829360981"><ele>451.00000000000006</ele><time>2026-05-03T09:37:32.001Z</time></trkpt><trkpt lat="42.31634464941275" lon="13.748658981149754"><ele>451.0</ele><time>2026-05-03T09:37:33.001Z</time></trkpt><trkpt lat="42.31643629471475" lon="13.748707747112256"><ele>451.0</ele><time>2026-05-03T09:37:34.001Z</time></trkpt><trkpt lat="42.31651867852435" lon="13.74877302556272"><ele>451.0</ele><time>2026-05-03T09:37:35.001Z</time></trkpt><trkpt lat="42.316589320661656" lon="13.748840178587312"><ele>451.00000000000006</ele><time>2026-05-03T09:37:36.001Z</time></trkpt><trkpt lat="42.31664758719611" lon="13.74891248236338"><ele>451.0</ele><time>2026-05-03T09:37:37.001Z</time></trkpt><trkpt lat="42.31670532364183" lon="13.748999843105377"><ele>450.20000000000005</ele><time>2026-05-03T09:37:38.001Z</time></trkpt><trkpt lat="42.316783166576414" lon="13.749099547749438"><ele>449.40000000000003</ele><time>2026-05-03T09:37:39.001Z</time></trkpt><trkpt lat="42.3168522989605" lon="13.749197297997966"><ele>448.6</ele><time>2026-05-03T09:37:40.001Z</time></trkpt><trkpt lat="42.31692171361179" lon="13.749276654448284"><ele>447.8</ele><time>2026-05-03T09:37:41.001Z</time></trkpt><trkpt lat="42.31699191876022" lon="13.749344085278"><ele>447.0</ele><time>2026-05-03T09:37:42.001Z</time></trkpt><trkpt lat="42.31705833217116" lon="13.749394770654611"><ele>447.0</ele><time>2026-05-03T09:37:43.001Z</time></trkpt><trkpt lat="42.31713792248474" lon="13.74944281550055"><ele>447.00000000000006</ele><time>2026-05-03T09:37:44.001Z</time></trkpt><trkpt lat="42.31722595013862" lon="13.749517223212871"><ele>447.00000000000006</ele><time>2026-05-03T09:37:45.001Z</time></trkpt><trkpt lat="42.31732427308081" lon="13.74958393689673"><ele>447.0</ele><time>2026-05-03T09:37:46.001Z</time></trkpt><trkpt lat="42.31740326388138" lon="13.749660848987062"><ele>447.0</ele><time>2026-05-03T09:37:47.001Z</time></trkpt><trkpt lat="42.317482499376965" lon="13.749722276488162"><ele>448.0</ele><time>2026-05-03T09:37:48.001Z</time></trkpt><trkpt lat="42.31755511464807" lon="13.7497665786911"><ele>449.0</ele><time>2026-05-03T09:37:49.001Z</time></trkpt><trkpt lat="42.31762549003155" lon="13.749783687447048"><ele>450.0</ele><time>2026-05-03T09:37:50.001Z</time></trkpt><trkpt lat="42.31769534752811" lon="13.74980508323167"><ele>451.0</ele><time>2026-05-03T09:37:51.001Z</time></trkpt><trkpt lat="42.317744380788845" lon="13.749860503570142"><ele>452.0</ele><time>2026-05-03T09:37:52.001Z</time></trkpt><trkpt lat="42.317800968543544" lon="13.749949430203845"><ele>453.0</ele><time>2026-05-03T09:37:53.001Z</time></trkpt><trkpt lat="42.31788577556571" lon="13.75000431610395"><ele>453.0</ele><time>2026-05-03T09:37:54.001Z</time></trkpt><trkpt lat="42.3179646190402" lon="13.750044048949713"><ele>453.0</ele><time>2026-05-03T09:37:55.001Z</time></trkpt><trkpt lat="42.31802705549271" lon="13.750086110657712"><ele>453.0</ele><time>2026-05-03T09:37:56.001Z</time></trkpt><trkpt lat="42.31814068001627" lon="13.750166346743752"><ele>453.0</ele><time>2026-05-03T09:37:58.001Z</time></trkpt><trkpt lat="42.31819859296132" lon="13.750218221199654"><ele>453.0</ele><time>2026-05-03T09:38:00.001Z</time></trkpt><trkpt lat="42.318173616310574" lon="13.750337032411391"><ele>453.0</ele><time>2026-05-03T09:38:02Z</time></trkpt><trkpt lat="42.318126355907815" lon="13.750414379677052"><ele>451.0</ele><time>2026-05-03T09:38:03Z</time></trkpt><trkpt lat="42.31806300308364" lon="13.750491376929796"><ele>448.99999999999994</ele><time>2026-05-03T09:38:04Z</time></trkpt><trkpt lat="42.31799379894863" lon="13.750587298548306"><ele>446.99999999999994</ele><time>2026-05-03T09:38:05Z</time></trkpt><trkpt lat="42.317935297759185" lon="13.750690944465001"><ele>445.0</ele><time>2026-05-03T09:38:06Z</time></trkpt><trkpt lat="42.31788527507243" lon="13.75081054720995"><ele>443.0</ele><time>2026-05-03T09:38:07Z</time></trkpt><trkpt lat="42.317837385959876" lon="13.75092678967394"><ele>441.99999999999994</ele><time>2026-05-03T09:38:08Z</time></trkpt><trkpt lat="42.31778748174409" lon="13.751046852846896"><ele>441.0</ele><time>2026-05-03T09:38:09Z</time></trkpt><trkpt lat="42.31774001509333" lon="13.751135415442281"><ele>440.0</ele><time>2026-05-03T09:38:10Z</time></trkpt><trkpt lat="42.31771036818444" lon="13.751221738098884"><ele>439.0</ele><time>2026-05-03T09:38:11Z</time></trkpt><trkpt lat="42.317686374557326" lon="13.75131359174317"><ele>437.99999999999994</ele><time>2026-05-03T09:38:12Z</time></trkpt><trkpt lat="42.31765200557511" lon="13.751436029271682"><ele>437.0</ele><time>2026-05-03T09:38:14Z</time></trkpt><trkpt lat="42.3176490094976" lon="13.751526794178739"><ele>437.0</ele><time>2026-05-03T09:38:17Z</time></trkpt><trkpt lat="42.31777438510509" lon="13.751572869266015"><ele>437.0</ele><time>2026-05-03T09:38:19Z</time></trkpt><trkpt lat="42.31789307991604" lon="13.751563645154182"><ele>437.0</ele><time>2026-05-03T09:38:20Z</time></trkpt><trkpt lat="42.318014451545785" lon="13.751534351807939"><ele>437.0</ele><time>2026-05-03T09:38:21Z</time></trkpt><trkpt lat="42.3181215832312" lon="13.75148135383458"><ele>437.6</ele><time>2026-05-03T09:38:22Z</time></trkpt><trkpt lat="42.31823686224098" lon="13.751407416676633"><ele>438.20000000000005</ele><time>2026-05-03T09:38:23Z</time></trkpt><trkpt lat="42.318350825346485" lon="13.751338347262037"><ele>438.8</ele><time>2026-05-03T09:38:24Z</time></trkpt><trkpt lat="42.31843405163618" lon="13.751308522050005"><ele>439.4</ele><time>2026-05-03T09:38:25Z</time></trkpt><trkpt lat="42.31854250738997" lon="13.751290695199797"><ele>440.0</ele><time>2026-05-03T09:38:27Z</time></trkpt><trkpt lat="42.31860694994375" lon="13.751292099608323"><ele>439.99999999999994</ele><time>2026-05-03T09:38:28Z</time></trkpt><trkpt lat="42.31870150605408" lon="13.751307366460178"><ele>440.0</ele><time>2026-05-03T09:38:29Z</time></trkpt><trkpt lat="42.31877922507634" lon="13.751327895990093"><ele>440.0</ele><time>2026-05-03T09:38:30Z</time></trkpt><trkpt lat="42.31885835855595" lon="13.751339612698036"><ele>440.0</ele><time>2026-05-03T09:38:31Z</time></trkpt><trkpt lat="42.318943861483866" lon="13.751353457854757"><ele>439.99999999999994</ele><time>2026-05-03T09:38:32Z</time></trkpt><trkpt lat="42.319026520422746" lon="13.751365065265531"><ele>440.0</ele><time>2026-05-03T09:38:33Z</time></trkpt><trkpt lat="42.319093002954375" lon="13.751373596508287"><ele>441.2</ele><time>2026-05-03T09:38:34Z</time></trkpt><trkpt lat="42.31916159167941" lon="13.75141037752691"><ele>442.4</ele><time>2026-05-03T09:38:36Z</time></trkpt><trkpt lat="42.319242664217164" lon="13.751357439087702"><ele>443.6</ele><time>2026-05-03T09:38:37Z</time></trkpt><trkpt lat="42.31919770440135" lon="13.751596813275082"><ele>444.8</ele><time>2026-05-03T09:38:38Z</time></trkpt><trkpt lat="42.31923614656155" lon="13.751711660108644"><ele>446.0</ele><time>2026-05-03T09:38:39Z</time></trkpt><trkpt lat="42.3192791342881" lon="13.751838508048687"><ele>443.4</ele><time>2026-05-03T09:38:40Z</time></trkpt><trkpt lat="42.31935208697955" lon="13.751951699726398"><ele>440.8</ele><time>2026-05-03T09:38:41Z</time></trkpt><trkpt lat="42.31939990922904" lon="13.7520833809032"><ele>438.19999999999993</ele><time>2026-05-03T09:38:42Z</time></trkpt><trkpt lat="42.31945412892086" lon="13.752192285972516"><ele>435.59999999999997</ele><time>2026-05-03T09:38:43Z</time></trkpt><trkpt lat="42.319507832072176" lon="13.752305391041347"><ele>433.0</ele><time>2026-05-03T09:38:44Z</time></trkpt><trkpt lat="42.31954862843704" lon="13.752430183881026"><ele>433.0</ele><time>2026-05-03T09:38:45Z</time></trkpt><trkpt lat="42.319590996379155" lon="13.752582139262831"><ele>433.0</ele><time>2026-05-03T09:38:46Z</time></trkpt><trkpt lat="42.31964804588109" lon="13.752736620017235"><ele>433.0</ele><time>2026-05-03T09:38:47Z</time></trkpt><trkpt lat="42.31969220705531" lon="13.752912713419354"><ele>433.0</ele><time>2026-05-03T09:38:48Z</time></trkpt><trkpt lat="42.31973096172573" lon="13.753109884154377"><ele>432.5</ele><time>2026-05-03T09:38:49Z</time></trkpt><trkpt lat="42.31979381197339" lon="13.753273454947545"><ele>432.0</ele><time>2026-05-03T09:38:50Z</time></trkpt><trkpt lat="42.31983877639949" lon="13.753438967729108"><ele>431.5</ele><time>2026-05-03T09:38:51Z</time></trkpt><trkpt lat="42.319865277194154" lon="13.753604583229997"><ele>431.0</ele><time>2026-05-03T09:38:52Z</time></trkpt><trkpt lat="42.31992081282318" lon="13.753753812349832"><ele>431.0</ele><time>2026-05-03T09:38:53Z</time></trkpt><trkpt lat="42.3199604702379" lon="13.753912722935299"><ele>431.0</ele><time>2026-05-03T09:38:54Z</time></trkpt><trkpt lat="42.3200029274412" lon="13.754074721917"><ele>431.0</ele><time>2026-05-03T09:38:55Z</time></trkpt><trkpt lat="42.32004110684998" lon="13.754205167466441"><ele>431.0</ele><time>2026-05-03T09:38:56Z</time></trkpt><trkpt lat="42.320098945972376" lon="13.754326149735657"><ele>430.5</ele><time>2026-05-03T09:38:57Z</time></trkpt><trkpt lat="42.32017116901793" lon="13.754452121448294"><ele>430.0</ele><time>2026-05-03T09:38:58Z</time></trkpt><trkpt lat="42.32024567856805" lon="13.7545785808467"><ele>429.5</ele><time>2026-05-03T09:38:59Z</time></trkpt><trkpt lat="42.320274995901485" lon="13.754729595975261"><ele>429.0</ele><time>2026-05-03T09:39:00Z</time></trkpt><trkpt lat="42.320337073027915" lon="13.754861015104327"><ele>429.0</ele><time>2026-05-03T09:39:01Z</time></trkpt><trkpt lat="42.32037027880604" lon="13.755001786452068"><ele>429.0</ele><time>2026-05-03T09:39:02Z</time></trkpt><trkpt lat="42.320419586310315" lon="13.755110717163458"><ele>429.0</ele><time>2026-05-03T09:39:03Z</time></trkpt><trkpt lat="42.3204529632348" lon="13.75522548156047"><ele>429.0</ele><time>2026-05-03T09:39:04Z</time></trkpt><trkpt lat="42.32047106686276" lon="13.755338181531828"><ele>429.0</ele><time>2026-05-03T09:39:05Z</time></trkpt><trkpt lat="42.32049770877171" lon="13.75543091219098"><ele>429.66666666666663</ele><time>2026-05-03T09:39:06Z</time></trkpt><trkpt lat="42.32052218464316" lon="13.755516103699614"><ele>430.3333333333333</ele><time>2026-05-03T09:39:07Z</time></trkpt><trkpt lat="42.32055251169885" lon="13.755608472194755"><ele>431.0</ele><time>2026-05-03T09:39:08Z</time></trkpt><trkpt lat="42.3207606118672" lon="13.755206452995038"><ele>437.0</ele><time>2026-05-03T09:39:09Z</time></trkpt><trkpt lat="42.32112927900308" lon="13.755967724953006"><ele>438.0</ele><time>2026-05-03T09:39:13Z</time></trkpt><trkpt lat="42.32120261881103" lon="13.756084018229798"><ele>439.0</ele><time>2026-05-03T09:39:14Z</time></trkpt><trkpt lat="42.321284817261" lon="13.756218428102514"><ele>440.0</ele><time>2026-05-03T09:39:15Z</time></trkpt><trkpt lat="42.321371860536026" lon="13.75634543683349"><ele>441.0</ele><time>2026-05-03T09:39:16Z</time></trkpt><trkpt lat="42.32146803037453" lon="13.756442283058634"><ele>442.5</ele><time>2026-05-03T09:39:17Z</time></trkpt><trkpt lat="42.32156896212311" lon="13.756538709450293"><ele>444.0</ele><time>2026-05-03T09:39:18Z</time></trkpt><trkpt lat="42.32168412299546" lon="13.756653481342038"><ele>445.5</ele><time>2026-05-03T09:39:19Z</time></trkpt><trkpt lat="42.32178866649864" lon="13.75675973132893"><ele>447.0</ele><time>2026-05-03T09:39:20Z</time></trkpt><trkpt lat="42.32188394493758" lon="13.75683833763774"><ele>447.8</ele><time>2026-05-03T09:39:21Z</time></trkpt><trkpt lat="42.32197749209187" lon="13.75689818049477"><ele>448.6</ele><time>2026-05-03T09:39:22Z</time></trkpt><trkpt lat="42.32208179576039" lon="13.756939388197054"><ele>449.40000000000003</ele><time>2026-05-03T09:39:23Z</time></trkpt><trkpt lat="42.32216877272123" lon="13.756979751635031"><ele>450.20000000000005</ele><time>2026-05-03T09:39:24Z</time></trkpt><trkpt lat="42.32224977170293" lon="13.757056260447484"><ele>451.0</ele><time>2026-05-03T09:39:25Z</time></trkpt><trkpt lat="42.32231982137402" lon="13.757160220384732"><ele>452.4</ele><time>2026-05-03T09:39:26Z</time></trkpt><trkpt lat="42.32238175457524" lon="13.757285869312435"><ele>453.8</ele><time>2026-05-03T09:39:27Z</time></trkpt><trkpt lat="42.32245211316691" lon="13.757401463971185"><ele>455.19999999999993</ele><time>2026-05-03T09:39:28Z</time></trkpt><trkpt lat="42.322507000715866" lon="13.757508257330144"><ele>456.59999999999997</ele><time>2026-05-03T09:39:29Z</time></trkpt><trkpt lat="42.32254653769742" lon="13.757627956254998"><ele>458.0</ele><time>2026-05-03T09:39:30Z</time></trkpt><trkpt lat="42.322575365522326" lon="13.757760870462773"><ele>458.59999999999997</ele><time>2026-05-03T09:39:31Z</time></trkpt><trkpt lat="42.32261284932325" lon="13.757871599009171"><ele>459.19999999999993</ele><time>2026-05-03T09:39:32Z</time></trkpt><trkpt lat="42.32266933603274" lon="13.757975970381878"><ele>459.8</ele><time>2026-05-03T09:39:33Z</time></trkpt><trkpt lat="42.32270604621121" lon="13.758091586737983"><ele>460.4</ele><time>2026-05-03T09:39:34Z</time></trkpt><trkpt lat="42.32272001299714" lon="13.758223543874063"><ele>461.0</ele><time>2026-05-03T09:39:36Z</time></trkpt><trkpt lat="42.322824095311645" lon="13.758207465972013"><ele>461.0</ele><time>2026-05-03T09:39:37Z</time></trkpt><trkpt lat="42.32289089447575" lon="13.758229005743074"><ele>461.0</ele><time>2026-05-03T09:39:38Z</time></trkpt><trkpt lat="42.32297867662536" lon="13.758240622369557"><ele>461.0</ele><time>2026-05-03T09:39:39Z</time></trkpt><trkpt lat="42.32311462117323" lon="13.75826813581538"><ele>461.0</ele><time>2026-05-03T09:39:40Z</time></trkpt><trkpt lat="42.323230751849025" lon="13.758327259508716"><ele>461.0</ele><time>2026-05-03T09:39:41Z</time></trkpt><trkpt lat="42.32335811125975" lon="13.758396332251559"><ele>463.5</ele><time>2026-05-03T09:39:42Z</time></trkpt><trkpt lat="42.323492357821486" lon="13.758460928139566"><ele>466.0</ele><time>2026-05-03T09:39:43Z</time></trkpt><trkpt lat="42.32361629073654" lon="13.758528795625349"><ele>468.5</ele><time>2026-05-03T09:39:44.001Z</time></trkpt><trkpt lat="42.32370336150476" lon="13.758615100711472"><ele>471.0</ele><time>2026-05-03T09:39:45.001Z</time></trkpt><trkpt lat="42.32379769976791" lon="13.75868918610287"><ele>471.75</ele><time>2026-05-03T09:39:46.001Z</time></trkpt><trkpt lat="42.32387467526329" lon="13.758818817699629"><ele>472.5</ele><time>2026-05-03T09:39:47.001Z</time></trkpt><trkpt lat="42.32390790635484" lon="13.758974784407105"><ele>473.25</ele><time>2026-05-03T09:39:48.001Z</time></trkpt><trkpt lat="42.323929906069296" lon="13.759145933939859"><ele>474.0</ele><time>2026-05-03T09:39:49.001Z</time></trkpt><trkpt lat="42.323947815049415" lon="13.759332982060798"><ele>476.6</ele><time>2026-05-03T09:39:50.001Z</time></trkpt><trkpt lat="42.32398219794794" lon="13.759465067806216"><ele>479.2</ele><time>2026-05-03T09:39:51.001Z</time></trkpt><trkpt lat="42.32401250875608" lon="13.759583596121768"><ele>481.80000000000007</ele><time>2026-05-03T09:39:52.001Z</time></trkpt><trkpt lat="42.32406605438815" lon="13.759693105678725"><ele>484.40000000000003</ele><time>2026-05-03T09:39:53.001Z</time></trkpt><trkpt lat="42.324106544208995" lon="13.759788069084172"><ele>487.0</ele><time>2026-05-03T09:39:54.001Z</time></trkpt><trkpt lat="42.32413606752347" lon="13.759883931648009"><ele>487.0</ele><time>2026-05-03T09:39:55.001Z</time></trkpt><trkpt lat="42.324154606571064" lon="13.759968645095222"><ele>487.00000000000006</ele><time>2026-05-03T09:39:56.001Z</time></trkpt><trkpt lat="42.32418844656294" lon="13.760062152237092"><ele>487.00000000000006</ele><time>2026-05-03T09:39:57.001Z</time></trkpt><trkpt lat="42.32431376486839" lon="13.760123999195276"><ele>487.0</ele><time>2026-05-03T09:39:58.001Z</time></trkpt><trkpt lat="42.3244184096994" lon="13.760192110342254"><ele>487.0</ele><time>2026-05-03T09:39:59.001Z</time></trkpt><trkpt lat="42.32448877120167" lon="13.760228320411777"><ele>487.0</ele><time>2026-05-03T09:40:00.001Z</time></trkpt><trkpt lat="42.32455794444335" lon="13.760270290659562"><ele>487.00000000000006</ele><time>2026-05-03T09:40:03.001Z</time></trkpt><trkpt lat="42.32444572722819" lon="13.760132533702462"><ele>487.00000000000006</ele><time>2026-05-03T09:40:07.001Z</time></trkpt><trkpt lat="42.32434918084147" lon="13.760120025681111"><ele>487.0</ele><time>2026-05-03T09:40:08Z</time></trkpt><trkpt lat="42.32427707542345" lon="13.760021700031228"><ele>487.0</ele><time>2026-05-03T09:40:10Z</time></trkpt><trkpt lat="42.324342983911976" lon="13.759864275545034"><ele>487.0</ele><time>2026-05-03T09:40:12Z</time></trkpt><trkpt lat="42.32443238302406" lon="13.759796208294944"><ele>487.0</ele><time>2026-05-03T09:40:13Z</time></trkpt><trkpt lat="42.324530591586345" lon="13.75973046793235"><ele>487.0</ele><time>2026-05-03T09:40:14Z</time></trkpt><trkpt lat="42.32462682287129" lon="13.759634931221058"><ele>487.0</ele><time>2026-05-03T09:40:15Z</time></trkpt><trkpt lat="42.32471333469852" lon="13.759517903537686"><ele>487.8</ele><time>2026-05-03T09:40:16Z</time></trkpt><trkpt lat="42.32478893181722" lon="13.75938995446921"><ele>488.6</ele><time>2026-05-03T09:40:17Z</time></trkpt><trkpt lat="42.32485074743213" lon="13.759276456550706"><ele>489.40000000000003</ele><time>2026-05-03T09:40:18Z</time></trkpt><trkpt lat="42.3248943851544" lon="13.759169331562795"><ele>490.20000000000005</ele><time>2026-05-03T09:40:19Z</time></trkpt><trkpt lat="42.32490788413906" lon="13.759064661848585"><ele>491.0</ele><time>2026-05-03T09:40:20Z</time></trkpt><trkpt lat="42.324934156552146" lon="13.758976316065288"><ele>490.99999999999994</ele><time>2026-05-03T09:40:21Z</time></trkpt><trkpt lat="42.32494946999338" lon="13.758890170782486"><ele>491.0</ele><time>2026-05-03T09:40:22Z</time></trkpt><trkpt lat="42.32498274896893" lon="13.758986011598001"><ele>491.0</ele><time>2026-05-03T09:40:27Z</time></trkpt><trkpt lat="42.32497187262709" lon="13.759101461382492"><ele>491.0</ele><time>2026-05-03T09:40:28Z</time></trkpt><trkpt lat="42.32494901873874" lon="13.759220835829787"><ele>490.99999999999994</ele><time>2026-05-03T09:40:29Z</time></trkpt><trkpt lat="42.32495025535801" lon="13.75932068714289"><ele>491.0</ele><time>2026-05-03T09:40:30Z</time></trkpt><trkpt lat="42.32495573703636" lon="13.759415769925834"><ele>491.57142857142856</ele><time>2026-05-03T09:40:31Z</time></trkpt><trkpt lat="42.32496143462785" lon="13.759502370355436"><ele>492.1428571428571</ele><time>2026-05-03T09:40:32Z</time></trkpt><trkpt lat="42.32499661738915" lon="13.759574541995061"><ele>492.71428571428567</ele><time>2026-05-03T09:40:33Z</time></trkpt><trkpt lat="42.32507239674733" lon="13.75963591836613"><ele>493.2857142857142</ele><time>2026-05-03T09:40:35Z</time></trkpt><trkpt lat="42.3250820319804" lon="13.75972017652862"><ele>493.85714285714283</ele><time>2026-05-03T09:40:37Z</time></trkpt><trkpt lat="42.32503898690369" lon="13.759792984868247"><ele>494.42857142857133</ele><time>2026-05-03T09:40:39Z</time></trkpt><trkpt lat="42.32498971198078" lon="13.759869975736907"><ele>494.99999999999994</ele><time>2026-05-03T09:40:42Z</time></trkpt><trkpt lat="42.3250507023884" lon="13.759899009104618"><ele>494.99999999999994</ele><time>2026-05-03T09:42:58Z</time></trkpt><trkpt lat="42.324998402085555" lon="13.75982218809801"><ele>495.0</ele><time>2026-05-03T09:46:48.001Z</time></trkpt><trkpt lat="42.325061683215154" lon="13.759824879165082"><ele>494.99999999999994</ele><time>2026-05-03T09:48:58.002Z</time></trkpt><trkpt lat="42.32510384372578" lon="13.759761290945436"><ele>494.99999999999994</ele><time>2026-05-03T09:50:30.001Z</time></trkpt><trkpt lat="42.32505382480016" lon="13.759815979722624"><ele>495.0</ele><time>2026-05-03T09:50:46.002Z</time></trkpt><trkpt lat="42.325001228115575" lon="13.759864197572771"><ele>494.99999999999994</ele><time>2026-05-03T09:50:51.002Z</time></trkpt><trkpt lat="42.32496822313376" lon="13.759939829177291"><ele>494.99999999999994</ele><time>2026-05-03T09:59:03.999Z</time></trkpt><trkpt lat="42.324985804418475" lon="13.760026461445117"><ele>494.99999999999994</ele><time>2026-05-03T09:59:08.999Z</time></trkpt><trkpt lat="42.32505092976709" lon="13.760028252626501"><ele>495.0</ele><time>2026-05-03T09:59:16.999Z</time></trkpt><trkpt lat="42.325015425637034" lon="13.759955480222649"><ele>494.99999999999994</ele><time>2026-05-03T10:01:07.999Z</time></trkpt><trkpt lat="42.3250290037149" lon="13.759869171975051"><ele>494.99999999999994</ele><time>2026-05-03T10:01:20.999Z</time></trkpt><trkpt lat="42.32506588850733" lon="13.759773810050353"><ele>495.0</ele><time>2026-05-03T10:04:34.999Z</time></trkpt><trkpt lat="42.32505583397781" lon="13.759674206458815"><ele>494.99999999999994</ele><time>2026-05-03T10:04:48.999Z</time></trkpt><trkpt lat="42.32508318234881" lon="13.759591891539365"><ele>494.99999999999994</ele><time>2026-05-03T10:05:04.999Z</time></trkpt><trkpt lat="42.325187570153254" lon="13.759531744936233"><ele>495.0</ele><time>2026-05-03T10:05:06.999Z</time></trkpt><trkpt lat="42.32521724328282" lon="13.759391215937534"><ele>495.0</ele><time>2026-05-03T10:05:08.999Z</time></trkpt><trkpt lat="42.32520697669358" lon="13.759254867192196"><ele>495.0</ele><time>2026-05-03T10:05:10.999Z</time></trkpt><trkpt lat="42.32520160909159" lon="13.7591680465503"><ele>495.0</ele><time>2026-05-03T10:05:12.999Z</time></trkpt><trkpt lat="42.32522018878103" lon="13.759283195471767"><ele>495.0</ele><time>2026-05-03T10:05:19.998Z</time></trkpt><trkpt lat="42.32523992412802" lon="13.759411787566767"><ele>495.0</ele><time>2026-05-03T10:05:21.998Z</time></trkpt><trkpt lat="42.32522855242674" lon="13.759555768601375"><ele>495.0</ele><time>2026-05-03T10:05:23.998Z</time></trkpt><trkpt lat="42.32523075835945" lon="13.759664672140925"><ele>495.0</ele><time>2026-05-03T10:05:25.998Z</time></trkpt><trkpt lat="42.325337780404354" lon="13.759916207335833"><ele>495.0</ele><time>2026-05-03T10:05:27.998Z</time></trkpt><trkpt lat="42.32537098482245" lon="13.759989799121717"><ele>495.0</ele><time>2026-05-03T10:05:28.998Z</time></trkpt><trkpt lat="42.32540631119415" lon="13.760068093788766"><ele>495.0</ele><time>2026-05-03T10:05:29.998Z</time></trkpt><trkpt lat="42.32544841227422" lon="13.76015585680856"><ele>495.0</ele><time>2026-05-03T10:05:30.998Z</time></trkpt><trkpt lat="42.32553242351185" lon="13.760270291380209"><ele>495.0</ele><time>2026-05-03T10:05:32.998Z</time></trkpt><trkpt lat="42.32558820131669" lon="13.76034712774953"><ele>495.0</ele><time>2026-05-03T10:05:34.998Z</time></trkpt><trkpt lat="42.32561785934319" lon="13.760425442217578"><ele>495.0</ele><time>2026-05-03T10:05:36.998Z</time></trkpt><trkpt lat="42.32548629337746" lon="13.760479096891297"><ele>496.0</ele><time>2026-05-03T10:05:39.998Z</time></trkpt><trkpt lat="42.32537724441213" lon="13.760514685036373"><ele>497.0</ele><time>2026-05-03T10:05:41.998Z</time></trkpt><trkpt lat="42.32525873009999" lon="13.76049796821368"><ele>498.0</ele><time>2026-05-03T10:05:43.998Z</time></trkpt><trkpt lat="42.325145175826755" lon="13.760483578392881"><ele>499.0</ele><time>2026-05-03T10:05:45.998Z</time></trkpt><trkpt lat="42.32508314101119" lon="13.760467202205847"><ele>500.0</ele><time>2026-05-03T10:05:47.999Z</time></trkpt><trkpt lat="42.32501874894801" lon="13.760443327776445"><ele>500.0</ele><time>2026-05-03T10:05:49.999Z</time></trkpt><trkpt lat="42.324885975896585" lon="13.760618703417778"><ele>500.0</ele><time>2026-05-03T10:05:51.999Z</time></trkpt><trkpt lat="42.32482758235585" lon="13.760700031002191"><ele>500.0</ele><time>2026-05-03T10:05:52.999Z</time></trkpt><trkpt lat="42.324757392609015" lon="13.760773397599667"><ele>500.0</ele><time>2026-05-03T10:05:53.999Z</time></trkpt><trkpt lat="42.32467499097679" lon="13.760829046628068"><ele>500.0</ele><time>2026-05-03T10:05:54.999Z</time></trkpt><trkpt lat="42.32459456298048" lon="13.760844640595915"><ele>500.0</ele><time>2026-05-03T10:05:55.999Z</time></trkpt><trkpt lat="42.324502055234376" lon="13.760850824319421"><ele>500.0</ele><time>2026-05-03T10:05:56.999Z</time></trkpt><trkpt lat="42.32439726611763" lon="13.760843261894427"><ele>500.0</ele><time>2026-05-03T10:05:57.999Z</time></trkpt><trkpt lat="42.324278186536006" lon="13.760828099173837"><ele>500.0</ele><time>2026-05-03T10:05:58.999Z</time></trkpt><trkpt lat="42.32415225036734" lon="13.760803898856336"><ele>500.0</ele><time>2026-05-03T10:05:59.999Z</time></trkpt><trkpt lat="42.32403413562783" lon="13.760787786307537"><ele>500.0</ele><time>2026-05-03T10:06:00.999Z</time></trkpt><trkpt lat="42.32392174595212" lon="13.760789164843397"><ele>500.0</ele><time>2026-05-03T10:06:01.999Z</time></trkpt><trkpt lat="42.323816725131664" lon="13.760799088708305"><ele>500.0</ele><time>2026-05-03T10:06:02.999Z</time></trkpt><trkpt lat="42.323709553350305" lon="13.760800805367253"><ele>500.0</ele><time>2026-05-03T10:06:03.999Z</time></trkpt><trkpt lat="42.32359068215506" lon="13.76079818033182"><ele>499.75</ele><time>2026-05-03T10:06:04.999Z</time></trkpt><trkpt lat="42.32346823986599" lon="13.76079547642549"><ele>499.5</ele><time>2026-05-03T10:06:05.999Z</time></trkpt><trkpt lat="42.323350331566445" lon="13.760801922398281"><ele>499.25</ele><time>2026-05-03T10:06:06.999Z</time></trkpt><trkpt lat="42.32322375950542" lon="13.760822669184046"><ele>499.0</ele><time>2026-05-03T10:06:07.999Z</time></trkpt><trkpt lat="42.32310193511143" lon="13.760861102900508"><ele>498.5</ele><time>2026-05-03T10:06:08.999Z</time></trkpt><trkpt lat="42.322986726639826" lon="13.760914078442267"><ele>498.0</ele><time>2026-05-03T10:06:09.999Z</time></trkpt><trkpt lat="42.32288973116145" lon="13.760995250185555"><ele>497.5</ele><time>2026-05-03T10:06:10.999Z</time></trkpt><trkpt lat="42.32276704397451" lon="13.761087832700209"><ele>497.0</ele><time>2026-05-03T10:06:11.999Z</time></trkpt><trkpt lat="42.322645261305745" lon="13.761162427243509"><ele>497.0</ele><time>2026-05-03T10:06:12.999Z</time></trkpt><trkpt lat="42.32253778873341" lon="13.761245304580319"><ele>497.0</ele><time>2026-05-03T10:06:13.999Z</time></trkpt><trkpt lat="42.322431782378665" lon="13.761318933098508"><ele>497.0</ele><time>2026-05-03T10:06:14.999Z</time></trkpt><trkpt lat="42.32232611976013" lon="13.761387528569397"><ele>497.0</ele><time>2026-05-03T10:06:15.999Z</time></trkpt><trkpt lat="42.3222236575712" lon="13.761450995006332"><ele>494.25</ele><time>2026-05-03T10:06:16.999Z</time></trkpt><trkpt lat="42.32212128118801" lon="13.761515309918218"><ele>491.5</ele><time>2026-05-03T10:06:17.999Z</time></trkpt><trkpt lat="42.32201368220921" lon="13.761584584887967"><ele>488.75</ele><time>2026-05-03T10:06:18.999Z</time></trkpt><trkpt lat="42.321907428477424" lon="13.761654311360434"><ele>486.0</ele><time>2026-05-03T10:06:19.999Z</time></trkpt><trkpt lat="42.321818379084505" lon="13.76171675337053"><ele>486.0</ele><time>2026-05-03T10:06:20.999Z</time></trkpt><trkpt lat="42.321748424155494" lon="13.761762711767275"><ele>486.0</ele><time>2026-05-03T10:06:21.999Z</time></trkpt><trkpt lat="42.32165954537596" lon="13.76179164620584"><ele>486.0</ele><time>2026-05-03T10:06:23.999Z</time></trkpt><trkpt lat="42.321565789556985" lon="13.761663103197623"><ele>486.0</ele><time>2026-05-03T10:06:25.999Z</time></trkpt><trkpt lat="42.32149083098139" lon="13.761597442080113"><ele>486.0</ele><time>2026-05-03T10:06:26.999Z</time></trkpt><trkpt lat="42.32146356212911" lon="13.761513221861907"><ele>486.0</ele><time>2026-05-03T10:06:27.999Z</time></trkpt><trkpt lat="42.32141170803773" lon="13.761375350972232"><ele>486.0</ele><time>2026-05-03T10:06:29.999Z</time></trkpt><trkpt lat="42.32141227398182" lon="13.761262524905074"><ele>486.0</ele><time>2026-05-03T10:06:30.999Z</time></trkpt><trkpt lat="42.32141027049415" lon="13.761154576480196"><ele>486.0</ele><time>2026-05-03T10:06:31.999Z</time></trkpt><trkpt lat="42.321405936528805" lon="13.761056670169056"><ele>486.0</ele><time>2026-05-03T10:06:32.999Z</time></trkpt><trkpt lat="42.321393712889126" lon="13.76096452708586"><ele>486.0</ele><time>2026-05-03T10:06:33.999Z</time></trkpt><trkpt lat="42.321357364080285" lon="13.760879797657108"><ele>482.8</ele><time>2026-05-03T10:06:34.999Z</time></trkpt><trkpt lat="42.32132442001756" lon="13.760787525875116"><ele>479.6</ele><time>2026-05-03T10:06:35.999Z</time></trkpt><trkpt lat="42.32128720099339" lon="13.76069812195122"><ele>476.4</ele><time>2026-05-03T10:06:36.999Z</time></trkpt><trkpt lat="42.32126413641481" lon="13.760611743232978"><ele>473.2</ele><time>2026-05-03T10:06:37.999Z</time></trkpt><trkpt lat="42.321245159318444" lon="13.7604741160188"><ele>470.0</ele><time>2026-05-03T10:06:39.999Z</time></trkpt><trkpt lat="42.32112234364705" lon="13.760416928173498"><ele>469.99999999999994</ele><time>2026-05-03T10:06:43.999Z</time></trkpt><trkpt lat="42.32104467065282" lon="13.760454101004047"><ele>470.0</ele><time>2026-05-03T10:06:44.999Z</time></trkpt><trkpt lat="42.32097128162808" lon="13.760496786440845"><ele>470.0</ele><time>2026-05-03T10:06:45.999Z</time></trkpt><trkpt lat="42.320905848821596" lon="13.760539700853643"><ele>470.0</ele><time>2026-05-03T10:06:46.999Z</time></trkpt><trkpt lat="42.320828336302995" lon="13.760593009879374"><ele>469.99999999999994</ele><time>2026-05-03T10:06:47.999Z</time></trkpt><trkpt lat="42.320756939231295" lon="13.76064345056278"><ele>470.0</ele><time>2026-05-03T10:06:48.999Z</time></trkpt><trkpt lat="42.32069134114852" lon="13.760689869445278"><ele>469.99999999999994</ele><time>2026-05-03T10:06:49.999Z</time></trkpt><trkpt lat="42.32062211752359" lon="13.760738853842803"><ele>470.0</ele><time>2026-05-03T10:06:50.999Z</time></trkpt><trkpt lat="42.32055345516281" lon="13.760787441081947"><ele>470.0</ele><time>2026-05-03T10:06:51.999Z</time></trkpt><trkpt lat="42.32048061965869" lon="13.760838981059658"><ele>470.0</ele><time>2026-05-03T10:06:52.999Z</time></trkpt><trkpt lat="42.320410833620784" lon="13.760889813005369"><ele>469.99999999999994</ele><time>2026-05-03T10:06:53.999Z</time></trkpt><trkpt lat="42.32033668034816" lon="13.760955962821328"><ele>470.0</ele><time>2026-05-03T10:06:54.999Z</time></trkpt><trkpt lat="42.320273005963976" lon="13.761021355617293"><ele>469.2</ele><time>2026-05-03T10:06:55.999Z</time></trkpt><trkpt lat="42.32021327542498" lon="13.761091352928329"><ele>468.4</ele><time>2026-05-03T10:06:56.999Z</time></trkpt><trkpt lat="42.32014708443607" lon="13.761185784938142"><ele>467.6</ele><time>2026-05-03T10:06:57.999Z</time></trkpt><trkpt lat="42.32008944134591" lon="13.761271904797846"><ele>466.8</ele><time>2026-05-03T10:06:58.999Z</time></trkpt><trkpt lat="42.320023580246634" lon="13.761357325367916"><ele>466.0</ele><time>2026-05-03T10:06:59.999Z</time></trkpt><trkpt lat="42.31994531760556" lon="13.76143744730752"><ele>466.0</ele><time>2026-05-03T10:07:00.999Z</time></trkpt><trkpt lat="42.3198420425638" lon="13.761526469794932"><ele>466.0</ele><time>2026-05-03T10:07:01.999Z</time></trkpt><trkpt lat="42.319725778143216" lon="13.761617893562043"><ele>466.0</ele><time>2026-05-03T10:07:02.999Z</time></trkpt><trkpt lat="42.31962267449497" lon="13.761698533782345"><ele>466.0</ele><time>2026-05-03T10:07:03.999Z</time></trkpt><trkpt lat="42.31952231029269" lon="13.761778877919546"><ele>465.6</ele><time>2026-05-03T10:07:04.999Z</time></trkpt><trkpt lat="42.31942601813641" lon="13.761856632077107"><ele>465.20000000000005</ele><time>2026-05-03T10:07:05.999Z</time></trkpt><trkpt lat="42.31932603759351" lon="13.761936573951091"><ele>464.79999999999995</ele><time>2026-05-03T10:07:06.999Z</time></trkpt><trkpt lat="42.31924055536957" lon="13.762025042269398"><ele>464.4</ele><time>2026-05-03T10:07:07.999Z</time></trkpt><trkpt lat="42.31914043494132" lon="13.762073199802387"><ele>464.0</ele><time>2026-05-03T10:07:08.999Z</time></trkpt><trkpt lat="42.31904015267011" lon="13.762138662523954"><ele>464.0</ele><time>2026-05-03T10:07:09.999Z</time></trkpt><trkpt lat="42.31893523820041" lon="13.762208296005769"><ele>464.0</ele><time>2026-05-03T10:07:10.999Z</time></trkpt><trkpt lat="42.31883117219949" lon="13.762283190650491"><ele>464.0</ele><time>2026-05-03T10:07:11.999Z</time></trkpt><trkpt lat="42.31872398486346" lon="13.762365818312798"><ele>464.0</ele><time>2026-05-03T10:07:12.999Z</time></trkpt><trkpt lat="42.31861661580525" lon="13.76245391721356"><ele>463.79999999999995</ele><time>2026-05-03T10:07:13.999Z</time></trkpt><trkpt lat="42.318524880885604" lon="13.762535021041735"><ele>463.59999999999997</ele><time>2026-05-03T10:07:14.999Z</time></trkpt><trkpt lat="42.31843704111377" lon="13.762623054268891"><ele>463.4</ele><time>2026-05-03T10:07:15.999Z</time></trkpt><trkpt lat="42.31835449498112" lon="13.762713243944946"><ele>463.2</ele><time>2026-05-03T10:07:16.999Z</time></trkpt><trkpt lat="42.31827188804552" lon="13.762818176940064"><ele>463.0</ele><time>2026-05-03T10:07:17.999Z</time></trkpt><trkpt lat="42.31818293691392" lon="13.762898044543142"><ele>463.0</ele><time>2026-05-03T10:07:18.999Z</time></trkpt><trkpt lat="42.318097169066604" lon="13.762972740773085"><ele>462.99999999999994</ele><time>2026-05-03T10:07:19.999Z</time></trkpt><trkpt lat="42.31800443406139" lon="13.763031657897129"><ele>462.99999999999994</ele><time>2026-05-03T10:07:20.999Z</time></trkpt><trkpt lat="42.31792415054223" lon="13.763102197589413"><ele>463.0</ele><time>2026-05-03T10:07:21.999Z</time></trkpt><trkpt lat="42.317850716505276" lon="13.76318679679447"><ele>463.0</ele><time>2026-05-03T10:07:22.999Z</time></trkpt><trkpt lat="42.31776459809117" lon="13.763250547297305"><ele>462.2</ele><time>2026-05-03T10:07:23.998Z</time></trkpt><trkpt lat="42.3176972196356" lon="13.76334646462811"><ele>461.4</ele><time>2026-05-03T10:07:24.998Z</time></trkpt><trkpt lat="42.31761975556342" lon="13.763430889450175"><ele>460.59999999999997</ele><time>2026-05-03T10:07:25.998Z</time></trkpt><trkpt lat="42.317565656048245" lon="13.763538208926912"><ele>459.79999999999995</ele><time>2026-05-03T10:07:26.998Z</time></trkpt><trkpt lat="42.31750822697745" lon="13.763659544383584"><ele>459.0</ele><time>2026-05-03T10:07:27.998Z</time></trkpt><trkpt lat="42.31744474092858" lon="13.7637801634437"><ele>459.0</ele><time>2026-05-03T10:07:28.998Z</time></trkpt><trkpt lat="42.317361339292304" lon="13.763907907632356"><ele>459.0</ele><time>2026-05-03T10:07:29.998Z</time></trkpt><trkpt lat="42.31729380449038" lon="13.764023877826007"><ele>459.0</ele><time>2026-05-03T10:07:30.998Z</time></trkpt><trkpt lat="42.317228754516584" lon="13.764137873215914"><ele>459.0</ele><time>2026-05-03T10:07:31.998Z</time></trkpt><trkpt lat="42.31715873015252" lon="13.764251037359033"><ele>457.75</ele><time>2026-05-03T10:07:32.998Z</time></trkpt><trkpt lat="42.317079011655395" lon="13.764376315968121"><ele>456.5</ele><time>2026-05-03T10:07:33.998Z</time></trkpt><trkpt lat="42.316987492829924" lon="13.764517762265678"><ele>455.25</ele><time>2026-05-03T10:07:34.998Z</time></trkpt><trkpt lat="42.316896373512556" lon="13.764659765402392"><ele>454.0</ele><time>2026-05-03T10:07:35.998Z</time></trkpt><trkpt lat="42.31680716823513" lon="13.764798411401832"><ele>454.0</ele><time>2026-05-03T10:07:36.998Z</time></trkpt><trkpt lat="42.31670603393804" lon="13.764917060035167"><ele>454.0</ele><time>2026-05-03T10:07:37.998Z</time></trkpt><trkpt lat="42.31660608630244" lon="13.765015157646"><ele>454.0</ele><time>2026-05-03T10:07:38.998Z</time></trkpt><trkpt lat="42.31650666601072" lon="13.765103174331587"><ele>454.0</ele><time>2026-05-03T10:07:39.998Z</time></trkpt><trkpt lat="42.31640028813154" lon="13.765155066814739"><ele>454.6</ele><time>2026-05-03T10:07:40.998Z</time></trkpt><trkpt lat="42.316311233307225" lon="13.765237934165336"><ele>455.2</ele><time>2026-05-03T10:07:41.998Z</time></trkpt><trkpt lat="42.316205603638856" lon="13.765287564401385"><ele>455.80000000000007</ele><time>2026-05-03T10:07:42.998Z</time></trkpt><trkpt lat="42.31611364777987" lon="13.765380138868435"><ele>456.40000000000003</ele><time>2026-05-03T10:07:43.998Z</time></trkpt><trkpt lat="42.316028144363926" lon="13.765447265189637"><ele>457.0</ele><time>2026-05-03T10:07:44.998Z</time></trkpt><trkpt lat="42.315948730964024" lon="13.76553313091976"><ele>457.0</ele><time>2026-05-03T10:07:45.998Z</time></trkpt><trkpt lat="42.315873448175104" lon="13.76564798914031"><ele>457.00000000000006</ele><time>2026-05-03T10:07:46.998Z</time></trkpt><trkpt lat="42.31580723720429" lon="13.765770856611264"><ele>457.00000000000006</ele><time>2026-05-03T10:07:47.998Z</time></trkpt><trkpt lat="42.31575765827061" lon="13.765891709125073"><ele>457.0</ele><time>2026-05-03T10:07:48.998Z</time></trkpt><trkpt lat="42.315713178319044" lon="13.766013587383956"><ele>457.0</ele><time>2026-05-03T10:07:49.998Z</time></trkpt><trkpt lat="42.315659608792785" lon="13.766144835218302"><ele>458.0</ele><time>2026-05-03T10:07:50.998Z</time></trkpt><trkpt lat="42.31557503405916" lon="13.766283069242684"><ele>459.0</ele><time>2026-05-03T10:07:51.998Z</time></trkpt><trkpt lat="42.31550190791473" lon="13.766456859513807"><ele>460.0</ele><time>2026-05-03T10:07:52.998Z</time></trkpt><trkpt lat="42.315398719127764" lon="13.766591331220653"><ele>461.0</ele><time>2026-05-03T10:07:53.998Z</time></trkpt><trkpt lat="42.31527828310368" lon="13.766685715104478"><ele>461.0</ele><time>2026-05-03T10:07:54.999Z</time></trkpt><trkpt lat="42.31517764861785" lon="13.76679257921238"><ele>461.0</ele><time>2026-05-03T10:07:55.999Z</time></trkpt><trkpt lat="42.31505984067017" lon="13.76688539163409"><ele>461.0</ele><time>2026-05-03T10:07:56.999Z</time></trkpt><trkpt lat="42.3149509840912" lon="13.766983878884671"><ele>461.0</ele><time>2026-05-03T10:07:57.999Z</time></trkpt><trkpt lat="42.31485198416206" lon="13.76709311290796"><ele>461.75</ele><time>2026-05-03T10:07:58.999Z</time></trkpt><trkpt lat="42.31476305338383" lon="13.76720643794154"><ele>462.5</ele><time>2026-05-03T10:07:59.999Z</time></trkpt><trkpt lat="42.31467720834352" lon="13.767323309108638"><ele>463.25</ele><time>2026-05-03T10:08:00.999Z</time></trkpt><trkpt lat="42.3146039875257" lon="13.767439246166054"><ele>464.0</ele><time>2026-05-03T10:08:01.999Z</time></trkpt><trkpt lat="42.31452348315055" lon="13.767518853905363"><ele>464.0</ele><time>2026-05-03T10:08:02.999Z</time></trkpt><trkpt lat="42.31446002885791" lon="13.767580643867268"><ele>464.0</ele><time>2026-05-03T10:08:03.999Z</time></trkpt><trkpt lat="42.31437183959654" lon="13.76764495448305"><ele>464.0</ele><time>2026-05-03T10:08:05.999Z</time></trkpt><trkpt lat="42.31441938063638" lon="13.767788388609482"><ele>464.0</ele><time>2026-05-03T10:08:06.999Z</time></trkpt><trkpt lat="42.314442256477854" lon="13.767697069777123"><ele>464.0</ele><time>2026-05-03T10:08:25.999Z</time></trkpt><trkpt lat="42.31434641580409" lon="13.767676001533099"><ele>465.0</ele><time>2026-05-03T10:08:29.999Z</time></trkpt><trkpt lat="42.314270261920136" lon="13.767706307175706"><ele>466.0</ele><time>2026-05-03T10:08:30.999Z</time></trkpt><trkpt lat="42.31418667563471" lon="13.767736626390564"><ele>467.0</ele><time>2026-05-03T10:08:31.999Z</time></trkpt><trkpt lat="42.31411261792006" lon="13.76778512076723"><ele>468.0</ele><time>2026-05-03T10:08:32.999Z</time></trkpt><trkpt lat="42.314035774311066" lon="13.767873777420576"><ele>469.0</ele><time>2026-05-03T10:08:33.999Z</time></trkpt><trkpt lat="42.31396734717368" lon="13.767984134412432"><ele>469.0</ele><time>2026-05-03T10:08:34.999Z</time></trkpt><trkpt lat="42.31392610020029" lon="13.768097829283905"><ele>469.0</ele><time>2026-05-03T10:08:35.999Z</time></trkpt><trkpt lat="42.31388969995854" lon="13.768206428529044"><ele>469.0</ele><time>2026-05-03T10:08:36.999Z</time></trkpt><trkpt lat="42.31384399274598" lon="13.768317615347764"><ele>469.0</ele><time>2026-05-03T10:08:37.999Z</time></trkpt><trkpt lat="42.313776784725455" lon="13.768420997754568"><ele>469.0</ele><time>2026-05-03T10:08:38.999Z</time></trkpt><trkpt lat="42.313718532942254" lon="13.768546496579807"><ele>463.0</ele><time>2026-05-03T10:08:39.999Z</time></trkpt><trkpt lat="42.31366517683358" lon="13.76868099018687"><ele>457.0</ele><time>2026-05-03T10:08:40.999Z</time></trkpt><trkpt lat="42.313597528373116" lon="13.768813208833933"><ele>451.0</ele><time>2026-05-03T10:08:41.999Z</time></trkpt><trkpt lat="42.31353445717789" lon="13.768966770571476"><ele>445.0</ele><time>2026-05-03T10:08:42.999Z</time></trkpt><trkpt lat="42.3134990334693" lon="13.769098718082912"><ele>445.0</ele><time>2026-05-03T10:08:43.999Z</time></trkpt><trkpt lat="42.31344410690125" lon="13.769232270140462"><ele>445.0</ele><time>2026-05-03T10:08:44.999Z</time></trkpt><trkpt lat="42.31338226185909" lon="13.769357969699293"><ele>445.0</ele><time>2026-05-03T10:08:45.999Z</time></trkpt><trkpt lat="42.3133141434595" lon="13.769481030283233"><ele>445.0</ele><time>2026-05-03T10:08:46.999Z</time></trkpt><trkpt lat="42.31322802340399" lon="13.769593485630542"><ele>445.5</ele><time>2026-05-03T10:08:47.999Z</time></trkpt><trkpt lat="42.31313916090238" lon="13.769714420070128"><ele>446.0</ele><time>2026-05-03T10:08:48.999Z</time></trkpt><trkpt lat="42.31303785230105" lon="13.769826315551091"><ele>446.5</ele><time>2026-05-03T10:08:49.999Z</time></trkpt><trkpt lat="42.312927563065514" lon="13.769926912565987"><ele>447.0</ele><time>2026-05-03T10:08:50.999Z</time></trkpt><trkpt lat="42.312801944632106" lon="13.770001922572023"><ele>443.25</ele><time>2026-05-03T10:08:51.999Z</time></trkpt><trkpt lat="42.31267871585678" lon="13.77007442444093"><ele>439.5</ele><time>2026-05-03T10:08:52.999Z</time></trkpt><trkpt lat="42.31255566278272" lon="13.770127243174164"><ele>435.75</ele><time>2026-05-03T10:08:53.999Z</time></trkpt><trkpt lat="42.312428113985284" lon="13.77015511904373"><ele>432.0</ele><time>2026-05-03T10:08:54.999Z</time></trkpt><trkpt lat="42.31231081455639" lon="13.77017439538298"><ele>434.25</ele><time>2026-05-03T10:08:55.999Z</time></trkpt><trkpt lat="42.31219699210542" lon="13.770197128654459"><ele>436.5</ele><time>2026-05-03T10:08:56.999Z</time></trkpt><trkpt lat="42.31207378468166" lon="13.770209038743634"><ele>438.75</ele><time>2026-05-03T10:08:57.999Z</time></trkpt><trkpt lat="42.311958951862046" lon="13.770217343700251"><ele>441.0</ele><time>2026-05-03T10:08:58.999Z</time></trkpt><trkpt lat="42.311850593707156" lon="13.77023120167674"><ele>441.0</ele><time>2026-05-03T10:08:59.999Z</time></trkpt><trkpt lat="42.31174208258588" lon="13.770262592396499"><ele>441.0</ele><time>2026-05-03T10:09:00.999Z</time></trkpt><trkpt lat="42.311682585493635" lon="13.770294375644164"><ele>441.0</ele><time>2026-05-03T10:09:01.999Z</time></trkpt><trkpt lat="42.311596819075014" lon="13.770330474056768"><ele>441.0</ele><time>2026-05-03T10:09:02.999Z</time></trkpt><trkpt lat="42.311494884456806" lon="13.770408866561079"><ele>441.0</ele><time>2026-05-03T10:09:03.999Z</time></trkpt><trkpt lat="42.31137650273579" lon="13.770501354700446"><ele>440.20000000000005</ele><time>2026-05-03T10:09:04.999Z</time></trkpt><trkpt lat="42.311271274754574" lon="13.770594336959327"><ele>439.40000000000003</ele><time>2026-05-03T10:09:05.999Z</time></trkpt><trkpt lat="42.3111776997723" lon="13.77068260712669"><ele>438.6</ele><time>2026-05-03T10:09:06.999Z</time></trkpt><trkpt lat="42.31107826296072" lon="13.770737141701975"><ele>437.8</ele><time>2026-05-03T10:09:07.999Z</time></trkpt><trkpt lat="42.310998414880906" lon="13.770790301589727"><ele>437.0</ele><time>2026-05-03T10:09:08.999Z</time></trkpt><trkpt lat="42.31092594983789" lon="13.77083881969395"><ele>437.0</ele><time>2026-05-03T10:09:09.999Z</time></trkpt><trkpt lat="42.310824591830446" lon="13.770821719565358"><ele>437.00000000000006</ele><time>2026-05-03T10:09:10.999Z</time></trkpt><trkpt lat="42.31072704486611" lon="13.770797729259602"><ele>437.00000000000006</ele><time>2026-05-03T10:09:11.999Z</time></trkpt><trkpt lat="42.310642766188465" lon="13.77078456032002"><ele>437.0</ele><time>2026-05-03T10:09:12.999Z</time></trkpt><trkpt lat="42.310556658899245" lon="13.770798583133766"><ele>437.0</ele><time>2026-05-03T10:09:13.999Z</time></trkpt><trkpt lat="42.310455382414034" lon="13.770829882941271"><ele>436.40000000000003</ele><time>2026-05-03T10:09:14.999Z</time></trkpt><trkpt lat="42.31034709728054" lon="13.770827643433673"><ele>435.80000000000007</ele><time>2026-05-03T10:09:15.999Z</time></trkpt><trkpt lat="42.310242658283464" lon="13.77084231377506"><ele>435.2</ele><time>2026-05-03T10:09:16.999Z</time></trkpt><trkpt lat="42.31015008061093" lon="13.770859584850903"><ele>434.6</ele><time>2026-05-03T10:09:17.999Z</time></trkpt><trkpt lat="42.31006312167908" lon="13.770886343717113"><ele>434.0</ele><time>2026-05-03T10:09:18.999Z</time></trkpt><trkpt lat="42.30998573536396" lon="13.770937006837144"><ele>433.99999999999994</ele><time>2026-05-03T10:09:19.999Z</time></trkpt><trkpt lat="42.30991729894287" lon="13.770964671975085"><ele>434.0</ele><time>2026-05-03T10:09:20.999Z</time></trkpt><trkpt lat="42.30985401032925" lon="13.770993739119861"><ele>434.0</ele><time>2026-05-03T10:09:21.999Z</time></trkpt><trkpt lat="42.30975725340096" lon="13.77106474689164"><ele>434.0</ele><time>2026-05-03T10:09:23.999Z</time></trkpt><trkpt lat="42.309668681113536" lon="13.771178718254154"><ele>433.99999999999994</ele><time>2026-05-03T10:09:25.999Z</time></trkpt><trkpt lat="42.309612590312135" lon="13.77123968652603"><ele>434.0</ele><time>2026-05-03T10:09:26.999Z</time></trkpt><trkpt lat="42.30954423084975" lon="13.771285784059497"><ele>436.0</ele><time>2026-05-03T10:09:27.999Z</time></trkpt><trkpt lat="42.309473050575406" lon="13.771333113274373"><ele>438.0</ele><time>2026-05-03T10:09:28.999Z</time></trkpt><trkpt lat="42.30939055820237" lon="13.771387928956987"><ele>440.0</ele><time>2026-05-03T10:09:29.998Z</time></trkpt><trkpt lat="42.30930078986966" lon="13.77144815259164"><ele>442.0</ele><time>2026-05-03T10:09:30.998Z</time></trkpt><trkpt lat="42.30922204131399" lon="13.771504199892528"><ele>444.0</ele><time>2026-05-03T10:09:31.999Z</time></trkpt><trkpt lat="42.30913663606086" lon="13.771567387094693"><ele>444.0</ele><time>2026-05-03T10:09:32.999Z</time></trkpt><trkpt lat="42.30904635249889" lon="13.771643222037026"><ele>444.0</ele><time>2026-05-03T10:09:33.999Z</time></trkpt><trkpt lat="42.30895370032322" lon="13.771736100669251"><ele>444.0</ele><time>2026-05-03T10:09:34.999Z</time></trkpt><trkpt lat="42.30887743183417" lon="13.771824362206186"><ele>444.0</ele><time>2026-05-03T10:09:35.999Z</time></trkpt><trkpt lat="42.308810101687875" lon="13.771911108889116"><ele>444.0</ele><time>2026-05-03T10:09:36.999Z</time></trkpt><trkpt lat="42.30875130318054" lon="13.771989993009761"><ele>443.8333333333333</ele><time>2026-05-03T10:09:37.999Z</time></trkpt><trkpt lat="42.308693818400116" lon="13.772066873363874"><ele>443.66666666666663</ele><time>2026-05-03T10:09:38.999Z</time></trkpt><trkpt lat="42.308627286461274" lon="13.772154885820031"><ele>443.5</ele><time>2026-05-03T10:09:39.999Z</time></trkpt><trkpt lat="42.308556487207866" lon="13.772240588256123"><ele>443.3333333333333</ele><time>2026-05-03T10:09:40.999Z</time></trkpt><trkpt lat="42.308484863753286" lon="13.77230958845972"><ele>443.16666666666663</ele><time>2026-05-03T10:09:41.999Z</time></trkpt><trkpt lat="42.308408185128265" lon="13.772369564498414"><ele>443.0</ele><time>2026-05-03T10:09:42.999Z</time></trkpt><trkpt lat="42.30830487499849" lon="13.772395434908082"><ele>443.0</ele><time>2026-05-03T10:09:43.999Z</time></trkpt><trkpt lat="42.30820636208551" lon="13.772485510353839"><ele>442.99999999999994</ele><time>2026-05-03T10:09:44.999Z</time></trkpt><trkpt lat="42.3081485122544" lon="13.77256120827227"><ele>442.99999999999994</ele><time>2026-05-03T10:09:45.999Z</time></trkpt><trkpt lat="42.30807674913036" lon="13.772668085968823"><ele>443.0</ele><time>2026-05-03T10:09:47.999Z</time></trkpt><trkpt lat="42.308019903242645" lon="13.772754735580088"><ele>443.0</ele><time>2026-05-03T10:09:49.999Z</time></trkpt><trkpt lat="42.30796689478256" lon="13.772835906659775"><ele>440.59999999999997</ele><time>2026-05-03T10:09:52.999Z</time></trkpt><trkpt lat="42.30790570723227" lon="13.772915642649075"><ele>438.19999999999993</ele><time>2026-05-03T10:09:55.999Z</time></trkpt><trkpt lat="42.307823905390705" lon="13.773016081122988"><ele>435.8</ele><time>2026-05-03T10:09:57.999Z</time></trkpt><trkpt lat="42.30776945811936" lon="13.773080888062973"><ele>433.4</ele><time>2026-05-03T10:09:58.999Z</time></trkpt><trkpt lat="42.30769297856274" lon="13.773169367435187"><ele>431.0</ele><time>2026-05-03T10:09:59.999Z</time></trkpt><trkpt lat="42.307626045164675" lon="13.77324551131604"><ele>431.0</ele><time>2026-05-03T10:10:00.999Z</time></trkpt><trkpt lat="42.307553137653194" lon="13.773325508573105"><ele>431.0</ele><time>2026-05-03T10:10:01.999Z</time></trkpt><trkpt lat="42.30747782927352" lon="13.77340662830951"><ele>431.0</ele><time>2026-05-03T10:10:02.999Z</time></trkpt><trkpt lat="42.307397228408924" lon="13.773487606396799"><ele>431.0</ele><time>2026-05-03T10:10:03.999Z</time></trkpt><trkpt lat="42.307323410041604" lon="13.77355383397215"><ele>431.0</ele><time>2026-05-03T10:10:04.999Z</time></trkpt><trkpt lat="42.30723719114564" lon="13.773610771889242"><ele>429.5</ele><time>2026-05-03T10:10:05.999Z</time></trkpt><trkpt lat="42.3071131508979" lon="13.773702611290442"><ele>428.0</ele><time>2026-05-03T10:10:06.999Z</time></trkpt><trkpt lat="42.307011195872974" lon="13.773812736348745"><ele>426.5</ele><time>2026-05-03T10:10:07.999Z</time></trkpt><trkpt lat="42.30695170312807" lon="13.77400242055852"><ele>425.0</ele><time>2026-05-03T10:10:08.999Z</time></trkpt><trkpt lat="42.306899597885234" lon="13.774118824767571"><ele>425.0</ele><time>2026-05-03T10:10:09.999Z</time></trkpt><trkpt lat="42.30683262644976" lon="13.774222509967203"><ele>425.0</ele><time>2026-05-03T10:10:10.999Z</time></trkpt><trkpt lat="42.306744606337894" lon="13.77432449546461"><ele>425.0</ele><time>2026-05-03T10:10:11.999Z</time></trkpt><trkpt lat="42.3066609699613" lon="13.77442041123135"><ele>425.0</ele><time>2026-05-03T10:10:12.999Z</time></trkpt><trkpt lat="42.30656447881941" lon="13.774535371797022"><ele>425.75</ele><time>2026-05-03T10:10:13.999Z</time></trkpt><trkpt lat="42.306478317077016" lon="13.774673340526519"><ele>426.5</ele><time>2026-05-03T10:10:14.999Z</time></trkpt><trkpt lat="42.30640990906825" lon="13.774825715940553"><ele>427.25</ele><time>2026-05-03T10:10:15.999Z</time></trkpt><trkpt lat="42.30635953607975" lon="13.774969917232305"><ele>428.0</ele><time>2026-05-03T10:10:16.999Z</time></trkpt><trkpt lat="42.30632193962783" lon="13.775102138106302"><ele>427.2</ele><time>2026-05-03T10:10:17.999Z</time></trkpt><trkpt lat="42.30628715670964" lon="13.775230410129646"><ele>426.4</ele><time>2026-05-03T10:10:18.999Z</time></trkpt><trkpt lat="42.306254787324626" lon="13.775353465482072"><ele>425.59999999999997</ele><time>2026-05-03T10:10:19.999Z</time></trkpt><trkpt lat="42.30622241614666" lon="13.77548531725466"><ele>424.79999999999995</ele><time>2026-05-03T10:10:20.999Z</time></trkpt><trkpt lat="42.3061967548878" lon="13.77560142676074"><ele>424.0</ele><time>2026-05-03T10:10:21.999Z</time></trkpt><trkpt lat="42.3061784505064" lon="13.775686334443954"><ele>424.0</ele><time>2026-05-03T10:10:22.999Z</time></trkpt><trkpt lat="42.306155331843954" lon="13.775796957184673"><ele>424.0</ele><time>2026-05-03T10:10:24.999Z</time></trkpt><trkpt lat="42.30613784385625" lon="13.775880636685095"><ele>424.0</ele><time>2026-05-03T10:10:28.999Z</time></trkpt><trkpt lat="42.306118544466734" lon="13.77597169860833"><ele>424.0</ele><time>2026-05-03T10:10:32.999Z</time></trkpt><trkpt lat="42.30609273786297" lon="13.776090900791035"><ele>424.0</ele><time>2026-05-03T10:10:36.999Z</time></trkpt><trkpt lat="42.306073223560325" lon="13.776172512205374"><ele>424.0</ele><time>2026-05-03T10:10:39Z</time></trkpt><trkpt lat="42.306050231960214" lon="13.776267485331585"><ele>424.0</ele><time>2026-05-03T10:10:40Z</time></trkpt><trkpt lat="42.306016925131765" lon="13.7763803197921"><ele>423.75</ele><time>2026-05-03T10:10:41Z</time></trkpt><trkpt lat="42.305974714428764" lon="13.776487985144305"><ele>423.5</ele><time>2026-05-03T10:10:42Z</time></trkpt><trkpt lat="42.30593901629312" lon="13.776559134930537"><ele>423.25</ele><time>2026-05-03T10:10:43Z</time></trkpt><trkpt lat="42.30589559034091" lon="13.776648253800415"><ele>423.0</ele><time>2026-05-03T10:10:45Z</time></trkpt><trkpt lat="42.306116374726415" lon="13.777041838862154"><ele>422.79999999999995</ele><time>2026-05-03T10:10:47Z</time></trkpt><trkpt lat="42.306145689045046" lon="13.777167019514517"><ele>422.6</ele><time>2026-05-03T10:10:48Z</time></trkpt><trkpt lat="42.30615580925982" lon="13.777267123684666"><ele>422.4</ele><time>2026-05-03T10:10:49Z</time></trkpt><trkpt lat="42.30611797723462" lon="13.777428879085495"><ele>422.20000000000005</ele><time>2026-05-03T10:10:51Z</time></trkpt><trkpt lat="42.30607742149993" lon="13.777521761583449"><ele>422.0</ele><time>2026-05-03T10:10:52Z</time></trkpt><trkpt lat="42.30602889234491" lon="13.777614767894507"><ele>421.8333333333333</ele><time>2026-05-03T10:10:53Z</time></trkpt><trkpt lat="42.305965810214346" lon="13.777701050423051"><ele>421.66666666666663</ele><time>2026-05-03T10:10:54Z</time></trkpt><trkpt lat="42.30590610844104" lon="13.777756401443526"><ele>421.5</ele><time>2026-05-03T10:10:55Z</time></trkpt><trkpt lat="42.305846657162455" lon="13.777821556580385"><ele>421.33333333333337</ele><time>2026-05-03T10:10:56Z</time></trkpt><trkpt lat="42.30575829444472" lon="13.77791319220949"><ele>421.1666666666667</ele><time>2026-05-03T10:10:57Z</time></trkpt><trkpt lat="42.30569434812285" lon="13.777996117772767"><ele>421.0</ele><time>2026-05-03T10:10:58Z</time></trkpt><trkpt lat="42.305613914269934" lon="13.778087849022738"><ele>419.6666666666667</ele><time>2026-05-03T10:10:59Z</time></trkpt><trkpt lat="42.30553625379815" lon="13.778146511417697"><ele>418.33333333333337</ele><time>2026-05-03T10:11:00Z</time></trkpt><trkpt lat="42.30543988439586" lon="13.778200264059338"><ele>417.0</ele><time>2026-05-03T10:11:01Z</time></trkpt><trkpt lat="42.3053733075073" lon="13.77824844762355"><ele>415.66666666666663</ele><time>2026-05-03T10:11:02Z</time></trkpt><trkpt lat="42.305312223238204" lon="13.778328070210057"><ele>414.3333333333333</ele><time>2026-05-03T10:11:03Z</time></trkpt><trkpt lat="42.305258861617595" lon="13.778418408156469"><ele>413.0</ele><time>2026-05-03T10:11:04Z</time></trkpt><trkpt lat="42.30521465821216" lon="13.778509331782779"><ele>413.2</ele><time>2026-05-03T10:11:05Z</time></trkpt><trkpt lat="42.30515042763718" lon="13.7786184885756"><ele>413.4</ele><time>2026-05-03T10:11:06Z</time></trkpt><trkpt lat="42.30506741598039" lon="13.778703510283078"><ele>413.59999999999997</ele><time>2026-05-03T10:11:07Z</time></trkpt><trkpt lat="42.30501218930942" lon="13.77881303538675"><ele>413.79999999999995</ele><time>2026-05-03T10:11:08Z</time></trkpt><trkpt lat="42.30494574428547" lon="13.778922946310937"><ele>414.0</ele><time>2026-05-03T10:11:09Z</time></trkpt><trkpt lat="42.30486382051642" lon="13.779042729974057"><ele>414.0</ele><time>2026-05-03T10:11:10Z</time></trkpt><trkpt lat="42.30478303683897" lon="13.779149584888327"><ele>414.0</ele><time>2026-05-03T10:11:11Z</time></trkpt><trkpt lat="42.30470581373973" lon="13.779251632987833"><ele>414.0</ele><time>2026-05-03T10:11:12Z</time></trkpt><trkpt lat="42.304633898567914" lon="13.779332903561192"><ele>414.0</ele><time>2026-05-03T10:11:13Z</time></trkpt><trkpt lat="42.30455955802651" lon="13.779408492245294"><ele>414.0</ele><time>2026-05-03T10:11:14Z</time></trkpt><trkpt lat="42.30447732509807" lon="13.779451657753329"><ele>412.4</ele><time>2026-05-03T10:11:15Z</time></trkpt><trkpt lat="42.304357862219376" lon="13.779448474877405"><ele>410.79999999999995</ele><time>2026-05-03T10:11:16Z</time></trkpt><trkpt lat="42.30428449384251" lon="13.779507937702206"><ele>409.20000000000005</ele><time>2026-05-03T10:11:17Z</time></trkpt><trkpt lat="42.30420756930414" lon="13.779607079163492"><ele>407.6</ele><time>2026-05-03T10:11:18Z</time></trkpt><trkpt lat="42.30415535039952" lon="13.77970981267779"><ele>406.0</ele><time>2026-05-03T10:11:19Z</time></trkpt><trkpt lat="42.30409788806922" lon="13.779801384945218"><ele>406.00000000000006</ele><time>2026-05-03T10:11:20Z</time></trkpt><trkpt lat="42.30403472417024" lon="13.77988729733895"><ele>406.0</ele><time>2026-05-03T10:11:21Z</time></trkpt><trkpt lat="42.3039671249284" lon="13.779973227298902"><ele>406.0</ele><time>2026-05-03T10:11:22Z</time></trkpt><trkpt lat="42.303903568359196" lon="13.780055252599727"><ele>406.0</ele><time>2026-05-03T10:11:23Z</time></trkpt><trkpt lat="42.30385164320171" lon="13.780128064834535"><ele>406.00000000000006</ele><time>2026-05-03T10:11:24Z</time></trkpt><trkpt lat="42.30380844542417" lon="13.780190679979514"><ele>406.0</ele><time>2026-05-03T10:11:26Z</time></trkpt><trkpt lat="42.3037680746246" lon="13.78027299661483"><ele>405.4</ele><time>2026-05-03T10:11:39.999Z</time></trkpt><trkpt lat="42.303704752643554" lon="13.780424042981412"><ele>404.8</ele><time>2026-05-03T10:11:41.999Z</time></trkpt><trkpt lat="42.30366883179341" lon="13.780521031362712"><ele>404.2</ele><time>2026-05-03T10:11:42.999Z</time></trkpt><trkpt lat="42.303637981762954" lon="13.780630342440976"><ele>403.59999999999997</ele><time>2026-05-03T10:11:43.999Z</time></trkpt><trkpt lat="42.3035944410642" lon="13.780726671244135"><ele>403.0</ele><time>2026-05-03T10:11:44.999Z</time></trkpt><trkpt lat="42.30356847423334" lon="13.780816656961871"><ele>403.0</ele><time>2026-05-03T10:11:45.999Z</time></trkpt><trkpt lat="42.303486826176176" lon="13.780921568339348"><ele>403.0</ele><time>2026-05-03T10:11:47.999Z</time></trkpt><trkpt lat="42.30338847755419" lon="13.781021650259909"><ele>403.0</ele><time>2026-05-03T10:11:50Z</time></trkpt><trkpt lat="42.30331440442332" lon="13.78110852690186"><ele>403.0</ele><time>2026-05-03T10:11:51Z</time></trkpt><trkpt lat="42.303225619323314" lon="13.781187560207902"><ele>403.0</ele><time>2026-05-03T10:11:52Z</time></trkpt><trkpt lat="42.30314603806707" lon="13.781267145863149"><ele>401.0</ele><time>2026-05-03T10:11:53Z</time></trkpt><trkpt lat="42.30306597726696" lon="13.78136670944369"><ele>399.0</ele><time>2026-05-03T10:11:54Z</time></trkpt><trkpt lat="42.30298313707206" lon="13.781489120771752"><ele>397.0</ele><time>2026-05-03T10:11:55Z</time></trkpt><trkpt lat="42.302891420865336" lon="13.781625463350894"><ele>395.0</ele><time>2026-05-03T10:11:56Z</time></trkpt><trkpt lat="42.30279803738736" lon="13.78177149323689"><ele>396.0</ele><time>2026-05-03T10:11:57Z</time></trkpt><trkpt lat="42.30269800358537" lon="13.781895332333582"><ele>397.0</ele><time>2026-05-03T10:11:58Z</time></trkpt><trkpt lat="42.30260825922311" lon="13.782018058106056"><ele>398.0</ele><time>2026-05-03T10:11:59Z</time></trkpt><trkpt lat="42.302521820452384" lon="13.78212109346927"><ele>399.0</ele><time>2026-05-03T10:12:00Z</time></trkpt><trkpt lat="42.30244373152555" lon="13.782211516947067"><ele>399.0</ele><time>2026-05-03T10:12:01Z</time></trkpt><trkpt lat="42.30235517497142" lon="13.782299065491"><ele>399.0</ele><time>2026-05-03T10:12:02Z</time></trkpt><trkpt lat="42.30225764833331" lon="13.782390850631232"><ele>399.0</ele><time>2026-05-03T10:12:03Z</time></trkpt><trkpt lat="42.30218221503823" lon="13.78244822612256"><ele>399.0</ele><time>2026-05-03T10:12:04Z</time></trkpt><trkpt lat="42.30211247461041" lon="13.782418428545332"><ele>399.0</ele><time>2026-05-03T10:12:07Z</time></trkpt><trkpt lat="42.30213429916163" lon="13.78228903791673"><ele>397.2</ele><time>2026-05-03T10:12:08Z</time></trkpt><trkpt lat="42.30212220644101" lon="13.782168158416802"><ele>395.4</ele><time>2026-05-03T10:12:09Z</time></trkpt><trkpt lat="42.30209308400672" lon="13.782025318745253"><ele>393.6</ele><time>2026-05-03T10:12:10Z</time></trkpt><trkpt lat="42.3020809772111" lon="13.781881105093168"><ele>391.8</ele><time>2026-05-03T10:12:11Z</time></trkpt><trkpt lat="42.30204440133648" lon="13.781753848246858"><ele>390.0</ele><time>2026-05-03T10:12:12Z</time></trkpt><trkpt lat="42.30202648175141" lon="13.781613654690277"><ele>389.1428571428571</ele><time>2026-05-03T10:12:13Z</time></trkpt><trkpt lat="42.3020215681042" lon="13.781491538687469"><ele>388.2857142857143</ele><time>2026-05-03T10:12:14Z</time></trkpt><trkpt lat="42.302007430891614" lon="13.781393331280759"><ele>387.42857142857144</ele><time>2026-05-03T10:12:15Z</time></trkpt><trkpt lat="42.30198090134272" lon="13.781305285689337"><ele>386.57142857142856</ele><time>2026-05-03T10:12:16Z</time></trkpt><trkpt lat="42.30198344131178" lon="13.781206913249138"><ele>385.7142857142857</ele><time>2026-05-03T10:12:17Z</time></trkpt><trkpt lat="42.30197211478896" lon="13.781111796116974"><ele>384.85714285714283</ele><time>2026-05-03T10:12:18Z</time></trkpt><trkpt lat="42.3019612785782" lon="13.781017931547428"><ele>384.0</ele><time>2026-05-03T10:12:19Z</time></trkpt><trkpt lat="42.30195087932521" lon="13.7809278517224"><ele>384.0</ele><time>2026-05-03T10:12:20Z</time></trkpt><trkpt lat="42.30193328978111" lon="13.780764899397724"><ele>384.0</ele><time>2026-05-03T10:12:22Z</time></trkpt><trkpt lat="42.301903095699096" lon="13.780607662007482"><ele>384.0</ele><time>2026-05-03T10:12:24Z</time></trkpt><trkpt lat="42.30189871980058" lon="13.780522323961868"><ele>384.0</ele><time>2026-05-03T10:12:25Z</time></trkpt><trkpt lat="42.30191861627428" lon="13.780385670623152"><ele>384.0</ele><time>2026-05-03T10:12:27Z</time></trkpt><trkpt lat="42.301950998743905" lon="13.780291924309642"><ele>383.6666666666667</ele><time>2026-05-03T10:12:29Z</time></trkpt><trkpt lat="42.301991583924085" lon="13.780138854668825"><ele>383.3333333333333</ele><time>2026-05-03T10:12:31Z</time></trkpt><trkpt lat="42.30196422422108" lon="13.780057683847675"><ele>383.0</ele><time>2026-05-03T10:12:32Z</time></trkpt><trkpt lat="42.301945447464796" lon="13.77995341383639"><ele>382.66666666666663</ele><time>2026-05-03T10:12:33Z</time></trkpt><trkpt lat="42.30190561163881" lon="13.77985545441481"><ele>382.3333333333333</ele><time>2026-05-03T10:12:34Z</time></trkpt><trkpt lat="42.30186927928902" lon="13.779761840300761"><ele>382.0</ele><time>2026-05-03T10:12:35Z</time></trkpt><trkpt lat="42.30183236748359" lon="13.779660990396321"><ele>382.0</ele><time>2026-05-03T10:12:36Z</time></trkpt><trkpt lat="42.301792618902184" lon="13.779552390168664"><ele>382.0</ele><time>2026-05-03T10:12:37Z</time></trkpt><trkpt lat="42.301748449380355" lon="13.77942721183652"><ele>382.0</ele><time>2026-05-03T10:12:38Z</time></trkpt><trkpt lat="42.30171066075364" lon="13.77931145917757"><ele>382.0</ele><time>2026-05-03T10:12:39Z</time></trkpt><trkpt lat="42.3016637636178" lon="13.779205259449775"><ele>382.0</ele><time>2026-05-03T10:12:40Z</time></trkpt><trkpt lat="42.30163131303758" lon="13.779082507473726"><ele>381.40000000000003</ele><time>2026-05-03T10:12:41Z</time></trkpt><trkpt lat="42.301605711875425" lon="13.778956173803085"><ele>380.8</ele><time>2026-05-03T10:12:42Z</time></trkpt><trkpt lat="42.30157553489826" lon="13.778834401381369"><ele>380.2</ele><time>2026-05-03T10:12:43Z</time></trkpt><trkpt lat="42.30153782037403" lon="13.778693647070629"><ele>379.6</ele><time>2026-05-03T10:12:44Z</time></trkpt><trkpt lat="42.30150860303023" lon="13.778554250313666"><ele>379.0</ele><time>2026-05-03T10:12:45Z</time></trkpt><trkpt lat="42.30147089585094" lon="13.778390562043628"><ele>378.0</ele><time>2026-05-03T10:12:46Z</time></trkpt><trkpt lat="42.3014231477251" lon="13.77822935326417"><ele>377.0</ele><time>2026-05-03T10:12:47Z</time></trkpt><trkpt lat="42.30137292816396" lon="13.778076592090185"><ele>376.0</ele><time>2026-05-03T10:12:48Z</time></trkpt><trkpt lat="42.30132350139079" lon="13.777928389271922"><ele>375.0</ele><time>2026-05-03T10:12:49Z</time></trkpt><trkpt lat="42.30130924063798" lon="13.777777488219373"><ele>373.2</ele><time>2026-05-03T10:12:50Z</time></trkpt><trkpt lat="42.30129288532788" lon="13.777643814310016"><ele>371.4</ele><time>2026-05-03T10:12:51Z</time></trkpt><trkpt lat="42.30127899780027" lon="13.777509108718128"><ele>369.6</ele><time>2026-05-03T10:12:52Z</time></trkpt><trkpt lat="42.30126862386939" lon="13.777348604247553"><ele>367.8</ele><time>2026-05-03T10:12:53Z</time></trkpt><trkpt lat="42.30127379593477" lon="13.777191903524166"><ele>366.0</ele><time>2026-05-03T10:12:54Z</time></trkpt><trkpt lat="42.30130673328415" lon="13.77705146349193"><ele>366.0</ele><time>2026-05-03T10:12:55Z</time></trkpt><trkpt lat="42.301308847660195" lon="13.776904899172669"><ele>366.0</ele><time>2026-05-03T10:12:56Z</time></trkpt><trkpt lat="42.301295108116605" lon="13.776792949480075"><ele>366.0</ele><time>2026-05-03T10:12:57Z</time></trkpt><trkpt lat="42.30122439276045" lon="13.776694255826227"><ele>366.0</ele><time>2026-05-03T10:12:58Z</time></trkpt><trkpt lat="42.30117280217933" lon="13.776559873650394"><ele>366.0</ele><time>2026-05-03T10:12:59Z</time></trkpt><trkpt lat="42.30110240511814" lon="13.77642361312712"><ele>366.1666666666667</ele><time>2026-05-03T10:13:00Z</time></trkpt><trkpt lat="42.30102514686622" lon="13.776310734681784"><ele>366.3333333333333</ele><time>2026-05-03T10:13:01Z</time></trkpt><trkpt lat="42.300936915047856" lon="13.77622335418185"><ele>366.5</ele><time>2026-05-03T10:13:02Z</time></trkpt><trkpt lat="42.300877613126794" lon="13.776160436856353"><ele>366.66666666666663</ele><time>2026-05-03T10:13:03Z</time></trkpt><trkpt lat="42.30085018423798" lon="13.776065560013118"><ele>366.8333333333333</ele><time>2026-05-03T10:13:05Z</time></trkpt><trkpt lat="42.300891971363946" lon="13.775988002479854"><ele>367.0</ele><time>2026-05-03T10:13:07Z</time></trkpt><trkpt lat="42.30091535611308" lon="13.775898939856395"><ele>367.6</ele><time>2026-05-03T10:13:08Z</time></trkpt><trkpt lat="42.30083413435639" lon="13.775732608985733"><ele>368.20000000000005</ele><time>2026-05-03T10:13:10Z</time></trkpt><trkpt lat="42.300750477622884" lon="13.775671886831127"><ele>368.8</ele><time>2026-05-03T10:13:11Z</time></trkpt><trkpt lat="42.3006861272982" lon="13.77562543990226"><ele>369.4</ele><time>2026-05-03T10:13:12Z</time></trkpt><trkpt lat="42.300622906888975" lon="13.775601914066893"><ele>370.0</ele><time>2026-05-03T10:13:13Z</time></trkpt><trkpt lat="42.30055759138035" lon="13.775571889783764"><ele>368.0</ele><time>2026-05-03T10:13:14Z</time></trkpt><trkpt lat="42.300491977074145" lon="13.775532634635661"><ele>366.0</ele><time>2026-05-03T10:13:15Z</time></trkpt><trkpt lat="42.30041248788052" lon="13.775393888939004"><ele>364.0</ele><time>2026-05-03T10:13:17Z</time></trkpt><trkpt lat="42.30034656106001" lon="13.77527633818946"><ele>362.0</ele><time>2026-05-03T10:13:18Z</time></trkpt><trkpt lat="42.30026542283907" lon="13.775160828783648"><ele>360.0</ele><time>2026-05-03T10:13:19Z</time></trkpt><trkpt lat="42.30018651797279" lon="13.775075819244218"><ele>360.0</ele><time>2026-05-03T10:13:20Z</time></trkpt><trkpt lat="42.30011803852021" lon="13.775018542882236"><ele>360.0</ele><time>2026-05-03T10:13:21Z</time></trkpt><trkpt lat="42.2999975206784" lon="13.7749897239274"><ele>360.0</ele><time>2026-05-03T10:13:23Z</time></trkpt><trkpt lat="42.29990558232465" lon="13.775080275821946"><ele>360.0</ele><time>2026-05-03T10:13:24Z</time></trkpt><trkpt lat="42.29984847243482" lon="13.77521020915524"><ele>360.0</ele><time>2026-05-03T10:13:25Z</time></trkpt><trkpt lat="42.29974786218179" lon="13.775279811569135"><ele>359.6</ele><time>2026-05-03T10:13:26Z</time></trkpt><trkpt lat="42.29965768932185" lon="13.775362326983634"><ele>359.2</ele><time>2026-05-03T10:13:27Z</time></trkpt><trkpt lat="42.29958759018985" lon="13.77543122409896"><ele>358.79999999999995</ele><time>2026-05-03T10:13:28Z</time></trkpt><trkpt lat="42.29952135906648" lon="13.77548194540607"><ele>358.4</ele><time>2026-05-03T10:13:29Z</time></trkpt><trkpt lat="42.29942299896638" lon="13.775504707822009"><ele>358.0</ele><time>2026-05-03T10:13:31Z</time></trkpt><trkpt lat="42.299308214005265" lon="13.775427420718502"><ele>358.0</ele><time>2026-05-03T10:13:33Z</time></trkpt><trkpt lat="42.29923834416256" lon="13.77536713217812"><ele>358.0</ele><time>2026-05-03T10:13:34Z</time></trkpt><trkpt lat="42.299176890342906" lon="13.775313936982311"><ele>358.0</ele><time>2026-05-03T10:13:35Z</time></trkpt><trkpt lat="42.299079071750576" lon="13.775236338280944"><ele>358.0</ele><time>2026-05-03T10:13:37Z</time></trkpt><trkpt lat="42.29891460676486" lon="13.775442645485523"><ele>357.5</ele><time>2026-05-03T10:13:40Z</time></trkpt><trkpt lat="42.29887875324526" lon="13.775553995910172"><ele>357.0</ele><time>2026-05-03T10:13:41Z</time></trkpt><trkpt lat="42.29884049871196" lon="13.775698240131492"><ele>356.5</ele><time>2026-05-03T10:13:42Z</time></trkpt><trkpt lat="42.2988128570428" lon="13.775860849862973"><ele>356.0</ele><time>2026-05-03T10:13:43Z</time></trkpt><trkpt lat="42.29877773842966" lon="13.776026183749545"><ele>356.0</ele><time>2026-05-03T10:13:44Z</time></trkpt><trkpt lat="42.298740308280756" lon="13.77620399026534"><ele>356.0</ele><time>2026-05-03T10:13:45Z</time></trkpt><trkpt lat="42.29868308596505" lon="13.776383773255194"><ele>356.0</ele><time>2026-05-03T10:13:46Z</time></trkpt><trkpt lat="42.2986410861498" lon="13.776566682637561"><ele>356.0</ele><time>2026-05-03T10:13:47Z</time></trkpt><trkpt lat="42.29859842643327" lon="13.776752465840561"><ele>356.25</ele><time>2026-05-03T10:13:48Z</time></trkpt><trkpt lat="42.29855302532988" lon="13.776945150547453"><ele>356.5</ele><time>2026-05-03T10:13:49Z</time></trkpt><trkpt lat="42.29852051259962" lon="13.77714542130693"><ele>356.75</ele><time>2026-05-03T10:13:50Z</time></trkpt><trkpt lat="42.29846183298506" lon="13.77732861153859"><ele>357.0</ele><time>2026-05-03T10:13:51Z</time></trkpt><trkpt lat="42.29841991026005" lon="13.777491165484921"><ele>357.0</ele><time>2026-05-03T10:13:52Z</time></trkpt><trkpt lat="42.2983935500773" lon="13.77760769878235"><ele>357.0</ele><time>2026-05-03T10:13:53Z</time></trkpt><trkpt lat="42.29834669233256" lon="13.77769165223074"><ele>357.0</ele><time>2026-05-03T10:13:54Z</time></trkpt><trkpt lat="42.29830223549569" lon="13.777755829578256"><ele>357.0</ele><time>2026-05-03T10:13:55Z</time></trkpt><trkpt lat="42.29822679138233" lon="13.77773681755492"><ele>357.0</ele><time>2026-05-03T10:13:56Z</time></trkpt><trkpt lat="42.29816297548642" lon="13.777788476845181"><ele>357.0</ele><time>2026-05-03T10:13:57Z</time></trkpt><trkpt lat="42.2980765213047" lon="13.777888759182252"><ele>356.25</ele><time>2026-05-03T10:13:58Z</time></trkpt><trkpt lat="42.297981877635934" lon="13.778005120616818"><ele>355.5</ele><time>2026-05-03T10:13:59Z</time></trkpt><trkpt lat="42.297876746248804" lon="13.778139844946097"><ele>354.75</ele><time>2026-05-03T10:14:00Z</time></trkpt><trkpt lat="42.2977640409191" lon="13.778285692762276"><ele>354.0</ele><time>2026-05-03T10:14:01Z</time></trkpt><trkpt lat="42.29764745172292" lon="13.778436566508354"><ele>353.5</ele><time>2026-05-03T10:14:02Z</time></trkpt><trkpt lat="42.29754104001645" lon="13.778577205608013"><ele>353.0</ele><time>2026-05-03T10:14:03Z</time></trkpt><trkpt lat="42.297436851176215" lon="13.778710896537154"><ele>352.5</ele><time>2026-05-03T10:14:04Z</time></trkpt><trkpt lat="42.29733151513555" lon="13.778830345112729"><ele>352.0</ele><time>2026-05-03T10:14:05Z</time></trkpt><trkpt lat="42.29721090633306" lon="13.77893731271478"><ele>351.75</ele><time>2026-05-03T10:14:06Z</time></trkpt><trkpt lat="42.29708934812005" lon="13.77903893604406"><ele>351.5</ele><time>2026-05-03T10:14:07Z</time></trkpt><trkpt lat="42.29697406232477" lon="13.779152697716622"><ele>351.25</ele><time>2026-05-03T10:14:08Z</time></trkpt><trkpt lat="42.296868471783135" lon="13.779278324337227"><ele>351.0</ele><time>2026-05-03T10:14:09Z</time></trkpt><trkpt lat="42.296759951898245" lon="13.779422677455022"><ele>351.0</ele><time>2026-05-03T10:14:10Z</time></trkpt><trkpt lat="42.29666586703104" lon="13.77956081996822"><ele>351.0</ele><time>2026-05-03T10:14:11Z</time></trkpt><trkpt lat="42.296568780010396" lon="13.779727712962766"><ele>351.0</ele><time>2026-05-03T10:14:12Z</time></trkpt><trkpt lat="42.29648558814023" lon="13.779889755053768"><ele>351.0</ele><time>2026-05-03T10:14:13Z</time></trkpt><trkpt lat="42.2964050596509" lon="13.780046550514072"><ele>351.5</ele><time>2026-05-03T10:14:14Z</time></trkpt><trkpt lat="42.2963198896911" lon="13.780207430767017"><ele>352.0</ele><time>2026-05-03T10:14:15Z</time></trkpt><trkpt lat="42.296226260531505" lon="13.780347807937837"><ele>352.5</ele><time>2026-05-03T10:14:16Z</time></trkpt><trkpt lat="42.296152854571666" lon="13.780508738899178"><ele>353.0</ele><time>2026-05-03T10:14:17Z</time></trkpt><trkpt lat="42.29606356605319" lon="13.780663413523596"><ele>353.0</ele><time>2026-05-03T10:14:18Z</time></trkpt><trkpt lat="42.295965988493535" lon="13.780815816491517"><ele>353.0</ele><time>2026-05-03T10:14:19Z</time></trkpt><trkpt lat="42.29586585040788" lon="13.780976448638876"><ele>353.0</ele><time>2026-05-03T10:14:20Z</time></trkpt><trkpt lat="42.295773500585256" lon="13.78114511244545"><ele>352.75</ele><time>2026-05-03T10:14:21Z</time></trkpt><trkpt lat="42.29571178978061" lon="13.781312924723949"><ele>352.5</ele><time>2026-05-03T10:14:22Z</time></trkpt><trkpt lat="42.29563771456831" lon="13.781433601551754"><ele>352.25</ele><time>2026-05-03T10:14:23Z</time></trkpt><trkpt lat="42.295532010695915" lon="13.781537795734177"><ele>352.0</ele><time>2026-05-03T10:14:24Z</time></trkpt><trkpt lat="42.295411061021845" lon="13.781644904890893"><ele>352.0</ele><time>2026-05-03T10:14:25Z</time></trkpt><trkpt lat="42.29527649032879" lon="13.781771467598809"><ele>352.0</ele><time>2026-05-03T10:14:26Z</time></trkpt><trkpt lat="42.295156512961675" lon="13.781916195166472"><ele>352.0</ele><time>2026-05-03T10:14:27Z</time></trkpt><trkpt lat="42.295021653118276" lon="13.782044422703045"><ele>352.0</ele><time>2026-05-03T10:14:28Z</time></trkpt><trkpt lat="42.29489889266934" lon="13.782181775426835"><ele>352.0</ele><time>2026-05-03T10:14:29Z</time></trkpt><trkpt lat="42.29477808360568" lon="13.782320731897045"><ele>352.0</ele><time>2026-05-03T10:14:30Z</time></trkpt><trkpt lat="42.294648612513996" lon="13.782473001466931"><ele>351.3333333333333</ele><time>2026-05-03T10:14:31Z</time></trkpt><trkpt lat="42.294528080445524" lon="13.782632658409106"><ele>350.6666666666667</ele><time>2026-05-03T10:14:32Z</time></trkpt><trkpt lat="42.294420549704164" lon="13.782784902409727"><ele>350.0</ele><time>2026-05-03T10:14:33Z</time></trkpt><trkpt lat="42.29430813475957" lon="13.7829352369687"><ele>350.0</ele><time>2026-05-03T10:14:34Z</time></trkpt><trkpt lat="42.29418872028305" lon="13.78310302525073"><ele>350.0</ele><time>2026-05-03T10:14:35.001Z</time></trkpt><trkpt lat="42.29405490696761" lon="13.783258026177608"><ele>350.0</ele><time>2026-05-03T10:14:36.001Z</time></trkpt><trkpt lat="42.29393599991419" lon="13.78342077027329"><ele>350.33333333333337</ele><time>2026-05-03T10:14:37.001Z</time></trkpt><trkpt lat="42.29382234212674" lon="13.783572007027953"><ele>350.6666666666667</ele><time>2026-05-03T10:14:38.001Z</time></trkpt><trkpt lat="42.293717692204446" lon="13.783714369204896"><ele>351.0</ele><time>2026-05-03T10:14:39.001Z</time></trkpt><trkpt lat="42.29360333694626" lon="13.78387013164234"><ele>351.0</ele><time>2026-05-03T10:14:40.001Z</time></trkpt><trkpt lat="42.29347549813358" lon="13.784035551322045"><ele>351.0</ele><time>2026-05-03T10:14:41.001Z</time></trkpt><trkpt lat="42.293350520160104" lon="13.784202662492193"><ele>351.0</ele><time>2026-05-03T10:14:42.001Z</time></trkpt><trkpt lat="42.29321507335019" lon="13.784306858831965"><ele>351.25</ele><time>2026-05-03T10:14:43.001Z</time></trkpt><trkpt lat="42.29309780232168" lon="13.784404299941645"><ele>351.5</ele><time>2026-05-03T10:14:44.001Z</time></trkpt><trkpt lat="42.2929864569806" lon="13.784490044443803"><ele>351.75</ele><time>2026-05-03T10:14:45.001Z</time></trkpt><trkpt lat="42.29286829787964" lon="13.78457549053691"><ele>352.0</ele><time>2026-05-03T10:14:46.001Z</time></trkpt><trkpt lat="42.2927490710951" lon="13.784656522284722"><ele>352.0</ele><time>2026-05-03T10:14:47.001Z</time></trkpt><trkpt lat="42.29263014102503" lon="13.784734059380712"><ele>352.0</ele><time>2026-05-03T10:14:48.001Z</time></trkpt><trkpt lat="42.29251409772688" lon="13.7848066947575"><ele>352.0</ele><time>2026-05-03T10:14:49.001Z</time></trkpt><trkpt lat="42.2924027693477" lon="13.784873916548937"><ele>352.0</ele><time>2026-05-03T10:14:50.001Z</time></trkpt><trkpt lat="42.292279144851" lon="13.784938933481516"><ele>351.5</ele><time>2026-05-03T10:14:51.001Z</time></trkpt><trkpt lat="42.29214072055062" lon="13.784993664934627"><ele>351.0</ele><time>2026-05-03T10:14:52.001Z</time></trkpt><trkpt lat="42.29200788759286" lon="13.785041180267816"><ele>350.5</ele><time>2026-05-03T10:14:53.001Z</time></trkpt><trkpt lat="42.291882533392744" lon="13.785090835559242"><ele>350.0</ele><time>2026-05-03T10:14:54.001Z</time></trkpt><trkpt lat="42.291751689493715" lon="13.785160249097508"><ele>350.33333333333337</ele><time>2026-05-03T10:14:55.001Z</time></trkpt><trkpt lat="42.29160520037962" lon="13.785248315821926"><ele>350.6666666666667</ele><time>2026-05-03T10:14:56.001Z</time></trkpt><trkpt lat="42.29146502382801" lon="13.785343495071059"><ele>351.0</ele><time>2026-05-03T10:14:57.001Z</time></trkpt><trkpt lat="42.29134668212365" lon="13.785428725636455"><ele>351.0</ele><time>2026-05-03T10:14:58.001Z</time></trkpt><trkpt lat="42.29123061157086" lon="13.785515430291042"><ele>351.0</ele><time>2026-05-03T10:14:59.001Z</time></trkpt><trkpt lat="42.29111139085398" lon="13.785620975995775"><ele>351.0</ele><time>2026-05-03T10:15:00.001Z</time></trkpt><trkpt lat="42.29098306983279" lon="13.785702471053298"><ele>351.0</ele><time>2026-05-03T10:15:01.001Z</time></trkpt><trkpt lat="42.290862895123865" lon="13.785795536601725"><ele>351.0</ele><time>2026-05-03T10:15:02.001Z</time></trkpt><trkpt lat="42.29074041433893" lon="13.785902682988462"><ele>351.0</ele><time>2026-05-03T10:15:03.001Z</time></trkpt><trkpt lat="42.290627006635695" lon="13.785999143603716"><ele>351.0</ele><time>2026-05-03T10:15:04.001Z</time></trkpt><trkpt lat="42.290517221710346" lon="13.786093162616412"><ele>351.0</ele><time>2026-05-03T10:15:05.001Z</time></trkpt><trkpt lat="42.29040208796778" lon="13.786162397034882"><ele>351.20000000000005</ele><time>2026-05-03T10:15:06.001Z</time></trkpt><trkpt lat="42.29030124575786" lon="13.786242432542801"><ele>351.40000000000003</ele><time>2026-05-03T10:15:07.001Z</time></trkpt><trkpt lat="42.290201391533216" lon="13.786321683946257"><ele>351.6</ele><time>2026-05-03T10:15:08.001Z</time></trkpt><trkpt lat="42.290106025369354" lon="13.786397373236522"><ele>351.8</ele><time>2026-05-03T10:15:09.001Z</time></trkpt><trkpt lat="42.290015123023856" lon="13.786468362581722"><ele>352.0</ele><time>2026-05-03T10:15:10.001Z</time></trkpt><trkpt lat="42.289914274495594" lon="13.78654719832111"><ele>352.0</ele><time>2026-05-03T10:15:11.001Z</time></trkpt><trkpt lat="42.28981560708242" lon="13.786649959533024"><ele>352.0</ele><time>2026-05-03T10:15:12.001Z</time></trkpt><trkpt lat="42.2897065393904" lon="13.786707192742123"><ele>352.0</ele><time>2026-05-03T10:15:13.001Z</time></trkpt><trkpt lat="42.28959981303899" lon="13.786787242085746"><ele>352.0</ele><time>2026-05-03T10:15:14.001Z</time></trkpt><trkpt lat="42.2894866657002" lon="13.78687101464156"><ele>352.75</ele><time>2026-05-03T10:15:15.001Z</time></trkpt><trkpt lat="42.28936658951938" lon="13.786959917197274"><ele>353.5</ele><time>2026-05-03T10:15:16.001Z</time></trkpt><trkpt lat="42.289251153386616" lon="13.787046855320494"><ele>354.25</ele><time>2026-05-03T10:15:17.001Z</time></trkpt><trkpt lat="42.28914992636973" lon="13.787127915984787"><ele>355.0</ele><time>2026-05-03T10:15:18.001Z</time></trkpt><trkpt lat="42.2890317405457" lon="13.787227940883012"><ele>355.0</ele><time>2026-05-03T10:15:19.001Z</time></trkpt><trkpt lat="42.28892415575492" lon="13.787323887222072"><ele>355.0</ele><time>2026-05-03T10:15:20.001Z</time></trkpt><trkpt lat="42.28880903668423" lon="13.787427517178717"><ele>355.0</ele><time>2026-05-03T10:15:21.001Z</time></trkpt><trkpt lat="42.288694174421714" lon="13.787530915979946"><ele>355.0</ele><time>2026-05-03T10:15:22.001Z</time></trkpt><trkpt lat="42.288579459587226" lon="13.787633508625051"><ele>356.25</ele><time>2026-05-03T10:15:23.001Z</time></trkpt><trkpt lat="42.28847598628298" lon="13.787721348946947"><ele>357.5</ele><time>2026-05-03T10:15:24.001Z</time></trkpt><trkpt lat="42.28835877722655" lon="13.787819105701752"><ele>358.75</ele><time>2026-05-03T10:15:25.001Z</time></trkpt><trkpt lat="42.2882281368433" lon="13.78791919561428"><ele>360.0</ele><time>2026-05-03T10:15:26.001Z</time></trkpt><trkpt lat="42.28808839717925" lon="13.788001850633801"><ele>360.5</ele><time>2026-05-03T10:15:27.001Z</time></trkpt><trkpt lat="42.28796727896503" lon="13.788035403466017"><ele>361.0</ele><time>2026-05-03T10:15:28.001Z</time></trkpt><trkpt lat="42.2878367652626" lon="13.788060730918799"><ele>361.5</ele><time>2026-05-03T10:15:29.001Z</time></trkpt><trkpt lat="42.287694630503196" lon="13.788113734980227"><ele>362.0</ele><time>2026-05-03T10:15:30.001Z</time></trkpt><trkpt lat="42.28755953139718" lon="13.788175340967184"><ele>362.0</ele><time>2026-05-03T10:15:31.001Z</time></trkpt><trkpt lat="42.28743804425914" lon="13.788237645973098"><ele>362.0</ele><time>2026-05-03T10:15:32.001Z</time></trkpt><trkpt lat="42.28731376749402" lon="13.78830667696128"><ele>362.0</ele><time>2026-05-03T10:15:33.001Z</time></trkpt><trkpt lat="42.28719682087248" lon="13.788375798687225"><ele>362.0</ele><time>2026-05-03T10:15:34.001Z</time></trkpt><trkpt lat="42.28708126647885" lon="13.788445994051472"><ele>362.0</ele><time>2026-05-03T10:15:35.001Z</time></trkpt><trkpt lat="42.28697164630971" lon="13.788514076968433"><ele>362.0</ele><time>2026-05-03T10:15:36.001Z</time></trkpt><trkpt lat="42.28686945647301" lon="13.788577545511446"><ele>362.0</ele><time>2026-05-03T10:15:37.001Z</time></trkpt><trkpt lat="42.28677666834621" lon="13.788637111726457"><ele>362.0</ele><time>2026-05-03T10:15:38.001Z</time></trkpt><trkpt lat="42.286695135149245" lon="13.788691900914452"><ele>362.0</ele><time>2026-05-03T10:15:39.001Z</time></trkpt><trkpt lat="42.28663152457927" lon="13.788737151242238"><ele>362.0</ele><time>2026-05-03T10:15:40.001Z</time></trkpt><trkpt lat="42.28657198554577" lon="13.788781741594367"><ele>362.0</ele><time>2026-05-03T10:15:42.001Z</time></trkpt><trkpt lat="42.28658500700619" lon="13.788635914918123"><ele>362.0</ele><time>2026-05-03T10:15:45.001Z</time></trkpt><trkpt lat="42.28657731272861" lon="13.788487958077937"><ele>362.0</ele><time>2026-05-03T10:15:46.001Z</time></trkpt><trkpt lat="42.28657712049543" lon="13.788300677081288"><ele>362.0</ele><time>2026-05-03T10:15:47.001Z</time></trkpt><trkpt lat="42.28655274614688" lon="13.788083948627815"><ele>360.6666666666667</ele><time>2026-05-03T10:15:48.001Z</time></trkpt><trkpt lat="42.28652206270367" lon="13.78785733763204"><ele>359.3333333333333</ele><time>2026-05-03T10:15:49.001Z</time></trkpt><trkpt lat="42.28649203521608" lon="13.787605905155974"><ele>358.0</ele><time>2026-05-03T10:15:50.001Z</time></trkpt><trkpt lat="42.286463571801725" lon="13.787356370895138"><ele>356.3333333333333</ele><time>2026-05-03T10:15:51.001Z</time></trkpt><trkpt lat="42.286432720478786" lon="13.787097883060172"><ele>354.6666666666667</ele><time>2026-05-03T10:15:52.001Z</time></trkpt><trkpt lat="42.28639878450106" lon="13.786838523815874"><ele>353.0</ele><time>2026-05-03T10:15:53.001Z</time></trkpt><trkpt lat="42.286366141027706" lon="13.786590837938382"><ele>350.0</ele><time>2026-05-03T10:15:54.001Z</time></trkpt><trkpt lat="42.28632751185267" lon="13.78635405274114"><ele>347.0</ele><time>2026-05-03T10:15:55.001Z</time></trkpt><trkpt lat="42.28629687236045" lon="13.786140518709809"><ele>344.0</ele><time>2026-05-03T10:15:56.001Z</time></trkpt><trkpt lat="42.286265805715445" lon="13.785933629742372"><ele>343.6666666666667</ele><time>2026-05-03T10:15:57.001Z</time></trkpt><trkpt lat="42.28623634589946" lon="13.785724747472026"><ele>343.3333333333333</ele><time>2026-05-03T10:15:58.001Z</time></trkpt><trkpt lat="42.28620989812152" lon="13.785514191594254"><ele>343.0</ele><time>2026-05-03T10:15:59.001Z</time></trkpt><trkpt lat="42.286185750193084" lon="13.785308063579684"><ele>343.0</ele><time>2026-05-03T10:16:00.001Z</time></trkpt><trkpt lat="42.286159781815094" lon="13.785082385517809"><ele>343.0</ele><time>2026-05-03T10:16:01.001Z</time></trkpt><trkpt lat="42.28614847187634" lon="13.784859994615891"><ele>343.0</ele><time>2026-05-03T10:16:02.001Z</time></trkpt><trkpt lat="42.28612082775352" lon="13.784627925874938"><ele>343.0</ele><time>2026-05-03T10:16:03.001Z</time></trkpt><trkpt lat="42.286090980504916" lon="13.784383856092528"><ele>343.0</ele><time>2026-05-03T10:16:04.001Z</time></trkpt><trkpt lat="42.286045190701174" lon="13.78413094695985"><ele>343.0</ele><time>2026-05-03T10:16:05.001Z</time></trkpt><trkpt lat="42.28601810098068" lon="13.78387162308527"><ele>343.66666666666663</ele><time>2026-05-03T10:16:06.001Z</time></trkpt><trkpt lat="42.285986621707984" lon="13.783603009851207"><ele>344.3333333333333</ele><time>2026-05-03T10:16:07.001Z</time></trkpt><trkpt lat="42.28595738981507" lon="13.783331280764537"><ele>345.0</ele><time>2026-05-03T10:16:08.001Z</time></trkpt><trkpt lat="42.28593005651939" lon="13.783074202811813"><ele>345.3333333333333</ele><time>2026-05-03T10:16:09.001Z</time></trkpt><trkpt lat="42.28590018354743" lon="13.782825420237817"><ele>345.66666666666663</ele><time>2026-05-03T10:16:10.001Z</time></trkpt><trkpt lat="42.28587962816406" lon="13.782568678862766"><ele>346.0</ele><time>2026-05-03T10:16:11.001Z</time></trkpt><trkpt lat="42.285817635704866" lon="13.782298492408701"><ele>345.3333333333333</ele><time>2026-05-03T10:16:12.001Z</time></trkpt><trkpt lat="42.28572597969346" lon="13.782034241512797"><ele>344.6666666666667</ele><time>2026-05-03T10:16:13.001Z</time></trkpt><trkpt lat="42.28561640221471" lon="13.781755480057429"><ele>344.0</ele><time>2026-05-03T10:16:14.001Z</time></trkpt><trkpt lat="42.28550244836652" lon="13.781479746339427"><ele>344.0</ele><time>2026-05-03T10:16:15.001Z</time></trkpt><trkpt lat="42.285394090800935" lon="13.781217158173519"><ele>344.0</ele><time>2026-05-03T10:16:16.001Z</time></trkpt><trkpt lat="42.285286095106535" lon="13.780955097606583"><ele>344.0</ele><time>2026-05-03T10:16:17.001Z</time></trkpt><trkpt lat="42.28517855067063" lon="13.780692673090345"><ele>343.6666666666667</ele><time>2026-05-03T10:16:18.001Z</time></trkpt><trkpt lat="42.285074567473686" lon="13.78043800172029"><ele>343.3333333333333</ele><time>2026-05-03T10:16:19.001Z</time></trkpt><trkpt lat="42.284959854694634" lon="13.780203214625043"><ele>343.0</ele><time>2026-05-03T10:16:20.001Z</time></trkpt><trkpt lat="42.28486450977211" lon="13.7799670426643"><ele>343.0</ele><time>2026-05-03T10:16:21.001Z</time></trkpt><trkpt lat="42.28476887702588" lon="13.779732555617596"><ele>343.0</ele><time>2026-05-03T10:16:22.001Z</time></trkpt><trkpt lat="42.28467444085485" lon="13.77949856220742"><ele>343.0</ele><time>2026-05-03T10:16:23.001Z</time></trkpt><trkpt lat="42.2845793772418" lon="13.7792678054329"><ele>343.0</ele><time>2026-05-03T10:16:24.001Z</time></trkpt><trkpt lat="42.28449634966254" lon="13.77902185448174"><ele>343.0</ele><time>2026-05-03T10:16:25.001Z</time></trkpt><trkpt lat="42.28439953408513" lon="13.778784737759644"><ele>343.0</ele><time>2026-05-03T10:16:26.001Z</time></trkpt><trkpt lat="42.28428757626415" lon="13.778556857285734"><ele>343.3333333333333</ele><time>2026-05-03T10:16:27.001Z</time></trkpt><trkpt lat="42.28419959786694" lon="13.778295062212012"><ele>343.6666666666667</ele><time>2026-05-03T10:16:28.001Z</time></trkpt><trkpt lat="42.28409553887198" lon="13.77804020521128"><ele>344.0</ele><time>2026-05-03T10:16:29.001Z</time></trkpt><trkpt lat="42.28399186661736" lon="13.777786005883698"><ele>344.33333333333337</ele><time>2026-05-03T10:16:30.001Z</time></trkpt><trkpt lat="42.283891752722944" lon="13.777539928283177"><ele>344.6666666666667</ele><time>2026-05-03T10:16:31.001Z</time></trkpt><trkpt lat="42.283791721890914" lon="13.77729405482665"><ele>345.0</ele><time>2026-05-03T10:16:32.001Z</time></trkpt><trkpt lat="42.28365878181525" lon="13.777014076550683"><ele>345.0</ele><time>2026-05-03T10:16:33.001Z</time></trkpt><trkpt lat="42.28355195124963" lon="13.776760927300344"><ele>345.0</ele><time>2026-05-03T10:16:34.001Z</time></trkpt><trkpt lat="42.2834508747047" lon="13.776508963046233"><ele>345.0</ele><time>2026-05-03T10:16:35.001Z</time></trkpt><trkpt lat="42.2833555192086" lon="13.776265359460528"><ele>345.0</ele><time>2026-05-03T10:16:36.001Z</time></trkpt><trkpt lat="42.2832656023219" lon="13.77603647426078"><ele>345.0</ele><time>2026-05-03T10:16:37.001Z</time></trkpt><trkpt lat="42.28318224681051" lon="13.775820945802243"><ele>345.0</ele><time>2026-05-03T10:16:38.001Z</time></trkpt><trkpt lat="42.283092799420466" lon="13.775605412519269"><ele>345.0</ele><time>2026-05-03T10:16:39.001Z</time></trkpt><trkpt lat="42.283004083495626" lon="13.775399352066406"><ele>345.0</ele><time>2026-05-03T10:16:40.001Z</time></trkpt><trkpt lat="42.282926689695074" lon="13.775191207509572"><ele>345.0</ele><time>2026-05-03T10:16:41.001Z</time></trkpt><trkpt lat="42.28282892376845" lon="13.77500229658051"><ele>346.0</ele><time>2026-05-03T10:16:42.001Z</time></trkpt><trkpt lat="42.282708904703426" lon="13.774846703018163"><ele>347.0</ele><time>2026-05-03T10:16:43.001Z</time></trkpt><trkpt lat="42.28255923600045" lon="13.774718324018327"><ele>348.0</ele><time>2026-05-03T10:16:44.001Z</time></trkpt><trkpt lat="42.28238807852999" lon="13.774636322258077"><ele>348.3333333333333</ele><time>2026-05-03T10:16:45.001Z</time></trkpt><trkpt lat="42.28220939113263" lon="13.774598566257913"><ele>348.66666666666663</ele><time>2026-05-03T10:16:46.001Z</time></trkpt><trkpt lat="42.28202169980569" lon="13.774578366350312"><ele>349.0</ele><time>2026-05-03T10:16:47.001Z</time></trkpt><trkpt lat="42.28184653299195" lon="13.774522284557658"><ele>349.0</ele><time>2026-05-03T10:16:48.001Z</time></trkpt><trkpt lat="42.281696823993926" lon="13.774444964646694"><ele>349.0</ele><time>2026-05-03T10:16:49.001Z</time></trkpt><trkpt lat="42.28159176296919" lon="13.77434846046172"><ele>349.0</ele><time>2026-05-03T10:16:50.001Z</time></trkpt><trkpt lat="42.28149442032215" lon="13.774228220568988"><ele>349.0</ele><time>2026-05-03T10:16:51.001Z</time></trkpt><trkpt lat="42.28137614973589" lon="13.774065184937529"><ele>349.66666666666663</ele><time>2026-05-03T10:16:52.001Z</time></trkpt><trkpt lat="42.28123804608636" lon="13.773900391019978"><ele>350.3333333333333</ele><time>2026-05-03T10:16:53.001Z</time></trkpt><trkpt lat="42.281090815085534" lon="13.77371039308034"><ele>351.0</ele><time>2026-05-03T10:16:54.001Z</time></trkpt><trkpt lat="42.28092993245343" lon="13.773518543853276"><ele>351.6666666666667</ele><time>2026-05-03T10:16:55.001Z</time></trkpt><trkpt lat="42.280823519347805" lon="13.773289884096712"><ele>352.33333333333337</ele><time>2026-05-03T10:16:56.001Z</time></trkpt><trkpt lat="42.28070985532593" lon="13.773070848659293"><ele>353.0</ele><time>2026-05-03T10:16:57.001Z</time></trkpt><trkpt lat="42.28058748719989" lon="13.772856407494027"><ele>353.6666666666667</ele><time>2026-05-03T10:16:58.001Z</time></trkpt><trkpt lat="42.28048449877079" lon="13.772647417116646"><ele>354.3333333333333</ele><time>2026-05-03T10:16:59.001Z</time></trkpt><trkpt lat="42.280386327600255" lon="13.772459554453567"><ele>355.0</ele><time>2026-05-03T10:17:00.001Z</time></trkpt><trkpt lat="42.28030185987037" lon="13.772312497141169"><ele>355.0</ele><time>2026-05-03T10:17:01.001Z</time></trkpt><trkpt lat="42.28020713316089" lon="13.772189832613165"><ele>355.0</ele><time>2026-05-03T10:17:02.001Z</time></trkpt><trkpt lat="42.280083881270706" lon="13.772103263815978"><ele>355.0</ele><time>2026-05-03T10:17:03.001Z</time></trkpt><trkpt lat="42.27997749479625" lon="13.772021155382221"><ele>355.0</ele><time>2026-05-03T10:17:04.001Z</time></trkpt><trkpt lat="42.279886751903966" lon="13.771948214126729"><ele>355.0</ele><time>2026-05-03T10:17:05.001Z</time></trkpt><trkpt lat="42.27980528096005" lon="13.77186924445517"><ele>355.0</ele><time>2026-05-03T10:17:06.001Z</time></trkpt><trkpt lat="42.27973252335755" lon="13.771769901967902"><ele>355.0</ele><time>2026-05-03T10:17:07.001Z</time></trkpt><trkpt lat="42.279668413753846" lon="13.771657268510804"><ele>355.0</ele><time>2026-05-03T10:17:08.001Z</time></trkpt><trkpt lat="42.279602974898715" lon="13.771541535598372"><ele>355.0</ele><time>2026-05-03T10:17:09.001Z</time></trkpt><trkpt lat="42.27955051228959" lon="13.771395782026186"><ele>355.4</ele><time>2026-05-03T10:17:10.001Z</time></trkpt><trkpt lat="42.27950240713298" lon="13.771250251092289"><ele>355.8</ele><time>2026-05-03T10:17:11.001Z</time></trkpt><trkpt lat="42.279456710036946" lon="13.771113168878346"><ele>356.20000000000005</ele><time>2026-05-03T10:17:12.001Z</time></trkpt><trkpt lat="42.27941353285586" lon="13.77099135783052"><ele>356.6</ele><time>2026-05-03T10:17:13.001Z</time></trkpt><trkpt lat="42.279371312785074" lon="13.770871894301873"><ele>357.0</ele><time>2026-05-03T10:17:14.001Z</time></trkpt><trkpt lat="42.27932723152203" lon="13.770739472066861"><ele>357.5</ele><time>2026-05-03T10:17:15.001Z</time></trkpt><trkpt lat="42.27927351975063" lon="13.770587072513276"><ele>358.0</ele><time>2026-05-03T10:17:16.001Z</time></trkpt><trkpt lat="42.27921392754361" lon="13.770431173285353"><ele>358.5</ele><time>2026-05-03T10:17:17.001Z</time></trkpt><trkpt lat="42.2791608093594" lon="13.770288526601094"><ele>359.0</ele><time>2026-05-03T10:17:18.001Z</time></trkpt><trkpt lat="42.27912012508544" lon="13.770157865995031"><ele>359.2</ele><time>2026-05-03T10:17:19.001Z</time></trkpt><trkpt lat="42.27907885347667" lon="13.770038623151418"><ele>359.4</ele><time>2026-05-03T10:17:20.001Z</time></trkpt><trkpt lat="42.279040790566185" lon="13.76991736787997"><ele>359.6</ele><time>2026-05-03T10:17:21.001Z</time></trkpt><trkpt lat="42.2789957920078" lon="13.76979251456086"><ele>359.8</ele><time>2026-05-03T10:17:22.001Z</time></trkpt><trkpt lat="42.27895599882166" lon="13.769676756780566"><ele>360.0</ele><time>2026-05-03T10:17:23.001Z</time></trkpt><trkpt lat="42.278924018494585" lon="13.76957340018004"><ele>360.0</ele><time>2026-05-03T10:17:24.001Z</time></trkpt><trkpt lat="42.27889430187817" lon="13.769487907780148"><ele>360.0</ele><time>2026-05-03T10:17:25.001Z</time></trkpt><trkpt lat="42.27885027893628" lon="13.769356924138735"><ele>360.0</ele><time>2026-05-03T10:17:27.001Z</time></trkpt><trkpt lat="42.27868813982855" lon="13.769408395893398"><ele>360.0</ele><time>2026-05-03T10:17:29.001Z</time></trkpt><trkpt lat="42.278623226780674" lon="13.769484572681044"><ele>360.0</ele><time>2026-05-03T10:17:30.001Z</time></trkpt><trkpt lat="42.278543382564656" lon="13.769578098002048"><ele>360.0</ele><time>2026-05-03T10:17:31.001Z</time></trkpt><trkpt lat="42.27843916207612" lon="13.769668317244701"><ele>360.0</ele><time>2026-05-03T10:17:32.001Z</time></trkpt><trkpt lat="42.27834661973407" lon="13.769804553046372"><ele>360.0</ele><time>2026-05-03T10:17:33.001Z</time></trkpt><trkpt lat="42.278227958885196" lon="13.769923267020028"><ele>360.0</ele><time>2026-05-03T10:17:34.001Z</time></trkpt><trkpt lat="42.27810931713788" lon="13.770064954957709"><ele>358.0</ele><time>2026-05-03T10:17:35.001Z</time></trkpt><trkpt lat="42.27799465888124" lon="13.77020863534367"><ele>356.0</ele><time>2026-05-03T10:17:36.001Z</time></trkpt><trkpt lat="42.27787605686729" lon="13.770349823195538"><ele>354.0</ele><time>2026-05-03T10:17:37.001Z</time></trkpt><trkpt lat="42.27775707787428" lon="13.770487013898514"><ele>354.0</ele><time>2026-05-03T10:17:38.001Z</time></trkpt><trkpt lat="42.27763986035085" lon="13.770607921826407"><ele>354.0</ele><time>2026-05-03T10:17:39.001Z</time></trkpt><trkpt lat="42.277518782907364" lon="13.77066671821514"><ele>354.0</ele><time>2026-05-03T10:17:40.001Z</time></trkpt><trkpt lat="42.27738605821441" lon="13.770708454951754"><ele>354.0</ele><time>2026-05-03T10:17:41.001Z</time></trkpt><trkpt lat="42.27722746193837" lon="13.77070900791279"><ele>352.0</ele><time>2026-05-03T10:17:42.001Z</time></trkpt><trkpt lat="42.27705322950766" lon="13.770694548915301"><ele>350.0</ele><time>2026-05-03T10:17:43.001Z</time></trkpt><trkpt lat="42.27686694643797" lon="13.770673375258637"><ele>348.0</ele><time>2026-05-03T10:17:44.001Z</time></trkpt><trkpt lat="42.27668970327669" lon="13.770670911231736"><ele>348.0</ele><time>2026-05-03T10:17:45.001Z</time></trkpt><trkpt lat="42.27651936314904" lon="13.770646672096792"><ele>348.0</ele><time>2026-05-03T10:17:46.001Z</time></trkpt><trkpt lat="42.27634985644508" lon="13.770608619019326"><ele>348.0</ele><time>2026-05-03T10:17:47.001Z</time></trkpt><trkpt lat="42.27616723924393" lon="13.77058394709667"><ele>346.6666666666667</ele><time>2026-05-03T10:17:48.001Z</time></trkpt><trkpt lat="42.27598383385211" lon="13.770555913476832"><ele>345.33333333333337</ele><time>2026-05-03T10:17:49.001Z</time></trkpt><trkpt lat="42.275800808334786" lon="13.770527207933034"><ele>344.0</ele><time>2026-05-03T10:17:50.001Z</time></trkpt><trkpt lat="42.27563811765456" lon="13.77051893116934"><ele>346.0</ele><time>2026-05-03T10:17:51.001Z</time></trkpt><trkpt lat="42.27550328553016" lon="13.770516627297095"><ele>348.0</ele><time>2026-05-03T10:17:52.001Z</time></trkpt><trkpt lat="42.275374344309554" lon="13.770544961732083"><ele>350.0</ele><time>2026-05-03T10:17:53.001Z</time></trkpt><trkpt lat="42.275240379922494" lon="13.77060440067385"><ele>352.0</ele><time>2026-05-03T10:17:54.001Z</time></trkpt><trkpt lat="42.27511654882831" lon="13.77066134263914"><ele>352.0</ele><time>2026-05-03T10:17:55.001Z</time></trkpt><trkpt lat="42.275014016389264" lon="13.770724376279892"><ele>352.0</ele><time>2026-05-03T10:17:56.001Z</time></trkpt><trkpt lat="42.27493090570726" lon="13.770827818610256"><ele>352.0</ele><time>2026-05-03T10:17:57.001Z</time></trkpt><trkpt lat="42.27488078579095" lon="13.77098525917261"><ele>352.0</ele><time>2026-05-03T10:17:58.001Z</time></trkpt><trkpt lat="42.2748457529836" lon="13.771177100253952"><ele>353.66666666666663</ele><time>2026-05-03T10:17:59.001Z</time></trkpt><trkpt lat="42.27481798251358" lon="13.771383158966927"><ele>355.3333333333333</ele><time>2026-05-03T10:18:00.001Z</time></trkpt><trkpt lat="42.27477967988248" lon="13.77158784330231"><ele>357.0</ele><time>2026-05-03T10:18:01.001Z</time></trkpt><trkpt lat="42.27474074577084" lon="13.771770744069705"><ele>356.25</ele><time>2026-05-03T10:18:02.001Z</time></trkpt><trkpt lat="42.27470301876976" lon="13.771938548645394"><ele>355.5</ele><time>2026-05-03T10:18:03.001Z</time></trkpt><trkpt lat="42.27466739331125" lon="13.772100732682812"><ele>354.75</ele><time>2026-05-03T10:18:04.001Z</time></trkpt><trkpt lat="42.27462711694137" lon="13.772246005912438"><ele>354.0</ele><time>2026-05-03T10:18:05.001Z</time></trkpt><trkpt lat="42.27459840642895" lon="13.77239386858168"><ele>354.0</ele><time>2026-05-03T10:18:06.001Z</time></trkpt><trkpt lat="42.274542435655256" lon="13.772506767717909"><ele>354.0</ele><time>2026-05-03T10:18:07.001Z</time></trkpt><trkpt lat="42.27450374361592" lon="13.772622001722908"><ele>354.0</ele><time>2026-05-03T10:18:08.001Z</time></trkpt><trkpt lat="42.27442320142233" lon="13.772731812724258"><ele>354.0</ele><time>2026-05-03T10:18:09.001Z</time></trkpt><trkpt lat="42.274335419090576" lon="13.772836638235038"><ele>354.0</ele><time>2026-05-03T10:18:10.001Z</time></trkpt><trkpt lat="42.274247699775394" lon="13.772947717338326"><ele>353.5</ele><time>2026-05-03T10:18:11.001Z</time></trkpt><trkpt lat="42.27416013818245" lon="13.773059591239733"><ele>353.0</ele><time>2026-05-03T10:18:12.001Z</time></trkpt><trkpt lat="42.27407290816243" lon="13.77316867910941"><ele>352.5</ele><time>2026-05-03T10:18:13.001Z</time></trkpt><trkpt lat="42.27397978142992" lon="13.773280038907446"><ele>352.0</ele><time>2026-05-03T10:18:14.001Z</time></trkpt><trkpt lat="42.27387873168613" lon="13.773399236716521"><ele>352.5</ele><time>2026-05-03T10:18:15.001Z</time></trkpt><trkpt lat="42.27376954287739" lon="13.773525750673148"><ele>353.0</ele><time>2026-05-03T10:18:16.001Z</time></trkpt><trkpt lat="42.27366190109212" lon="13.773645187615287"><ele>353.5</ele><time>2026-05-03T10:18:17.001Z</time></trkpt><trkpt lat="42.273546889767886" lon="13.77377591441706"><ele>354.0</ele><time>2026-05-03T10:18:18.001Z</time></trkpt><trkpt lat="42.273424708928644" lon="13.773914469394835"><ele>354.0</ele><time>2026-05-03T10:18:19.001Z</time></trkpt><trkpt lat="42.273298096976575" lon="13.774065496724988"><ele>354.0</ele><time>2026-05-03T10:18:20.001Z</time></trkpt><trkpt lat="42.273174901390206" lon="13.774228486402645"><ele>354.0</ele><time>2026-05-03T10:18:21.001Z</time></trkpt><trkpt lat="42.273063745876684" lon="13.774402964238813"><ele>355.0</ele><time>2026-05-03T10:18:22.001Z</time></trkpt><trkpt lat="42.27296445122494" lon="13.774586992543647"><ele>356.0</ele><time>2026-05-03T10:18:23.001Z</time></trkpt><trkpt lat="42.27286467048947" lon="13.774771415398792"><ele>357.0</ele><time>2026-05-03T10:18:24.001Z</time></trkpt><trkpt lat="42.272761691183405" lon="13.774942957889243"><ele>357.0</ele><time>2026-05-03T10:18:25.001Z</time></trkpt><trkpt lat="42.27266109635581" lon="13.775112708667876"><ele>357.0</ele><time>2026-05-03T10:18:26.001Z</time></trkpt><trkpt lat="42.27256581649213" lon="13.775265184563873"><ele>357.0</ele><time>2026-05-03T10:18:27.001Z</time></trkpt><trkpt lat="42.2724767627039" lon="13.775418109375204"><ele>356.0</ele><time>2026-05-03T10:18:28.001Z</time></trkpt><trkpt lat="42.27239919033317" lon="13.775562935331715"><ele>355.0</ele><time>2026-05-03T10:18:29.001Z</time></trkpt><trkpt lat="42.2723372532124" lon="13.775714244455278"><ele>354.0</ele><time>2026-05-03T10:18:30.001Z</time></trkpt><trkpt lat="42.272288648334296" lon="13.77588517044329"><ele>353.0</ele><time>2026-05-03T10:18:31.001Z</time></trkpt><trkpt lat="42.27225055619611" lon="13.776100011902631"><ele>352.33333333333337</ele><time>2026-05-03T10:18:32.001Z</time></trkpt><trkpt lat="42.27222772536651" lon="13.776345645362907"><ele>351.6666666666667</ele><time>2026-05-03T10:18:33.001Z</time></trkpt><trkpt lat="42.272209127631626" lon="13.776615814783595"><ele>351.0</ele><time>2026-05-03T10:18:34.001Z</time></trkpt><trkpt lat="42.27216746115269" lon="13.776889279806468"><ele>350.0</ele><time>2026-05-03T10:18:35.001Z</time></trkpt><trkpt lat="42.272154670362745" lon="13.77717347325755"><ele>349.0</ele><time>2026-05-03T10:18:36.001Z</time></trkpt><trkpt lat="42.272122113166965" lon="13.777473016689692"><ele>348.0</ele><time>2026-05-03T10:18:37.001Z</time></trkpt><trkpt lat="42.272095650457175" lon="13.777765964994485"><ele>347.3333333333333</ele><time>2026-05-03T10:18:38.001Z</time></trkpt><trkpt lat="42.2720710299404" lon="13.778042218540213"><ele>346.66666666666663</ele><time>2026-05-03T10:18:39.001Z</time></trkpt><trkpt lat="42.27204595002582" lon="13.778321479333039"><ele>346.0</ele><time>2026-05-03T10:18:40.001Z</time></trkpt><trkpt lat="42.27201899822364" lon="13.7785924825083"><ele>345.0</ele><time>2026-05-03T10:18:41.001Z</time></trkpt><trkpt lat="42.271991373357125" lon="13.778842585372562"><ele>344.0</ele><time>2026-05-03T10:18:42.001Z</time></trkpt><trkpt lat="42.27196401146358" lon="13.779094361860334"><ele>343.0</ele><time>2026-05-03T10:18:43.001Z</time></trkpt><trkpt lat="42.27193872910776" lon="13.779314185341294"><ele>342.25</ele><time>2026-05-03T10:18:44.001Z</time></trkpt><trkpt lat="42.27191040511084" lon="13.779513748943707"><ele>341.5</ele><time>2026-05-03T10:18:45.001Z</time></trkpt><trkpt lat="42.27185546343644" lon="13.779682064650387"><ele>340.75</ele><time>2026-05-03T10:18:46.001Z</time></trkpt><trkpt lat="42.27178866644019" lon="13.77982533633237"><ele>340.0</ele><time>2026-05-03T10:18:47.001Z</time></trkpt><trkpt lat="42.27169469809182" lon="13.779977567799834"><ele>340.0</ele><time>2026-05-03T10:18:48.001Z</time></trkpt><trkpt lat="42.271581346299634" lon="13.780145954934952"><ele>340.0</ele><time>2026-05-03T10:18:49.001Z</time></trkpt><trkpt lat="42.27147085061152" lon="13.780307723865036"><ele>340.0</ele><time>2026-05-03T10:18:50.001Z</time></trkpt><trkpt lat="42.27137086667897" lon="13.780458945283199"><ele>340.2</ele><time>2026-05-03T10:18:51.001Z</time></trkpt><trkpt lat="42.271288445134594" lon="13.780614985875463"><ele>340.4</ele><time>2026-05-03T10:18:52.001Z</time></trkpt><trkpt lat="42.27120722583003" lon="13.780723550588851"><ele>340.6</ele><time>2026-05-03T10:18:53.001Z</time></trkpt><trkpt lat="42.2711549919944" lon="13.78081385151783"><ele>340.8</ele><time>2026-05-03T10:18:54.001Z</time></trkpt><trkpt lat="42.271101501639315" lon="13.780897770354995"><ele>341.0</ele><time>2026-05-03T10:18:55.001Z</time></trkpt><trkpt lat="42.27105112540003" lon="13.780967663179213"><ele>340.0</ele><time>2026-05-03T10:18:56.001Z</time></trkpt><trkpt lat="42.270991531615145" lon="13.781073357607415"><ele>339.0</ele><time>2026-05-03T10:18:58.001Z</time></trkpt><trkpt lat="42.27093333415137" lon="13.78114608796747"><ele>338.0</ele><time>2026-05-03T10:19:00.001Z</time></trkpt><trkpt lat="42.27087219582882" lon="13.78121799906557"><ele>337.0</ele><time>2026-05-03T10:19:01.001Z</time></trkpt><trkpt lat="42.270790446294995" lon="13.78131467045691"><ele>336.0</ele><time>2026-05-03T10:19:02.001Z</time></trkpt><trkpt lat="42.270687511220885" lon="13.781372939005028"><ele>336.0</ele><time>2026-05-03T10:19:03.001Z</time></trkpt><trkpt lat="42.27056535146928" lon="13.781419544770825"><ele>336.0</ele><time>2026-05-03T10:19:04.001Z</time></trkpt><trkpt lat="42.27043816853732" lon="13.781498703815963"><ele>336.0</ele><time>2026-05-03T10:19:05.001Z</time></trkpt><trkpt lat="42.27030291601481" lon="13.781628719447138"><ele>336.0</ele><time>2026-05-03T10:19:06.001Z</time></trkpt><trkpt lat="42.2701621825407" lon="13.781715224520564"><ele>336.0</ele><time>2026-05-03T10:19:07.001Z</time></trkpt><trkpt lat="42.270044241902745" lon="13.781806883426308"><ele>336.0</ele><time>2026-05-03T10:19:08.001Z</time></trkpt><trkpt lat="42.26993530291137" lon="13.781910970982299"><ele>336.0</ele><time>2026-05-03T10:19:09.001Z</time></trkpt><trkpt lat="42.26981108836401" lon="13.781939252345369"><ele>336.0</ele><time>2026-05-03T10:19:10.001Z</time></trkpt><trkpt lat="42.26969620329894" lon="13.78197731810702"><ele>336.8</ele><time>2026-05-03T10:19:11.001Z</time></trkpt><trkpt lat="42.26958405986252" lon="13.782031430856685"><ele>337.6</ele><time>2026-05-03T10:19:12.001Z</time></trkpt><trkpt lat="42.26948103355431" lon="13.782079590105019"><ele>338.4</ele><time>2026-05-03T10:19:13.001Z</time></trkpt><trkpt lat="42.269407317906364" lon="13.782160728553219"><ele>339.2</ele><time>2026-05-03T10:19:14.001Z</time></trkpt><trkpt lat="42.269352019957616" lon="13.782253853561919"><ele>340.0</ele><time>2026-05-03T10:19:15.001Z</time></trkpt><trkpt lat="42.26933956585467" lon="13.782413293161452"><ele>340.0</ele><time>2026-05-03T10:19:16.001Z</time></trkpt><trkpt lat="42.269320858343974" lon="13.782584734070443"><ele>340.0</ele><time>2026-05-03T10:19:17.001Z</time></trkpt><trkpt lat="42.26930123686879" lon="13.78278024188571"><ele>340.0</ele><time>2026-05-03T10:19:18.001Z</time></trkpt><trkpt lat="42.26927435071826" lon="13.782962472937275"><ele>340.0</ele><time>2026-05-03T10:19:19.001Z</time></trkpt><trkpt lat="42.269241507626795" lon="13.783133766436938"><ele>340.0</ele><time>2026-05-03T10:19:20.001Z</time></trkpt><trkpt lat="42.26920599295322" lon="13.783311675930417"><ele>340.0</ele><time>2026-05-03T10:19:21.001Z</time></trkpt><trkpt lat="42.26913589634849" lon="13.783480727581349"><ele>340.0</ele><time>2026-05-03T10:19:22.001Z</time></trkpt><trkpt lat="42.269076743050036" lon="13.783658053592736"><ele>340.0</ele><time>2026-05-03T10:19:23.001Z</time></trkpt><trkpt lat="42.269029432623576" lon="13.783835854640293"><ele>340.0</ele><time>2026-05-03T10:19:24.001Z</time></trkpt><trkpt lat="42.268944244736325" lon="13.783973495643338"><ele>340.0</ele><time>2026-05-03T10:19:25.001Z</time></trkpt><trkpt lat="42.26887192761623" lon="13.78411680904802"><ele>340.0</ele><time>2026-05-03T10:19:26.001Z</time></trkpt><trkpt lat="42.26879185144197" lon="13.78426833845307"><ele>340.0</ele><time>2026-05-03T10:19:27.001Z</time></trkpt><trkpt lat="42.268717357897046" lon="13.784401772736622"><ele>340.75</ele><time>2026-05-03T10:19:28.001Z</time></trkpt><trkpt lat="42.26864471723855" lon="13.784522815054988"><ele>341.5</ele><time>2026-05-03T10:19:29.001Z</time></trkpt><trkpt lat="42.26855266420302" lon="13.784660696549372"><ele>342.25</ele><time>2026-05-03T10:19:30.001Z</time></trkpt><trkpt lat="42.268448141677766" lon="13.784787844400293"><ele>343.0</ele><time>2026-05-03T10:19:31.001Z</time></trkpt><trkpt lat="42.26834397870783" lon="13.784901919355013"><ele>343.0</ele><time>2026-05-03T10:19:32.001Z</time></trkpt><trkpt lat="42.268247727593106" lon="13.785025541362476"><ele>343.0</ele><time>2026-05-03T10:19:33.001Z</time></trkpt><trkpt lat="42.268132902782334" lon="13.785132443652078"><ele>343.0</ele><time>2026-05-03T10:19:34.001Z</time></trkpt><trkpt lat="42.267995374381876" lon="13.78522814873158"><ele>343.0</ele><time>2026-05-03T10:19:35.001Z</time></trkpt><trkpt lat="42.26785798189941" lon="13.785339973753423"><ele>344.3333333333333</ele><time>2026-05-03T10:19:36.001Z</time></trkpt><trkpt lat="42.267715138355186" lon="13.785458503850096"><ele>345.6666666666667</ele><time>2026-05-03T10:19:37.001Z</time></trkpt><trkpt lat="42.26758609916485" lon="13.785610880123372"><ele>347.0</ele><time>2026-05-03T10:19:38.001Z</time></trkpt><trkpt lat="42.267441988207054" lon="13.78575943254615"><ele>347.0</ele><time>2026-05-03T10:19:39.001Z</time></trkpt><trkpt lat="42.26730673346314" lon="13.785923670252"><ele>347.0</ele><time>2026-05-03T10:19:40.001Z</time></trkpt><trkpt lat="42.26717958381698" lon="13.786073132985155"><ele>347.0</ele><time>2026-05-03T10:19:41.001Z</time></trkpt><trkpt lat="42.26704365992593" lon="13.786206169078165"><ele>347.33333333333337</ele><time>2026-05-03T10:19:42.001Z</time></trkpt><trkpt lat="42.266927023493224" lon="13.786374450703146"><ele>347.6666666666667</ele><time>2026-05-03T10:19:43.001Z</time></trkpt><trkpt lat="42.26680160082612" lon="13.786537442736797"><ele>348.0</ele><time>2026-05-03T10:19:44.001Z</time></trkpt><trkpt lat="42.266680049621534" lon="13.786732280360273"><ele>347.3333333333333</ele><time>2026-05-03T10:19:45.001Z</time></trkpt><trkpt lat="42.266576264639" lon="13.786911360084048"><ele>346.66666666666663</ele><time>2026-05-03T10:19:46.001Z</time></trkpt><trkpt lat="42.266461257277534" lon="13.787064326211516"><ele>346.0</ele><time>2026-05-03T10:19:47.001Z</time></trkpt><trkpt lat="42.26636581866155" lon="13.78723001758925"><ele>346.3333333333333</ele><time>2026-05-03T10:19:48.001Z</time></trkpt><trkpt lat="42.2662872714262" lon="13.787409826787222"><ele>346.6666666666667</ele><time>2026-05-03T10:19:49.001Z</time></trkpt><trkpt lat="42.26619578323985" lon="13.787583452427114"><ele>347.0</ele><time>2026-05-03T10:19:50.001Z</time></trkpt><trkpt lat="42.26610184657933" lon="13.787763978532642"><ele>347.0</ele><time>2026-05-03T10:19:51.001Z</time></trkpt><trkpt lat="42.26600781067896" lon="13.787938147303489"><ele>347.0</ele><time>2026-05-03T10:19:52.001Z</time></trkpt><trkpt lat="42.26588929240116" lon="13.788099564215893"><ele>347.0</ele><time>2026-05-03T10:19:53.001Z</time></trkpt><trkpt lat="42.265796776348324" lon="13.788284087792098"><ele>347.0</ele><time>2026-05-03T10:19:54.001Z</time></trkpt><trkpt lat="42.265696439984815" lon="13.788440165172268"><ele>347.0</ele><time>2026-05-03T10:19:55.001Z</time></trkpt><trkpt lat="42.26561055580114" lon="13.788583388401266"><ele>347.0</ele><time>2026-05-03T10:19:56.001Z</time></trkpt><trkpt lat="42.265529265048045" lon="13.788734817782762"><ele>347.0</ele><time>2026-05-03T10:19:57.001Z</time></trkpt><trkpt lat="42.265437862246316" lon="13.788906483463041"><ele>347.0</ele><time>2026-05-03T10:19:58.001Z</time></trkpt><trkpt lat="42.26534937398379" lon="13.789076910214767"><ele>347.0</ele><time>2026-05-03T10:19:59.001Z</time></trkpt><trkpt lat="42.26527924094535" lon="13.78924454649629"><ele>347.0</ele><time>2026-05-03T10:20:00.001Z</time></trkpt><trkpt lat="42.26522453117398" lon="13.78940499131245"><ele>347.0</ele><time>2026-05-03T10:20:01.001Z</time></trkpt><trkpt lat="42.2651801252119" lon="13.78957484100166"><ele>347.0</ele><time>2026-05-03T10:20:02.001Z</time></trkpt><trkpt lat="42.26511192246561" lon="13.789735397977035"><ele>347.0</ele><time>2026-05-03T10:20:03.001Z</time></trkpt><trkpt lat="42.26505498721298" lon="13.789887122135939"><ele>347.0</ele><time>2026-05-03T10:20:04.001Z</time></trkpt><trkpt lat="42.26501485495381" lon="13.790038864901254"><ele>347.0</ele><time>2026-05-03T10:20:05.001Z</time></trkpt><trkpt lat="42.26496242004719" lon="13.790182070974843"><ele>346.5</ele><time>2026-05-03T10:20:06.001Z</time></trkpt><trkpt lat="42.26489394332479" lon="13.79033522059501"><ele>346.0</ele><time>2026-05-03T10:20:07.001Z</time></trkpt><trkpt lat="42.26484101649762" lon="13.790503169635508"><ele>345.5</ele><time>2026-05-03T10:20:08.001Z</time></trkpt><trkpt lat="42.26478858954992" lon="13.79066905880264"><ele>345.0</ele><time>2026-05-03T10:20:09.001Z</time></trkpt><trkpt lat="42.26473728916683" lon="13.790831383315847"><ele>346.3333333333333</ele><time>2026-05-03T10:20:10.001Z</time></trkpt><trkpt lat="42.264686779110406" lon="13.791009837617338"><ele>347.66666666666663</ele><time>2026-05-03T10:20:11.001Z</time></trkpt><trkpt lat="42.26462762220117" lon="13.791214056893123"><ele>349.0</ele><time>2026-05-03T10:20:12.001Z</time></trkpt><trkpt lat="42.2645699429294" lon="13.791413641942578"><ele>349.0</ele><time>2026-05-03T10:20:13.001Z</time></trkpt><trkpt lat="42.26451133600205" lon="13.791592868055902"><ele>349.0</ele><time>2026-05-03T10:20:14.001Z</time></trkpt><trkpt lat="42.26445513165101" lon="13.791759889225249"><ele>349.0</ele><time>2026-05-03T10:20:15.001Z</time></trkpt><trkpt lat="42.264399749366326" lon="13.79193531578529"><ele>349.0</ele><time>2026-05-03T10:20:16.001Z</time></trkpt><trkpt lat="42.26434423894184" lon="13.792130899468436"><ele>348.0</ele><time>2026-05-03T10:20:17.001Z</time></trkpt><trkpt lat="42.26429670720226" lon="13.792348236589547"><ele>347.0</ele><time>2026-05-03T10:20:18.001Z</time></trkpt><trkpt lat="42.264255577253685" lon="13.79254827791507"><ele>346.0</ele><time>2026-05-03T10:20:19.001Z</time></trkpt><trkpt lat="42.26419673006729" lon="13.792721414523179"><ele>345.3333333333333</ele><time>2026-05-03T10:20:20.001Z</time></trkpt><trkpt lat="42.26415824549937" lon="13.792920816435563"><ele>344.6666666666667</ele><time>2026-05-03T10:20:21.001Z</time></trkpt><trkpt lat="42.26408404808264" lon="13.793097085667606"><ele>344.0</ele><time>2026-05-03T10:20:22.001Z</time></trkpt><trkpt lat="42.26403184423157" lon="13.793294544105292"><ele>344.0</ele><time>2026-05-03T10:20:23.001Z</time></trkpt><trkpt lat="42.26396803530047" lon="13.793471981558547"><ele>344.0</ele><time>2026-05-03T10:20:24.001Z</time></trkpt><trkpt lat="42.263914215315936" lon="13.793638122941811"><ele>344.0</ele><time>2026-05-03T10:20:25.001Z</time></trkpt><trkpt lat="42.26386539605007" lon="13.793795684402953"><ele>344.0</ele><time>2026-05-03T10:20:26.001Z</time></trkpt><trkpt lat="42.26380916773559" lon="13.793958185529927"><ele>344.5</ele><time>2026-05-03T10:20:27.001Z</time></trkpt><trkpt lat="42.263755358491736" lon="13.794123578899805"><ele>345.0</ele><time>2026-05-03T10:20:28.001Z</time></trkpt><trkpt lat="42.26369238816567" lon="13.79429026524484"><ele>345.5</ele><time>2026-05-03T10:20:29.001Z</time></trkpt><trkpt lat="42.26361697810207" lon="13.794462736892385"><ele>346.0</ele><time>2026-05-03T10:20:30.001Z</time></trkpt><trkpt lat="42.26351107667811" lon="13.794616201430253"><ele>344.66666666666663</ele><time>2026-05-03T10:20:31.001Z</time></trkpt><trkpt lat="42.263397691608176" lon="13.794791670437524"><ele>343.3333333333333</ele><time>2026-05-03T10:20:32.001Z</time></trkpt><trkpt lat="42.26328451383814" lon="13.79496989997994"><ele>342.0</ele><time>2026-05-03T10:20:33.001Z</time></trkpt><trkpt lat="42.26318444009161" lon="13.795157854509462"><ele>343.3333333333333</ele><time>2026-05-03T10:20:34.001Z</time></trkpt><trkpt lat="42.26307634787693" lon="13.795338943196892"><ele>344.66666666666663</ele><time>2026-05-03T10:20:35.001Z</time></trkpt><trkpt lat="42.26297899845794" lon="13.795510483710364"><ele>346.0</ele><time>2026-05-03T10:20:36.001Z</time></trkpt><trkpt lat="42.26289466650069" lon="13.795658974402727"><ele>346.0</ele><time>2026-05-03T10:20:37.001Z</time></trkpt><trkpt lat="42.26281885794358" lon="13.795773383233211"><ele>346.0</ele><time>2026-05-03T10:20:38.001Z</time></trkpt><trkpt lat="42.26275680600629" lon="13.795878486888025"><ele>346.0</ele><time>2026-05-03T10:20:39.001Z</time></trkpt><trkpt lat="42.26269396656898" lon="13.795973373587742"><ele>346.0</ele><time>2026-05-03T10:20:40.001Z</time></trkpt><trkpt lat="42.2626479935059" lon="13.796066234530578"><ele>346.0</ele><time>2026-05-03T10:20:41.001Z</time></trkpt><trkpt lat="42.26257718385742" lon="13.79618901976487"><ele>345.6</ele><time>2026-05-03T10:20:43.001Z</time></trkpt><trkpt lat="42.26254678099414" lon="13.79626961665331"><ele>345.20000000000005</ele><time>2026-05-03T10:20:46.001Z</time></trkpt><trkpt lat="42.26265847068385" lon="13.79635485540545"><ele>344.79999999999995</ele><time>2026-05-03T10:20:47.001Z</time></trkpt><trkpt lat="42.262739750139666" lon="13.796366534221658"><ele>344.4</ele><time>2026-05-03T10:20:48.001Z</time></trkpt><trkpt lat="42.26283535204645" lon="13.796357024954187"><ele>344.0</ele><time>2026-05-03T10:20:49.001Z</time></trkpt><trkpt lat="42.262933956674075" lon="13.79635164103602"><ele>344.0</ele><time>2026-05-03T10:20:50.001Z</time></trkpt><trkpt lat="42.263039578740425" lon="13.796364998519632"><ele>344.0</ele><time>2026-05-03T10:20:51.001Z</time></trkpt><trkpt lat="42.26315630502079" lon="13.796395162508855"><ele>344.0</ele><time>2026-05-03T10:20:52.001Z</time></trkpt><trkpt lat="42.26328567541994" lon="13.79642395419864"><ele>344.0</ele><time>2026-05-03T10:20:53.001Z</time></trkpt><trkpt lat="42.26342607969352" lon="13.796448122502264"><ele>342.33333333333337</ele><time>2026-05-03T10:20:54.001Z</time></trkpt><trkpt lat="42.26358202019895" lon="13.796480146202244"><ele>340.6666666666667</ele><time>2026-05-03T10:20:55.001Z</time></trkpt><trkpt lat="42.26375467422152" lon="13.796517074212455"><ele>339.0</ele><time>2026-05-03T10:20:56.001Z</time></trkpt><trkpt lat="42.26392156352778" lon="13.796558977948518"><ele>338.0</ele><time>2026-05-03T10:20:57.001Z</time></trkpt><trkpt lat="42.26408348817605" lon="13.79659024487943"><ele>337.0</ele><time>2026-05-03T10:20:58.001Z</time></trkpt><trkpt lat="42.26421862929341" lon="13.796617192055587"><ele>336.0</ele><time>2026-05-03T10:20:59.001Z</time></trkpt><trkpt lat="42.26433948789165" lon="13.79666529763663"><ele>335.0</ele><time>2026-05-03T10:21:00.001Z</time></trkpt><trkpt lat="42.264440306048684" lon="13.79676893688414"><ele>333.25</ele><time>2026-05-03T10:21:01.001Z</time></trkpt><trkpt lat="42.26454944407067" lon="13.79686815789178"><ele>331.5</ele><time>2026-05-03T10:21:02.001Z</time></trkpt><trkpt lat="42.26464805783833" lon="13.797011167768591"><ele>329.75</ele><time>2026-05-03T10:21:03.001Z</time></trkpt><trkpt lat="42.2647425168334" lon="13.797166535791906"><ele>328.0</ele><time>2026-05-03T10:21:04.001Z</time></trkpt><trkpt lat="42.26479161277621" lon="13.797346413655353"><ele>328.0</ele><time>2026-05-03T10:21:05.001Z</time></trkpt><trkpt lat="42.26481682671179" lon="13.797535559461732"><ele>328.0</ele><time>2026-05-03T10:21:06.001Z</time></trkpt><trkpt lat="42.264837121777404" lon="13.797723398219455"><ele>328.0</ele><time>2026-05-03T10:21:07.001Z</time></trkpt><trkpt lat="42.2648668659479" lon="13.797897120670427"><ele>328.0</ele><time>2026-05-03T10:21:08.001Z</time></trkpt><trkpt lat="42.264879711076674" lon="13.79805850918231"><ele>328.2</ele><time>2026-05-03T10:21:09.001Z</time></trkpt><trkpt lat="42.26489094699116" lon="13.798206677971596"><ele>328.4</ele><time>2026-05-03T10:21:10.001Z</time></trkpt><trkpt lat="42.26491232818408" lon="13.798350532953734"><ele>328.59999999999997</ele><time>2026-05-03T10:21:11.001Z</time></trkpt><trkpt lat="42.26494314804953" lon="13.798486454646342"><ele>328.79999999999995</ele><time>2026-05-03T10:21:12.001Z</time></trkpt><trkpt lat="42.26498843044614" lon="13.798608170002328"><ele>329.0</ele><time>2026-05-03T10:21:13.001Z</time></trkpt><trkpt lat="42.26503430502278" lon="13.798719576841664"><ele>329.0</ele><time>2026-05-03T10:21:14.001Z</time></trkpt><trkpt lat="42.26507268674026" lon="13.798828296522702"><ele>329.0</ele><time>2026-05-03T10:21:15.001Z</time></trkpt><trkpt lat="42.26510595671328" lon="13.798920467203851"><ele>329.0</ele><time>2026-05-03T10:21:16.001Z</time></trkpt><trkpt lat="42.265143130018004" lon="13.798992953558024"><ele>329.0</ele><time>2026-05-03T10:21:17.001Z</time></trkpt><trkpt lat="42.26516935111441" lon="13.799123665003417"><ele>329.0</ele><time>2026-05-03T10:21:19.001Z</time></trkpt><trkpt lat="42.265069697311375" lon="13.799221509292572"><ele>329.0</ele><time>2026-05-03T10:21:21.001Z</time></trkpt><trkpt lat="42.26501441892947" lon="13.799268666062996"><ele>329.0</ele><time>2026-05-03T10:21:22.001Z</time></trkpt><trkpt lat="42.26493640703116" lon="13.799294420407891"><ele>329.0</ele><time>2026-05-03T10:21:23.001Z</time></trkpt><trkpt lat="42.26485669586375" lon="13.799292100862349"><ele>329.0</ele><time>2026-05-03T10:21:24.001Z</time></trkpt><trkpt lat="42.26477723827764" lon="13.799269635362748"><ele>329.0</ele><time>2026-05-03T10:21:25.001Z</time></trkpt><trkpt lat="42.26469410710905" lon="13.799266464097869"><ele>329.0</ele><time>2026-05-03T10:21:26.001Z</time></trkpt><trkpt lat="42.26461610913322" lon="13.799304934385255"><ele>329.4</ele><time>2026-05-03T10:21:27.001Z</time></trkpt><trkpt lat="42.26453376728772" lon="13.799330813584678"><ele>329.79999999999995</ele><time>2026-05-03T10:21:28.001Z</time></trkpt><trkpt lat="42.26445015792735" lon="13.799383454828929"><ele>330.20000000000005</ele><time>2026-05-03T10:21:29.001Z</time></trkpt><trkpt lat="42.26436965218177" lon="13.799454256613679"><ele>330.6</ele><time>2026-05-03T10:21:30.001Z</time></trkpt><trkpt lat="42.26429282576447" lon="13.799540925100175"><ele>331.0</ele><time>2026-05-03T10:21:31.001Z</time></trkpt><trkpt lat="42.26421925546537" lon="13.799606192196636"><ele>331.5</ele><time>2026-05-03T10:21:32.001Z</time></trkpt><trkpt lat="42.26414782844848" lon="13.799672622698168"><ele>332.0</ele><time>2026-05-03T10:21:33.001Z</time></trkpt><trkpt lat="42.26408019437387" lon="13.799728264787085"><ele>332.5</ele><time>2026-05-03T10:21:34.001Z</time></trkpt><trkpt lat="42.26400856151652" lon="13.799775126594447"><ele>333.0</ele><time>2026-05-03T10:21:35.001Z</time></trkpt><trkpt lat="42.26391928439649" lon="13.79983000180161"><ele>333.5</ele><time>2026-05-03T10:21:36.001Z</time></trkpt><trkpt lat="42.26383652159288" lon="13.799877411135983"><ele>334.0</ele><time>2026-05-03T10:21:37.001Z</time></trkpt><trkpt lat="42.2637544570847" lon="13.799918562242873"><ele>334.0</ele><time>2026-05-03T10:21:38.001Z</time></trkpt><trkpt lat="42.26367515509929" lon="13.799953310393553"><ele>334.0</ele><time>2026-05-03T10:21:39.001Z</time></trkpt><trkpt lat="42.263586726642785" lon="13.799990290609728"><ele>334.0</ele><time>2026-05-03T10:21:40.001Z</time></trkpt><trkpt lat="42.26348517214185" lon="13.80003083465037"><ele>334.0</ele><time>2026-05-03T10:21:41.001Z</time></trkpt><trkpt lat="42.26339710063223" lon="13.800056414684736"><ele>334.0</ele><time>2026-05-03T10:21:42.001Z</time></trkpt><trkpt lat="42.26330438081597" lon="13.800069874082752"><ele>334.0</ele><time>2026-05-03T10:21:43.001Z</time></trkpt><trkpt lat="42.26321812556701" lon="13.80009582480878"><ele>334.0</ele><time>2026-05-03T10:21:44.001Z</time></trkpt><trkpt lat="42.263127834345" lon="13.800057604457537"><ele>334.0</ele><time>2026-05-03T10:21:45.001Z</time></trkpt><trkpt lat="42.26304084513546" lon="13.800031320751206"><ele>334.0</ele><time>2026-05-03T10:21:46.001Z</time></trkpt><trkpt lat="42.262947632172654" lon="13.80000233143808"><ele>334.0</ele><time>2026-05-03T10:21:47.001Z</time></trkpt><trkpt lat="42.262855551156086" lon="13.799951529823488"><ele>333.79999999999995</ele><time>2026-05-03T10:21:48.001Z</time></trkpt><trkpt lat="42.2627659127821" lon="13.799901137461786"><ele>333.59999999999997</ele><time>2026-05-03T10:21:49.001Z</time></trkpt><trkpt lat="42.26266977616325" lon="13.799864581374552"><ele>333.4</ele><time>2026-05-03T10:21:50.001Z</time></trkpt><trkpt lat="42.26257301111072" lon="13.79985475921553"><ele>333.2</ele><time>2026-05-03T10:21:51.001Z</time></trkpt><trkpt lat="42.26248252632478" lon="13.79984330426477"><ele>333.0</ele><time>2026-05-03T10:21:52.001Z</time></trkpt><trkpt lat="42.262396251450305" lon="13.79983399930113"><ele>333.0</ele><time>2026-05-03T10:21:53.001Z</time></trkpt><trkpt lat="42.26231757169455" lon="13.799825513501496"><ele>333.0</ele><time>2026-05-03T10:21:54.001Z</time></trkpt><trkpt lat="42.262245916315514" lon="13.799817044218763"><ele>333.0</ele><time>2026-05-03T10:21:55.001Z</time></trkpt><trkpt lat="42.26216101491687" lon="13.799806751589072"><ele>333.0</ele><time>2026-05-03T10:21:56.001Z</time></trkpt><trkpt lat="42.262080093069024" lon="13.799815795406667"><ele>333.0</ele><time>2026-05-03T10:21:57.001Z</time></trkpt><trkpt lat="42.26200065806747" lon="13.799801074537253"><ele>333.0</ele><time>2026-05-03T10:21:58.001Z</time></trkpt><trkpt lat="42.261927930834936" lon="13.799798261935587"><ele>332.79999999999995</ele><time>2026-05-03T10:21:59.001Z</time></trkpt><trkpt lat="42.26184253281516" lon="13.799818679838793"><ele>332.6</ele><time>2026-05-03T10:22:00.001Z</time></trkpt><trkpt lat="42.261761747627915" lon="13.799849738313661"><ele>332.4</ele><time>2026-05-03T10:22:01.001Z</time></trkpt><trkpt lat="42.2616706624554" lon="13.799904819956366"><ele>332.20000000000005</ele><time>2026-05-03T10:22:02.001Z</time></trkpt><trkpt lat="42.26158132271221" lon="13.79998046842734"><ele>332.0</ele><time>2026-05-03T10:22:03.001Z</time></trkpt><trkpt lat="42.261492871372624" lon="13.800055235179187"><ele>332.0</ele><time>2026-05-03T10:22:04.001Z</time></trkpt><trkpt lat="42.261403000825574" lon="13.800124152081324"><ele>332.0</ele><time>2026-05-03T10:22:05.001Z</time></trkpt><trkpt lat="42.26131803929374" lon="13.80019549499096"><ele>332.0</ele><time>2026-05-03T10:22:06.001Z</time></trkpt><trkpt lat="42.26123784540362" lon="13.800255374498876"><ele>332.0</ele><time>2026-05-03T10:22:07.001Z</time></trkpt><trkpt lat="42.26117134128597" lon="13.800339789975977"><ele>332.0</ele><time>2026-05-03T10:22:08.001Z</time></trkpt><trkpt lat="42.261104384443485" lon="13.800402666995279"><ele>332.0</ele><time>2026-05-03T10:22:09.001Z</time></trkpt><trkpt lat="42.26103443322993" lon="13.800488665678483"><ele>332.0</ele><time>2026-05-03T10:22:10.001Z</time></trkpt><trkpt lat="42.260969510615276" lon="13.800571803791374"><ele>332.0</ele><time>2026-05-03T10:22:11.001Z</time></trkpt><trkpt lat="42.26090997870944" lon="13.800648039144692"><ele>332.0</ele><time>2026-05-03T10:22:12.001Z</time></trkpt><trkpt lat="42.260848833575956" lon="13.80072944396937"><ele>332.0</ele><time>2026-05-03T10:22:13.001Z</time></trkpt><trkpt lat="42.26079805694053" lon="13.800825341744224"><ele>332.0</ele><time>2026-05-03T10:22:14.001Z</time></trkpt><trkpt lat="42.26070991758138" lon="13.800888668963719"><ele>332.0</ele><time>2026-05-03T10:22:15.001Z</time></trkpt><trkpt lat="42.26061706377989" lon="13.800961527484585"><ele>332.0</ele><time>2026-05-03T10:22:16.001Z</time></trkpt><trkpt lat="42.260537187064735" lon="13.801026425735069"><ele>332.0</ele><time>2026-05-03T10:22:17.001Z</time></trkpt><trkpt lat="42.26046352417875" lon="13.801090769067347"><ele>332.0</ele><time>2026-05-03T10:22:18.001Z</time></trkpt><trkpt lat="42.260393829100536" lon="13.801152771531044"><ele>332.0</ele><time>2026-05-03T10:22:19.001Z</time></trkpt><trkpt lat="42.26031270909102" lon="13.801228933378754"><ele>331.8</ele><time>2026-05-03T10:22:20.001Z</time></trkpt><trkpt lat="42.260235136075416" lon="13.801309785498509"><ele>331.6</ele><time>2026-05-03T10:22:21.001Z</time></trkpt><trkpt lat="42.26014556046211" lon="13.801413349271925"><ele>331.40000000000003</ele><time>2026-05-03T10:22:22.001Z</time></trkpt><trkpt lat="42.26006846997188" lon="13.801513668855689"><ele>331.20000000000005</ele><time>2026-05-03T10:22:23.001Z</time></trkpt><trkpt lat="42.26000781693443" lon="13.801618799816957"><ele>331.0</ele><time>2026-05-03T10:22:24.001Z</time></trkpt><trkpt lat="42.25994817285191" lon="13.801707858128168"><ele>331.0</ele><time>2026-05-03T10:22:25.001Z</time></trkpt><trkpt lat="42.25988906632546" lon="13.801795775762011"><ele>331.0</ele><time>2026-05-03T10:22:26.001Z</time></trkpt><trkpt lat="42.259834139163964" lon="13.801891892857236"><ele>331.0</ele><time>2026-05-03T10:22:27.001Z</time></trkpt><trkpt lat="42.259766310570235" lon="13.801994110833943"><ele>331.0</ele><time>2026-05-03T10:22:28.001Z</time></trkpt><trkpt lat="42.25967423210143" lon="13.802075354686934"><ele>331.0</ele><time>2026-05-03T10:22:29.001Z</time></trkpt><trkpt lat="42.25957888178819" lon="13.802156786599495"><ele>331.8</ele><time>2026-05-03T10:22:30.001Z</time></trkpt><trkpt lat="42.25947088949845" lon="13.80222897295617"><ele>332.6</ele><time>2026-05-03T10:22:31.001Z</time></trkpt><trkpt lat="42.25936977100429" lon="13.8022924103091"><ele>333.4</ele><time>2026-05-03T10:22:32.001Z</time></trkpt><trkpt lat="42.259266793254724" lon="13.802340091387219"><ele>334.2</ele><time>2026-05-03T10:22:33.001Z</time></trkpt><trkpt lat="42.259171376086435" lon="13.80236303923422"><ele>335.0</ele><time>2026-05-03T10:22:34.001Z</time></trkpt><trkpt lat="42.25908013856465" lon="13.80235990491522"><ele>335.0</ele><time>2026-05-03T10:22:35.001Z</time></trkpt><trkpt lat="42.258987596449664" lon="13.802346294738644"><ele>335.0</ele><time>2026-05-03T10:22:36.001Z</time></trkpt><trkpt lat="42.25888093651455" lon="13.802317014843906"><ele>335.0</ele><time>2026-05-03T10:22:37.001Z</time></trkpt><trkpt lat="42.25877470594449" lon="13.802281684528218"><ele>335.0</ele><time>2026-05-03T10:22:38.001Z</time></trkpt><trkpt lat="42.25866380816034" lon="13.802234401903116"><ele>335.0</ele><time>2026-05-03T10:22:39.001Z</time></trkpt><trkpt lat="42.2585362197993" lon="13.80217796984528"><ele>335.5</ele><time>2026-05-03T10:22:40.001Z</time></trkpt><trkpt lat="42.25842415015089" lon="13.80212840168863"><ele>336.0</ele><time>2026-05-03T10:22:41.001Z</time></trkpt><trkpt lat="42.25832903853553" lon="13.802087788989839"><ele>336.5</ele><time>2026-05-03T10:22:42.001Z</time></trkpt><trkpt lat="42.25825730420599" lon="13.8020767061323"><ele>337.0</ele><time>2026-05-03T10:22:43.001Z</time></trkpt><trkpt lat="42.25819967329097" lon="13.802035537519318"><ele>337.5</ele><time>2026-05-03T10:22:44.001Z</time></trkpt><trkpt lat="42.25814474023362" lon="13.80198452803918"><ele>338.0</ele><time>2026-05-03T10:22:45.001Z</time></trkpt><trkpt lat="42.25809451438416" lon="13.801916347247904"><ele>337.2</ele><time>2026-05-03T10:22:46.001Z</time></trkpt><trkpt lat="42.258038317093316" lon="13.801825610101616"><ele>336.4</ele><time>2026-05-03T10:22:47.001Z</time></trkpt><trkpt lat="42.25799096799765" lon="13.801706057188326"><ele>335.59999999999997</ele><time>2026-05-03T10:22:48.001Z</time></trkpt><trkpt lat="42.25793648250049" lon="13.801588929112658"><ele>334.79999999999995</ele><time>2026-05-03T10:22:49.001Z</time></trkpt><trkpt lat="42.257871939249114" lon="13.80147327723677"><ele>334.0</ele><time>2026-05-03T10:22:50.001Z</time></trkpt><trkpt lat="42.25780666429968" lon="13.801369336188632"><ele>334.0</ele><time>2026-05-03T10:22:51.001Z</time></trkpt><trkpt lat="42.25774692684679" lon="13.80126691990584"><ele>334.0</ele><time>2026-05-03T10:22:52.001Z</time></trkpt><trkpt lat="42.257677457643695" lon="13.801197185849183"><ele>334.0</ele><time>2026-05-03T10:22:53.001Z</time></trkpt><trkpt lat="42.25759519829263" lon="13.80114823897343"><ele>334.0</ele><time>2026-05-03T10:22:54.001Z</time></trkpt><trkpt lat="42.25750460697765" lon="13.80114106326763"><ele>334.0</ele><time>2026-05-03T10:22:55.001Z</time></trkpt><trkpt lat="42.25741105058371" lon="13.801174138582025"><ele>334.0</ele><time>2026-05-03T10:22:56.001Z</time></trkpt><trkpt lat="42.25733289285581" lon="13.801232118219934"><ele>334.0</ele><time>2026-05-03T10:22:57.001Z</time></trkpt><trkpt lat="42.257232304705944" lon="13.801311562382427"><ele>334.0</ele><time>2026-05-03T10:22:58.001Z</time></trkpt><trkpt lat="42.25713663256987" lon="13.801394629120121"><ele>334.0</ele><time>2026-05-03T10:22:59.001Z</time></trkpt><trkpt lat="42.25704504438928" lon="13.801479286171777"><ele>334.0</ele><time>2026-05-03T10:23:00.001Z</time></trkpt><trkpt lat="42.25696717854138" lon="13.80156023687353"><ele>334.25</ele><time>2026-05-03T10:23:01.001Z</time></trkpt><trkpt lat="42.256899881164664" lon="13.801685224940782"><ele>334.5</ele><time>2026-05-03T10:23:02.001Z</time></trkpt><trkpt lat="42.25680693149206" lon="13.801792563294098"><ele>334.75</ele><time>2026-05-03T10:23:03.001Z</time></trkpt><trkpt lat="42.25672929932671" lon="13.801909136212364"><ele>335.0</ele><time>2026-05-03T10:23:04.001Z</time></trkpt><trkpt lat="42.256654185632065" lon="13.802053239790133"><ele>335.0</ele><time>2026-05-03T10:23:05.001Z</time></trkpt><trkpt lat="42.256561547181335" lon="13.802141800572093"><ele>335.0</ele><time>2026-05-03T10:23:06.001Z</time></trkpt><trkpt lat="42.25647432682134" lon="13.802230506313792"><ele>335.0</ele><time>2026-05-03T10:23:07.001Z</time></trkpt><trkpt lat="42.25637753237" lon="13.802296984084528"><ele>335.0</ele><time>2026-05-03T10:23:08.001Z</time></trkpt><trkpt lat="42.256277701885345" lon="13.802345768239418"><ele>335.0</ele><time>2026-05-03T10:23:09.001Z</time></trkpt><trkpt lat="42.25617358415697" lon="13.802384356336088"><ele>333.75</ele><time>2026-05-03T10:23:10.001Z</time></trkpt><trkpt lat="42.25603933577835" lon="13.802428809704226"><ele>332.5</ele><time>2026-05-03T10:23:11.001Z</time></trkpt><trkpt lat="42.255914249474515" lon="13.802464664475275"><ele>331.25</ele><time>2026-05-03T10:23:12.001Z</time></trkpt><trkpt lat="42.25579168974601" lon="13.80249974550942"><ele>330.0</ele><time>2026-05-03T10:23:13.001Z</time></trkpt><trkpt lat="42.25567405679041" lon="13.802537246339638"><ele>329.0</ele><time>2026-05-03T10:23:14.001Z</time></trkpt><trkpt lat="42.25555294905702" lon="13.802595657361184"><ele>328.0</ele><time>2026-05-03T10:23:15.001Z</time></trkpt><trkpt lat="42.25544770809373" lon="13.802666891823957"><ele>327.0</ele><time>2026-05-03T10:23:16.001Z</time></trkpt><trkpt lat="42.255340295675325" lon="13.802740086720855"><ele>326.0</ele><time>2026-05-03T10:23:17.001Z</time></trkpt><trkpt lat="42.25523174727685" lon="13.802808770499482"><ele>327.0</ele><time>2026-05-03T10:23:18.001Z</time></trkpt><trkpt lat="42.25512472961632" lon="13.802891583899278"><ele>328.0</ele><time>2026-05-03T10:23:19.001Z</time></trkpt><trkpt lat="42.25500693691229" lon="13.802919512653537"><ele>329.0</ele><time>2026-05-03T10:23:20.001Z</time></trkpt><trkpt lat="42.25488701977843" lon="13.80295875394558"><ele>330.0</ele><time>2026-05-03T10:23:21.001Z</time></trkpt><trkpt lat="42.25477816247316" lon="13.802991072900683"><ele>330.0</ele><time>2026-05-03T10:23:22.001Z</time></trkpt><trkpt lat="42.25467436731332" lon="13.802998482070478"><ele>330.0</ele><time>2026-05-03T10:23:23.001Z</time></trkpt><trkpt lat="42.254561953929766" lon="13.802990884130892"><ele>330.0</ele><time>2026-05-03T10:23:24.001Z</time></trkpt><trkpt lat="42.25444918247146" lon="13.802991661126814"><ele>330.0</ele><time>2026-05-03T10:23:25.001Z</time></trkpt><trkpt lat="42.25433645341735" lon="13.803025354875352"><ele>330.0</ele><time>2026-05-03T10:23:26.001Z</time></trkpt><trkpt lat="42.254221152109075" lon="13.803071552136796"><ele>330.0</ele><time>2026-05-03T10:23:27.001Z</time></trkpt><trkpt lat="42.254118831076276" lon="13.80311764250598"><ele>330.0</ele><time>2026-05-03T10:23:28.001Z</time></trkpt><trkpt lat="42.25402273994159" lon="13.803160549612429"><ele>330.0</ele><time>2026-05-03T10:23:29.001Z</time></trkpt><trkpt lat="42.25392866365603" lon="13.803202324363957"><ele>330.0</ele><time>2026-05-03T10:23:30.001Z</time></trkpt><trkpt lat="42.25382495867541" lon="13.803248275984856"><ele>330.0</ele><time>2026-05-03T10:23:31.001Z</time></trkpt><trkpt lat="42.25371792392802" lon="13.803292039794172"><ele>330.5</ele><time>2026-05-03T10:23:32.001Z</time></trkpt><trkpt lat="42.25360093152443" lon="13.803340246476312"><ele>331.0</ele><time>2026-05-03T10:23:33.001Z</time></trkpt><trkpt lat="42.25349245914318" lon="13.803411128708165"><ele>331.5</ele><time>2026-05-03T10:23:34.001Z</time></trkpt><trkpt lat="42.25338261785901" lon="13.803500769185515"><ele>332.0</ele><time>2026-05-03T10:23:35.001Z</time></trkpt><trkpt lat="42.25327965047711" lon="13.803594044757304"><ele>332.0</ele><time>2026-05-03T10:23:36.001Z</time></trkpt><trkpt lat="42.25318400572259" lon="13.803685015606426"><ele>332.0</ele><time>2026-05-03T10:23:37.001Z</time></trkpt><trkpt lat="42.253088478869905" lon="13.803773155526915"><ele>332.0</ele><time>2026-05-03T10:23:38.001Z</time></trkpt><trkpt lat="42.252985539603216" lon="13.803858213459199"><ele>332.0</ele><time>2026-05-03T10:23:39.001Z</time></trkpt><trkpt lat="42.25288466907375" lon="13.80392108548734"><ele>331.0</ele><time>2026-05-03T10:23:40.001Z</time></trkpt><trkpt lat="42.252785519110674" lon="13.80396313956392"><ele>330.0</ele><time>2026-05-03T10:23:41.001Z</time></trkpt><trkpt lat="42.25269065283342" lon="13.803996893348922"><ele>329.0</ele><time>2026-05-03T10:23:42.001Z</time></trkpt><trkpt lat="42.252600098673895" lon="13.804018585954577"><ele>328.0</ele><time>2026-05-03T10:23:43.001Z</time></trkpt><trkpt lat="42.252505032413964" lon="13.804039165400443"><ele>327.0</ele><time>2026-05-03T10:23:44.001Z</time></trkpt><trkpt lat="42.25240931450326" lon="13.804058574176317"><ele>327.0</ele><time>2026-05-03T10:23:45.001Z</time></trkpt><trkpt lat="42.252315891329" lon="13.804068170697278"><ele>327.0</ele><time>2026-05-03T10:23:46.001Z</time></trkpt><trkpt lat="42.25222236051255" lon="13.804062665254222"><ele>327.0</ele><time>2026-05-03T10:23:47.001Z</time></trkpt><trkpt lat="42.25212773605426" lon="13.804038766482327"><ele>327.0</ele><time>2026-05-03T10:23:48.001Z</time></trkpt><trkpt lat="42.25204105048189" lon="13.804010475667347"><ele>327.0</ele><time>2026-05-03T10:23:49.001Z</time></trkpt><trkpt lat="42.25196939800216" lon="13.803973771981067"><ele>327.0</ele><time>2026-05-03T10:23:50.001Z</time></trkpt><trkpt lat="42.251889007577404" lon="13.803912865669266"><ele>326.8333333333333</ele><time>2026-05-03T10:23:51.001Z</time></trkpt><trkpt lat="42.251823267746694" lon="13.803838757233873"><ele>326.6666666666667</ele><time>2026-05-03T10:23:52.001Z</time></trkpt><trkpt lat="42.25175281602967" lon="13.803742118253385"><ele>326.5</ele><time>2026-05-03T10:23:53.001Z</time></trkpt><trkpt lat="42.25170454088771" lon="13.803675471358583"><ele>326.33333333333337</ele><time>2026-05-03T10:23:54.001Z</time></trkpt><trkpt lat="42.2516416133702" lon="13.803597983284691"><ele>326.1666666666667</ele><time>2026-05-03T10:23:56.001Z</time></trkpt><trkpt lat="42.25155200519336" lon="13.803524892643308"><ele>326.0</ele><time>2026-05-03T10:23:58.001Z</time></trkpt><trkpt lat="42.25148931303538" lon="13.803493168400761"><ele>326.8</ele><time>2026-05-03T10:23:59.001Z</time></trkpt><trkpt lat="42.25142212052351" lon="13.80346345956552"><ele>327.6</ele><time>2026-05-03T10:24:00.001Z</time></trkpt><trkpt lat="42.25133410240166" lon="13.803424904964805"><ele>328.4</ele><time>2026-05-03T10:24:01.001Z</time></trkpt><trkpt lat="42.25123967379137" lon="13.803386091027889"><ele>329.2</ele><time>2026-05-03T10:24:02.001Z</time></trkpt><trkpt lat="42.25114543604027" lon="13.803351255620655"><ele>330.0</ele><time>2026-05-03T10:24:03.001Z</time></trkpt><trkpt lat="42.25105184868109" lon="13.80331860761768"><ele>330.0</ele><time>2026-05-03T10:24:04.001Z</time></trkpt><trkpt lat="42.250977327615765" lon="13.803296764577475"><ele>330.0</ele><time>2026-05-03T10:24:05.001Z</time></trkpt><trkpt lat="42.25090432427505" lon="13.803303621442927"><ele>330.0</ele><time>2026-05-03T10:24:06.001Z</time></trkpt><trkpt lat="42.2508205071378" lon="13.803305646191625"><ele>330.0</ele><time>2026-05-03T10:24:07.001Z</time></trkpt><trkpt lat="42.25072951898264" lon="13.803322373058121"><ele>330.0</ele><time>2026-05-03T10:24:08.001Z</time></trkpt><trkpt lat="42.25063336446942" lon="13.803352416176688"><ele>330.0</ele><time>2026-05-03T10:24:09.001Z</time></trkpt><trkpt lat="42.25054131786736" lon="13.803384396915625"><ele>330.0</ele><time>2026-05-03T10:24:10.001Z</time></trkpt><trkpt lat="42.250450032566306" lon="13.803435176955809"><ele>330.0</ele><time>2026-05-03T10:24:11.001Z</time></trkpt><trkpt lat="42.250352160467706" lon="13.803503702777704"><ele>330.0</ele><time>2026-05-03T10:24:12.001Z</time></trkpt><trkpt lat="42.250258057063995" lon="13.803575233821624"><ele>330.0</ele><time>2026-05-03T10:24:13.001Z</time></trkpt><trkpt lat="42.250166712295865" lon="13.803657178051967"><ele>330.0</ele><time>2026-05-03T10:24:14.001Z</time></trkpt><trkpt lat="42.25007819838998" lon="13.803729338475865"><ele>330.6666666666667</ele><time>2026-05-03T10:24:15.001Z</time></trkpt><trkpt lat="42.24999578886083" lon="13.803781575494067"><ele>331.3333333333333</ele><time>2026-05-03T10:24:16.001Z</time></trkpt><trkpt lat="42.24992603438217" lon="13.803843164068912"><ele>332.0</ele><time>2026-05-03T10:24:17.001Z</time></trkpt><trkpt lat="42.249858559469615" lon="13.803920911400095"><ele>332.66666666666663</ele><time>2026-05-03T10:24:18.001Z</time></trkpt><trkpt lat="42.249801112514206" lon="13.804011167593597"><ele>333.3333333333333</ele><time>2026-05-03T10:24:19Z</time></trkpt><trkpt lat="42.249741481940205" lon="13.804113763392715"><ele>334.0</ele><time>2026-05-03T10:24:20Z</time></trkpt><trkpt lat="42.24968909968978" lon="13.804211941497735"><ele>334.0</ele><time>2026-05-03T10:24:21Z</time></trkpt><trkpt lat="42.24964002948257" lon="13.804310244757575"><ele>334.0</ele><time>2026-05-03T10:24:22Z</time></trkpt><trkpt lat="42.24958029342854" lon="13.804416907587976"><ele>334.0</ele><time>2026-05-03T10:24:23Z</time></trkpt><trkpt lat="42.24950868980354" lon="13.804510046887724"><ele>334.0</ele><time>2026-05-03T10:24:24Z</time></trkpt><trkpt lat="42.249460262901245" lon="13.804593349928991"><ele>334.0</ele><time>2026-05-03T10:24:25Z</time></trkpt><trkpt lat="42.24941014184941" lon="13.80470179691995"><ele>334.75</ele><time>2026-05-03T10:24:26Z</time></trkpt><trkpt lat="42.24933886378664" lon="13.804813713686972"><ele>335.5</ele><time>2026-05-03T10:24:27Z</time></trkpt><trkpt lat="42.24923932031945" lon="13.804916739828833"><ele>336.25</ele><time>2026-05-03T10:24:28Z</time></trkpt><trkpt lat="42.24914932587065" lon="13.805016266179845"><ele>337.0</ele><time>2026-05-03T10:24:29Z</time></trkpt><trkpt lat="42.249062979888876" lon="13.805084382531641"><ele>337.0</ele><time>2026-05-03T10:24:30Z</time></trkpt><trkpt lat="42.24898742743823" lon="13.805127523977601"><ele>337.0</ele><time>2026-05-03T10:24:31Z</time></trkpt><trkpt lat="42.248895591634216" lon="13.805162202794964"><ele>337.0</ele><time>2026-05-03T10:24:32Z</time></trkpt><trkpt lat="42.248803286021854" lon="13.805174776084252"><ele>337.0</ele><time>2026-05-03T10:24:33Z</time></trkpt><trkpt lat="42.248709748449144" lon="13.805197688247688"><ele>337.0</ele><time>2026-05-03T10:24:34Z</time></trkpt><trkpt lat="42.24860945603293" lon="13.805232471194525"><ele>336.6</ele><time>2026-05-03T10:24:35Z</time></trkpt><trkpt lat="42.248515901735004" lon="13.805290734737488"><ele>336.20000000000005</ele><time>2026-05-03T10:24:36Z</time></trkpt><trkpt lat="42.248426597251296" lon="13.805362293295568"><ele>335.8</ele><time>2026-05-03T10:24:37Z</time></trkpt><trkpt lat="42.248348778533874" lon="13.805442850375755"><ele>335.4</ele><time>2026-05-03T10:24:38Z</time></trkpt><trkpt lat="42.24828954613072" lon="13.805530045847002"><ele>335.0</ele><time>2026-05-03T10:24:39Z</time></trkpt><trkpt lat="42.248237129559634" lon="13.805636205973611"><ele>335.0</ele><time>2026-05-03T10:24:40Z</time></trkpt><trkpt lat="42.24817983162254" lon="13.805746974618506"><ele>335.0</ele><time>2026-05-03T10:24:41Z</time></trkpt><trkpt lat="42.248123098446015" lon="13.805855657564747"><ele>335.0</ele><time>2026-05-03T10:24:42Z</time></trkpt><trkpt lat="42.24806309976474" lon="13.805952828855814"><ele>335.0</ele><time>2026-05-03T10:24:43.001Z</time></trkpt><trkpt lat="42.24801199943785" lon="13.806059610210244"><ele>335.0</ele><time>2026-05-03T10:24:44.001Z</time></trkpt><trkpt lat="42.24796163768888" lon="13.806159932015333"><ele>333.5</ele><time>2026-05-03T10:24:45.001Z</time></trkpt><trkpt lat="42.24791249643707" lon="13.806257592000035"><ele>332.0</ele><time>2026-05-03T10:24:46.001Z</time></trkpt><trkpt lat="42.24786035485259" lon="13.806358822972106"><ele>330.5</ele><time>2026-05-03T10:24:47.001Z</time></trkpt><trkpt lat="42.247813643250964" lon="13.806454396322252"><ele>329.0</ele><time>2026-05-03T10:24:48.001Z</time></trkpt><trkpt lat="42.247775938714135" lon="13.806552770565473"><ele>327.5</ele><time>2026-05-03T10:24:49.001Z</time></trkpt><trkpt lat="42.2477492477132" lon="13.806658925982745"><ele>326.0</ele><time>2026-05-03T10:24:50.001Z</time></trkpt><trkpt lat="42.24772648943532" lon="13.806780939239639"><ele>326.4</ele><time>2026-05-03T10:24:51.001Z</time></trkpt><trkpt lat="42.24771525922565" lon="13.806921389197385"><ele>326.8</ele><time>2026-05-03T10:24:52.001Z</time></trkpt><trkpt lat="42.2476989083872" lon="13.80704253489612"><ele>327.2</ele><time>2026-05-03T10:24:53.001Z</time></trkpt><trkpt lat="42.2476790768021" lon="13.807146405711824"><ele>327.59999999999997</ele><time>2026-05-03T10:24:54.001Z</time></trkpt><trkpt lat="42.24765373696561" lon="13.807226060602318"><ele>328.0</ele><time>2026-05-03T10:24:55.001Z</time></trkpt><trkpt lat="42.24757080325347" lon="13.807353073303423"><ele>328.0</ele><time>2026-05-03T10:24:57.001Z</time></trkpt><trkpt lat="42.24748844200205" lon="13.807426789944012"><ele>328.0</ele><time>2026-05-03T10:24:58.001Z</time></trkpt><trkpt lat="42.24740350943758" lon="13.80748726501051"><ele>328.0</ele><time>2026-05-03T10:24:59.001Z</time></trkpt><trkpt lat="42.24731419414416" lon="13.807556022853323"><ele>328.0</ele><time>2026-05-03T10:25:00.001Z</time></trkpt><trkpt lat="42.24723225198231" lon="13.807624837655922"><ele>328.0</ele><time>2026-05-03T10:25:01.001Z</time></trkpt><trkpt lat="42.247152652348355" lon="13.80769883753195"><ele>327.4</ele><time>2026-05-03T10:25:02.001Z</time></trkpt><trkpt lat="42.24707881698259" lon="13.807772932849616"><ele>326.79999999999995</ele><time>2026-05-03T10:25:03.001Z</time></trkpt><trkpt lat="42.2470046275281" lon="13.80786415950954"><ele>326.2</ele><time>2026-05-03T10:25:04.001Z</time></trkpt><trkpt lat="42.246934033594336" lon="13.807964748958259"><ele>325.6</ele><time>2026-05-03T10:25:05.001Z</time></trkpt><trkpt lat="42.246878535479745" lon="13.808066782333942"><ele>325.0</ele><time>2026-05-03T10:25:06.001Z</time></trkpt><trkpt lat="42.246835209892545" lon="13.808187393761571"><ele>325.0</ele><time>2026-05-03T10:25:07.001Z</time></trkpt><trkpt lat="42.24680861779459" lon="13.808329441498675"><ele>325.0</ele><time>2026-05-03T10:25:08.001Z</time></trkpt><trkpt lat="42.24678078358483" lon="13.808477091164924"><ele>325.0</ele><time>2026-05-03T10:25:09.001Z</time></trkpt><trkpt lat="42.24676375377357" lon="13.808643204195901"><ele>325.0</ele><time>2026-05-03T10:25:10.001Z</time></trkpt><trkpt lat="42.246713576217" lon="13.808801634297042"><ele>325.0</ele><time>2026-05-03T10:25:11.001Z</time></trkpt><trkpt lat="42.24667119419597" lon="13.808970051718761"><ele>325.0</ele><time>2026-05-03T10:25:12.001Z</time></trkpt><trkpt lat="42.246627417285175" lon="13.809123332153527"><ele>325.0</ele><time>2026-05-03T10:25:13.001Z</time></trkpt><trkpt lat="42.24658090843859" lon="13.809282249073851"><ele>325.0</ele><time>2026-05-03T10:25:14.001Z</time></trkpt><trkpt lat="42.24654975243911" lon="13.809444508488843"><ele>325.0</ele><time>2026-05-03T10:25:15.001Z</time></trkpt><trkpt lat="42.24649238304984" lon="13.809604053724476"><ele>325.0</ele><time>2026-05-03T10:25:16.001Z</time></trkpt><trkpt lat="42.24644940932964" lon="13.809752750327858"><ele>325.0</ele><time>2026-05-03T10:25:17.001Z</time></trkpt><trkpt lat="42.2464065111783" lon="13.809885705889043"><ele>325.0</ele><time>2026-05-03T10:25:18.001Z</time></trkpt><trkpt lat="42.24635876156577" lon="13.810001625807937"><ele>325.0</ele><time>2026-05-03T10:25:19.001Z</time></trkpt><trkpt lat="42.24630922484652" lon="13.810103090971436"><ele>325.0</ele><time>2026-05-03T10:25:20.001Z</time></trkpt><trkpt lat="42.24625207492802" lon="13.810203818508983"><ele>325.0</ele><time>2026-05-03T10:25:21.001Z</time></trkpt><trkpt lat="42.246196953966525" lon="13.81031693839406"><ele>325.0</ele><time>2026-05-03T10:25:22.001Z</time></trkpt><trkpt lat="42.2461109316963" lon="13.810414515673722"><ele>325.0</ele><time>2026-05-03T10:25:23.001Z</time></trkpt><trkpt lat="42.246031541833794" lon="13.810529931527162"><ele>325.0</ele><time>2026-05-03T10:25:24.001Z</time></trkpt><trkpt lat="42.245946542863656" lon="13.810632363984823"><ele>325.0</ele><time>2026-05-03T10:25:25.001Z</time></trkpt><trkpt lat="42.245857463186795" lon="13.81074268659921"><ele>325.0</ele><time>2026-05-03T10:25:26.001Z</time></trkpt><trkpt lat="42.24577499794404" lon="13.810842655032614"><ele>325.0</ele><time>2026-05-03T10:25:27.001Z</time></trkpt><trkpt lat="42.24567435570409" lon="13.810935211019174"><ele>324.8</ele><time>2026-05-03T10:25:28.001Z</time></trkpt><trkpt lat="42.24558988915406" lon="13.811030463608002"><ele>324.6</ele><time>2026-05-03T10:25:29.001Z</time></trkpt><trkpt lat="42.24551275457404" lon="13.811109954780754"><ele>324.4</ele><time>2026-05-03T10:25:30.001Z</time></trkpt><trkpt lat="42.24543394033424" lon="13.811184378860139"><ele>324.2</ele><time>2026-05-03T10:25:31.001Z</time></trkpt><trkpt lat="42.24536347086673" lon="13.81125045427888"><ele>324.0</ele><time>2026-05-03T10:25:32.001Z</time></trkpt><trkpt lat="42.245311492899845" lon="13.811327584593943"><ele>324.0</ele><time>2026-05-03T10:25:33.001Z</time></trkpt><trkpt lat="42.245245699372916" lon="13.81137537156069"><ele>324.0</ele><time>2026-05-03T10:25:34.001Z</time></trkpt><trkpt lat="42.24518188935101" lon="13.811455206575541"><ele>324.0</ele><time>2026-05-03T10:25:35.001Z</time></trkpt><trkpt lat="42.245132406506315" lon="13.81153607971141"><ele>324.0</ele><time>2026-05-03T10:25:36.001Z</time></trkpt><trkpt lat="42.24508946999841" lon="13.811626039110667"><ele>324.0</ele><time>2026-05-03T10:25:37.001Z</time></trkpt><trkpt lat="42.245051313646144" lon="13.811744794858408"><ele>324.0</ele><time>2026-05-03T10:25:38.001Z</time></trkpt><trkpt lat="42.245032908500875" lon="13.811848466554585"><ele>324.79999999999995</ele><time>2026-05-03T10:25:39.001Z</time></trkpt><trkpt lat="42.24502200210757" lon="13.812000460737169"><ele>325.59999999999997</ele><time>2026-05-03T10:25:40.001Z</time></trkpt><trkpt lat="42.244997704102374" lon="13.812133512712224"><ele>326.4</ele><time>2026-05-03T10:25:41.001Z</time></trkpt><trkpt lat="42.24497122406048" lon="13.812218308272703"><ele>327.2</ele><time>2026-05-03T10:25:42.001Z</time></trkpt><trkpt lat="42.244901641623" lon="13.81235615999892"><ele>328.0</ele><time>2026-05-03T10:25:44.001Z</time></trkpt><trkpt lat="42.24483277487427" lon="13.81243347724268"><ele>328.59999999999997</ele><time>2026-05-03T10:25:46.001Z</time></trkpt><trkpt lat="42.244727526757565" lon="13.812508697515137"><ele>329.2</ele><time>2026-05-03T10:25:48.001Z</time></trkpt><trkpt lat="42.24466942202458" lon="13.81254450294327"><ele>329.8</ele><time>2026-05-03T10:25:49.001Z</time></trkpt><trkpt lat="42.244548794480025" lon="13.812619690567136"><ele>330.4</ele><time>2026-05-03T10:25:51.001Z</time></trkpt><trkpt lat="42.24445908576367" lon="13.81264571571282"><ele>331.0</ele><time>2026-05-03T10:25:52.001Z</time></trkpt><trkpt lat="42.24437224072233" lon="13.81268078383214"><ele>331.0</ele><time>2026-05-03T10:25:53.001Z</time></trkpt><trkpt lat="42.244286541366755" lon="13.812716502699391"><ele>331.0</ele><time>2026-05-03T10:25:54.001Z</time></trkpt><trkpt lat="42.244213332281454" lon="13.812745780795154"><ele>331.0</ele><time>2026-05-03T10:25:55.001Z</time></trkpt><trkpt lat="42.244137192104446" lon="13.812780667044974"><ele>331.0</ele><time>2026-05-03T10:25:56.001Z</time></trkpt><trkpt lat="42.244042633753054" lon="13.812803005723815"><ele>331.0</ele><time>2026-05-03T10:25:57.001Z</time></trkpt><trkpt lat="42.24396057287476" lon="13.812840834787147"><ele>331.0</ele><time>2026-05-03T10:25:58.001Z</time></trkpt><trkpt lat="42.24388170366449" lon="13.812862842242481"><ele>329.8</ele><time>2026-05-03T10:25:59.001Z</time></trkpt><trkpt lat="42.24380460260917" lon="13.81288498603298"><ele>328.6</ele><time>2026-05-03T10:26:00.001Z</time></trkpt><trkpt lat="42.24373162506242" lon="13.812911222880569"><ele>327.4</ele><time>2026-05-03T10:26:01.001Z</time></trkpt><trkpt lat="42.243663804176066" lon="13.81293821641074"><ele>326.2</ele><time>2026-05-03T10:26:02.001Z</time></trkpt><trkpt lat="42.24354211350275" lon="13.81304036979078"><ele>325.0</ele><time>2026-05-03T10:26:04.001Z</time></trkpt><trkpt lat="42.24346102416265" lon="13.81315131399138"><ele>325.0</ele><time>2026-05-03T10:26:06.001Z</time></trkpt><trkpt lat="42.24340203668351" lon="13.813192147197254"><ele>325.0</ele><time>2026-05-03T10:26:07.001Z</time></trkpt><trkpt lat="42.24334704732094" lon="13.813253894224049"><ele>325.0</ele><time>2026-05-03T10:26:08.001Z</time></trkpt><trkpt lat="42.24329483835023" lon="13.813333969675854"><ele>325.0</ele><time>2026-05-03T10:26:09.001Z</time></trkpt><trkpt lat="42.24324414122461" lon="13.813388162773746"><ele>325.0</ele><time>2026-05-03T10:26:10.001Z</time></trkpt><trkpt lat="42.24319604571397" lon="13.813456131077894"><ele>325.0</ele><time>2026-05-03T10:26:11.001Z</time></trkpt><trkpt lat="42.24314316683708" lon="13.813528696519523"><ele>325.0</ele><time>2026-05-03T10:26:12.001Z</time></trkpt><trkpt lat="42.243096814071045" lon="13.813588756639328"><ele>324.16666666666663</ele><time>2026-05-03T10:26:13.001Z</time></trkpt><trkpt lat="42.24304899580588" lon="13.81364820982374"><ele>323.3333333333333</ele><time>2026-05-03T10:26:14.001Z</time></trkpt><trkpt lat="42.24299639950573" lon="13.813713603632747"><ele>322.5</ele><time>2026-05-03T10:26:15.001Z</time></trkpt><trkpt lat="42.242894617625915" lon="13.813829577671633"><ele>321.6666666666667</ele><time>2026-05-03T10:26:17Z</time></trkpt><trkpt lat="42.24283751957267" lon="13.813892516687142"><ele>320.83333333333337</ele><time>2026-05-03T10:26:18Z</time></trkpt><trkpt lat="42.242791460898275" lon="13.813969673434427"><ele>320.0</ele><time>2026-05-03T10:26:19Z</time></trkpt><trkpt lat="42.242731936045686" lon="13.81402956713618"><ele>320.0</ele><time>2026-05-03T10:26:20Z</time></trkpt><trkpt lat="42.24266468578835" lon="13.814090715486914"><ele>320.0</ele><time>2026-05-03T10:26:21Z</time></trkpt><trkpt lat="42.242595029670596" lon="13.814165505826693"><ele>320.0</ele><time>2026-05-03T10:26:22Z</time></trkpt><trkpt lat="42.24252287969173" lon="13.814239112042578"><ele>320.0</ele><time>2026-05-03T10:26:23Z</time></trkpt><trkpt lat="42.242446965048885" lon="13.814315836015693"><ele>320.0</ele><time>2026-05-03T10:26:24Z</time></trkpt><trkpt lat="42.242368867370644" lon="13.81436240285531"><ele>320.0</ele><time>2026-05-03T10:26:25Z</time></trkpt><trkpt lat="42.24230424539965" lon="13.814413589270044"><ele>319.8</ele><time>2026-05-03T10:26:26Z</time></trkpt><trkpt lat="42.242238361477085" lon="13.814446175835757"><ele>319.6</ele><time>2026-05-03T10:26:27Z</time></trkpt><trkpt lat="42.2421021261995" lon="13.814482299757666"><ele>319.4</ele><time>2026-05-03T10:26:29Z</time></trkpt><trkpt lat="42.24202685392926" lon="13.814512889538332"><ele>319.2</ele><time>2026-05-03T10:26:30Z</time></trkpt><trkpt lat="42.24196175940562" lon="13.814559617513867"><ele>319.0</ele><time>2026-05-03T10:26:31Z</time></trkpt><trkpt lat="42.24190644048295" lon="13.814691036875741"><ele>319.0</ele><time>2026-05-03T10:26:33Z</time></trkpt><trkpt lat="42.241905538720765" lon="13.814856962037632"><ele>319.0</ele><time>2026-05-03T10:26:35Z</time></trkpt><trkpt lat="42.24190045325032" lon="13.814963795412103"><ele>319.0</ele><time>2026-05-03T10:26:36Z</time></trkpt><trkpt lat="42.24189485449624" lon="13.815121719213462"><ele>319.0</ele><time>2026-05-03T10:26:37Z</time></trkpt><trkpt lat="42.241717100546815" lon="13.815218379766968"><ele>319.3333333333333</ele><time>2026-05-03T10:26:38Z</time></trkpt><trkpt lat="42.241682537684184" lon="13.815323897143461"><ele>319.66666666666663</ele><time>2026-05-03T10:26:39Z</time></trkpt><trkpt lat="42.2416496612867" lon="13.81544487223071"><ele>320.0</ele><time>2026-05-03T10:26:40Z</time></trkpt><trkpt lat="42.24163600059754" lon="13.815582819632514"><ele>320.3333333333333</ele><time>2026-05-03T10:26:41Z</time></trkpt><trkpt lat="42.24163641550341" lon="13.815690014291816"><ele>320.6666666666667</ele><time>2026-05-03T10:26:42Z</time></trkpt><trkpt lat="42.24163440336417" lon="13.815783121660816"><ele>321.0</ele><time>2026-05-03T10:26:43Z</time></trkpt><trkpt lat="42.24156922885596" lon="13.815931710240783"><ele>322.3333333333333</ele><time>2026-05-03T10:26:45Z</time></trkpt><trkpt lat="42.24150585562712" lon="13.816007263799232"><ele>323.6666666666667</ele><time>2026-05-03T10:26:46Z</time></trkpt><trkpt lat="42.24143433051294" lon="13.816073673044926"><ele>325.0</ele><time>2026-05-03T10:26:47Z</time></trkpt><trkpt lat="42.24136268224674" lon="13.8161228116385"><ele>326.33333333333337</ele><time>2026-05-03T10:26:48Z</time></trkpt><trkpt lat="42.24128811261097" lon="13.816164044225753"><ele>327.6666666666667</ele><time>2026-05-03T10:26:49Z</time></trkpt><trkpt lat="42.24119627851593" lon="13.816210991834502"><ele>329.0</ele><time>2026-05-03T10:26:50Z</time></trkpt><trkpt lat="42.241100405472466" lon="13.816247216027469"><ele>329.0</ele><time>2026-05-03T10:26:51Z</time></trkpt><trkpt lat="42.2409972516707" lon="13.816264215094936"><ele>329.0</ele><time>2026-05-03T10:26:52Z</time></trkpt><trkpt lat="42.240881706375504" lon="13.816273679304295"><ele>329.0</ele><time>2026-05-03T10:26:53Z</time></trkpt><trkpt lat="42.24075847543441" lon="13.816278214182512"><ele>329.0</ele><time>2026-05-03T10:26:54Z</time></trkpt><trkpt lat="42.24064892893732" lon="13.81627986020021"><ele>328.5</ele><time>2026-05-03T10:26:55Z</time></trkpt><trkpt lat="42.24053789519416" lon="13.81628260784919"><ele>328.0</ele><time>2026-05-03T10:26:56Z</time></trkpt><trkpt lat="42.2404162904418" lon="13.81629027610044"><ele>327.5</ele><time>2026-05-03T10:26:57Z</time></trkpt><trkpt lat="42.24029544167792" lon="13.8162949381678"><ele>327.0</ele><time>2026-05-03T10:26:58Z</time></trkpt><trkpt lat="42.24018990698044" lon="13.816295812935886"><ele>327.0</ele><time>2026-05-03T10:26:59Z</time></trkpt><trkpt lat="42.24007715744471" lon="13.816306404984104"><ele>327.0</ele><time>2026-05-03T10:27:00Z</time></trkpt><trkpt lat="42.239979416267886" lon="13.81633409232077"><ele>327.0</ele><time>2026-05-03T10:27:01Z</time></trkpt><trkpt lat="42.23990756322803" lon="13.816402757499915"><ele>327.0</ele><time>2026-05-03T10:27:02Z</time></trkpt><trkpt lat="42.23980884056322" lon="13.8164227734323"><ele>327.0</ele><time>2026-05-03T10:27:03Z</time></trkpt><trkpt lat="42.23971381013672" lon="13.816446562884883"><ele>326.3333333333333</ele><time>2026-05-03T10:27:04Z</time></trkpt><trkpt lat="42.23963610320718" lon="13.816460121750744"><ele>325.6666666666667</ele><time>2026-05-03T10:27:05Z</time></trkpt><trkpt lat="42.23956461504722" lon="13.816472685465294"><ele>325.0</ele><time>2026-05-03T10:27:06Z</time></trkpt><trkpt lat="42.239472281386014" lon="13.81646665923694"><ele>324.33333333333337</ele><time>2026-05-03T10:27:08Z</time></trkpt><trkpt lat="42.23940339629503" lon="13.816340960569224"><ele>323.6666666666667</ele><time>2026-05-03T10:27:10Z</time></trkpt><trkpt lat="42.239369148055516" lon="13.816267578092427"><ele>323.0</ele><time>2026-05-03T10:27:11Z</time></trkpt><trkpt lat="42.239339216798875" lon="13.81612151416192"><ele>323.0</ele><time>2026-05-03T10:27:13Z</time></trkpt><trkpt lat="42.23917891430027" lon="13.816154268495266"><ele>323.0</ele><time>2026-05-03T10:27:14Z</time></trkpt><trkpt lat="42.239076585297845" lon="13.81614812712558"><ele>323.0</ele><time>2026-05-03T10:27:15Z</time></trkpt><trkpt lat="42.23895623103737" lon="13.816108784385783"><ele>323.0</ele><time>2026-05-03T10:27:16Z</time></trkpt><trkpt lat="42.23882378630909" lon="13.81607947980212"><ele>322.0</ele><time>2026-05-03T10:27:17Z</time></trkpt><trkpt lat="42.23869830615105" lon="13.816056865590358"><ele>321.0</ele><time>2026-05-03T10:27:18Z</time></trkpt><trkpt lat="42.23857707357918" lon="13.816057188322239"><ele>320.0</ele><time>2026-05-03T10:27:19Z</time></trkpt><trkpt lat="42.23844991434931" lon="13.816078627676294"><ele>319.0</ele><time>2026-05-03T10:27:20Z</time></trkpt><trkpt lat="42.23831605950588" lon="13.816144531887817"><ele>319.0</ele><time>2026-05-03T10:27:21Z</time></trkpt><trkpt lat="42.238191070408796" lon="13.816235379399409"><ele>319.0</ele><time>2026-05-03T10:27:22.001Z</time></trkpt><trkpt lat="42.23804943355218" lon="13.816275319246381"><ele>319.0</ele><time>2026-05-03T10:27:23.001Z</time></trkpt><trkpt lat="42.23790799446625" lon="13.816337977515872"><ele>319.0</ele><time>2026-05-03T10:27:24.001Z</time></trkpt><trkpt lat="42.23777353926024" lon="13.816401659209848"><ele>319.0</ele><time>2026-05-03T10:27:25.001Z</time></trkpt><trkpt lat="42.23762348508922" lon="13.816478953094052"><ele>319.0</ele><time>2026-05-03T10:27:26.001Z</time></trkpt><trkpt lat="42.237460205257555" lon="13.816559873711997"><ele>319.0</ele><time>2026-05-03T10:27:27.001Z</time></trkpt><trkpt lat="42.237299375617916" lon="13.816630789088455"><ele>319.3333333333333</ele><time>2026-05-03T10:27:28.001Z</time></trkpt><trkpt lat="42.237154077093436" lon="13.81668095987399"><ele>319.6666666666667</ele><time>2026-05-03T10:27:29.001Z</time></trkpt><trkpt lat="42.237008947894886" lon="13.816708241971728"><ele>320.0</ele><time>2026-05-03T10:27:30.001Z</time></trkpt><trkpt lat="42.23685025600078" lon="13.816711460422876"><ele>320.0</ele><time>2026-05-03T10:27:31.001Z</time></trkpt><trkpt lat="42.23668898393963" lon="13.816676358954679"><ele>320.0</ele><time>2026-05-03T10:27:32.001Z</time></trkpt><trkpt lat="42.236528221992316" lon="13.816606416339965"><ele>320.0</ele><time>2026-05-03T10:27:33.001Z</time></trkpt><trkpt lat="42.23638721631194" lon="13.816518870629796"><ele>320.4</ele><time>2026-05-03T10:27:34.001Z</time></trkpt><trkpt lat="42.236260888379235" lon="13.816444853329024"><ele>320.8</ele><time>2026-05-03T10:27:35.001Z</time></trkpt><trkpt lat="42.23618073690233" lon="13.816342269972823"><ele>321.20000000000005</ele><time>2026-05-03T10:27:36.001Z</time></trkpt><trkpt lat="42.2360981057982" lon="13.816268288754175"><ele>321.6</ele><time>2026-05-03T10:27:37.001Z</time></trkpt><trkpt lat="42.23600997478055" lon="13.816217465950203"><ele>322.0</ele><time>2026-05-03T10:27:38.001Z</time></trkpt><trkpt lat="42.23591517046493" lon="13.816190513527733"><ele>322.0</ele><time>2026-05-03T10:27:39.001Z</time></trkpt><trkpt lat="42.23581722464403" lon="13.816182699918029"><ele>322.0</ele><time>2026-05-03T10:27:40.001Z</time></trkpt><trkpt lat="42.23570993402723" lon="13.816202329365083"><ele>322.0</ele><time>2026-05-03T10:27:41.001Z</time></trkpt><trkpt lat="42.235602424896896" lon="13.816248858773982"><ele>322.0</ele><time>2026-05-03T10:27:42.001Z</time></trkpt><trkpt lat="42.235501817348535" lon="13.8163115689126"><ele>322.0</ele><time>2026-05-03T10:27:43.001Z</time></trkpt><trkpt lat="42.23540921796464" lon="13.816411136450485"><ele>321.75</ele><time>2026-05-03T10:27:44.001Z</time></trkpt><trkpt lat="42.23532623534699" lon="13.816536323717898"><ele>321.5</ele><time>2026-05-03T10:27:45.001Z</time></trkpt><trkpt lat="42.23524952631472" lon="13.816676466127094"><ele>321.25</ele><time>2026-05-03T10:27:46.001Z</time></trkpt><trkpt lat="42.235179164281945" lon="13.816834327522821"><ele>321.0</ele><time>2026-05-03T10:27:47.001Z</time></trkpt><trkpt lat="42.23510184787786" lon="13.817004975453985"><ele>321.0</ele><time>2026-05-03T10:27:48.001Z</time></trkpt><trkpt lat="42.23492314283556" lon="13.817375960046615"><ele>321.0</ele><time>2026-05-03T10:27:50.001Z</time></trkpt><trkpt lat="42.23482357630426" lon="13.817546012688508"><ele>322.25</ele><time>2026-05-03T10:27:51.001Z</time></trkpt><trkpt lat="42.234723628143726" lon="13.817697353503492"><ele>323.5</ele><time>2026-05-03T10:27:52.001Z</time></trkpt><trkpt lat="42.23462191304423" lon="13.81783593381403"><ele>324.75</ele><time>2026-05-03T10:27:53.001Z</time></trkpt><trkpt lat="42.23452058956692" lon="13.817958370200946"><ele>326.0</ele><time>2026-05-03T10:27:54.001Z</time></trkpt><trkpt lat="42.234418594416894" lon="13.818066633461708"><ele>326.0</ele><time>2026-05-03T10:27:55.001Z</time></trkpt><trkpt lat="42.23431609056592" lon="13.818163171563013"><ele>326.0</ele><time>2026-05-03T10:27:56.001Z</time></trkpt><trkpt lat="42.23420991177568" lon="13.81824781104381"><ele>326.0</ele><time>2026-05-03T10:27:57.001Z</time></trkpt><trkpt lat="42.23408872573273" lon="13.818334813427366"><ele>326.0</ele><time>2026-05-03T10:27:58.001Z</time></trkpt><trkpt lat="42.233971857089564" lon="13.818407244406055"><ele>327.25</ele><time>2026-05-03T10:27:59.001Z</time></trkpt><trkpt lat="42.233853203757725" lon="13.818481477598338"><ele>328.5</ele><time>2026-05-03T10:28:00.001Z</time></trkpt><trkpt lat="42.233723916507785" lon="13.818562361847299"><ele>329.75</ele><time>2026-05-03T10:28:01.001Z</time></trkpt><trkpt lat="42.23360248945396" lon="13.818635182738461"><ele>331.0</ele><time>2026-05-03T10:28:02.001Z</time></trkpt><trkpt lat="42.2334835521292" lon="13.818701897242189"><ele>331.0</ele><time>2026-05-03T10:28:03.001Z</time></trkpt><trkpt lat="42.233354338375115" lon="13.818761841718334"><ele>331.0</ele><time>2026-05-03T10:28:04.001Z</time></trkpt><trkpt lat="42.23322228139282" lon="13.818820999085496"><ele>331.0</ele><time>2026-05-03T10:28:05.001Z</time></trkpt><trkpt lat="42.23308489105139" lon="13.818887489135369"><ele>331.0</ele><time>2026-05-03T10:28:06.001Z</time></trkpt><trkpt lat="42.23294701133341" lon="13.818951113941106"><ele>327.66666666666663</ele><time>2026-05-03T10:28:07.001Z</time></trkpt><trkpt lat="42.2328002816237" lon="13.818988539803122"><ele>324.3333333333333</ele><time>2026-05-03T10:28:08.001Z</time></trkpt><trkpt lat="42.23264114202911" lon="13.81900166443688"><ele>321.0</ele><time>2026-05-03T10:28:09.001Z</time></trkpt><trkpt lat="42.232480689578196" lon="13.819011422818221"><ele>321.0</ele><time>2026-05-03T10:28:10.001Z</time></trkpt><trkpt lat="42.23232775814157" lon="13.81901943086324"><ele>321.0</ele><time>2026-05-03T10:28:11.001Z</time></trkpt><trkpt lat="42.23217858496184" lon="13.819025073342564"><ele>321.0</ele><time>2026-05-03T10:28:12.001Z</time></trkpt><trkpt lat="42.232043261203124" lon="13.819035932651477"><ele>321.0</ele><time>2026-05-03T10:28:13.001Z</time></trkpt><trkpt lat="42.23191249853155" lon="13.81905110111323"><ele>320.75</ele><time>2026-05-03T10:28:14.001Z</time></trkpt><trkpt lat="42.23177936813348" lon="13.81907490463198"><ele>320.5</ele><time>2026-05-03T10:28:15.001Z</time></trkpt><trkpt lat="42.231642672649116" lon="13.819116217597255"><ele>320.25</ele><time>2026-05-03T10:28:16.001Z</time></trkpt><trkpt lat="42.23151541820754" lon="13.81918301430896"><ele>320.0</ele><time>2026-05-03T10:28:17.001Z</time></trkpt><trkpt lat="42.23139877537745" lon="13.81925652593621"><ele>321.25</ele><time>2026-05-03T10:28:18.001Z</time></trkpt><trkpt lat="42.23128189574519" lon="13.81933964632812"><ele>322.5</ele><time>2026-05-03T10:28:19.001Z</time></trkpt><trkpt lat="42.23115300692621" lon="13.81942391785684"><ele>323.75</ele><time>2026-05-03T10:28:20.001Z</time></trkpt><trkpt lat="42.23102726007509" lon="13.819493395972204"><ele>325.0</ele><time>2026-05-03T10:28:21.001Z</time></trkpt><trkpt lat="42.23089613646576" lon="13.819536611049926"><ele>325.0</ele><time>2026-05-03T10:28:22Z</time></trkpt><trkpt lat="42.2307435278422" lon="13.819549092628995"><ele>325.0</ele><time>2026-05-03T10:28:23Z</time></trkpt><trkpt lat="42.230583373909596" lon="13.81956220226493"><ele>325.0</ele><time>2026-05-03T10:28:24Z</time></trkpt><trkpt lat="42.230433799556096" lon="13.819583962143428"><ele>323.25</ele><time>2026-05-03T10:28:25Z</time></trkpt><trkpt lat="42.230301726131884" lon="13.819611513423839"><ele>321.5</ele><time>2026-05-03T10:28:26Z</time></trkpt><trkpt lat="42.23016838723422" lon="13.81963584581988"><ele>319.75</ele><time>2026-05-03T10:28:27Z</time></trkpt><trkpt lat="42.230028958498764" lon="13.819656069224772"><ele>318.0</ele><time>2026-05-03T10:28:28Z</time></trkpt><trkpt lat="42.22988912794088" lon="13.819658293266796"><ele>318.0</ele><time>2026-05-03T10:28:29Z</time></trkpt><trkpt lat="42.229756786218076" lon="13.819655998001316"><ele>318.0</ele><time>2026-05-03T10:28:30Z</time></trkpt><trkpt lat="42.22962047277551" lon="13.819659307379"><ele>318.0</ele><time>2026-05-03T10:28:31Z</time></trkpt><trkpt lat="42.22948091158901" lon="13.819667801534683"><ele>318.0</ele><time>2026-05-03T10:28:32Z</time></trkpt><trkpt lat="42.229345148175234" lon="13.819678599988459"><ele>318.0</ele><time>2026-05-03T10:28:33Z</time></trkpt><trkpt lat="42.22921900020072" lon="13.819693795787476"><ele>318.0</ele><time>2026-05-03T10:28:34Z</time></trkpt><trkpt lat="42.22909135879862" lon="13.81970917319142"><ele>318.0</ele><time>2026-05-03T10:28:35Z</time></trkpt><trkpt lat="42.22895756902726" lon="13.819720119880836"><ele>318.0</ele><time>2026-05-03T10:28:36Z</time></trkpt><trkpt lat="42.22882448405603" lon="13.819730451612918"><ele>319.75</ele><time>2026-05-03T10:28:37Z</time></trkpt><trkpt lat="42.228699256870144" lon="13.819734891335777"><ele>321.5</ele><time>2026-05-03T10:28:38Z</time></trkpt><trkpt lat="42.2285673773892" lon="13.819728662184184"><ele>323.25</ele><time>2026-05-03T10:28:39Z</time></trkpt><trkpt lat="42.22842784448539" lon="13.819708349755684"><ele>325.0</ele><time>2026-05-03T10:28:40Z</time></trkpt><trkpt lat="42.228289727907956" lon="13.819669080511275"><ele>325.0</ele><time>2026-05-03T10:28:41Z</time></trkpt><trkpt lat="42.228148870292124" lon="13.819617204023524"><ele>325.0</ele><time>2026-05-03T10:28:42Z</time></trkpt><trkpt lat="42.228005820326466" lon="13.819572634809003"><ele>325.0</ele><time>2026-05-03T10:28:43Z</time></trkpt><trkpt lat="42.22785801346706" lon="13.81953827027198"><ele>325.0</ele><time>2026-05-03T10:28:44Z</time></trkpt><trkpt lat="42.22769710929586" lon="13.819525863278551"><ele>325.0</ele><time>2026-05-03T10:28:45Z</time></trkpt><trkpt lat="42.2275450875536" lon="13.819529725745948"><ele>325.0</ele><time>2026-05-03T10:28:46Z</time></trkpt><trkpt lat="42.227402453237495" lon="13.819540004540746"><ele>325.0</ele><time>2026-05-03T10:28:47Z</time></trkpt><trkpt lat="42.22725714869152" lon="13.819554872388803"><ele>325.0</ele><time>2026-05-03T10:28:48Z</time></trkpt><trkpt lat="42.22711079915842" lon="13.8195814883571"><ele>324.5</ele><time>2026-05-03T10:28:49Z</time></trkpt><trkpt lat="42.2269661572333" lon="13.819627207770623"><ele>324.0</ele><time>2026-05-03T10:28:50Z</time></trkpt><trkpt lat="42.22683629356413" lon="13.819679934669994"><ele>323.5</ele><time>2026-05-03T10:28:51Z</time></trkpt><trkpt lat="42.22671760999765" lon="13.819742711906366"><ele>323.0</ele><time>2026-05-03T10:28:52Z</time></trkpt><trkpt lat="42.22660218634401" lon="13.819831852569024"><ele>323.0</ele><time>2026-05-03T10:28:53Z</time></trkpt><trkpt lat="42.226490790858975" lon="13.819943306791146"><ele>323.0</ele><time>2026-05-03T10:28:54Z</time></trkpt><trkpt lat="42.22637879266231" lon="13.820078809110738"><ele>323.0</ele><time>2026-05-03T10:28:55Z</time></trkpt><trkpt lat="42.22627078484635" lon="13.820240717508115"><ele>321.33333333333337</ele><time>2026-05-03T10:28:56Z</time></trkpt><trkpt lat="42.22616668733481" lon="13.820428285399002"><ele>319.6666666666667</ele><time>2026-05-03T10:28:57Z</time></trkpt><trkpt lat="42.22606984651213" lon="13.820621598807456"><ele>318.0</ele><time>2026-05-03T10:28:58Z</time></trkpt><trkpt lat="42.22598217694579" lon="13.820806144708127"><ele>319.3333333333333</ele><time>2026-05-03T10:28:59Z</time></trkpt><trkpt lat="42.22589836205196" lon="13.820996194123941"><ele>320.66666666666663</ele><time>2026-05-03T10:29:00Z</time></trkpt><trkpt lat="42.225795434964446" lon="13.82116694232751"><ele>322.0</ele><time>2026-05-03T10:29:01Z</time></trkpt><trkpt lat="42.22566820846389" lon="13.821290701473751"><ele>321.0</ele><time>2026-05-03T10:29:02Z</time></trkpt><trkpt lat="42.22554335261662" lon="13.821402831320256"><ele>320.0</ele><time>2026-05-03T10:29:03Z</time></trkpt><trkpt lat="42.22540551535355" lon="13.82148886132161"><ele>319.0</ele><time>2026-05-03T10:29:04Z</time></trkpt><trkpt lat="42.22525647369076" lon="13.821592840161383"><ele>319.0</ele><time>2026-05-03T10:29:05Z</time></trkpt><trkpt lat="42.22507841694437" lon="13.82162714527357"><ele>319.0</ele><time>2026-05-03T10:29:06Z</time></trkpt><trkpt lat="42.224899448267855" lon="13.821673144121945"><ele>319.0</ele><time>2026-05-03T10:29:07Z</time></trkpt><trkpt lat="42.22473480577577" lon="13.821718097787278"><ele>318.66666666666663</ele><time>2026-05-03T10:29:08Z</time></trkpt><trkpt lat="42.22457344465837" lon="13.821782583901957"><ele>318.3333333333333</ele><time>2026-05-03T10:29:09Z</time></trkpt><trkpt lat="42.224419682873126" lon="13.821882626466499"><ele>318.0</ele><time>2026-05-03T10:29:10Z</time></trkpt><trkpt lat="42.22426408646166" lon="13.82195538051415"><ele>318.6666666666667</ele><time>2026-05-03T10:29:11Z</time></trkpt><trkpt lat="42.22413095876376" lon="13.822065314354795"><ele>319.33333333333337</ele><time>2026-05-03T10:29:12Z</time></trkpt><trkpt lat="42.22400853471184" lon="13.822174600842065"><ele>320.0</ele><time>2026-05-03T10:29:13Z</time></trkpt><trkpt lat="42.22387686646223" lon="13.822297629254866"><ele>320.0</ele><time>2026-05-03T10:29:14Z</time></trkpt><trkpt lat="42.22374524913207" lon="13.822415802747601"><ele>320.0</ele><time>2026-05-03T10:29:15Z</time></trkpt><trkpt lat="42.22362104314094" lon="13.822514402411732"><ele>320.0</ele><time>2026-05-03T10:29:16Z</time></trkpt><trkpt lat="42.223496394946416" lon="13.822595310357636"><ele>320.0</ele><time>2026-05-03T10:29:17Z</time></trkpt><trkpt lat="42.223374271752256" lon="13.82265966289185"><ele>322.0</ele><time>2026-05-03T10:29:18Z</time></trkpt><trkpt lat="42.22325868348173" lon="13.822706804109997"><ele>324.0</ele><time>2026-05-03T10:29:19Z</time></trkpt><trkpt lat="42.223156593415005" lon="13.822721767632972"><ele>326.0</ele><time>2026-05-03T10:29:20Z</time></trkpt><trkpt lat="42.223053796361654" lon="13.822711410751653"><ele>328.0</ele><time>2026-05-03T10:29:21Z</time></trkpt><trkpt lat="42.22292749820859" lon="13.822686753312695"><ele>328.0</ele><time>2026-05-03T10:29:22Z</time></trkpt><trkpt lat="42.22277526079874" lon="13.82265212464227"><ele>328.0</ele><time>2026-05-03T10:29:23Z</time></trkpt><trkpt lat="42.22261901579131" lon="13.822612141122818"><ele>328.0</ele><time>2026-05-03T10:29:24Z</time></trkpt><trkpt lat="42.222444971273845" lon="13.82256858540949"><ele>327.3333333333333</ele><time>2026-05-03T10:29:25Z</time></trkpt><trkpt lat="42.22227182070293" lon="13.822524182331081"><ele>326.6666666666667</ele><time>2026-05-03T10:29:26Z</time></trkpt><trkpt lat="42.22212341508175" lon="13.822479114141016"><ele>326.0</ele><time>2026-05-03T10:29:27Z</time></trkpt><trkpt lat="42.22198662234461" lon="13.82242908824483"><ele>326.0</ele><time>2026-05-03T10:29:28Z</time></trkpt><trkpt lat="42.22185628764981" lon="13.822380361125905"><ele>326.0</ele><time>2026-05-03T10:29:29Z</time></trkpt><trkpt lat="42.22172803402212" lon="13.822329074113302"><ele>326.0</ele><time>2026-05-03T10:29:30Z</time></trkpt><trkpt lat="42.2216108317602" lon="13.822283836186521"><ele>326.0</ele><time>2026-05-03T10:29:31Z</time></trkpt><trkpt lat="42.22148978193475" lon="13.822250892858362"><ele>326.75</ele><time>2026-05-03T10:29:32Z</time></trkpt><trkpt lat="42.22135559022796" lon="13.822247829032074"><ele>327.5</ele><time>2026-05-03T10:29:33Z</time></trkpt><trkpt lat="42.22122787073494" lon="13.822226762990821"><ele>328.25</ele><time>2026-05-03T10:29:34Z</time></trkpt><trkpt lat="42.221104970309824" lon="13.822220954705058"><ele>329.0</ele><time>2026-05-03T10:29:35Z</time></trkpt><trkpt lat="42.2209843139005" lon="13.822221779555862"><ele>329.0</ele><time>2026-05-03T10:29:36Z</time></trkpt><trkpt lat="42.220858585448056" lon="13.82223556610563"><ele>329.0</ele><time>2026-05-03T10:29:37Z</time></trkpt><trkpt lat="42.22074372339768" lon="13.822279912604577"><ele>329.0</ele><time>2026-05-03T10:29:38Z</time></trkpt><trkpt lat="42.22063805560159" lon="13.822373137713292"><ele>329.0</ele><time>2026-05-03T10:29:39Z</time></trkpt><trkpt lat="42.220543325124055" lon="13.822500868736476"><ele>327.75</ele><time>2026-05-03T10:29:40Z</time></trkpt><trkpt lat="42.220446183294776" lon="13.822645428251816"><ele>326.5</ele><time>2026-05-03T10:29:41Z</time></trkpt><trkpt lat="42.220333030590005" lon="13.822778304617504"><ele>325.25</ele><time>2026-05-03T10:29:42Z</time></trkpt><trkpt lat="42.22023486191945" lon="13.822905115804192"><ele>324.0</ele><time>2026-05-03T10:29:43Z</time></trkpt><trkpt lat="42.22013383538034" lon="13.823021328773699"><ele>324.0</ele><time>2026-05-03T10:29:44Z</time></trkpt><trkpt lat="42.22002414267644" lon="13.823122603148827"><ele>324.0</ele><time>2026-05-03T10:29:45Z</time></trkpt><trkpt lat="42.219922530650415" lon="13.823237357418167"><ele>324.0</ele><time>2026-05-03T10:29:46Z</time></trkpt><trkpt lat="42.21983032424668" lon="13.823353617423836"><ele>324.0</ele><time>2026-05-03T10:29:47Z</time></trkpt><trkpt lat="42.219752797139826" lon="13.823482645820487"><ele>323.25</ele><time>2026-05-03T10:29:48Z</time></trkpt><trkpt lat="42.21965453553289" lon="13.823586499997036"><ele>322.5</ele><time>2026-05-03T10:29:49Z</time></trkpt><trkpt lat="42.2195471932891" lon="13.823699765968685"><ele>321.75</ele><time>2026-05-03T10:29:50Z</time></trkpt><trkpt lat="42.2194114239022" lon="13.823790231436476"><ele>321.0</ele><time>2026-05-03T10:29:51Z</time></trkpt><trkpt lat="42.219254259159676" lon="13.823839943293098"><ele>321.0</ele><time>2026-05-03T10:29:52Z</time></trkpt><trkpt lat="42.2191107543215" lon="13.82390480393027"><ele>321.0</ele><time>2026-05-03T10:29:53Z</time></trkpt><trkpt lat="42.21897785542769" lon="13.823969781749105"><ele>321.0</ele><time>2026-05-03T10:29:54Z</time></trkpt><trkpt lat="42.21885443385839" lon="13.824033984272386"><ele>321.0</ele><time>2026-05-03T10:29:55Z</time></trkpt><trkpt lat="42.218736603161105" lon="13.824092523803074"><ele>321.25</ele><time>2026-05-03T10:29:56Z</time></trkpt><trkpt lat="42.21862730704168" lon="13.824144989118246"><ele>321.5</ele><time>2026-05-03T10:29:57Z</time></trkpt><trkpt lat="42.21851447524418" lon="13.8241948482974"><ele>321.75</ele><time>2026-05-03T10:29:58Z</time></trkpt><trkpt lat="42.21839074633904" lon="13.824246487723613"><ele>322.0</ele><time>2026-05-03T10:29:59Z</time></trkpt><trkpt lat="42.218272097268745" lon="13.824294843190442"><ele>322.40000000000003</ele><time>2026-05-03T10:30:00Z</time></trkpt><trkpt lat="42.218171348155" lon="13.824335073677373"><ele>322.8</ele><time>2026-05-03T10:30:01Z</time></trkpt><trkpt lat="42.21808090746008" lon="13.82437016273133"><ele>323.2</ele><time>2026-05-03T10:30:02Z</time></trkpt><trkpt lat="42.21799872246018" lon="13.824421851692271"><ele>323.6</ele><time>2026-05-03T10:30:03Z</time></trkpt><trkpt lat="42.217909472118585" lon="13.824430535072063"><ele>324.0</ele><time>2026-05-03T10:30:04Z</time></trkpt><trkpt lat="42.21782648664055" lon="13.824465523489074"><ele>324.0</ele><time>2026-05-03T10:30:05Z</time></trkpt><trkpt lat="42.21775095798762" lon="13.824526742339199"><ele>324.0</ele><time>2026-05-03T10:30:06Z</time></trkpt><trkpt lat="42.21767129426803" lon="13.824568803166287"><ele>324.0</ele><time>2026-05-03T10:30:07Z</time></trkpt><trkpt lat="42.21758960376928" lon="13.82461370095943"><ele>324.0</ele><time>2026-05-03T10:30:08Z</time></trkpt><trkpt lat="42.21750205416755" lon="13.824666736252022"><ele>324.0</ele><time>2026-05-03T10:30:09Z</time></trkpt><trkpt lat="42.21742284003178" lon="13.824722031264473"><ele>324.0</ele><time>2026-05-03T10:30:10Z</time></trkpt><trkpt lat="42.21735554529776" lon="13.824765229240688"><ele>323.6</ele><time>2026-05-03T10:30:11Z</time></trkpt><trkpt lat="42.217255170541634" lon="13.82483554412575"><ele>323.2</ele><time>2026-05-03T10:30:13Z</time></trkpt><trkpt lat="42.21717854792212" lon="13.82487719521803"><ele>322.8</ele><time>2026-05-03T10:30:15Z</time></trkpt><trkpt lat="42.217110975433414" lon="13.82491824137961"><ele>322.40000000000003</ele><time>2026-05-03T10:30:17Z</time></trkpt><trkpt lat="42.217016073288605" lon="13.824927588568842"><ele>322.0</ele><time>2026-05-03T10:30:19Z</time></trkpt><trkpt lat="42.21697578684859" lon="13.824779795744575"><ele>322.0</ele><time>2026-05-03T10:30:20Z</time></trkpt><trkpt lat="42.21692421708562" lon="13.824655963606412"><ele>322.0</ele><time>2026-05-03T10:30:21Z</time></trkpt><trkpt lat="42.21685746942101" lon="13.82454376851532"><ele>322.0</ele><time>2026-05-03T10:30:22Z</time></trkpt><trkpt lat="42.21681121471674" lon="13.824412969387964"><ele>322.0</ele><time>2026-05-03T10:30:23Z</time></trkpt><trkpt lat="42.2167655599548" lon="13.824283142053748"><ele>322.0</ele><time>2026-05-03T10:30:24Z</time></trkpt><trkpt lat="42.216716923191555" lon="13.824168783485655"><ele>321.40000000000003</ele><time>2026-05-03T10:30:25Z</time></trkpt><trkpt lat="42.216671253961124" lon="13.824061402451283"><ele>320.8</ele><time>2026-05-03T10:30:26Z</time></trkpt><trkpt lat="42.21661666494667" lon="13.823963725500434"><ele>320.2</ele><time>2026-05-03T10:30:27Z</time></trkpt><trkpt lat="42.21656585975537" lon="13.823846600645197"><ele>319.6</ele><time>2026-05-03T10:30:28Z</time></trkpt><trkpt lat="42.21651810909385" lon="13.823730187813684"><ele>319.0</ele><time>2026-05-03T10:30:29Z</time></trkpt><trkpt lat="42.216474733395565" lon="13.823620850552432"><ele>318.0</ele><time>2026-05-03T10:30:30Z</time></trkpt><trkpt lat="42.2164238155451" lon="13.823499160961283"><ele>317.0</ele><time>2026-05-03T10:30:31Z</time></trkpt><trkpt lat="42.216374605315764" lon="13.823384192081281"><ele>316.0</ele><time>2026-05-03T10:30:32Z</time></trkpt><trkpt lat="42.216329748682234" lon="13.823278678782975"><ele>315.0</ele><time>2026-05-03T10:30:33Z</time></trkpt><trkpt lat="42.216283481354665" lon="13.823167503491185"><ele>314.0</ele><time>2026-05-03T10:30:34Z</time></trkpt><trkpt lat="42.216239123653324" lon="13.823051208266978"><ele>313.83333333333337</ele><time>2026-05-03T10:30:35Z</time></trkpt><trkpt lat="42.216194199493366" lon="13.822940760599918"><ele>313.6666666666667</ele><time>2026-05-03T10:30:36Z</time></trkpt><trkpt lat="42.21615072824348" lon="13.822841609430393"><ele>313.5</ele><time>2026-05-03T10:30:37Z</time></trkpt><trkpt lat="42.21611163122348" lon="13.822741448999663"><ele>313.3333333333333</ele><time>2026-05-03T10:30:38Z</time></trkpt><trkpt lat="42.21606594943568" lon="13.822654701153171"><ele>313.16666666666663</ele><time>2026-05-03T10:30:39Z</time></trkpt><trkpt lat="42.21602694208919" lon="13.822539638561977"><ele>313.0</ele><time>2026-05-03T10:30:40Z</time></trkpt><trkpt lat="42.21596034465953" lon="13.822456981118956"><ele>313.4</ele><time>2026-05-03T10:30:41Z</time></trkpt><trkpt lat="42.215902617312246" lon="13.822368716015408"><ele>313.8</ele><time>2026-05-03T10:30:42Z</time></trkpt><trkpt lat="42.21582333728659" lon="13.82231077725704"><ele>314.2</ele><time>2026-05-03T10:30:43Z</time></trkpt><trkpt lat="42.21572290963196" lon="13.822292094722384"><ele>314.6</ele><time>2026-05-03T10:30:44Z</time></trkpt><trkpt lat="42.2156116463105" lon="13.822288978203602"><ele>315.0</ele><time>2026-05-03T10:30:45Z</time></trkpt><trkpt lat="42.215497236855086" lon="13.822307729759151"><ele>315.5</ele><time>2026-05-03T10:30:46Z</time></trkpt><trkpt lat="42.21538045592878" lon="13.822349393399236"><ele>316.0</ele><time>2026-05-03T10:30:47Z</time></trkpt><trkpt lat="42.215272932354814" lon="13.822417324452648"><ele>316.5</ele><time>2026-05-03T10:30:48Z</time></trkpt><trkpt lat="42.215177464061796" lon="13.822495758072886"><ele>317.0</ele><time>2026-05-03T10:30:49Z</time></trkpt><trkpt lat="42.2150682178737" lon="13.822536066790393"><ele>317.0</ele><time>2026-05-03T10:30:50Z</time></trkpt><trkpt lat="42.21495181410318" lon="13.822603045365062"><ele>317.0</ele><time>2026-05-03T10:30:51Z</time></trkpt><trkpt lat="42.21484603976469" lon="13.822686882161587"><ele>317.0</ele><time>2026-05-03T10:30:52Z</time></trkpt><trkpt lat="42.21474318157495" lon="13.822735960682703"><ele>317.0</ele><time>2026-05-03T10:30:53Z</time></trkpt><trkpt lat="42.214644131187335" lon="13.822784922298807"><ele>317.0</ele><time>2026-05-03T10:30:54Z</time></trkpt><trkpt lat="42.21454143267354" lon="13.822808886667636"><ele>317.0</ele><time>2026-05-03T10:30:55Z</time></trkpt><trkpt lat="42.2144413978206" lon="13.822804626825343"><ele>317.0</ele><time>2026-05-03T10:30:56Z</time></trkpt><trkpt lat="42.21436166863759" lon="13.822730966436922"><ele>317.0</ele><time>2026-05-03T10:30:57Z</time></trkpt><trkpt lat="42.21430274762768" lon="13.822645073006626"><ele>317.0</ele><time>2026-05-03T10:30:58Z</time></trkpt><trkpt lat="42.214220260503964" lon="13.82260140951637"><ele>317.0</ele><time>2026-05-03T10:30:59Z</time></trkpt><trkpt lat="42.214170215727925" lon="13.82251478039301"><ele>317.0</ele><time>2026-05-03T10:31:00Z</time></trkpt><trkpt lat="42.21413648251053" lon="13.82244181123454"><ele>317.0</ele><time>2026-05-03T10:31:01Z</time></trkpt><trkpt lat="42.214101489715716" lon="13.822371134054439"><ele>317.0</ele><time>2026-05-03T10:31:02Z</time></trkpt><trkpt lat="42.214059074256866" lon="13.82227638787857"><ele>317.0</ele><time>2026-05-03T10:31:04Z</time></trkpt><trkpt lat="42.21405437356045" lon="13.822187827769902"><ele>317.0</ele><time>2026-05-03T10:31:08Z</time></trkpt><trkpt lat="42.2140246948526" lon="13.822087319603295"><ele>317.0</ele><time>2026-05-03T10:31:17Z</time></trkpt><trkpt lat="42.2139366316541" lon="13.822260981680927"><ele>317.0</ele><time>2026-05-03T10:31:18Z</time></trkpt><trkpt lat="42.21387307981608" lon="13.822276420765924"><ele>317.0</ele><time>2026-05-03T10:31:19Z</time></trkpt><trkpt lat="42.21379901677849" lon="13.822082578573763"><ele>317.0</ele><time>2026-05-03T10:31:20Z</time></trkpt><trkpt lat="42.21370987204263" lon="13.822109682661067"><ele>317.0</ele><time>2026-05-03T10:31:23Z</time></trkpt><trkpt lat="42.21362834632765" lon="13.822134277167914"><ele>317.0</ele><time>2026-05-03T10:31:26Z</time></trkpt><trkpt lat="42.21353323176333" lon="13.822162971128558"><ele>317.0</ele><time>2026-05-03T10:31:29Z</time></trkpt><trkpt lat="42.213424955258795" lon="13.822196963396932"><ele>317.0</ele><time>2026-05-03T10:31:31Z</time></trkpt><trkpt lat="42.21334505758372" lon="13.822222745704737"><ele>317.0</ele><time>2026-05-03T10:31:32Z</time></trkpt><trkpt lat="42.21327546384797" lon="13.82224520943146"><ele>317.0</ele><time>2026-05-03T10:31:33Z</time></trkpt><trkpt lat="42.213218718361986" lon="13.822286024100345"><ele>317.0</ele><time>2026-05-03T10:31:34Z</time></trkpt><trkpt lat="42.21312058750612" lon="13.822272255884942"><ele>317.0</ele><time>2026-05-03T10:31:36Z</time></trkpt><trkpt lat="42.2131345808325" lon="13.822028826682631"><ele>317.2</ele><time>2026-05-03T10:31:38Z</time></trkpt><trkpt lat="42.21314642828972" lon="13.821906177686397"><ele>317.4</ele><time>2026-05-03T10:31:39Z</time></trkpt><trkpt lat="42.21315909188481" lon="13.821775080026542"><ele>317.6</ele><time>2026-05-03T10:31:40Z</time></trkpt><trkpt lat="42.2131728596305" lon="13.8216474823379"><ele>317.8</ele><time>2026-05-03T10:31:41Z</time></trkpt><trkpt lat="42.213183706541315" lon="13.821528380923326"><ele>318.0</ele><time>2026-05-03T10:31:42Z</time></trkpt><trkpt lat="42.21319552462284" lon="13.821403447015152"><ele>318.0</ele><time>2026-05-03T10:31:43Z</time></trkpt><trkpt lat="42.213196119386396" lon="13.821267367744529"><ele>318.0</ele><time>2026-05-03T10:31:44Z</time></trkpt><trkpt lat="42.213209293227116" lon="13.821142334961205"><ele>318.0</ele><time>2026-05-03T10:31:45Z</time></trkpt><trkpt lat="42.21322166537349" lon="13.82100248550843"><ele>318.0</ele><time>2026-05-03T10:31:46Z</time></trkpt><trkpt lat="42.21321992720882" lon="13.82083786769595"><ele>318.0</ele><time>2026-05-03T10:31:47Z</time></trkpt><trkpt lat="42.21320114566208" lon="13.820681695762762"><ele>317.4</ele><time>2026-05-03T10:31:48Z</time></trkpt><trkpt lat="42.21318615996855" lon="13.820539391818834"><ele>316.8</ele><time>2026-05-03T10:31:49Z</time></trkpt><trkpt lat="42.21317254542957" lon="13.820391612681144"><ele>316.2</ele><time>2026-05-03T10:31:50Z</time></trkpt><trkpt lat="42.21316233718064" lon="13.820275029341596"><ele>315.6</ele><time>2026-05-03T10:31:51Z</time></trkpt><trkpt lat="42.21318141548217" lon="13.820160504260322"><ele>315.0</ele><time>2026-05-03T10:31:52Z</time></trkpt><trkpt lat="42.21324819561513" lon="13.82006412766912"><ele>315.0</ele><time>2026-05-03T10:31:53Z</time></trkpt><trkpt lat="42.2133243972807" lon="13.819992505252122"><ele>315.0</ele><time>2026-05-03T10:31:54Z</time></trkpt><trkpt lat="42.21342237869202" lon="13.819986030821276"><ele>315.0</ele><time>2026-05-03T10:31:55Z</time></trkpt><trkpt lat="42.21351681951654" lon="13.820040295673087"><ele>315.0</ele><time>2026-05-03T10:31:56Z</time></trkpt><trkpt lat="42.21357251543736" lon="13.820141939379234"><ele>315.0</ele><time>2026-05-03T10:31:57Z</time></trkpt><trkpt lat="42.21360548327802" lon="13.820232044319681"><ele>315.0</ele><time>2026-05-03T10:31:58Z</time></trkpt><trkpt lat="42.21359725850335" lon="13.820340513752987"><ele>315.0</ele><time>2026-05-03T10:31:59Z</time></trkpt><trkpt lat="42.21349208456658" lon="13.82050918334422"><ele>315.0</ele><time>2026-05-03T10:32:01Z</time></trkpt><trkpt lat="42.2133781553862" lon="13.820585282788054"><ele>315.0</ele><time>2026-05-03T10:32:02Z</time></trkpt><trkpt lat="42.21326624037276" lon="13.820649744240448"><ele>314.6666666666667</ele><time>2026-05-03T10:32:03Z</time></trkpt><trkpt lat="42.213145005166105" lon="13.8207394479619"><ele>314.33333333333337</ele><time>2026-05-03T10:32:04Z</time></trkpt><trkpt lat="42.21301131349716" lon="13.82084085890947"><ele>314.0</ele><time>2026-05-03T10:32:05Z</time></trkpt><trkpt lat="42.21286281169801" lon="13.820939738727267"><ele>314.33333333333337</ele><time>2026-05-03T10:32:06Z</time></trkpt><trkpt lat="42.212697896608866" lon="13.821048118069704"><ele>314.6666666666667</ele><time>2026-05-03T10:32:07Z</time></trkpt><trkpt lat="42.21251945555835" lon="13.821169824431987"><ele>315.0</ele><time>2026-05-03T10:32:08Z</time></trkpt><trkpt lat="42.21232713872763" lon="13.821294025579485"><ele>315.5</ele><time>2026-05-03T10:32:09Z</time></trkpt><trkpt lat="42.21212484873003" lon="13.821427436309547"><ele>316.0</ele><time>2026-05-03T10:32:10Z</time></trkpt><trkpt lat="42.21192089651203" lon="13.821559169257874"><ele>316.0</ele><time>2026-05-03T10:32:11Z</time></trkpt><trkpt lat="42.211732730511" lon="13.821680997751368"><ele>316.0</ele><time>2026-05-03T10:32:12Z</time></trkpt><trkpt lat="42.21155691930179" lon="13.821792475297853"><ele>316.0</ele><time>2026-05-03T10:32:13Z</time></trkpt><trkpt lat="42.21138156289317" lon="13.821904375478356"><ele>314.66666666666663</ele><time>2026-05-03T10:32:14Z</time></trkpt><trkpt lat="42.211202589372846" lon="13.822023877907979"><ele>313.3333333333333</ele><time>2026-05-03T10:32:15Z</time></trkpt><trkpt lat="42.211024203599585" lon="13.822139196944798"><ele>312.0</ele><time>2026-05-03T10:32:16Z</time></trkpt><trkpt lat="42.21084663838074" lon="13.822253648679109"><ele>312.0</ele><time>2026-05-03T10:32:17Z</time></trkpt><trkpt lat="42.21067513018494" lon="13.822363296955988"><ele>312.0</ele><time>2026-05-03T10:32:18Z</time></trkpt><trkpt lat="42.21050451813221" lon="13.822473348591583"><ele>312.0</ele><time>2026-05-03T10:32:19.001Z</time></trkpt><trkpt lat="42.21033677476723" lon="13.82257981776112"><ele>311.6666666666667</ele><time>2026-05-03T10:32:20.001Z</time></trkpt><trkpt lat="42.21017674683356" lon="13.822681882347169"><ele>311.33333333333337</ele><time>2026-05-03T10:32:21.001Z</time></trkpt><trkpt lat="42.21002145697449" lon="13.822783578738884"><ele>311.0</ele><time>2026-05-03T10:32:22.001Z</time></trkpt><trkpt lat="42.20987239437606" lon="13.82288278667542"><ele>313.0</ele><time>2026-05-03T10:32:23.001Z</time></trkpt><trkpt lat="42.20972132364014" lon="13.822976176815992"><ele>315.0</ele><time>2026-05-03T10:32:24.001Z</time></trkpt><trkpt lat="42.20955671622599" lon="13.823081333215201"><ele>317.0</ele><time>2026-05-03T10:32:25.001Z</time></trkpt><trkpt lat="42.20940597622964" lon="13.823180980474207"><ele>317.0</ele><time>2026-05-03T10:32:26.001Z</time></trkpt><trkpt lat="42.20925555520094" lon="13.823286246409573"><ele>317.0</ele><time>2026-05-03T10:32:27.001Z</time></trkpt><trkpt lat="42.20910968968512" lon="13.82339033507726"><ele>317.0</ele><time>2026-05-03T10:32:28.001Z</time></trkpt><trkpt lat="42.2089690198103" lon="13.82349781136165"><ele>317.6666666666667</ele><time>2026-05-03T10:32:29.001Z</time></trkpt><trkpt lat="42.208834137974705" lon="13.823612696741456"><ele>318.3333333333333</ele><time>2026-05-03T10:32:30.001Z</time></trkpt><trkpt lat="42.208699595935194" lon="13.823734536355925"><ele>319.0</ele><time>2026-05-03T10:32:31.001Z</time></trkpt><trkpt lat="42.2085627380908" lon="13.823867989062839"><ele>319.0</ele><time>2026-05-03T10:32:32.001Z</time></trkpt><trkpt lat="42.20842254520506" lon="13.824012485440075"><ele>319.0</ele><time>2026-05-03T10:32:33.001Z</time></trkpt><trkpt lat="42.208280239548536" lon="13.82416590177069"><ele>319.0</ele><time>2026-05-03T10:32:34Z</time></trkpt><trkpt lat="42.20813571133925" lon="13.824334951746224"><ele>322.3333333333333</ele><time>2026-05-03T10:32:35Z</time></trkpt><trkpt lat="42.208003087947475" lon="13.824513194708796"><ele>325.6666666666667</ele><time>2026-05-03T10:32:36Z</time></trkpt><trkpt lat="42.207881711495865" lon="13.824690205863863"><ele>329.0</ele><time>2026-05-03T10:32:37Z</time></trkpt><trkpt lat="42.20774566815404" lon="13.824904760092013"><ele>329.0</ele><time>2026-05-03T10:32:38Z</time></trkpt><trkpt lat="42.20761993725208" lon="13.825137909661688"><ele>329.0</ele><time>2026-05-03T10:32:39Z</time></trkpt><trkpt lat="42.20750577761043" lon="13.825365672432262"><ele>329.0</ele><time>2026-05-03T10:32:40Z</time></trkpt><trkpt lat="42.20739671622754" lon="13.825586118169019"><ele>332.6666666666667</ele><time>2026-05-03T10:32:41Z</time></trkpt><trkpt lat="42.20728972425856" lon="13.825799294069506"><ele>336.3333333333333</ele><time>2026-05-03T10:32:42Z</time></trkpt><trkpt lat="42.2071756602775" lon="13.826000559079008"><ele>340.0</ele><time>2026-05-03T10:32:43Z</time></trkpt><trkpt lat="42.20704862966826" lon="13.82619894172377"><ele>331.0</ele><time>2026-05-03T10:32:44Z</time></trkpt><trkpt lat="42.20690728600113" lon="13.82639432408901"><ele>322.0</ele><time>2026-05-03T10:32:45Z</time></trkpt><trkpt lat="42.206759686331395" lon="13.826579451392512"><ele>313.0</ele><time>2026-05-03T10:32:46Z</time></trkpt><trkpt lat="42.206611329385346" lon="13.826755470201174"><ele>316.66666666666663</ele><time>2026-05-03T10:32:47Z</time></trkpt><trkpt lat="42.20646346173893" lon="13.826938596646706"><ele>320.3333333333333</ele><time>2026-05-03T10:32:48Z</time></trkpt><trkpt lat="42.20632895697738" lon="13.827128234965052"><ele>324.0</ele><time>2026-05-03T10:32:49Z</time></trkpt><trkpt lat="42.206208943410566" lon="13.827328390294955"><ele>324.0</ele><time>2026-05-03T10:32:50Z</time></trkpt><trkpt lat="42.20610397366711" lon="13.827543289355676"><ele>324.0</ele><time>2026-05-03T10:32:51Z</time></trkpt><trkpt lat="42.20601019411219" lon="13.827778086228355"><ele>324.0</ele><time>2026-05-03T10:32:52Z</time></trkpt><trkpt lat="42.20592587965867" lon="13.828032657496829"><ele>314.5</ele><time>2026-05-03T10:32:53Z</time></trkpt><trkpt lat="42.205854196071705" lon="13.82830778879138"><ele>305.0</ele><time>2026-05-03T10:32:54Z</time></trkpt><trkpt lat="42.20579164341743" lon="13.828614723760337"><ele>300.0</ele><time>2026-05-03T10:32:55Z</time></trkpt><trkpt lat="42.205741238436495" lon="13.828955180734331"><ele>295.0</ele><time>2026-05-03T10:32:56Z</time></trkpt><trkpt lat="42.205677045055126" lon="13.829319132403409"><ele>304.5</ele><time>2026-05-03T10:32:57Z</time></trkpt><trkpt lat="42.20561083411967" lon="13.829701767711791"><ele>314.0</ele><time>2026-05-03T10:32:58Z</time></trkpt><trkpt lat="42.20556960949835" lon="13.830033756739633"><ele>309.0</ele><time>2026-05-03T10:32:59Z</time></trkpt><trkpt lat="42.20550847938889" lon="13.83036714466442"><ele>304.0</ele><time>2026-05-03T10:33:00Z</time></trkpt><trkpt lat="42.2054472605099" lon="13.830702553451287"><ele>300.0</ele><time>2026-05-03T10:33:01Z</time></trkpt><trkpt lat="42.205381580259726" lon="13.83103854577527"><ele>296.0</ele><time>2026-05-03T10:33:02Z</time></trkpt><trkpt lat="42.205314849828845" lon="13.831366250357856"><ele>296.0</ele><time>2026-05-03T10:33:03Z</time></trkpt><trkpt lat="42.205246713538415" lon="13.831673935097854"><ele>296.0</ele><time>2026-05-03T10:33:04Z</time></trkpt><trkpt lat="42.20517193613358" lon="13.83197465733864"><ele>291.33333333333337</ele><time>2026-05-03T10:33:05Z</time></trkpt><trkpt lat="42.2050837813544" lon="13.832256880811018"><ele>286.6666666666667</ele><time>2026-05-03T10:33:06Z</time></trkpt><trkpt lat="42.20498544665514" lon="13.832523247880568"><ele>282.0</ele><time>2026-05-03T10:33:07Z</time></trkpt><trkpt lat="42.20488077099577" lon="13.832781700891935"><ele>282.0</ele><time>2026-05-03T10:33:08Z</time></trkpt><trkpt lat="42.20478037827599" lon="13.83303046176574"><ele>282.0</ele><time>2026-05-03T10:33:09Z</time></trkpt><trkpt lat="42.20467835328611" lon="13.833287425850738"><ele>282.0</ele><time>2026-05-03T10:33:10Z</time></trkpt><trkpt lat="42.20457531550233" lon="13.833554176029562"><ele>282.0</ele><time>2026-05-03T10:33:11Z</time></trkpt><trkpt lat="42.20447075035285" lon="13.833818018414105"><ele>282.0</ele><time>2026-05-03T10:33:12Z</time></trkpt><trkpt lat="42.204372838308196" lon="13.834078372143416"><ele>282.0</ele><time>2026-05-03T10:33:13Z</time></trkpt><trkpt lat="42.20427053861795" lon="13.834345803848228"><ele>274.5</ele><time>2026-05-03T10:33:14Z</time></trkpt><trkpt lat="42.20416522308121" lon="13.834616290876697"><ele>267.0</ele><time>2026-05-03T10:33:15Z</time></trkpt><trkpt lat="42.20405802146977" lon="13.834887617921627"><ele>269.6666666666667</ele><time>2026-05-03T10:33:16Z</time></trkpt><trkpt lat="42.20395855052952" lon="13.835136080207494"><ele>272.33333333333337</ele><time>2026-05-03T10:33:17Z</time></trkpt><trkpt lat="42.20385770433818" lon="13.835378465167075"><ele>275.0</ele><time>2026-05-03T10:33:18Z</time></trkpt><trkpt lat="42.2037567245608" lon="13.83560729250024"><ele>275.0</ele><time>2026-05-03T10:33:19Z</time></trkpt><trkpt lat="42.20364672481138" lon="13.835826053470358"><ele>275.0</ele><time>2026-05-03T10:33:20Z</time></trkpt><trkpt lat="42.20352354428753" lon="13.836030176137879"><ele>275.0</ele><time>2026-05-03T10:33:21Z</time></trkpt><trkpt lat="42.2033857923843" lon="13.836221818407425"><ele>271.33333333333337</ele><time>2026-05-03T10:33:22Z</time></trkpt><trkpt lat="42.20323630216314" lon="13.836401563041193"><ele>267.6666666666667</ele><time>2026-05-03T10:33:23Z</time></trkpt><trkpt lat="42.2030785947386" lon="13.83656108698596"><ele>264.0</ele><time>2026-05-03T10:33:24Z</time></trkpt><trkpt lat="42.20291937065996" lon="13.836699444417043"><ele>260.6666666666667</ele><time>2026-05-03T10:33:25Z</time></trkpt><trkpt lat="42.20273812504898" lon="13.83684033416232"><ele>257.33333333333337</ele><time>2026-05-03T10:33:26Z</time></trkpt><trkpt lat="42.202541829597834" lon="13.836964783881667"><ele>254.0</ele><time>2026-05-03T10:33:27Z</time></trkpt><trkpt lat="42.20233970827864" lon="13.837070984189065"><ele>254.0</ele><time>2026-05-03T10:33:28Z</time></trkpt><trkpt lat="42.20212473264887" lon="13.837160390312416"><ele>254.0</ele><time>2026-05-03T10:33:29Z</time></trkpt><trkpt lat="42.20189598768226" lon="13.837229794131499"><ele>254.0</ele><time>2026-05-03T10:33:30Z</time></trkpt><trkpt lat="42.20165998035056" lon="13.837263386710225"><ele>254.0</ele><time>2026-05-03T10:33:31Z</time></trkpt><trkpt lat="42.201431729724604" lon="13.83729493635501"><ele>255.5</ele><time>2026-05-03T10:33:32Z</time></trkpt><trkpt lat="42.20120554722242" lon="13.837342281277028"><ele>257.0</ele><time>2026-05-03T10:33:33Z</time></trkpt><trkpt lat="42.2009764827991" lon="13.837370300115136"><ele>257.0</ele><time>2026-05-03T10:33:34Z</time></trkpt><trkpt lat="42.200746932239845" lon="13.837405940188296"><ele>257.0</ele><time>2026-05-03T10:33:35Z</time></trkpt><trkpt lat="42.20052006476948" lon="13.837447439281977"><ele>259.0</ele><time>2026-05-03T10:33:36Z</time></trkpt><trkpt lat="42.20029529169953" lon="13.837480528622871"><ele>261.0</ele><time>2026-05-03T10:33:37Z</time></trkpt><trkpt lat="42.20008514480752" lon="13.83750487417226"><ele>263.0</ele><time>2026-05-03T10:33:38Z</time></trkpt><trkpt lat="42.1998800980922" lon="13.837532569201239"><ele>265.0</ele><time>2026-05-03T10:33:39Z</time></trkpt><trkpt lat="42.1996837000356" lon="13.837563827327926"><ele>267.0</ele><time>2026-05-03T10:33:40Z</time></trkpt><trkpt lat="42.19949841863088" lon="13.837595198187822"><ele>269.0</ele><time>2026-05-03T10:33:41Z</time></trkpt><trkpt lat="42.199314140193856" lon="13.837620089651969"><ele>269.0</ele><time>2026-05-03T10:33:42Z</time></trkpt><trkpt lat="42.19913848852679" lon="13.837627665726165"><ele>269.0</ele><time>2026-05-03T10:33:43Z</time></trkpt><trkpt lat="42.19895797373334" lon="13.837609469724764"><ele>269.0</ele><time>2026-05-03T10:33:44Z</time></trkpt><trkpt lat="42.198771348611764" lon="13.837568463808914"><ele>268.0</ele><time>2026-05-03T10:33:45Z</time></trkpt><trkpt lat="42.19857929695106" lon="13.837508584145848"><ele>267.0</ele><time>2026-05-03T10:33:46Z</time></trkpt><trkpt lat="42.198389041414536" lon="13.837458179668062"><ele>266.0</ele><time>2026-05-03T10:33:47Z</time></trkpt><trkpt lat="42.198188388575154" lon="13.83743935105217"><ele>265.33333333333337</ele><time>2026-05-03T10:33:48Z</time></trkpt><trkpt lat="42.197984303922524" lon="13.83743603757044"><ele>264.6666666666667</ele><time>2026-05-03T10:33:49Z</time></trkpt><trkpt lat="42.19778333604586" lon="13.837405438280603"><ele>264.0</ele><time>2026-05-03T10:33:50Z</time></trkpt><trkpt lat="42.197583150354085" lon="13.837390388674368"><ele>264.0</ele><time>2026-05-03T10:33:51Z</time></trkpt><trkpt lat="42.19737431211498" lon="13.837631931794844"><ele>264.0</ele><time>2026-05-03T10:33:52Z</time></trkpt><trkpt lat="42.197166332966596" lon="13.837746043200077"><ele>265.6666666666667</ele><time>2026-05-03T10:33:53Z</time></trkpt><trkpt lat="42.19696577421098" lon="13.83789252901982"><ele>267.33333333333337</ele><time>2026-05-03T10:33:54Z</time></trkpt><trkpt lat="42.19678361730494" lon="13.838058926319313"><ele>269.0</ele><time>2026-05-03T10:33:55Z</time></trkpt><trkpt lat="42.196617771265245" lon="13.838256501880652"><ele>283.0</ele><time>2026-05-03T10:33:56Z</time></trkpt><trkpt lat="42.19646213347237" lon="13.838476106863318"><ele>297.0</ele><time>2026-05-03T10:33:57Z</time></trkpt><trkpt lat="42.19632273245518" lon="13.838714126196743"><ele>297.0</ele><time>2026-05-03T10:33:58Z</time></trkpt><trkpt lat="42.196209156482844" lon="13.838981233022892"><ele>297.0</ele><time>2026-05-03T10:33:59Z</time></trkpt><trkpt lat="42.19611624623625" lon="13.839274636646826"><ele>289.0</ele><time>2026-05-03T10:34:00Z</time></trkpt><trkpt lat="42.19604632310329" lon="13.839576734583323"><ele>281.0</ele><time>2026-05-03T10:34:01Z</time></trkpt><trkpt lat="42.19600203541262" lon="13.839888489526734"><ele>278.0</ele><time>2026-05-03T10:34:02Z</time></trkpt><trkpt lat="42.19597861278773" lon="13.84020315535453"><ele>275.0</ele><time>2026-05-03T10:34:03Z</time></trkpt><trkpt lat="42.195977805874264" lon="13.840502233530515"><ele>275.0</ele><time>2026-05-03T10:34:04Z</time></trkpt><trkpt lat="42.19597312680017" lon="13.840800567039597"><ele>275.0</ele><time>2026-05-03T10:34:05Z</time></trkpt><trkpt lat="42.19595498289035" lon="13.841092908969891"><ele>275.0</ele><time>2026-05-03T10:34:06Z</time></trkpt><trkpt lat="42.195923633636546" lon="13.841377694579048"><ele>272.33333333333337</ele><time>2026-05-03T10:34:07Z</time></trkpt><trkpt lat="42.19587364732993" lon="13.841648123955576"><ele>269.6666666666667</ele><time>2026-05-03T10:34:08Z</time></trkpt><trkpt lat="42.195805409029454" lon="13.841893227230019"><ele>267.0</ele><time>2026-05-03T10:34:09Z</time></trkpt><trkpt lat="42.195717664093394" lon="13.842127527020645"><ele>283.6666666666667</ele><time>2026-05-03T10:34:10Z</time></trkpt><trkpt lat="42.195608821870856" lon="13.842362405234715"><ele>300.33333333333337</ele><time>2026-05-03T10:34:11Z</time></trkpt><trkpt lat="42.19547987649706" lon="13.84259204528998"><ele>317.0</ele><time>2026-05-03T10:34:12Z</time></trkpt><trkpt lat="42.19532560024831" lon="13.84279887037568"><ele>321.33333333333337</ele><time>2026-05-03T10:34:13Z</time></trkpt><trkpt lat="42.19516579753083" lon="13.842950988149532"><ele>325.6666666666667</ele><time>2026-05-03T10:34:14Z</time></trkpt><trkpt lat="42.19499862307268" lon="13.843090248759395"><ele>330.0</ele><time>2026-05-03T10:34:15Z</time></trkpt><trkpt lat="42.19481809792919" lon="13.84324797927577"><ele>340.0</ele><time>2026-05-03T10:34:16.001Z</time></trkpt><trkpt lat="42.194626689911644" lon="13.84342998934002"><ele>350.0</ele><time>2026-05-03T10:34:17.001Z</time></trkpt><trkpt lat="42.19445417104533" lon="13.843584338987371"><ele>360.0</ele><time>2026-05-03T10:34:18.001Z</time></trkpt><trkpt lat="42.194285682191214" lon="13.843727789230526"><ele>360.0</ele><time>2026-05-03T10:34:19.001Z</time></trkpt><trkpt lat="42.194110448625665" lon="13.843893611929929"><ele>360.0</ele><time>2026-05-03T10:34:20.055Z</time></trkpt><trkpt lat="42.19393921922359" lon="13.8440416494476"><ele>360.0</ele><time>2026-05-03T10:34:21.059Z</time></trkpt><trkpt lat="42.19376543453986" lon="13.844193106078897"><ele>247.0</ele><time>2026-05-03T10:34:22.058Z</time></trkpt><trkpt lat="42.191746991592126" lon="13.846403011459728"><ele>247.0</ele><time>2026-05-03T10:34:33.001Z</time></trkpt><trkpt lat="42.191589471515364" lon="13.846582673526509"><ele>247.0</ele><time>2026-05-03T10:34:34.001Z</time></trkpt><trkpt lat="42.19145418719167" lon="13.846677729126496"><ele>247.0</ele><time>2026-05-03T10:34:35.001Z</time></trkpt><trkpt lat="42.19132234270446" lon="13.846823438108466"><ele>246.0</ele><time>2026-05-03T10:34:36.001Z</time></trkpt><trkpt lat="42.19120194071693" lon="13.84696017152214"><ele>245.0</ele><time>2026-05-03T10:34:37.001Z</time></trkpt><trkpt lat="42.191077426101096" lon="13.847087696304802"><ele>244.0</ele><time>2026-05-03T10:34:38.001Z</time></trkpt><trkpt lat="42.190957754199076" lon="13.847204785651629"><ele>244.0</ele><time>2026-05-03T10:34:39.001Z</time></trkpt><trkpt lat="42.19084854927771" lon="13.847320413252946"><ele>244.0</ele><time>2026-05-03T10:34:40Z</time></trkpt><trkpt lat="42.190734755641635" lon="13.847423054300894"><ele>244.0</ele><time>2026-05-03T10:34:41Z</time></trkpt><trkpt lat="42.19062810962624" lon="13.84749909830741"><ele>244.0</ele><time>2026-05-03T10:34:42Z</time></trkpt><trkpt lat="42.19050963651011" lon="13.84754137676667"><ele>244.2</ele><time>2026-05-03T10:34:43Z</time></trkpt><trkpt lat="42.19039171020321" lon="13.847555364543515"><ele>244.39999999999998</ele><time>2026-05-03T10:34:44Z</time></trkpt><trkpt lat="42.19028205931644" lon="13.847583676864586"><ele>244.6</ele><time>2026-05-03T10:34:45Z</time></trkpt><trkpt lat="42.19020110722928" lon="13.847673129767724"><ele>244.8</ele><time>2026-05-03T10:34:46Z</time></trkpt><trkpt lat="42.19015777604451" lon="13.847808097829118"><ele>245.0</ele><time>2026-05-03T10:34:47Z</time></trkpt><trkpt lat="42.190164748465016" lon="13.847962197564799"><ele>247.0</ele><time>2026-05-03T10:34:48Z</time></trkpt><trkpt lat="42.19022772820574" lon="13.848090454342664"><ele>249.0</ele><time>2026-05-03T10:34:49Z</time></trkpt><trkpt lat="42.1903308619114" lon="13.848181153977814"><ele>251.0</ele><time>2026-05-03T10:34:50Z</time></trkpt><trkpt lat="42.19044915972813" lon="13.848266378278836"><ele>253.0</ele><time>2026-05-03T10:34:51Z</time></trkpt><trkpt lat="42.19057083470268" lon="13.848399336051061"><ele>251.0</ele><time>2026-05-03T10:34:52Z</time></trkpt><trkpt lat="42.190683120898726" lon="13.848580479900326"><ele>249.0</ele><time>2026-05-03T10:34:53Z</time></trkpt><trkpt lat="42.190778750712425" lon="13.848766634193938"><ele>247.0</ele><time>2026-05-03T10:34:54Z</time></trkpt><trkpt lat="42.190882051512894" lon="13.848963685770945"><ele>247.0</ele><time>2026-05-03T10:34:55Z</time></trkpt><trkpt lat="42.19094155808429" lon="13.84907310482494"><ele>247.0</ele><time>2026-05-03T10:34:56Z</time></trkpt><trkpt lat="42.19102635791002" lon="13.849257249631151"><ele>247.0</ele><time>2026-05-03T10:34:57Z</time></trkpt><trkpt lat="42.191107565523986" lon="13.849431767169644"><ele>247.0</ele><time>2026-05-03T10:34:58Z</time></trkpt><trkpt lat="42.19119650590402" lon="13.849589968306326"><ele>254.66666666666666</ele><time>2026-05-03T10:34:59Z</time></trkpt><trkpt lat="42.19128754249409" lon="13.849760758521512"><ele>262.3333333333333</ele><time>2026-05-03T10:35:00Z</time></trkpt><trkpt lat="42.19138288819343" lon="13.849931212604607"><ele>270.0</ele><time>2026-05-03T10:35:01Z</time></trkpt><trkpt lat="42.19148407545843" lon="13.850101083990669"><ele>267.3333333333333</ele><time>2026-05-03T10:35:02Z</time></trkpt><trkpt lat="42.19159843836703" lon="13.850263987519954"><ele>264.66666666666663</ele><time>2026-05-03T10:35:03Z</time></trkpt><trkpt lat="42.19172349491899" lon="13.850418482894192"><ele>262.0</ele><time>2026-05-03T10:35:04Z</time></trkpt><trkpt lat="42.19185388523008" lon="13.850573940268141"><ele>262.0</ele><time>2026-05-03T10:35:05Z</time></trkpt><trkpt lat="42.19199141826195" lon="13.850723235490566"><ele>262.0</ele><time>2026-05-03T10:35:06Z</time></trkpt><trkpt lat="42.19212968176476" lon="13.850876195737259"><ele>262.0</ele><time>2026-05-03T10:35:07Z</time></trkpt><trkpt lat="42.192280950236785" lon="13.851020197424955"><ele>262.3333333333333</ele><time>2026-05-03T10:35:08Z</time></trkpt><trkpt lat="42.192432791312406" lon="13.851146449029008"><ele>262.6666666666667</ele><time>2026-05-03T10:35:09Z</time></trkpt><trkpt lat="42.19256657140606" lon="13.851268230472378"><ele>263.0</ele><time>2026-05-03T10:35:10Z</time></trkpt><trkpt lat="42.19268630230143" lon="13.851383978262886"><ele>263.0</ele><time>2026-05-03T10:35:11Z</time></trkpt><trkpt lat="42.19279420905612" lon="13.851513960319995"><ele>263.0</ele><time>2026-05-03T10:35:12Z</time></trkpt><trkpt lat="42.19291228697201" lon="13.851651788422556"><ele>263.0</ele><time>2026-05-03T10:35:13Z</time></trkpt><trkpt lat="42.19303380908257" lon="13.851778748952222"><ele>268.33333333333337</ele><time>2026-05-03T10:35:14Z</time></trkpt><trkpt lat="42.193161432010555" lon="13.851880380431968"><ele>273.6666666666667</ele><time>2026-05-03T10:35:15Z</time></trkpt><trkpt lat="42.19330723327978" lon="13.851961857847208"><ele>279.0</ele><time>2026-05-03T10:35:16Z</time></trkpt><trkpt lat="42.19346891084703" lon="13.852015972929983"><ele>279.0</ele><time>2026-05-03T10:35:17Z</time></trkpt><trkpt lat="42.19364122043428" lon="13.852042293445432"><ele>279.0</ele><time>2026-05-03T10:35:18Z</time></trkpt><trkpt lat="42.19380831600143" lon="13.8520597442276"><ele>279.0</ele><time>2026-05-03T10:35:19Z</time></trkpt><trkpt lat="42.19396252820454" lon="13.85208002912356"><ele>274.0</ele><time>2026-05-03T10:35:20Z</time></trkpt><trkpt lat="42.19410712785655" lon="13.852085136242566"><ele>269.0</ele><time>2026-05-03T10:35:21Z</time></trkpt><trkpt lat="42.19424875884449" lon="13.852101757235138"><ele>264.0</ele><time>2026-05-03T10:35:22Z</time></trkpt><trkpt lat="42.19437417706877" lon="13.852119177029195"><ele>259.0</ele><time>2026-05-03T10:35:23Z</time></trkpt><trkpt lat="42.19450119827018" lon="13.852145383618476"><ele>259.0</ele><time>2026-05-03T10:35:24Z</time></trkpt><trkpt lat="42.19461653863319" lon="13.852178509281135"><ele>259.0</ele><time>2026-05-03T10:35:25Z</time></trkpt><trkpt lat="42.19471603504531" lon="13.852241003738696"><ele>259.0</ele><time>2026-05-03T10:35:26Z</time></trkpt><trkpt lat="42.19481986254535" lon="13.852314245349353"><ele>259.0</ele><time>2026-05-03T10:35:27Z</time></trkpt><trkpt lat="42.19492137732839" lon="13.852400713946997"><ele>260.5</ele><time>2026-05-03T10:35:28Z</time></trkpt><trkpt lat="42.19500765601516" lon="13.85251716374599"><ele>262.0</ele><time>2026-05-03T10:35:29Z</time></trkpt><trkpt lat="42.195097555739466" lon="13.852642978638107"><ele>263.5</ele><time>2026-05-03T10:35:30Z</time></trkpt><trkpt lat="42.195183771916916" lon="13.852787648048054"><ele>265.0</ele><time>2026-05-03T10:35:31Z</time></trkpt><trkpt lat="42.19526974368033" lon="13.852957669138409"><ele>265.0</ele><time>2026-05-03T10:35:32Z</time></trkpt><trkpt lat="42.19533576266102" lon="13.85311633475399"><ele>265.0</ele><time>2026-05-03T10:35:33Z</time></trkpt><trkpt lat="42.195389796548454" lon="13.853284687299642"><ele>265.0</ele><time>2026-05-03T10:35:34Z</time></trkpt><trkpt lat="42.19544368657855" lon="13.853468140522818"><ele>265.0</ele><time>2026-05-03T10:35:35Z</time></trkpt><trkpt lat="42.19550095886671" lon="13.853660585007319"><ele>268.75</ele><time>2026-05-03T10:35:36Z</time></trkpt><trkpt lat="42.195565890125636" lon="13.853821604620249"><ele>272.5</ele><time>2026-05-03T10:35:37Z</time></trkpt><trkpt lat="42.19560161510951" lon="13.85397507533398"><ele>276.25</ele><time>2026-05-03T10:35:38Z</time></trkpt><trkpt lat="42.19564528526906" lon="13.854129067191332"><ele>280.0</ele><time>2026-05-03T10:35:39Z</time></trkpt><trkpt lat="42.19569176881508" lon="13.854294231085664"><ele>269.66666666666663</ele><time>2026-05-03T10:35:40Z</time></trkpt><trkpt lat="42.19574978990127" lon="13.854481368499505"><ele>259.3333333333333</ele><time>2026-05-03T10:35:41Z</time></trkpt><trkpt lat="42.195811915612694" lon="13.854679983208733"><ele>249.0</ele><time>2026-05-03T10:35:42Z</time></trkpt><trkpt lat="42.19586289428145" lon="13.854879679897968"><ele>249.0</ele><time>2026-05-03T10:35:43Z</time></trkpt><trkpt lat="42.19589283826624" lon="13.855071096625183"><ele>249.0</ele><time>2026-05-03T10:35:44Z</time></trkpt><trkpt lat="42.19590045173717" lon="13.855267921043467"><ele>249.0</ele><time>2026-05-03T10:35:45Z</time></trkpt><trkpt lat="42.19587512387911" lon="13.85568983036539"><ele>248.0</ele><time>2026-05-03T10:35:47Z</time></trkpt><trkpt lat="42.19585821701981" lon="13.856114664153406"><ele>247.0</ele><time>2026-05-03T10:35:49Z</time></trkpt><trkpt lat="42.19583858465959" lon="13.856576499813995"><ele>247.33333333333331</ele><time>2026-05-03T10:35:51Z</time></trkpt><trkpt lat="42.19582685492113" lon="13.856817130617788"><ele>247.66666666666669</ele><time>2026-05-03T10:35:52Z</time></trkpt><trkpt lat="42.19581484342355" lon="13.857052690693855"><ele>248.0</ele><time>2026-05-03T10:35:53Z</time></trkpt><trkpt lat="42.195802367239516" lon="13.857273749072869"><ele>248.0</ele><time>2026-05-03T10:35:54Z</time></trkpt><trkpt lat="42.19578513184683" lon="13.857487562826021"><ele>248.0</ele><time>2026-05-03T10:35:55Z</time></trkpt><trkpt lat="42.1957683403203" lon="13.857695682531158"><ele>248.0</ele><time>2026-05-03T10:35:56Z</time></trkpt><trkpt lat="42.195752711402015" lon="13.857916358561397"><ele>247.0</ele><time>2026-05-03T10:35:57Z</time></trkpt><trkpt lat="42.19571871193944" lon="13.85817927460877"><ele>246.0</ele><time>2026-05-03T10:35:58.001Z</time></trkpt><trkpt lat="42.19568940960897" lon="13.858464734208429"><ele>245.0</ele><time>2026-05-03T10:35:59.001Z</time></trkpt><trkpt lat="42.19564624920444" lon="13.858746966992214"><ele>255.33333333333334</ele><time>2026-05-03T10:36:00.001Z</time></trkpt><trkpt lat="42.19559673796531" lon="13.859026797324468"><ele>265.6666666666667</ele><time>2026-05-03T10:36:01.001Z</time></trkpt><trkpt lat="42.19555748737284" lon="13.85929616779918"><ele>276.0</ele><time>2026-05-03T10:36:02.001Z</time></trkpt><trkpt lat="42.19553964103266" lon="13.859557554648571"><ele>276.0</ele><time>2026-05-03T10:36:03.001Z</time></trkpt><trkpt lat="42.195527584139" lon="13.859808451687368"><ele>276.0</ele><time>2026-05-03T10:36:04.001Z</time></trkpt><trkpt lat="42.19552320866172" lon="13.860048088351563"><ele>276.0</ele><time>2026-05-03T10:36:05.001Z</time></trkpt><trkpt lat="42.1955133310947" lon="13.860271102056236"><ele>275.3333333333333</ele><time>2026-05-03T10:36:06.001Z</time></trkpt><trkpt lat="42.19550193303153" lon="13.860494447690632"><ele>274.66666666666663</ele><time>2026-05-03T10:36:07.001Z</time></trkpt><trkpt lat="42.19549364831475" lon="13.860719255062705"><ele>274.0</ele><time>2026-05-03T10:36:08.001Z</time></trkpt><trkpt lat="42.1954918668267" lon="13.8609203460017"><ele>273.75</ele><time>2026-05-03T10:36:09.001Z</time></trkpt><trkpt lat="42.19549141221575" lon="13.861114379284729"><ele>273.5</ele><time>2026-05-03T10:36:10.001Z</time></trkpt><trkpt lat="42.19549844027477" lon="13.861315452247815"><ele>273.25</ele><time>2026-05-03T10:36:11.001Z</time></trkpt><trkpt lat="42.19551663910572" lon="13.861501787110289"><ele>273.0</ele><time>2026-05-03T10:36:12.001Z</time></trkpt><trkpt lat="42.19554059931672" lon="13.861679550886626"><ele>274.75</ele><time>2026-05-03T10:36:13.001Z</time></trkpt><trkpt lat="42.195550534367996" lon="13.861845657324148"><ele>276.5</ele><time>2026-05-03T10:36:14.001Z</time></trkpt><trkpt lat="42.19554374370134" lon="13.862023203562561"><ele>278.25</ele><time>2026-05-03T10:36:15.001Z</time></trkpt><trkpt lat="42.19557195230151" lon="13.862226687384508"><ele>280.0</ele><time>2026-05-03T10:36:16.001Z</time></trkpt><trkpt lat="42.19562396061776" lon="13.862459783476956"><ele>268.66666666666663</ele><time>2026-05-03T10:36:17.001Z</time></trkpt><trkpt lat="42.195689767474434" lon="13.862716535113105"><ele>257.3333333333333</ele><time>2026-05-03T10:36:18.001Z</time></trkpt><trkpt lat="42.19577650785824" lon="13.862994707734112"><ele>246.0</ele><time>2026-05-03T10:36:19.001Z</time></trkpt><trkpt lat="42.19588295686748" lon="13.863280302628308"><ele>251.33333333333331</ele><time>2026-05-03T10:36:20.001Z</time></trkpt><trkpt lat="42.19598931685991" lon="13.863554970929533"><ele>256.66666666666663</ele><time>2026-05-03T10:36:21.001Z</time></trkpt><trkpt lat="42.196093080204584" lon="13.863814704306881"><ele>262.0</ele><time>2026-05-03T10:36:22.001Z</time></trkpt><trkpt lat="42.19619061167244" lon="13.86405917818883"><ele>267.0</ele><time>2026-05-03T10:36:23.001Z</time></trkpt><trkpt lat="42.19628659837933" lon="13.864311033053863"><ele>272.0</ele><time>2026-05-03T10:36:24.001Z</time></trkpt><trkpt lat="42.19638023127487" lon="13.864566796164112"><ele>277.0</ele><time>2026-05-03T10:36:25.001Z</time></trkpt><trkpt lat="42.19646614885812" lon="13.864812714391116"><ele>266.3333333333333</ele><time>2026-05-03T10:36:26.001Z</time></trkpt><trkpt lat="42.19654217065661" lon="13.865049201331722"><ele>255.66666666666669</ele><time>2026-05-03T10:36:27.001Z</time></trkpt><trkpt lat="42.19662045022283" lon="13.865291595568072"><ele>245.0</ele><time>2026-05-03T10:36:28.001Z</time></trkpt><trkpt lat="42.196700313579726" lon="13.865533946208284"><ele>245.0</ele><time>2026-05-03T10:36:29.001Z</time></trkpt><trkpt lat="42.19677475422702" lon="13.865772980470695"><ele>245.0</ele><time>2026-05-03T10:36:30.001Z</time></trkpt><trkpt lat="42.19684285840816" lon="13.866027200007983"><ele>245.0</ele><time>2026-05-03T10:36:31.001Z</time></trkpt><trkpt lat="42.19690139037983" lon="13.86629993478086"><ele>248.33333333333334</ele><time>2026-05-03T10:36:32.001Z</time></trkpt><trkpt lat="42.19695873087063" lon="13.86658374417403"><ele>251.66666666666669</ele><time>2026-05-03T10:36:33.001Z</time></trkpt><trkpt lat="42.19702028721047" lon="13.86687258552862"><ele>255.0</ele><time>2026-05-03T10:36:34.001Z</time></trkpt><trkpt lat="42.19708487819194" lon="13.86716200828534"><ele>257.6666666666667</ele><time>2026-05-03T10:36:35.001Z</time></trkpt><trkpt lat="42.1971483086713" lon="13.867436885531731"><ele>260.33333333333337</ele><time>2026-05-03T10:36:36.001Z</time></trkpt><trkpt lat="42.19720703193264" lon="13.867698599603948"><ele>263.0</ele><time>2026-05-03T10:36:37.001Z</time></trkpt><trkpt lat="42.19727185371451" lon="13.867963740759402"><ele>264.0</ele><time>2026-05-03T10:36:38.001Z</time></trkpt><trkpt lat="42.19733034756192" lon="13.868238468172256"><ele>265.0</ele><time>2026-05-03T10:36:39.001Z</time></trkpt><trkpt lat="42.19737839398122" lon="13.868515027411966"><ele>266.0</ele><time>2026-05-03T10:36:40.001Z</time></trkpt><trkpt lat="42.197401386038706" lon="13.868807490765509"><ele>257.0</ele><time>2026-05-03T10:36:41.001Z</time></trkpt><trkpt lat="42.19744577686081" lon="13.869092172180949"><ele>248.0</ele><time>2026-05-03T10:36:42.001Z</time></trkpt><trkpt lat="42.19747473784996" lon="13.86939193285986"><ele>239.0</ele><time>2026-05-03T10:36:43.001Z</time></trkpt><trkpt lat="42.19751066505775" lon="13.869671007823921"><ele>238.33333333333334</ele><time>2026-05-03T10:36:44.001Z</time></trkpt><trkpt lat="42.197541975615884" lon="13.869960658751582"><ele>237.66666666666669</ele><time>2026-05-03T10:36:45.001Z</time></trkpt><trkpt lat="42.19757545985929" lon="13.870240808682434"><ele>237.0</ele><time>2026-05-03T10:36:46Z</time></trkpt><trkpt lat="42.19760484068818" lon="13.870535636647041"><ele>237.0</ele><time>2026-05-03T10:36:47Z</time></trkpt><trkpt lat="42.19764097482219" lon="13.870822042133867"><ele>237.0</ele><time>2026-05-03T10:36:48Z</time></trkpt><trkpt lat="42.19766927255299" lon="13.871097930134813"><ele>237.0</ele><time>2026-05-03T10:36:49Z</time></trkpt><trkpt lat="42.197699036151015" lon="13.871375606332904"><ele>238.0</ele><time>2026-05-03T10:36:50Z</time></trkpt><trkpt lat="42.19772704088803" lon="13.871659041519795"><ele>239.0</ele><time>2026-05-03T10:36:51Z</time></trkpt><trkpt lat="42.19776089980189" lon="13.87194137332304"><ele>240.0</ele><time>2026-05-03T10:36:52Z</time></trkpt><trkpt lat="42.19780379491158" lon="13.872235780656277"><ele>243.0</ele><time>2026-05-03T10:36:53Z</time></trkpt><trkpt lat="42.19785208802153" lon="13.872539647321696"><ele>246.0</ele><time>2026-05-03T10:36:54Z</time></trkpt><trkpt lat="42.19790629063102" lon="13.8728448331214"><ele>246.0</ele><time>2026-05-03T10:36:55Z</time></trkpt><trkpt lat="42.19795730059193" lon="13.873136207261357"><ele>246.0</ele><time>2026-05-03T10:36:56Z</time></trkpt><trkpt lat="42.19800231205655" lon="13.87341122708112"><ele>246.0</ele><time>2026-05-03T10:36:57Z</time></trkpt><trkpt lat="42.19804637487754" lon="13.87366954811877"><ele>250.66666666666669</ele><time>2026-05-03T10:36:58Z</time></trkpt><trkpt lat="42.19807408132803" lon="13.87393417974129"><ele>255.33333333333334</ele><time>2026-05-03T10:36:59Z</time></trkpt><trkpt lat="42.19811793742539" lon="13.874203952433204"><ele>260.0</ele><time>2026-05-03T10:37:00Z</time></trkpt><trkpt lat="42.19816164255771" lon="13.874474304497094"><ele>250.66666666666669</ele><time>2026-05-03T10:37:01Z</time></trkpt><trkpt lat="42.198202939169725" lon="13.874730726705907"><ele>241.33333333333331</ele><time>2026-05-03T10:37:02Z</time></trkpt><trkpt lat="42.19825474836915" lon="13.874963387524565"><ele>232.0</ele><time>2026-05-03T10:37:03Z</time></trkpt><trkpt lat="42.19828546120403" lon="13.875194453792858"><ele>229.33333333333331</ele><time>2026-05-03T10:37:04Z</time></trkpt><trkpt lat="42.198276768236845" lon="13.875432019166167"><ele>226.66666666666669</ele><time>2026-05-03T10:37:05Z</time></trkpt><trkpt lat="42.19824557032178" lon="13.87567619303382"><ele>224.0</ele><time>2026-05-03T10:37:06Z</time></trkpt><trkpt lat="42.198210312242296" lon="13.875938219448154"><ele>237.66666666666669</ele><time>2026-05-03T10:37:07Z</time></trkpt><trkpt lat="42.19813688753222" lon="13.876206289560956"><ele>251.33333333333331</ele><time>2026-05-03T10:37:08Z</time></trkpt><trkpt lat="42.198068350761176" lon="13.876475818033024"><ele>265.0</ele><time>2026-05-03T10:37:09Z</time></trkpt><trkpt lat="42.19800932623478" lon="13.876730923193511"><ele>264.3333333333333</ele><time>2026-05-03T10:37:10Z</time></trkpt><trkpt lat="42.19796310122967" lon="13.876966833064301"><ele>263.6666666666667</ele><time>2026-05-03T10:37:11Z</time></trkpt><trkpt lat="42.19792299927793" lon="13.87720603066656"><ele>263.0</ele><time>2026-05-03T10:37:12Z</time></trkpt><trkpt lat="42.19791932935834" lon="13.877463253131712"><ele>264.6666666666667</ele><time>2026-05-03T10:37:13Z</time></trkpt><trkpt lat="42.1979548065612" lon="13.877712720737469"><ele>266.3333333333333</ele><time>2026-05-03T10:37:14Z</time></trkpt><trkpt lat="42.1980273451031" lon="13.877967562597751"><ele>268.0</ele><time>2026-05-03T10:37:15Z</time></trkpt><trkpt lat="42.19812975333518" lon="13.87821922630056"><ele>258.3333333333333</ele><time>2026-05-03T10:37:16Z</time></trkpt><trkpt lat="42.19824501237709" lon="13.878464207686765"><ele>248.66666666666669</ele><time>2026-05-03T10:37:17Z</time></trkpt><trkpt lat="42.19837529196114" lon="13.878698967062975"><ele>239.0</ele><time>2026-05-03T10:37:18Z</time></trkpt><trkpt lat="42.19854094832922" lon="13.878913956005462"><ele>239.0</ele><time>2026-05-03T10:37:19Z</time></trkpt><trkpt lat="42.19873252327196" lon="13.879099057656138"><ele>239.0</ele><time>2026-05-03T10:37:20Z</time></trkpt><trkpt lat="42.19891557140663" lon="13.879271489554748"><ele>236.0</ele><time>2026-05-03T10:37:21Z</time></trkpt><trkpt lat="42.19907026919623" lon="13.879440854388918"><ele>233.0</ele><time>2026-05-03T10:37:22Z</time></trkpt><trkpt lat="42.199197599014234" lon="13.87962976012958"><ele>230.0</ele><time>2026-05-03T10:37:23Z</time></trkpt><trkpt lat="42.19928966937655" lon="13.8798567566514"><ele>232.0</ele><time>2026-05-03T10:37:24Z</time></trkpt><trkpt lat="42.199324614265805" lon="13.880114953009183"><ele>234.0</ele><time>2026-05-03T10:37:25Z</time></trkpt><trkpt lat="42.19933622165946" lon="13.880439094129551"><ele>236.0</ele><time>2026-05-03T10:37:26Z</time></trkpt><trkpt lat="42.19928585123424" lon="13.880709923204645"><ele>233.0</ele><time>2026-05-03T10:37:27Z</time></trkpt><trkpt lat="42.199247291573336" lon="13.880992933340746"><ele>230.0</ele><time>2026-05-03T10:37:28Z</time></trkpt><trkpt lat="42.19920908682748" lon="13.881231932007822"><ele>227.0</ele><time>2026-05-03T10:37:29Z</time></trkpt><trkpt lat="42.19919537130619" lon="13.881443771968689"><ele>227.0</ele><time>2026-05-03T10:37:30Z</time></trkpt><trkpt lat="42.199209314706394" lon="13.881655544228604"><ele>227.0</ele><time>2026-05-03T10:37:31Z</time></trkpt><trkpt lat="42.19928919901964" lon="13.881874696841974"><ele>227.0</ele><time>2026-05-03T10:37:32Z</time></trkpt><trkpt lat="42.199392758724954" lon="13.882094823555226"><ele>229.0</ele><time>2026-05-03T10:37:33Z</time></trkpt><trkpt lat="42.19948596233759" lon="13.88234115606246"><ele>231.0</ele><time>2026-05-03T10:37:34Z</time></trkpt><trkpt lat="42.199547949562074" lon="13.882588846050576"><ele>233.0</ele><time>2026-05-03T10:37:35Z</time></trkpt><trkpt lat="42.19961175719104" lon="13.88282560160621"><ele>227.33333333333334</ele><time>2026-05-03T10:37:36Z</time></trkpt><trkpt lat="42.19970542515183" lon="13.883040019335281"><ele>221.66666666666669</ele><time>2026-05-03T10:37:37Z</time></trkpt><trkpt lat="42.19984270462126" lon="13.883230939784523"><ele>216.0</ele><time>2026-05-03T10:37:38Z</time></trkpt><trkpt lat="42.19999109426668" lon="13.883402807506647"><ele>223.66666666666669</ele><time>2026-05-03T10:37:39Z</time></trkpt><trkpt lat="42.20012813733301" lon="13.883568428640796"><ele>231.33333333333334</ele><time>2026-05-03T10:37:40Z</time></trkpt><trkpt lat="42.200248813944825" lon="13.88372007961805"><ele>239.0</ele><time>2026-05-03T10:37:41Z</time></trkpt><trkpt lat="42.20036226997151" lon="13.883876239030526"><ele>239.0</ele><time>2026-05-03T10:37:42Z</time></trkpt><trkpt lat="42.200459521113636" lon="13.88404093170153"><ele>239.0</ele><time>2026-05-03T10:37:43Z</time></trkpt><trkpt lat="42.20054286520984" lon="13.884225294103567"><ele>239.0</ele><time>2026-05-03T10:37:44Z</time></trkpt><trkpt lat="42.20059802972506" lon="13.884439268873335"><ele>243.66666666666669</ele><time>2026-05-03T10:37:45Z</time></trkpt><trkpt lat="42.20063553659214" lon="13.88464910307797"><ele>248.33333333333331</ele><time>2026-05-03T10:37:46Z</time></trkpt><trkpt lat="42.200677862232205" lon="13.884847149166342"><ele>253.0</ele><time>2026-05-03T10:37:47Z</time></trkpt><trkpt lat="42.20073777569546" lon="13.885027957671793"><ele>247.0</ele><time>2026-05-03T10:37:48Z</time></trkpt><trkpt lat="42.20081768295276" lon="13.885192850705984"><ele>241.0</ele><time>2026-05-03T10:37:49Z</time></trkpt><trkpt lat="42.20091159586078" lon="13.885358474648303"><ele>235.0</ele><time>2026-05-03T10:37:50Z</time></trkpt><trkpt lat="42.20102322158251" lon="13.885504808189388"><ele>235.0</ele><time>2026-05-03T10:37:51Z</time></trkpt><trkpt lat="42.20113790096757" lon="13.885635015690474"><ele>235.0</ele><time>2026-05-03T10:37:52Z</time></trkpt><trkpt lat="42.20124825461958" lon="13.885750934311694"><ele>235.0</ele><time>2026-05-03T10:37:53Z</time></trkpt><trkpt lat="42.20135755966203" lon="13.885861113361397"><ele>235.0</ele><time>2026-05-03T10:37:54Z</time></trkpt><trkpt lat="42.20145899880956" lon="13.885961217146887"><ele>233.8</ele><time>2026-05-03T10:37:55Z</time></trkpt><trkpt lat="42.20155421541607" lon="13.886055014573769"><ele>232.6</ele><time>2026-05-03T10:37:56Z</time></trkpt><trkpt lat="42.201638196463115" lon="13.88614653035263"><ele>231.39999999999998</ele><time>2026-05-03T10:37:57Z</time></trkpt><trkpt lat="42.201712297450285" lon="13.886225498246153"><ele>230.2</ele><time>2026-05-03T10:37:58Z</time></trkpt><trkpt lat="42.20179023577501" lon="13.886301939712732"><ele>229.0</ele><time>2026-05-03T10:37:59Z</time></trkpt><trkpt lat="42.20188760623983" lon="13.886393204434821"><ele>229.0</ele><time>2026-05-03T10:38:00Z</time></trkpt><trkpt lat="42.20197737225544" lon="13.886489019124133"><ele>228.99999999999997</ele><time>2026-05-03T10:38:01Z</time></trkpt><trkpt lat="42.202065657557974" lon="13.886576875476855"><ele>228.99999999999997</ele><time>2026-05-03T10:38:02Z</time></trkpt><trkpt lat="42.20215019109637" lon="13.886662511338944"><ele>229.0</ele><time>2026-05-03T10:38:03Z</time></trkpt><trkpt lat="42.202231685937214" lon="13.886748292000112"><ele>229.0</ele><time>2026-05-03T10:38:04Z</time></trkpt><trkpt lat="42.202312025567196" lon="13.886834825627584"><ele>227.39999999999998</ele><time>2026-05-03T10:38:05Z</time></trkpt><trkpt lat="42.202387172458636" lon="13.88691295782772"><ele>225.79999999999998</ele><time>2026-05-03T10:38:06Z</time></trkpt><trkpt lat="42.20246180594678" lon="13.886988838039011"><ele>224.20000000000002</ele><time>2026-05-03T10:38:07Z</time></trkpt><trkpt lat="42.20253935527679" lon="13.887071481441497"><ele>222.60000000000002</ele><time>2026-05-03T10:38:08Z</time></trkpt><trkpt lat="42.20262590544689" lon="13.88716222905744"><ele>221.0</ele><time>2026-05-03T10:38:09Z</time></trkpt><trkpt lat="42.20272448761093" lon="13.88726564357777"><ele>221.0</ele><time>2026-05-03T10:38:10Z</time></trkpt><trkpt lat="42.20283022671014" lon="13.887374793889629"><ele>221.0</ele><time>2026-05-03T10:38:11Z</time></trkpt><trkpt lat="42.20293520078126" lon="13.887483403789757"><ele>221.0</ele><time>2026-05-03T10:38:12Z</time></trkpt><trkpt lat="42.2030296570203" lon="13.88758767334691"><ele>221.0</ele><time>2026-05-03T10:38:13Z</time></trkpt><trkpt lat="42.20311928337403" lon="13.887682471592434"><ele>223.5</ele><time>2026-05-03T10:38:14Z</time></trkpt><trkpt lat="42.20321690386203" lon="13.887784468135573"><ele>226.0</ele><time>2026-05-03T10:38:15Z</time></trkpt><trkpt lat="42.20332028022589" lon="13.887887760862096"><ele>228.5</ele><time>2026-05-03T10:38:16Z</time></trkpt><trkpt lat="42.203416342303996" lon="13.88797923583776"><ele>231.0</ele><time>2026-05-03T10:38:17Z</time></trkpt><trkpt lat="42.203504308536054" lon="13.88806568776023"><ele>231.0</ele><time>2026-05-03T10:38:18Z</time></trkpt><trkpt lat="42.203591983579585" lon="13.888158704563512"><ele>231.0</ele><time>2026-05-03T10:38:19Z</time></trkpt><trkpt lat="42.203689217147144" lon="13.888266065832463"><ele>231.0</ele><time>2026-05-03T10:38:20Z</time></trkpt><trkpt lat="42.20379800432338" lon="13.888395986024559"><ele>231.0</ele><time>2026-05-03T10:38:21Z</time></trkpt><trkpt lat="42.2039141341275" lon="13.888549502965635"><ele>227.0</ele><time>2026-05-03T10:38:22Z</time></trkpt><trkpt lat="42.204025094301386" lon="13.888723821460683"><ele>223.0</ele><time>2026-05-03T10:38:23Z</time></trkpt><trkpt lat="42.20412874128361" lon="13.88890553296319"><ele>219.0</ele><time>2026-05-03T10:38:24Z</time></trkpt><trkpt lat="42.204222725179896" lon="13.889107260067288"><ele>219.25</ele><time>2026-05-03T10:38:25Z</time></trkpt><trkpt lat="42.2043025117035" lon="13.889303660420408"><ele>219.5</ele><time>2026-05-03T10:38:26Z</time></trkpt><trkpt lat="42.20437023373053" lon="13.889499980744139"><ele>219.75</ele><time>2026-05-03T10:38:27Z</time></trkpt><trkpt lat="42.20440975768045" lon="13.889634613485285"><ele>220.0</ele><time>2026-05-03T10:38:28Z</time></trkpt><trkpt lat="42.20442767270805" lon="13.889717909914173"><ele>220.0</ele><time>2026-05-03T10:38:29Z</time></trkpt><trkpt lat="42.204464523083644" lon="13.88979046588281"><ele>220.0</ele><time>2026-05-03T10:38:41Z</time></trkpt><trkpt lat="42.20440598678422" lon="13.889639481773996"><ele>220.0</ele><time>2026-05-03T10:38:44.001Z</time></trkpt><trkpt lat="42.204360500884064" lon="13.889424416316485"><ele>220.0</ele><time>2026-05-03T10:38:45.001Z</time></trkpt><trkpt lat="42.204297016045594" lon="13.889231753833556"><ele>219.66666666666666</ele><time>2026-05-03T10:38:46.001Z</time></trkpt><trkpt lat="42.20421954989562" lon="13.889047905411651"><ele>219.33333333333331</ele><time>2026-05-03T10:38:47.001Z</time></trkpt><trkpt lat="42.20412141735233" lon="13.888856076972077"><ele>219.0</ele><time>2026-05-03T10:38:48.001Z</time></trkpt><trkpt lat="42.2040142749665" lon="13.88866773696898"><ele>223.0</ele><time>2026-05-03T10:38:49.001Z</time></trkpt><trkpt lat="42.20390743995385" lon="13.888507569596863"><ele>227.0</ele><time>2026-05-03T10:38:50.001Z</time></trkpt><trkpt lat="42.20379807475708" lon="13.88837982460101"><ele>231.0</ele><time>2026-05-03T10:38:51.001Z</time></trkpt><trkpt lat="42.20368361457077" lon="13.888248078154623"><ele>231.0</ele><time>2026-05-03T10:38:52Z</time></trkpt><trkpt lat="42.203563901628314" lon="13.88811010942971"><ele>231.0</ele><time>2026-05-03T10:38:53Z</time></trkpt><trkpt lat="42.20344318313291" lon="13.88798481148948"><ele>231.0</ele><time>2026-05-03T10:38:54Z</time></trkpt><trkpt lat="42.20332025499859" lon="13.887854408546305"><ele>231.0</ele><time>2026-05-03T10:38:55Z</time></trkpt><trkpt lat="42.20320937301443" lon="13.887734528910583"><ele>231.0</ele><time>2026-05-03T10:38:56Z</time></trkpt><trkpt lat="42.20309247788643" lon="13.887611300297555"><ele>231.0</ele><time>2026-05-03T10:38:57Z</time></trkpt><trkpt lat="42.202967458782915" lon="13.887478240674605"><ele>228.5</ele><time>2026-05-03T10:38:58Z</time></trkpt><trkpt lat="42.20285294457959" lon="13.887354599201215"><ele>226.0</ele><time>2026-05-03T10:38:59Z</time></trkpt><trkpt lat="42.20273600754259" lon="13.887234037335979"><ele>223.5</ele><time>2026-05-03T10:39:00Z</time></trkpt><trkpt lat="42.20261995507999" lon="13.887110339074578"><ele>221.0</ele><time>2026-05-03T10:39:01Z</time></trkpt><trkpt lat="42.202506629297645" lon="13.886993749470404"><ele>221.0</ele><time>2026-05-03T10:39:02Z</time></trkpt><trkpt lat="42.20240466700906" lon="13.886889992665363"><ele>221.00000000000003</ele><time>2026-05-03T10:39:03Z</time></trkpt><trkpt lat="42.202316047577426" lon="13.88679748518446"><ele>221.00000000000003</ele><time>2026-05-03T10:39:04Z</time></trkpt><trkpt lat="42.202236954889266" lon="13.886714771277944"><ele>221.0</ele><time>2026-05-03T10:39:05Z</time></trkpt><trkpt lat="42.20217123782864" lon="13.886647029601987"><ele>221.0</ele><time>2026-05-03T10:39:06Z</time></trkpt><trkpt lat="42.2020807545351" lon="13.886593621376091"><ele>221.0</ele><time>2026-05-03T10:39:08Z</time></trkpt><trkpt lat="42.20206886946771" lon="13.886749231184654"><ele>221.00000000000003</ele><time>2026-05-03T10:39:13Z</time></trkpt><trkpt lat="42.20217125773307" lon="13.886822209135277"><ele>221.00000000000003</ele><time>2026-05-03T10:39:15Z</time></trkpt><trkpt lat="42.20225011088148" lon="13.886923312525274"><ele>221.0</ele><time>2026-05-03T10:39:17Z</time></trkpt><trkpt lat="42.20228643229652" lon="13.887000153571398"><ele>221.0</ele><time>2026-05-03T10:39:18Z</time></trkpt><trkpt lat="42.202334956021296" lon="13.887084350608747"><ele>221.0</ele><time>2026-05-03T10:39:19Z</time></trkpt><trkpt lat="42.202384517680514" lon="13.8871662977193"><ele>221.00000000000003</ele><time>2026-05-03T10:39:20Z</time></trkpt><trkpt lat="42.202470339271066" lon="13.887168238658306"><ele>221.00000000000003</ele><time>2026-05-03T10:39:21Z</time></trkpt><trkpt lat="42.202565393107164" lon="13.887266013696644"><ele>221.0</ele><time>2026-05-03T10:39:23Z</time></trkpt><trkpt lat="42.202620637097944" lon="13.887322839204337"><ele>221.0</ele><time>2026-05-03T10:39:24Z</time></trkpt><trkpt lat="42.202715656104" lon="13.887420754353206"><ele>221.00000000000003</ele><time>2026-05-03T10:39:26Z</time></trkpt><trkpt lat="42.20277201427889" lon="13.88747915333636"><ele>221.0</ele><time>2026-05-03T10:39:27Z</time></trkpt><trkpt lat="42.20282986423117" lon="13.887539098106405"><ele>221.0</ele><time>2026-05-03T10:39:28Z</time></trkpt><trkpt lat="42.20290059628172" lon="13.887612391425922"><ele>221.0</ele><time>2026-05-03T10:39:29Z</time></trkpt><trkpt lat="42.202969880487224" lon="13.887684184451173"><ele>221.00000000000003</ele><time>2026-05-03T10:39:30Z</time></trkpt><trkpt lat="42.20304173107431" lon="13.887758636816985"><ele>221.0</ele><time>2026-05-03T10:39:31Z</time></trkpt><trkpt lat="42.203114103136464" lon="13.887833629523213"><ele>223.0</ele><time>2026-05-03T10:39:32Z</time></trkpt><trkpt lat="42.20318694017906" lon="13.887909104066372"><ele>225.00000000000003</ele><time>2026-05-03T10:39:33Z</time></trkpt><trkpt lat="42.203253175981864" lon="13.887977315433767"><ele>227.00000000000003</ele><time>2026-05-03T10:39:34Z</time></trkpt><trkpt lat="42.20332502987333" lon="13.888050390312785"><ele>229.0</ele><time>2026-05-03T10:39:35Z</time></trkpt><trkpt lat="42.20340127472137" lon="13.88812837887041"><ele>231.0</ele><time>2026-05-03T10:39:36Z</time></trkpt><trkpt lat="42.20347692424583" lon="13.88820654548152"><ele>231.0</ele><time>2026-05-03T10:39:37Z</time></trkpt><trkpt lat="42.203542705139135" lon="13.888278368991532"><ele>231.00000000000003</ele><time>2026-05-03T10:39:38Z</time></trkpt><trkpt lat="42.203630673071615" lon="13.888374417613981"><ele>231.00000000000003</ele><time>2026-05-03T10:39:40Z</time></trkpt><trkpt lat="42.20372584345962" lon="13.888481426810104"><ele>231.0</ele><time>2026-05-03T10:39:42Z</time></trkpt><trkpt lat="42.20377862392991" lon="13.888544819268406"><ele>231.0</ele><time>2026-05-03T10:39:43Z</time></trkpt><trkpt lat="42.20384315827983" lon="13.888632683266467"><ele>234.0</ele><time>2026-05-03T10:39:44Z</time></trkpt><trkpt lat="42.203929178836574" lon="13.888765002684147"><ele>237.0</ele><time>2026-05-03T10:39:46Z</time></trkpt><trkpt lat="42.203972987341885" lon="13.88883747667011"><ele>240.0</ele><time>2026-05-03T10:39:47Z</time></trkpt><trkpt lat="42.204056228326685" lon="13.888985824187351"><ele>243.0</ele><time>2026-05-03T10:39:49Z</time></trkpt><trkpt lat="42.204137407080644" lon="13.889152652239318"><ele>239.7142857142857</ele><time>2026-05-03T10:39:51Z</time></trkpt><trkpt lat="42.20417794568062" lon="13.88924719654422"><ele>236.42857142857144</ele><time>2026-05-03T10:39:52Z</time></trkpt><trkpt lat="42.20421259275955" lon="13.889333363009957"><ele>233.14285714285714</ele><time>2026-05-03T10:39:53Z</time></trkpt><trkpt lat="42.20424624092901" lon="13.889422770671697"><ele>229.85714285714283</ele><time>2026-05-03T10:39:54Z</time></trkpt><trkpt lat="42.204274950199476" lon="13.889505573109354"><ele>226.57142857142856</ele><time>2026-05-03T10:39:55Z</time></trkpt><trkpt lat="42.20430494417264" lon="13.889600259510845"><ele>223.28571428571428</ele><time>2026-05-03T10:39:56Z</time></trkpt><trkpt lat="42.2043314485215" lon="13.889690425195273"><ele>220.0</ele><time>2026-05-03T10:39:57Z</time></trkpt><trkpt lat="42.204370718944475" lon="13.88982254577418"><ele>219.99999999999997</ele><time>2026-05-03T10:39:59Z</time></trkpt><trkpt lat="42.20440311296034" lon="13.889931531454662"><ele>220.0</ele><time>2026-05-03T10:40:01Z</time></trkpt><trkpt lat="42.20442892051596" lon="13.890018357828092"><ele>220.0</ele><time>2026-05-03T10:40:03Z</time></trkpt><trkpt lat="42.20447057923217" lon="13.89015890041536"><ele>220.0</ele><time>2026-05-03T10:40:05Z</time></trkpt><trkpt lat="42.20449999908167" lon="13.89025836021263"><ele>219.99999999999997</ele><time>2026-05-03T10:40:06Z</time></trkpt><trkpt lat="42.20452858366924" lon="13.890354996254997"><ele>220.0</ele><time>2026-05-03T10:40:07Z</time></trkpt><trkpt lat="42.20456931881977" lon="13.890487322284802"><ele>221.6</ele><time>2026-05-03T10:40:09Z</time></trkpt><trkpt lat="42.20462211162581" lon="13.890643856332332"><ele>223.2</ele><time>2026-05-03T10:40:11Z</time></trkpt><trkpt lat="42.204657359931375" lon="13.89073066640062"><ele>224.8</ele><time>2026-05-03T10:40:12Z</time></trkpt><trkpt lat="42.204698278828964" lon="13.890826605178264"><ele>226.4</ele><time>2026-05-03T10:40:13Z</time></trkpt><trkpt lat="42.20476154487462" lon="13.890917996110563"><ele>228.0</ele><time>2026-05-03T10:40:14Z</time></trkpt><trkpt lat="42.20482381470871" lon="13.8910153642423"><ele>227.66666666666666</ele><time>2026-05-03T10:40:15Z</time></trkpt><trkpt lat="42.204884333864655" lon="13.891108779735875"><ele>227.33333333333331</ele><time>2026-05-03T10:40:16Z</time></trkpt><trkpt lat="42.204952799072814" lon="13.891169687352392"><ele>227.0</ele><time>2026-05-03T10:40:17Z</time></trkpt><trkpt lat="42.205012327455066" lon="13.891247018560675"><ele>226.66666666666666</ele><time>2026-05-03T10:40:18Z</time></trkpt><trkpt lat="42.20507740256012" lon="13.89133155544318"><ele>226.33333333333331</ele><time>2026-05-03T10:40:19Z</time></trkpt><trkpt lat="42.20512934738135" lon="13.891399035111784"><ele>226.0</ele><time>2026-05-03T10:40:20Z</time></trkpt><trkpt lat="42.20519075399836" lon="13.891478648749317"><ele>225.99999999999997</ele><time>2026-05-03T10:40:21Z</time></trkpt><trkpt lat="42.20523771635725" lon="13.89153944396242"><ele>226.0</ele><time>2026-05-03T10:40:22Z</time></trkpt><trkpt lat="42.20529823389361" lon="13.891617787064483"><ele>226.0</ele><time>2026-05-03T10:40:23Z</time></trkpt><trkpt lat="42.2053568206979" lon="13.891693630660193"><ele>226.0</ele><time>2026-05-03T10:40:24Z</time></trkpt><trkpt lat="42.20541595133562" lon="13.891771224004975"><ele>225.99999999999997</ele><time>2026-05-03T10:40:25Z</time></trkpt><trkpt lat="42.20548173005642" lon="13.891857949146804"><ele>226.0</ele><time>2026-05-03T10:40:26Z</time></trkpt><trkpt lat="42.20554138843872" lon="13.891936605034493"><ele>226.0</ele><time>2026-05-03T10:40:27Z</time></trkpt><trkpt lat="42.205604929417134" lon="13.89202048642299"><ele>226.00000000000003</ele><time>2026-05-03T10:40:28Z</time></trkpt><trkpt lat="42.205675862921375" lon="13.892114375490834"><ele>226.00000000000003</ele><time>2026-05-03T10:40:29Z</time></trkpt><trkpt lat="42.20574599677298" lon="13.892207206088097"><ele>226.0</ele><time>2026-05-03T10:40:30Z</time></trkpt><trkpt lat="42.20581478784804" lon="13.89229825938961"><ele>226.0</ele><time>2026-05-03T10:40:31Z</time></trkpt><trkpt lat="42.2058867395417" lon="13.892392609792742"><ele>226.0</ele><time>2026-05-03T10:40:32Z</time></trkpt><trkpt lat="42.20594704343275" lon="13.892471235207857"><ele>226.00000000000003</ele><time>2026-05-03T10:40:33Z</time></trkpt><trkpt lat="42.20600250522679" lon="13.892543029756736"><ele>226.00000000000003</ele><time>2026-05-03T10:40:34Z</time></trkpt><trkpt lat="42.20607188804063" lon="13.892631633861567"><ele>226.0</ele><time>2026-05-03T10:40:35Z</time></trkpt><trkpt lat="42.2061436322849" lon="13.892718336357769"><ele>226.0</ele><time>2026-05-03T10:40:36Z</time></trkpt><trkpt lat="42.206218410328" lon="13.892802833952924"><ele>226.49999999999997</ele><time>2026-05-03T10:40:37Z</time></trkpt><trkpt lat="42.206278355047516" lon="13.892867541184915"><ele>227.0</ele><time>2026-05-03T10:40:38Z</time></trkpt><trkpt lat="42.20634986398179" lon="13.892941507959721"><ele>227.5</ele><time>2026-05-03T10:40:39Z</time></trkpt><trkpt lat="42.20641254096535" lon="13.89300603778438"><ele>228.0</ele><time>2026-05-03T10:40:40Z</time></trkpt><trkpt lat="42.20647032411272" lon="13.893065529193724"><ele>228.49999999999997</ele><time>2026-05-03T10:40:41Z</time></trkpt><trkpt lat="42.206526588786005" lon="13.893122101386325"><ele>229.0</ele><time>2026-05-03T10:40:42Z</time></trkpt><trkpt lat="42.20658088892886" lon="13.893176858840171"><ele>228.99999999999997</ele><time>2026-05-03T10:40:43Z</time></trkpt><trkpt lat="42.20663197894003" lon="13.893228379158838"><ele>229.0</ele><time>2026-05-03T10:40:44Z</time></trkpt><trkpt lat="42.206701396732704" lon="13.89329838163277"><ele>229.0</ele><time>2026-05-03T10:40:45Z</time></trkpt><trkpt lat="42.206764562631655" lon="13.893362079572062"><ele>229.0</ele><time>2026-05-03T10:40:46Z</time></trkpt><trkpt lat="42.206822332742966" lon="13.893420336246677"><ele>228.99999999999997</ele><time>2026-05-03T10:40:47Z</time></trkpt><trkpt lat="42.20688585038907" lon="13.893484388882996"><ele>229.0</ele><time>2026-05-03T10:40:48Z</time></trkpt><trkpt lat="42.20694329051915" lon="13.89354231281513"><ele>230.39999999999998</ele><time>2026-05-03T10:40:49Z</time></trkpt><trkpt lat="42.20701722287227" lon="13.893616867875455"><ele>231.79999999999998</ele><time>2026-05-03T10:40:50Z</time></trkpt><trkpt lat="42.207093092974105" lon="13.89369337698436"><ele>233.20000000000002</ele><time>2026-05-03T10:40:51Z</time></trkpt><trkpt lat="42.20717376847733" lon="13.893774731896709"><ele>234.60000000000002</ele><time>2026-05-03T10:40:52Z</time></trkpt><trkpt lat="42.20724219232366" lon="13.893843732047422"><ele>236.0</ele><time>2026-05-03T10:40:53Z</time></trkpt><trkpt lat="42.207311737574884" lon="13.893913863156333"><ele>234.16666666666669</ele><time>2026-05-03T10:40:54Z</time></trkpt><trkpt lat="42.20738200644306" lon="13.893984723905067"><ele>232.33333333333334</ele><time>2026-05-03T10:40:55Z</time></trkpt><trkpt lat="42.20744561496486" lon="13.894048893322141"><ele>230.5</ele><time>2026-05-03T10:40:56Z</time></trkpt><trkpt lat="42.20750318198235" lon="13.894107103530226"><ele>228.66666666666669</ele><time>2026-05-03T10:40:57Z</time></trkpt><trkpt lat="42.20756443990139" lon="13.894169045393651"><ele>226.83333333333334</ele><time>2026-05-03T10:40:58Z</time></trkpt><trkpt lat="42.2076201700373" lon="13.894225397759095"><ele>225.0</ele><time>2026-05-03T10:40:59Z</time></trkpt><trkpt lat="42.20767633244143" lon="13.894282187761409"><ele>225.0</ele><time>2026-05-03T10:41:00Z</time></trkpt><trkpt lat="42.20774858992112" lon="13.894355260123639"><ele>225.0</ele><time>2026-05-03T10:41:01Z</time></trkpt><trkpt lat="42.2078301213265" lon="13.894437702151269"><ele>225.0</ele><time>2026-05-03T10:41:02Z</time></trkpt><trkpt lat="42.20790049626861" lon="13.894508863109708"><ele>225.0</ele><time>2026-05-03T10:41:03Z</time></trkpt><trkpt lat="42.20795421154224" lon="13.894563178324299"><ele>225.0</ele><time>2026-05-03T10:41:04Z</time></trkpt><trkpt lat="42.20799784582751" lon="13.89462923776137"><ele>225.0</ele><time>2026-05-03T10:41:06Z</time></trkpt><trkpt lat="42.20808265516955" lon="13.894693056531892"><ele>224.83333333333334</ele><time>2026-05-03T10:41:08Z</time></trkpt><trkpt lat="42.208185209840394" lon="13.8947967566333"><ele>224.66666666666669</ele><time>2026-05-03T10:41:10Z</time></trkpt><trkpt lat="42.20824511706475" lon="13.894857332964962"><ele>224.5</ele><time>2026-05-03T10:41:11Z</time></trkpt><trkpt lat="42.20829902558041" lon="13.894911963786694"><ele>224.33333333333334</ele><time>2026-05-03T10:41:12Z</time></trkpt><trkpt lat="42.20835485865141" lon="13.894968510166796"><ele>224.16666666666669</ele><time>2026-05-03T10:41:13Z</time></trkpt><trkpt lat="42.20841433257756" lon="13.89502874393409"><ele>224.0</ele><time>2026-05-03T10:41:14Z</time></trkpt><trkpt lat="42.208453074275496" lon="13.895120207311672"><ele>224.00000000000003</ele><time>2026-05-03T10:41:15Z</time></trkpt><trkpt lat="42.20848406655027" lon="13.895206787447814"><ele>224.0</ele><time>2026-05-03T10:41:16Z</time></trkpt><trkpt lat="42.208519054294996" lon="13.895299139496617"><ele>224.0</ele><time>2026-05-03T10:41:17Z</time></trkpt><trkpt lat="42.20855492749595" lon="13.895391598247128"><ele>224.0</ele><time>2026-05-03T10:41:18Z</time></trkpt><trkpt lat="42.20859392465992" lon="13.895490463946192"><ele>224.00000000000003</ele><time>2026-05-03T10:41:19Z</time></trkpt><trkpt lat="42.208628900551155" lon="13.895589205684292"><ele>224.0</ele><time>2026-05-03T10:41:20Z</time></trkpt><trkpt lat="42.208653483082166" lon="13.895677927952146"><ele>224.0</ele><time>2026-05-03T10:41:21Z</time></trkpt><trkpt lat="42.20869218421478" lon="13.895783564513158"><ele>224.0</ele><time>2026-05-03T10:41:22Z</time></trkpt><trkpt lat="42.20872267208963" lon="13.895870786905125"><ele>224.0</ele><time>2026-05-03T10:41:23Z</time></trkpt><trkpt lat="42.20874984901797" lon="13.895947717917737"><ele>224.0</ele><time>2026-05-03T10:41:24Z</time></trkpt><trkpt lat="42.208775611216616" lon="13.896025808335168"><ele>224.0</ele><time>2026-05-03T10:41:25Z</time></trkpt><trkpt lat="42.20878906414645" lon="13.896135130459683"><ele>224.0</ele><time>2026-05-03T10:41:26Z</time></trkpt><trkpt lat="42.208799382202635" lon="13.89623228796597"><ele>224.0</ele><time>2026-05-03T10:41:27Z</time></trkpt><trkpt lat="42.208823333920705" lon="13.896401593926479"><ele>225.5</ele><time>2026-05-03T10:41:29Z</time></trkpt><trkpt lat="42.20879697453627" lon="13.896741978654203"><ele>227.0</ele><time>2026-05-03T10:41:31Z</time></trkpt><trkpt lat="42.2088312792618" lon="13.896824595210218"><ele>228.5</ele><time>2026-05-03T10:41:32Z</time></trkpt><trkpt lat="42.20890753082358" lon="13.896950232221421"><ele>230.0</ele><time>2026-05-03T10:41:34Z</time></trkpt><trkpt lat="42.20894675846223" lon="13.897017078289135"><ele>231.0</ele><time>2026-05-03T10:41:35Z</time></trkpt><trkpt lat="42.2090027532307" lon="13.897101230205548"><ele>232.0</ele><time>2026-05-03T10:41:36Z</time></trkpt><trkpt lat="42.20906733761318" lon="13.897185681504892"><ele>233.0</ele><time>2026-05-03T10:41:37Z</time></trkpt><trkpt lat="42.2091357041323" lon="13.89728502234397"><ele>234.0</ele><time>2026-05-03T10:41:38Z</time></trkpt><trkpt lat="42.2091986208278" lon="13.89736823131031"><ele>235.0</ele><time>2026-05-03T10:41:39Z</time></trkpt><trkpt lat="42.209266427592055" lon="13.8974820264"><ele>235.0</ele><time>2026-05-03T10:41:40Z</time></trkpt><trkpt lat="42.20933400766675" lon="13.897585159111403"><ele>235.0</ele><time>2026-05-03T10:41:41Z</time></trkpt><trkpt lat="42.20940583891462" lon="13.897684173412577"><ele>235.0</ele><time>2026-05-03T10:41:42Z</time></trkpt><trkpt lat="42.20946789305315" lon="13.897783703737584"><ele>235.0</ele><time>2026-05-03T10:41:43Z</time></trkpt><trkpt lat="42.20951718502967" lon="13.897864160071054"><ele>235.0</ele><time>2026-05-03T10:41:44Z</time></trkpt><trkpt lat="42.209559759123366" lon="13.897944901760386"><ele>236.25</ele><time>2026-05-03T10:41:45Z</time></trkpt><trkpt lat="42.209611101339334" lon="13.898085165948045"><ele>237.5</ele><time>2026-05-03T10:41:47Z</time></trkpt><trkpt lat="42.209643001468436" lon="13.898230489709249"><ele>238.75</ele><time>2026-05-03T10:41:49Z</time></trkpt><trkpt lat="42.20974592399912" lon="13.898329774724557"><ele>240.0</ele><time>2026-05-03T10:41:51Z</time></trkpt><trkpt lat="42.20984261401205" lon="13.898315839623514"><ele>239.16666666666666</ele><time>2026-05-03T10:41:53Z</time></trkpt><trkpt lat="42.20992622176816" lon="13.89833439082564"><ele>238.33333333333331</ele><time>2026-05-03T10:41:55Z</time></trkpt><trkpt lat="42.20997897180278" lon="13.898459154577615"><ele>237.5</ele><time>2026-05-03T10:41:57Z</time></trkpt><trkpt lat="42.2100172805632" lon="13.898549873008081"><ele>236.66666666666666</ele><time>2026-05-03T10:41:58Z</time></trkpt><trkpt lat="42.210064150789194" lon="13.898645132833744"><ele>235.83333333333331</ele><time>2026-05-03T10:41:59Z</time></trkpt><trkpt lat="42.21012138108241" lon="13.898740147331724"><ele>235.0</ele><time>2026-05-03T10:42:00Z</time></trkpt><trkpt lat="42.21018647770599" lon="13.898830961960762"><ele>235.0</ele><time>2026-05-03T10:42:01Z</time></trkpt><trkpt lat="42.210248478668426" lon="13.898907629815564"><ele>235.0</ele><time>2026-05-03T10:42:02Z</time></trkpt><trkpt lat="42.21022827860788" lon="13.899094426252644"><ele>235.0</ele><time>2026-05-03T10:42:03Z</time></trkpt><trkpt lat="42.210280197323314" lon="13.899176264237738"><ele>235.0</ele><time>2026-05-03T10:42:04Z</time></trkpt><trkpt lat="42.21032912905086" lon="13.899253393912813"><ele>235.0</ele><time>2026-05-03T10:42:05Z</time></trkpt><trkpt lat="42.21038793771561" lon="13.899341715901006"><ele>235.33333333333331</ele><time>2026-05-03T10:42:06Z</time></trkpt><trkpt lat="42.21046976452672" lon="13.899387782308866"><ele>235.66666666666666</ele><time>2026-05-03T10:42:07Z</time></trkpt><trkpt lat="42.21052641237904" lon="13.89946684685149"><ele>236.0</ele><time>2026-05-03T10:42:08Z</time></trkpt><trkpt lat="42.21057967674553" lon="13.899564387286576"><ele>236.33333333333331</ele><time>2026-05-03T10:42:09Z</time></trkpt><trkpt lat="42.21063691238386" lon="13.899675502274674"><ele>236.66666666666666</ele><time>2026-05-03T10:42:10Z</time></trkpt><trkpt lat="42.210680790687974" lon="13.899750250205123"><ele>237.0</ele><time>2026-05-03T10:42:11Z</time></trkpt><trkpt lat="42.210760231811086" lon="13.899861295241765"><ele>235.16666666666666</ele><time>2026-05-03T10:42:13Z</time></trkpt><trkpt lat="42.21080833566153" lon="13.899964467682869"><ele>233.33333333333331</ele><time>2026-05-03T10:42:14Z</time></trkpt><trkpt lat="42.21087214684825" lon="13.900054823576772"><ele>231.5</ele><time>2026-05-03T10:42:15Z</time></trkpt><trkpt lat="42.21092452406675" lon="13.90013714406626"><ele>229.66666666666666</ele><time>2026-05-03T10:42:16Z</time></trkpt><trkpt lat="42.210971809079055" lon="13.900206513798706"><ele>227.83333333333331</ele><time>2026-05-03T10:42:17Z</time></trkpt><trkpt lat="42.211022202019016" lon="13.900263869859986"><ele>226.0</ele><time>2026-05-03T10:42:18Z</time></trkpt><trkpt lat="42.21107267618177" lon="13.90032584482395"><ele>225.99999999999997</ele><time>2026-05-03T10:42:19Z</time></trkpt><trkpt lat="42.21111958556976" lon="13.900393258853503"><ele>226.0</ele><time>2026-05-03T10:42:20Z</time></trkpt><trkpt lat="42.211151598889586" lon="13.900484640542018"><ele>226.0</ele><time>2026-05-03T10:42:21Z</time></trkpt><trkpt lat="42.211222438725244" lon="13.900632407945647"><ele>226.0</ele><time>2026-05-03T10:42:23Z</time></trkpt><trkpt lat="42.21127140262294" lon="13.900690757929132"><ele>225.99999999999997</ele><time>2026-05-03T10:42:24Z</time></trkpt><trkpt lat="42.2113787285096" lon="13.900691396787847"><ele>226.0</ele><time>2026-05-03T10:42:26Z</time></trkpt><trkpt lat="42.21148469855022" lon="13.90064757466213"><ele>225.60000000000002</ele><time>2026-05-03T10:42:28Z</time></trkpt><trkpt lat="42.21155061725846" lon="13.9006019796423"><ele>225.20000000000002</ele><time>2026-05-03T10:42:30Z</time></trkpt><trkpt lat="42.21162214030447" lon="13.900828206257412"><ele>224.79999999999998</ele><time>2026-05-03T10:42:33Z</time></trkpt><trkpt lat="42.21165275083544" lon="13.900965862986194"><ele>224.39999999999998</ele><time>2026-05-03T10:42:35Z</time></trkpt><trkpt lat="42.21161350093615" lon="13.901064858411523"><ele>224.0</ele><time>2026-05-03T10:42:37Z</time></trkpt><trkpt lat="42.21155635327648" lon="13.901103697701137"><ele>224.00000000000003</ele><time>2026-05-03T10:42:38Z</time></trkpt><trkpt lat="42.21149569134227" lon="13.901152459998181"><ele>224.0</ele><time>2026-05-03T10:42:39Z</time></trkpt><trkpt lat="42.21145579057454" lon="13.901258563343328"><ele>224.0</ele><time>2026-05-03T10:42:41Z</time></trkpt><trkpt lat="42.211480315033526" lon="13.90137724252411"><ele>224.0</ele><time>2026-05-03T10:42:43Z</time></trkpt><trkpt lat="42.21146246174305" lon="13.901491544602752"><ele>224.00000000000003</ele><time>2026-05-03T10:42:45Z</time></trkpt><trkpt lat="42.211393115011724" lon="13.90149234531599"><ele>224.0</ele><time>2026-05-03T10:42:47Z</time></trkpt><trkpt lat="42.21129801893986" lon="13.901402020987799"><ele>227.33333333333334</ele><time>2026-05-03T10:42:49Z</time></trkpt><trkpt lat="42.211243502651534" lon="13.901350040163996"><ele>230.66666666666669</ele><time>2026-05-03T10:42:50Z</time></trkpt><trkpt lat="42.21112970108451" lon="13.901328855091714"><ele>234.0</ele><time>2026-05-03T10:42:52Z</time></trkpt><trkpt lat="42.21106227750164" lon="13.90132072357262"><ele>237.33333333333331</ele><time>2026-05-03T10:42:53Z</time></trkpt><trkpt lat="42.21094420236983" lon="13.901320800583065"><ele>240.66666666666666</ele><time>2026-05-03T10:42:55Z</time></trkpt><trkpt lat="42.21088576558396" lon="13.901381266020817"><ele>244.0</ele><time>2026-05-03T10:42:57Z</time></trkpt><trkpt lat="42.21087613711069" lon="13.901488255579444"><ele>243.99999999999997</ele><time>2026-05-03T10:43:00Z</time></trkpt><trkpt lat="42.21094075511293" lon="13.90158518038537"><ele>244.0</ele><time>2026-05-03T10:43:02Z</time></trkpt><trkpt lat="42.21102651078003" lon="13.901646859031421"><ele>244.0</ele><time>2026-05-03T10:43:04.999Z</time></trkpt><trkpt lat="42.211099918784775" lon="13.901739350598577"><ele>244.0</ele><time>2026-05-03T10:43:05.999Z</time></trkpt><trkpt lat="42.21112136854927" lon="13.901833064650186"><ele>243.99999999999997</ele><time>2026-05-03T10:43:06.999Z</time></trkpt><trkpt lat="42.2111374460536" lon="13.901917351170024"><ele>244.0</ele><time>2026-05-03T10:43:09.999Z</time></trkpt><trkpt lat="42.2111050063904" lon="13.902002426522916"><ele>247.49999999999997</ele><time>2026-05-03T10:43:11.999Z</time></trkpt><trkpt lat="42.21103754560815" lon="13.902005677638908"><ele>251.0</ele><time>2026-05-03T10:43:13.999Z</time></trkpt><trkpt lat="42.21098098190328" lon="13.90196205119515"><ele>254.5</ele><time>2026-05-03T10:43:14.999Z</time></trkpt><trkpt lat="42.2108915368086" lon="13.901844124725143"><ele>258.0</ele><time>2026-05-03T10:43:16.999Z</time></trkpt><trkpt lat="42.21082049743338" lon="13.901773988767326"><ele>261.5</ele><time>2026-05-03T10:43:18.999Z</time></trkpt><trkpt lat="42.21075685684895" lon="13.90178358407028"><ele>265.0</ele><time>2026-05-03T10:43:21.999Z</time></trkpt><trkpt lat="42.2107541064841" lon="13.901869300096852"><ele>265.0</ele><time>2026-05-03T10:44:30Z</time></trkpt><trkpt lat="42.21079488091092" lon="13.90193503309833"><ele>265.0</ele><time>2026-05-03T10:44:40Z</time></trkpt><trkpt lat="42.210862347765975" lon="13.902029137694639"><ele>265.0</ele><time>2026-05-03T10:44:42Z</time></trkpt><trkpt lat="42.2109252309905" lon="13.90213060798808"><ele>265.0</ele><time>2026-05-03T10:44:44Z</time></trkpt><trkpt lat="42.210922563256176" lon="13.902258938343365"><ele>265.0</ele><time>2026-05-03T10:44:54Z</time></trkpt><trkpt lat="42.21093713683629" lon="13.902415366301904"><ele>265.0</ele><time>2026-05-03T10:44:56Z</time></trkpt><trkpt lat="42.21094588789271" lon="13.902556592882876"><ele>265.0</ele><time>2026-05-03T10:44:58Z</time></trkpt><trkpt lat="42.21095562993725" lon="13.902733283623334"><ele>265.0</ele><time>2026-05-03T10:45:00Z</time></trkpt><trkpt lat="42.210945199175306" lon="13.902840553941829"><ele>265.0</ele><time>2026-05-03T10:45:01Z</time></trkpt><trkpt lat="42.21093801864009" lon="13.902927881308287"><ele>265.0</ele><time>2026-05-03T10:45:02Z</time></trkpt><trkpt lat="42.210969556909944" lon="13.903091238821222"><ele>267.66666666666663</ele><time>2026-05-03T10:45:04Z</time></trkpt><trkpt lat="42.210998253158756" lon="13.903191061375301"><ele>270.3333333333333</ele><time>2026-05-03T10:45:05Z</time></trkpt><trkpt lat="42.211028964152995" lon="13.903279841487667"><ele>273.0</ele><time>2026-05-03T10:45:06Z</time></trkpt><trkpt lat="42.211072849910174" lon="13.903366505322472"><ele>275.6666666666667</ele><time>2026-05-03T10:45:07Z</time></trkpt><trkpt lat="42.21111480047762" lon="13.903467453202117"><ele>278.33333333333337</ele><time>2026-05-03T10:45:08Z</time></trkpt><trkpt lat="42.21114519565788" lon="13.903599424634569"><ele>281.0</ele><time>2026-05-03T10:45:09Z</time></trkpt><trkpt lat="42.21117533747502" lon="13.903752154930071"><ele>284.0</ele><time>2026-05-03T10:45:09.999Z</time></trkpt><trkpt lat="42.21120603467808" lon="13.903913348172297"><ele>287.0</ele><time>2026-05-03T10:45:10.999Z</time></trkpt><trkpt lat="42.21123254442761" lon="13.904069851294087"><ele>290.0</ele><time>2026-05-03T10:45:11.999Z</time></trkpt><trkpt lat="42.211262549047134" lon="13.90423945101827"><ele>293.0</ele><time>2026-05-03T10:45:12.999Z</time></trkpt><trkpt lat="42.21128982584861" lon="13.90440812811435"><ele>296.0</ele><time>2026-05-03T10:45:13.999Z</time></trkpt><trkpt lat="42.21132132493256" lon="13.904578346879807"><ele>299.0</ele><time>2026-05-03T10:45:14.999Z</time></trkpt><trkpt lat="42.21135809612004" lon="13.904749587521264"><ele>302.0</ele><time>2026-05-03T10:45:15.999Z</time></trkpt><trkpt lat="42.211395617213164" lon="13.904906614329796"><ele>305.0</ele><time>2026-05-03T10:45:16.999Z</time></trkpt><trkpt lat="42.2114257560168" lon="13.90505968558503"><ele>305.4</ele><time>2026-05-03T10:45:17.999Z</time></trkpt><trkpt lat="42.21145022822585" lon="13.905192671121036"><ele>305.8</ele><time>2026-05-03T10:45:18.999Z</time></trkpt><trkpt lat="42.21146916017906" lon="13.90531748355205"><ele>306.2</ele><time>2026-05-03T10:45:19.999Z</time></trkpt><trkpt lat="42.21148945709187" lon="13.905454454910702"><ele>306.6</ele><time>2026-05-03T10:45:20.999Z</time></trkpt><trkpt lat="42.21151527410984" lon="13.90557621540686"><ele>307.0</ele><time>2026-05-03T10:45:21.999Z</time></trkpt><trkpt lat="42.21153755484445" lon="13.905698486068767"><ele>307.0</ele><time>2026-05-03T10:45:22.999Z</time></trkpt><trkpt lat="42.21156412508112" lon="13.905823193210065"><ele>307.0</ele><time>2026-05-03T10:45:23.999Z</time></trkpt><trkpt lat="42.211591975739964" lon="13.905946528546378"><ele>307.0</ele><time>2026-05-03T10:45:24.999Z</time></trkpt><trkpt lat="42.211624532145954" lon="13.906080036829986"><ele>307.0</ele><time>2026-05-03T10:45:25.999Z</time></trkpt><trkpt lat="42.211666965278965" lon="13.90621551309785"><ele>307.0</ele><time>2026-05-03T10:45:26.999Z</time></trkpt><trkpt lat="42.21171283693921" lon="13.906337784552647"><ele>308.3333333333333</ele><time>2026-05-03T10:45:27.999Z</time></trkpt><trkpt lat="42.21175369033411" lon="13.906455782556797"><ele>309.66666666666663</ele><time>2026-05-03T10:45:28.999Z</time></trkpt><trkpt lat="42.21179362838421" lon="13.906573551760301"><ele>311.0</ele><time>2026-05-03T10:45:29.999Z</time></trkpt><trkpt lat="42.211822240354024" lon="13.906694976410614"><ele>312.3333333333333</ele><time>2026-05-03T10:45:30.999Z</time></trkpt><trkpt lat="42.21183607103235" lon="13.906803280679387"><ele>313.6666666666667</ele><time>2026-05-03T10:45:31.999Z</time></trkpt><trkpt lat="42.211854713830476" lon="13.906892330943482"><ele>315.0</ele><time>2026-05-03T10:45:32.999Z</time></trkpt><trkpt lat="42.21187531130873" lon="13.907016935097326"><ele>316.8333333333333</ele><time>2026-05-03T10:45:33.999Z</time></trkpt><trkpt lat="42.211895291926915" lon="13.907138613891904"><ele>318.6666666666667</ele><time>2026-05-03T10:45:34.999Z</time></trkpt><trkpt lat="42.21192872791267" lon="13.907247542794499"><ele>320.5</ele><time>2026-05-03T10:45:35.999Z</time></trkpt><trkpt lat="42.211974714967944" lon="13.907326768288971"><ele>322.33333333333337</ele><time>2026-05-03T10:45:36.999Z</time></trkpt><trkpt lat="42.21202926876931" lon="13.907399934394764"><ele>324.1666666666667</ele><time>2026-05-03T10:45:37.999Z</time></trkpt><trkpt lat="42.212091130318896" lon="13.907460352657315"><ele>326.0</ele><time>2026-05-03T10:45:38.999Z</time></trkpt><trkpt lat="42.21208449759238" lon="13.907671069715356"><ele>326.5</ele><time>2026-05-03T10:45:39.999Z</time></trkpt><trkpt lat="42.21209625582221" lon="13.907777243226592"><ele>327.0</ele><time>2026-05-03T10:45:40.999Z</time></trkpt><trkpt lat="42.212111114700186" lon="13.907905920078683"><ele>327.5</ele><time>2026-05-03T10:45:42Z</time></trkpt><trkpt lat="42.212119895792895" lon="13.908019898366502"><ele>328.0</ele><time>2026-05-03T10:45:43Z</time></trkpt><trkpt lat="42.21213103287603" lon="13.908158474469037"><ele>328.5</ele><time>2026-05-03T10:45:45Z</time></trkpt><trkpt lat="42.21214523539379" lon="13.908254470198516"><ele>329.0</ele><time>2026-05-03T10:45:48Z</time></trkpt><trkpt lat="42.21215315514999" lon="13.908372324008258"><ele>329.42857142857144</ele><time>2026-05-03T10:45:50Z</time></trkpt><trkpt lat="42.21215395038005" lon="13.908479768958863"><ele>329.8571428571429</ele><time>2026-05-03T10:45:51Z</time></trkpt><trkpt lat="42.21214351031186" lon="13.908587372514027"><ele>330.2857142857143</ele><time>2026-05-03T10:45:52Z</time></trkpt><trkpt lat="42.21213036796481" lon="13.908678911931847"><ele>330.7142857142857</ele><time>2026-05-03T10:45:53Z</time></trkpt><trkpt lat="42.212104263635396" lon="13.908769589059368"><ele>331.14285714285717</ele><time>2026-05-03T10:45:54Z</time></trkpt><trkpt lat="42.2120870009987" lon="13.908874637877371"><ele>331.57142857142856</ele><time>2026-05-03T10:45:55Z</time></trkpt><trkpt lat="42.21206550936985" lon="13.908955478560783"><ele>332.0</ele><time>2026-05-03T10:45:56Z</time></trkpt><trkpt lat="42.21202801636967" lon="13.909053957809098"><ele>332.0</ele><time>2026-05-03T10:45:57Z</time></trkpt><trkpt lat="42.211978251718286" lon="13.909162089998851"><ele>332.0</ele><time>2026-05-03T10:45:58Z</time></trkpt><trkpt lat="42.2119224448339" lon="13.909262915654157"><ele>332.0</ele><time>2026-05-03T10:45:59Z</time></trkpt><trkpt lat="42.211872689792045" lon="13.909363227466008"><ele>332.0</ele><time>2026-05-03T10:46:00Z</time></trkpt><trkpt lat="42.21182193603593" lon="13.909438958945367"><ele>332.0</ele><time>2026-05-03T10:46:01Z</time></trkpt><trkpt lat="42.21177554829858" lon="13.909499251068912"><ele>332.0</ele><time>2026-05-03T10:46:02Z</time></trkpt><trkpt lat="42.2117298002077" lon="13.909637084610349"><ele>332.6666666666667</ele><time>2026-05-03T10:46:04Z</time></trkpt><trkpt lat="42.211735385451966" lon="13.909738217526836"><ele>333.33333333333337</ele><time>2026-05-03T10:46:05Z</time></trkpt><trkpt lat="42.21175629968877" lon="13.909851356869364"><ele>334.0</ele><time>2026-05-03T10:46:06Z</time></trkpt><trkpt lat="42.21177017057301" lon="13.909950483744597"><ele>334.6666666666667</ele><time>2026-05-03T10:46:07Z</time></trkpt><trkpt lat="42.21178854047669" lon="13.91006555482439"><ele>335.3333333333333</ele><time>2026-05-03T10:46:08Z</time></trkpt><trkpt lat="42.21180147739375" lon="13.91020105651739"><ele>336.0</ele><time>2026-05-03T10:46:09Z</time></trkpt><trkpt lat="42.21180484062002" lon="13.910322218699818"><ele>336.0</ele><time>2026-05-03T10:46:10Z</time></trkpt><trkpt lat="42.211816762615506" lon="13.910424544995356"><ele>336.0</ele><time>2026-05-03T10:46:11Z</time></trkpt><trkpt lat="42.2118256462564" lon="13.910521102033414"><ele>336.0</ele><time>2026-05-03T10:46:12Z</time></trkpt><trkpt lat="42.21183059799156" lon="13.910634841333028"><ele>336.0</ele><time>2026-05-03T10:46:13Z</time></trkpt><trkpt lat="42.21182271996585" lon="13.910746173322252"><ele>336.0</ele><time>2026-05-03T10:46:14Z</time></trkpt><trkpt lat="42.211813398721006" lon="13.910851473313055"><ele>336.0</ele><time>2026-05-03T10:46:15Z</time></trkpt><trkpt lat="42.21180540015807" lon="13.910956852012465"><ele>336.0</ele><time>2026-05-03T10:46:16Z</time></trkpt><trkpt lat="42.21179796238354" lon="13.911071810010073"><ele>336.0</ele><time>2026-05-03T10:46:17Z</time></trkpt><trkpt lat="42.21177979008639" lon="13.911192355147366"><ele>336.0</ele><time>2026-05-03T10:46:18Z</time></trkpt><trkpt lat="42.21176936811774" lon="13.911303148178112"><ele>336.0</ele><time>2026-05-03T10:46:19Z</time></trkpt><trkpt lat="42.21176450589627" lon="13.911410463860442"><ele>336.0</ele><time>2026-05-03T10:46:20Z</time></trkpt><trkpt lat="42.21175976366784" lon="13.911517244935492"><ele>336.0</ele><time>2026-05-03T10:46:21Z</time></trkpt><trkpt lat="42.21175595361446" lon="13.91161016375475"><ele>336.0</ele><time>2026-05-03T10:46:22Z</time></trkpt><trkpt lat="42.211757576335025" lon="13.91172850178679"><ele>336.0</ele><time>2026-05-03T10:46:23Z</time></trkpt><trkpt lat="42.21177480076025" lon="13.911818795156503"><ele>336.0</ele><time>2026-05-03T10:46:24Z</time></trkpt><trkpt lat="42.211810399452574" lon="13.91190727544643"><ele>336.0</ele><time>2026-05-03T10:46:25Z</time></trkpt><trkpt lat="42.21186524391857" lon="13.912009721979413"><ele>336.0</ele><time>2026-05-03T10:46:26Z</time></trkpt><trkpt lat="42.211923235315396" lon="13.912090913782846"><ele>336.0</ele><time>2026-05-03T10:46:27Z</time></trkpt><trkpt lat="42.21196795988227" lon="13.912159551358242"><ele>336.1666666666667</ele><time>2026-05-03T10:46:28Z</time></trkpt><trkpt lat="42.21201840872146" lon="13.912222504665792"><ele>336.3333333333333</ele><time>2026-05-03T10:46:29Z</time></trkpt><trkpt lat="42.21206804445364" lon="13.912309933457575"><ele>336.5</ele><time>2026-05-03T10:46:30Z</time></trkpt><trkpt lat="42.212151485976946" lon="13.912397314636591"><ele>336.66666666666663</ele><time>2026-05-03T10:46:31Z</time></trkpt><trkpt lat="42.21221257680209" lon="13.912504243587644"><ele>336.8333333333333</ele><time>2026-05-03T10:46:32Z</time></trkpt><trkpt lat="42.21226755706725" lon="13.91258172797069"><ele>337.0</ele><time>2026-05-03T10:46:33Z</time></trkpt><trkpt lat="42.21233041791312" lon="13.912649797678204"><ele>337.0</ele><time>2026-05-03T10:46:34Z</time></trkpt><trkpt lat="42.21239926988169" lon="13.91270731047724"><ele>337.0</ele><time>2026-05-03T10:46:35Z</time></trkpt><trkpt lat="42.21247790005753" lon="13.912742249084701"><ele>337.0</ele><time>2026-05-03T10:46:36Z</time></trkpt><trkpt lat="42.21254798085387" lon="13.912789268076859"><ele>337.0</ele><time>2026-05-03T10:46:37Z</time></trkpt><trkpt lat="42.21261463870384" lon="13.912853560511856"><ele>337.0</ele><time>2026-05-03T10:46:38Z</time></trkpt><trkpt lat="42.21267809296532" lon="13.912899001686739"><ele>337.0</ele><time>2026-05-03T10:46:39Z</time></trkpt><trkpt lat="42.21273122233569" lon="13.912977734436868"><ele>337.0</ele><time>2026-05-03T10:46:41Z</time></trkpt><trkpt lat="42.21278511741357" lon="13.913027632660489"><ele>337.0</ele><time>2026-05-03T10:46:43Z</time></trkpt><trkpt lat="42.21288891614438" lon="13.913082390006604"><ele>337.0</ele><time>2026-05-03T10:46:45Z</time></trkpt><trkpt lat="42.21296632596382" lon="13.913121925704045"><ele>337.0</ele><time>2026-05-03T10:46:46Z</time></trkpt><trkpt lat="42.21306069270871" lon="13.913180082395694"><ele>337.0</ele><time>2026-05-03T10:46:47Z</time></trkpt><trkpt lat="42.21318467123614" lon="13.913240741726677"><ele>338.0</ele><time>2026-05-03T10:46:48Z</time></trkpt><trkpt lat="42.21330679481478" lon="13.913288312813608"><ele>339.0</ele><time>2026-05-03T10:46:49Z</time></trkpt><trkpt lat="42.21342495317529" lon="13.91331926641956"><ele>340.0</ele><time>2026-05-03T10:46:50Z</time></trkpt><trkpt lat="42.21353488164845" lon="13.913336597810604"><ele>341.0</ele><time>2026-05-03T10:46:51Z</time></trkpt><trkpt lat="42.21363006573638" lon="13.91335960958506"><ele>341.0</ele><time>2026-05-03T10:46:52Z</time></trkpt><trkpt lat="42.21371438041704" lon="13.913371476643787"><ele>341.0</ele><time>2026-05-03T10:46:53Z</time></trkpt><trkpt lat="42.21379653868071" lon="13.913375633743888"><ele>341.0</ele><time>2026-05-03T10:46:54Z</time></trkpt><trkpt lat="42.213871165787225" lon="13.913369516787897"><ele>341.0</ele><time>2026-05-03T10:46:55Z</time></trkpt><trkpt lat="42.213948219584914" lon="13.913370987220626"><ele>341.0</ele><time>2026-05-03T10:46:56Z</time></trkpt><trkpt lat="42.21403459925681" lon="13.913361904138318"><ele>341.0</ele><time>2026-05-03T10:46:57Z</time></trkpt><trkpt lat="42.21412617833488" lon="13.913341798372286"><ele>341.33333333333337</ele><time>2026-05-03T10:46:58Z</time></trkpt><trkpt lat="42.21420758214031" lon="13.913324206400924"><ele>341.6666666666667</ele><time>2026-05-03T10:46:59Z</time></trkpt><trkpt lat="42.21427609350888" lon="13.913302500531346"><ele>342.0</ele><time>2026-05-03T10:47:00Z</time></trkpt><trkpt lat="42.21434369689695" lon="13.913277482574939"><ele>342.3333333333333</ele><time>2026-05-03T10:47:01Z</time></trkpt><trkpt lat="42.21440944644891" lon="13.913244693926684"><ele>342.66666666666663</ele><time>2026-05-03T10:47:02Z</time></trkpt><trkpt lat="42.21446846496489" lon="13.913209692767763"><ele>343.0</ele><time>2026-05-03T10:47:04Z</time></trkpt><trkpt lat="42.21456989588029" lon="13.913155986357694"><ele>343.0</ele><time>2026-05-03T10:47:07Z</time></trkpt><trkpt lat="42.214682895706225" lon="13.913116335807468"><ele>343.0</ele><time>2026-05-03T10:47:09Z</time></trkpt><trkpt lat="42.2147816823946" lon="13.913094259611011"><ele>343.0</ele><time>2026-05-03T10:47:11Z</time></trkpt><trkpt lat="42.21490093266546" lon="13.913114475984187"><ele>343.0</ele><time>2026-05-03T10:47:13Z</time></trkpt><trkpt lat="42.21495972753874" lon="13.913168681967495"><ele>343.0</ele><time>2026-05-03T10:47:14Z</time></trkpt><trkpt lat="42.21501881032911" lon="13.913228206110837"><ele>342.2</ele><time>2026-05-03T10:47:15Z</time></trkpt><trkpt lat="42.21510327236694" lon="13.913272270693852"><ele>341.4</ele><time>2026-05-03T10:47:15.998Z</time></trkpt><trkpt lat="42.215183702873915" lon="13.913324052746995"><ele>340.59999999999997</ele><time>2026-05-03T10:47:16.998Z</time></trkpt><trkpt lat="42.21525125619177" lon="13.913374645299998"><ele>339.79999999999995</ele><time>2026-05-03T10:47:17.998Z</time></trkpt><trkpt lat="42.21534292670688" lon="13.91343835447616"><ele>339.0</ele><time>2026-05-03T10:47:18.998Z</time></trkpt><trkpt lat="42.21543800417376" lon="13.913506559097417"><ele>338.6</ele><time>2026-05-03T10:47:19.998Z</time></trkpt><trkpt lat="42.2155428054878" lon="13.913580996357314"><ele>338.2</ele><time>2026-05-03T10:47:20.998Z</time></trkpt><trkpt lat="42.21564032242198" lon="13.913645870017612"><ele>337.8</ele><time>2026-05-03T10:47:21.998Z</time></trkpt><trkpt lat="42.21573100403608" lon="13.913711423687781"><ele>337.40000000000003</ele><time>2026-05-03T10:47:22.998Z</time></trkpt><trkpt lat="42.21582247007507" lon="13.913779366377382"><ele>337.0</ele><time>2026-05-03T10:47:23.998Z</time></trkpt><trkpt lat="42.215916704032104" lon="13.91383937313404"><ele>336.6</ele><time>2026-05-03T10:47:24.999Z</time></trkpt><trkpt lat="42.21600607051863" lon="13.913905967249026"><ele>336.20000000000005</ele><time>2026-05-03T10:47:25.999Z</time></trkpt><trkpt lat="42.21609387891185" lon="13.913974695854748"><ele>335.8</ele><time>2026-05-03T10:47:26.999Z</time></trkpt><trkpt lat="42.21617874320873" lon="13.914035035357372"><ele>335.4</ele><time>2026-05-03T10:47:27.999Z</time></trkpt><trkpt lat="42.21626065418467" lon="13.914095712972877"><ele>335.0</ele><time>2026-05-03T10:47:28.999Z</time></trkpt><trkpt lat="42.21634508928006" lon="13.914156563704283"><ele>335.0</ele><time>2026-05-03T10:47:29.999Z</time></trkpt><trkpt lat="42.216423054114784" lon="13.914204310934746"><ele>335.0</ele><time>2026-05-03T10:47:30.999Z</time></trkpt><trkpt lat="42.216508348991745" lon="13.914266307660862"><ele>335.0</ele><time>2026-05-03T10:47:31.999Z</time></trkpt><trkpt lat="42.216591396198595" lon="13.914324162648676"><ele>335.0</ele><time>2026-05-03T10:47:32.999Z</time></trkpt><trkpt lat="42.216680467566995" lon="13.914383449950375"><ele>335.0</ele><time>2026-05-03T10:47:33.999Z</time></trkpt><trkpt lat="42.216780419899614" lon="13.914451976202852"><ele>333.2</ele><time>2026-05-03T10:47:34.999Z</time></trkpt><trkpt lat="42.21687597408407" lon="13.914521421055383"><ele>331.4</ele><time>2026-05-03T10:47:35.999Z</time></trkpt><trkpt lat="42.216941587672736" lon="13.914569388277663"><ele>329.6</ele><time>2026-05-03T10:47:36.999Z</time></trkpt><trkpt lat="42.21704478424882" lon="13.914652371075817"><ele>327.8</ele><time>2026-05-03T10:47:38.999Z</time></trkpt><trkpt lat="42.21713267306694" lon="13.914738123629673"><ele>326.0</ele><time>2026-05-03T10:47:40.999Z</time></trkpt><trkpt lat="42.21720269508108" lon="13.914776754080288"><ele>326.0</ele><time>2026-05-03T10:47:43.999Z</time></trkpt><trkpt lat="42.217127673331746" lon="13.914683067483235"><ele>326.0</ele><time>2026-05-03T10:47:48.999Z</time></trkpt><trkpt lat="42.217038430556016" lon="13.914639272602075"><ele>326.0</ele><time>2026-05-03T10:47:49.999Z</time></trkpt><trkpt lat="42.216946357549794" lon="13.914585205863293"><ele>326.0</ele><time>2026-05-03T10:47:50.999Z</time></trkpt><trkpt lat="42.21685809565754" lon="13.914534650793195"><ele>326.0</ele><time>2026-05-03T10:47:51.999Z</time></trkpt><trkpt lat="42.21677995681813" lon="13.914480517020513"><ele>326.0</ele><time>2026-05-03T10:47:52.999Z</time></trkpt><trkpt lat="42.216707451696394" lon="13.914433900223473"><ele>326.0</ele><time>2026-05-03T10:47:53.999Z</time></trkpt><trkpt lat="42.216631917511236" lon="13.914381715605423"><ele>326.0</ele><time>2026-05-03T10:47:54.999Z</time></trkpt><trkpt lat="42.216558536316015" lon="13.914332244610609"><ele>326.0</ele><time>2026-05-03T10:47:55.999Z</time></trkpt><trkpt lat="42.216494831069326" lon="13.914285363938829"><ele>326.0</ele><time>2026-05-03T10:47:56.999Z</time></trkpt><trkpt lat="42.216422052296885" lon="13.914233673124269"><ele>326.0</ele><time>2026-05-03T10:47:57.999Z</time></trkpt><trkpt lat="42.2163307353548" lon="13.914171479178046"><ele>326.6666666666667</ele><time>2026-05-03T10:47:58.999Z</time></trkpt><trkpt lat="42.21624642802047" lon="13.914110020976194"><ele>327.33333333333337</ele><time>2026-05-03T10:47:59.999Z</time></trkpt><trkpt lat="42.21614360288141" lon="13.914127264434732"><ele>328.0</ele><time>2026-05-03T10:48:01.999Z</time></trkpt><trkpt lat="42.21610953600746" lon="13.914210849734909"><ele>328.6666666666667</ele><time>2026-05-03T10:48:02.999Z</time></trkpt><trkpt lat="42.21608724298604" lon="13.914323738965097"><ele>329.3333333333333</ele><time>2026-05-03T10:48:03.999Z</time></trkpt><trkpt lat="42.21605129312704" lon="13.914422484239694"><ele>330.0</ele><time>2026-05-03T10:48:04.999Z</time></trkpt><trkpt lat="42.215992595770956" lon="13.914508940279125"><ele>330.0</ele><time>2026-05-03T10:48:05.999Z</time></trkpt><trkpt lat="42.215899254470195" lon="13.914574236027637"><ele>330.0</ele><time>2026-05-03T10:48:06.999Z</time></trkpt><trkpt lat="42.21578483569842" lon="13.914626194654689"><ele>330.0</ele><time>2026-05-03T10:48:07.999Z</time></trkpt><trkpt lat="42.21567391048366" lon="13.914713966983404"><ele>330.0</ele><time>2026-05-03T10:48:08.999Z</time></trkpt><trkpt lat="42.21557548771976" lon="13.914779976922064"><ele>330.4</ele><time>2026-05-03T10:48:09.999Z</time></trkpt><trkpt lat="42.21548641370261" lon="13.914843224275915"><ele>330.8</ele><time>2026-05-03T10:48:10.999Z</time></trkpt><trkpt lat="42.215395391666405" lon="13.914889710372588"><ele>331.20000000000005</ele><time>2026-05-03T10:48:11.999Z</time></trkpt><trkpt lat="42.21529923502007" lon="13.914922351746316"><ele>331.6</ele><time>2026-05-03T10:48:12.999Z</time></trkpt><trkpt lat="42.215209926884036" lon="13.91495510609751"><ele>332.0</ele><time>2026-05-03T10:48:14Z</time></trkpt><trkpt lat="42.21513340165093" lon="13.91499018582461"><ele>332.0</ele><time>2026-05-03T10:48:15Z</time></trkpt><trkpt lat="42.21507434622187" lon="13.915054798658367"><ele>332.0</ele><time>2026-05-03T10:48:16Z</time></trkpt><trkpt lat="42.21502110245095" lon="13.915133554116435"><ele>332.0</ele><time>2026-05-03T10:48:17Z</time></trkpt><trkpt lat="42.214952984111434" lon="13.915204608127038"><ele>332.0</ele><time>2026-05-03T10:48:18Z</time></trkpt><trkpt lat="42.214874822142384" lon="13.915280780310141"><ele>332.0</ele><time>2026-05-03T10:48:19Z</time></trkpt><trkpt lat="42.21479819094098" lon="13.915352863026499"><ele>332.0</ele><time>2026-05-03T10:48:20Z</time></trkpt><trkpt lat="42.21471714020042" lon="13.915416297681375"><ele>330.6</ele><time>2026-05-03T10:48:21Z</time></trkpt><trkpt lat="42.2146354332448" lon="13.915467528595162"><ele>329.20000000000005</ele><time>2026-05-03T10:48:22Z</time></trkpt><trkpt lat="42.214553040407196" lon="13.915522464229644"><ele>327.8</ele><time>2026-05-03T10:48:23Z</time></trkpt><trkpt lat="42.21446549135947" lon="13.915592959369683"><ele>326.4</ele><time>2026-05-03T10:48:24Z</time></trkpt><trkpt lat="42.21438468050121" lon="13.91567643990672"><ele>325.0</ele><time>2026-05-03T10:48:25Z</time></trkpt><trkpt lat="42.21430933327857" lon="13.915761641219966"><ele>325.0</ele><time>2026-05-03T10:48:26Z</time></trkpt><trkpt lat="42.214229383196304" lon="13.915853329481134"><ele>325.0</ele><time>2026-05-03T10:48:27Z</time></trkpt><trkpt lat="42.21414998589742" lon="13.915943055370684"><ele>325.0</ele><time>2026-05-03T10:48:28Z</time></trkpt><trkpt lat="42.214072741537215" lon="13.916026678023945"><ele>325.0</ele><time>2026-05-03T10:48:29Z</time></trkpt><trkpt lat="42.21399130580952" lon="13.916109258975855"><ele>325.0</ele><time>2026-05-03T10:48:30Z</time></trkpt><trkpt lat="42.213908091385235" lon="13.916187364547289"><ele>323.8</ele><time>2026-05-03T10:48:31Z</time></trkpt><trkpt lat="42.21381937963523" lon="13.916254364031538"><ele>322.6</ele><time>2026-05-03T10:48:32Z</time></trkpt><trkpt lat="42.21371878551816" lon="13.916327029157715"><ele>321.4</ele><time>2026-05-03T10:48:33Z</time></trkpt><trkpt lat="42.21362510630763" lon="13.916409678092458"><ele>320.2</ele><time>2026-05-03T10:48:34Z</time></trkpt><trkpt lat="42.213546722769784" lon="13.916510563742944"><ele>319.0</ele><time>2026-05-03T10:48:35Z</time></trkpt><trkpt lat="42.21349064365083" lon="13.916623666317664"><ele>319.5</ele><time>2026-05-03T10:48:36Z</time></trkpt><trkpt lat="42.21345430327875" lon="13.91675216520507"><ele>320.0</ele><time>2026-05-03T10:48:37Z</time></trkpt><trkpt lat="42.21345435892002" lon="13.916912278784816"><ele>320.5</ele><time>2026-05-03T10:48:38Z</time></trkpt><trkpt lat="42.21346586944818" lon="13.91707072269305"><ele>321.0</ele><time>2026-05-03T10:48:39Z</time></trkpt><trkpt lat="42.21347413565625" lon="13.91722896398512"><ele>321.0</ele><time>2026-05-03T10:48:40Z</time></trkpt><trkpt lat="42.21347696652105" lon="13.917388978912506"><ele>321.0</ele><time>2026-05-03T10:48:41Z</time></trkpt><trkpt lat="42.21347677264802" lon="13.917538812534891"><ele>321.0</ele><time>2026-05-03T10:48:42Z</time></trkpt><trkpt lat="42.21347375773182" lon="13.91767039640163"><ele>321.0</ele><time>2026-05-03T10:48:43Z</time></trkpt><trkpt lat="42.21346308144485" lon="13.917786676682528"><ele>321.0</ele><time>2026-05-03T10:48:44Z</time></trkpt><trkpt lat="42.21344602549059" lon="13.917890432982215"><ele>321.6666666666667</ele><time>2026-05-03T10:48:45Z</time></trkpt><trkpt lat="42.21343542241134" lon="13.917980143281152"><ele>322.3333333333333</ele><time>2026-05-03T10:48:46Z</time></trkpt><trkpt lat="42.213388981587975" lon="13.91811789126009"><ele>323.0</ele><time>2026-05-03T10:48:48Z</time></trkpt><trkpt lat="42.21335811962257" lon="13.918214034580934"><ele>323.66666666666663</ele><time>2026-05-03T10:48:50Z</time></trkpt><trkpt lat="42.213325512163095" lon="13.918365097106262"><ele>324.3333333333333</ele><time>2026-05-03T10:48:52Z</time></trkpt><trkpt lat="42.21331616167344" lon="13.918460903518394"><ele>325.0</ele><time>2026-05-03T10:48:55Z</time></trkpt><trkpt lat="42.2133440408885" lon="13.91834702150424"><ele>325.0</ele><time>2026-05-03T10:49:00Z</time></trkpt><trkpt lat="42.21335498883038" lon="13.918239552916935"><ele>325.0</ele><time>2026-05-03T10:49:01Z</time></trkpt><trkpt lat="42.213408988378404" lon="13.91817721645275"><ele>325.0</ele><time>2026-05-03T10:49:02Z</time></trkpt><trkpt lat="42.21347915409588" lon="13.918143700620938"><ele>325.0</ele><time>2026-05-03T10:49:03Z</time></trkpt><trkpt lat="42.21357683557208" lon="13.918143561707053"><ele>325.0</ele><time>2026-05-03T10:49:04Z</time></trkpt><trkpt lat="42.21367304251102" lon="13.918195963320604"><ele>325.0</ele><time>2026-05-03T10:49:05Z</time></trkpt><trkpt lat="42.21378349044504" lon="13.91826582492937"><ele>325.0</ele><time>2026-05-03T10:49:06Z</time></trkpt><trkpt lat="42.21388916108437" lon="13.918477695820973"><ele>325.0</ele><time>2026-05-03T10:49:08Z</time></trkpt><trkpt lat="42.21395453047226" lon="13.918607864627404"><ele>325.0</ele><time>2026-05-03T10:49:09Z</time></trkpt><trkpt lat="42.21402494827326" lon="13.918722879065806"><ele>325.0</ele><time>2026-05-03T10:49:10Z</time></trkpt><trkpt lat="42.21409445313838" lon="13.918817949856649"><ele>324.75</ele><time>2026-05-03T10:49:11Z</time></trkpt><trkpt lat="42.214167731815" lon="13.918902023118326"><ele>324.5</ele><time>2026-05-03T10:49:12Z</time></trkpt><trkpt lat="42.21425799105418" lon="13.919002303164318"><ele>324.25</ele><time>2026-05-03T10:49:13Z</time></trkpt><trkpt lat="42.214368767955825" lon="13.919109337687889"><ele>324.0</ele><time>2026-05-03T10:49:14Z</time></trkpt><trkpt lat="42.21449589313481" lon="13.919223192025619"><ele>323.6666666666667</ele><time>2026-05-03T10:49:15Z</time></trkpt><trkpt lat="42.21463186751157" lon="13.919339165830449"><ele>323.33333333333337</ele><time>2026-05-03T10:49:16Z</time></trkpt><trkpt lat="42.21477755474517" lon="13.91944614733341"><ele>323.0</ele><time>2026-05-03T10:49:17Z</time></trkpt><trkpt lat="42.21491098563483" lon="13.919541230361531"><ele>323.0</ele><time>2026-05-03T10:49:18Z</time></trkpt><trkpt lat="42.215035355377665" lon="13.919648094843634"><ele>323.0</ele><time>2026-05-03T10:49:19Z</time></trkpt><trkpt lat="42.21515352395637" lon="13.919752751454764"><ele>323.0</ele><time>2026-05-03T10:49:20Z</time></trkpt><trkpt lat="42.215268622295646" lon="13.919863504066225"><ele>323.0</ele><time>2026-05-03T10:49:21Z</time></trkpt><trkpt lat="42.2153882945692" lon="13.91998324086007"><ele>322.75</ele><time>2026-05-03T10:49:21.999Z</time></trkpt><trkpt lat="42.21549865976381" lon="13.920090048959986"><ele>322.5</ele><time>2026-05-03T10:49:22.999Z</time></trkpt><trkpt lat="42.215621438465554" lon="13.920209456119114"><ele>322.25</ele><time>2026-05-03T10:49:23.999Z</time></trkpt><trkpt lat="42.215737269896835" lon="13.920335943500499"><ele>322.0</ele><time>2026-05-03T10:49:24.999Z</time></trkpt><trkpt lat="42.2158404140619" lon="13.920454623899044"><ele>321.5</ele><time>2026-05-03T10:49:25.999Z</time></trkpt><trkpt lat="42.215947385024975" lon="13.920561156931765"><ele>321.0</ele><time>2026-05-03T10:49:26.999Z</time></trkpt><trkpt lat="42.216056571676255" lon="13.920673863184346"><ele>320.5</ele><time>2026-05-03T10:49:27.999Z</time></trkpt><trkpt lat="42.21614876492893" lon="13.920797267398823"><ele>320.0</ele><time>2026-05-03T10:49:28.999Z</time></trkpt><trkpt lat="42.216254563794735" lon="13.920955489534979"><ele>319.75</ele><time>2026-05-03T10:49:29.999Z</time></trkpt><trkpt lat="42.2163477130641" lon="13.921103797942386"><ele>319.5</ele><time>2026-05-03T10:49:30.999Z</time></trkpt><trkpt lat="42.2164414401101" lon="13.921238580076503"><ele>319.25</ele><time>2026-05-03T10:49:31.999Z</time></trkpt><trkpt lat="42.21653256749561" lon="13.921364176244426"><ele>319.0</ele><time>2026-05-03T10:49:32.999Z</time></trkpt><trkpt lat="42.216624124359846" lon="13.921484210777384"><ele>319.0</ele><time>2026-05-03T10:49:33.999Z</time></trkpt><trkpt lat="42.21671482214004" lon="13.921596164165235"><ele>319.0</ele><time>2026-05-03T10:49:34.999Z</time></trkpt><trkpt lat="42.21681749536477" lon="13.921707157852648"><ele>319.0</ele><time>2026-05-03T10:49:35.999Z</time></trkpt><trkpt lat="42.21690963482484" lon="13.921814922514173"><ele>319.0</ele><time>2026-05-03T10:49:36.999Z</time></trkpt><trkpt lat="42.21699038022959" lon="13.921937778420366"><ele>318.5</ele><time>2026-05-03T10:49:37.999Z</time></trkpt><trkpt lat="42.21705597213142" lon="13.922078087742099"><ele>318.0</ele><time>2026-05-03T10:49:38.999Z</time></trkpt><trkpt lat="42.21710722286931" lon="13.922234069211035"><ele>317.5</ele><time>2026-05-03T10:49:39.999Z</time></trkpt><trkpt lat="42.217158983591816" lon="13.92240955601407"><ele>317.0</ele><time>2026-05-03T10:49:40.999Z</time></trkpt><trkpt lat="42.21721335024065" lon="13.922588725672227"><ele>316.0</ele><time>2026-05-03T10:49:41.999Z</time></trkpt><trkpt lat="42.21726251548665" lon="13.922755083426132"><ele>315.0</ele><time>2026-05-03T10:49:42.999Z</time></trkpt><trkpt lat="42.21731083319151" lon="13.922910367850163"><ele>314.0</ele><time>2026-05-03T10:49:43.999Z</time></trkpt><trkpt lat="42.21736118596003" lon="13.923051669841973"><ele>313.0</ele><time>2026-05-03T10:49:44.999Z</time></trkpt><trkpt lat="42.21741706833659" lon="13.923167651699643"><ele>312.5</ele><time>2026-05-03T10:49:45.999Z</time></trkpt><trkpt lat="42.217494788731635" lon="13.923255411963927"><ele>312.0</ele><time>2026-05-03T10:49:46.999Z</time></trkpt><trkpt lat="42.217590402281466" lon="13.923330873590492"><ele>311.5</ele><time>2026-05-03T10:49:47.999Z</time></trkpt><trkpt lat="42.217689377836614" lon="13.923412435243343"><ele>311.0</ele><time>2026-05-03T10:49:48.999Z</time></trkpt><trkpt lat="42.21780304791021" lon="13.923493533035908"><ele>310.25</ele><time>2026-05-03T10:49:49.999Z</time></trkpt><trkpt lat="42.21792566744775" lon="13.923570892865845"><ele>309.5</ele><time>2026-05-03T10:49:50.999Z</time></trkpt><trkpt lat="42.21805141430572" lon="13.923655528584483"><ele>308.75</ele><time>2026-05-03T10:49:51.999Z</time></trkpt><trkpt lat="42.218176486221665" lon="13.923764950368994"><ele>308.0</ele><time>2026-05-03T10:49:52.999Z</time></trkpt><trkpt lat="42.21828808583762" lon="13.923881647765285"><ele>308.0</ele><time>2026-05-03T10:49:53.999Z</time></trkpt><trkpt lat="42.21839757910708" lon="13.923984688870434"><ele>308.0</ele><time>2026-05-03T10:49:54.999Z</time></trkpt><trkpt lat="42.21851417639812" lon="13.924076534361562"><ele>308.0</ele><time>2026-05-03T10:49:55.999Z</time></trkpt><trkpt lat="42.218631101573486" lon="13.924165827641469"><ele>308.0</ele><time>2026-05-03T10:49:56.999Z</time></trkpt><trkpt lat="42.218739874637144" lon="13.924247155893282"><ele>307.25</ele><time>2026-05-03T10:49:57.999Z</time></trkpt><trkpt lat="42.21884278063236" lon="13.924307022833384"><ele>306.5</ele><time>2026-05-03T10:49:58.999Z</time></trkpt><trkpt lat="42.218955612510776" lon="13.924350669595249"><ele>305.75</ele><time>2026-05-03T10:49:59.999Z</time></trkpt><trkpt lat="42.21907041455081" lon="13.924398900551857"><ele>305.0</ele><time>2026-05-03T10:50:00.999Z</time></trkpt><trkpt lat="42.21917245058113" lon="13.924456773342262"><ele>304.4</ele><time>2026-05-03T10:50:01.999Z</time></trkpt><trkpt lat="42.21925384023191" lon="13.924511526742153"><ele>303.8</ele><time>2026-05-03T10:50:02.999Z</time></trkpt><trkpt lat="42.219331614909706" lon="13.924589877295123"><ele>303.2</ele><time>2026-05-03T10:50:03.999Z</time></trkpt><trkpt lat="42.21940959303063" lon="13.92468971493873"><ele>302.6</ele><time>2026-05-03T10:50:04.999Z</time></trkpt><trkpt lat="42.21947833644142" lon="13.924797296620284"><ele>302.0</ele><time>2026-05-03T10:50:05.999Z</time></trkpt><trkpt lat="42.21953674754122" lon="13.924884850596781"><ele>302.0</ele><time>2026-05-03T10:50:06.999Z</time></trkpt><trkpt lat="42.21960081840337" lon="13.924985720073352"><ele>302.0</ele><time>2026-05-03T10:50:07.999Z</time></trkpt><trkpt lat="42.21965778422738" lon="13.92505960211601"><ele>302.0</ele><time>2026-05-03T10:50:09Z</time></trkpt><trkpt lat="42.219714981807535" lon="13.925138660951195"><ele>302.0</ele><time>2026-05-03T10:50:10Z</time></trkpt><trkpt lat="42.21977009420555" lon="13.925212627905653"><ele>302.0</ele><time>2026-05-03T10:50:11Z</time></trkpt><trkpt lat="42.219829292259924" lon="13.925299673704115"><ele>302.0</ele><time>2026-05-03T10:50:12Z</time></trkpt><trkpt lat="42.21989064133912" lon="13.925373792737242"><ele>301.33333333333337</ele><time>2026-05-03T10:50:13Z</time></trkpt><trkpt lat="42.219953382955204" lon="13.925440360644288"><ele>300.6666666666667</ele><time>2026-05-03T10:50:14Z</time></trkpt><trkpt lat="42.22002257156634" lon="13.92550822814694"><ele>300.0</ele><time>2026-05-03T10:50:15Z</time></trkpt><trkpt lat="42.2200990930856" lon="13.925573347722656"><ele>299.3333333333333</ele><time>2026-05-03T10:50:16Z</time></trkpt><trkpt lat="42.22019426546362" lon="13.925611865530595"><ele>298.66666666666663</ele><time>2026-05-03T10:50:17Z</time></trkpt><trkpt lat="42.220285535080876" lon="13.925617895730188"><ele>298.0</ele><time>2026-05-03T10:50:18Z</time></trkpt><trkpt lat="42.22037791323215" lon="13.925603338369426"><ele>298.0</ele><time>2026-05-03T10:50:19Z</time></trkpt><trkpt lat="42.2204609914798" lon="13.925605149303832"><ele>298.0</ele><time>2026-05-03T10:50:20Z</time></trkpt><trkpt lat="42.22053561816391" lon="13.92563368675248"><ele>298.0</ele><time>2026-05-03T10:50:22Z</time></trkpt><trkpt lat="42.220607066657806" lon="13.925750701997128"><ele>298.0</ele><time>2026-05-03T10:50:25Z</time></trkpt><trkpt lat="42.220661314505676" lon="13.925814173696725"><ele>298.0</ele><time>2026-05-03T10:50:27Z</time></trkpt><trkpt lat="42.22070913429452" lon="13.925887102520614"><ele>298.0</ele><time>2026-05-03T10:50:30Z</time></trkpt><trkpt lat="42.22076523629193" lon="13.925938551274838"><ele>295.6</ele><time>2026-05-03T10:50:32Z</time></trkpt><trkpt lat="42.22085356150599" lon="13.926020093760142"><ele>293.20000000000005</ele><time>2026-05-03T10:50:34Z</time></trkpt><trkpt lat="42.22089403434635" lon="13.926179650889768"><ele>290.8</ele><time>2026-05-03T10:50:36Z</time></trkpt><trkpt lat="42.22090898032676" lon="13.926329174578363"><ele>288.40000000000003</ele><time>2026-05-03T10:50:38Z</time></trkpt><trkpt lat="42.22091422293615" lon="13.926210164521338"><ele>286.0</ele><time>2026-05-03T10:50:47Z</time></trkpt><trkpt lat="42.220871162633074" lon="13.926114742130396"><ele>286.0</ele><time>2026-05-03T10:50:48Z</time></trkpt><trkpt lat="42.22083509446701" lon="13.926003254811459"><ele>286.0</ele><time>2026-05-03T10:50:49Z</time></trkpt><trkpt lat="42.22079221511785" lon="13.92591705723838"><ele>286.0</ele><time>2026-05-03T10:50:50Z</time></trkpt><trkpt lat="42.22073167959008" lon="13.925879471013053"><ele>286.0</ele><time>2026-05-03T10:50:51Z</time></trkpt><trkpt lat="42.220662753691975" lon="13.925816726031183"><ele>286.0</ele><time>2026-05-03T10:50:52Z</time></trkpt><trkpt lat="42.220613097858475" lon="13.925759071178316"><ele>286.0</ele><time>2026-05-03T10:50:53Z</time></trkpt><trkpt lat="42.22055200015544" lon="13.925663186401842"><ele>287.0</ele><time>2026-05-03T10:50:55Z</time></trkpt><trkpt lat="42.220611406987025" lon="13.925607816506282"><ele>288.0</ele><time>2026-05-03T10:50:57Z</time></trkpt><trkpt lat="42.220678822961005" lon="13.925583614384585"><ele>289.0</ele><time>2026-05-03T10:50:58Z</time></trkpt><trkpt lat="42.22076544240753" lon="13.925554804241846"><ele>290.0</ele><time>2026-05-03T10:50:59Z</time></trkpt><trkpt lat="42.220839253274285" lon="13.925530476067472"><ele>291.0</ele><time>2026-05-03T10:51:00Z</time></trkpt><trkpt lat="42.22090784333131" lon="13.925512378173918"><ele>292.0</ele><time>2026-05-03T10:51:01Z</time></trkpt><trkpt lat="42.22098437996106" lon="13.92550790332375"><ele>292.0</ele><time>2026-05-03T10:51:02Z</time></trkpt><trkpt lat="42.22106966334814" lon="13.925526293873784"><ele>292.0</ele><time>2026-05-03T10:51:03Z</time></trkpt><trkpt lat="42.221158669728105" lon="13.925533299389723"><ele>292.0</ele><time>2026-05-03T10:51:04Z</time></trkpt><trkpt lat="42.22124827948093" lon="13.925537036980746"><ele>292.0</ele><time>2026-05-03T10:51:05Z</time></trkpt><trkpt lat="42.22133705391863" lon="13.925545977076586"><ele>292.0</ele><time>2026-05-03T10:51:06Z</time></trkpt><trkpt lat="42.221426751503195" lon="13.925544103721549"><ele>292.0</ele><time>2026-05-03T10:51:07Z</time></trkpt><trkpt lat="42.221514242960815" lon="13.925548280555741"><ele>290.3333333333333</ele><time>2026-05-03T10:51:08Z</time></trkpt><trkpt lat="42.22160688828302" lon="13.925551611614619"><ele>288.66666666666663</ele><time>2026-05-03T10:51:09Z</time></trkpt><trkpt lat="42.22169344860882" lon="13.925563948344786"><ele>287.0</ele><time>2026-05-03T10:51:10Z</time></trkpt><trkpt lat="42.22177299038562" lon="13.925586383732997"><ele>285.3333333333333</ele><time>2026-05-03T10:51:11Z</time></trkpt><trkpt lat="42.22185450269082" lon="13.925606846595276"><ele>283.6666666666667</ele><time>2026-05-03T10:51:12Z</time></trkpt><trkpt lat="42.22193243688641" lon="13.925623283651657"><ele>282.0</ele><time>2026-05-03T10:51:13Z</time></trkpt><trkpt lat="42.22200900885294" lon="13.925639284381761"><ele>282.0</ele><time>2026-05-03T10:51:14Z</time></trkpt><trkpt lat="42.22209053520914" lon="13.925678661337324"><ele>282.0</ele><time>2026-05-03T10:51:15Z</time></trkpt><trkpt lat="42.22215330721813" lon="13.92571766114176"><ele>282.0</ele><time>2026-05-03T10:51:16Z</time></trkpt><trkpt lat="42.222254981824875" lon="13.92575419782675"><ele>282.0</ele><time>2026-05-03T10:51:18Z</time></trkpt><trkpt lat="42.222317314648215" lon="13.925798573212674"><ele>282.0</ele><time>2026-05-03T10:51:19Z</time></trkpt><trkpt lat="42.222377201158665" lon="13.92582775700154"><ele>282.0</ele><time>2026-05-03T10:51:20Z</time></trkpt><trkpt lat="42.22245306586748" lon="13.925851270720942"><ele>280.0</ele><time>2026-05-03T10:51:21Z</time></trkpt><trkpt lat="42.22252816990754" lon="13.925866427827588"><ele>278.0</ele><time>2026-05-03T10:51:22Z</time></trkpt><trkpt lat="42.22259879162768" lon="13.925857709682315"><ele>276.0</ele><time>2026-05-03T10:51:23Z</time></trkpt><trkpt lat="42.2226675584272" lon="13.925836042194"><ele>274.0</ele><time>2026-05-03T10:51:24Z</time></trkpt><trkpt lat="42.22273129433033" lon="13.925824585970108"><ele>272.0</ele><time>2026-05-03T10:51:25Z</time></trkpt><trkpt lat="42.22282153063751" lon="13.925821732069435"><ele>270.0</ele><time>2026-05-03T10:51:27Z</time></trkpt><trkpt lat="42.222886775983376" lon="13.925872517660165"><ele>268.0</ele><time>2026-05-03T10:51:28.999Z</time></trkpt><trkpt lat="42.222952471523925" lon="13.925927412763475"><ele>265.8</ele><time>2026-05-03T10:51:30.999Z</time></trkpt><trkpt lat="42.22295448848759" lon="13.926068111111398"><ele>263.6</ele><time>2026-05-03T10:51:32.999Z</time></trkpt><trkpt lat="42.22290890022038" lon="13.926200278670388"><ele>261.4</ele><time>2026-05-03T10:51:34.999Z</time></trkpt><trkpt lat="42.22286390918151" lon="13.926317555560196"><ele>259.2</ele><time>2026-05-03T10:51:36.999Z</time></trkpt><trkpt lat="42.222825711416164" lon="13.926465997549096"><ele>257.0</ele><time>2026-05-03T10:51:38.999Z</time></trkpt><trkpt lat="42.2227670027784" lon="13.926624251845261"><ele>257.0</ele><time>2026-05-03T10:51:40.999Z</time></trkpt><trkpt lat="42.2227366256402" lon="13.926710170757104"><ele>257.0</ele><time>2026-05-03T10:51:41.999Z</time></trkpt><trkpt lat="42.22271227065628" lon="13.92680346669223"><ele>257.0</ele><time>2026-05-03T10:51:42.999Z</time></trkpt><trkpt lat="42.22268918267308" lon="13.926894862237111"><ele>257.0</ele><time>2026-05-03T10:51:43.999Z</time></trkpt><trkpt lat="42.22264488210822" lon="13.927041635683189"><ele>257.0</ele><time>2026-05-03T10:51:45.999Z</time></trkpt><trkpt lat="42.22259633400819" lon="13.927160800555757"><ele>257.0</ele><time>2026-05-03T10:51:47.999Z</time></trkpt><trkpt lat="42.22255251494971" lon="13.927246715246804"><ele>255.0</ele><time>2026-05-03T10:51:49.999Z</time></trkpt><trkpt lat="42.22250285216972" lon="13.927391836682203"><ele>253.0</ele><time>2026-05-03T10:51:51.999Z</time></trkpt><trkpt lat="42.22247159011884" lon="13.92747933965557"><ele>251.0</ele><time>2026-05-03T10:51:52.999Z</time></trkpt><trkpt lat="42.22244303302147" lon="13.927563233807764"><ele>249.0</ele><time>2026-05-03T10:51:53.999Z</time></trkpt><trkpt lat="42.222388767943414" lon="13.92771496977822"><ele>247.0</ele><time>2026-05-03T10:51:56Z</time></trkpt><trkpt lat="42.222367599104196" lon="13.927808827499828"><ele>247.57142857142858</ele><time>2026-05-03T10:51:57Z</time></trkpt><trkpt lat="42.222343737218466" lon="13.927893797962216"><ele>248.1428571428571</ele><time>2026-05-03T10:51:58Z</time></trkpt><trkpt lat="42.222316636615666" lon="13.927974634187564"><ele>248.7142857142857</ele><time>2026-05-03T10:51:59Z</time></trkpt><trkpt lat="42.22228752521001" lon="13.928052433164506"><ele>249.28571428571428</ele><time>2026-05-03T10:52:00Z</time></trkpt><trkpt lat="42.22225618438328" lon="13.928130830099834"><ele>249.85714285714283</ele><time>2026-05-03T10:52:01Z</time></trkpt><trkpt lat="42.2222312310192" lon="13.928209844092132"><ele>250.4285714285714</ele><time>2026-05-03T10:52:02Z</time></trkpt><trkpt lat="42.22220061238673" lon="13.928294960211288"><ele>250.99999999999997</ele><time>2026-05-03T10:52:03Z</time></trkpt><trkpt lat="42.222169680857995" lon="13.928387915327091"><ele>250.33333333333334</ele><time>2026-05-03T10:52:04Z</time></trkpt><trkpt lat="42.222140294043705" lon="13.928468984004008"><ele>249.66666666666669</ele><time>2026-05-03T10:52:05Z</time></trkpt><trkpt lat="42.22210114089431" lon="13.928554425776344"><ele>249.0</ele><time>2026-05-03T10:52:06Z</time></trkpt><trkpt lat="42.22206126860725" lon="13.92863979811173"><ele>248.33333333333331</ele><time>2026-05-03T10:52:07Z</time></trkpt><trkpt lat="42.22202069595323" lon="13.92872684546936"><ele>247.66666666666666</ele><time>2026-05-03T10:52:08Z</time></trkpt><trkpt lat="42.221969747904645" lon="13.928844554222952"><ele>247.0</ele><time>2026-05-03T10:52:09Z</time></trkpt><trkpt lat="42.221908609082696" lon="13.92898770250345"><ele>247.0</ele><time>2026-05-03T10:52:10Z</time></trkpt><trkpt lat="42.22183659462732" lon="13.929159435551881"><ele>247.0</ele><time>2026-05-03T10:52:11Z</time></trkpt><trkpt lat="42.22174332525444" lon="13.929395908676383"><ele>247.0</ele><time>2026-05-03T10:52:12Z</time></trkpt><trkpt lat="42.22164277896258" lon="13.929630987891954"><ele>246.33333333333331</ele><time>2026-05-03T10:52:13Z</time></trkpt><trkpt lat="42.221532637111984" lon="13.929883394259589"><ele>245.66666666666669</ele><time>2026-05-03T10:52:14Z</time></trkpt><trkpt lat="42.22142608700749" lon="13.93012495883407"><ele>245.0</ele><time>2026-05-03T10:52:15Z</time></trkpt><trkpt lat="42.22132017105121" lon="13.930350493099406"><ele>250.66666666666669</ele><time>2026-05-03T10:52:16Z</time></trkpt><trkpt lat="42.22121884038662" lon="13.930523229271948"><ele>256.3333333333333</ele><time>2026-05-03T10:52:17Z</time></trkpt><trkpt lat="42.22110180212176" lon="13.930661769475075"><ele>262.0</ele><time>2026-05-03T10:52:18Z</time></trkpt><trkpt lat="42.22098047264662" lon="13.930759168464487"><ele>262.0</ele><time>2026-05-03T10:52:19Z</time></trkpt><trkpt lat="42.22088052433142" lon="13.930814569553423"><ele>262.0</ele><time>2026-05-03T10:52:20Z</time></trkpt><trkpt lat="42.22079027791243" lon="13.93085282901952"><ele>262.0</ele><time>2026-05-03T10:52:21Z</time></trkpt><trkpt lat="42.220698677631184" lon="13.93087228716047"><ele>262.0</ele><time>2026-05-03T10:52:22Z</time></trkpt><trkpt lat="42.220618796195794" lon="13.93087840176858"><ele>262.0</ele><time>2026-05-03T10:52:23Z</time></trkpt><trkpt lat="42.22055265115937" lon="13.930886932069434"><ele>262.0</ele><time>2026-05-03T10:52:24Z</time></trkpt><trkpt lat="42.220488695558686" lon="13.930963679780474"><ele>260.5</ele><time>2026-05-03T10:52:26Z</time></trkpt><trkpt lat="42.220429864807" lon="13.931005042459368"><ele>259.0</ele><time>2026-05-03T10:52:27Z</time></trkpt><trkpt lat="42.22032364649562" lon="13.93103721265626"><ele>257.5</ele><time>2026-05-03T10:52:28Z</time></trkpt><trkpt lat="42.2201761352183" lon="13.931016480005125"><ele>256.0</ele><time>2026-05-03T10:52:29Z</time></trkpt><trkpt lat="42.22003086337414" lon="13.930991444667223"><ele>256.0</ele><time>2026-05-03T10:52:30Z</time></trkpt><trkpt lat="42.219880877519756" lon="13.930947933456942"><ele>256.0</ele><time>2026-05-03T10:52:31Z</time></trkpt><trkpt lat="42.21974563268117" lon="13.930885141846167"><ele>256.0</ele><time>2026-05-03T10:52:32Z</time></trkpt><trkpt lat="42.219634513637956" lon="13.930828362532589"><ele>256.0</ele><time>2026-05-03T10:52:33Z</time></trkpt><trkpt lat="42.21955120584001" lon="13.9307817200921"><ele>255.83333333333331</ele><time>2026-05-03T10:52:34Z</time></trkpt><trkpt lat="42.21948431715122" lon="13.930749809938137"><ele>255.66666666666666</ele><time>2026-05-03T10:52:35Z</time></trkpt><trkpt lat="42.219397321850295" lon="13.930720471538327"><ele>255.5</ele><time>2026-05-03T10:52:37Z</time></trkpt><trkpt lat="42.21938353968962" lon="13.930826131178803"><ele>255.33333333333331</ele><time>2026-05-03T10:52:40Z</time></trkpt><trkpt lat="42.21945558939602" lon="13.930873987816355"><ele>255.16666666666666</ele><time>2026-05-03T10:52:41Z</time></trkpt><trkpt lat="42.21957323566945" lon="13.930881125139965"><ele>255.0</ele><time>2026-05-03T10:52:42Z</time></trkpt><trkpt lat="42.21970548651917" lon="13.930911116984364"><ele>255.25</ele><time>2026-05-03T10:52:43Z</time></trkpt><trkpt lat="42.21984779699146" lon="13.930956426381895"><ele>255.5</ele><time>2026-05-03T10:52:44Z</time></trkpt><trkpt lat="42.21998858143182" lon="13.931005676898065"><ele>255.75</ele><time>2026-05-03T10:52:45Z</time></trkpt><trkpt lat="42.22011909209987" lon="13.931032300731804"><ele>256.0</ele><time>2026-05-03T10:52:46Z</time></trkpt><trkpt lat="42.22024111612359" lon="13.931039346065754"><ele>256.0</ele><time>2026-05-03T10:52:47Z</time></trkpt><trkpt lat="42.2203593819544" lon="13.931040775709526"><ele>256.0</ele><time>2026-05-03T10:52:48Z</time></trkpt><trkpt lat="42.22045660847885" lon="13.931043760477408"><ele>256.0</ele><time>2026-05-03T10:52:49Z</time></trkpt><trkpt lat="42.22052673602457" lon="13.931067370032329"><ele>256.0</ele><time>2026-05-03T10:52:50Z</time></trkpt><trkpt lat="42.22059969832432" lon="13.931265814122716"><ele>256.0</ele><time>2026-05-03T10:52:52Z</time></trkpt><trkpt lat="42.220644844600926" lon="13.931412451990015"><ele>256.0</ele><time>2026-05-03T10:52:53Z</time></trkpt><trkpt lat="42.22068227685875" lon="13.931604284496947"><ele>256.0</ele><time>2026-05-03T10:52:54Z</time></trkpt><trkpt lat="42.2207248407494" lon="13.931786316170628"><ele>256.0</ele><time>2026-05-03T10:52:55Z</time></trkpt><trkpt lat="42.220768824827125" lon="13.931967230459586"><ele>254.25</ele><time>2026-05-03T10:52:56Z</time></trkpt><trkpt lat="42.220808956562905" lon="13.932134483381741"><ele>252.5</ele><time>2026-05-03T10:52:57Z</time></trkpt><trkpt lat="42.22084668430499" lon="13.932282095655767"><ele>250.75</ele><time>2026-05-03T10:52:58Z</time></trkpt><trkpt lat="42.220893047653206" lon="13.93241344953585"><ele>249.0</ele><time>2026-05-03T10:52:59Z</time></trkpt><trkpt lat="42.22096009361212" lon="13.932534573644693"><ele>246.75</ele><time>2026-05-03T10:53:00Z</time></trkpt><trkpt lat="42.22104779954568" lon="13.932652166019519"><ele>244.5</ele><time>2026-05-03T10:53:01Z</time></trkpt><trkpt lat="42.221143492367666" lon="13.932759008581346"><ele>242.25</ele><time>2026-05-03T10:53:02Z</time></trkpt><trkpt lat="42.221241957690005" lon="13.932874338177886"><ele>240.0</ele><time>2026-05-03T10:53:03Z</time></trkpt><trkpt lat="42.221334959686025" lon="13.932996149105563"><ele>240.0</ele><time>2026-05-03T10:53:04Z</time></trkpt><trkpt lat="42.22142343162293" lon="13.933129915025225"><ele>240.0</ele><time>2026-05-03T10:53:05Z</time></trkpt><trkpt lat="42.22150628615853" lon="13.933275443033471"><ele>240.0</ele><time>2026-05-03T10:53:06Z</time></trkpt><trkpt lat="42.22159142072646" lon="13.933417669160585"><ele>240.0</ele><time>2026-05-03T10:53:07Z</time></trkpt><trkpt lat="42.2216751058101" lon="13.933548747672996"><ele>237.0</ele><time>2026-05-03T10:53:08Z</time></trkpt><trkpt lat="42.22176330820507" lon="13.93366917403585"><ele>234.0</ele><time>2026-05-03T10:53:09Z</time></trkpt><trkpt lat="42.22186550574822" lon="13.933756320208412"><ele>231.0</ele><time>2026-05-03T10:53:10.001Z</time></trkpt><trkpt lat="42.221987917636376" lon="13.933792576099655"><ele>228.0</ele><time>2026-05-03T10:53:11.001Z</time></trkpt><trkpt lat="42.22211522548147" lon="13.933799403296938"><ele>228.0</ele><time>2026-05-03T10:53:12.001Z</time></trkpt><trkpt lat="42.22220782944476" lon="13.933851015420597"><ele>228.0</ele><time>2026-05-03T10:53:13.001Z</time></trkpt><trkpt lat="42.22227582570907" lon="13.933940952506424"><ele>228.0</ele><time>2026-05-03T10:53:14.001Z</time></trkpt><trkpt lat="42.22230016890615" lon="13.934082457325108"><ele>228.0</ele><time>2026-05-03T10:53:15.001Z</time></trkpt><trkpt lat="42.22231011435011" lon="13.934259868171887"><ele>228.0</ele><time>2026-05-03T10:53:16.001Z</time></trkpt><trkpt lat="42.22233637923063" lon="13.934467389905011"><ele>224.5</ele><time>2026-05-03T10:53:17.001Z</time></trkpt><trkpt lat="42.222346645831955" lon="13.93466524607436"><ele>221.0</ele><time>2026-05-03T10:53:18.001Z</time></trkpt><trkpt lat="42.222378195726805" lon="13.934815050655232"><ele>217.5</ele><time>2026-05-03T10:53:19.001Z</time></trkpt><trkpt lat="42.22244610191343" lon="13.93493327861115"><ele>214.0</ele><time>2026-05-03T10:53:20.001Z</time></trkpt><trkpt lat="42.222542333349345" lon="13.935040544941494"><ele>212.5</ele><time>2026-05-03T10:53:21.001Z</time></trkpt><trkpt lat="42.22269226766142" lon="13.935071428029026"><ele>211.0</ele><time>2026-05-03T10:53:22.001Z</time></trkpt><trkpt lat="42.22282042972176" lon="13.935128995553455"><ele>209.5</ele><time>2026-05-03T10:53:23.001Z</time></trkpt><trkpt lat="42.22295746260791" lon="13.935189706819353"><ele>208.0</ele><time>2026-05-03T10:53:24.001Z</time></trkpt><trkpt lat="42.22308563032191" lon="13.935304339201974"><ele>206.66666666666666</ele><time>2026-05-03T10:53:25.001Z</time></trkpt><trkpt lat="42.22320261169095" lon="13.935440989405558"><ele>205.33333333333331</ele><time>2026-05-03T10:53:26.001Z</time></trkpt><trkpt lat="42.22331139917402" lon="13.935591542255528"><ele>204.0</ele><time>2026-05-03T10:53:27.001Z</time></trkpt><trkpt lat="42.223421627443315" lon="13.935737841968475"><ele>203.5</ele><time>2026-05-03T10:53:28.001Z</time></trkpt><trkpt lat="42.22347239758739" lon="13.935904487994053"><ele>203.0</ele><time>2026-05-03T10:53:29.001Z</time></trkpt><trkpt lat="42.22351807395125" lon="13.936040824297839"><ele>202.5</ele><time>2026-05-03T10:53:30.001Z</time></trkpt><trkpt lat="42.22358936003443" lon="13.936162436034412"><ele>202.0</ele><time>2026-05-03T10:53:31.001Z</time></trkpt><trkpt lat="42.223654590048355" lon="13.936270347090359"><ele>202.0</ele><time>2026-05-03T10:53:32.001Z</time></trkpt><trkpt lat="42.22372471600205" lon="13.936366462269607"><ele>202.0</ele><time>2026-05-03T10:53:33.001Z</time></trkpt><trkpt lat="42.22382634359352" lon="13.936402103098896"><ele>202.0</ele><time>2026-05-03T10:53:33.999Z</time></trkpt><trkpt lat="42.22392874198298" lon="13.936380509316077"><ele>202.0</ele><time>2026-05-03T10:53:34.999Z</time></trkpt><trkpt lat="42.22402527651623" lon="13.93638388285841"><ele>202.0</ele><time>2026-05-03T10:53:35.999Z</time></trkpt><trkpt lat="42.224112533391526" lon="13.936491468345569"><ele>200.66666666666666</ele><time>2026-05-03T10:53:36.999Z</time></trkpt><trkpt lat="42.22424609056151" lon="13.93657589262986"><ele>199.33333333333331</ele><time>2026-05-03T10:53:37.999Z</time></trkpt><trkpt lat="42.22441565713372" lon="13.936615597725815"><ele>198.0</ele><time>2026-05-03T10:53:38.999Z</time></trkpt><trkpt lat="42.22458105768367" lon="13.936678707164697"><ele>198.0</ele><time>2026-05-03T10:53:39.999Z</time></trkpt><trkpt lat="42.224732925094266" lon="13.93671768074268"><ele>198.0</ele><time>2026-05-03T10:53:40.999Z</time></trkpt><trkpt lat="42.22486742519303" lon="13.936783897857842"><ele>198.0</ele><time>2026-05-03T10:53:41.999Z</time></trkpt><trkpt lat="42.225002197103336" lon="13.936825005718317"><ele>198.0</ele><time>2026-05-03T10:53:42.999Z</time></trkpt><trkpt lat="42.22512885521835" lon="13.93684124493801"><ele>197.60000000000002</ele><time>2026-05-03T10:53:43.999Z</time></trkpt><trkpt lat="42.22524102588442" lon="13.936883011253565"><ele>197.20000000000002</ele><time>2026-05-03T10:53:44.999Z</time></trkpt><trkpt lat="42.22534106793587" lon="13.936912258765018"><ele>196.8</ele><time>2026-05-03T10:53:45.999Z</time></trkpt><trkpt lat="42.22543844885472" lon="13.936945801967818"><ele>196.4</ele><time>2026-05-03T10:53:46.999Z</time></trkpt><trkpt lat="42.22552416576143" lon="13.936989669258928"><ele>196.0</ele><time>2026-05-03T10:53:47.999Z</time></trkpt><trkpt lat="42.225606194046264" lon="13.937031717290088"><ele>195.8</ele><time>2026-05-03T10:53:48.999Z</time></trkpt><trkpt lat="42.225662486563785" lon="13.93716534895913"><ele>195.60000000000002</ele><time>2026-05-03T10:53:49.999Z</time></trkpt><trkpt lat="42.2257062001361" lon="13.937274646050993"><ele>195.4</ele><time>2026-05-03T10:53:50.999Z</time></trkpt><trkpt lat="42.22574326564315" lon="13.937408237586117"><ele>195.2</ele><time>2026-05-03T10:53:51.999Z</time></trkpt><trkpt lat="42.225807507779045" lon="13.937539704545653"><ele>195.0</ele><time>2026-05-03T10:53:52.999Z</time></trkpt><trkpt lat="42.22575656237387" lon="13.937772502037838"><ele>195.0</ele><time>2026-05-03T10:53:53.999Z</time></trkpt><trkpt lat="42.225744516520166" lon="13.938004269788786"><ele>195.0</ele><time>2026-05-03T10:53:54.999Z</time></trkpt><trkpt lat="42.225733096350126" lon="13.938249168677256"><ele>195.0</ele><time>2026-05-03T10:53:55.999Z</time></trkpt><trkpt lat="42.22572831118629" lon="13.93847477611161"><ele>195.33333333333331</ele><time>2026-05-03T10:53:56.999Z</time></trkpt><trkpt lat="42.225726627413735" lon="13.938688785367711"><ele>195.66666666666666</ele><time>2026-05-03T10:53:57.999Z</time></trkpt><trkpt lat="42.22572273543807" lon="13.938908097329163"><ele>196.0</ele><time>2026-05-03T10:53:58.999Z</time></trkpt><trkpt lat="42.22571693900718" lon="13.939136875304529"><ele>195.66666666666666</ele><time>2026-05-03T10:53:59.999Z</time></trkpt><trkpt lat="42.22571113011962" lon="13.939367639832957"><ele>195.33333333333331</ele><time>2026-05-03T10:54:00.999Z</time></trkpt><trkpt lat="42.22570824441496" lon="13.939610171753289"><ele>195.0</ele><time>2026-05-03T10:54:01.999Z</time></trkpt><trkpt lat="42.225703429741074" lon="13.93982594004213"><ele>195.0</ele><time>2026-05-03T10:54:02.999Z</time></trkpt><trkpt lat="42.225700172603695" lon="13.940041735468812"><ele>195.0</ele><time>2026-05-03T10:54:03.999Z</time></trkpt><trkpt lat="42.22570029301437" lon="13.940272051810728"><ele>195.0</ele><time>2026-05-03T10:54:04.999Z</time></trkpt><trkpt lat="42.22571102775744" lon="13.940505013647947"><ele>194.66666666666669</ele><time>2026-05-03T10:54:05.999Z</time></trkpt><trkpt lat="42.22573934989746" lon="13.940735640395898"><ele>194.33333333333334</ele><time>2026-05-03T10:54:06.999Z</time></trkpt><trkpt lat="42.22578859760697" lon="13.940972941831342"><ele>194.0</ele><time>2026-05-03T10:54:07.999Z</time></trkpt><trkpt lat="42.22584710467806" lon="13.941210251591436"><ele>193.66666666666669</ele><time>2026-05-03T10:54:08.999Z</time></trkpt><trkpt lat="42.22591678396053" lon="13.941469075432815"><ele>193.33333333333331</ele><time>2026-05-03T10:54:09.999Z</time></trkpt><trkpt lat="42.22600236041634" lon="13.941762273694934"><ele>193.0</ele><time>2026-05-03T10:54:11Z</time></trkpt><trkpt lat="42.226092954127054" lon="13.942085062947859"><ele>193.0</ele><time>2026-05-03T10:54:12Z</time></trkpt><trkpt lat="42.2261712947549" lon="13.942381486359354"><ele>193.0</ele><time>2026-05-03T10:54:13Z</time></trkpt><trkpt lat="42.22623390784089" lon="13.942648676448254"><ele>193.0</ele><time>2026-05-03T10:54:14Z</time></trkpt><trkpt lat="42.226329782010616" lon="13.942933867399654"><ele>193.0</ele><time>2026-05-03T10:54:15Z</time></trkpt><trkpt lat="42.22641482212575" lon="13.943235849672918"><ele>193.0</ele><time>2026-05-03T10:54:16Z</time></trkpt><trkpt lat="42.22650441578195" lon="13.943543601338211"><ele>194.5</ele><time>2026-05-03T10:54:17Z</time></trkpt><trkpt lat="42.22659311185709" lon="13.943853922677345"><ele>196.0</ele><time>2026-05-03T10:54:18Z</time></trkpt><trkpt lat="42.22668082430159" lon="13.944159254745697"><ele>197.0</ele><time>2026-05-03T10:54:19Z</time></trkpt><trkpt lat="42.22676350564179" lon="13.944453577910021"><ele>198.0</ele><time>2026-05-03T10:54:20Z</time></trkpt><trkpt lat="42.2268492239132" lon="13.944758727973102"><ele>198.0</ele><time>2026-05-03T10:54:21Z</time></trkpt><trkpt lat="42.226937972516346" lon="13.945084804387399"><ele>198.0</ele><time>2026-05-03T10:54:22Z</time></trkpt><trkpt lat="42.227027856988485" lon="13.945376359852624"><ele>198.0</ele><time>2026-05-03T10:54:23Z</time></trkpt><trkpt lat="42.227109203931505" lon="13.945658719828598"><ele>198.0</ele><time>2026-05-03T10:54:24Z</time></trkpt><trkpt lat="42.22719131143683" lon="13.945948901528883"><ele>199.0</ele><time>2026-05-03T10:54:25Z</time></trkpt><trkpt lat="42.22727453467994" lon="13.946244371224504"><ele>200.0</ele><time>2026-05-03T10:54:26Z</time></trkpt><trkpt lat="42.22736141942816" lon="13.946550176365102"><ele>202.0</ele><time>2026-05-03T10:54:27Z</time></trkpt><trkpt lat="42.22745367975737" lon="13.946866151247407"><ele>204.0</ele><time>2026-05-03T10:54:28Z</time></trkpt><trkpt lat="42.227541268778545" lon="13.947167735557073"><ele>204.0</ele><time>2026-05-03T10:54:29Z</time></trkpt><trkpt lat="42.227619062467596" lon="13.947439085633032"><ele>204.0</ele><time>2026-05-03T10:54:30Z</time></trkpt><trkpt lat="42.227690037051325" lon="13.94769268725213"><ele>204.0</ele><time>2026-05-03T10:54:31Z</time></trkpt><trkpt lat="42.227759226894435" lon="13.947933658415822"><ele>205.0</ele><time>2026-05-03T10:54:32Z</time></trkpt><trkpt lat="42.2278432143999" lon="13.948159097681236"><ele>206.0</ele><time>2026-05-03T10:54:33Z</time></trkpt><trkpt lat="42.22796667654512" lon="13.948345779290104"><ele>207.0</ele><time>2026-05-03T10:54:34Z</time></trkpt><trkpt lat="42.22814621776868" lon="13.948492237234078"><ele>208.0</ele><time>2026-05-03T10:54:35Z</time></trkpt><trkpt lat="42.22832691827166" lon="13.948651529213704"><ele>209.0</ele><time>2026-05-03T10:54:36Z</time></trkpt><trkpt lat="42.22851493853672" lon="13.948826518096878"><ele>210.0</ele><time>2026-05-03T10:54:37Z</time></trkpt><trkpt lat="42.228695852274136" lon="13.948997675887773"><ele>210.0</ele><time>2026-05-03T10:54:38Z</time></trkpt><trkpt lat="42.22886386240931" lon="13.94916416691766"><ele>210.0</ele><time>2026-05-03T10:54:39Z</time></trkpt><trkpt lat="42.22903598559479" lon="13.949330583683919"><ele>210.0</ele><time>2026-05-03T10:54:40Z</time></trkpt><trkpt lat="42.22920956090944" lon="13.949500919400705"><ele>213.33333333333331</ele><time>2026-05-03T10:54:41Z</time></trkpt><trkpt lat="42.22940027885861" lon="13.94967350198576"><ele>216.66666666666666</ele><time>2026-05-03T10:54:42Z</time></trkpt><trkpt lat="42.229582640389054" lon="13.94983601312134"><ele>220.0</ele><time>2026-05-03T10:54:43Z</time></trkpt><trkpt lat="42.2297609410177" lon="13.949970088543795"><ele>223.0</ele><time>2026-05-03T10:54:44Z</time></trkpt><trkpt lat="42.229952725358984" lon="13.950061317394065"><ele>226.0</ele><time>2026-05-03T10:54:45Z</time></trkpt><trkpt lat="42.23015411291314" lon="13.950105980397476"><ele>229.0</ele><time>2026-05-03T10:54:46Z</time></trkpt><trkpt lat="42.230356988702866" lon="13.950131464304388"><ele>229.0</ele><time>2026-05-03T10:54:47Z</time></trkpt><trkpt lat="42.23055804674589" lon="13.95016440079217"><ele>229.0</ele><time>2026-05-03T10:54:48Z</time></trkpt><trkpt lat="42.23076495237044" lon="13.950205127626619"><ele>229.0</ele><time>2026-05-03T10:54:49Z</time></trkpt><trkpt lat="42.230979907645356" lon="13.950255282537482"><ele>233.0</ele><time>2026-05-03T10:54:50Z</time></trkpt><trkpt lat="42.2311983063131" lon="13.950316519981696"><ele>237.0</ele><time>2026-05-03T10:54:51Z</time></trkpt><trkpt lat="42.23141281339316" lon="13.950383194041182"><ele>241.0</ele><time>2026-05-03T10:54:52Z</time></trkpt><trkpt lat="42.23162274731605" lon="13.950452334103478"><ele>242.5</ele><time>2026-05-03T10:54:53Z</time></trkpt><trkpt lat="42.23185090474945" lon="13.95052092473424"><ele>244.0</ele><time>2026-05-03T10:54:54Z</time></trkpt><trkpt lat="42.23210143989647" lon="13.950591100739699"><ele>244.33333333333331</ele><time>2026-05-03T10:54:55Z</time></trkpt><trkpt lat="42.23231709813723" lon="13.950655906433218"><ele>244.66666666666669</ele><time>2026-05-03T10:54:56Z</time></trkpt><trkpt lat="42.23251973638358" lon="13.95071514077509"><ele>245.0</ele><time>2026-05-03T10:54:57Z</time></trkpt><trkpt lat="42.232710561127575" lon="13.950776380087133"><ele>245.0</ele><time>2026-05-03T10:54:58Z</time></trkpt><trkpt lat="42.23289110890803" lon="13.950832789749828"><ele>245.0</ele><time>2026-05-03T10:54:59Z</time></trkpt><trkpt lat="42.23309021892888" lon="13.950896702736346"><ele>245.0</ele><time>2026-05-03T10:55:00Z</time></trkpt><trkpt lat="42.233310559526124" lon="13.950968008468907"><ele>243.5</ele><time>2026-05-03T10:55:01Z</time></trkpt><trkpt lat="42.23354862039459" lon="13.951045773071856"><ele>242.0</ele><time>2026-05-03T10:55:02Z</time></trkpt><trkpt lat="42.23378122039297" lon="13.951118877900505"><ele>237.5</ele><time>2026-05-03T10:55:03Z</time></trkpt><trkpt lat="42.23401165359767" lon="13.951190729356028"><ele>233.0</ele><time>2026-05-03T10:55:04Z</time></trkpt><trkpt lat="42.234235935731064" lon="13.951260254331114"><ele>233.0</ele><time>2026-05-03T10:55:05Z</time></trkpt><trkpt lat="42.234468095019224" lon="13.951333743350158"><ele>233.0</ele><time>2026-05-03T10:55:06Z</time></trkpt><trkpt lat="42.2346851812174" lon="13.951402036196741"><ele>231.0</ele><time>2026-05-03T10:55:07Z</time></trkpt><trkpt lat="42.23489267644288" lon="13.951467092018703"><ele>229.0</ele><time>2026-05-03T10:55:08Z</time></trkpt><trkpt lat="42.2350900726098" lon="13.95153139490876"><ele>227.0</ele><time>2026-05-03T10:55:09Z</time></trkpt><trkpt lat="42.23527902841553" lon="13.951599574601275"><ele>227.0</ele><time>2026-05-03T10:55:10Z</time></trkpt><trkpt lat="42.235450689252716" lon="13.95167638801879"><ele>227.0</ele><time>2026-05-03T10:55:11Z</time></trkpt><trkpt lat="42.23561378453256" lon="13.951781717789734"><ele>227.0</ele><time>2026-05-03T10:55:12Z</time></trkpt><trkpt lat="42.23577527286151" lon="13.951945898183725"><ele>225.66666666666669</ele><time>2026-05-03T10:55:13Z</time></trkpt><trkpt lat="42.23592522291154" lon="13.95214920463569"><ele>224.33333333333331</ele><time>2026-05-03T10:55:14Z</time></trkpt><trkpt lat="42.23606371991392" lon="13.95235674309484"><ele>223.0</ele><time>2026-05-03T10:55:15Z</time></trkpt><trkpt lat="42.236197677729955" lon="13.952537058419683"><ele>224.66666666666666</ele><time>2026-05-03T10:55:16Z</time></trkpt><trkpt lat="42.23634157603637" lon="13.952680003728284"><ele>226.33333333333331</ele><time>2026-05-03T10:55:17Z</time></trkpt><trkpt lat="42.23652287857606" lon="13.95277507320886"><ele>228.0</ele><time>2026-05-03T10:55:18Z</time></trkpt><trkpt lat="42.236734999362504" lon="13.95283310729737"><ele>228.0</ele><time>2026-05-03T10:55:19Z</time></trkpt><trkpt lat="42.23696533147287" lon="13.95289042850871"><ele>228.0</ele><time>2026-05-03T10:55:20Z</time></trkpt><trkpt lat="42.23719092916567" lon="13.952960511651328"><ele>224.33333333333331</ele><time>2026-05-03T10:55:21Z</time></trkpt><trkpt lat="42.237405308119946" lon="13.953034289285526"><ele>220.66666666666666</ele><time>2026-05-03T10:55:22Z</time></trkpt><trkpt lat="42.2376202994033" lon="13.95310483874495"><ele>217.0</ele><time>2026-05-03T10:55:23Z</time></trkpt><trkpt lat="42.237829650753476" lon="13.953170354308888"><ele>217.0</ele><time>2026-05-03T10:55:24Z</time></trkpt><trkpt lat="42.23802443504606" lon="13.953234766404478"><ele>217.0</ele><time>2026-05-03T10:55:25.001Z</time></trkpt><trkpt lat="42.23821086670932" lon="13.953298383445176"><ele>217.0</ele><time>2026-05-03T10:55:26.001Z</time></trkpt><trkpt lat="42.2383856168749" lon="13.95335015701535"><ele>217.33333333333331</ele><time>2026-05-03T10:55:27.001Z</time></trkpt><trkpt lat="42.23855427223837" lon="13.953376557152286"><ele>217.66666666666669</ele><time>2026-05-03T10:55:28.001Z</time></trkpt><trkpt lat="42.23872890249822" lon="13.95335584436958"><ele>218.0</ele><time>2026-05-03T10:55:29.001Z</time></trkpt><trkpt lat="42.23890354607421" lon="13.953280225122931"><ele>217.0</ele><time>2026-05-03T10:55:30.001Z</time></trkpt><trkpt lat="42.239066694939986" lon="13.953158170635255"><ele>216.0</ele><time>2026-05-03T10:55:31.001Z</time></trkpt><trkpt lat="42.239199444633606" lon="13.952995200133602"><ele>215.0</ele><time>2026-05-03T10:55:32.001Z</time></trkpt><trkpt lat="42.23930481180858" lon="13.952793917666499"><ele>215.0</ele><time>2026-05-03T10:55:33.001Z</time></trkpt><trkpt lat="42.23937795157578" lon="13.952558411524194"><ele>215.0</ele><time>2026-05-03T10:55:34.001Z</time></trkpt><trkpt lat="42.23942198882788" lon="13.952296339776703"><ele>215.0</ele><time>2026-05-03T10:55:35.001Z</time></trkpt><trkpt lat="42.23944314283735" lon="13.952013308039499"><ele>213.0</ele><time>2026-05-03T10:55:36.001Z</time></trkpt><trkpt lat="42.23945543438562" lon="13.951739782893915"><ele>211.0</ele><time>2026-05-03T10:55:37.001Z</time></trkpt><trkpt lat="42.239479708997905" lon="13.951526909491339"><ele>209.0</ele><time>2026-05-03T10:55:38.001Z</time></trkpt><trkpt lat="42.23950612643756" lon="13.95134167042242"><ele>207.25</ele><time>2026-05-03T10:55:39.001Z</time></trkpt><trkpt lat="42.23953395970333" lon="13.951181571930997"><ele>205.5</ele><time>2026-05-03T10:55:39.999Z</time></trkpt><trkpt lat="42.239589372321895" lon="13.951038325207515"><ele>203.75</ele><time>2026-05-03T10:55:40.999Z</time></trkpt><trkpt lat="42.23970247544112" lon="13.950906873971647"><ele>202.0</ele><time>2026-05-03T10:55:41.999Z</time></trkpt><trkpt lat="42.2398490102304" lon="13.950803220066238"><ele>200.0</ele><time>2026-05-03T10:55:42.999Z</time></trkpt><trkpt lat="42.24002091496386" lon="13.950739110649135"><ele>198.0</ele><time>2026-05-03T10:55:43.999Z</time></trkpt><trkpt lat="42.24021158534185" lon="13.950712135236293"><ele>196.0</ele><time>2026-05-03T10:55:44.999Z</time></trkpt><trkpt lat="42.24042531644043" lon="13.950715132232636"><ele>195.33333333333331</ele><time>2026-05-03T10:55:45.999Z</time></trkpt><trkpt lat="42.24064422053302" lon="13.950738180586322"><ele>194.66666666666669</ele><time>2026-05-03T10:55:46.999Z</time></trkpt><trkpt lat="42.240865547436144" lon="13.950805641230177"><ele>194.0</ele><time>2026-05-03T10:55:47.999Z</time></trkpt><trkpt lat="42.24108822193992" lon="13.950891337663007"><ele>193.0</ele><time>2026-05-03T10:55:48.999Z</time></trkpt><trkpt lat="42.24132335658006" lon="13.950974615578955"><ele>192.0</ele><time>2026-05-03T10:55:49.999Z</time></trkpt><trkpt lat="42.24155136256893" lon="13.951053215688196"><ele>192.0</ele><time>2026-05-03T10:55:50.999Z</time></trkpt><trkpt lat="42.24177389943" lon="13.951121203567956"><ele>192.0</ele><time>2026-05-03T10:55:51.999Z</time></trkpt><trkpt lat="42.241989375453265" lon="13.951187242147867"><ele>192.0</ele><time>2026-05-03T10:55:52.999Z</time></trkpt><trkpt lat="42.24219942645023" lon="13.9512419080191"><ele>189.66666666666666</ele><time>2026-05-03T10:55:53.999Z</time></trkpt><trkpt lat="42.242401304326805" lon="13.951269763963436"><ele>187.33333333333331</ele><time>2026-05-03T10:55:54.999Z</time></trkpt><trkpt lat="42.2426074147643" lon="13.951247318611419"><ele>185.0</ele><time>2026-05-03T10:55:55.999Z</time></trkpt><trkpt lat="42.242822786348235" lon="13.951166682815742"><ele>185.0</ele><time>2026-05-03T10:55:56.999Z</time></trkpt><trkpt lat="42.24303662935931" lon="13.95105125852643"><ele>185.0</ele><time>2026-05-03T10:55:57.999Z</time></trkpt><trkpt lat="42.243242354439396" lon="13.950945037677837"><ele>180.66666666666666</ele><time>2026-05-03T10:55:58.999Z</time></trkpt><trkpt lat="42.24344250765218" lon="13.950853897107791"><ele>176.33333333333334</ele><time>2026-05-03T10:55:59.999Z</time></trkpt><trkpt lat="42.24363956861038" lon="13.950763848080031"><ele>172.0</ele><time>2026-05-03T10:56:00.999Z</time></trkpt><trkpt lat="42.243837524718664" lon="13.950687210435571"><ele>170.66666666666669</ele><time>2026-05-03T10:56:01.999Z</time></trkpt><trkpt lat="42.244044643398006" lon="13.950632636296074"><ele>169.33333333333334</ele><time>2026-05-03T10:56:02.999Z</time></trkpt><trkpt lat="42.244249956084474" lon="13.950616014865222"><ele>168.0</ele><time>2026-05-03T10:56:03.999Z</time></trkpt><trkpt lat="42.24445313980137" lon="13.950619303611253"><ele>168.0</ele><time>2026-05-03T10:56:04.999Z</time></trkpt><trkpt lat="42.24464644599012" lon="13.95061822123185"><ele>168.0</ele><time>2026-05-03T10:56:06Z</time></trkpt><trkpt lat="42.244828843603294" lon="13.950610546039647"><ele>168.0</ele><time>2026-05-03T10:56:07Z</time></trkpt><trkpt lat="42.24501186958076" lon="13.950624754444544"><ele>165.66666666666666</ele><time>2026-05-03T10:56:08Z</time></trkpt><trkpt lat="42.24518330239153" lon="13.950683374134268"><ele>163.33333333333331</ele><time>2026-05-03T10:56:09Z</time></trkpt><trkpt lat="42.24534896085524" lon="13.950769357725028"><ele>161.0</ele><time>2026-05-03T10:56:10Z</time></trkpt><trkpt lat="42.245515167970204" lon="13.950852996697046"><ele>158.66666666666666</ele><time>2026-05-03T10:56:11Z</time></trkpt><trkpt lat="42.24567182685084" lon="13.950934372876741"><ele>156.33333333333334</ele><time>2026-05-03T10:56:12Z</time></trkpt><trkpt lat="42.24582088480717" lon="13.951033426070433"><ele>154.0</ele><time>2026-05-03T10:56:13Z</time></trkpt><trkpt lat="42.245958100469146" lon="13.951178607954484"><ele>154.0</ele><time>2026-05-03T10:56:14Z</time></trkpt><trkpt lat="42.246075563252454" lon="13.951351367624332"><ele>154.0</ele><time>2026-05-03T10:56:15Z</time></trkpt><trkpt lat="42.24618816809761" lon="13.951527799105811"><ele>154.0</ele><time>2026-05-03T10:56:16Z</time></trkpt><trkpt lat="42.24630372899901" lon="13.951692837061652"><ele>154.33333333333334</ele><time>2026-05-03T10:56:17Z</time></trkpt><trkpt lat="42.246415638955106" lon="13.951841345430761"><ele>154.66666666666666</ele><time>2026-05-03T10:56:18Z</time></trkpt><trkpt lat="42.24653644970201" lon="13.951971733772488"><ele>155.0</ele><time>2026-05-03T10:56:19Z</time></trkpt><trkpt lat="42.246681680497446" lon="13.952068893038525"><ele>151.66666666666666</ele><time>2026-05-03T10:56:20Z</time></trkpt><trkpt lat="42.246850981493594" lon="13.952105844029763"><ele>148.33333333333334</ele><time>2026-05-03T10:56:21Z</time></trkpt><trkpt lat="42.2470336203191" lon="13.952083921732736"><ele>145.0</ele><time>2026-05-03T10:56:22Z</time></trkpt><trkpt lat="42.24721133771802" lon="13.952088090012126"><ele>143.33333333333334</ele><time>2026-05-03T10:56:23Z</time></trkpt><trkpt lat="42.2473748070904" lon="13.952055326088598"><ele>141.66666666666666</ele><time>2026-05-03T10:56:24Z</time></trkpt><trkpt lat="42.24753869667343" lon="13.952036457508683"><ele>140.0</ele><time>2026-05-03T10:56:25Z</time></trkpt><trkpt lat="42.24769228796394" lon="13.95202028611108"><ele>140.0</ele><time>2026-05-03T10:56:26Z</time></trkpt><trkpt lat="42.247855693700764" lon="13.952007611169249"><ele>140.0</ele><time>2026-05-03T10:56:27Z</time></trkpt><trkpt lat="42.2480307693861" lon="13.951990708203123"><ele>140.0</ele><time>2026-05-03T10:56:28Z</time></trkpt><trkpt lat="42.248212782644586" lon="13.951969481397395"><ele>139.33333333333331</ele><time>2026-05-03T10:56:29Z</time></trkpt><trkpt lat="42.248380127820845" lon="13.951951968246005"><ele>138.66666666666666</ele><time>2026-05-03T10:56:30Z</time></trkpt><trkpt lat="42.248534152357394" lon="13.951939070151031"><ele>138.0</ele><time>2026-05-03T10:56:31Z</time></trkpt><trkpt lat="42.24866733113172" lon="13.951924566387856"><ele>138.0</ele><time>2026-05-03T10:56:32Z</time></trkpt><trkpt lat="42.24880088106847" lon="13.951908980646039"><ele>138.0</ele><time>2026-05-03T10:56:33Z</time></trkpt><trkpt lat="42.248928155473294" lon="13.951891692710918"><ele>138.0</ele><time>2026-05-03T10:56:34Z</time></trkpt><trkpt lat="42.249050182505094" lon="13.951884105946265"><ele>138.0</ele><time>2026-05-03T10:56:35Z</time></trkpt><trkpt lat="42.24917775538361" lon="13.951867104275026"><ele>139.0</ele><time>2026-05-03T10:56:36Z</time></trkpt><trkpt lat="42.24931930951995" lon="13.95187064090253"><ele>140.0</ele><time>2026-05-03T10:56:37Z</time></trkpt><trkpt lat="42.24948021516291" lon="13.95185378727993"><ele>141.0</ele><time>2026-05-03T10:56:38Z</time></trkpt><trkpt lat="42.2496530764646" lon="13.95183538316882"><ele>140.0</ele><time>2026-05-03T10:56:39Z</time></trkpt><trkpt lat="42.24983434136638" lon="13.951816084344097"><ele>139.0</ele><time>2026-05-03T10:56:40Z</time></trkpt><trkpt lat="42.2500141577501" lon="13.951796939741142"><ele>138.0</ele><time>2026-05-03T10:56:41Z</time></trkpt><trkpt lat="42.250181146741575" lon="13.951779160864742"><ele>138.0</ele><time>2026-05-03T10:56:42Z</time></trkpt><trkpt lat="42.25034442817943" lon="13.951762477218125"><ele>138.0</ele><time>2026-05-03T10:56:43Z</time></trkpt><trkpt lat="42.25050544819015" lon="13.951745678124128"><ele>138.0</ele><time>2026-05-03T10:56:44Z</time></trkpt><trkpt lat="42.25064520573135" lon="13.951730320378417"><ele>138.0</ele><time>2026-05-03T10:56:45Z</time></trkpt><trkpt lat="42.250763625800026" lon="13.951717622138169"><ele>138.0</ele><time>2026-05-03T10:56:46Z</time></trkpt><trkpt lat="42.250892622309436" lon="13.951701744503568"><ele>138.0</ele><time>2026-05-03T10:56:47Z</time></trkpt><trkpt lat="42.251027028189384" lon="13.951664510700288"><ele>138.0</ele><time>2026-05-03T10:56:48Z</time></trkpt><trkpt lat="42.25116115157961" lon="13.951676378981638"><ele>137.75</ele><time>2026-05-03T10:56:49Z</time></trkpt><trkpt lat="42.25129060914114" lon="13.95166372814895"><ele>137.5</ele><time>2026-05-03T10:56:50Z</time></trkpt><trkpt lat="42.251429048492255" lon="13.951696692262134"><ele>137.25</ele><time>2026-05-03T10:56:51Z</time></trkpt><trkpt lat="42.25157182879223" lon="13.951735828295726"><ele>137.0</ele><time>2026-05-03T10:56:52Z</time></trkpt><trkpt lat="42.251689351938275" lon="13.951766916202187"><ele>136.0</ele><time>2026-05-03T10:56:53Z</time></trkpt><trkpt lat="42.2517867668281" lon="13.951785486503203"><ele>135.0</ele><time>2026-05-03T10:56:54Z</time></trkpt><trkpt lat="42.25187031969625" lon="13.951802804347817"><ele>134.0</ele><time>2026-05-03T10:56:55Z</time></trkpt><trkpt lat="42.251940131246386" lon="13.951816787190431"><ele>133.0</ele><time>2026-05-03T10:56:56Z</time></trkpt><trkpt lat="42.252037847353314" lon="13.951848820206427"><ele>132.0</ele><time>2026-05-03T10:56:58Z</time></trkpt><trkpt lat="42.25213058452067" lon="13.9518905949569"><ele>132.0</ele><time>2026-05-03T10:59:20.002Z</time></trkpt><trkpt lat="42.252199390951525" lon="13.9518787386381"><ele>132.0</ele><time>2026-05-03T10:59:21.002Z</time></trkpt><trkpt lat="42.2522888338597" lon="13.951870865025228"><ele>132.0</ele><time>2026-05-03T10:59:22.002Z</time></trkpt><trkpt lat="42.25238436025365" lon="13.951873796195711"><ele>132.0</ele><time>2026-05-03T10:59:23.002Z</time></trkpt><trkpt lat="42.25249477164785" lon="13.951898844079706"><ele>132.0</ele><time>2026-05-03T10:59:24.002Z</time></trkpt><trkpt lat="42.25267422683202" lon="13.95197687294878"><ele>131.75</ele><time>2026-05-03T10:59:26.002Z</time></trkpt><trkpt lat="42.25280467315833" lon="13.95200479024867"><ele>131.5</ele><time>2026-05-03T10:59:27.002Z</time></trkpt><trkpt lat="42.25292740869978" lon="13.952031608886255"><ele>131.25</ele><time>2026-05-03T10:59:28.002Z</time></trkpt><trkpt lat="42.25303720397968" lon="13.952053726379646"><ele>131.0</ele><time>2026-05-03T10:59:29.002Z</time></trkpt><trkpt lat="42.25314094275891" lon="13.952074623829002"><ele>131.0</ele><time>2026-05-03T10:59:30.002Z</time></trkpt><trkpt lat="42.25326216073093" lon="13.95209904233896"><ele>131.0</ele><time>2026-05-03T10:59:31.002Z</time></trkpt><trkpt lat="42.253398709460484" lon="13.952093717061937"><ele>131.0</ele><time>2026-05-03T10:59:32.002Z</time></trkpt><trkpt lat="42.25353979921745" lon="13.952091214317177"><ele>131.0</ele><time>2026-05-03T10:59:33.002Z</time></trkpt><trkpt lat="42.25368147976519" lon="13.952033674836503"><ele>131.0</ele><time>2026-05-03T10:59:34.002Z</time></trkpt><trkpt lat="42.253822393635" lon="13.951954100043528"><ele>131.0</ele><time>2026-05-03T10:59:35.002Z</time></trkpt><trkpt lat="42.25396403412089" lon="13.951879848403824"><ele>131.0</ele><time>2026-05-03T10:59:36.002Z</time></trkpt><trkpt lat="42.25411105981984" lon="13.951811272894178"><ele>132.66666666666666</ele><time>2026-05-03T10:59:37.002Z</time></trkpt><trkpt lat="42.254266440270825" lon="13.951757042286356"><ele>134.33333333333334</ele><time>2026-05-03T10:59:38.002Z</time></trkpt><trkpt lat="42.25443053802924" lon="13.95170782357116"><ele>136.0</ele><time>2026-05-03T10:59:39.002Z</time></trkpt><trkpt lat="42.25460336820209" lon="13.951665393363264"><ele>137.66666666666669</ele><time>2026-05-03T10:59:40.002Z</time></trkpt><trkpt lat="42.25479199719551" lon="13.951609298323635"><ele>139.33333333333334</ele><time>2026-05-03T10:59:41.002Z</time></trkpt><trkpt lat="42.25496221106989" lon="13.951552320126883"><ele>141.0</ele><time>2026-05-03T10:59:42.002Z</time></trkpt><trkpt lat="42.255121950782396" lon="13.95150449228934"><ele>141.0</ele><time>2026-05-03T10:59:43.002Z</time></trkpt><trkpt lat="42.255286676511304" lon="13.951459388655708"><ele>141.0</ele><time>2026-05-03T10:59:44.002Z</time></trkpt><trkpt lat="42.25546361477673" lon="13.951411145981567"><ele>141.0</ele><time>2026-05-03T10:59:45.002Z</time></trkpt><trkpt lat="42.25563697830275" lon="13.95136386725344"><ele>141.66666666666666</ele><time>2026-05-03T10:59:46.002Z</time></trkpt><trkpt lat="42.255804033233545" lon="13.951317866786727"><ele>142.33333333333331</ele><time>2026-05-03T10:59:47.002Z</time></trkpt><trkpt lat="42.25597081348451" lon="13.951267648740378"><ele>143.0</ele><time>2026-05-03T10:59:48.002Z</time></trkpt><trkpt lat="42.256139440220934" lon="13.951215351676257"><ele>143.0</ele><time>2026-05-03T10:59:49.002Z</time></trkpt><trkpt lat="42.25629618862404" lon="13.951165101184667"><ele>143.0</ele><time>2026-05-03T10:59:50.002Z</time></trkpt><trkpt lat="42.25644409886475" lon="13.951126611520303"><ele>143.0</ele><time>2026-05-03T10:59:51.002Z</time></trkpt><trkpt lat="42.256584258483976" lon="13.951100318932921"><ele>143.33333333333331</ele><time>2026-05-03T10:59:52.002Z</time></trkpt><trkpt lat="42.25672330703302" lon="13.951096418149293"><ele>143.66666666666666</ele><time>2026-05-03T10:59:53.002Z</time></trkpt><trkpt lat="42.25688288655882" lon="13.951105512987395"><ele>144.0</ele><time>2026-05-03T10:59:54.002Z</time></trkpt><trkpt lat="42.25705573906457" lon="13.951135797471483"><ele>144.0</ele><time>2026-05-03T10:59:55.002Z</time></trkpt><trkpt lat="42.25723177858787" lon="13.95112514105081"><ele>144.0</ele><time>2026-05-03T10:59:56.002Z</time></trkpt><trkpt lat="42.25742846070259" lon="13.951134784383443"><ele>144.0</ele><time>2026-05-03T10:59:57.002Z</time></trkpt><trkpt lat="42.257624101651395" lon="13.951143484999275"><ele>143.66666666666666</ele><time>2026-05-03T10:59:58.002Z</time></trkpt><trkpt lat="42.257812527331225" lon="13.95115621249081"><ele>143.33333333333331</ele><time>2026-05-03T10:59:59.002Z</time></trkpt><trkpt lat="42.25801229280237" lon="13.951186502877764"><ele>143.0</ele><time>2026-05-03T11:00:00.002Z</time></trkpt><trkpt lat="42.25821138266335" lon="13.951224955876832"><ele>143.66666666666666</ele><time>2026-05-03T11:00:01.002Z</time></trkpt><trkpt lat="42.25841352695814" lon="13.951309845975455"><ele>144.33333333333334</ele><time>2026-05-03T11:00:02.001Z</time></trkpt><trkpt lat="42.258632126467255" lon="13.951371720529542"><ele>145.0</ele><time>2026-05-03T11:00:03.001Z</time></trkpt><trkpt lat="42.25884291557957" lon="13.95147217012357"><ele>146.0</ele><time>2026-05-03T11:00:04.001Z</time></trkpt><trkpt lat="42.25903397462396" lon="13.95160899092424"><ele>147.0</ele><time>2026-05-03T11:00:05.001Z</time></trkpt><trkpt lat="42.25920799115189" lon="13.951726231571552"><ele>148.0</ele><time>2026-05-03T11:00:06.001Z</time></trkpt><trkpt lat="42.25939095934299" lon="13.951875111928487"><ele>148.0</ele><time>2026-05-03T11:00:07.001Z</time></trkpt><trkpt lat="42.25956613602063" lon="13.95204566747297"><ele>148.0</ele><time>2026-05-03T11:00:08.001Z</time></trkpt><trkpt lat="42.259719126322445" lon="13.952209915542172"><ele>148.0</ele><time>2026-05-03T11:00:09.001Z</time></trkpt><trkpt lat="42.25985893131402" lon="13.952380716383917"><ele>147.66666666666669</ele><time>2026-05-03T11:00:10.001Z</time></trkpt><trkpt lat="42.25998167894272" lon="13.952547598340447"><ele>147.33333333333334</ele><time>2026-05-03T11:00:11.001Z</time></trkpt><trkpt lat="42.260086623194745" lon="13.952708728548503"><ele>147.0</ele><time>2026-05-03T11:00:12.001Z</time></trkpt><trkpt lat="42.26017938595937" lon="13.952867014359807"><ele>147.0</ele><time>2026-05-03T11:00:13.001Z</time></trkpt><trkpt lat="42.26026507371293" lon="13.953020710662654"><ele>147.0</ele><time>2026-05-03T11:00:14.001Z</time></trkpt><trkpt lat="42.260349004798435" lon="13.953187015735663"><ele>147.0</ele><time>2026-05-03T11:00:15.001Z</time></trkpt><trkpt lat="42.26043198284025" lon="13.953368247172394"><ele>147.0</ele><time>2026-05-03T11:00:16.001Z</time></trkpt><trkpt lat="42.26051733773784" lon="13.953545012571954"><ele>148.5</ele><time>2026-05-03T11:00:17.001Z</time></trkpt><trkpt lat="42.2605813886932" lon="13.953715019588156"><ele>150.0</ele><time>2026-05-03T11:00:18.001Z</time></trkpt><trkpt lat="42.26061783548464" lon="13.953901658010452"><ele>151.5</ele><time>2026-05-03T11:00:19.001Z</time></trkpt><trkpt lat="42.26066865931483" lon="13.954096022490438"><ele>153.0</ele><time>2026-05-03T11:00:20.001Z</time></trkpt><trkpt lat="42.26072699184101" lon="13.954306037522464"><ele>148.0</ele><time>2026-05-03T11:00:21.001Z</time></trkpt><trkpt lat="42.260774414867306" lon="13.954510686098578"><ele>143.0</ele><time>2026-05-03T11:00:22.001Z</time></trkpt><trkpt lat="42.26082214658117" lon="13.954707955465889"><ele>138.0</ele><time>2026-05-03T11:00:23.001Z</time></trkpt><trkpt lat="42.26087155160867" lon="13.954925498522753"><ele>138.0</ele><time>2026-05-03T11:00:24.001Z</time></trkpt><trkpt lat="42.2609179151935" lon="13.955135216824704"><ele>138.0</ele><time>2026-05-03T11:00:25.001Z</time></trkpt><trkpt lat="42.2609595341527" lon="13.955354853222989"><ele>138.0</ele><time>2026-05-03T11:00:26.001Z</time></trkpt><trkpt lat="42.261002647630185" lon="13.955579621545079"><ele>138.0</ele><time>2026-05-03T11:00:27.001Z</time></trkpt><trkpt lat="42.261048008085766" lon="13.955798793074646"><ele>138.0</ele><time>2026-05-03T11:00:28.001Z</time></trkpt><trkpt lat="42.26109377600079" lon="13.956005582831835"><ele>138.0</ele><time>2026-05-03T11:00:29.001Z</time></trkpt><trkpt lat="42.26112890300088" lon="13.956196837340116"><ele>138.5</ele><time>2026-05-03T11:00:30.001Z</time></trkpt><trkpt lat="42.261173508079864" lon="13.956385636175305"><ele>139.0</ele><time>2026-05-03T11:00:31.001Z</time></trkpt><trkpt lat="42.26120959997078" lon="13.956560419576162"><ele>139.5</ele><time>2026-05-03T11:00:32.001Z</time></trkpt><trkpt lat="42.26124448593329" lon="13.956703967679491"><ele>140.0</ele><time>2026-05-03T11:00:33.001Z</time></trkpt><trkpt lat="42.26127595358996" lon="13.956816211164776"><ele>141.0</ele><time>2026-05-03T11:00:34.001Z</time></trkpt><trkpt lat="42.261296687952324" lon="13.956901143953987"><ele>142.0</ele><time>2026-05-03T11:00:35.001Z</time></trkpt><trkpt lat="42.261249066342934" lon="13.957017317044425"><ele>143.0</ele><time>2026-05-03T11:00:37.001Z</time></trkpt><trkpt lat="42.26117220925729" lon="13.95698572027937"><ele>144.0</ele><time>2026-05-03T11:00:38.001Z</time></trkpt><trkpt lat="42.26110945765033" lon="13.957031796987328"><ele>145.0</ele><time>2026-05-03T11:00:39.001Z</time></trkpt><trkpt lat="42.26103051417308" lon="13.957100301844434"><ele>146.0</ele><time>2026-05-03T11:00:40.001Z</time></trkpt><trkpt lat="42.26094081457462" lon="13.957169873792457"><ele>146.0</ele><time>2026-05-03T11:00:41.001Z</time></trkpt><trkpt lat="42.260839851947765" lon="13.957240364623878"><ele>146.0</ele><time>2026-05-03T11:00:42.001Z</time></trkpt><trkpt lat="42.2607299464161" lon="13.95730753020058"><ele>146.0</ele><time>2026-05-03T11:00:43.001Z</time></trkpt><trkpt lat="42.26061367389475" lon="13.957370490904067"><ele>146.0</ele><time>2026-05-03T11:00:44.001Z</time></trkpt><trkpt lat="42.26049704536547" lon="13.957432557198999"><ele>148.25</ele><time>2026-05-03T11:00:45.001Z</time></trkpt><trkpt lat="42.26038123304823" lon="13.957494189144146"><ele>150.5</ele><time>2026-05-03T11:00:46.001Z</time></trkpt><trkpt lat="42.26026939817241" lon="13.957558262343566"><ele>152.75</ele><time>2026-05-03T11:00:47.002Z</time></trkpt><trkpt lat="42.2601618963365" lon="13.957621778035817"><ele>155.0</ele><time>2026-05-03T11:00:48.002Z</time></trkpt><trkpt lat="42.26005168895656" lon="13.957691447325253"><ele>156.25</ele><time>2026-05-03T11:00:49.002Z</time></trkpt><trkpt lat="42.259940770011596" lon="13.957771789374457"><ele>157.5</ele><time>2026-05-03T11:00:50.002Z</time></trkpt><trkpt lat="42.259837445580544" lon="13.957849978458775"><ele>158.75</ele><time>2026-05-03T11:00:51.002Z</time></trkpt><trkpt lat="42.25973604859883" lon="13.957926708990327"><ele>160.0</ele><time>2026-05-03T11:00:52.002Z</time></trkpt><trkpt lat="42.25963007973672" lon="13.958006899201024"><ele>162.0</ele><time>2026-05-03T11:00:53.002Z</time></trkpt><trkpt lat="42.25952199442575" lon="13.958088691058807"><ele>164.0</ele><time>2026-05-03T11:00:54.002Z</time></trkpt><trkpt lat="42.259410320468575" lon="13.95817214053824"><ele>166.0</ele><time>2026-05-03T11:00:55.002Z</time></trkpt><trkpt lat="42.25927897406641" lon="13.958269843693397"><ele>168.0</ele><time>2026-05-03T11:00:56.002Z</time></trkpt><trkpt lat="42.25912737318033" lon="13.958382613336394"><ele>170.0</ele><time>2026-05-03T11:00:57.002Z</time></trkpt><trkpt lat="42.25896641218791" lon="13.958490579373539"><ele>172.0</ele><time>2026-05-03T11:00:58.002Z</time></trkpt><trkpt lat="42.25880000907121" lon="13.958589662748613"><ele>174.0</ele><time>2026-05-03T11:00:59.002Z</time></trkpt><trkpt lat="42.25859604891228" lon="13.958699247893167"><ele>177.0</ele><time>2026-05-03T11:01:00.002Z</time></trkpt><trkpt lat="42.25838653559871" lon="13.958822787886394"><ele>180.0</ele><time>2026-05-03T11:01:01.002Z</time></trkpt><trkpt lat="42.25819206028335" lon="13.958937144989083"><ele>183.0</ele><time>2026-05-03T11:01:02.002Z</time></trkpt><trkpt lat="42.258022465593974" lon="13.959035571633168"><ele>187.0</ele><time>2026-05-03T11:01:03.002Z</time></trkpt><trkpt lat="42.25785973619676" lon="13.959157668000566"><ele>191.0</ele><time>2026-05-03T11:01:04.002Z</time></trkpt><trkpt lat="42.2577029368527" lon="13.959250777842223"><ele>195.0</ele><time>2026-05-03T11:01:05.002Z</time></trkpt><trkpt lat="42.25757735304555" lon="13.959307436029992"><ele>195.6</ele><time>2026-05-03T11:01:06.002Z</time></trkpt><trkpt lat="42.25747030784878" lon="13.959372274836419"><ele>196.2</ele><time>2026-05-03T11:01:07.002Z</time></trkpt><trkpt lat="42.257383856829875" lon="13.959442586388619"><ele>196.8</ele><time>2026-05-03T11:01:08.002Z</time></trkpt><trkpt lat="42.25729991489141" lon="13.959468645175734"><ele>197.4</ele><time>2026-05-03T11:01:09.002Z</time></trkpt><trkpt lat="42.2572312929186" lon="13.959505110677187"><ele>198.0</ele><time>2026-05-03T11:01:10.002Z</time></trkpt><trkpt lat="42.25715176352659" lon="13.959545869479124"><ele>198.0</ele><time>2026-05-03T11:01:11.002Z</time></trkpt><trkpt lat="42.25706584360837" lon="13.959611370496502"><ele>198.0</ele><time>2026-05-03T11:01:12.002Z</time></trkpt><trkpt lat="42.25698407563533" lon="13.959668015478881"><ele>198.0</ele><time>2026-05-03T11:01:13.002Z</time></trkpt><trkpt lat="42.25691924939236" lon="13.959724887024414"><ele>198.0</ele><time>2026-05-03T11:01:14.002Z</time></trkpt><trkpt lat="42.25689443088907" lon="13.959825492215696"><ele>198.0</ele><time>2026-05-03T11:01:15.002Z</time></trkpt><trkpt lat="42.25691784561371" lon="13.95993307645597"><ele>198.0</ele><time>2026-05-03T11:01:16.002Z</time></trkpt><trkpt lat="42.25698842495224" lon="13.960026342349934"><ele>197.5</ele><time>2026-05-03T11:01:17.002Z</time></trkpt><trkpt lat="42.25704246952095" lon="13.960140491443347"><ele>197.0</ele><time>2026-05-03T11:01:18.002Z</time></trkpt><trkpt lat="42.25711297536137" lon="13.960293805839639"><ele>196.5</ele><time>2026-05-03T11:01:19.002Z</time></trkpt><trkpt lat="42.25718325456723" lon="13.960480404374003"><ele>196.0</ele><time>2026-05-03T11:01:20.002Z</time></trkpt><trkpt lat="42.25725682138062" lon="13.96069068345916"><ele>197.33333333333331</ele><time>2026-05-03T11:01:21.002Z</time></trkpt><trkpt lat="42.2573425050735" lon="13.960914650737886"><ele>198.66666666666669</ele><time>2026-05-03T11:01:22.002Z</time></trkpt><trkpt lat="42.25743209247269" lon="13.96115334634157"><ele>200.0</ele><time>2026-05-03T11:01:23.002Z</time></trkpt><trkpt lat="42.257527327666494" lon="13.961401834910864"><ele>200.0</ele><time>2026-05-03T11:01:24.002Z</time></trkpt><trkpt lat="42.257620874697324" lon="13.961648630083193"><ele>200.0</ele><time>2026-05-03T11:01:25.002Z</time></trkpt><trkpt lat="42.25771703844476" lon="13.961893980819282"><ele>200.0</ele><time>2026-05-03T11:01:26.002Z</time></trkpt><trkpt lat="42.25780537295057" lon="13.962123789819174"><ele>199.66666666666669</ele><time>2026-05-03T11:01:27.002Z</time></trkpt><trkpt lat="42.25789004035418" lon="13.962341212734287"><ele>199.33333333333331</ele><time>2026-05-03T11:01:28.002Z</time></trkpt><trkpt lat="42.25797439670731" lon="13.962551326945901"><ele>199.0</ele><time>2026-05-03T11:01:29.002Z</time></trkpt><trkpt lat="42.25805014263513" lon="13.962748714941496"><ele>200.66666666666666</ele><time>2026-05-03T11:01:30.002Z</time></trkpt><trkpt lat="42.258124961497536" lon="13.962938332061263"><ele>202.33333333333331</ele><time>2026-05-03T11:01:31.002Z</time></trkpt><trkpt lat="42.25819164902099" lon="13.963120951563287"><ele>204.0</ele><time>2026-05-03T11:01:32.002Z</time></trkpt><trkpt lat="42.258256165797654" lon="13.963290124240288"><ele>204.16666666666666</ele><time>2026-05-03T11:01:33.002Z</time></trkpt><trkpt lat="42.25830858683611" lon="13.963413407386259"><ele>204.33333333333331</ele><time>2026-05-03T11:01:34.002Z</time></trkpt><trkpt lat="42.258346144642054" lon="13.963513871234767"><ele>204.5</ele><time>2026-05-03T11:01:35.002Z</time></trkpt><trkpt lat="42.2583776075183" lon="13.963595311828284"><ele>204.66666666666666</ele><time>2026-05-03T11:01:36.002Z</time></trkpt><trkpt lat="42.25840144558211" lon="13.963693895335954"><ele>204.83333333333331</ele><time>2026-05-03T11:01:38.002Z</time></trkpt><trkpt lat="42.25843067505423" lon="13.963776094497755"><ele>205.0</ele><time>2026-05-03T11:01:41.002Z</time></trkpt><trkpt lat="42.25846020255955" lon="13.963859131709519"><ele>205.0</ele><time>2026-05-03T11:01:43.002Z</time></trkpt><trkpt lat="42.258452288945385" lon="13.964006726445408"><ele>205.0</ele><time>2026-05-03T11:01:45.002Z</time></trkpt><trkpt lat="42.258446121593416" lon="13.964218552982949"><ele>205.0</ele><time>2026-05-03T11:01:47.002Z</time></trkpt><trkpt lat="42.25845696346048" lon="13.964370804408064"><ele>205.0</ele><time>2026-05-03T11:01:48.002Z</time></trkpt><trkpt lat="42.25894937839768" lon="13.964682026588381"><ele>205.75</ele><time>2026-05-03T11:01:50.002Z</time></trkpt><trkpt lat="42.25903844509381" lon="13.964864106496643"><ele>206.5</ele><time>2026-05-03T11:01:51.002Z</time></trkpt><trkpt lat="42.2591210562615" lon="13.965028036245675"><ele>207.25</ele><time>2026-05-03T11:01:52.002Z</time></trkpt><trkpt lat="42.25919444464247" lon="13.965179173906574"><ele>208.0</ele><time>2026-05-03T11:01:53.002Z</time></trkpt><trkpt lat="42.25926751947659" lon="13.965331878175329"><ele>208.0</ele><time>2026-05-03T11:01:54.002Z</time></trkpt><trkpt lat="42.259332086546635" lon="13.965470824317824"><ele>208.0</ele><time>2026-05-03T11:01:55.002Z</time></trkpt><trkpt lat="42.25939380657407" lon="13.965604987265989"><ele>208.0</ele><time>2026-05-03T11:01:56.002Z</time></trkpt><trkpt lat="42.25945893571792" lon="13.965740134886072"><ele>208.0</ele><time>2026-05-03T11:01:57.002Z</time></trkpt><trkpt lat="42.259504139547" lon="13.965839716756916"><ele>208.0</ele><time>2026-05-03T11:01:58.001Z</time></trkpt><trkpt lat="42.25952155084543" lon="13.965934287149944"><ele>208.33333333333331</ele><time>2026-05-03T11:02:00.001Z</time></trkpt><trkpt lat="42.25953628765919" lon="13.966054832186092"><ele>208.66666666666666</ele><time>2026-05-03T11:02:02.001Z</time></trkpt><trkpt lat="42.25957280415121" lon="13.96613037205368"><ele>209.0</ele><time>2026-05-03T11:02:04.001Z</time></trkpt><trkpt lat="42.25957830401098" lon="13.966279022739812"><ele>209.33333333333331</ele><time>2026-05-03T11:02:06.001Z</time></trkpt><trkpt lat="42.25957721874411" lon="13.9663725150213"><ele>209.66666666666666</ele><time>2026-05-03T11:02:07.001Z</time></trkpt><trkpt lat="42.259584117832915" lon="13.966463677555753"><ele>210.0</ele><time>2026-05-03T11:02:08.001Z</time></trkpt><trkpt lat="42.259603425133214" lon="13.966631689965046"><ele>210.8</ele><time>2026-05-03T11:02:10.001Z</time></trkpt><trkpt lat="42.25959744856619" lon="13.96678893240519"><ele>211.6</ele><time>2026-05-03T11:02:12.001Z</time></trkpt><trkpt lat="42.259559962695754" lon="13.966884395686773"><ele>212.39999999999998</ele><time>2026-05-03T11:02:14.001Z</time></trkpt><trkpt lat="42.25958456681575" lon="13.966983050837685"><ele>213.2</ele><time>2026-05-03T11:02:16.001Z</time></trkpt><trkpt lat="42.25963315830365" lon="13.967098947281855"><ele>214.0</ele><time>2026-05-03T11:02:18.001Z</time></trkpt><trkpt lat="42.259693849666014" lon="13.967258463786482"><ele>213.99999999999997</ele><time>2026-05-03T11:02:20.001Z</time></trkpt><trkpt lat="42.259730411692495" lon="13.967359705998629"><ele>214.0</ele><time>2026-05-03T11:02:21.001Z</time></trkpt><trkpt lat="42.25976551753924" lon="13.967464502808046"><ele>214.0</ele><time>2026-05-03T11:02:22.001Z</time></trkpt><trkpt lat="42.25979897981985" lon="13.967568434142109"><ele>214.0</ele><time>2026-05-03T11:02:23.001Z</time></trkpt><trkpt lat="42.25982770258593" lon="13.96766758391762"><ele>213.99999999999997</ele><time>2026-05-03T11:02:24.001Z</time></trkpt><trkpt lat="42.259847593741924" lon="13.967770694327045"><ele>214.0</ele><time>2026-05-03T11:02:25.001Z</time></trkpt><trkpt lat="42.259867513638625" lon="13.967868714954985"><ele>210.83333333333331</ele><time>2026-05-03T11:02:26.001Z</time></trkpt><trkpt lat="42.25989088009679" lon="13.96794817987154"><ele>207.66666666666666</ele><time>2026-05-03T11:02:27.001Z</time></trkpt><trkpt lat="42.259969994048234" lon="13.96808639721169"><ele>204.5</ele><time>2026-05-03T11:02:29.001Z</time></trkpt><trkpt lat="42.260015752214485" lon="13.968159460545627"><ele>201.33333333333331</ele><time>2026-05-03T11:02:30.001Z</time></trkpt><trkpt lat="42.26005453413738" lon="13.968251090717672"><ele>198.16666666666666</ele><time>2026-05-03T11:02:31.001Z</time></trkpt><trkpt lat="42.26009362997661" lon="13.968367337965821"><ele>195.0</ele><time>2026-05-03T11:02:32.001Z</time></trkpt><trkpt lat="42.260134768090865" lon="13.968478258830157"><ele>194.8</ele><time>2026-05-03T11:02:33.001Z</time></trkpt><trkpt lat="42.26017781237427" lon="13.968585678790616"><ele>194.6</ele><time>2026-05-03T11:02:34.001Z</time></trkpt><trkpt lat="42.2602167807287" lon="13.968679243917396"><ele>194.39999999999998</ele><time>2026-05-03T11:02:35.001Z</time></trkpt><trkpt lat="42.260267765929406" lon="13.968794101923164"><ele>194.2</ele><time>2026-05-03T11:02:36.001Z</time></trkpt><trkpt lat="42.26031600387203" lon="13.968926383637971"><ele>194.0</ele><time>2026-05-03T11:02:37.001Z</time></trkpt><trkpt lat="42.26036576046551" lon="13.969058602651963"><ele>194.75</ele><time>2026-05-03T11:02:38.001Z</time></trkpt><trkpt lat="42.26041536831373" lon="13.969194025343818"><ele>195.5</ele><time>2026-05-03T11:02:39.001Z</time></trkpt><trkpt lat="42.260472143499236" lon="13.96934720564876"><ele>196.25</ele><time>2026-05-03T11:02:40.001Z</time></trkpt><trkpt lat="42.260525446844056" lon="13.969494816295414"><ele>197.0</ele><time>2026-05-03T11:02:41.001Z</time></trkpt><trkpt lat="42.26057713125908" lon="13.969641746288936"><ele>196.75</ele><time>2026-05-03T11:02:42.001Z</time></trkpt><trkpt lat="42.260629749064705" lon="13.969782333751182"><ele>196.5</ele><time>2026-05-03T11:02:43.001Z</time></trkpt><trkpt lat="42.260685384687285" lon="13.969923118994437"><ele>196.25</ele><time>2026-05-03T11:02:44.001Z</time></trkpt><trkpt lat="42.260740591463325" lon="13.970073010173568"><ele>196.0</ele><time>2026-05-03T11:02:45.001Z</time></trkpt><trkpt lat="42.26079952407368" lon="13.970224513913886"><ele>196.0</ele><time>2026-05-03T11:02:46.001Z</time></trkpt><trkpt lat="42.26085769667756" lon="13.970370432047405"><ele>196.0</ele><time>2026-05-03T11:02:47.001Z</time></trkpt><trkpt lat="42.26091111643086" lon="13.970505381202145"><ele>196.0</ele><time>2026-05-03T11:02:48.001Z</time></trkpt><trkpt lat="42.2609482690174" lon="13.970603352608386"><ele>196.0</ele><time>2026-05-03T11:02:49.001Z</time></trkpt><trkpt lat="42.26098900715023" lon="13.970713820875199"><ele>196.0</ele><time>2026-05-03T11:02:50.001Z</time></trkpt><trkpt lat="42.26103313314908" lon="13.970828446295755"><ele>197.0</ele><time>2026-05-03T11:02:51.001Z</time></trkpt><trkpt lat="42.26107458098344" lon="13.970955916332919"><ele>198.0</ele><time>2026-05-03T11:02:52.001Z</time></trkpt><trkpt lat="42.26112916680344" lon="13.971087970721843"><ele>199.0</ele><time>2026-05-03T11:02:53.001Z</time></trkpt><trkpt lat="42.26117026097812" lon="13.97120551177866"><ele>200.0</ele><time>2026-05-03T11:02:54.001Z</time></trkpt><trkpt lat="42.26119959386462" lon="13.97131311447346"><ele>201.0</ele><time>2026-05-03T11:02:55.001Z</time></trkpt><trkpt lat="42.261209464278515" lon="13.971413562098308"><ele>201.0</ele><time>2026-05-03T11:02:56.001Z</time></trkpt><trkpt lat="42.26123824542405" lon="13.971503935262549"><ele>201.0</ele><time>2026-05-03T11:02:57.001Z</time></trkpt><trkpt lat="42.261290209199785" lon="13.9716091086157"><ele>201.0</ele><time>2026-05-03T11:02:58.001Z</time></trkpt><trkpt lat="42.26136600873116" lon="13.971719576452843"><ele>201.0</ele><time>2026-05-03T11:02:59.001Z</time></trkpt><trkpt lat="42.26141721025876" lon="13.971837596490108"><ele>201.0</ele><time>2026-05-03T11:03:00.001Z</time></trkpt><trkpt lat="42.261454818131206" lon="13.97195156109823"><ele>199.60000000000002</ele><time>2026-05-03T11:03:01.001Z</time></trkpt><trkpt lat="42.26147602053187" lon="13.972052843255979"><ele>198.2</ele><time>2026-05-03T11:03:02.001Z</time></trkpt><trkpt lat="42.261510117685674" lon="13.972161386108267"><ele>196.8</ele><time>2026-05-03T11:03:03.001Z</time></trkpt><trkpt lat="42.261551522995234" lon="13.972285965082529"><ele>195.39999999999998</ele><time>2026-05-03T11:03:04.001Z</time></trkpt><trkpt lat="42.26159502693614" lon="13.972416556960056"><ele>194.0</ele><time>2026-05-03T11:03:05.001Z</time></trkpt><trkpt lat="42.261654378649915" lon="13.972555450928873"><ele>193.79999999999998</ele><time>2026-05-03T11:03:06.001Z</time></trkpt><trkpt lat="42.26172606509697" lon="13.972694157088803"><ele>193.6</ele><time>2026-05-03T11:03:07.001Z</time></trkpt><trkpt lat="42.261794237117236" lon="13.97282277514821"><ele>193.4</ele><time>2026-05-03T11:03:08.001Z</time></trkpt><trkpt lat="42.26184717929871" lon="13.972934965646797"><ele>193.2</ele><time>2026-05-03T11:03:09.001Z</time></trkpt><trkpt lat="42.2618823709327" lon="13.97306110985369"><ele>193.0</ele><time>2026-05-03T11:03:10.001Z</time></trkpt><trkpt lat="42.26191739179847" lon="13.973184775472252"><ele>192.99999999999997</ele><time>2026-05-03T11:03:11.001Z</time></trkpt><trkpt lat="42.261946359079055" lon="13.973288023331936"><ele>193.0</ele><time>2026-05-03T11:03:12.001Z</time></trkpt><trkpt lat="42.26198545602216" lon="13.973379848872591"><ele>193.0</ele><time>2026-05-03T11:03:13.001Z</time></trkpt><trkpt lat="42.262003002607194" lon="13.973470060788332"><ele>193.0</ele><time>2026-05-03T11:03:14.001Z</time></trkpt><trkpt lat="42.26202328867561" lon="13.973558106373186"><ele>192.99999999999997</ele><time>2026-05-03T11:03:15.001Z</time></trkpt><trkpt lat="42.26204659562493" lon="13.973675818155032"><ele>193.0</ele><time>2026-05-03T11:03:16.001Z</time></trkpt><trkpt lat="42.26209279482887" lon="13.973772194042976"><ele>192.66666666666666</ele><time>2026-05-03T11:03:17.001Z</time></trkpt><trkpt lat="42.26215095516003" lon="13.973863150775545"><ele>192.33333333333331</ele><time>2026-05-03T11:03:18.001Z</time></trkpt><trkpt lat="42.262209241580905" lon="13.973963912840738"><ele>192.0</ele><time>2026-05-03T11:03:19.001Z</time></trkpt><trkpt lat="42.262256291530534" lon="13.97407210037196"><ele>191.66666666666666</ele><time>2026-05-03T11:03:20.001Z</time></trkpt><trkpt lat="42.26228282423228" lon="13.974166930802403"><ele>191.33333333333331</ele><time>2026-05-03T11:03:21.001Z</time></trkpt><trkpt lat="42.262312390892276" lon="13.97426182140259"><ele>191.0</ele><time>2026-05-03T11:03:22.001Z</time></trkpt><trkpt lat="42.26234240073419" lon="13.97435161387427"><ele>191.0</ele><time>2026-05-03T11:03:23.001Z</time></trkpt><trkpt lat="42.2623803309981" lon="13.974457006408047"><ele>191.0</ele><time>2026-05-03T11:03:24.001Z</time></trkpt><trkpt lat="42.262417790092634" lon="13.974592062777495"><ele>191.0</ele><time>2026-05-03T11:03:25.001Z</time></trkpt><trkpt lat="42.262442679610274" lon="13.97474533639443"><ele>191.0</ele><time>2026-05-03T11:03:26.001Z</time></trkpt><trkpt lat="42.262470160819184" lon="13.974926165980646"><ele>191.0</ele><time>2026-05-03T11:03:27.001Z</time></trkpt><trkpt lat="42.26249593014906" lon="13.97509450151088"><ele>193.0</ele><time>2026-05-03T11:03:28.001Z</time></trkpt><trkpt lat="42.26252453392006" lon="13.975253594745512"><ele>195.0</ele><time>2026-05-03T11:03:29.001Z</time></trkpt><trkpt lat="42.26255185035886" lon="13.97540101728333"><ele>197.0</ele><time>2026-05-03T11:03:30.001Z</time></trkpt><trkpt lat="42.26256799693614" lon="13.975531600904917"><ele>199.0</ele><time>2026-05-03T11:03:31.001Z</time></trkpt><trkpt lat="42.26258594313598" lon="13.975646748986776"><ele>201.0</ele><time>2026-05-03T11:03:32.002Z</time></trkpt><trkpt lat="42.26260451080173" lon="13.97573542166716"><ele>201.0</ele><time>2026-05-03T11:03:33.002Z</time></trkpt><trkpt lat="42.26262496517367" lon="13.975834663250106"><ele>201.0</ele><time>2026-05-03T11:03:34.002Z</time></trkpt><trkpt lat="42.26261579426612" lon="13.975920845640207"><ele>201.0</ele><time>2026-05-03T11:03:35.002Z</time></trkpt><trkpt lat="42.26252253139553" lon="13.976021600768075"><ele>201.0</ele><time>2026-05-03T11:03:37.002Z</time></trkpt><trkpt lat="42.26244897503054" lon="13.976129088161525"><ele>201.0</ele><time>2026-05-03T11:03:39.002Z</time></trkpt><trkpt lat="42.262440069123954" lon="13.976259065215839"><ele>202.60000000000002</ele><time>2026-05-03T11:03:41.002Z</time></trkpt><trkpt lat="42.26246450259129" lon="13.976385182168192"><ele>204.2</ele><time>2026-05-03T11:04:01.002Z</time></trkpt><trkpt lat="42.262476120853776" lon="13.97646990083054"><ele>205.8</ele><time>2026-05-03T11:04:02.002Z</time></trkpt><trkpt lat="42.26250046035577" lon="13.976598231519464"><ele>207.39999999999998</ele><time>2026-05-03T11:04:03.001Z</time></trkpt><trkpt lat="42.26254556026641" lon="13.976751787082557"><ele>209.0</ele><time>2026-05-03T11:04:04.001Z</time></trkpt><trkpt lat="42.26259916439556" lon="13.976930220025048"><ele>211.33333333333334</ele><time>2026-05-03T11:04:05.001Z</time></trkpt><trkpt lat="42.26265295771166" lon="13.977124688404023"><ele>213.66666666666669</ele><time>2026-05-03T11:04:06.001Z</time></trkpt><trkpt lat="42.26271124671747" lon="13.977340809186577"><ele>216.0</ele><time>2026-05-03T11:04:07.001Z</time></trkpt><trkpt lat="42.26276707536987" lon="13.977566364140058"><ele>218.66666666666669</ele><time>2026-05-03T11:04:08.001Z</time></trkpt><trkpt lat="42.26282372374633" lon="13.977820441561848"><ele>221.33333333333334</ele><time>2026-05-03T11:04:09.001Z</time></trkpt><trkpt lat="42.26287305441704" lon="13.978085128477847"><ele>224.0</ele><time>2026-05-03T11:04:10.001Z</time></trkpt><trkpt lat="42.26291807462246" lon="13.978367836518974"><ele>226.0</ele><time>2026-05-03T11:04:11.001Z</time></trkpt><trkpt lat="42.26295462148703" lon="13.978656154819756"><ele>228.0</ele><time>2026-05-03T11:04:12.001Z</time></trkpt><trkpt lat="42.262979796169056" lon="13.97891558179988"><ele>230.0</ele><time>2026-05-03T11:04:13.001Z</time></trkpt><trkpt lat="42.26298851194253" lon="13.979148772355954"><ele>230.2</ele><time>2026-05-03T11:04:14.001Z</time></trkpt><trkpt lat="42.26299272787482" lon="13.97931694725233"><ele>230.4</ele><time>2026-05-03T11:04:15.001Z</time></trkpt><trkpt lat="42.26299624525714" lon="13.979425470664099"><ele>230.60000000000002</ele><time>2026-05-03T11:04:16.001Z</time></trkpt><trkpt lat="42.26297026515968" lon="13.979506478611803"><ele>230.8</ele><time>2026-05-03T11:04:17.001Z</time></trkpt><trkpt lat="42.263082790592485" lon="13.979625870413273"><ele>231.0</ele><time>2026-05-03T11:04:19.001Z</time></trkpt><trkpt lat="42.26315846590276" lon="13.9796823603148"><ele>228.20000000000002</ele><time>2026-05-03T11:04:20.001Z</time></trkpt><trkpt lat="42.26320797695116" lon="13.979762350513047"><ele>225.40000000000003</ele><time>2026-05-03T11:04:21.001Z</time></trkpt><trkpt lat="42.26326741508646" lon="13.979852229039865"><ele>222.6</ele><time>2026-05-03T11:04:22.001Z</time></trkpt><trkpt lat="42.26332876026856" lon="13.979975395130493"><ele>219.8</ele><time>2026-05-03T11:04:23.001Z</time></trkpt><trkpt lat="42.26337901716708" lon="13.980098129216737"><ele>217.0</ele><time>2026-05-03T11:04:24.001Z</time></trkpt><trkpt lat="42.26340904162113" lon="13.980235114949306"><ele>217.0</ele><time>2026-05-03T11:04:25.001Z</time></trkpt><trkpt lat="42.26341965301041" lon="13.980395327622261"><ele>217.0</ele><time>2026-05-03T11:04:26.001Z</time></trkpt><trkpt lat="42.26342511298864" lon="13.98053154620446"><ele>217.0</ele><time>2026-05-03T11:04:27.001Z</time></trkpt><trkpt lat="42.263414026081975" lon="13.980652231027427"><ele>217.0</ele><time>2026-05-03T11:04:28.001Z</time></trkpt><trkpt lat="42.26337996163194" lon="13.98078175828562"><ele>217.0</ele><time>2026-05-03T11:04:29.001Z</time></trkpt><trkpt lat="42.2633631324648" lon="13.980886113296965"><ele>217.16666666666666</ele><time>2026-05-03T11:04:30.001Z</time></trkpt><trkpt lat="42.26335227771368" lon="13.980992209484375"><ele>217.33333333333331</ele><time>2026-05-03T11:04:31.001Z</time></trkpt><trkpt lat="42.26336575526379" lon="13.981136025813228"><ele>217.5</ele><time>2026-05-03T11:04:32.001Z</time></trkpt><trkpt lat="42.2634074275685" lon="13.981239678666107"><ele>217.66666666666669</ele><time>2026-05-03T11:04:33.001Z</time></trkpt><trkpt lat="42.26345245697658" lon="13.981314180298494"><ele>217.83333333333334</ele><time>2026-05-03T11:04:35.001Z</time></trkpt><trkpt lat="42.26351744481837" lon="13.981359739437284"><ele>218.0</ele><time>2026-05-03T11:04:37.001Z</time></trkpt><trkpt lat="42.26357607878859" lon="13.981303144888257"><ele>218.0</ele><time>2026-05-03T11:04:38.001Z</time></trkpt><trkpt lat="42.26367418870651" lon="13.981194029963952"><ele>218.0</ele><time>2026-05-03T11:04:40.001Z</time></trkpt><trkpt lat="42.26371111544355" lon="13.981124685813006"><ele>218.0</ele><time>2026-05-03T11:04:41.001Z</time></trkpt><trkpt lat="42.26383580228096" lon="13.981046260300921"><ele>218.0</ele><time>2026-05-03T11:04:43.001Z</time></trkpt><trkpt lat="42.26394840058049" lon="13.980987872315694"><ele>218.0</ele><time>2026-05-03T11:04:45.001Z</time></trkpt><trkpt lat="42.264034478835896" lon="13.981052599224727"><ele>215.4</ele><time>2026-05-03T11:04:47.001Z</time></trkpt><trkpt lat="42.26411048562238" lon="13.98117293402346"><ele>212.8</ele><time>2026-05-03T11:04:49.001Z</time></trkpt><trkpt lat="42.264163290947685" lon="13.98131813390767"><ele>210.2</ele><time>2026-05-03T11:04:51.001Z</time></trkpt><trkpt lat="42.26421716690821" lon="13.98140692714203"><ele>207.6</ele><time>2026-05-03T11:04:52.001Z</time></trkpt><trkpt lat="42.26427050322462" lon="13.981485420926"><ele>205.0</ele><time>2026-05-03T11:04:53.001Z</time></trkpt><trkpt lat="42.264319892755886" lon="13.981550598550063"><ele>204.99999999999997</ele><time>2026-05-03T11:04:54.001Z</time></trkpt><trkpt lat="42.26437822772518" lon="13.981582914541566"><ele>205.0</ele><time>2026-05-03T11:04:55.001Z</time></trkpt><trkpt lat="42.26446561141191" lon="13.981672490377766"><ele>205.0</ele><time>2026-05-03T11:04:57.001Z</time></trkpt><trkpt lat="42.264554969653865" lon="13.981767200303947"><ele>205.0</ele><time>2026-05-03T11:04:59.001Z</time></trkpt><trkpt lat="42.26461516763242" lon="13.981837829175099"><ele>204.99999999999997</ele><time>2026-05-03T11:05:00.001Z</time></trkpt><trkpt lat="42.264676469719745" lon="13.98190477460921"><ele>205.0</ele><time>2026-05-03T11:05:01.001Z</time></trkpt><trkpt lat="42.26470922439749" lon="13.982004984468295"><ele>204.99999999999997</ele><time>2026-05-03T11:05:02.001Z</time></trkpt><trkpt lat="42.264748202704894" lon="13.982096084397766"><ele>205.0</ele><time>2026-05-03T11:05:03.001Z</time></trkpt><trkpt lat="42.26475275192696" lon="13.982221354270013"><ele>205.0</ele><time>2026-05-03T11:05:04.001Z</time></trkpt><trkpt lat="42.264764883632544" lon="13.982320294657955"><ele>205.0</ele><time>2026-05-03T11:05:05.001Z</time></trkpt><trkpt lat="42.264782010473894" lon="13.982423750812401"><ele>204.99999999999997</ele><time>2026-05-03T11:05:06.001Z</time></trkpt><trkpt lat="42.26480565310629" lon="13.982514952063191"><ele>205.0</ele><time>2026-05-03T11:05:07.001Z</time></trkpt><trkpt lat="42.264822516471256" lon="13.982609343466478"><ele>202.33333333333331</ele><time>2026-05-03T11:05:08.001Z</time></trkpt><trkpt lat="42.26482060427949" lon="13.98270428388811"><ele>199.66666666666666</ele><time>2026-05-03T11:05:09.001Z</time></trkpt><trkpt lat="42.264842254849945" lon="13.982807017285344"><ele>197.0</ele><time>2026-05-03T11:05:10.001Z</time></trkpt><trkpt lat="42.264863318204064" lon="13.98290272745073"><ele>194.33333333333331</ele><time>2026-05-03T11:05:11.001Z</time></trkpt><trkpt lat="42.264873945530475" lon="13.983010007597619"><ele>191.66666666666666</ele><time>2026-05-03T11:05:12.001Z</time></trkpt><trkpt lat="42.26488237571517" lon="13.98311892436624"><ele>189.0</ele><time>2026-05-03T11:05:13.001Z</time></trkpt><trkpt lat="42.26487217610822" lon="13.983224325306194"><ele>189.0</ele><time>2026-05-03T11:05:14.001Z</time></trkpt><trkpt lat="42.26489088034554" lon="13.983319874420935"><ele>189.0</ele><time>2026-05-03T11:05:15.001Z</time></trkpt><trkpt lat="42.26490075702941" lon="13.983432031611793"><ele>189.0</ele><time>2026-05-03T11:05:16.001Z</time></trkpt><trkpt lat="42.264901862587095" lon="13.983557928838716"><ele>189.0</ele><time>2026-05-03T11:05:17.001Z</time></trkpt><trkpt lat="42.26493004007965" lon="13.983662973324492"><ele>189.0</ele><time>2026-05-03T11:05:18.001Z</time></trkpt><trkpt lat="42.26493480470272" lon="13.983772896138042"><ele>189.0</ele><time>2026-05-03T11:05:19.001Z</time></trkpt><trkpt lat="42.26499045025172" lon="13.98391625969709"><ele>188.33333333333334</ele><time>2026-05-03T11:05:21.001Z</time></trkpt><trkpt lat="42.265101991947745" lon="13.983937359137682"><ele>187.66666666666666</ele><time>2026-05-03T11:05:23.001Z</time></trkpt><trkpt lat="42.26516203913867" lon="13.983881094271627"><ele>187.0</ele><time>2026-05-03T11:05:24.001Z</time></trkpt><trkpt lat="42.26521210056315" lon="13.983794095315707"><ele>186.33333333333331</ele><time>2026-05-03T11:05:25.001Z</time></trkpt><trkpt lat="42.26524660391209" lon="13.983695740340108"><ele>185.66666666666666</ele><time>2026-05-03T11:05:26.001Z</time></trkpt><trkpt lat="42.26527784489529" lon="13.983585483045664"><ele>185.0</ele><time>2026-05-03T11:05:27.001Z</time></trkpt><trkpt lat="42.26527251226627" lon="13.983468192934021"><ele>185.0</ele><time>2026-05-03T11:05:28.001Z</time></trkpt><trkpt lat="42.26525560800053" lon="13.983356043058047"><ele>185.0</ele><time>2026-05-03T11:05:29.001Z</time></trkpt><trkpt lat="42.26523491170304" lon="13.98324637630544"><ele>185.0</ele><time>2026-05-03T11:05:30.001Z</time></trkpt><trkpt lat="42.26522237397123" lon="13.983156994690477"><ele>185.0</ele><time>2026-05-03T11:05:31.001Z</time></trkpt><trkpt lat="42.26521444989642" lon="13.983053605677428"><ele>185.0</ele><time>2026-05-03T11:05:32.001Z</time></trkpt><trkpt lat="42.26521395443989" lon="13.982936546375608"><ele>185.0</ele><time>2026-05-03T11:05:33.001Z</time></trkpt><trkpt lat="42.26522592364509" lon="13.982824327021113"><ele>185.66666666666666</ele><time>2026-05-03T11:05:34.001Z</time></trkpt><trkpt lat="42.2652534148494" lon="13.982723255406361"><ele>186.33333333333331</ele><time>2026-05-03T11:05:35.001Z</time></trkpt><trkpt lat="42.265282919079986" lon="13.982619037241186"><ele>187.0</ele><time>2026-05-03T11:05:36.001Z</time></trkpt><trkpt lat="42.26531237427811" lon="13.982541657456512"><ele>187.66666666666666</ele><time>2026-05-03T11:05:37.001Z</time></trkpt><trkpt lat="42.265348141524605" lon="13.982454292221597"><ele>188.33333333333334</ele><time>2026-05-03T11:05:38.001Z</time></trkpt><trkpt lat="42.2653817913347" lon="13.98237432259553"><ele>189.0</ele><time>2026-05-03T11:05:39.001Z</time></trkpt><trkpt lat="42.26544914636159" lon="13.982221173320585"><ele>189.0</ele><time>2026-05-03T11:05:41.001Z</time></trkpt><trkpt lat="42.26554080845974" lon="13.982132504118685"><ele>189.0</ele><time>2026-05-03T11:05:43.001Z</time></trkpt><trkpt lat="42.265602657275444" lon="13.982111057952036"><ele>189.0</ele><time>2026-05-03T11:05:44.001Z</time></trkpt><trkpt lat="42.26566654336249" lon="13.982147094318057"><ele>189.0</ele><time>2026-05-03T11:05:45.001Z</time></trkpt><trkpt lat="42.26572326965792" lon="13.982214550789815"><ele>189.0</ele><time>2026-05-03T11:05:46.001Z</time></trkpt><trkpt lat="42.265771746857794" lon="13.982300351703877"><ele>189.0</ele><time>2026-05-03T11:05:47.001Z</time></trkpt><trkpt lat="42.26582398650212" lon="13.982380898305738"><ele>185.6</ele><time>2026-05-03T11:05:48.001Z</time></trkpt><trkpt lat="42.2658901732282" lon="13.982439680045713"><ele>182.2</ele><time>2026-05-03T11:05:49.001Z</time></trkpt><trkpt lat="42.26595456409126" lon="13.982557994439464"><ele>178.79999999999998</ele><time>2026-05-03T11:05:50.001Z</time></trkpt><trkpt lat="42.26603430811279" lon="13.982675039913374"><ele>175.39999999999998</ele><time>2026-05-03T11:05:51.001Z</time></trkpt><trkpt lat="42.26611740612221" lon="13.982774872312982"><ele>172.0</ele><time>2026-05-03T11:05:52.001Z</time></trkpt><trkpt lat="42.266206354223186" lon="13.982848612467759"><ele>172.0</ele><time>2026-05-03T11:05:53.001Z</time></trkpt><trkpt lat="42.2663006240611" lon="13.982890457663126"><ele>172.0</ele><time>2026-05-03T11:05:54.001Z</time></trkpt><trkpt lat="42.266402751877614" lon="13.982902537694079"><ele>172.0</ele><time>2026-05-03T11:05:55.001Z</time></trkpt><trkpt lat="42.26650271161619" lon="13.982893664112915"><ele>172.0</ele><time>2026-05-03T11:05:56.001Z</time></trkpt><trkpt lat="42.26660616870893" lon="13.982882940962881"><ele>172.0</ele><time>2026-05-03T11:05:57.001Z</time></trkpt><trkpt lat="42.266699767783905" lon="13.982874560180472"><ele>170.39999999999998</ele><time>2026-05-03T11:05:58.001Z</time></trkpt><trkpt lat="42.26677074600448" lon="13.982900090682662"><ele>168.79999999999998</ele><time>2026-05-03T11:05:59.001Z</time></trkpt><trkpt lat="42.266836099136064" lon="13.982944279434834"><ele>167.2</ele><time>2026-05-03T11:06:00.001Z</time></trkpt><trkpt lat="42.26690980033225" lon="13.98314249223867"><ele>165.6</ele><time>2026-05-03T11:06:02.002Z</time></trkpt><trkpt lat="42.26691820147414" lon="13.98329678705642"><ele>164.0</ele><time>2026-05-03T11:06:03.002Z</time></trkpt><trkpt lat="42.266922362275984" lon="13.983476368128196"><ele>164.0</ele><time>2026-05-03T11:06:04.002Z</time></trkpt><trkpt lat="42.26693341782801" lon="13.983694699942681"><ele>164.0</ele><time>2026-05-03T11:06:05.002Z</time></trkpt><trkpt lat="42.266957834917484" lon="13.983962498505562"><ele>164.0</ele><time>2026-05-03T11:06:06.002Z</time></trkpt><trkpt lat="42.266991873692376" lon="13.984259430259655"><ele>162.33333333333331</ele><time>2026-05-03T11:06:07.002Z</time></trkpt><trkpt lat="42.26703740707666" lon="13.984561013559931"><ele>160.66666666666666</ele><time>2026-05-03T11:06:08.002Z</time></trkpt><trkpt lat="42.26706482577441" lon="13.98485452313106"><ele>159.0</ele><time>2026-05-03T11:06:09Z</time></trkpt><trkpt lat="42.26709764453577" lon="13.985102116031072"><ele>157.0</ele><time>2026-05-03T11:06:10Z</time></trkpt><trkpt lat="42.26711217166963" lon="13.985378963184214"><ele>155.0</ele><time>2026-05-03T11:06:11Z</time></trkpt><trkpt lat="42.26710488004804" lon="13.985635294245391"><ele>153.0</ele><time>2026-05-03T11:06:12Z</time></trkpt><trkpt lat="42.26708533375832" lon="13.985886589603025"><ele>151.33333333333334</ele><time>2026-05-03T11:06:13Z</time></trkpt><trkpt lat="42.267052330294526" lon="13.98614175966015"><ele>149.66666666666669</ele><time>2026-05-03T11:06:14Z</time></trkpt><trkpt lat="42.267012317441505" lon="13.986389828550681"><ele>148.0</ele><time>2026-05-03T11:06:15Z</time></trkpt><trkpt lat="42.26696299196897" lon="13.986626567563414"><ele>146.0</ele><time>2026-05-03T11:06:16Z</time></trkpt><trkpt lat="42.26690925784525" lon="13.986880182641919"><ele>144.0</ele><time>2026-05-03T11:06:17Z</time></trkpt><trkpt lat="42.26686167476274" lon="13.98712720236719"><ele>142.0</ele><time>2026-05-03T11:06:18Z</time></trkpt><trkpt lat="42.26680458115463" lon="13.987395881749999"><ele>140.33333333333334</ele><time>2026-05-03T11:06:19Z</time></trkpt><trkpt lat="42.26674492054005" lon="13.987701209665675"><ele>138.66666666666666</ele><time>2026-05-03T11:06:20Z</time></trkpt><trkpt lat="42.26668319500914" lon="13.987975851643064"><ele>137.0</ele><time>2026-05-03T11:06:21Z</time></trkpt><trkpt lat="42.266629567528966" lon="13.98823229706664"><ele>135.33333333333331</ele><time>2026-05-03T11:06:22Z</time></trkpt><trkpt lat="42.26658748478888" lon="13.988487357965896"><ele>133.66666666666666</ele><time>2026-05-03T11:06:23Z</time></trkpt><trkpt lat="42.2665744559764" lon="13.988772117118177"><ele>132.0</ele><time>2026-05-03T11:06:24Z</time></trkpt><trkpt lat="42.26659064284962" lon="13.989057881664934"><ele>132.0</ele><time>2026-05-03T11:06:25Z</time></trkpt><trkpt lat="42.26662631597204" lon="13.98933658406038"><ele>132.0</ele><time>2026-05-03T11:06:26Z</time></trkpt><trkpt lat="42.26667185230853" lon="13.989591735824451"><ele>132.0</ele><time>2026-05-03T11:06:27Z</time></trkpt><trkpt lat="42.266725724984376" lon="13.989840723212218"><ele>131.66666666666666</ele><time>2026-05-03T11:06:28Z</time></trkpt><trkpt lat="42.26677638480869" lon="13.990088269331157"><ele>131.33333333333331</ele><time>2026-05-03T11:06:29Z</time></trkpt><trkpt lat="42.26681455730278" lon="13.990326684500207"><ele>131.0</ele><time>2026-05-03T11:06:30.001Z</time></trkpt><trkpt lat="42.26684268619997" lon="13.990566670102806"><ele>131.0</ele><time>2026-05-03T11:06:31.001Z</time></trkpt><trkpt lat="42.26685103895735" lon="13.990825273527353"><ele>131.0</ele><time>2026-05-03T11:06:32.001Z</time></trkpt><trkpt lat="42.266837694934594" lon="13.991102038319951"><ele>131.0</ele><time>2026-05-03T11:06:33.001Z</time></trkpt><trkpt lat="42.26680395290512" lon="13.991373947304595"><ele>129.0</ele><time>2026-05-03T11:06:34.001Z</time></trkpt><trkpt lat="42.266760791646746" lon="13.991626699671603"><ele>127.0</ele><time>2026-05-03T11:06:35.001Z</time></trkpt><trkpt lat="42.26671601509547" lon="13.991870957227842"><ele>125.0</ele><time>2026-05-03T11:06:36.001Z</time></trkpt><trkpt lat="42.266671177891475" lon="13.992131506200145"><ele>123.33333333333333</ele><time>2026-05-03T11:06:37.001Z</time></trkpt><trkpt lat="42.26662558269679" lon="13.992389898535077"><ele>121.66666666666666</ele><time>2026-05-03T11:06:38.001Z</time></trkpt><trkpt lat="42.26658472544372" lon="13.992633913314444"><ele>120.0</ele><time>2026-05-03T11:06:39.001Z</time></trkpt><trkpt lat="42.26654513001612" lon="13.992867607501399"><ele>119.33333333333334</ele><time>2026-05-03T11:06:40.001Z</time></trkpt><trkpt lat="42.266504711400756" lon="13.993113559064993"><ele>118.66666666666667</ele><time>2026-05-03T11:06:41.001Z</time></trkpt><trkpt lat="42.26646540199174" lon="13.993382175247458"><ele>118.0</ele><time>2026-05-03T11:06:42.001Z</time></trkpt><trkpt lat="42.26640408474091" lon="13.993642707366863"><ele>120.0</ele><time>2026-05-03T11:06:43.001Z</time></trkpt><trkpt lat="42.26636390717865" lon="13.993879970974302"><ele>122.0</ele><time>2026-05-03T11:06:44.001Z</time></trkpt><trkpt lat="42.26632696275953" lon="13.994099002900112"><ele>124.0</ele><time>2026-05-03T11:06:45.001Z</time></trkpt><trkpt lat="42.26630054740506" lon="13.99431309849299"><ele>124.0</ele><time>2026-05-03T11:06:46.001Z</time></trkpt><trkpt lat="42.26626066793156" lon="13.99451218962113"><ele>124.0</ele><time>2026-05-03T11:06:47.001Z</time></trkpt><trkpt lat="42.26621931607654" lon="13.994697250760684"><ele>124.0</ele><time>2026-05-03T11:06:48.001Z</time></trkpt><trkpt lat="42.266175425657664" lon="13.994856004149858"><ele>124.0</ele><time>2026-05-03T11:06:49.001Z</time></trkpt><trkpt lat="42.26612202164202" lon="13.994989148379151"><ele>123.6</ele><time>2026-05-03T11:06:50.001Z</time></trkpt><trkpt lat="42.26604713085511" lon="13.995099158699713"><ele>123.2</ele><time>2026-05-03T11:06:51.001Z</time></trkpt><trkpt lat="42.26598950975139" lon="13.99520859154424"><ele>122.79999999999998</ele><time>2026-05-03T11:06:52.001Z</time></trkpt><trkpt lat="42.26598137693842" lon="13.995352556870166"><ele>122.39999999999999</ele><time>2026-05-03T11:06:53.001Z</time></trkpt><trkpt lat="42.26603492226589" lon="13.995510347364553"><ele>122.0</ele><time>2026-05-03T11:06:54.001Z</time></trkpt><trkpt lat="42.266046826820954" lon="13.995696695815392"><ele>121.33333333333333</ele><time>2026-05-03T11:06:55.001Z</time></trkpt><trkpt lat="42.26601581737183" lon="13.995896482496148"><ele>120.66666666666666</ele><time>2026-05-03T11:06:56.001Z</time></trkpt><trkpt lat="42.26598847054219" lon="13.996107337269473"><ele>120.0</ele><time>2026-05-03T11:06:57.001Z</time></trkpt><trkpt lat="42.26595382412311" lon="13.996318919101265"><ele>120.0</ele><time>2026-05-03T11:06:58.001Z</time></trkpt><trkpt lat="42.26592001159315" lon="13.99652127903672"><ele>120.0</ele><time>2026-05-03T11:06:59.001Z</time></trkpt><trkpt lat="42.2658886448755" lon="13.996710870139056"><ele>120.0</ele><time>2026-05-03T11:07:00.001Z</time></trkpt><trkpt lat="42.26585839626005" lon="13.996897922245598"><ele>120.0</ele><time>2026-05-03T11:07:01.001Z</time></trkpt><trkpt lat="42.26582590470695" lon="13.997098130044554"><ele>120.0</ele><time>2026-05-03T11:07:02.001Z</time></trkpt><trkpt lat="42.26579190888641" lon="13.997290911752994"><ele>120.0</ele><time>2026-05-03T11:07:03.001Z</time></trkpt><trkpt lat="42.26575987260637" lon="13.997469780925567"><ele>120.0</ele><time>2026-05-03T11:07:04.001Z</time></trkpt><trkpt lat="42.26572625471618" lon="13.997639803657888"><ele>120.0</ele><time>2026-05-03T11:07:05.001Z</time></trkpt><trkpt lat="42.26569135291253" lon="13.99781011815859"><ele>119.5</ele><time>2026-05-03T11:07:06.001Z</time></trkpt><trkpt lat="42.265645736147434" lon="13.997990669065933"><ele>119.0</ele><time>2026-05-03T11:07:07.001Z</time></trkpt><trkpt lat="42.265581209776386" lon="13.998171684489778"><ele>118.5</ele><time>2026-05-03T11:07:08.001Z</time></trkpt><trkpt lat="42.26550510566074" lon="13.99834773935877"><ele>118.0</ele><time>2026-05-03T11:07:09.001Z</time></trkpt><trkpt lat="42.26540832450205" lon="13.998527986487622"><ele>117.66666666666667</ele><time>2026-05-03T11:07:10.001Z</time></trkpt><trkpt lat="42.26529101649961" lon="13.998698306556642"><ele>117.33333333333334</ele><time>2026-05-03T11:07:11.001Z</time></trkpt><trkpt lat="42.26515174345941" lon="13.998871359035862"><ele>117.0</ele><time>2026-05-03T11:07:12.001Z</time></trkpt><trkpt lat="42.26499745334491" lon="13.99903653436819"><ele>117.33333333333334</ele><time>2026-05-03T11:07:13.001Z</time></trkpt><trkpt lat="42.26484177781353" lon="13.999179869344175"><ele>117.66666666666667</ele><time>2026-05-03T11:07:14.001Z</time></trkpt><trkpt lat="42.264691498525494" lon="13.999323911715848"><ele>118.0</ele><time>2026-05-03T11:07:15.001Z</time></trkpt><trkpt lat="42.26453532958419" lon="13.999484824269004"><ele>118.0</ele><time>2026-05-03T11:07:16.001Z</time></trkpt><trkpt lat="42.264377786949254" lon="13.999644941081861"><ele>118.0</ele><time>2026-05-03T11:07:17.001Z</time></trkpt><trkpt lat="42.26423604066465" lon="13.999796599483632"><ele>118.0</ele><time>2026-05-03T11:07:18.001Z</time></trkpt><trkpt lat="42.26409354936649" lon="13.99993829643434"><ele>118.0</ele><time>2026-05-03T11:07:19.001Z</time></trkpt><trkpt lat="42.26395521153688" lon="14.000075638020673"><ele>118.0</ele><time>2026-05-03T11:07:20.001Z</time></trkpt><trkpt lat="42.26382234729902" lon="14.000202457177117"><ele>118.0</ele><time>2026-05-03T11:07:21.001Z</time></trkpt><trkpt lat="42.26369706331718" lon="14.000322298831602"><ele>117.5</ele><time>2026-05-03T11:07:22.001Z</time></trkpt><trkpt lat="42.26358253199582" lon="14.000442531927833"><ele>117.0</ele><time>2026-05-03T11:07:23.001Z</time></trkpt><trkpt lat="42.263480618551135" lon="14.000571869469624"><ele>116.5</ele><time>2026-05-03T11:07:24.001Z</time></trkpt><trkpt lat="42.26338827205138" lon="14.0007196464241"><ele>116.0</ele><time>2026-05-03T11:07:25.001Z</time></trkpt><trkpt lat="42.263313087048445" lon="14.00088089798706"><ele>116.0</ele><time>2026-05-03T11:07:26.001Z</time></trkpt><trkpt lat="42.26326465443219" lon="14.001052681280143"><ele>116.0</ele><time>2026-05-03T11:07:27.001Z</time></trkpt><trkpt lat="42.263231468864475" lon="14.001216294995565"><ele>116.0</ele><time>2026-05-03T11:07:28.001Z</time></trkpt><trkpt lat="42.263212095118554" lon="14.001369822275125"><ele>116.0</ele><time>2026-05-03T11:07:29.001Z</time></trkpt><trkpt lat="42.26320177547224" lon="14.001516807415442"><ele>116.0</ele><time>2026-05-03T11:07:30.001Z</time></trkpt><trkpt lat="42.26320719472715" lon="14.001663823712505"><ele>116.0</ele><time>2026-05-03T11:07:31.001Z</time></trkpt><trkpt lat="42.26323217648164" lon="14.001804767860172"><ele>116.0</ele><time>2026-05-03T11:07:32.001Z</time></trkpt><trkpt lat="42.26327642010596" lon="14.00195406281298"><ele>116.0</ele><time>2026-05-03T11:07:33.001Z</time></trkpt><trkpt lat="42.263349169721764" lon="14.002134734359332"><ele>114.33333333333333</ele><time>2026-05-03T11:07:34.001Z</time></trkpt><trkpt lat="42.26342259076335" lon="14.002353899687058"><ele>112.66666666666666</ele><time>2026-05-03T11:07:35.001Z</time></trkpt><trkpt lat="42.26352095177175" lon="14.00252971573637"><ele>111.0</ele><time>2026-05-03T11:07:36.001Z</time></trkpt><trkpt lat="42.26360169121528" lon="14.002697010864837"><ele>110.5</ele><time>2026-05-03T11:07:37.001Z</time></trkpt><trkpt lat="42.26367599218492" lon="14.00288947025031"><ele>110.0</ele><time>2026-05-03T11:07:38.001Z</time></trkpt><trkpt lat="42.26375857693118" lon="14.003062189419518"><ele>109.5</ele><time>2026-05-03T11:07:39.001Z</time></trkpt><trkpt lat="42.263824381932956" lon="14.003204451971056"><ele>109.0</ele><time>2026-05-03T11:07:40.001Z</time></trkpt><trkpt lat="42.263876229458006" lon="14.00331964980909"><ele>109.00000000000001</ele><time>2026-05-03T11:07:41.001Z</time></trkpt><trkpt lat="42.2639160029127" lon="14.003418907035856"><ele>109.0</ele><time>2026-05-03T11:07:42.001Z</time></trkpt><trkpt lat="42.263963890418374" lon="14.003502852145095"><ele>109.0</ele><time>2026-05-03T11:07:43.001Z</time></trkpt><trkpt lat="42.26398347212717" lon="14.003592042240259"><ele>109.0</ele><time>2026-05-03T11:07:44.001Z</time></trkpt><trkpt lat="42.26399989221476" lon="14.00370813391636"><ele>109.00000000000001</ele><time>2026-05-03T11:07:46.001Z</time></trkpt><trkpt lat="42.26397642328568" lon="14.003844411531817"><ele>109.0</ele><time>2026-05-03T11:07:49.001Z</time></trkpt><trkpt lat="42.26394539426854" lon="14.003961414122127"><ele>109.00000000000001</ele><time>2026-05-03T11:07:51.001Z</time></trkpt><trkpt lat="42.26400587508522" lon="14.004086188486559"><ele>109.0</ele><time>2026-05-03T11:07:53.001Z</time></trkpt><trkpt lat="42.264064537468236" lon="14.004123691928308"><ele>109.0</ele><time>2026-05-03T11:07:54.001Z</time></trkpt><trkpt lat="42.26413214893309" lon="14.004159475366228"><ele>109.0</ele><time>2026-05-03T11:07:55.001Z</time></trkpt><trkpt lat="42.26419102717888" lon="14.004203018985615"><ele>109.00000000000001</ele><time>2026-05-03T11:07:56.001Z</time></trkpt><trkpt lat="42.26424939609579" lon="14.004278904436385"><ele>109.0</ele><time>2026-05-03T11:07:57.001Z</time></trkpt><trkpt lat="42.264314320774226" lon="14.004365622583448"><ele>109.2</ele><time>2026-05-03T11:07:58.001Z</time></trkpt><trkpt lat="42.264369866640024" lon="14.004464999143856"><ele>109.4</ele><time>2026-05-03T11:07:59.001Z</time></trkpt><trkpt lat="42.26442570492051" lon="14.004575823217785"><ele>109.6</ele><time>2026-05-03T11:08:00.001Z</time></trkpt><trkpt lat="42.26447595097973" lon="14.004686042302486"><ele>109.8</ele><time>2026-05-03T11:08:01.001Z</time></trkpt><trkpt lat="42.26452396532715" lon="14.004791048287647"><ele>110.0</ele><time>2026-05-03T11:08:02.001Z</time></trkpt><trkpt lat="42.26456888320214" lon="14.004896723205684"><ele>109.0</ele><time>2026-05-03T11:08:03.001Z</time></trkpt><trkpt lat="42.26460078090509" lon="14.005012800022035"><ele>108.0</ele><time>2026-05-03T11:08:04.001Z</time></trkpt><trkpt lat="42.26464973065103" lon="14.005123353089482"><ele>107.0</ele><time>2026-05-03T11:08:05.001Z</time></trkpt><trkpt lat="42.26469815924475" lon="14.00523272911217"><ele>106.0</ele><time>2026-05-03T11:08:06.001Z</time></trkpt><trkpt lat="42.264747406088446" lon="14.005343953081"><ele>105.0</ele><time>2026-05-03T11:08:07.001Z</time></trkpt><trkpt lat="42.264795900352624" lon="14.005453477328174"><ele>105.0</ele><time>2026-05-03T11:08:08.001Z</time></trkpt><trkpt lat="42.264858204342794" lon="14.005595160978192"><ele>105.0</ele><time>2026-05-03T11:08:09.001Z</time></trkpt><trkpt lat="42.26493111359156" lon="14.005761201715321"><ele>105.0</ele><time>2026-05-03T11:08:10.001Z</time></trkpt><trkpt lat="42.26499981375924" lon="14.005917674858102"><ele>105.0</ele><time>2026-05-03T11:08:11.001Z</time></trkpt><trkpt lat="42.26507040803108" lon="14.00607871067295"><ele>104.25</ele><time>2026-05-03T11:08:12.001Z</time></trkpt><trkpt lat="42.26515652451008" lon="14.006233802332899"><ele>103.5</ele><time>2026-05-03T11:08:13.001Z</time></trkpt><trkpt lat="42.26522909173861" lon="14.0064091964871"><ele>102.75</ele><time>2026-05-03T11:08:14.001Z</time></trkpt><trkpt lat="42.265308167510604" lon="14.006591923465397"><ele>102.0</ele><time>2026-05-03T11:08:15Z</time></trkpt><trkpt lat="42.265390660046435" lon="14.00678316033511"><ele>102.0</ele><time>2026-05-03T11:08:16Z</time></trkpt><trkpt lat="42.26547877357945" lon="14.006989011914602"><ele>102.0</ele><time>2026-05-03T11:08:17Z</time></trkpt><trkpt lat="42.26557099416706" lon="14.007196178178567"><ele>102.0</ele><time>2026-05-03T11:08:18Z</time></trkpt><trkpt lat="42.2656493863898" lon="14.00738114632791"><ele>101.66666666666666</ele><time>2026-05-03T11:08:19Z</time></trkpt><trkpt lat="42.26575933412574" lon="14.00758423526557"><ele>101.33333333333333</ele><time>2026-05-03T11:08:20Z</time></trkpt><trkpt lat="42.2658865513476" lon="14.007769332079997"><ele>101.0</ele><time>2026-05-03T11:08:21Z</time></trkpt><trkpt lat="42.266043552225725" lon="14.007942216662832"><ele>101.0</ele><time>2026-05-03T11:08:22Z</time></trkpt><trkpt lat="42.26621559591706" lon="14.00811844840295"><ele>101.0</ele><time>2026-05-03T11:08:23Z</time></trkpt><trkpt lat="42.26637380048896" lon="14.008308151096324"><ele>101.0</ele><time>2026-05-03T11:08:24Z</time></trkpt><trkpt lat="42.26652148336685" lon="14.008487634327372"><ele>100.33333333333333</ele><time>2026-05-03T11:08:25Z</time></trkpt><trkpt lat="42.26664426657358" lon="14.00869615461879"><ele>99.66666666666666</ele><time>2026-05-03T11:08:26Z</time></trkpt><trkpt lat="42.266752441532006" lon="14.008935167938889"><ele>99.0</ele><time>2026-05-03T11:08:27Z</time></trkpt><trkpt lat="42.26685450018583" lon="14.009167678164435"><ele>98.33333333333334</ele><time>2026-05-03T11:08:28Z</time></trkpt><trkpt lat="42.26695197813749" lon="14.009371494397241"><ele>97.66666666666667</ele><time>2026-05-03T11:08:29Z</time></trkpt><trkpt lat="42.26703642834322" lon="14.00955797159548"><ele>97.0</ele><time>2026-05-03T11:08:30Z</time></trkpt><trkpt lat="42.26711029699972" lon="14.00972368347862"><ele>97.0</ele><time>2026-05-03T11:08:31Z</time></trkpt><trkpt lat="42.26717289994022" lon="14.009865924093623"><ele>97.0</ele><time>2026-05-03T11:08:32Z</time></trkpt><trkpt lat="42.26723156533381" lon="14.010001963495679"><ele>97.0</ele><time>2026-05-03T11:08:33Z</time></trkpt><trkpt lat="42.267272583695785" lon="14.010123894094077"><ele>97.0</ele><time>2026-05-03T11:08:34Z</time></trkpt><trkpt lat="42.26727254710079" lon="14.010233884705032"><ele>97.0</ele><time>2026-05-03T11:08:35Z</time></trkpt><trkpt lat="42.26723860124462" lon="14.010355236247918"><ele>97.5</ele><time>2026-05-03T11:08:36Z</time></trkpt><trkpt lat="42.26718680050509" lon="14.010507921285834"><ele>98.0</ele><time>2026-05-03T11:08:37Z</time></trkpt><trkpt lat="42.26711136045122" lon="14.010644882800927"><ele>98.5</ele><time>2026-05-03T11:08:38Z</time></trkpt><trkpt lat="42.266992758754995" lon="14.010746997636227"><ele>99.0</ele><time>2026-05-03T11:08:39Z</time></trkpt><trkpt lat="42.26684961380555" lon="14.010827244480899"><ele>99.0</ele><time>2026-05-03T11:08:40Z</time></trkpt><trkpt lat="42.26668845882524" lon="14.010938144282347"><ele>99.0</ele><time>2026-05-03T11:08:41Z</time></trkpt><trkpt lat="42.26655551484829" lon="14.011050190633016"><ele>99.0</ele><time>2026-05-03T11:08:42Z</time></trkpt><trkpt lat="42.2664339822797" lon="14.011154021725234"><ele>99.75</ele><time>2026-05-03T11:08:43Z</time></trkpt><trkpt lat="42.26631868991121" lon="14.0112523901576"><ele>100.5</ele><time>2026-05-03T11:08:44Z</time></trkpt><trkpt lat="42.266206954315344" lon="14.011347068461477"><ele>101.25</ele><time>2026-05-03T11:08:45Z</time></trkpt><trkpt lat="42.26609806260459" lon="14.011441429749693"><ele>102.0</ele><time>2026-05-03T11:08:46Z</time></trkpt><trkpt lat="42.265983821406934" lon="14.011530600669087"><ele>102.0</ele><time>2026-05-03T11:08:47Z</time></trkpt><trkpt lat="42.2658592131866" lon="14.011622764708271"><ele>102.0</ele><time>2026-05-03T11:08:48Z</time></trkpt><trkpt lat="42.26573622331162" lon="14.011716182594377"><ele>102.0</ele><time>2026-05-03T11:08:49Z</time></trkpt><trkpt lat="42.26562179610873" lon="14.011813107075374"><ele>102.0</ele><time>2026-05-03T11:08:50Z</time></trkpt><trkpt lat="42.26550710058755" lon="14.01190865216004"><ele>103.25</ele><time>2026-05-03T11:08:51Z</time></trkpt><trkpt lat="42.265375375126595" lon="14.01200570677857"><ele>104.5</ele><time>2026-05-03T11:08:52.001Z</time></trkpt><trkpt lat="42.26524564078628" lon="14.01210880118506"><ele>105.75</ele><time>2026-05-03T11:08:53.001Z</time></trkpt><trkpt lat="42.265129622882625" lon="14.012230667106634"><ele>107.0</ele><time>2026-05-03T11:08:54.001Z</time></trkpt><trkpt lat="42.26502952901023" lon="14.01235592731411"><ele>104.0</ele><time>2026-05-03T11:08:55.001Z</time></trkpt><trkpt lat="42.264955890054026" lon="14.012505607792674"><ele>101.0</ele><time>2026-05-03T11:08:56.001Z</time></trkpt><trkpt lat="42.26490764977068" lon="14.012672766002515"><ele>98.0</ele><time>2026-05-03T11:08:57.001Z</time></trkpt><trkpt lat="42.264887764859026" lon="14.012866003073233"><ele>95.0</ele><time>2026-05-03T11:08:58.001Z</time></trkpt><trkpt lat="42.26490185284438" lon="14.01307210808886"><ele>95.0</ele><time>2026-05-03T11:08:59.001Z</time></trkpt><trkpt lat="42.26495015742096" lon="14.013269918526357"><ele>95.0</ele><time>2026-05-03T11:09:00.001Z</time></trkpt><trkpt lat="42.26503264575179" lon="14.013452933622885"><ele>95.0</ele><time>2026-05-03T11:09:01.001Z</time></trkpt><trkpt lat="42.2651328527084" lon="14.013611440365395"><ele>94.0</ele><time>2026-05-03T11:09:02.001Z</time></trkpt><trkpt lat="42.26523703058613" lon="14.013760140679995"><ele>93.0</ele><time>2026-05-03T11:09:03.001Z</time></trkpt><trkpt lat="42.26532092734091" lon="14.013926583414696"><ele>92.0</ele><time>2026-05-03T11:09:04.001Z</time></trkpt><trkpt lat="42.265414699908284" lon="14.014080665062467"><ele>91.0</ele><time>2026-05-03T11:09:05.001Z</time></trkpt><trkpt lat="42.26551083955858" lon="14.014219651386968"><ele>91.0</ele><time>2026-05-03T11:09:06.001Z</time></trkpt><trkpt lat="42.26559583983859" lon="14.014356553933496"><ele>91.0</ele><time>2026-05-03T11:09:07.001Z</time></trkpt><trkpt lat="42.265675687488674" lon="14.014506017620322"><ele>91.0</ele><time>2026-05-03T11:09:08.001Z</time></trkpt><trkpt lat="42.26576035354412" lon="14.014643891320794"><ele>91.0</ele><time>2026-05-03T11:09:09.001Z</time></trkpt><trkpt lat="42.26583938269316" lon="14.014770911949908"><ele>90.6</ele><time>2026-05-03T11:09:10.001Z</time></trkpt><trkpt lat="42.265913281607986" lon="14.014899594796239"><ele>90.19999999999999</ele><time>2026-05-03T11:09:11.001Z</time></trkpt><trkpt lat="42.26597142180253" lon="14.015001540208745"><ele>89.80000000000001</ele><time>2026-05-03T11:09:12.001Z</time></trkpt><trkpt lat="42.266023451594826" lon="14.0150946444418"><ele>89.4</ele><time>2026-05-03T11:09:13.001Z</time></trkpt><trkpt lat="42.26607754509301" lon="14.015184548207891"><ele>89.0</ele><time>2026-05-03T11:09:14.001Z</time></trkpt><trkpt lat="42.2661244636139" lon="14.015264536922343"><ele>89.0</ele><time>2026-05-03T11:09:15.001Z</time></trkpt><trkpt lat="42.26617297051477" lon="14.01535230958096"><ele>89.0</ele><time>2026-05-03T11:09:17.001Z</time></trkpt><trkpt lat="42.26627383458291" lon="14.01525270308283"><ele>89.0</ele><time>2026-05-03T11:09:19.001Z</time></trkpt><trkpt lat="42.26636315812022" lon="14.015157768795573"><ele>89.0</ele><time>2026-05-03T11:09:21.001Z</time></trkpt><trkpt lat="42.26645352149377" lon="14.015065770514745"><ele>89.0</ele><time>2026-05-03T11:09:23.001Z</time></trkpt><trkpt lat="42.26650695128105" lon="14.014996303889347"><ele>88.85714285714285</ele><time>2026-05-03T11:09:28.001Z</time></trkpt><trkpt lat="42.266579262164434" lon="14.014904484374552"><ele>88.71428571428571</ele><time>2026-05-03T11:09:30.001Z</time></trkpt><trkpt lat="42.26663970288276" lon="14.014844295640557"><ele>88.57142857142857</ele><time>2026-05-03T11:09:32.001Z</time></trkpt><trkpt lat="42.26669541570382" lon="14.01480065858103"><ele>88.42857142857142</ele><time>2026-05-03T11:09:35.001Z</time></trkpt><trkpt lat="42.266646697780104" lon="14.014854996845937"><ele>88.28571428571428</ele><time>2026-05-03T11:09:47.001Z</time></trkpt><trkpt lat="42.26657966207021" lon="14.014873967415607"><ele>88.14285714285714</ele><time>2026-05-03T11:12:59Z</time></trkpt><trkpt lat="42.266529021373685" lon="14.014932560213005"><ele>88.0</ele><time>2026-05-03T11:13:09Z</time></trkpt><trkpt lat="42.2664841530314" lon="14.015005140129528"><ele>88.0</ele><time>2026-05-03T11:13:44.001Z</time></trkpt><trkpt lat="42.26650275432894" lon="14.015106302898214"><ele>88.0</ele><time>2026-05-03T11:13:52.001Z</time></trkpt><trkpt lat="42.26656696639667" lon="14.015093216944011"><ele>88.0</ele><time>2026-05-03T11:13:59.001Z</time></trkpt><trkpt lat="42.26662176568789" lon="14.015038780900213"><ele>88.0</ele><time>2026-05-03T11:15:02.001Z</time></trkpt><trkpt lat="42.26655566594445" lon="14.015058133014128"><ele>88.0</ele><time>2026-05-03T11:33:12Z</time></trkpt><trkpt lat="42.26654441687582" lon="14.014969215829666"><ele>88.0</ele><time>2026-05-03T11:33:31Z</time></trkpt><trkpt lat="42.266592604931446" lon="14.014905733137796"><ele>88.0</ele><time>2026-05-03T11:33:37Z</time></trkpt><trkpt lat="42.26663673860206" lon="14.014842460035414"><ele>88.0</ele><time>2026-05-03T11:33:43Z</time></trkpt><trkpt lat="42.266641124294495" lon="14.014749555914886"><ele>88.0</ele><time>2026-05-03T11:34:02Z</time></trkpt><trkpt lat="42.266584394063095" lon="14.014684068971818"><ele>88.0</ele><time>2026-05-03T11:34:08Z</time></trkpt><trkpt lat="42.26659895605546" lon="14.014771459965884"><ele>88.0</ele><time>2026-05-03T11:35:07.999Z</time></trkpt><trkpt lat="42.26661479075719" lon="14.014855618853545"><ele>88.0</ele><time>2026-05-03T11:40:41.999Z</time></trkpt><trkpt lat="42.26654583463334" lon="14.014977902032149"><ele>88.0</ele><time>2026-05-03T11:40:43.999Z</time></trkpt><trkpt lat="42.26647414950944" lon="14.015050244233004"><ele>88.2</ele><time>2026-05-03T11:40:44.999Z</time></trkpt><trkpt lat="42.26638707345528" lon="14.015118313514298"><ele>88.4</ele><time>2026-05-03T11:40:45.999Z</time></trkpt><trkpt lat="42.26631941863605" lon="14.015180073058927"><ele>88.60000000000001</ele><time>2026-05-03T11:40:46.999Z</time></trkpt><trkpt lat="42.266230017915895" lon="14.01525778783734"><ele>88.80000000000001</ele><time>2026-05-03T11:40:48.999Z</time></trkpt><trkpt lat="42.26616849673308" lon="14.015317390929447"><ele>89.0</ele><time>2026-05-03T11:40:51.999Z</time></trkpt><trkpt lat="42.266224993376795" lon="14.015483320372132"><ele>89.0</ele><time>2026-05-03T11:40:53.999Z</time></trkpt><trkpt lat="42.26629323979485" lon="14.015563980959035"><ele>89.0</ele><time>2026-05-03T11:40:54.999Z</time></trkpt><trkpt lat="42.26634528343027" lon="14.01565614068579"><ele>89.0</ele><time>2026-05-03T11:40:55.999Z</time></trkpt><trkpt lat="42.26640353859129" lon="14.015752891126569"><ele>89.0</ele><time>2026-05-03T11:40:56.999Z</time></trkpt><trkpt lat="42.26644978069191" lon="14.015823163075146"><ele>89.0</ele><time>2026-05-03T11:40:57.999Z</time></trkpt><trkpt lat="42.26649930705803" lon="14.015901666490045"><ele>89.0</ele><time>2026-05-03T11:40:58.999Z</time></trkpt><trkpt lat="42.26655134050125" lon="14.015996022724595"><ele>88.80000000000001</ele><time>2026-05-03T11:40:59.999Z</time></trkpt><trkpt lat="42.26660948397079" lon="14.016101304267957"><ele>88.60000000000001</ele><time>2026-05-03T11:41:00.999Z</time></trkpt><trkpt lat="42.26667788280717" lon="14.016220041182992"><ele>88.4</ele><time>2026-05-03T11:41:01.999Z</time></trkpt><trkpt lat="42.26674881281145" lon="14.016339912430416"><ele>88.2</ele><time>2026-05-03T11:41:02.999Z</time></trkpt><trkpt lat="42.26681259286736" lon="14.016451556579588"><ele>88.0</ele><time>2026-05-03T11:41:03.999Z</time></trkpt><trkpt lat="42.26688356671755" lon="14.016569619540002"><ele>88.5</ele><time>2026-05-03T11:41:04.999Z</time></trkpt><trkpt lat="42.266963617917746" lon="14.016702162349276"><ele>89.0</ele><time>2026-05-03T11:41:05.999Z</time></trkpt><trkpt lat="42.26704226518286" lon="14.016831405482531"><ele>89.5</ele><time>2026-05-03T11:41:06.999Z</time></trkpt><trkpt lat="42.26711888272952" lon="14.016959614047588"><ele>90.0</ele><time>2026-05-03T11:41:07.999Z</time></trkpt><trkpt lat="42.26719815980373" lon="14.017096596968667"><ele>90.0</ele><time>2026-05-03T11:41:08.999Z</time></trkpt><trkpt lat="42.26726994948367" lon="14.01722538259966"><ele>90.0</ele><time>2026-05-03T11:41:09.999Z</time></trkpt><trkpt lat="42.267340608120406" lon="14.017339888481008"><ele>90.0</ele><time>2026-05-03T11:41:10.999Z</time></trkpt><trkpt lat="42.26741027146203" lon="14.017453969005976"><ele>90.0</ele><time>2026-05-03T11:41:11.999Z</time></trkpt><trkpt lat="42.26748588686871" lon="14.017577812370357"><ele>89.75</ele><time>2026-05-03T11:41:12.999Z</time></trkpt><trkpt lat="42.26755914920954" lon="14.017708510223684"><ele>89.5</ele><time>2026-05-03T11:41:13.999Z</time></trkpt><trkpt lat="42.267635759889146" lon="14.017832399747757"><ele>89.25</ele><time>2026-05-03T11:41:14.999Z</time></trkpt><trkpt lat="42.26771530001094" lon="14.017951762738607"><ele>89.0</ele><time>2026-05-03T11:41:15.999Z</time></trkpt><trkpt lat="42.26782186025817" lon="14.018045342794904"><ele>89.0</ele><time>2026-05-03T11:41:16.999Z</time></trkpt><trkpt lat="42.26794188578952" lon="14.018109541330418"><ele>89.0</ele><time>2026-05-03T11:41:17.999Z</time></trkpt><trkpt lat="42.268076366272396" lon="14.018148044988083"><ele>89.0</ele><time>2026-05-03T11:41:18.999Z</time></trkpt><trkpt lat="42.26822350803757" lon="14.018190818280306"><ele>89.0</ele><time>2026-05-03T11:41:19.999Z</time></trkpt><trkpt lat="42.26836616833925" lon="14.018224756063375"><ele>89.25</ele><time>2026-05-03T11:41:20.999Z</time></trkpt><trkpt lat="42.268510538494425" lon="14.018253647440378"><ele>89.5</ele><time>2026-05-03T11:41:21.999Z</time></trkpt><trkpt lat="42.26864653390482" lon="14.018280097366473"><ele>89.75</ele><time>2026-05-03T11:41:22.999Z</time></trkpt><trkpt lat="42.268771467064354" lon="14.018314523569128"><ele>90.0</ele><time>2026-05-03T11:41:23.999Z</time></trkpt><trkpt lat="42.26889506791888" lon="14.018345118438132"><ele>90.5</ele><time>2026-05-03T11:41:24.999Z</time></trkpt><trkpt lat="42.26901117172309" lon="14.018373981266263"><ele>91.0</ele><time>2026-05-03T11:41:25.999Z</time></trkpt><trkpt lat="42.26912881765113" lon="14.01840303137862"><ele>91.5</ele><time>2026-05-03T11:41:26.999Z</time></trkpt><trkpt lat="42.26925828779846" lon="14.018436445120644"><ele>92.0</ele><time>2026-05-03T11:41:27.999Z</time></trkpt><trkpt lat="42.26939531275088" lon="14.01846892826838"><ele>92.0</ele><time>2026-05-03T11:41:28.999Z</time></trkpt><trkpt lat="42.26952507403147" lon="14.018510921714515"><ele>92.0</ele><time>2026-05-03T11:41:29.999Z</time></trkpt><trkpt lat="42.2696473068484" lon="14.018560016995718"><ele>92.0</ele><time>2026-05-03T11:41:30.999Z</time></trkpt><trkpt lat="42.26975310838751" lon="14.018630303484693"><ele>92.0</ele><time>2026-05-03T11:41:31.999Z</time></trkpt><trkpt lat="42.2698464644494" lon="14.018699197312358"><ele>92.0</ele><time>2026-05-03T11:41:32.999Z</time></trkpt><trkpt lat="42.26994415404688" lon="14.018761602271557"><ele>92.0</ele><time>2026-05-03T11:41:33.999Z</time></trkpt><trkpt lat="42.27005640081812" lon="14.018828143252584"><ele>92.0</ele><time>2026-05-03T11:41:34.999Z</time></trkpt><trkpt lat="42.27015920353814" lon="14.018913081313798"><ele>92.0</ele><time>2026-05-03T11:41:35.999Z</time></trkpt><trkpt lat="42.270270851722444" lon="14.018966440351498"><ele>92.0</ele><time>2026-05-03T11:41:36.999Z</time></trkpt><trkpt lat="42.27037630619164" lon="14.019033584368415"><ele>92.0</ele><time>2026-05-03T11:41:37.999Z</time></trkpt><trkpt lat="42.27047898002046" lon="14.019110016326081"><ele>92.0</ele><time>2026-05-03T11:41:38.999Z</time></trkpt><trkpt lat="42.27057662793221" lon="14.01917121614908"><ele>92.0</ele><time>2026-05-03T11:41:39.999Z</time></trkpt><trkpt lat="42.270655669076405" lon="14.019220025149677"><ele>92.0</ele><time>2026-05-03T11:41:40.999Z</time></trkpt><trkpt lat="42.27073992896876" lon="14.019263441294955"><ele>93.16666666666667</ele><time>2026-05-03T11:41:41.999Z</time></trkpt><trkpt lat="42.270809476452136" lon="14.019328971413055"><ele>94.33333333333334</ele><time>2026-05-03T11:41:42.999Z</time></trkpt><trkpt lat="42.270873288415466" lon="14.019369030896376"><ele>95.5</ele><time>2026-05-03T11:41:43.999Z</time></trkpt><trkpt lat="42.27094801427962" lon="14.019440827408019"><ele>96.66666666666667</ele><time>2026-05-03T11:41:45.999Z</time></trkpt><trkpt lat="42.27088910639205" lon="14.019545177689052"><ele>97.83333333333333</ele><time>2026-05-03T11:41:46.999Z</time></trkpt><trkpt lat="42.27086574205378" lon="14.019636884021862"><ele>99.0</ele><time>2026-05-03T11:41:47.997Z</time></trkpt><trkpt lat="42.27082598980518" lon="14.019735300967191"><ele>99.0</ele><time>2026-05-03T11:41:48.997Z</time></trkpt><trkpt lat="42.27078887080239" lon="14.019816021225125"><ele>99.0</ele><time>2026-05-03T11:41:49.997Z</time></trkpt><trkpt lat="42.270728153094154" lon="14.019876110994568"><ele>99.0</ele><time>2026-05-03T11:41:51.997Z</time></trkpt><trkpt lat="42.27062102092273" lon="14.019810637624401"><ele>99.0</ele><time>2026-05-03T11:41:52.997Z</time></trkpt><trkpt lat="42.27052966650307" lon="14.019792525882742"><ele>99.0</ele><time>2026-05-03T11:41:53.998Z</time></trkpt><trkpt lat="42.270444182005505" lon="14.019739276439848"><ele>99.6</ele><time>2026-05-03T11:41:54.998Z</time></trkpt><trkpt lat="42.27034297737731" lon="14.019700526644254"><ele>100.2</ele><time>2026-05-03T11:41:55.998Z</time></trkpt><trkpt lat="42.270247040035166" lon="14.01966297166078"><ele>100.8</ele><time>2026-05-03T11:41:56.998Z</time></trkpt><trkpt lat="42.2701586395031" lon="14.019627363001247"><ele>101.39999999999999</ele><time>2026-05-03T11:41:57.998Z</time></trkpt><trkpt lat="42.27006929624125" lon="14.01958798075925"><ele>102.0</ele><time>2026-05-03T11:41:58.998Z</time></trkpt><trkpt lat="42.26997381778017" lon="14.019554807223404"><ele>102.0</ele><time>2026-05-03T11:41:59.998Z</time></trkpt><trkpt lat="42.26989292830231" lon="14.019512410908893"><ele>102.0</ele><time>2026-05-03T11:42:00.998Z</time></trkpt><trkpt lat="42.2698042280418" lon="14.019468434393621"><ele>102.0</ele><time>2026-05-03T11:42:01.998Z</time></trkpt><trkpt lat="42.269715489861994" lon="14.019416533841648"><ele>102.0</ele><time>2026-05-03T11:42:02.999Z</time></trkpt><trkpt lat="42.26962119776414" lon="14.019402873738398"><ele>102.0</ele><time>2026-05-03T11:42:03.999Z</time></trkpt><trkpt lat="42.26952679243547" lon="14.019403243691949"><ele>102.8</ele><time>2026-05-03T11:42:04.999Z</time></trkpt><trkpt lat="42.269438893672564" lon="14.01940891017076"><ele>103.6</ele><time>2026-05-03T11:42:05.999Z</time></trkpt><trkpt lat="42.269355794868034" lon="14.019419872616583"><ele>104.39999999999999</ele><time>2026-05-03T11:42:06.999Z</time></trkpt><trkpt lat="42.26926567002012" lon="14.019441915712044"><ele>105.19999999999999</ele><time>2026-05-03T11:42:07.999Z</time></trkpt><trkpt lat="42.269178377142794" lon="14.019502304092866"><ele>106.0</ele><time>2026-05-03T11:42:08.999Z</time></trkpt><trkpt lat="42.2690954126383" lon="14.01955469443088"><ele>106.00000000000001</ele><time>2026-05-03T11:42:09.999Z</time></trkpt><trkpt lat="42.26903773362144" lon="14.019626633922927"><ele>106.0</ele><time>2026-05-03T11:42:10.999Z</time></trkpt><trkpt lat="42.26900712822908" lon="14.01972522536872"><ele>106.0</ele><time>2026-05-03T11:42:11.999Z</time></trkpt><trkpt lat="42.26899789989181" lon="14.019832503490074"><ele>106.0</ele><time>2026-05-03T11:42:12.999Z</time></trkpt><trkpt lat="42.2690104159047" lon="14.01992398673545"><ele>106.00000000000001</ele><time>2026-05-03T11:42:13.999Z</time></trkpt><trkpt lat="42.26905076657841" lon="14.019994931912452"><ele>106.0</ele><time>2026-05-03T11:42:16.999Z</time></trkpt><trkpt lat="42.26907125845914" lon="14.020102111569186"><ele>109.25</ele><time>2026-05-03T11:42:18.999Z</time></trkpt><trkpt lat="42.26914228682867" lon="14.020204050356622"><ele>112.5</ele><time>2026-05-03T11:42:20.999Z</time></trkpt><trkpt lat="42.26918497982691" lon="14.020267961877654"><ele>115.75</ele><time>2026-05-03T11:42:21.999Z</time></trkpt><trkpt lat="42.269257443153876" lon="14.020367969563416"><ele>119.0</ele><time>2026-05-03T11:42:23.999Z</time></trkpt><trkpt lat="42.2691403003343" lon="14.020743403002404"><ele>120.99999999999999</ele><time>2026-05-03T11:42:26.999Z</time></trkpt><trkpt lat="42.269135704941455" lon="14.020841117651358"><ele>123.0</ele><time>2026-05-03T11:42:27.999Z</time></trkpt><trkpt lat="42.26912202083693" lon="14.020948482915713"><ele>125.0</ele><time>2026-05-03T11:42:28.999Z</time></trkpt><trkpt lat="42.26909838860339" lon="14.02105015161792"><ele>127.0</ele><time>2026-05-03T11:42:29.999Z</time></trkpt><trkpt lat="42.26907852810395" lon="14.021131381877506"><ele>129.0</ele><time>2026-05-03T11:42:30.999Z</time></trkpt><trkpt lat="42.269069998536665" lon="14.02124564118517"><ele>131.0</ele><time>2026-05-03T11:42:31.999Z</time></trkpt><trkpt lat="42.2690605751075" lon="14.02134007127203"><ele>131.0</ele><time>2026-05-03T11:42:32.999Z</time></trkpt><trkpt lat="42.26908601561309" lon="14.021441800069947"><ele>131.0</ele><time>2026-05-03T11:42:35.999Z</time></trkpt><trkpt lat="42.26918252255226" lon="14.021510236277996"><ele>131.0</ele><time>2026-05-03T11:42:37.999Z</time></trkpt><trkpt lat="42.26925129518101" lon="14.021549564545545"><ele>131.0</ele><time>2026-05-03T11:42:38.999Z</time></trkpt><trkpt lat="42.269313262910174" lon="14.021592368411959"><ele>131.0</ele><time>2026-05-03T11:42:39.999Z</time></trkpt><trkpt lat="42.26942757298625" lon="14.021667646112391"><ele>132.33333333333331</ele><time>2026-05-03T11:42:41.999Z</time></trkpt><trkpt lat="42.26948809161183" lon="14.021705569881366"><ele>133.66666666666666</ele><time>2026-05-03T11:42:42.999Z</time></trkpt><trkpt lat="42.26954173853699" lon="14.021753848739845"><ele>135.0</ele><time>2026-05-03T11:42:43.999Z</time></trkpt><trkpt lat="42.269590937309125" lon="14.02183171758977"><ele>136.33333333333334</ele><time>2026-05-03T11:42:44.999Z</time></trkpt><trkpt lat="42.269654479516255" lon="14.021915363788477"><ele>137.66666666666669</ele><time>2026-05-03T11:42:45.999Z</time></trkpt><trkpt lat="42.26972486778" lon="14.021993449042029"><ele>139.0</ele><time>2026-05-03T11:42:46.999Z</time></trkpt><trkpt lat="42.26979004319074" lon="14.022083376918102"><ele>139.0</ele><time>2026-05-03T11:42:47.999Z</time></trkpt><trkpt lat="42.26985787122311" lon="14.022193062734994"><ele>139.0</ele><time>2026-05-03T11:42:48.999Z</time></trkpt><trkpt lat="42.26991561690254" lon="14.022282763860325"><ele>139.0</ele><time>2026-05-03T11:42:49.999Z</time></trkpt><trkpt lat="42.269979806898064" lon="14.02237630993735"><ele>139.0</ele><time>2026-05-03T11:42:50.999Z</time></trkpt><trkpt lat="42.27004696293596" lon="14.022468823087246"><ele>139.0</ele><time>2026-05-03T11:42:51.999Z</time></trkpt><trkpt lat="42.270114033055485" lon="14.022565617796019"><ele>141.0</ele><time>2026-05-03T11:42:52.999Z</time></trkpt><trkpt lat="42.27018480370801" lon="14.022654399607159"><ele>143.0</ele><time>2026-05-03T11:42:54Z</time></trkpt><trkpt lat="42.27025593135234" lon="14.0227303720015"><ele>145.0</ele><time>2026-05-03T11:42:55Z</time></trkpt><trkpt lat="42.27032675993651" lon="14.022783716783309"><ele>147.0</ele><time>2026-05-03T11:42:56Z</time></trkpt><trkpt lat="42.270385469904284" lon="14.02283813800063"><ele>149.0</ele><time>2026-05-03T11:42:57Z</time></trkpt><trkpt lat="42.270435763226196" lon="14.022912031401743"><ele>151.0</ele><time>2026-05-03T11:42:58Z</time></trkpt><trkpt lat="42.270493065800245" lon="14.02299379874037"><ele>151.0</ele><time>2026-05-03T11:42:59Z</time></trkpt><trkpt lat="42.27054889478931" lon="14.023081936776268"><ele>151.0</ele><time>2026-05-03T11:43:00Z</time></trkpt><trkpt lat="42.27061176641083" lon="14.023176142707774"><ele>151.0</ele><time>2026-05-03T11:43:01Z</time></trkpt><trkpt lat="42.270671641437616" lon="14.023257945338456"><ele>151.0</ele><time>2026-05-03T11:43:02Z</time></trkpt><trkpt lat="42.270729682544086" lon="14.023335184943393"><ele>151.0</ele><time>2026-05-03T11:43:03Z</time></trkpt><trkpt lat="42.270776377842964" lon="14.023419922223532"><ele>151.0</ele><time>2026-05-03T11:43:04Z</time></trkpt><trkpt lat="42.27082705457013" lon="14.023489801605969"><ele>152.16666666666669</ele><time>2026-05-03T11:43:05Z</time></trkpt><trkpt lat="42.270869179619005" lon="14.023563694517469"><ele>153.33333333333334</ele><time>2026-05-03T11:43:06Z</time></trkpt><trkpt lat="42.27090918456951" lon="14.023659760932816"><ele>154.5</ele><time>2026-05-03T11:43:07Z</time></trkpt><trkpt lat="42.270939041064054" lon="14.023756146885962"><ele>155.66666666666666</ele><time>2026-05-03T11:43:08Z</time></trkpt><trkpt lat="42.27094936788108" lon="14.023848124830609"><ele>156.83333333333331</ele><time>2026-05-03T11:43:09Z</time></trkpt><trkpt lat="42.27094096666554" lon="14.02397228369957"><ele>158.0</ele><time>2026-05-03T11:43:11Z</time></trkpt><trkpt lat="42.27090387674056" lon="14.02405566656313"><ele>158.0</ele><time>2026-05-03T11:43:13Z</time></trkpt><trkpt lat="42.27081234831743" lon="14.02412637573472"><ele>158.0</ele><time>2026-05-03T11:43:15Z</time></trkpt><trkpt lat="42.27068586403527" lon="14.024143695374711"><ele>158.0</ele><time>2026-05-03T11:43:17Z</time></trkpt><trkpt lat="42.27056079349778" lon="14.024171725513261"><ele>158.0</ele><time>2026-05-03T11:43:19Z</time></trkpt><trkpt lat="42.27047449350187" lon="14.024149506493663"><ele>158.0</ele><time>2026-05-03T11:43:20Z</time></trkpt><trkpt lat="42.27037922077633" lon="14.02413778100614"><ele>159.60000000000002</ele><time>2026-05-03T11:43:21Z</time></trkpt><trkpt lat="42.27028016337554" lon="14.02414205916346"><ele>161.20000000000002</ele><time>2026-05-03T11:43:22Z</time></trkpt><trkpt lat="42.270177499069256" lon="14.024138624920695"><ele>162.8</ele><time>2026-05-03T11:43:23Z</time></trkpt><trkpt lat="42.270076372541304" lon="14.024139651271497"><ele>164.4</ele><time>2026-05-03T11:43:24Z</time></trkpt><trkpt lat="42.26997994739366" lon="14.024141281973785"><ele>166.0</ele><time>2026-05-03T11:43:25Z</time></trkpt><trkpt lat="42.26990129930425" lon="14.024152187762999"><ele>170.0</ele><time>2026-05-03T11:43:26Z</time></trkpt><trkpt lat="42.26982715924763" lon="14.024179598060055"><ele>174.0</ele><time>2026-05-03T11:43:27Z</time></trkpt><trkpt lat="42.269758746401145" lon="14.02421617592514"><ele>178.0</ele><time>2026-05-03T11:43:28Z</time></trkpt><trkpt lat="42.26969467654546" lon="14.024271523021136"><ele>182.0</ele><time>2026-05-03T11:43:29Z</time></trkpt><trkpt lat="42.269567714444655" lon="14.02427332757018"><ele>186.0</ele><time>2026-05-03T11:43:31Z</time></trkpt><trkpt lat="42.269494616906336" lon="14.024239315375905"><ele>190.0</ele><time>2026-05-03T11:43:32Z</time></trkpt><trkpt lat="42.269413518248896" lon="14.02421204493901"><ele>191.0</ele><time>2026-05-03T11:43:33Z</time></trkpt><trkpt lat="42.26933078380429" lon="14.024176023155992"><ele>192.0</ele><time>2026-05-03T11:43:34Z</time></trkpt><trkpt lat="42.26926176364365" lon="14.024143479205941"><ele>193.0</ele><time>2026-05-03T11:43:35Z</time></trkpt><trkpt lat="42.269157082481534" lon="14.024110364991998"><ele>194.0</ele><time>2026-05-03T11:43:37Z</time></trkpt><trkpt lat="42.269064124587594" lon="14.024148320503551"><ele>194.99999999999997</ele><time>2026-05-03T11:43:39Z</time></trkpt><trkpt lat="42.268988902354224" lon="14.024195145518359"><ele>196.0</ele><time>2026-05-03T11:43:40Z</time></trkpt><trkpt lat="42.26890936430896" lon="14.024239197961217"><ele>196.60000000000002</ele><time>2026-05-03T11:43:41Z</time></trkpt><trkpt lat="42.26881801341678" lon="14.024277228867302"><ele>197.2</ele><time>2026-05-03T11:43:42Z</time></trkpt><trkpt lat="42.26871685481462" lon="14.024301102234194"><ele>197.8</ele><time>2026-05-03T11:43:43Z</time></trkpt><trkpt lat="42.26861525109559" lon="14.024327430730795"><ele>198.39999999999998</ele><time>2026-05-03T11:43:44Z</time></trkpt><trkpt lat="42.26851715579099" lon="14.024388950996386"><ele>199.0</ele><time>2026-05-03T11:43:45Z</time></trkpt><trkpt lat="42.2684239609035" lon="14.02443521825307"><ele>199.0</ele><time>2026-05-03T11:43:46Z</time></trkpt><trkpt lat="42.268342785510065" lon="14.024477610419147"><ele>199.0</ele><time>2026-05-03T11:43:47Z</time></trkpt><trkpt lat="42.26826042575962" lon="14.024544830961284"><ele>199.0</ele><time>2026-05-03T11:43:48Z</time></trkpt><trkpt lat="42.2681857601101" lon="14.024607230295643"><ele>199.0</ele><time>2026-05-03T11:43:49Z</time></trkpt><trkpt lat="42.26810247969724" lon="14.024668980935777"><ele>199.0</ele><time>2026-05-03T11:43:50Z</time></trkpt><trkpt lat="42.26802792608267" lon="14.024738520975868"><ele>199.16666666666666</ele><time>2026-05-03T11:43:51Z</time></trkpt><trkpt lat="42.26796507179613" lon="14.024805438787546"><ele>199.33333333333331</ele><time>2026-05-03T11:43:52Z</time></trkpt><trkpt lat="42.26790437424999" lon="14.024873695950363"><ele>199.5</ele><time>2026-05-03T11:43:53Z</time></trkpt><trkpt lat="42.26784639805537" lon="14.024928513587913"><ele>199.66666666666669</ele><time>2026-05-03T11:43:53.998Z</time></trkpt><trkpt lat="42.267773315622975" lon="14.024968414786589"><ele>199.83333333333334</ele><time>2026-05-03T11:43:54.998Z</time></trkpt><trkpt lat="42.267689084752945" lon="14.025000577319739"><ele>200.0</ele><time>2026-05-03T11:43:55.998Z</time></trkpt><trkpt lat="42.2676129560896" lon="14.025056594454652"><ele>205.50000000000003</ele><time>2026-05-03T11:43:56.998Z</time></trkpt><trkpt lat="42.2675272960527" lon="14.02510326968232"><ele>211.0</ele><time>2026-05-03T11:43:57.998Z</time></trkpt><trkpt lat="42.26747051635584" lon="14.025144581404158"><ele>216.5</ele><time>2026-05-03T11:43:58.998Z</time></trkpt><trkpt lat="42.267404738457934" lon="14.025220632221789"><ele>222.0</ele><time>2026-05-03T11:44:01.998Z</time></trkpt><trkpt lat="42.26736879778952" lon="14.025292555338835"><ele>227.50000000000003</ele><time>2026-05-03T11:44:49.999Z</time></trkpt><trkpt lat="42.26729425005498" lon="14.025235655114336"><ele>233.0</ele><time>2026-05-03T11:47:39.001Z</time></trkpt><trkpt lat="42.26718507229468" lon="14.025255798140211"><ele>234.50000000000003</ele><time>2026-05-03T11:47:41.001Z</time></trkpt><trkpt lat="42.26710719353424" lon="14.02518283933987"><ele>236.0</ele><time>2026-05-03T11:47:43.001Z</time></trkpt><trkpt lat="42.26705863442772" lon="14.025127605728029"><ele>237.5</ele><time>2026-05-03T11:47:44.001Z</time></trkpt><trkpt lat="42.26696132715611" lon="14.02504391378875"><ele>239.0</ele><time>2026-05-03T11:47:46.001Z</time></trkpt><trkpt lat="42.26689745108596" lon="14.02498187026597"><ele>240.50000000000003</ele><time>2026-05-03T11:47:47.001Z</time></trkpt><trkpt lat="42.26683462144649" lon="14.024918304288406"><ele>242.0</ele><time>2026-05-03T11:47:48.001Z</time></trkpt><trkpt lat="42.26677170441027" lon="14.024848009163472"><ele>237.39999999999998</ele><time>2026-05-03T11:47:49.001Z</time></trkpt><trkpt lat="42.26670589637569" lon="14.02475886168111"><ele>232.79999999999998</ele><time>2026-05-03T11:47:50.001Z</time></trkpt><trkpt lat="42.266622048717274" lon="14.024667025483579"><ele>228.2</ele><time>2026-05-03T11:47:51.001Z</time></trkpt><trkpt lat="42.2665360007143" lon="14.024580393982964"><ele>223.6</ele><time>2026-05-03T11:47:52.001Z</time></trkpt><trkpt lat="42.266467279764555" lon="14.024505192142543"><ele>219.0</ele><time>2026-05-03T11:47:53.001Z</time></trkpt><trkpt lat="42.26641244596195" lon="14.024449810774058"><ele>219.0</ele><time>2026-05-03T11:47:54.001Z</time></trkpt><trkpt lat="42.26630421754791" lon="14.024409996097354"><ele>219.0</ele><time>2026-05-03T11:47:56.001Z</time></trkpt><trkpt lat="42.26623775598178" lon="14.024384455959268"><ele>219.0</ele><time>2026-05-03T11:47:57.001Z</time></trkpt><trkpt lat="42.26617488577269" lon="14.02431562006748"><ele>219.0</ele><time>2026-05-03T11:47:58.001Z</time></trkpt><trkpt lat="42.26614487304824" lon="14.024233188087193"><ele>219.0</ele><time>2026-05-03T11:47:59.001Z</time></trkpt><trkpt lat="42.26605434733588" lon="14.024232196035301"><ele>219.0</ele><time>2026-05-03T11:48:01.001Z</time></trkpt><trkpt lat="42.26599385527631" lon="14.024311911731584"><ele>219.0</ele><time>2026-05-03T11:48:03.001Z</time></trkpt><trkpt lat="42.26588957818654" lon="14.024410083809897"><ele>218.99999999999997</ele><time>2026-05-03T11:48:05.001Z</time></trkpt><trkpt lat="42.265817704270354" lon="14.024403084666746"><ele>218.99999999999997</ele><time>2026-05-03T11:48:06Z</time></trkpt><trkpt lat="42.26573018685542" lon="14.024432997567784"><ele>219.0</ele><time>2026-05-03T11:48:07Z</time></trkpt><trkpt lat="42.26564557552859" lon="14.024460145157228"><ele>219.0</ele><time>2026-05-03T11:48:08Z</time></trkpt><trkpt lat="42.265559687413486" lon="14.024467571570263"><ele>216.66666666666666</ele><time>2026-05-03T11:48:09Z</time></trkpt><trkpt lat="42.26547540461502" lon="14.024476849636944"><ele>214.33333333333331</ele><time>2026-05-03T11:48:10Z</time></trkpt><trkpt lat="42.26540565336654" lon="14.024496894096254"><ele>212.0</ele><time>2026-05-03T11:48:11Z</time></trkpt><trkpt lat="42.26531074972641" lon="14.024537407030623"><ele>209.66666666666666</ele><time>2026-05-03T11:48:12Z</time></trkpt><trkpt lat="42.26523775716529" lon="14.024562498286778"><ele>207.33333333333331</ele><time>2026-05-03T11:48:13Z</time></trkpt><trkpt lat="42.26516197840308" lon="14.024566327075918"><ele>205.0</ele><time>2026-05-03T11:48:14Z</time></trkpt><trkpt lat="42.26508953812261" lon="14.024570842301433"><ele>204.99999999999997</ele><time>2026-05-03T11:48:15Z</time></trkpt><trkpt lat="42.265010958870384" lon="14.02462681823323"><ele>205.0</ele><time>2026-05-03T11:48:17Z</time></trkpt><trkpt lat="42.26498255417803" lon="14.02474577040076"><ele>205.0</ele><time>2026-05-03T11:48:19Z</time></trkpt><trkpt lat="42.264958537129466" lon="14.024838097561037"><ele>205.0</ele><time>2026-05-03T11:48:20Z</time></trkpt><trkpt lat="42.26489850417699" lon="14.024928695084377"><ele>204.99999999999997</ele><time>2026-05-03T11:48:22Z</time></trkpt><trkpt lat="42.26482960274542" lon="14.024982287002295"><ele>205.0</ele><time>2026-05-03T11:48:23Z</time></trkpt><trkpt lat="42.264770130487086" lon="14.025016059787111"><ele>208.49999999999997</ele><time>2026-05-03T11:48:24Z</time></trkpt><trkpt lat="42.26469903975781" lon="14.025013986813418"><ele>212.0</ele><time>2026-05-03T11:48:25Z</time></trkpt><trkpt lat="42.26460631253478" lon="14.025002093988432"><ele>215.5</ele><time>2026-05-03T11:48:26Z</time></trkpt><trkpt lat="42.2645159890541" lon="14.025011304537841"><ele>219.0</ele><time>2026-05-03T11:48:27Z</time></trkpt><trkpt lat="42.26443060328661" lon="14.02503185215729"><ele>222.49999999999997</ele><time>2026-05-03T11:48:28Z</time></trkpt><trkpt lat="42.26435521098426" lon="14.025039058950087"><ele>226.0</ele><time>2026-05-03T11:48:29Z</time></trkpt><trkpt lat="42.26426679217141" lon="14.025015461824793"><ele>225.49999999999997</ele><time>2026-05-03T11:48:30Z</time></trkpt><trkpt lat="42.264163810306506" lon="14.02496280047366"><ele>225.0</ele><time>2026-05-03T11:48:31Z</time></trkpt><trkpt lat="42.26407025307304" lon="14.024922773353959"><ele>224.5</ele><time>2026-05-03T11:48:32Z</time></trkpt><trkpt lat="42.26398855812679" lon="14.024886151161388"><ele>224.0</ele><time>2026-05-03T11:48:33Z</time></trkpt><trkpt lat="42.263917410749464" lon="14.024861451723602"><ele>223.49999999999997</ele><time>2026-05-03T11:48:34Z</time></trkpt><trkpt lat="42.263850499668756" lon="14.024843636743856"><ele>223.0</ele><time>2026-05-03T11:48:35Z</time></trkpt><trkpt lat="42.263779645767265" lon="14.024825965964673"><ele>222.99999999999997</ele><time>2026-05-03T11:48:36Z</time></trkpt><trkpt lat="42.26366173485933" lon="14.024750481916584"><ele>223.0</ele><time>2026-05-03T11:48:38Z</time></trkpt><trkpt lat="42.26359669491213" lon="14.024726354870827"><ele>223.0</ele><time>2026-05-03T11:48:39Z</time></trkpt><trkpt lat="42.26352545978578" lon="14.024727838085424"><ele>223.0</ele><time>2026-05-03T11:48:40Z</time></trkpt><trkpt lat="42.263463726720715" lon="14.024632402924317"><ele>222.99999999999997</ele><time>2026-05-03T11:48:42Z</time></trkpt><trkpt lat="42.26344166544575" lon="14.024544223129297"><ele>223.0</ele><time>2026-05-03T11:48:43Z</time></trkpt><trkpt lat="42.26339810777375" lon="14.024452399344757"><ele>222.99999999999997</ele><time>2026-05-03T11:48:44Z</time></trkpt><trkpt lat="42.263334231387276" lon="14.024367666971964"><ele>223.0</ele><time>2026-05-03T11:48:45.001Z</time></trkpt><trkpt lat="42.263275121269" lon="14.02426057501052"><ele>223.0</ele><time>2026-05-03T11:48:46.001Z</time></trkpt><trkpt lat="42.263230607202175" lon="14.024141739700246"><ele>223.0</ele><time>2026-05-03T11:48:47.001Z</time></trkpt><trkpt lat="42.26318057294817" lon="14.02404023230546"><ele>222.99999999999997</ele><time>2026-05-03T11:48:48.001Z</time></trkpt><trkpt lat="42.26312727708756" lon="14.023976291053337"><ele>223.0</ele><time>2026-05-03T11:48:49.001Z</time></trkpt><trkpt lat="42.2630624225101" lon="14.023935055525287"><ele>224.16666666666666</ele><time>2026-05-03T11:48:50.001Z</time></trkpt><trkpt lat="42.26298346439445" lon="14.023918505023564"><ele>225.33333333333331</ele><time>2026-05-03T11:48:51.001Z</time></trkpt><trkpt lat="42.26291198412358" lon="14.023924091073168"><ele>226.5</ele><time>2026-05-03T11:48:52.001Z</time></trkpt><trkpt lat="42.26285124536969" lon="14.023949634237802"><ele>227.66666666666669</ele><time>2026-05-03T11:48:53.001Z</time></trkpt><trkpt lat="42.2627343584796" lon="14.023972167338576"><ele>228.83333333333334</ele><time>2026-05-03T11:48:55.001Z</time></trkpt><trkpt lat="42.262636321038535" lon="14.02392704388526"><ele>230.0</ele><time>2026-05-03T11:48:57.001Z</time></trkpt><trkpt lat="42.26257917088934" lon="14.023870281155212"><ele>229.99999999999997</ele><time>2026-05-03T11:48:58.001Z</time></trkpt><trkpt lat="42.26251356004223" lon="14.023861918214896"><ele>230.0</ele><time>2026-05-03T11:48:59.001Z</time></trkpt><trkpt lat="42.26245001573926" lon="14.023855011235508"><ele>229.99999999999997</ele><time>2026-05-03T11:49:00.001Z</time></trkpt><trkpt lat="42.26237511515576" lon="14.02384622394238"><ele>229.99999999999997</ele><time>2026-05-03T11:49:01.001Z</time></trkpt><trkpt lat="42.26230784206381" lon="14.023821882201524"><ele>230.0</ele><time>2026-05-03T11:49:02.001Z</time></trkpt><trkpt lat="42.26224253901039" lon="14.023806041417458"><ele>229.99999999999997</ele><time>2026-05-03T11:49:03.001Z</time></trkpt><trkpt lat="42.262148047491635" lon="14.023799434865655"><ele>229.99999999999997</ele><time>2026-05-03T11:49:05.001Z</time></trkpt><trkpt lat="42.26207921156621" lon="14.0237948212051"><ele>233.0</ele><time>2026-05-03T11:49:07.001Z</time></trkpt><trkpt lat="42.26196351787063" lon="14.023758709107462"><ele>236.0</ele><time>2026-05-03T11:49:13.001Z</time></trkpt><trkpt lat="42.26189388641074" lon="14.023718414693015"><ele>239.0</ele><time>2026-05-03T11:49:14.001Z</time></trkpt><trkpt lat="42.261747785799436" lon="14.023900950359165"><ele>242.0</ele><time>2026-05-03T11:49:15.001Z</time></trkpt><trkpt lat="42.26167153238094" lon="14.023838121836292"><ele>242.0</ele><time>2026-05-03T11:49:16.001Z</time></trkpt><trkpt lat="42.26146694832248" lon="14.023570546101924"><ele>242.0</ele><time>2026-05-03T11:49:21.001Z</time></trkpt><trkpt lat="42.261565860036434" lon="14.024171219258367"><ele>242.0</ele><time>2026-05-03T11:49:22.001Z</time></trkpt><trkpt lat="42.261653603730856" lon="14.024228740619499"><ele>242.0</ele><time>2026-05-03T11:49:23.001Z</time></trkpt><trkpt lat="42.26189863157848" lon="14.024085416427559"><ele>242.0</ele><time>2026-05-03T11:49:26.001Z</time></trkpt><trkpt lat="42.26168384022736" lon="14.02444600836576"><ele>242.0</ele><time>2026-05-03T11:49:28.001Z</time></trkpt><trkpt lat="42.26157145429714" lon="14.02441814695817"><ele>242.0</ele><time>2026-05-03T11:49:30.001Z</time></trkpt><trkpt lat="42.261636343982545" lon="14.023883767170831"><ele>242.0</ele><time>2026-05-03T11:49:39.001Z</time></trkpt><trkpt lat="42.26172503774988" lon="14.023975478999153"><ele>242.0</ele><time>2026-05-03T11:49:41.001Z</time></trkpt><trkpt lat="42.26182534461843" lon="14.023988655465228"><ele>242.0</ele><time>2026-05-03T11:49:43.001Z</time></trkpt><trkpt lat="42.261871078065084" lon="14.023905277929556"><ele>242.0</ele><time>2026-05-03T11:49:45.001Z</time></trkpt><trkpt lat="42.261847687215514" lon="14.02377732237808"><ele>242.0</ele><time>2026-05-03T11:49:47.001Z</time></trkpt><trkpt lat="42.261795336540146" lon="14.023694378076385"><ele>242.00000000000003</ele><time>2026-05-03T11:49:49.001Z</time></trkpt><trkpt lat="42.26174768107723" lon="14.023601366326652"><ele>242.0</ele><time>2026-05-03T11:49:52.001Z</time></trkpt><trkpt lat="42.26171145310892" lon="14.023509524188723"><ele>242.0</ele><time>2026-05-03T11:49:55.001Z</time></trkpt><trkpt lat="42.26167855718261" lon="14.023423866773046"><ele>242.0</ele><time>2026-05-03T11:49:57.001Z</time></trkpt><trkpt lat="42.26164652051609" lon="14.023286205195413"><ele>242.00000000000003</ele><time>2026-05-03T11:49:59.001Z</time></trkpt><trkpt lat="42.261665422653884" lon="14.023174712420882"><ele>242.0</ele><time>2026-05-03T11:50:03.002Z</time></trkpt><trkpt lat="42.26164617348781" lon="14.02308753252532"><ele>239.83333333333334</ele><time>2026-05-03T11:52:31Z</time></trkpt><trkpt lat="42.26163908445665" lon="14.02296534173334"><ele>237.66666666666669</ele><time>2026-05-03T11:52:33Z</time></trkpt><trkpt lat="42.2616246398967" lon="14.022841410717088"><ele>235.5</ele><time>2026-05-03T11:52:35Z</time></trkpt><trkpt lat="42.261635758133565" lon="14.022730602915091"><ele>233.33333333333331</ele><time>2026-05-03T11:52:37.001Z</time></trkpt><trkpt lat="42.26174257342987" lon="14.02272981734423"><ele>231.16666666666666</ele><time>2026-05-03T11:52:39.001Z</time></trkpt><trkpt lat="42.26178831912777" lon="14.022792884486996"><ele>229.0</ele><time>2026-05-03T11:52:40.001Z</time></trkpt><trkpt lat="42.261806904644736" lon="14.022885472448705"><ele>229.0</ele><time>2026-05-03T11:52:41.001Z</time></trkpt><trkpt lat="42.26182535436112" lon="14.023039636869445"><ele>228.99999999999997</ele><time>2026-05-03T11:52:43.001Z</time></trkpt><trkpt lat="42.26186252846335" lon="14.023176905055909"><ele>228.99999999999997</ele><time>2026-05-03T11:52:45.001Z</time></trkpt><trkpt lat="42.26197292194354" lon="14.023213679648073"><ele>229.0</ele><time>2026-05-03T11:52:47.001Z</time></trkpt><trkpt lat="42.262041019979364" lon="14.023179565807053"><ele>229.0</ele><time>2026-05-03T11:52:48.001Z</time></trkpt><trkpt lat="42.26208679753882" lon="14.023069165564186"><ele>229.0</ele><time>2026-05-03T11:52:49.001Z</time></trkpt><trkpt lat="42.26211495362336" lon="14.0229560977074"><ele>228.99999999999997</ele><time>2026-05-03T11:52:50.001Z</time></trkpt><trkpt lat="42.262142740012344" lon="14.022845018955152"><ele>228.99999999999997</ele><time>2026-05-03T11:52:51.001Z</time></trkpt><trkpt lat="42.26215605969353" lon="14.02271495319894"><ele>229.0</ele><time>2026-05-03T11:52:52.001Z</time></trkpt><trkpt lat="42.26217732091903" lon="14.02259101996049"><ele>229.0</ele><time>2026-05-03T11:52:53.001Z</time></trkpt><trkpt lat="42.26218573645811" lon="14.022468359603918"><ele>226.6</ele><time>2026-05-03T11:52:54.001Z</time></trkpt><trkpt lat="42.262193057527114" lon="14.022342792727052"><ele>224.2</ele><time>2026-05-03T11:52:55.001Z</time></trkpt><trkpt lat="42.26213110584445" lon="14.022227542351972"><ele>221.79999999999998</ele><time>2026-05-03T11:52:56.001Z</time></trkpt><trkpt lat="42.26205937142292" lon="14.022125486303647"><ele>219.39999999999998</ele><time>2026-05-03T11:52:57.001Z</time></trkpt><trkpt lat="42.26196593869335" lon="14.0220368844014"><ele>217.0</ele><time>2026-05-03T11:52:58.001Z</time></trkpt><trkpt lat="42.26187070815042" lon="14.021959407099875"><ele>217.0</ele><time>2026-05-03T11:52:59.001Z</time></trkpt><trkpt lat="42.26177370013551" lon="14.021894204798711"><ele>217.0</ele><time>2026-05-03T11:53:00.001Z</time></trkpt><trkpt lat="42.26166148055608" lon="14.021858363534044"><ele>217.0</ele><time>2026-05-03T11:53:01.001Z</time></trkpt><trkpt lat="42.26153095116209" lon="14.021866496023678"><ele>217.0</ele><time>2026-05-03T11:53:02.001Z</time></trkpt><trkpt lat="42.26140695029922" lon="14.021911241590873"><ele>215.0</ele><time>2026-05-03T11:53:03.001Z</time></trkpt><trkpt lat="42.2612913497892" lon="14.021951005256941"><ele>213.0</ele><time>2026-05-03T11:53:04.001Z</time></trkpt><trkpt lat="42.26119692321334" lon="14.02196749823223"><ele>211.0</ele><time>2026-05-03T11:53:05.001Z</time></trkpt><trkpt lat="42.261130466826536" lon="14.021989998858784"><ele>209.0</ele><time>2026-05-03T11:53:06.001Z</time></trkpt><trkpt lat="42.26104029449395" lon="14.022010195053074"><ele>207.0</ele><time>2026-05-03T11:53:08.001Z</time></trkpt><trkpt lat="42.26100023469453" lon="14.02211490613245"><ele>207.00000000000003</ele><time>2026-05-03T11:53:09.001Z</time></trkpt><trkpt lat="42.26094886552861" lon="14.022189757856594"><ele>207.0</ele><time>2026-05-03T11:53:10.001Z</time></trkpt><trkpt lat="42.26090637896758" lon="14.022263754525488"><ele>207.0</ele><time>2026-05-03T11:53:11.001Z</time></trkpt><trkpt lat="42.26084871560119" lon="14.022326882236936"><ele>207.0</ele><time>2026-05-03T11:53:12.001Z</time></trkpt><trkpt lat="42.260796825785654" lon="14.022396722848878"><ele>207.0</ele><time>2026-05-03T11:53:13.001Z</time></trkpt><trkpt lat="42.260753168759585" lon="14.022469089832054"><ele>207.00000000000003</ele><time>2026-05-03T11:53:14.001Z</time></trkpt><trkpt lat="42.26072012977503" lon="14.022568999926673"><ele>207.0</ele><time>2026-05-03T11:53:15.001Z</time></trkpt><trkpt lat="42.26065774910836" lon="14.022679234648926"><ele>207.16666666666666</ele><time>2026-05-03T11:53:16.001Z</time></trkpt><trkpt lat="42.26061284762034" lon="14.022799293063516"><ele>207.33333333333331</ele><time>2026-05-03T11:53:17.001Z</time></trkpt><trkpt lat="42.2605551911348" lon="14.022900309912778"><ele>207.5</ele><time>2026-05-03T11:53:18.001Z</time></trkpt><trkpt lat="42.26050711115172" lon="14.023006016046878"><ele>207.66666666666666</ele><time>2026-05-03T11:53:19.001Z</time></trkpt><trkpt lat="42.260460196021086" lon="14.023097156812453"><ele>207.83333333333331</ele><time>2026-05-03T11:53:20.001Z</time></trkpt><trkpt lat="42.260409131204376" lon="14.02317507397107"><ele>208.0</ele><time>2026-05-03T11:53:21.001Z</time></trkpt><trkpt lat="42.26034781027393" lon="14.02322776174139"><ele>208.0</ele><time>2026-05-03T11:53:22.001Z</time></trkpt><trkpt lat="42.26025993012658" lon="14.02322002533322"><ele>208.0</ele><time>2026-05-03T11:53:23.001Z</time></trkpt><trkpt lat="42.26016958609886" lon="14.023211979295406"><ele>208.0</ele><time>2026-05-03T11:53:24.001Z</time></trkpt><trkpt lat="42.26004704081763" lon="14.023209094695885"><ele>208.0</ele><time>2026-05-03T11:53:25.001Z</time></trkpt><trkpt lat="42.25992573403458" lon="14.023215496595446"><ele>208.0</ele><time>2026-05-03T11:53:26.001Z</time></trkpt><trkpt lat="42.25981294469783" lon="14.023229779190016"><ele>209.4</ele><time>2026-05-03T11:53:27.001Z</time></trkpt><trkpt lat="42.25971009059509" lon="14.023226638762466"><ele>210.8</ele><time>2026-05-03T11:53:28.001Z</time></trkpt><trkpt lat="42.259628766788744" lon="14.023252438811253"><ele>212.2</ele><time>2026-05-03T11:53:29.001Z</time></trkpt><trkpt lat="42.25955851135862" lon="14.02325569550866"><ele>213.6</ele><time>2026-05-03T11:53:30.001Z</time></trkpt><trkpt lat="42.25946583534735" lon="14.023235680172952"><ele>215.0</ele><time>2026-05-03T11:53:32.001Z</time></trkpt><trkpt lat="42.25944998929216" lon="14.023451846546815"><ele>215.50000000000003</ele><time>2026-05-03T11:53:35.001Z</time></trkpt><trkpt lat="42.25946458317733" lon="14.02361170680861"><ele>216.0</ele><time>2026-05-03T11:53:37.001Z</time></trkpt><trkpt lat="42.25948290504588" lon="14.02371479117905"><ele>216.5</ele><time>2026-05-03T11:53:38.001Z</time></trkpt><trkpt lat="42.25949088018425" lon="14.023819852851272"><ele>217.0</ele><time>2026-05-03T11:53:39.001Z</time></trkpt><trkpt lat="42.25950747295133" lon="14.023933810149806"><ele>217.50000000000003</ele><time>2026-05-03T11:53:40.001Z</time></trkpt><trkpt lat="42.25949520616108" lon="14.024044499054298"><ele>218.0</ele><time>2026-05-03T11:53:41.001Z</time></trkpt><trkpt lat="42.259472855916904" lon="14.024154021677145"><ele>220.4</ele><time>2026-05-03T11:53:42.001Z</time></trkpt><trkpt lat="42.259456831759046" lon="14.024267089768935"><ele>222.8</ele><time>2026-05-03T11:53:43.001Z</time></trkpt><trkpt lat="42.2594331570688" lon="14.024382491721697"><ele>225.2</ele><time>2026-05-03T11:53:44.001Z</time></trkpt><trkpt lat="42.259418947103384" lon="14.024507410813875"><ele>227.6</ele><time>2026-05-03T11:53:45.001Z</time></trkpt><trkpt lat="42.25940910564694" lon="14.024636777882334"><ele>230.0</ele><time>2026-05-03T11:53:46.001Z</time></trkpt><trkpt lat="42.25940796853569" lon="14.024769041397423"><ele>230.00000000000003</ele><time>2026-05-03T11:53:47.001Z</time></trkpt><trkpt lat="42.259392726358584" lon="14.02488768094165"><ele>230.0</ele><time>2026-05-03T11:53:48.002Z</time></trkpt><trkpt lat="42.25941001882924" lon="14.024985663808357"><ele>230.0</ele><time>2026-05-03T11:53:49.002Z</time></trkpt><trkpt lat="42.25942505010222" lon="14.025079102494457"><ele>230.0</ele><time>2026-05-03T11:53:50.002Z</time></trkpt><trkpt lat="42.2594419708757" lon="14.025173447604008"><ele>230.00000000000003</ele><time>2026-05-03T11:53:51.002Z</time></trkpt><trkpt lat="42.259458336100714" lon="14.02527573300988"><ele>230.0</ele><time>2026-05-03T11:53:52.002Z</time></trkpt><trkpt lat="42.25956672919793" lon="14.025343764384118"><ele>232.16666666666669</ele><time>2026-05-03T11:53:54.002Z</time></trkpt><trkpt lat="42.25963690500152" lon="14.02535606031229"><ele>234.33333333333334</ele><time>2026-05-03T11:53:55.002Z</time></trkpt><trkpt lat="42.259707229292744" lon="14.025415720942416"><ele>236.5</ele><time>2026-05-03T11:53:56.002Z</time></trkpt><trkpt lat="42.25978789068772" lon="14.025465892690992"><ele>238.66666666666669</ele><time>2026-05-03T11:53:57.002Z</time></trkpt><trkpt lat="42.25987493120769" lon="14.025540725357587"><ele>240.83333333333334</ele><time>2026-05-03T11:53:58.002Z</time></trkpt><trkpt lat="42.259966098979206" lon="14.025605247289697"><ele>243.0</ele><time>2026-05-03T11:53:59.002Z</time></trkpt><trkpt lat="42.26004585200979" lon="14.02566434566973"><ele>243.33333333333334</ele><time>2026-05-03T11:54:00.002Z</time></trkpt><trkpt lat="42.2600719029132" lon="14.025764582472837"><ele>243.66666666666669</ele><time>2026-05-03T11:54:01.002Z</time></trkpt><trkpt lat="42.26013631530188" lon="14.025835221747517"><ele>244.0</ele><time>2026-05-03T11:54:02.002Z</time></trkpt><trkpt lat="42.26017835858297" lon="14.025904402475383"><ele>244.33333333333334</ele><time>2026-05-03T11:54:03.002Z</time></trkpt><trkpt lat="42.26028378283613" lon="14.025985944264562"><ele>244.66666666666669</ele><time>2026-05-03T11:54:05.002Z</time></trkpt><trkpt lat="42.26034357332741" lon="14.026015907162025"><ele>245.0</ele><time>2026-05-03T11:54:06.002Z</time></trkpt><trkpt lat="42.26041960621427" lon="14.026087384212735"><ele>248.50000000000003</ele><time>2026-05-03T11:54:08.002Z</time></trkpt><trkpt lat="42.260450910750066" lon="14.026221391372001"><ele>252.0</ele><time>2026-05-03T11:54:10.002Z</time></trkpt><trkpt lat="42.260480162602285" lon="14.026300827936149"><ele>255.5</ele><time>2026-05-03T11:54:11.002Z</time></trkpt><trkpt lat="42.26051158154668" lon="14.02638336364407"><ele>259.0</ele><time>2026-05-03T11:54:12.002Z</time></trkpt><trkpt lat="42.260574412244644" lon="14.026444328989815"><ele>262.5</ele><time>2026-05-03T11:54:13.002Z</time></trkpt><trkpt lat="42.26062299572087" lon="14.026542297094249"><ele>266.0</ele><time>2026-05-03T11:54:14.002Z</time></trkpt><trkpt lat="42.260681705508695" lon="14.0266402672709"><ele>270.2</ele><time>2026-05-03T11:54:15.002Z</time></trkpt><trkpt lat="42.26074154957354" lon="14.026755986867945"><ele>274.40000000000003</ele><time>2026-05-03T11:54:16.002Z</time></trkpt><trkpt lat="42.26080279454575" lon="14.026876227638848"><ele>278.6</ele><time>2026-05-03T11:54:17.002Z</time></trkpt><trkpt lat="42.26087426344053" lon="14.026989488035175"><ele>282.8</ele><time>2026-05-03T11:54:18.002Z</time></trkpt><trkpt lat="42.26092918517133" lon="14.027080016598347"><ele>287.0</ele><time>2026-05-03T11:54:19.002Z</time></trkpt><trkpt lat="42.2609782725271" lon="14.027159350179609"><ele>287.0</ele><time>2026-05-03T11:54:20.002Z</time></trkpt><trkpt lat="42.261030175071724" lon="14.027221962699466"><ele>287.0</ele><time>2026-05-03T11:54:21.002Z</time></trkpt><trkpt lat="42.26110629352833" lon="14.027276885476143"><ele>287.0</ele><time>2026-05-03T11:54:23.002Z</time></trkpt><trkpt lat="42.26117285352281" lon="14.027172991853137"><ele>287.0</ele><time>2026-05-03T11:54:25Z</time></trkpt><trkpt lat="42.26116998261883" lon="14.027083952833664"><ele>287.0</ele><time>2026-05-03T11:54:26Z</time></trkpt><trkpt lat="42.26112798204449" lon="14.027004176499599"><ele>287.0</ele><time>2026-05-03T11:54:27Z</time></trkpt><trkpt lat="42.26109133797168" lon="14.026881156636765"><ele>287.0</ele><time>2026-05-03T11:54:28Z</time></trkpt><trkpt lat="42.261036242509675" lon="14.026768601631554"><ele>287.0</ele><time>2026-05-03T11:54:29Z</time></trkpt><trkpt lat="42.26100230923086" lon="14.026647913418415"><ele>287.0</ele><time>2026-05-03T11:54:30Z</time></trkpt><trkpt lat="42.260963564193794" lon="14.02650013498698"><ele>287.0</ele><time>2026-05-03T11:54:31Z</time></trkpt><trkpt lat="42.260940805516626" lon="14.026318283060926"><ele>287.0</ele><time>2026-05-03T11:54:32Z</time></trkpt><trkpt lat="42.26091912894486" lon="14.026196300286651"><ele>285.0</ele><time>2026-05-03T11:54:33Z</time></trkpt><trkpt lat="42.26090662042286" lon="14.026095022712443"><ele>283.0</ele><time>2026-05-03T11:54:35Z</time></trkpt><trkpt lat="42.26097108132968" lon="14.026061246578614"><ele>281.0</ele><time>2026-05-03T11:54:38Z</time></trkpt><trkpt lat="42.26095804257096" lon="14.026205387473643"><ele>279.0</ele><time>2026-05-03T11:54:40Z</time></trkpt><trkpt lat="42.26098829207004" lon="14.02632434969679"><ele>277.0</ele><time>2026-05-03T11:54:41Z</time></trkpt><trkpt lat="42.26103833433258" lon="14.02645443249988"><ele>277.0</ele><time>2026-05-03T11:54:42Z</time></trkpt><trkpt lat="42.26107797390061" lon="14.026587279103463"><ele>277.0</ele><time>2026-05-03T11:54:43Z</time></trkpt><trkpt lat="42.261149077219756" lon="14.026747950253462"><ele>277.0</ele><time>2026-05-03T11:54:44Z</time></trkpt><trkpt lat="42.261223057866246" lon="14.026916683439671"><ele>277.0</ele><time>2026-05-03T11:54:45Z</time></trkpt><trkpt lat="42.26129697563548" lon="14.027095527955877"><ele>279.5</ele><time>2026-05-03T11:54:46Z</time></trkpt><trkpt lat="42.261360497507944" lon="14.027278749957624"><ele>282.0</ele><time>2026-05-03T11:54:47Z</time></trkpt><trkpt lat="42.26140159897383" lon="14.027448907910651"><ele>284.5</ele><time>2026-05-03T11:54:48Z</time></trkpt><trkpt lat="42.26143203948958" lon="14.027615003262241"><ele>287.0</ele><time>2026-05-03T11:54:49Z</time></trkpt><trkpt lat="42.261479551754476" lon="14.027779799474809"><ele>291.5</ele><time>2026-05-03T11:54:50Z</time></trkpt><trkpt lat="42.26156747623572" lon="14.027923565552552"><ele>296.0</ele><time>2026-05-03T11:54:51Z</time></trkpt><trkpt lat="42.261663937666555" lon="14.028046290531739"><ele>300.5</ele><time>2026-05-03T11:54:52Z</time></trkpt><trkpt lat="42.26175831172789" lon="14.028173380969237"><ele>305.0</ele><time>2026-05-03T11:54:53Z</time></trkpt><trkpt lat="42.2618295415354" lon="14.028315838181246"><ele>305.8</ele><time>2026-05-03T11:54:54Z</time></trkpt><trkpt lat="42.26189448120606" lon="14.028472486223029"><ele>306.6</ele><time>2026-05-03T11:54:55Z</time></trkpt><trkpt lat="42.26194201145072" lon="14.028602610573104"><ele>307.4</ele><time>2026-05-03T11:54:56Z</time></trkpt><trkpt lat="42.26198402305986" lon="14.028706868889948"><ele>308.2</ele><time>2026-05-03T11:54:57Z</time></trkpt><trkpt lat="42.26202304816191" lon="14.028788938008052"><ele>309.0</ele><time>2026-05-03T11:54:58Z</time></trkpt><trkpt lat="42.26206646839821" lon="14.028865399599358"><ele>309.0</ele><time>2026-05-03T11:55:00.001Z</time></trkpt><trkpt lat="42.26223637678136" lon="14.02874269101344"><ele>309.0</ele><time>2026-05-03T11:55:02.001Z</time></trkpt><trkpt lat="42.262305638603614" lon="14.028642562728395"><ele>309.0</ele><time>2026-05-03T11:55:03.001Z</time></trkpt><trkpt lat="42.26236988789488" lon="14.028542833904138"><ele>309.0</ele><time>2026-05-03T11:55:04.001Z</time></trkpt><trkpt lat="42.262416511492994" lon="14.02845756076474"><ele>309.0</ele><time>2026-05-03T11:55:05.001Z</time></trkpt><trkpt lat="42.262499155881116" lon="14.028376255465183"><ele>309.0</ele><time>2026-05-03T11:55:07.001Z</time></trkpt><trkpt lat="42.26262518751605" lon="14.028476301678824"><ele>309.0</ele><time>2026-05-03T11:55:08.001Z</time></trkpt><trkpt lat="42.26270973937993" lon="14.028535497543336"><ele>309.0</ele><time>2026-05-03T11:55:09.001Z</time></trkpt><trkpt lat="42.26281752724718" lon="14.028608800014927"><ele>309.0</ele><time>2026-05-03T11:55:10.001Z</time></trkpt><trkpt lat="42.262943137112025" lon="14.028684056157163"><ele>309.0</ele><time>2026-05-03T11:55:11.001Z</time></trkpt><trkpt lat="42.263087446516565" lon="14.028779062040137"><ele>309.0</ele><time>2026-05-03T11:55:12.001Z</time></trkpt><trkpt lat="42.26323955635416" lon="14.028884359972515"><ele>308.6666666666667</ele><time>2026-05-03T11:55:13.001Z</time></trkpt><trkpt lat="42.26340746196434" lon="14.028998152451535"><ele>308.33333333333337</ele><time>2026-05-03T11:55:14.001Z</time></trkpt><trkpt lat="42.26358500066545" lon="14.029112562981648"><ele>308.0</ele><time>2026-05-03T11:55:15.001Z</time></trkpt><trkpt lat="42.26375494324343" lon="14.029211653265524"><ele>308.0</ele><time>2026-05-03T11:55:16.001Z</time></trkpt><trkpt lat="42.26390374097252" lon="14.029295996048418"><ele>308.0</ele><time>2026-05-03T11:55:17.001Z</time></trkpt><trkpt lat="42.2640585057384" lon="14.029363377753723"><ele>308.0</ele><time>2026-05-03T11:55:18.001Z</time></trkpt><trkpt lat="42.26420917364327" lon="14.0294066710155"><ele>307.33333333333337</ele><time>2026-05-03T11:55:19.001Z</time></trkpt><trkpt lat="42.264357452517594" lon="14.029426973810974"><ele>306.6666666666667</ele><time>2026-05-03T11:55:20.001Z</time></trkpt><trkpt lat="42.2645146932842" lon="14.02942546080457"><ele>306.0</ele><time>2026-05-03T11:55:21.001Z</time></trkpt><trkpt lat="42.26465726626701" lon="14.029396502928227"><ele>306.0</ele><time>2026-05-03T11:55:22.001Z</time></trkpt><trkpt lat="42.264758483133456" lon="14.029360103091593"><ele>306.0</ele><time>2026-05-03T11:55:23.001Z</time></trkpt><trkpt lat="42.26483996924406" lon="14.029326013167944"><ele>306.0</ele><time>2026-05-03T11:55:24.001Z</time></trkpt><trkpt lat="42.26490878076007" lon="14.029310996203817"><ele>306.0</ele><time>2026-05-03T11:55:25.001Z</time></trkpt><trkpt lat="42.264994906471024" lon="14.02931538712682"><ele>306.0</ele><time>2026-05-03T11:55:27.001Z</time></trkpt><trkpt lat="42.265047162303766" lon="14.029510518196876"><ele>306.0</ele><time>2026-05-03T11:55:28.001Z</time></trkpt><trkpt lat="42.26508634165522" lon="14.029592989617393"><ele>306.0</ele><time>2026-05-03T11:55:29.001Z</time></trkpt><trkpt lat="42.26512235679887" lon="14.0296869793219"><ele>306.0</ele><time>2026-05-03T11:55:30.001Z</time></trkpt><trkpt lat="42.26515244088791" lon="14.02978925986789"><ele>306.0</ele><time>2026-05-03T11:55:31.001Z</time></trkpt><trkpt lat="42.2651602723213" lon="14.029880095933148"><ele>306.0</ele><time>2026-05-03T11:55:32.001Z</time></trkpt><trkpt lat="42.26515451675831" lon="14.029979673991518"><ele>306.0</ele><time>2026-05-03T11:55:33.001Z</time></trkpt><trkpt lat="42.26515079638225" lon="14.030082036901579"><ele>306.3333333333333</ele><time>2026-05-03T11:55:34.001Z</time></trkpt><trkpt lat="42.26516571192162" lon="14.03016903148754"><ele>306.6666666666667</ele><time>2026-05-03T11:55:35.001Z</time></trkpt><trkpt lat="42.26516120869612" lon="14.03026664888175"><ele>307.0</ele><time>2026-05-03T11:55:36.001Z</time></trkpt><trkpt lat="42.26513641472531" lon="14.03037330823046"><ele>307.33333333333337</ele><time>2026-05-03T11:55:38.001Z</time></trkpt><trkpt lat="42.26521127181086" lon="14.030418637691861"><ele>307.6666666666667</ele><time>2026-05-03T11:55:39.001Z</time></trkpt><trkpt lat="42.26529108826611" lon="14.030508491006094"><ele>308.0</ele><time>2026-05-03T11:55:41.001Z</time></trkpt><trkpt lat="42.26537157842313" lon="14.030602946057343"><ele>308.0</ele><time>2026-05-03T11:55:43.001Z</time></trkpt><trkpt lat="42.26542686057504" lon="14.030714289571229"><ele>308.0</ele><time>2026-05-03T11:55:45.001Z</time></trkpt><trkpt lat="42.265485489002614" lon="14.030843304309128"><ele>308.0</ele><time>2026-05-03T11:55:47.001Z</time></trkpt><trkpt lat="42.26550892063211" lon="14.030981078209388"><ele>308.0</ele><time>2026-05-03T11:55:49.001Z</time></trkpt><trkpt lat="42.26552230407573" lon="14.031069562972426"><ele>308.0</ele><time>2026-05-03T11:55:50.001Z</time></trkpt><trkpt lat="42.26553598248672" lon="14.031153084957197"><ele>308.0</ele><time>2026-05-03T11:55:51.001Z</time></trkpt><trkpt lat="42.265539586087144" lon="14.031255933764223"><ele>308.0</ele><time>2026-05-03T11:55:52.001Z</time></trkpt><trkpt lat="42.26557978030692" lon="14.03134922243753"><ele>308.0</ele><time>2026-05-03T11:55:53.001Z</time></trkpt><trkpt lat="42.265614559326906" lon="14.031426245458494"><ele>308.0</ele><time>2026-05-03T11:55:54.001Z</time></trkpt><trkpt lat="42.26564198857369" lon="14.031506808742996"><ele>308.0</ele><time>2026-05-03T11:55:55.001Z</time></trkpt><trkpt lat="42.26568529481096" lon="14.031651770000215"><ele>308.0</ele><time>2026-05-03T11:55:57.001Z</time></trkpt><trkpt lat="42.26571027486485" lon="14.031737466071108"><ele>308.0</ele><time>2026-05-03T11:55:58.001Z</time></trkpt><trkpt lat="42.26575431126918" lon="14.03181869666363"><ele>304.83333333333337</ele><time>2026-05-03T11:55:59.001Z</time></trkpt><trkpt lat="42.265743314202446" lon="14.03193319397713"><ele>301.6666666666667</ele><time>2026-05-03T11:56:00.001Z</time></trkpt><trkpt lat="42.26575997145574" lon="14.032048493903993"><ele>298.5</ele><time>2026-05-03T11:56:01.001Z</time></trkpt><trkpt lat="42.265797740071896" lon="14.03215402931141"><ele>295.3333333333333</ele><time>2026-05-03T11:56:02.001Z</time></trkpt><trkpt lat="42.2658376711931" lon="14.032246441997996"><ele>292.16666666666663</ele><time>2026-05-03T11:56:03.001Z</time></trkpt><trkpt lat="42.26588434046809" lon="14.032332457235908"><ele>289.0</ele><time>2026-05-03T11:56:04.001Z</time></trkpt><trkpt lat="42.26593054148475" lon="14.032418163977868"><ele>287.66666666666663</ele><time>2026-05-03T11:56:05.001Z</time></trkpt><trkpt lat="42.265984451570596" lon="14.03250199967391"><ele>286.3333333333333</ele><time>2026-05-03T11:56:06.001Z</time></trkpt><trkpt lat="42.266037202365375" lon="14.032567756198164"><ele>285.0</ele><time>2026-05-03T11:56:07.001Z</time></trkpt><trkpt lat="42.26608255472516" lon="14.032648679197925"><ele>283.6666666666667</ele><time>2026-05-03T11:56:08.001Z</time></trkpt><trkpt lat="42.26613388923429" lon="14.032723150614391"><ele>282.33333333333337</ele><time>2026-05-03T11:56:09.001Z</time></trkpt><trkpt lat="42.266193131961245" lon="14.03279205117767"><ele>281.0</ele><time>2026-05-03T11:56:10.001Z</time></trkpt><trkpt lat="42.266250231738866" lon="14.032851099467813"><ele>281.0</ele><time>2026-05-03T11:56:11.001Z</time></trkpt><trkpt lat="42.266338690842964" lon="14.03293507478953"><ele>281.0</ele><time>2026-05-03T11:56:13.002Z</time></trkpt><trkpt lat="42.266430752074356" lon="14.032976702221626"><ele>281.0</ele><time>2026-05-03T11:56:15.002Z</time></trkpt><trkpt lat="42.26651677018792" lon="14.03291759347154"><ele>281.0</ele><time>2026-05-03T11:56:17.002Z</time></trkpt><trkpt lat="42.266607624642674" lon="14.032821679518204"><ele>281.0</ele><time>2026-05-03T11:56:19.002Z</time></trkpt><trkpt lat="42.26666208519335" lon="14.032714536101972"><ele>278.6666666666667</ele><time>2026-05-03T11:56:21.002Z</time></trkpt><trkpt lat="42.266730178737056" lon="14.032661314242832"><ele>276.33333333333337</ele><time>2026-05-03T11:56:23.002Z</time></trkpt><trkpt lat="42.26679821488742" lon="14.032724791681469"><ele>274.0</ele><time>2026-05-03T11:56:25.002Z</time></trkpt><trkpt lat="42.26679978799437" lon="14.032816388857452"><ele>271.6666666666667</ele><time>2026-05-03T11:56:26.002Z</time></trkpt><trkpt lat="42.26678879497216" lon="14.03292595811997"><ele>269.3333333333333</ele><time>2026-05-03T11:56:27.002Z</time></trkpt><trkpt lat="42.266782343058736" lon="14.033031028453813"><ele>267.0</ele><time>2026-05-03T11:56:28.002Z</time></trkpt><trkpt lat="42.26677867941916" lon="14.033128946103815"><ele>267.0</ele><time>2026-05-03T11:56:29.002Z</time></trkpt><trkpt lat="42.26678607683411" lon="14.03323594854989"><ele>267.0</ele><time>2026-05-03T11:56:30Z</time></trkpt><trkpt lat="42.2667791367974" lon="14.033338970982891"><ele>267.0</ele><time>2026-05-03T11:56:31Z</time></trkpt><trkpt lat="42.26677318133415" lon="14.033448376001619"><ele>267.0</ele><time>2026-05-03T11:56:32Z</time></trkpt><trkpt lat="42.26677205428037" lon="14.033548645980837"><ele>267.0</ele><time>2026-05-03T11:56:33Z</time></trkpt><trkpt lat="42.26674870896815" lon="14.03369306388194"><ele>267.0</ele><time>2026-05-03T11:56:35Z</time></trkpt><trkpt lat="42.26674969117239" lon="14.033789991196873"><ele>265.0</ele><time>2026-05-03T11:56:37Z</time></trkpt><trkpt lat="42.26678302928705" lon="14.033889937387148"><ele>263.0</ele><time>2026-05-03T11:56:39Z</time></trkpt><trkpt lat="42.266814949731156" lon="14.033966473408567"><ele>261.0</ele><time>2026-05-03T11:56:40Z</time></trkpt><trkpt lat="42.266878244013796" lon="14.03410037763465"><ele>259.0</ele><time>2026-05-03T11:56:42Z</time></trkpt><trkpt lat="42.26693011717023" lon="14.034190851303086"><ele>257.0</ele><time>2026-05-03T11:56:44Z</time></trkpt><trkpt lat="42.26697364564448" lon="14.03427444547947"><ele>255.0</ele><time>2026-05-03T11:56:46Z</time></trkpt><trkpt lat="42.26704573594774" lon="14.034389010696657"><ele>253.2</ele><time>2026-05-03T11:56:48Z</time></trkpt><trkpt lat="42.26712503910978" lon="14.034525307996097"><ele>251.4</ele><time>2026-05-03T11:56:50Z</time></trkpt><trkpt lat="42.26716816365559" lon="14.034601445940126"><ele>249.60000000000002</ele><time>2026-05-03T11:56:51Z</time></trkpt><trkpt lat="42.267210518060054" lon="14.034675482164399"><ele>247.8</ele><time>2026-05-03T11:56:52Z</time></trkpt><trkpt lat="42.26728144091046" lon="14.034809262427135"><ele>246.0</ele><time>2026-05-03T11:56:54Z</time></trkpt><trkpt lat="42.26733183480881" lon="14.034935684684479"><ele>244.20000000000002</ele><time>2026-05-03T11:56:56Z</time></trkpt><trkpt lat="42.26736582506" lon="14.035055111214051"><ele>242.40000000000003</ele><time>2026-05-03T11:56:58Z</time></trkpt><trkpt lat="42.26736339993969" lon="14.035198917005092"><ele>240.6</ele><time>2026-05-03T11:57:00Z</time></trkpt><trkpt lat="42.26735237875723" lon="14.035338955914245"><ele>238.8</ele><time>2026-05-03T11:57:02Z</time></trkpt><trkpt lat="42.26735560128347" lon="14.035484933407965"><ele>237.0</ele><time>2026-05-03T11:57:04Z</time></trkpt><trkpt lat="42.267348210733765" lon="14.035658842987823"><ele>237.0</ele><time>2026-05-03T11:57:06Z</time></trkpt><trkpt lat="42.26735013125104" lon="14.035750059392425"><ele>237.0</ele><time>2026-05-03T11:57:07Z</time></trkpt><trkpt lat="42.2673381388956" lon="14.035867141410424"><ele>237.0</ele><time>2026-05-03T11:57:09Z</time></trkpt><trkpt lat="42.26730643236229" lon="14.035944897097407"><ele>237.0</ele><time>2026-05-03T11:57:11Z</time></trkpt><trkpt lat="42.26726857063835" lon="14.036025371682948"><ele>237.0</ele><time>2026-05-03T11:57:13Z</time></trkpt><trkpt lat="42.267298988580535" lon="14.036120884439674"><ele>237.0</ele><time>2026-05-03T11:57:15Z</time></trkpt><trkpt lat="42.26737409190468" lon="14.036198320202613"><ele>235.0</ele><time>2026-05-03T11:57:17Z</time></trkpt><trkpt lat="42.26746628620612" lon="14.036279511128127"><ele>233.0</ele><time>2026-05-03T11:57:19Z</time></trkpt><trkpt lat="42.26754076707481" lon="14.036408892248796"><ele>231.0</ele><time>2026-05-03T11:57:21.001Z</time></trkpt><trkpt lat="42.26758994193032" lon="14.03650212827407"><ele>229.0</ele><time>2026-05-03T11:57:23.001Z</time></trkpt><trkpt lat="42.26763318491634" lon="14.036567772380838"><ele>227.0</ele><time>2026-05-03T11:57:25.001Z</time></trkpt><trkpt lat="42.267690481062985" lon="14.036605566165802"><ele>225.0</ele><time>2026-05-03T11:57:36.001Z</time></trkpt><trkpt lat="42.26775863712426" lon="14.036606284818557"><ele>225.0</ele><time>2026-05-03T11:57:42.001Z</time></trkpt><trkpt lat="42.2677939238528" lon="14.036518716032614"><ele>225.0</ele><time>2026-05-03T11:57:48.001Z</time></trkpt><trkpt lat="42.26780301503586" lon="14.036382867512526"><ele>225.0</ele><time>2026-05-03T11:57:50.001Z</time></trkpt><trkpt lat="42.267806844091524" lon="14.036529195258092"><ele>225.0</ele><time>2026-05-03T11:57:53.001Z</time></trkpt><trkpt lat="42.26786091604019" lon="14.036456596980555"><ele>225.0</ele><time>2026-05-03T11:58:58Z</time></trkpt><trkpt lat="42.267946957473704" lon="14.036392335456155"><ele>225.0</ele><time>2026-05-03T11:59:00Z</time></trkpt><trkpt lat="42.26803469278117" lon="14.036323418807328"><ele>225.0</ele><time>2026-05-03T11:59:02Z</time></trkpt><trkpt lat="42.26812811882211" lon="14.036249284805995"><ele>225.0</ele><time>2026-05-03T11:59:04Z</time></trkpt><trkpt lat="42.26819315557286" lon="14.036222445119991"><ele>225.0</ele><time>2026-05-03T11:59:05Z</time></trkpt><trkpt lat="42.26825201618396" lon="14.036189352144136"><ele>225.0</ele><time>2026-05-03T11:59:06Z</time></trkpt><trkpt lat="42.268313191712" lon="14.036152665013628"><ele>225.0</ele><time>2026-05-03T11:59:07Z</time></trkpt><trkpt lat="42.2683799260158" lon="14.036088513208844"><ele>228.2</ele><time>2026-05-03T11:59:09Z</time></trkpt><trkpt lat="42.26845052162657" lon="14.036025565530773"><ele>231.4</ele><time>2026-05-03T11:59:11Z</time></trkpt><trkpt lat="42.26854231784883" lon="14.03599737301507"><ele>234.60000000000002</ele><time>2026-05-03T11:59:13Z</time></trkpt><trkpt lat="42.26865695383612" lon="14.035920752248183"><ele>237.8</ele><time>2026-05-03T11:59:15Z</time></trkpt><trkpt lat="42.2687780077596" lon="14.035888738572252"><ele>241.0</ele><time>2026-05-03T11:59:17Z</time></trkpt><trkpt lat="42.26884465104768" lon="14.03588639670009"><ele>242.4</ele><time>2026-05-03T11:59:18Z</time></trkpt><trkpt lat="42.268977258070414" lon="14.03590527777687"><ele>243.8</ele><time>2026-05-03T11:59:20Z</time></trkpt><trkpt lat="42.26905692282411" lon="14.03589487634322"><ele>245.20000000000002</ele><time>2026-05-03T11:59:21.001Z</time></trkpt><trkpt lat="42.269135840608485" lon="14.035858001046474"><ele>246.60000000000002</ele><time>2026-05-03T11:59:22.001Z</time></trkpt><trkpt lat="42.2692096151377" lon="14.03584451422121"><ele>248.0</ele><time>2026-05-03T11:59:23.001Z</time></trkpt><trkpt lat="42.26930345896842" lon="14.035888748238467"><ele>248.0</ele><time>2026-05-03T11:59:25.001Z</time></trkpt><trkpt lat="42.26936637993755" lon="14.035894422374108"><ele>248.00000000000003</ele><time>2026-05-03T11:59:26.001Z</time></trkpt><trkpt lat="42.26943526815732" lon="14.035903021731245"><ele>248.0</ele><time>2026-05-03T11:59:27.001Z</time></trkpt><trkpt lat="42.269497738106246" lon="14.035929150907343"><ele>248.0</ele><time>2026-05-03T11:59:28.001Z</time></trkpt><trkpt lat="42.26956222142172" lon="14.035971392613305"><ele>248.00000000000003</ele><time>2026-05-03T11:59:29.001Z</time></trkpt><trkpt lat="42.269629799522185" lon="14.03601578120891"><ele>248.0</ele><time>2026-05-03T11:59:30.001Z</time></trkpt><trkpt lat="42.26970405937076" lon="14.036038566126633"><ele>248.0</ele><time>2026-05-03T11:59:31.001Z</time></trkpt><trkpt lat="42.269770515137516" lon="14.036056944336043"><ele>250.16666666666669</ele><time>2026-05-03T11:59:32.001Z</time></trkpt><trkpt lat="42.26985053791435" lon="14.036074886595355"><ele>252.33333333333334</ele><time>2026-05-03T11:59:34.001Z</time></trkpt><trkpt lat="42.26993870780925" lon="14.03610777065793"><ele>254.5</ele><time>2026-05-03T11:59:47.001Z</time></trkpt><trkpt lat="42.27004290257496" lon="14.036149570133722"><ele>256.6666666666667</ele><time>2026-05-03T11:59:49.001Z</time></trkpt><trkpt lat="42.27010240145325" lon="14.036178096382878"><ele>258.8333333333333</ele><time>2026-05-03T11:59:50.001Z</time></trkpt><trkpt lat="42.27017490957555" lon="14.036191698613782"><ele>261.0</ele><time>2026-05-03T11:59:51.001Z</time></trkpt><trkpt lat="42.270290983310254" lon="14.036174935932607"><ele>261.0</ele><time>2026-05-03T11:59:53.001Z</time></trkpt><trkpt lat="42.27040776000396" lon="14.036115370270398"><ele>261.0</ele><time>2026-05-03T11:59:55.001Z</time></trkpt><trkpt lat="42.270471786846514" lon="14.036076329098384"><ele>261.0</ele><time>2026-05-03T11:59:56.001Z</time></trkpt><trkpt lat="42.2705751202412" lon="14.036045152579488"><ele>261.0</ele><time>2026-05-03T11:59:58.001Z</time></trkpt><trkpt lat="42.2706757337408" lon="14.03606233425869"><ele>261.0</ele><time>2026-05-03T12:00:00.001Z</time></trkpt><trkpt lat="42.27079242178767" lon="14.036097775703524"><ele>259.8571428571429</ele><time>2026-05-03T12:00:02.001Z</time></trkpt><trkpt lat="42.27085654185117" lon="14.03611739647874"><ele>258.7142857142857</ele><time>2026-05-03T12:00:03.001Z</time></trkpt><trkpt lat="42.27092437479405" lon="14.036140055557693"><ele>257.57142857142856</ele><time>2026-05-03T12:00:04.001Z</time></trkpt><trkpt lat="42.27099298588437" lon="14.036159414892639"><ele>256.42857142857144</ele><time>2026-05-03T12:00:05.001Z</time></trkpt><trkpt lat="42.27106173776802" lon="14.036178312082505"><ele>255.28571428571428</ele><time>2026-05-03T12:00:06.001Z</time></trkpt><trkpt lat="42.271133664980134" lon="14.036199787224904"><ele>254.14285714285717</ele><time>2026-05-03T12:00:08.001Z</time></trkpt><trkpt lat="42.27120418884294" lon="14.036195715705352"><ele>253.00000000000003</ele><time>2026-05-03T12:00:16.001Z</time></trkpt><trkpt lat="42.27125231970385" lon="14.03611692022"><ele>253.0</ele><time>2026-05-03T12:00:21.001Z</time></trkpt><trkpt lat="42.27125308821948" lon="14.035984052497538"><ele>253.0</ele><time>2026-05-03T12:00:23.001Z</time></trkpt><trkpt lat="42.271302679536355" lon="14.035879760878805"><ele>253.0</ele><time>2026-05-03T12:00:25.001Z</time></trkpt><trkpt lat="42.271334701471886" lon="14.03574146620938"><ele>253.0</ele><time>2026-05-03T12:00:27.001Z</time></trkpt><trkpt lat="42.27134044467931" lon="14.035578742857517"><ele>253.0</ele><time>2026-05-03T12:00:29.002Z</time></trkpt><trkpt lat="42.27132057355841" lon="14.035410287386604"><ele>254.66666666666666</ele><time>2026-05-03T12:00:31.002Z</time></trkpt><trkpt lat="42.27130820052815" lon="14.035322263102593"><ele>256.3333333333333</ele><time>2026-05-03T12:00:32.002Z</time></trkpt><trkpt lat="42.27130852744105" lon="14.035212167331316"><ele>258.0</ele><time>2026-05-03T12:00:33.002Z</time></trkpt><trkpt lat="42.271346822570116" lon="14.035041906263425"><ele>259.6666666666667</ele><time>2026-05-03T12:00:35.002Z</time></trkpt><trkpt lat="42.271375568784926" lon="14.03494815940856"><ele>261.33333333333337</ele><time>2026-05-03T12:00:36.002Z</time></trkpt><trkpt lat="42.27140533633343" lon="14.034855470868466"><ele>263.0</ele><time>2026-05-03T12:00:37.002Z</time></trkpt><trkpt lat="42.2714379454263" lon="14.034776693497374"><ele>261.5</ele><time>2026-05-03T12:00:38.002Z</time></trkpt><trkpt lat="42.271461303484195" lon="14.034694897936724"><ele>260.0</ele><time>2026-05-03T12:00:39.002Z</time></trkpt><trkpt lat="42.27148692518224" lon="14.03458942933168"><ele>258.5</ele><time>2026-05-03T12:00:40.002Z</time></trkpt><trkpt lat="42.271511633597505" lon="14.03449640961138"><ele>257.0</ele><time>2026-05-03T12:00:41.002Z</time></trkpt><trkpt lat="42.27153174835184" lon="14.034390923199528"><ele>255.50000000000003</ele><time>2026-05-03T12:00:42Z</time></trkpt><trkpt lat="42.271555052672284" lon="14.034285985639704"><ele>254.0</ele><time>2026-05-03T12:00:43Z</time></trkpt><trkpt lat="42.271576536508135" lon="14.034172244506237"><ele>256.1666666666667</ele><time>2026-05-03T12:00:44Z</time></trkpt><trkpt lat="42.27158706425828" lon="14.034076478259053"><ele>258.33333333333337</ele><time>2026-05-03T12:00:45Z</time></trkpt><trkpt lat="42.271593964500966" lon="14.033978011537425"><ele>260.5</ele><time>2026-05-03T12:00:46Z</time></trkpt><trkpt lat="42.27161509753451" lon="14.033889887553087"><ele>262.6666666666667</ele><time>2026-05-03T12:00:47Z</time></trkpt><trkpt lat="42.271641823919694" lon="14.033792865070156"><ele>264.8333333333333</ele><time>2026-05-03T12:00:48Z</time></trkpt><trkpt lat="42.27167730855467" lon="14.033696080952128"><ele>267.0</ele><time>2026-05-03T12:00:49Z</time></trkpt><trkpt lat="42.27170738608364" lon="14.033594392266092"><ele>267.0</ele><time>2026-05-03T12:00:50Z</time></trkpt><trkpt lat="42.27172887969305" lon="14.03348488017979"><ele>267.0</ele><time>2026-05-03T12:00:51Z</time></trkpt><trkpt lat="42.27174763635521" lon="14.033382300050656"><ele>267.0</ele><time>2026-05-03T12:00:52Z</time></trkpt><trkpt lat="42.271749484600775" lon="14.033277279658206"><ele>267.0</ele><time>2026-05-03T12:00:53Z</time></trkpt><trkpt lat="42.27173021819152" lon="14.033183354178673"><ele>267.0</ele><time>2026-05-03T12:00:54Z</time></trkpt><trkpt lat="42.2717148905867" lon="14.03308535534354"><ele>267.0</ele><time>2026-05-03T12:00:55Z</time></trkpt><trkpt lat="42.271710550727036" lon="14.032986813369012"><ele>269.6</ele><time>2026-05-03T12:00:56Z</time></trkpt><trkpt lat="42.271729048815764" lon="14.032904541502793"><ele>272.2</ele><time>2026-05-03T12:00:57Z</time></trkpt><trkpt lat="42.271834779677725" lon="14.032841099926687"><ele>274.8</ele><time>2026-05-03T12:00:59Z</time></trkpt><trkpt lat="42.271936070950346" lon="14.032815459813008"><ele>277.4</ele><time>2026-05-03T12:01:01Z</time></trkpt><trkpt lat="42.27194028369266" lon="14.032695188334811"><ele>280.0</ele><time>2026-05-03T12:01:03Z</time></trkpt><trkpt lat="42.27192420891457" lon="14.032525538897518"><ele>281.66666666666663</ele><time>2026-05-03T12:01:05Z</time></trkpt><trkpt lat="42.27194907550978" lon="14.03242724867443"><ele>283.3333333333333</ele><time>2026-05-03T12:01:06Z</time></trkpt><trkpt lat="42.27198182028875" lon="14.032319319509512"><ele>285.0</ele><time>2026-05-03T12:01:07Z</time></trkpt><trkpt lat="42.271996048067045" lon="14.032193818190764"><ele>286.6666666666667</ele><time>2026-05-03T12:01:08Z</time></trkpt><trkpt lat="42.27200667000498" lon="14.032089955114458"><ele>288.33333333333337</ele><time>2026-05-03T12:01:09Z</time></trkpt><trkpt lat="42.27202213685724" lon="14.0319789447098"><ele>290.0</ele><time>2026-05-03T12:01:10Z</time></trkpt><trkpt lat="42.272043372717086" lon="14.031881692412176"><ele>290.0</ele><time>2026-05-03T12:01:11Z</time></trkpt><trkpt lat="42.27205203681963" lon="14.031791629175116"><ele>290.0</ele><time>2026-05-03T12:01:12Z</time></trkpt><trkpt lat="42.272056439278" lon="14.031663993350964"><ele>290.0</ele><time>2026-05-03T12:01:13Z</time></trkpt><trkpt lat="42.2720670196479" lon="14.031554983781739"><ele>290.0</ele><time>2026-05-03T12:01:14Z</time></trkpt><trkpt lat="42.272101544911045" lon="14.031405589210198"><ele>290.0</ele><time>2026-05-03T12:01:16Z</time></trkpt><trkpt lat="42.27211907773117" lon="14.031320888760483"><ele>290.0</ele><time>2026-05-03T12:01:17Z</time></trkpt><trkpt lat="42.272140504113274" lon="14.0312379996637"><ele>289.83333333333337</ele><time>2026-05-03T12:01:18Z</time></trkpt><trkpt lat="42.272172790127" lon="14.031089615296217"><ele>289.6666666666667</ele><time>2026-05-03T12:01:20Z</time></trkpt><trkpt lat="42.272187201254546" lon="14.030982199156945"><ele>289.5</ele><time>2026-05-03T12:01:22Z</time></trkpt><trkpt lat="42.272209700518694" lon="14.030894163876093"><ele>289.3333333333333</ele><time>2026-05-03T12:01:24Z</time></trkpt><trkpt lat="42.27230013849153" lon="14.030855488323063"><ele>289.16666666666663</ele><time>2026-05-03T12:01:26Z</time></trkpt><trkpt lat="42.272382576894685" lon="14.03083600166943"><ele>289.0</ele><time>2026-05-03T12:01:27Z</time></trkpt><trkpt lat="42.27246738278906" lon="14.030837110776602"><ele>289.0</ele><time>2026-05-03T12:01:28Z</time></trkpt><trkpt lat="42.27253825130033" lon="14.030827623433566"><ele>289.0</ele><time>2026-05-03T12:01:29Z</time></trkpt><trkpt lat="42.27260798270606" lon="14.030847985730308"><ele>289.0</ele><time>2026-05-03T12:01:30Z</time></trkpt><trkpt lat="42.272666683376386" lon="14.030812488914828"><ele>289.0</ele><time>2026-05-03T12:01:31Z</time></trkpt><trkpt lat="42.27276201392117" lon="14.030807551083386"><ele>289.0</ele><time>2026-05-03T12:01:33Z</time></trkpt><trkpt lat="42.27286269560872" lon="14.030790760051147"><ele>289.0</ele><time>2026-05-03T12:01:35Z</time></trkpt><trkpt lat="42.27294594765988" lon="14.03078595542645"><ele>287.4</ele><time>2026-05-03T12:01:36Z</time></trkpt><trkpt lat="42.27304611639228" lon="14.030781595293458"><ele>285.79999999999995</ele><time>2026-05-03T12:01:37Z</time></trkpt><trkpt lat="42.27314857841681" lon="14.030787506115"><ele>284.20000000000005</ele><time>2026-05-03T12:01:38.001Z</time></trkpt><trkpt lat="42.27324615977871" lon="14.03081837599505"><ele>282.6</ele><time>2026-05-03T12:01:39.001Z</time></trkpt><trkpt lat="42.273353969787756" lon="14.030865788298934"><ele>281.0</ele><time>2026-05-03T12:01:40.001Z</time></trkpt><trkpt lat="42.27347636801439" lon="14.030926583089968"><ele>281.0</ele><time>2026-05-03T12:01:41.001Z</time></trkpt><trkpt lat="42.27359402710361" lon="14.031002138019929"><ele>281.0</ele><time>2026-05-03T12:01:42.001Z</time></trkpt><trkpt lat="42.273717068848704" lon="14.03111084634129"><ele>281.0</ele><time>2026-05-03T12:01:43.001Z</time></trkpt><trkpt lat="42.27383777907398" lon="14.031234426130405"><ele>281.0</ele><time>2026-05-03T12:01:44.001Z</time></trkpt><trkpt lat="42.27395858961549" lon="14.031368320417954"><ele>280.25</ele><time>2026-05-03T12:01:45.001Z</time></trkpt><trkpt lat="42.27407331972424" lon="14.031490376630304"><ele>279.5</ele><time>2026-05-03T12:01:46.001Z</time></trkpt><trkpt lat="42.27417551941249" lon="14.031597147410583"><ele>278.75</ele><time>2026-05-03T12:01:47.001Z</time></trkpt><trkpt lat="42.274269756008614" lon="14.03167477106444"><ele>278.0</ele><time>2026-05-03T12:01:48.001Z</time></trkpt><trkpt lat="42.27437329775852" lon="14.03172154796155"><ele>278.0</ele><time>2026-05-03T12:01:49.001Z</time></trkpt><trkpt lat="42.27449401325223" lon="14.031719201823758"><ele>278.0</ele><time>2026-05-03T12:01:50.001Z</time></trkpt><trkpt lat="42.27462687550575" lon="14.031673068289358"><ele>278.0</ele><time>2026-05-03T12:01:51.001Z</time></trkpt><trkpt lat="42.27477390723552" lon="14.031598808639872"><ele>278.0</ele><time>2026-05-03T12:01:52.001Z</time></trkpt><trkpt lat="42.27493591451788" lon="14.03152855349244"><ele>267.33333333333337</ele><time>2026-05-03T12:01:53.001Z</time></trkpt><trkpt lat="42.2751009933443" lon="14.0314641780226"><ele>256.6666666666667</ele><time>2026-05-03T12:01:54.001Z</time></trkpt><trkpt lat="42.27525221967537" lon="14.031385705304308"><ele>246.0</ele><time>2026-05-03T12:01:55.001Z</time></trkpt><trkpt lat="42.27540325333442" lon="14.031299348292924"><ele>246.0</ele><time>2026-05-03T12:01:56.001Z</time></trkpt><trkpt lat="42.27555159700879" lon="14.03121297008887"><ele>246.0</ele><time>2026-05-03T12:01:57.001Z</time></trkpt><trkpt lat="42.275693236166184" lon="14.031132659822585"><ele>246.0</ele><time>2026-05-03T12:01:58.001Z</time></trkpt><trkpt lat="42.27583673494047" lon="14.031060937016422"><ele>247.5</ele><time>2026-05-03T12:01:59.001Z</time></trkpt><trkpt lat="42.275968277009625" lon="14.031001144351139"><ele>249.0</ele><time>2026-05-03T12:02:00.001Z</time></trkpt><trkpt lat="42.27607788132668" lon="14.030962517112014"><ele>250.5</ele><time>2026-05-03T12:02:01.001Z</time></trkpt><trkpt lat="42.27618488567448" lon="14.030955093866194"><ele>252.0</ele><time>2026-05-03T12:02:02.001Z</time></trkpt><trkpt lat="42.27630516743463" lon="14.031002377417506"><ele>252.0</ele><time>2026-05-03T12:02:03.001Z</time></trkpt><trkpt lat="42.2764246737176" lon="14.031102558382575"><ele>252.0</ele><time>2026-05-03T12:02:04.001Z</time></trkpt><trkpt lat="42.27653205422706" lon="14.03126064379536"><ele>252.0</ele><time>2026-05-03T12:02:05.001Z</time></trkpt><trkpt lat="42.276642976848215" lon="14.031439515334917"><ele>253.0</ele><time>2026-05-03T12:02:06.001Z</time></trkpt><trkpt lat="42.27674499766723" lon="14.031623072685115"><ele>254.0</ele><time>2026-05-03T12:02:07.001Z</time></trkpt><trkpt lat="42.276851548521634" lon="14.03181300416435"><ele>255.0</ele><time>2026-05-03T12:02:08.001Z</time></trkpt><trkpt lat="42.276951334079456" lon="14.032017327588314"><ele>255.0</ele><time>2026-05-03T12:02:09.001Z</time></trkpt><trkpt lat="42.277059262175804" lon="14.032198000641861"><ele>255.0</ele><time>2026-05-03T12:02:10.001Z</time></trkpt><trkpt lat="42.27718139100252" lon="14.032362745711303"><ele>255.0</ele><time>2026-05-03T12:02:11.001Z</time></trkpt><trkpt lat="42.27730317522794" lon="14.032528600764241"><ele>249.33333333333331</ele><time>2026-05-03T12:02:12.001Z</time></trkpt><trkpt lat="42.27740301683924" lon="14.032693028897528"><ele>243.66666666666666</ele><time>2026-05-03T12:02:13.001Z</time></trkpt><trkpt lat="42.27751852923425" lon="14.032872646040301"><ele>238.0</ele><time>2026-05-03T12:02:14.001Z</time></trkpt><trkpt lat="42.277626570454416" lon="14.033035484467462"><ele>238.0</ele><time>2026-05-03T12:02:15.001Z</time></trkpt><trkpt lat="42.27772792575592" lon="14.03318585588658"><ele>238.0</ele><time>2026-05-03T12:02:16.001Z</time></trkpt><trkpt lat="42.277821882115376" lon="14.033330170026595"><ele>238.0</ele><time>2026-05-03T12:02:17.001Z</time></trkpt><trkpt lat="42.27791003362083" lon="14.033468886671598"><ele>238.0</ele><time>2026-05-03T12:02:18.001Z</time></trkpt><trkpt lat="42.27798194123957" lon="14.033606826943284"><ele>239.5</ele><time>2026-05-03T12:02:19.001Z</time></trkpt><trkpt lat="42.278052541198264" lon="14.033751843693521"><ele>241.0</ele><time>2026-05-03T12:02:20.001Z</time></trkpt><trkpt lat="42.27813447873103" lon="14.03392166474737"><ele>242.5</ele><time>2026-05-03T12:02:21.001Z</time></trkpt><trkpt lat="42.27822398031625" lon="14.03411648182085"><ele>244.0</ele><time>2026-05-03T12:02:22.001Z</time></trkpt><trkpt lat="42.27830946494529" lon="14.034305186738756"><ele>239.33333333333331</ele><time>2026-05-03T12:02:23.001Z</time></trkpt><trkpt lat="42.278394541268625" lon="14.034490891469451"><ele>234.66666666666669</ele><time>2026-05-03T12:02:24.001Z</time></trkpt><trkpt lat="42.27847488324495" lon="14.034672683387091"><ele>230.0</ele><time>2026-05-03T12:02:25.001Z</time></trkpt><trkpt lat="42.278549394235625" lon="14.034838694831189"><ele>230.66666666666669</ele><time>2026-05-03T12:02:26.001Z</time></trkpt><trkpt lat="42.278641905166076" lon="14.034982884953388"><ele>231.33333333333331</ele><time>2026-05-03T12:02:27.001Z</time></trkpt><trkpt lat="42.27876856984554" lon="14.035118272376563"><ele>232.0</ele><time>2026-05-03T12:02:28.001Z</time></trkpt><trkpt lat="42.27890972897516" lon="14.035259138760006"><ele>228.66666666666666</ele><time>2026-05-03T12:02:29.001Z</time></trkpt><trkpt lat="42.27903472355544" lon="14.035413753212474"><ele>225.33333333333331</ele><time>2026-05-03T12:02:30.001Z</time></trkpt><trkpt lat="42.27914625394166" lon="14.035581277226592"><ele>222.0</ele><time>2026-05-03T12:02:31.001Z</time></trkpt><trkpt lat="42.27923864615025" lon="14.035741669858714"><ele>222.66666666666669</ele><time>2026-05-03T12:02:32.001Z</time></trkpt><trkpt lat="42.27931831034366" lon="14.035920577664308"><ele>223.33333333333334</ele><time>2026-05-03T12:02:33.001Z</time></trkpt><trkpt lat="42.27939485434413" lon="14.036115610351924"><ele>224.0</ele><time>2026-05-03T12:02:34.001Z</time></trkpt><trkpt lat="42.27947561656737" lon="14.036311991925254"><ele>224.0</ele><time>2026-05-03T12:02:35.001Z</time></trkpt><trkpt lat="42.27956558245438" lon="14.036504147263635"><ele>224.0</ele><time>2026-05-03T12:02:36.001Z</time></trkpt><trkpt lat="42.27965495826538" lon="14.036690274915234"><ele>224.0</ele><time>2026-05-03T12:02:37.001Z</time></trkpt><trkpt lat="42.27974414071262" lon="14.036860613456971"><ele>223.0</ele><time>2026-05-03T12:02:38.001Z</time></trkpt><trkpt lat="42.27983705805367" lon="14.037037446041609"><ele>222.0</ele><time>2026-05-03T12:02:39.001Z</time></trkpt><trkpt lat="42.279924457581025" lon="14.037209863300838"><ele>221.0</ele><time>2026-05-03T12:02:40.001Z</time></trkpt><trkpt lat="42.28001112345328" lon="14.03738748564484"><ele>221.0</ele><time>2026-05-03T12:02:41.001Z</time></trkpt><trkpt lat="42.28008447212999" lon="14.037569322501833"><ele>221.0</ele><time>2026-05-03T12:02:42.001Z</time></trkpt><trkpt lat="42.28017175643068" lon="14.037747591484097"><ele>221.0</ele><time>2026-05-03T12:02:43.002Z</time></trkpt><trkpt lat="42.28026680729531" lon="14.037923165596261"><ele>221.0</ele><time>2026-05-03T12:02:44.002Z</time></trkpt><trkpt lat="42.280376368758745" lon="14.03810122950011"><ele>221.0</ele><time>2026-05-03T12:02:45.002Z</time></trkpt><trkpt lat="42.280494570785095" lon="14.038275902316773"><ele>221.0</ele><time>2026-05-03T12:02:46.002Z</time></trkpt><trkpt lat="42.2806138235479" lon="14.038445417582771"><ele>218.33333333333334</ele><time>2026-05-03T12:02:47.002Z</time></trkpt><trkpt lat="42.280728556013734" lon="14.038604727071517"><ele>215.66666666666669</ele><time>2026-05-03T12:02:48Z</time></trkpt><trkpt lat="42.28084198720469" lon="14.038757153267985"><ele>213.0</ele><time>2026-05-03T12:02:49Z</time></trkpt><trkpt lat="42.28095581146631" lon="14.038898288566603"><ele>213.0</ele><time>2026-05-03T12:02:50Z</time></trkpt><trkpt lat="42.281080773908414" lon="14.039030521375446"><ele>213.0</ele><time>2026-05-03T12:02:51Z</time></trkpt><trkpt lat="42.2812259976782" lon="14.039154204733965"><ele>213.0</ele><time>2026-05-03T12:02:52Z</time></trkpt><trkpt lat="42.281387232542066" lon="14.039267520784609"><ele>212.66666666666669</ele><time>2026-05-03T12:02:53Z</time></trkpt><trkpt lat="42.28154523054325" lon="14.03936176622384"><ele>212.33333333333334</ele><time>2026-05-03T12:02:54Z</time></trkpt><trkpt lat="42.281699923373125" lon="14.039438697012109"><ele>212.0</ele><time>2026-05-03T12:02:55Z</time></trkpt><trkpt lat="42.281850741721634" lon="14.039508632403185"><ele>212.0</ele><time>2026-05-03T12:02:56Z</time></trkpt><trkpt lat="42.28198801549945" lon="14.03958499465263"><ele>212.0</ele><time>2026-05-03T12:02:57Z</time></trkpt><trkpt lat="42.28211582866243" lon="14.039686399829678"><ele>212.0</ele><time>2026-05-03T12:02:58Z</time></trkpt><trkpt lat="42.282236149574004" lon="14.039808448235982"><ele>212.0</ele><time>2026-05-03T12:02:59Z</time></trkpt><trkpt lat="42.28235472862293" lon="14.039948535779404"><ele>210.66666666666669</ele><time>2026-05-03T12:03:00Z</time></trkpt><trkpt lat="42.28246663252933" lon="14.040096339998422"><ele>209.33333333333331</ele><time>2026-05-03T12:03:01Z</time></trkpt><trkpt lat="42.28257424419928" lon="14.040239612236476"><ele>208.0</ele><time>2026-05-03T12:03:02Z</time></trkpt><trkpt lat="42.282672109835175" lon="14.040386005847795"><ele>208.0</ele><time>2026-05-03T12:03:03Z</time></trkpt><trkpt lat="42.28276468219371" lon="14.040529404761216"><ele>208.0</ele><time>2026-05-03T12:03:04Z</time></trkpt><trkpt lat="42.28285359538927" lon="14.040685090298958"><ele>208.0</ele><time>2026-05-03T12:03:05Z</time></trkpt><trkpt lat="42.2829185402896" lon="14.040858054413054"><ele>208.0</ele><time>2026-05-03T12:03:06Z</time></trkpt><trkpt lat="42.28295511560599" lon="14.041045933350242"><ele>207.0</ele><time>2026-05-03T12:03:07Z</time></trkpt><trkpt lat="42.282994626070725" lon="14.041219280778664"><ele>206.0</ele><time>2026-05-03T12:03:08Z</time></trkpt><trkpt lat="42.2830529831689" lon="14.041353178510422"><ele>205.0</ele><time>2026-05-03T12:03:09Z</time></trkpt><trkpt lat="42.28313091887073" lon="14.041457979861907"><ele>204.0</ele><time>2026-05-03T12:03:10Z</time></trkpt><trkpt lat="42.28323703613758" lon="14.041522972321571"><ele>204.0</ele><time>2026-05-03T12:03:11Z</time></trkpt><trkpt lat="42.28337413639841" lon="14.041549619683835"><ele>204.0</ele><time>2026-05-03T12:03:12Z</time></trkpt><trkpt lat="42.28352542549609" lon="14.041561229254574"><ele>204.0</ele><time>2026-05-03T12:03:13Z</time></trkpt><trkpt lat="42.28367731965792" lon="14.041565272893436"><ele>204.0</ele><time>2026-05-03T12:03:14Z</time></trkpt><trkpt lat="42.28381766234269" lon="14.041613074432986"><ele>201.75</ele><time>2026-05-03T12:03:15Z</time></trkpt><trkpt lat="42.28395669937918" lon="14.04165299854495"><ele>199.5</ele><time>2026-05-03T12:03:16Z</time></trkpt><trkpt lat="42.28410662237751" lon="14.041690852842576"><ele>197.25</ele><time>2026-05-03T12:03:17Z</time></trkpt><trkpt lat="42.28425281822437" lon="14.041759305246297"><ele>195.0</ele><time>2026-05-03T12:03:18Z</time></trkpt><trkpt lat="42.28440234646181" lon="14.04181779852372"><ele>195.0</ele><time>2026-05-03T12:03:19Z</time></trkpt><trkpt lat="42.284555953326034" lon="14.041872835537738"><ele>195.0</ele><time>2026-05-03T12:03:20Z</time></trkpt><trkpt lat="42.284711919956315" lon="14.041932231557741"><ele>195.0</ele><time>2026-05-03T12:03:21Z</time></trkpt><trkpt lat="42.28486289243524" lon="14.041988345266606"><ele>192.75</ele><time>2026-05-03T12:03:22Z</time></trkpt><trkpt lat="42.285001765993194" lon="14.04203880154234"><ele>190.5</ele><time>2026-05-03T12:03:23Z</time></trkpt><trkpt lat="42.28513667440888" lon="14.042091147360871"><ele>188.25</ele><time>2026-05-03T12:03:24Z</time></trkpt><trkpt lat="42.285276146427464" lon="14.042149997776944"><ele>186.0</ele><time>2026-05-03T12:03:25Z</time></trkpt><trkpt lat="42.285424823976456" lon="14.042204586685186"><ele>186.0</ele><time>2026-05-03T12:03:26Z</time></trkpt><trkpt lat="42.28558563758519" lon="14.042239157021292"><ele>186.0</ele><time>2026-05-03T12:03:27Z</time></trkpt><trkpt lat="42.28575445703202" lon="14.042260953936598"><ele>186.0</ele><time>2026-05-03T12:03:28Z</time></trkpt><trkpt lat="42.28591525402568" lon="14.042278874190044"><ele>185.0</ele><time>2026-05-03T12:03:29Z</time></trkpt><trkpt lat="42.286073672978674" lon="14.04230680788214"><ele>184.0</ele><time>2026-05-03T12:03:30Z</time></trkpt><trkpt lat="42.28622149887924" lon="14.042336123272346"><ele>183.0</ele><time>2026-05-03T12:03:31Z</time></trkpt><trkpt lat="42.28637202152375" lon="14.042376532528719"><ele>181.33333333333334</ele><time>2026-05-03T12:03:32Z</time></trkpt><trkpt lat="42.286540089551146" lon="14.042425505954387"><ele>179.66666666666669</ele><time>2026-05-03T12:03:33Z</time></trkpt><trkpt lat="42.286718857824596" lon="14.042479260712609"><ele>178.0</ele><time>2026-05-03T12:03:34Z</time></trkpt><trkpt lat="42.28689372226762" lon="14.042531758085989"><ele>175.33333333333334</ele><time>2026-05-03T12:03:35.001Z</time></trkpt><trkpt lat="42.28706307791628" lon="14.042587836917466"><ele>172.66666666666666</ele><time>2026-05-03T12:03:36.001Z</time></trkpt><trkpt lat="42.287231709546084" lon="14.042638673742623"><ele>170.0</ele><time>2026-05-03T12:03:37.001Z</time></trkpt><trkpt lat="42.28739829536469" lon="14.04268367721326"><ele>168.66666666666666</ele><time>2026-05-03T12:03:38.001Z</time></trkpt><trkpt lat="42.28757492888284" lon="14.042721922443667"><ele>167.33333333333334</ele><time>2026-05-03T12:03:39.001Z</time></trkpt><trkpt lat="42.28775152277697" lon="14.042751276735297"><ele>166.0</ele><time>2026-05-03T12:03:40.001Z</time></trkpt><trkpt lat="42.287929451722704" lon="14.042773501539507"><ele>163.33333333333334</ele><time>2026-05-03T12:03:41.001Z</time></trkpt><trkpt lat="42.288101879126025" lon="14.042789466642114"><ele>160.66666666666666</ele><time>2026-05-03T12:03:42.001Z</time></trkpt><trkpt lat="42.288283734128896" lon="14.042797050051462"><ele>158.0</ele><time>2026-05-03T12:03:43.001Z</time></trkpt><trkpt lat="42.288465867279186" lon="14.042823559147118"><ele>158.0</ele><time>2026-05-03T12:03:44.001Z</time></trkpt><trkpt lat="42.288652656189655" lon="14.042815032266843"><ele>158.0</ele><time>2026-05-03T12:03:45.001Z</time></trkpt><trkpt lat="42.28882228067863" lon="14.042778718966618"><ele>158.0</ele><time>2026-05-03T12:03:46.001Z</time></trkpt><trkpt lat="42.28894682096267" lon="14.042772799670244"><ele>156.5</ele><time>2026-05-03T12:03:47.001Z</time></trkpt><trkpt lat="42.28904655975412" lon="14.042771734904736"><ele>155.0</ele><time>2026-05-03T12:03:48.001Z</time></trkpt><trkpt lat="42.289127266163" lon="14.042793140914315"><ele>153.5</ele><time>2026-05-03T12:03:49.001Z</time></trkpt><trkpt lat="42.28919065932292" lon="14.04279778340776"><ele>152.0</ele><time>2026-05-03T12:03:50.001Z</time></trkpt><trkpt lat="42.28929085046622" lon="14.042829984213132"><ele>150.5</ele><time>2026-05-03T12:03:52.001Z</time></trkpt><trkpt lat="42.28933581175556" lon="14.042898816437079"><ele>149.0</ele><time>2026-05-03T12:04:30.001Z</time></trkpt><trkpt lat="42.289302933166226" lon="14.042982487311741"><ele>149.0</ele><time>2026-05-03T12:04:34.001Z</time></trkpt><trkpt lat="42.289244329779635" lon="14.043023092908815"><ele>149.0</ele><time>2026-05-03T12:04:37.002Z</time></trkpt><trkpt lat="42.2891028054744" lon="14.043206727857747"><ele>149.0</ele><time>2026-05-03T12:04:40.002Z</time></trkpt><trkpt lat="42.289043544404265" lon="14.043109233745579"><ele>149.0</ele><time>2026-05-03T12:04:41.002Z</time></trkpt><trkpt lat="42.28909706721321" lon="14.043229185581735"><ele>149.0</ele><time>2026-05-03T12:04:47.002Z</time></trkpt><trkpt lat="42.28922377359941" lon="14.043263235407217"><ele>149.0</ele><time>2026-05-03T12:04:49.002Z</time></trkpt><trkpt lat="42.28929758392334" lon="14.043274987666345"><ele>149.0</ele><time>2026-05-03T12:04:50.002Z</time></trkpt><trkpt lat="42.28938190724815" lon="14.043274718330801"><ele>149.0</ele><time>2026-05-03T12:04:51.002Z</time></trkpt><trkpt lat="42.289480971519666" lon="14.043278253802882"><ele>149.0</ele><time>2026-05-03T12:04:52.002Z</time></trkpt><trkpt lat="42.28961126313049" lon="14.043243877386569"><ele>149.0</ele><time>2026-05-03T12:04:53.002Z</time></trkpt><trkpt lat="42.28973675637296" lon="14.043199846875606"><ele>149.0</ele><time>2026-05-03T12:04:54Z</time></trkpt><trkpt lat="42.28985688391746" lon="14.043154324841403"><ele>149.0</ele><time>2026-05-03T12:04:55Z</time></trkpt><trkpt lat="42.289984058367274" lon="14.043106391595925"><ele>149.0</ele><time>2026-05-03T12:04:56Z</time></trkpt><trkpt lat="42.29011683103292" lon="14.043057121461944"><ele>146.4</ele><time>2026-05-03T12:04:57Z</time></trkpt><trkpt lat="42.29024762732824" lon="14.043024581961308"><ele>143.8</ele><time>2026-05-03T12:04:58Z</time></trkpt><trkpt lat="42.2903518956841" lon="14.042984240156382"><ele>141.2</ele><time>2026-05-03T12:04:59Z</time></trkpt><trkpt lat="42.290431765271" lon="14.043001738072297"><ele>138.6</ele><time>2026-05-03T12:05:00Z</time></trkpt><trkpt lat="42.29052675580173" lon="14.043010861524342"><ele>136.0</ele><time>2026-05-03T12:05:02Z</time></trkpt><trkpt lat="42.29051570362728" lon="14.043174944384335"><ele>136.0</ele><time>2026-05-03T12:05:04Z</time></trkpt><trkpt lat="42.29048921102748" lon="14.043253351152526"><ele>136.0</ele><time>2026-05-03T12:05:05Z</time></trkpt><trkpt lat="42.29035317231344" lon="14.043284679183806"><ele>136.0</ele><time>2026-05-03T12:05:06Z</time></trkpt><trkpt lat="42.29025421085936" lon="14.043347958219181"><ele>136.0</ele><time>2026-05-03T12:05:07Z</time></trkpt><trkpt lat="42.29015686248957" lon="14.043438629820544"><ele>136.0</ele><time>2026-05-03T12:05:08Z</time></trkpt><trkpt lat="42.290066901547206" lon="14.04353126435863"><ele>132.2</ele><time>2026-05-03T12:05:09Z</time></trkpt><trkpt lat="42.28999576530511" lon="14.043628829051233"><ele>128.39999999999998</ele><time>2026-05-03T12:05:10Z</time></trkpt><trkpt lat="42.289945321532194" lon="14.043708271171818"><ele>124.6</ele><time>2026-05-03T12:05:11Z</time></trkpt><trkpt lat="42.28993562968495" lon="14.043853695440532"><ele>120.8</ele><time>2026-05-03T12:05:13Z</time></trkpt><trkpt lat="42.29007176362923" lon="14.04390528293569"><ele>117.0</ele><time>2026-05-03T12:05:15Z</time></trkpt><trkpt lat="42.290137628441364" lon="14.043904656631993"><ele>117.0</ele><time>2026-05-03T12:05:16Z</time></trkpt><trkpt lat="42.29019772081081" lon="14.043971879555125"><ele>117.0</ele><time>2026-05-03T12:05:19Z</time></trkpt><trkpt lat="42.29013236245707" lon="14.044009070537925"><ele>117.0</ele><time>2026-05-03T12:05:20Z</time></trkpt><trkpt lat="42.290047494044956" lon="14.044030184991326"><ele>117.0</ele><time>2026-05-03T12:05:21Z</time></trkpt><trkpt lat="42.289956758157395" lon="14.044052519924868"><ele>117.0</ele><time>2026-05-03T12:05:22Z</time></trkpt><trkpt lat="42.28984836137064" lon="14.044092027697172"><ele>117.0</ele><time>2026-05-03T12:05:23Z</time></trkpt><trkpt lat="42.28971945040986" lon="14.044150256700686"><ele>114.25</ele><time>2026-05-03T12:05:24Z</time></trkpt><trkpt lat="42.28958277600126" lon="14.044213648131747"><ele>111.5</ele><time>2026-05-03T12:05:25Z</time></trkpt><trkpt lat="42.28945537391526" lon="14.044271299531674"><ele>108.75</ele><time>2026-05-03T12:05:26Z</time></trkpt><trkpt lat="42.289337677117906" lon="14.04430512087002"><ele>106.0</ele><time>2026-05-03T12:05:27Z</time></trkpt><trkpt lat="42.28922342640053" lon="14.044369546843813"><ele>106.0</ele><time>2026-05-03T12:05:28Z</time></trkpt><trkpt lat="42.289110327808714" lon="14.044428328123168"><ele>106.0</ele><time>2026-05-03T12:05:29Z</time></trkpt><trkpt lat="42.289004696584655" lon="14.044480109833884"><ele>106.0</ele><time>2026-05-03T12:05:30Z</time></trkpt><trkpt lat="42.288910211308554" lon="14.044556329468968"><ele>106.0</ele><time>2026-05-03T12:05:31Z</time></trkpt><trkpt lat="42.28883578174127" lon="14.044670572857653"><ele>105.5</ele><time>2026-05-03T12:05:32Z</time></trkpt><trkpt lat="42.28876321141371" lon="14.044799701125692"><ele>105.0</ele><time>2026-05-03T12:05:33.001Z</time></trkpt><trkpt lat="42.28868864917939" lon="14.044933099908024"><ele>104.5</ele><time>2026-05-03T12:05:34.001Z</time></trkpt><trkpt lat="42.28863412749973" lon="14.045055148222067"><ele>104.0</ele><time>2026-05-03T12:05:35.001Z</time></trkpt><trkpt lat="42.28857105153392" lon="14.045171679204007"><ele>104.0</ele><time>2026-05-03T12:05:36.001Z</time></trkpt><trkpt lat="42.288492205298624" lon="14.045266800739892"><ele>104.0</ele><time>2026-05-03T12:05:37.001Z</time></trkpt><trkpt lat="42.28839189218869" lon="14.045326680535727"><ele>104.0</ele><time>2026-05-03T12:05:38.001Z</time></trkpt><trkpt lat="42.28826994875066" lon="14.045333671373243"><ele>104.0</ele><time>2026-05-03T12:05:39.001Z</time></trkpt><trkpt lat="42.288133049915736" lon="14.04536990308698"><ele>107.25</ele><time>2026-05-03T12:05:40.001Z</time></trkpt><trkpt lat="42.2879832496042" lon="14.045378313591655"><ele>110.5</ele><time>2026-05-03T12:05:41.001Z</time></trkpt><trkpt lat="42.28783534942701" lon="14.04541420462205"><ele>113.75</ele><time>2026-05-03T12:05:42.001Z</time></trkpt><trkpt lat="42.28770479459864" lon="14.045468619416067"><ele>117.0</ele><time>2026-05-03T12:05:43.001Z</time></trkpt><trkpt lat="42.287591031665244" lon="14.045538313222066"><ele>117.0</ele><time>2026-05-03T12:05:44.001Z</time></trkpt><trkpt lat="42.287470460019684" lon="14.045615520836323"><ele>117.0</ele><time>2026-05-03T12:05:45.001Z</time></trkpt><trkpt lat="42.28734816530109" lon="14.045695187238573"><ele>117.0</ele><time>2026-05-03T12:05:46.001Z</time></trkpt><trkpt lat="42.28721927926047" lon="14.045755294478726"><ele>117.0</ele><time>2026-05-03T12:05:47.001Z</time></trkpt><trkpt lat="42.28709727834573" lon="14.045794935996929"><ele>114.19999999999999</ele><time>2026-05-03T12:05:48.001Z</time></trkpt><trkpt lat="42.28697696497033" lon="14.0458057032376"><ele>111.39999999999999</ele><time>2026-05-03T12:05:49.001Z</time></trkpt><trkpt lat="42.28687375398739" lon="14.045849458528476"><ele>108.6</ele><time>2026-05-03T12:05:50.001Z</time></trkpt><trkpt lat="42.2867799669294" lon="14.045872479034571"><ele>105.80000000000001</ele><time>2026-05-03T12:05:51.001Z</time></trkpt><trkpt lat="42.286716715982664" lon="14.045893044781796"><ele>103.0</ele><time>2026-05-03T12:05:52.001Z</time></trkpt><trkpt lat="42.28667487945966" lon="14.046016182905927"><ele>103.00000000000001</ele><time>2026-05-03T12:05:54.001Z</time></trkpt><trkpt lat="42.286693307952504" lon="14.046107275202539"><ele>103.0</ele><time>2026-05-03T12:05:55.001Z</time></trkpt><trkpt lat="42.28671841879686" lon="14.04618915676408"><ele>103.0</ele><time>2026-05-03T12:05:56.001Z</time></trkpt><trkpt lat="42.28675585676619" lon="14.046345951000406"><ele>103.0</ele><time>2026-05-03T12:05:58.001Z</time></trkpt><trkpt lat="42.28677537980973" lon="14.046427445943067"><ele>103.00000000000001</ele><time>2026-05-03T12:06:00.001Z</time></trkpt><trkpt lat="42.286672890084674" lon="14.04649108396306"><ele>103.0</ele><time>2026-05-03T12:06:01.001Z</time></trkpt><trkpt lat="42.286569165043545" lon="14.046540074513446"><ele>103.0</ele><time>2026-05-03T12:06:02.001Z</time></trkpt><trkpt lat="42.28645523594015" lon="14.046604486045002"><ele>103.0</ele><time>2026-05-03T12:06:03.001Z</time></trkpt><trkpt lat="42.28634218406839" lon="14.046670801417324"><ele>103.0</ele><time>2026-05-03T12:06:04.001Z</time></trkpt><trkpt lat="42.28621552086582" lon="14.046742293384956"><ele>103.0</ele><time>2026-05-03T12:06:05.001Z</time></trkpt><trkpt lat="42.28608395716932" lon="14.046822986443336"><ele>101.0</ele><time>2026-05-03T12:06:06.001Z</time></trkpt><trkpt lat="42.28594644025906" lon="14.04690549677386"><ele>99.0</ele><time>2026-05-03T12:06:07.001Z</time></trkpt><trkpt lat="42.2858118880482" lon="14.046983196794688"><ele>97.0</ele><time>2026-05-03T12:06:08.001Z</time></trkpt><trkpt lat="42.285685577919295" lon="14.047055772031593"><ele>95.0</ele><time>2026-05-03T12:06:09.001Z</time></trkpt><trkpt lat="42.285563241178025" lon="14.04712725593803"><ele>95.0</ele><time>2026-05-03T12:06:10.001Z</time></trkpt><trkpt lat="42.285452513086355" lon="14.047193597311129"><ele>95.0</ele><time>2026-05-03T12:06:11.001Z</time></trkpt><trkpt lat="42.285356999953464" lon="14.047245030757125"><ele>95.0</ele><time>2026-05-03T12:06:12.001Z</time></trkpt><trkpt lat="42.285264653407864" lon="14.047299458815806"><ele>95.0</ele><time>2026-05-03T12:06:13.001Z</time></trkpt><trkpt lat="42.28517111132059" lon="14.047345798590971"><ele>95.0</ele><time>2026-05-03T12:06:14.001Z</time></trkpt><trkpt lat="42.28507737048864" lon="14.047400891539647"><ele>95.0</ele><time>2026-05-03T12:06:15.001Z</time></trkpt><trkpt lat="42.284977729385176" lon="14.04745809116983"><ele>95.0</ele><time>2026-05-03T12:06:16.001Z</time></trkpt><trkpt lat="42.28487979446367" lon="14.047511269673631"><ele>95.0</ele><time>2026-05-03T12:06:17.001Z</time></trkpt><trkpt lat="42.28479215761117" lon="14.047551914041016"><ele>95.0</ele><time>2026-05-03T12:06:18.001Z</time></trkpt><trkpt lat="42.28472259122503" lon="14.047576585605873"><ele>95.0</ele><time>2026-05-03T12:06:19.001Z</time></trkpt><trkpt lat="42.28464631712295" lon="14.047607347629354"><ele>95.8</ele><time>2026-05-03T12:06:21.001Z</time></trkpt><trkpt lat="42.28474115374382" lon="14.047729422478028"><ele>96.6</ele><time>2026-05-03T12:06:23.001Z</time></trkpt><trkpt lat="42.28487611293258" lon="14.047678735412436"><ele>97.4</ele><time>2026-05-03T12:06:25.001Z</time></trkpt><trkpt lat="42.28495723160117" lon="14.047648576287592"><ele>98.2</ele><time>2026-05-03T12:06:26.001Z</time></trkpt><trkpt lat="42.28504053060395" lon="14.047632394150995"><ele>99.0</ele><time>2026-05-03T12:06:27.001Z</time></trkpt><trkpt lat="42.28512271010592" lon="14.047653196054323"><ele>99.33333333333333</ele><time>2026-05-03T12:06:28.001Z</time></trkpt><trkpt lat="42.285187050815615" lon="14.047720782627918"><ele>99.66666666666666</ele><time>2026-05-03T12:06:29.001Z</time></trkpt><trkpt lat="42.28524041471865" lon="14.047801291601813"><ele>100.0</ele><time>2026-05-03T12:06:30.001Z</time></trkpt><trkpt lat="42.28531664635819" lon="14.047870885058183"><ele>100.33333333333333</ele><time>2026-05-03T12:06:31.001Z</time></trkpt><trkpt lat="42.28540056447235" lon="14.047879864507342"><ele>100.66666666666666</ele><time>2026-05-03T12:06:32.001Z</time></trkpt><trkpt lat="42.285485239750756" lon="14.047837377475464"><ele>101.0</ele><time>2026-05-03T12:06:33.001Z</time></trkpt><trkpt lat="42.28556064172223" lon="14.04778217362881"><ele>102.0</ele><time>2026-05-03T12:06:34.001Z</time></trkpt><trkpt lat="42.285657118024076" lon="14.047698114546474"><ele>103.0</ele><time>2026-05-03T12:06:35.001Z</time></trkpt><trkpt lat="42.285775471707424" lon="14.047645335589285"><ele>104.0</ele><time>2026-05-03T12:06:36.001Z</time></trkpt><trkpt lat="42.28587693941436" lon="14.04758601591707"><ele>105.0</ele><time>2026-05-03T12:06:37.001Z</time></trkpt><trkpt lat="42.285993561694404" lon="14.047543480134836"><ele>105.0</ele><time>2026-05-03T12:06:38.001Z</time></trkpt><trkpt lat="42.28612038997219" lon="14.047520826147133"><ele>105.0</ele><time>2026-05-03T12:06:39.002Z</time></trkpt><trkpt lat="42.28623533281298" lon="14.047517997022121"><ele>105.0</ele><time>2026-05-03T12:06:40.002Z</time></trkpt><trkpt lat="42.2863399342244" lon="14.047541569989914"><ele>105.0</ele><time>2026-05-03T12:06:41.002Z</time></trkpt><trkpt lat="42.28644833410982" lon="14.047571924844952"><ele>106.25</ele><time>2026-05-03T12:06:42.002Z</time></trkpt><trkpt lat="42.28657177501849" lon="14.047647995162295"><ele>107.5</ele><time>2026-05-03T12:06:43.002Z</time></trkpt><trkpt lat="42.28668684319173" lon="14.047747833296757"><ele>108.75</ele><time>2026-05-03T12:06:44.002Z</time></trkpt><trkpt lat="42.286800965849665" lon="14.047848034325058"><ele>110.0</ele><time>2026-05-03T12:06:45.002Z</time></trkpt><trkpt lat="42.28692152609093" lon="14.047916307700543"><ele>110.0</ele><time>2026-05-03T12:06:46.002Z</time></trkpt><trkpt lat="42.28705724012351" lon="14.047953327845764"><ele>110.0</ele><time>2026-05-03T12:06:47.002Z</time></trkpt><trkpt lat="42.28720174432364" lon="14.047972448590105"><ele>110.0</ele><time>2026-05-03T12:06:48.002Z</time></trkpt><trkpt lat="42.287340402186985" lon="14.04798487987608"><ele>110.0</ele><time>2026-05-03T12:06:49.002Z</time></trkpt><trkpt lat="42.28748296144341" lon="14.047989101203783"><ele>109.0</ele><time>2026-05-03T12:06:50.002Z</time></trkpt><trkpt lat="42.28763754454922" lon="14.04796991542609"><ele>108.0</ele><time>2026-05-03T12:06:51.002Z</time></trkpt><trkpt lat="42.28778917349709" lon="14.047963409075598"><ele>107.0</ele><time>2026-05-03T12:06:52.002Z</time></trkpt><trkpt lat="42.28793645076356" lon="14.047923543576237"><ele>107.0</ele><time>2026-05-03T12:06:53.002Z</time></trkpt><trkpt lat="42.28805914523979" lon="14.047902226370088"><ele>107.0</ele><time>2026-05-03T12:06:54.002Z</time></trkpt><trkpt lat="42.28818332520195" lon="14.047899929848432"><ele>107.0</ele><time>2026-05-03T12:06:55.002Z</time></trkpt><trkpt lat="42.28832185233923" lon="14.047904160146276"><ele>107.0</ele><time>2026-05-03T12:06:56.002Z</time></trkpt><trkpt lat="42.28847622141198" lon="14.047905625849623"><ele>108.75</ele><time>2026-05-03T12:06:57.002Z</time></trkpt><trkpt lat="42.28862448268971" lon="14.047921837041537"><ele>110.5</ele><time>2026-05-03T12:06:58.002Z</time></trkpt><trkpt lat="42.28876951900264" lon="14.047931676489924"><ele>112.25</ele><time>2026-05-03T12:06:59.002Z</time></trkpt><trkpt lat="42.288908262597225" lon="14.047946532233162"><ele>114.0</ele><time>2026-05-03T12:07:00.001Z</time></trkpt><trkpt lat="42.28905014452929" lon="14.04797045622508"><ele>115.25</ele><time>2026-05-03T12:07:01.001Z</time></trkpt><trkpt lat="42.289195899717235" lon="14.047990084419965"><ele>116.5</ele><time>2026-05-03T12:07:02.001Z</time></trkpt><trkpt lat="42.28934007392081" lon="14.048011972661868"><ele>117.75</ele><time>2026-05-03T12:07:03.001Z</time></trkpt><trkpt lat="42.28947576543279" lon="14.048041123142344"><ele>119.0</ele><time>2026-05-03T12:07:04.001Z</time></trkpt><trkpt lat="42.28960748444594" lon="14.04808011570882"><ele>119.0</ele><time>2026-05-03T12:07:05.001Z</time></trkpt><trkpt lat="42.28973649136851" lon="14.04810112324341"><ele>119.0</ele><time>2026-05-03T12:07:06.001Z</time></trkpt><trkpt lat="42.28986465312404" lon="14.048123335201922"><ele>119.0</ele><time>2026-05-03T12:07:07.001Z</time></trkpt><trkpt lat="42.28999573247425" lon="14.048118629293171"><ele>119.0</ele><time>2026-05-03T12:07:08.001Z</time></trkpt><trkpt lat="42.29009930938814" lon="14.04814448404749"><ele>119.6</ele><time>2026-05-03T12:07:09.001Z</time></trkpt><trkpt lat="42.290179127753895" lon="14.048147376955535"><ele>120.2</ele><time>2026-05-03T12:07:10.001Z</time></trkpt><trkpt lat="42.29023659277803" lon="14.048212473791914"><ele>120.79999999999998</ele><time>2026-05-03T12:07:11.001Z</time></trkpt><trkpt lat="42.29027494384202" lon="14.048313086060194"><ele>121.39999999999999</ele><time>2026-05-03T12:07:12Z</time></trkpt><trkpt lat="42.29031670008192" lon="14.048439308617091"><ele>122.0</ele><time>2026-05-03T12:07:13Z</time></trkpt><trkpt lat="42.29036936201441" lon="14.048569952351645"><ele>124.5</ele><time>2026-05-03T12:07:14Z</time></trkpt><trkpt lat="42.290430464969326" lon="14.048746823883953"><ele>127.0</ele><time>2026-05-03T12:07:15Z</time></trkpt><trkpt lat="42.290507618459415" lon="14.048907447410796"><ele>129.5</ele><time>2026-05-03T12:07:16Z</time></trkpt><trkpt lat="42.290595629395035" lon="14.049052821980965"><ele>132.0</ele><time>2026-05-03T12:07:17Z</time></trkpt><trkpt lat="42.29069409168205" lon="14.049202472387044"><ele>138.33333333333334</ele><time>2026-05-03T12:07:18.001Z</time></trkpt><trkpt lat="42.290787170125505" lon="14.049354684022443"><ele>144.66666666666669</ele><time>2026-05-03T12:07:19.001Z</time></trkpt><trkpt lat="42.29088916627804" lon="14.049523824811937"><ele>151.0</ele><time>2026-05-03T12:07:20.001Z</time></trkpt><trkpt lat="42.2909813646508" lon="14.049671704447118"><ele>151.0</ele><time>2026-05-03T12:07:21.001Z</time></trkpt><trkpt lat="42.291058742885454" lon="14.049800632154044"><ele>151.0</ele><time>2026-05-03T12:07:22.001Z</time></trkpt><trkpt lat="42.291152021507266" lon="14.049940084062461"><ele>151.0</ele><time>2026-05-03T12:07:23.001Z</time></trkpt><trkpt lat="42.2912504782459" lon="14.05005977726689"><ele>151.0</ele><time>2026-05-03T12:07:24.001Z</time></trkpt><trkpt lat="42.29134989496869" lon="14.050159356011608"><ele>152.4</ele><time>2026-05-03T12:07:25.001Z</time></trkpt><trkpt lat="42.2914439840555" lon="14.050248000301249"><ele>153.8</ele><time>2026-05-03T12:07:26.001Z</time></trkpt><trkpt lat="42.29153191182887" lon="14.050305080219145"><ele>155.20000000000002</ele><time>2026-05-03T12:07:27.001Z</time></trkpt><trkpt lat="42.291641615721886" lon="14.050350514036323"><ele>156.6</ele><time>2026-05-03T12:07:28.001Z</time></trkpt><trkpt lat="42.29175271262838" lon="14.05037418425386"><ele>158.0</ele><time>2026-05-03T12:07:29.001Z</time></trkpt><trkpt lat="42.29184955901614" lon="14.050402895925862"><ele>158.0</ele><time>2026-05-03T12:07:30.001Z</time></trkpt><trkpt lat="42.29192112842932" lon="14.050468888748746"><ele>158.0</ele><time>2026-05-03T12:07:31.001Z</time></trkpt><trkpt lat="42.291932997633005" lon="14.050593963499573"><ele>158.0</ele><time>2026-05-03T12:07:32.001Z</time></trkpt><trkpt lat="42.29197835405876" lon="14.05073611684592"><ele>158.0</ele><time>2026-05-03T12:07:33.001Z</time></trkpt><trkpt lat="42.292001233443415" lon="14.050915452121801"><ele>158.0</ele><time>2026-05-03T12:07:34.001Z</time></trkpt><trkpt lat="42.292031017814544" lon="14.051077129367519"><ele>161.0</ele><time>2026-05-03T12:07:35.001Z</time></trkpt><trkpt lat="42.29206563824454" lon="14.051238273640129"><ele>164.0</ele><time>2026-05-03T12:07:36.001Z</time></trkpt><trkpt lat="42.292119491746426" lon="14.051421332937455"><ele>167.0</ele><time>2026-05-03T12:07:37.001Z</time></trkpt><trkpt lat="42.29217611906421" lon="14.051587706257445"><ele>170.0</ele><time>2026-05-03T12:07:38.001Z</time></trkpt><trkpt lat="42.29222653133834" lon="14.051734122012018"><ele>170.6</ele><time>2026-05-03T12:07:39.001Z</time></trkpt><trkpt lat="42.29227429743585" lon="14.051858339742116"><ele>171.2</ele><time>2026-05-03T12:07:40.001Z</time></trkpt><trkpt lat="42.292320408711795" lon="14.05197277650643"><ele>171.8</ele><time>2026-05-03T12:07:41.001Z</time></trkpt><trkpt lat="42.29235872084797" lon="14.052092797889228"><ele>172.4</ele><time>2026-05-03T12:07:42.001Z</time></trkpt><trkpt lat="42.2923882307695" lon="14.05221100289196"><ele>173.0</ele><time>2026-05-03T12:07:43.001Z</time></trkpt><trkpt lat="42.2923977070185" lon="14.052322256428114"><ele>173.0</ele><time>2026-05-03T12:07:44.001Z</time></trkpt><trkpt lat="42.2923963938023" lon="14.05241130731782"><ele>173.0</ele><time>2026-05-03T12:07:45.001Z</time></trkpt><trkpt lat="42.292496112167164" lon="14.052539129993963"><ele>173.0</ele><time>2026-05-03T12:07:48.001Z</time></trkpt><trkpt lat="42.29259460506674" lon="14.052497459873077"><ele>173.0</ele><time>2026-05-03T12:07:50.001Z</time></trkpt><trkpt lat="42.29269700302234" lon="14.052464285676683"><ele>173.0</ele><time>2026-05-03T12:07:52.001Z</time></trkpt><trkpt lat="42.29280841734128" lon="14.052533078392823"><ele>173.16666666666666</ele><time>2026-05-03T12:07:54.001Z</time></trkpt><trkpt lat="42.292878069510316" lon="14.05254900487125"><ele>173.33333333333331</ele><time>2026-05-03T12:07:55.001Z</time></trkpt><trkpt lat="42.29295170452753" lon="14.052597673435196"><ele>173.5</ele><time>2026-05-03T12:07:56.001Z</time></trkpt><trkpt lat="42.293031380301656" lon="14.052662938656313"><ele>173.66666666666666</ele><time>2026-05-03T12:07:57.001Z</time></trkpt><trkpt lat="42.293114603656036" lon="14.052711953148973"><ele>173.83333333333334</ele><time>2026-05-03T12:07:58.001Z</time></trkpt><trkpt lat="42.29319915775084" lon="14.052766048407891"><ele>174.0</ele><time>2026-05-03T12:07:59.001Z</time></trkpt><trkpt lat="42.293261074681794" lon="14.052828743411705"><ele>173.66666666666666</ele><time>2026-05-03T12:08:00.001Z</time></trkpt><trkpt lat="42.29331232859358" lon="14.052901717822332"><ele>173.33333333333334</ele><time>2026-05-03T12:08:01.001Z</time></trkpt><trkpt lat="42.29337366413662" lon="14.05297698787048"><ele>173.0</ele><time>2026-05-03T12:08:02.001Z</time></trkpt><trkpt lat="42.293434308104466" lon="14.05306717272503"><ele>172.66666666666669</ele><time>2026-05-03T12:08:03.001Z</time></trkpt><trkpt lat="42.293490827855585" lon="14.053147807379723"><ele>172.33333333333334</ele><time>2026-05-03T12:08:04.001Z</time></trkpt><trkpt lat="42.29354212433658" lon="14.053242328344842"><ele>172.0</ele><time>2026-05-03T12:08:05.001Z</time></trkpt><trkpt lat="42.29359890273063" lon="14.053337051018683"><ele>172.83333333333334</ele><time>2026-05-03T12:08:06.001Z</time></trkpt><trkpt lat="42.293658501287716" lon="14.05343341218221"><ele>173.66666666666669</ele><time>2026-05-03T12:08:07.001Z</time></trkpt><trkpt lat="42.293712716917184" lon="14.053521924073682"><ele>174.5</ele><time>2026-05-03T12:08:08.001Z</time></trkpt><trkpt lat="42.29377257585858" lon="14.053620074448594"><ele>175.33333333333334</ele><time>2026-05-03T12:08:09.001Z</time></trkpt><trkpt lat="42.29382053358639" lon="14.053701476944212"><ele>176.16666666666666</ele><time>2026-05-03T12:08:10.001Z</time></trkpt><trkpt lat="42.29386472470341" lon="14.053785026612323"><ele>177.0</ele><time>2026-05-03T12:08:11.001Z</time></trkpt><trkpt lat="42.293911870586044" lon="14.053857020939162"><ele>177.0</ele><time>2026-05-03T12:08:12.001Z</time></trkpt><trkpt lat="42.293954742825406" lon="14.053934718730943"><ele>177.0</ele><time>2026-05-03T12:08:13.001Z</time></trkpt><trkpt lat="42.293990765339565" lon="14.054006368919545"><ele>177.0</ele><time>2026-05-03T12:08:14.001Z</time></trkpt><trkpt lat="42.29402085977556" lon="14.05408489440117"><ele>177.0</ele><time>2026-05-03T12:08:15.001Z</time></trkpt><trkpt lat="42.294104984691856" lon="14.054158335330118"><ele>177.0</ele><time>2026-05-03T12:08:17.001Z</time></trkpt><trkpt lat="42.29417902389912" lon="14.054242275913257"><ele>177.0</ele><time>2026-05-03T12:08:19.001Z</time></trkpt><trkpt lat="42.29424359566708" lon="14.054314180499867"><ele>177.0</ele><time>2026-05-03T12:08:21.001Z</time></trkpt><trkpt lat="42.29409966766016" lon="14.054635197341593"><ele>177.0</ele><time>2026-05-03T12:08:23.001Z</time></trkpt><trkpt lat="42.29413727088309" lon="14.054706403751839"><ele>177.0</ele><time>2026-05-03T12:08:26.001Z</time></trkpt><trkpt lat="42.29419281703619" lon="14.05475613964457"><ele>177.0</ele><time>2026-05-03T12:08:28.001Z</time></trkpt><trkpt lat="42.29426193659527" lon="14.054811372555971"><ele>177.0</ele><time>2026-05-03T12:08:32.001Z</time></trkpt><trkpt lat="42.294324630961796" lon="14.05484853480109"><ele>177.0</ele><time>2026-05-03T12:08:34.001Z</time></trkpt><trkpt lat="42.29438578371781" lon="14.054795559126052"><ele>177.0</ele><time>2026-05-03T12:08:36.001Z</time></trkpt><trkpt lat="42.294462506330426" lon="14.054763712309716"><ele>177.0</ele><time>2026-05-03T12:08:38.002Z</time></trkpt><trkpt lat="42.294540618692864" lon="14.054808663249265"><ele>177.0</ele><time>2026-05-03T12:08:40.002Z</time></trkpt><trkpt lat="42.29460174382066" lon="14.05483141267213"><ele>177.0</ele><time>2026-05-03T12:08:42.002Z</time></trkpt><trkpt lat="42.29468827874805" lon="14.054797067788309"><ele>176.5</ele><time>2026-05-03T12:08:45.002Z</time></trkpt><trkpt lat="42.294761643218514" lon="14.054811237212677"><ele>176.0</ele><time>2026-05-03T12:08:47.002Z</time></trkpt><trkpt lat="42.29483517060596" lon="14.054918513905355"><ele>175.5</ele><time>2026-05-03T12:08:49.002Z</time></trkpt><trkpt lat="42.29488762187945" lon="14.054980304959601"><ele>175.0</ele><time>2026-05-03T12:08:50.002Z</time></trkpt><trkpt lat="42.2949411197388" lon="14.055034126468707"><ele>174.5</ele><time>2026-05-03T12:08:51.002Z</time></trkpt><trkpt lat="42.294996807491216" lon="14.055083634699653"><ele>174.0</ele><time>2026-05-03T12:08:52.002Z</time></trkpt><trkpt lat="42.29505520138366" lon="14.055122044796681"><ele>174.0</ele><time>2026-05-03T12:08:53.002Z</time></trkpt><trkpt lat="42.29511777699709" lon="14.055145382404927"><ele>174.0</ele><time>2026-05-03T12:08:54.002Z</time></trkpt><trkpt lat="42.2952400187795" lon="14.05515105109229"><ele>174.0</ele><time>2026-05-03T12:08:56.002Z</time></trkpt><trkpt lat="42.29530629561673" lon="14.055147249282388"><ele>174.0</ele><time>2026-05-03T12:08:57.002Z</time></trkpt><trkpt lat="42.29537835768183" lon="14.055147444729457"><ele>174.0</ele><time>2026-05-03T12:08:58.002Z</time></trkpt><trkpt lat="42.29545018587258" lon="14.055147089495373"><ele>174.0</ele><time>2026-05-03T12:08:59.002Z</time></trkpt><trkpt lat="42.295520620780565" lon="14.055154326888552"><ele>172.83333333333334</ele><time>2026-05-03T12:09:00.002Z</time></trkpt><trkpt lat="42.29561358162787" lon="14.055167576951712"><ele>171.66666666666666</ele><time>2026-05-03T12:09:02.002Z</time></trkpt><trkpt lat="42.29568748508219" lon="14.055224188157574"><ele>170.5</ele><time>2026-05-03T12:09:05.002Z</time></trkpt><trkpt lat="42.295714865141164" lon="14.055310475395066"><ele>169.33333333333331</ele><time>2026-05-03T12:09:07Z</time></trkpt><trkpt lat="42.29574600575181" lon="14.055419350925545"><ele>168.16666666666666</ele><time>2026-05-03T12:09:09Z</time></trkpt><trkpt lat="42.2957982813612" lon="14.055470392800796"><ele>167.0</ele><time>2026-05-03T12:09:10Z</time></trkpt><trkpt lat="42.295864594369796" lon="14.055533349507325"><ele>167.0</ele><time>2026-05-03T12:09:11Z</time></trkpt><trkpt lat="42.29591690719977" lon="14.055621677983746"><ele>167.0</ele><time>2026-05-03T12:09:12Z</time></trkpt><trkpt lat="42.2959664630871" lon="14.055723231411637"><ele>167.0</ele><time>2026-05-03T12:09:13Z</time></trkpt><trkpt lat="42.29600334982104" lon="14.055808055280862"><ele>167.0</ele><time>2026-05-03T12:09:14Z</time></trkpt><trkpt lat="42.29604213517694" lon="14.055894579562647"><ele>167.0</ele><time>2026-05-03T12:09:15Z</time></trkpt><trkpt lat="42.29608003668805" lon="14.055984336381934"><ele>167.0</ele><time>2026-05-03T12:09:16Z</time></trkpt><trkpt lat="42.29612197638607" lon="14.056077126698936"><ele>167.16666666666666</ele><time>2026-05-03T12:09:17Z</time></trkpt><trkpt lat="42.29615758093391" lon="14.056158085419177"><ele>167.33333333333331</ele><time>2026-05-03T12:09:18Z</time></trkpt><trkpt lat="42.29620301766669" lon="14.056255516670358"><ele>167.5</ele><time>2026-05-03T12:09:19Z</time></trkpt><trkpt lat="42.296235558313974" lon="14.05633900906588"><ele>167.66666666666666</ele><time>2026-05-03T12:09:20Z</time></trkpt><trkpt lat="42.29627546606029" lon="14.056430148548358"><ele>167.83333333333334</ele><time>2026-05-03T12:09:21Z</time></trkpt><trkpt lat="42.2963168819915" lon="14.056516722902645"><ele>168.0</ele><time>2026-05-03T12:09:22Z</time></trkpt><trkpt lat="42.296373775508215" lon="14.056633255865632"><ele>167.2</ele><time>2026-05-03T12:09:23Z</time></trkpt><trkpt lat="42.29642160046624" lon="14.0567265841032"><ele>166.4</ele><time>2026-05-03T12:09:24Z</time></trkpt><trkpt lat="42.29647807946922" lon="14.056826077837194"><ele>165.6</ele><time>2026-05-03T12:09:25Z</time></trkpt><trkpt lat="42.29654188193351" lon="14.05693633332585"><ele>164.79999999999998</ele><time>2026-05-03T12:09:26Z</time></trkpt><trkpt lat="42.29659230747872" lon="14.057038169107429"><ele>164.0</ele><time>2026-05-03T12:09:27Z</time></trkpt><trkpt lat="42.2966422072032" lon="14.05714474928943"><ele>164.0</ele><time>2026-05-03T12:09:28Z</time></trkpt><trkpt lat="42.296697152004" lon="14.057242708524617"><ele>164.0</ele><time>2026-05-03T12:09:29Z</time></trkpt><trkpt lat="42.29675353513392" lon="14.057342995104209"><ele>164.0</ele><time>2026-05-03T12:09:30Z</time></trkpt><trkpt lat="42.296810146312815" lon="14.057453365810971"><ele>164.0</ele><time>2026-05-03T12:09:31Z</time></trkpt><trkpt lat="42.29686255014891" lon="14.057574644955805"><ele>164.0</ele><time>2026-05-03T12:09:32Z</time></trkpt><trkpt lat="42.29692115535241" lon="14.057705706213541"><ele>163.39999999999998</ele><time>2026-05-03T12:09:33Z</time></trkpt><trkpt lat="42.296984707079176" lon="14.05783737731782"><ele>162.8</ele><time>2026-05-03T12:09:34Z</time></trkpt><trkpt lat="42.2970471468354" lon="14.057962157933078"><ele>162.2</ele><time>2026-05-03T12:09:35Z</time></trkpt><trkpt lat="42.29710677641135" lon="14.058082946443763"><ele>161.60000000000002</ele><time>2026-05-03T12:09:36Z</time></trkpt><trkpt lat="42.29716125805185" lon="14.058197150138863"><ele>161.0</ele><time>2026-05-03T12:09:37Z</time></trkpt><trkpt lat="42.29721153421197" lon="14.058297419029367"><ele>160.4</ele><time>2026-05-03T12:09:38Z</time></trkpt><trkpt lat="42.297266994290695" lon="14.058413102054578"><ele>159.8</ele><time>2026-05-03T12:09:40Z</time></trkpt><trkpt lat="42.29732974973219" lon="14.058490496280431"><ele>159.20000000000002</ele><time>2026-05-03T12:09:42Z</time></trkpt><trkpt lat="42.297427111686524" lon="14.058549678271135"><ele>158.60000000000002</ele><time>2026-05-03T12:09:43Z</time></trkpt><trkpt lat="42.29755998100034" lon="14.058603750567794"><ele>158.0</ele><time>2026-05-03T12:09:44Z</time></trkpt><trkpt lat="42.29769416799816" lon="14.058643662148322"><ele>158.0</ele><time>2026-05-03T12:09:45Z</time></trkpt><trkpt lat="42.297837958543944" lon="14.058694822318895"><ele>158.0</ele><time>2026-05-03T12:09:46Z</time></trkpt><trkpt lat="42.297992293929354" lon="14.058775411415604"><ele>158.0</ele><time>2026-05-03T12:09:47Z</time></trkpt><trkpt lat="42.29815476150095" lon="14.058857684595587"><ele>157.25</ele><time>2026-05-03T12:09:48Z</time></trkpt><trkpt lat="42.29832048843678" lon="14.05893732808105"><ele>156.5</ele><time>2026-05-03T12:09:49Z</time></trkpt><trkpt lat="42.2984608805141" lon="14.058991456366623"><ele>155.75</ele><time>2026-05-03T12:09:50.001Z</time></trkpt><trkpt lat="42.298573163663335" lon="14.05904615356721"><ele>155.0</ele><time>2026-05-03T12:09:51.001Z</time></trkpt><trkpt lat="42.298687817847124" lon="14.059092578190747"><ele>154.6</ele><time>2026-05-03T12:09:52.001Z</time></trkpt><trkpt lat="42.29879019805871" lon="14.059141807766212"><ele>154.2</ele><time>2026-05-03T12:09:53.001Z</time></trkpt><trkpt lat="42.29887530308869" lon="14.059178190220257"><ele>153.8</ele><time>2026-05-03T12:09:54.001Z</time></trkpt><trkpt lat="42.29894984181538" lon="14.059214697006874"><ele>153.4</ele><time>2026-05-03T12:09:55.001Z</time></trkpt><trkpt lat="42.29903778225929" lon="14.059302270458238"><ele>153.0</ele><time>2026-05-03T12:09:57.001Z</time></trkpt><trkpt lat="42.29894211653046" lon="14.059416161443048"><ele>153.0</ele><time>2026-05-03T12:09:59.001Z</time></trkpt><trkpt lat="42.2988493331528" lon="14.05943510827397"><ele>153.0</ele><time>2026-05-03T12:10:00.001Z</time></trkpt><trkpt lat="42.298730076814664" lon="14.059462415064752"><ele>153.0</ele><time>2026-05-03T12:10:01.001Z</time></trkpt><trkpt lat="42.29860104756718" lon="14.059453737233039"><ele>153.0</ele><time>2026-05-03T12:10:02.001Z</time></trkpt><trkpt lat="42.29846979010467" lon="14.059375109224378"><ele>153.0</ele><time>2026-05-03T12:10:03.001Z</time></trkpt><trkpt lat="42.29833796658042" lon="14.059301685102414"><ele>153.0</ele><time>2026-05-03T12:10:04.001Z</time></trkpt><trkpt lat="42.298243360571895" lon="14.059191354373318"><ele>153.0</ele><time>2026-05-03T12:10:05.001Z</time></trkpt><trkpt lat="42.298170348106694" lon="14.05910476915105"><ele>153.0</ele><time>2026-05-03T12:10:06.001Z</time></trkpt><trkpt lat="42.298088007700116" lon="14.059045118141134"><ele>152.6</ele><time>2026-05-03T12:10:07.001Z</time></trkpt><trkpt lat="42.29799801161885" lon="14.059031294219173"><ele>152.20000000000002</ele><time>2026-05-03T12:10:08.001Z</time></trkpt><trkpt lat="42.29791912563857" lon="14.059085761895135"><ele>151.8</ele><time>2026-05-03T12:10:09.001Z</time></trkpt><trkpt lat="42.29786749358135" lon="14.059195297490284"><ele>151.4</ele><time>2026-05-03T12:10:10.001Z</time></trkpt><trkpt lat="42.2978493793603" lon="14.059321515194418"><ele>151.0</ele><time>2026-05-03T12:10:11.001Z</time></trkpt><trkpt lat="42.297874295684416" lon="14.059432923902273"><ele>151.0</ele><time>2026-05-03T12:10:12.001Z</time></trkpt><trkpt lat="42.29795729663445" lon="14.059525424974394"><ele>151.0</ele><time>2026-05-03T12:10:13.001Z</time></trkpt><trkpt lat="42.29806584831427" lon="14.05960510184733"><ele>151.0</ele><time>2026-05-03T12:10:14.001Z</time></trkpt><trkpt lat="42.298193350741194" lon="14.059702075705957"><ele>151.0</ele><time>2026-05-03T12:10:15.001Z</time></trkpt><trkpt lat="42.29832787074274" lon="14.05981508885626"><ele>151.66666666666669</ele><time>2026-05-03T12:10:16.001Z</time></trkpt><trkpt lat="42.29846611801289" lon="14.059948814167715"><ele>152.33333333333334</ele><time>2026-05-03T12:10:17.001Z</time></trkpt><trkpt lat="42.2986130327033" lon="14.060080405627497"><ele>153.0</ele><time>2026-05-03T12:10:18.001Z</time></trkpt><trkpt lat="42.29876186823165" lon="14.060216812444935"><ele>149.66666666666666</ele><time>2026-05-03T12:10:19.001Z</time></trkpt><trkpt lat="42.29891629790164" lon="14.060382237974098"><ele>146.33333333333331</ele><time>2026-05-03T12:10:20.001Z</time></trkpt><trkpt lat="42.29906790377577" lon="14.06055457262586"><ele>143.0</ele><time>2026-05-03T12:10:21.001Z</time></trkpt><trkpt lat="42.29921501105531" lon="14.060724795701747"><ele>137.66666666666666</ele><time>2026-05-03T12:10:22.001Z</time></trkpt><trkpt lat="42.29935332336483" lon="14.060906310202528"><ele>132.33333333333334</ele><time>2026-05-03T12:10:23.001Z</time></trkpt><trkpt lat="42.29949600036461" lon="14.0611107794014"><ele>127.0</ele><time>2026-05-03T12:10:24.001Z</time></trkpt><trkpt lat="42.29964153273053" lon="14.061332872179833"><ele>122.0</ele><time>2026-05-03T12:10:25.001Z</time></trkpt><trkpt lat="42.299789658950985" lon="14.061564537247532"><ele>117.0</ele><time>2026-05-03T12:10:26.001Z</time></trkpt><trkpt lat="42.29994055833839" lon="14.06180558463142"><ele>117.0</ele><time>2026-05-03T12:10:27.001Z</time></trkpt><trkpt lat="42.30010440824208" lon="14.062009534739445"><ele>117.0</ele><time>2026-05-03T12:10:28.001Z</time></trkpt><trkpt lat="42.30026201875601" lon="14.062261091380824"><ele>115.0</ele><time>2026-05-03T12:10:29.001Z</time></trkpt><trkpt lat="42.30042910517792" lon="14.06252336687159"><ele>113.0</ele><time>2026-05-03T12:10:30.001Z</time></trkpt><trkpt lat="42.30059063507115" lon="14.062770201757841"><ele>113.0</ele><time>2026-05-03T12:10:31.001Z</time></trkpt><trkpt lat="42.30076772512491" lon="14.06299049468634"><ele>113.0</ele><time>2026-05-03T12:10:32.001Z</time></trkpt><trkpt lat="42.300939546531055" lon="14.063201583647068"><ele>104.5</ele><time>2026-05-03T12:10:33.001Z</time></trkpt><trkpt lat="42.301107745287375" lon="14.063412236476331"><ele>96.0</ele><time>2026-05-03T12:10:34.001Z</time></trkpt><trkpt lat="42.3012917282926" lon="14.063586709404683"><ele>101.66666666666666</ele><time>2026-05-03T12:10:35.001Z</time></trkpt><trkpt lat="42.30147479286368" lon="14.06375115693739"><ele>107.33333333333333</ele><time>2026-05-03T12:10:36.001Z</time></trkpt><trkpt lat="42.30164972837725" lon="14.063905304181064"><ele>113.0</ele><time>2026-05-03T12:10:37.001Z</time></trkpt><trkpt lat="42.30182274410699" lon="14.06405266325583"><ele>108.33333333333333</ele><time>2026-05-03T12:10:38.001Z</time></trkpt><trkpt lat="42.301991463704674" lon="14.064197818233431"><ele>103.66666666666666</ele><time>2026-05-03T12:10:39.001Z</time></trkpt><trkpt lat="42.30216483443602" lon="14.064330704575081"><ele>99.0</ele><time>2026-05-03T12:10:40.001Z</time></trkpt><trkpt lat="42.302337009666296" lon="14.06445591342606"><ele>99.0</ele><time>2026-05-03T12:10:41.001Z</time></trkpt><trkpt lat="42.30252890672949" lon="14.064561589229555"><ele>99.0</ele><time>2026-05-03T12:10:42.001Z</time></trkpt><trkpt lat="42.30273921713201" lon="14.064662807552644"><ele>99.0</ele><time>2026-05-03T12:10:43.001Z</time></trkpt><trkpt lat="42.30294100105673" lon="14.064750532985483"><ele>103.0</ele><time>2026-05-03T12:10:44.001Z</time></trkpt><trkpt lat="42.30313016449082" lon="14.064845994891009"><ele>107.0</ele><time>2026-05-03T12:10:45.001Z</time></trkpt><trkpt lat="42.30330836003642" lon="14.064937421930123"><ele>111.0</ele><time>2026-05-03T12:10:46.001Z</time></trkpt><trkpt lat="42.303477612252486" lon="14.065006901496883"><ele>102.66666666666667</ele><time>2026-05-03T12:10:47.001Z</time></trkpt><trkpt lat="42.3036372874893" lon="14.065051327502417"><ele>94.33333333333334</ele><time>2026-05-03T12:10:48.001Z</time></trkpt><trkpt lat="42.303796653347355" lon="14.06508005256914"><ele>86.0</ele><time>2026-05-03T12:10:49.001Z</time></trkpt><trkpt lat="42.303923704331375" lon="14.065095861550418"><ele>85.75</ele><time>2026-05-03T12:10:50.001Z</time></trkpt><trkpt lat="42.30405092616703" lon="14.065127662463215"><ele>85.5</ele><time>2026-05-03T12:10:51.001Z</time></trkpt><trkpt lat="42.3041702916566" lon="14.06516036959725"><ele>85.25</ele><time>2026-05-03T12:10:52.001Z</time></trkpt><trkpt lat="42.30427562565017" lon="14.065198935815394"><ele>85.0</ele><time>2026-05-03T12:10:53.001Z</time></trkpt><trkpt lat="42.30437618481388" lon="14.065234983216754"><ele>85.0</ele><time>2026-05-03T12:10:54.001Z</time></trkpt><trkpt lat="42.30446516940559" lon="14.065289087544127"><ele>85.0</ele><time>2026-05-03T12:10:55.001Z</time></trkpt><trkpt lat="42.30456560153179" lon="14.065332780500494"><ele>85.0</ele><time>2026-05-03T12:10:56.001Z</time></trkpt><trkpt lat="42.30469607301782" lon="14.065285952870438"><ele>85.0</ele><time>2026-05-03T12:10:57.001Z</time></trkpt><trkpt lat="42.30481932375531" lon="14.065298675659598"><ele>84.75</ele><time>2026-05-03T12:10:58.001Z</time></trkpt><trkpt lat="42.30493835305001" lon="14.065310884084132"><ele>84.5</ele><time>2026-05-03T12:10:59.001Z</time></trkpt><trkpt lat="42.30504754245935" lon="14.065311619677216"><ele>84.25</ele><time>2026-05-03T12:11:00.001Z</time></trkpt><trkpt lat="42.305159088920156" lon="14.065275591949536"><ele>84.0</ele><time>2026-05-03T12:11:01.001Z</time></trkpt><trkpt lat="42.30526471938139" lon="14.065201323402656"><ele>84.0</ele><time>2026-05-03T12:11:02.001Z</time></trkpt><trkpt lat="42.305377936451485" lon="14.06511103427688"><ele>84.0</ele><time>2026-05-03T12:11:03.001Z</time></trkpt><trkpt lat="42.30547524765881" lon="14.06495588630082"><ele>84.0</ele><time>2026-05-03T12:11:04.002Z</time></trkpt><trkpt lat="42.30556900143005" lon="14.064821710347696"><ele>84.0</ele><time>2026-05-03T12:11:05.002Z</time></trkpt><trkpt lat="42.30566042282693" lon="14.06470059865607"><ele>83.25</ele><time>2026-05-03T12:11:06.002Z</time></trkpt><trkpt lat="42.30575678232031" lon="14.064573820069509"><ele>82.5</ele><time>2026-05-03T12:11:07.002Z</time></trkpt><trkpt lat="42.30585782326624" lon="14.064441628393764"><ele>81.75</ele><time>2026-05-03T12:11:08.002Z</time></trkpt><trkpt lat="42.30595526567652" lon="14.064320608460664"><ele>81.0</ele><time>2026-05-03T12:11:09.002Z</time></trkpt><trkpt lat="42.306051523145335" lon="14.064200539036838"><ele>80.5</ele><time>2026-05-03T12:11:10.002Z</time></trkpt><trkpt lat="42.306143340152694" lon="14.064083323499478"><ele>80.0</ele><time>2026-05-03T12:11:11.002Z</time></trkpt><trkpt lat="42.306234990454826" lon="14.063966321922045"><ele>79.5</ele><time>2026-05-03T12:11:12Z</time></trkpt><trkpt lat="42.30633817441005" lon="14.06383464093981"><ele>79.0</ele><time>2026-05-03T12:11:13Z</time></trkpt><trkpt lat="42.30643959926793" lon="14.063705198324081"><ele>77.75</ele><time>2026-05-03T12:11:14Z</time></trkpt><trkpt lat="42.30653820932074" lon="14.063579348097353"><ele>76.5</ele><time>2026-05-03T12:11:15Z</time></trkpt><trkpt lat="42.30663189646352" lon="14.0634583538642"><ele>75.25</ele><time>2026-05-03T12:11:16Z</time></trkpt><trkpt lat="42.30672673468743" lon="14.063335566716738"><ele>74.0</ele><time>2026-05-03T12:11:17Z</time></trkpt><trkpt lat="42.30682082085458" lon="14.063213752594518"><ele>73.75</ele><time>2026-05-03T12:11:18Z</time></trkpt><trkpt lat="42.30691225478685" lon="14.063098235624775"><ele>73.5</ele><time>2026-05-03T12:11:19Z</time></trkpt><trkpt lat="42.307002952840236" lon="14.062981188208513"><ele>73.25</ele><time>2026-05-03T12:11:20Z</time></trkpt><trkpt lat="42.30708761964473" lon="14.062870620146047"><ele>73.0</ele><time>2026-05-03T12:11:21Z</time></trkpt><trkpt lat="42.30716538761975" lon="14.062769060818688"><ele>73.0</ele><time>2026-05-03T12:11:22Z</time></trkpt><trkpt lat="42.30723988456648" lon="14.062668637295493"><ele>73.0</ele><time>2026-05-03T12:11:23Z</time></trkpt><trkpt lat="42.307316242037835" lon="14.062571536378016"><ele>73.0</ele><time>2026-05-03T12:11:24Z</time></trkpt><trkpt lat="42.30739286534398" lon="14.062474648304985"><ele>73.0</ele><time>2026-05-03T12:11:25Z</time></trkpt><trkpt lat="42.30746560244701" lon="14.062380901103513"><ele>73.0</ele><time>2026-05-03T12:11:26Z</time></trkpt><trkpt lat="42.3075369894217" lon="14.06228889410048"><ele>72.8</ele><time>2026-05-03T12:11:27Z</time></trkpt><trkpt lat="42.307616425819624" lon="14.06218597890054"><ele>72.6</ele><time>2026-05-03T12:11:28Z</time></trkpt><trkpt lat="42.30769783483048" lon="14.062081853826008"><ele>72.4</ele><time>2026-05-03T12:11:29Z</time></trkpt><trkpt lat="42.307777260128006" lon="14.061981506232364"><ele>72.2</ele><time>2026-05-03T12:11:30Z</time></trkpt><trkpt lat="42.30785074335807" lon="14.061888948480364"><ele>72.0</ele><time>2026-05-03T12:11:31Z</time></trkpt><trkpt lat="42.307912807519244" lon="14.061813455090237"><ele>72.0</ele><time>2026-05-03T12:11:32Z</time></trkpt><trkpt lat="42.307966034515786" lon="14.061753495710256"><ele>72.0</ele><time>2026-05-03T12:11:33Z</time></trkpt><trkpt lat="42.30803742410703" lon="14.06170456414447"><ele>72.0</ele><time>2026-05-03T12:11:35Z</time></trkpt><trkpt lat="42.308119459914366" lon="14.061825886446664"><ele>72.0</ele><time>2026-05-03T12:11:36Z</time></trkpt><trkpt lat="42.308174040419075" lon="14.061932237308378"><ele>72.0</ele><time>2026-05-03T12:11:37Z</time></trkpt><trkpt lat="42.30823161261002" lon="14.062071247606346"><ele>72.0</ele><time>2026-05-03T12:11:38Z</time></trkpt><trkpt lat="42.30829319554814" lon="14.062215282111646"><ele>72.0</ele><time>2026-05-03T12:11:39Z</time></trkpt><trkpt lat="42.30836455382377" lon="14.0623630276757"><ele>72.0</ele><time>2026-05-03T12:11:40Z</time></trkpt><trkpt lat="42.30844334543862" lon="14.062522322304536"><ele>72.0</ele><time>2026-05-03T12:11:41Z</time></trkpt><trkpt lat="42.30851849477083" lon="14.062669765671364"><ele>72.25</ele><time>2026-05-03T12:11:42Z</time></trkpt><trkpt lat="42.30858753651308" lon="14.062807651529306"><ele>72.5</ele><time>2026-05-03T12:11:43Z</time></trkpt><trkpt lat="42.30865522968875" lon="14.062944015076749"><ele>72.75</ele><time>2026-05-03T12:11:44Z</time></trkpt><trkpt lat="42.30872265243781" lon="14.063083650143282"><ele>73.0</ele><time>2026-05-03T12:11:45Z</time></trkpt><trkpt lat="42.30878879962853" lon="14.06322053571031"><ele>73.0</ele><time>2026-05-03T12:11:46Z</time></trkpt><trkpt lat="42.30885825529944" lon="14.063361112347028"><ele>73.0</ele><time>2026-05-03T12:11:47Z</time></trkpt><trkpt lat="42.30892720947163" lon="14.063503900439768"><ele>73.0</ele><time>2026-05-03T12:11:48Z</time></trkpt><trkpt lat="42.30898869411605" lon="14.06363663751387"><ele>73.0</ele><time>2026-05-03T12:11:49Z</time></trkpt><trkpt lat="42.30905452416958" lon="14.063768916637283"><ele>73.0</ele><time>2026-05-03T12:11:50Z</time></trkpt><trkpt lat="42.30912404383554" lon="14.06391526214898"><ele>73.0</ele><time>2026-05-03T12:11:51Z</time></trkpt><trkpt lat="42.3091978755719" lon="14.064074495879208"><ele>73.0</ele><time>2026-05-03T12:11:52Z</time></trkpt><trkpt lat="42.30927405855636" lon="14.064232311181563"><ele>73.0</ele><time>2026-05-03T12:11:53Z</time></trkpt><trkpt lat="42.30934971070211" lon="14.064386549584311"><ele>72.5</ele><time>2026-05-03T12:11:54Z</time></trkpt><trkpt lat="42.30942111968275" lon="14.064534831095173"><ele>72.0</ele><time>2026-05-03T12:11:55Z</time></trkpt><trkpt lat="42.30948891296465" lon="14.064674976913626"><ele>71.5</ele><time>2026-05-03T12:11:56Z</time></trkpt><trkpt lat="42.30955986441619" lon="14.064822183152785"><ele>71.0</ele><time>2026-05-03T12:11:57Z</time></trkpt><trkpt lat="42.3096346453088" lon="14.064976335127636"><ele>71.0</ele><time>2026-05-03T12:11:58Z</time></trkpt><trkpt lat="42.30971154453893" lon="14.065132328986538"><ele>71.0</ele><time>2026-05-03T12:11:59Z</time></trkpt><trkpt lat="42.30978760208798" lon="14.06528722097822"><ele>71.0</ele><time>2026-05-03T12:12:00Z</time></trkpt><trkpt lat="42.30986826567998" lon="14.065447043227952"><ele>71.0</ele><time>2026-05-03T12:12:01Z</time></trkpt><trkpt lat="42.30994476430681" lon="14.065608083867346"><ele>71.0</ele><time>2026-05-03T12:12:02Z</time></trkpt><trkpt lat="42.31002078385888" lon="14.065761827991915"><ele>71.0</ele><time>2026-05-03T12:12:03Z</time></trkpt><trkpt lat="42.310095197356" lon="14.065911818503558"><ele>71.0</ele><time>2026-05-03T12:12:04Z</time></trkpt><trkpt lat="42.31016395666491" lon="14.066055161872827"><ele>71.0</ele><time>2026-05-03T12:12:05Z</time></trkpt><trkpt lat="42.31022880023834" lon="14.066188567644529"><ele>71.0</ele><time>2026-05-03T12:12:06Z</time></trkpt><trkpt lat="42.310294870575106" lon="14.066323193374515"><ele>71.0</ele><time>2026-05-03T12:12:07Z</time></trkpt><trkpt lat="42.31036548259882" lon="14.066451107165763"><ele>71.0</ele><time>2026-05-03T12:12:08Z</time></trkpt><trkpt lat="42.31044407884348" lon="14.066578177466857"><ele>71.0</ele><time>2026-05-03T12:12:09Z</time></trkpt><trkpt lat="42.31052038398328" lon="14.066705445751259"><ele>71.0</ele><time>2026-05-03T12:12:10Z</time></trkpt><trkpt lat="42.31057500584859" lon="14.066842825534968"><ele>71.0</ele><time>2026-05-03T12:12:11Z</time></trkpt><trkpt lat="42.31060411295465" lon="14.066999255454192"><ele>71.0</ele><time>2026-05-03T12:12:12Z</time></trkpt><trkpt lat="42.3106204514781" lon="14.067150910714453"><ele>71.0</ele><time>2026-05-03T12:12:13Z</time></trkpt><trkpt lat="42.310673503565894" lon="14.067281150174095"><ele>71.0</ele><time>2026-05-03T12:12:14Z</time></trkpt><trkpt lat="42.31076518563471" lon="14.067412225571761"><ele>71.0</ele><time>2026-05-03T12:12:15Z</time></trkpt><trkpt lat="42.3108459269236" lon="14.067542182589968"><ele>71.0</ele><time>2026-05-03T12:12:16Z</time></trkpt><trkpt lat="42.31091445451819" lon="14.06767663491127"><ele>71.0</ele><time>2026-05-03T12:12:17Z</time></trkpt><trkpt lat="42.310982087699784" lon="14.067817233540527"><ele>71.25</ele><time>2026-05-03T12:12:18.001Z</time></trkpt><trkpt lat="42.31105690303765" lon="14.067973392031057"><ele>71.5</ele><time>2026-05-03T12:12:19.001Z</time></trkpt><trkpt lat="42.3111359448866" lon="14.0681343803367"><ele>71.75</ele><time>2026-05-03T12:12:20.001Z</time></trkpt><trkpt lat="42.31121563349424" lon="14.068297555653691"><ele>72.0</ele><time>2026-05-03T12:12:21.001Z</time></trkpt><trkpt lat="42.311297860943895" lon="14.068467567259255"><ele>72.0</ele><time>2026-05-03T12:12:22.001Z</time></trkpt><trkpt lat="42.31138091214918" lon="14.068642113905467"><ele>72.0</ele><time>2026-05-03T12:12:23.001Z</time></trkpt><trkpt lat="42.31145820101538" lon="14.068803319544376"><ele>72.0</ele><time>2026-05-03T12:12:24.001Z</time></trkpt><trkpt lat="42.3115327475697" lon="14.06896054180533"><ele>72.0</ele><time>2026-05-03T12:12:25.001Z</time></trkpt><trkpt lat="42.31160869317448" lon="14.06911839197058"><ele>72.0</ele><time>2026-05-03T12:12:26.001Z</time></trkpt><trkpt lat="42.31168865046777" lon="14.069285171859388"><ele>72.0</ele><time>2026-05-03T12:12:27.001Z</time></trkpt><trkpt lat="42.31177258880774" lon="14.069458923391645"><ele>72.0</ele><time>2026-05-03T12:12:28.001Z</time></trkpt><trkpt lat="42.31185900459306" lon="14.069631962467135"><ele>72.0</ele><time>2026-05-03T12:12:29.001Z</time></trkpt><trkpt lat="42.31194010563054" lon="14.069802511884726"><ele>72.0</ele><time>2026-05-03T12:12:30.001Z</time></trkpt><trkpt lat="42.3120197654226" lon="14.06997036765074"><ele>72.0</ele><time>2026-05-03T12:12:31.001Z</time></trkpt><trkpt lat="42.312096061700544" lon="14.070131883984622"><ele>72.0</ele><time>2026-05-03T12:12:32.001Z</time></trkpt><trkpt lat="42.31217382110564" lon="14.07028966557768"><ele>71.5</ele><time>2026-05-03T12:12:33.001Z</time></trkpt><trkpt lat="42.31224663852465" lon="14.070454378990998"><ele>71.0</ele><time>2026-05-03T12:12:34.001Z</time></trkpt><trkpt lat="42.31232949010026" lon="14.070614260677061"><ele>70.5</ele><time>2026-05-03T12:12:35.001Z</time></trkpt><trkpt lat="42.31240913099958" lon="14.070777157236668"><ele>70.0</ele><time>2026-05-03T12:12:36.001Z</time></trkpt><trkpt lat="42.312493496648194" lon="14.070938242025564"><ele>69.66666666666666</ele><time>2026-05-03T12:12:37.001Z</time></trkpt><trkpt lat="42.31258613841671" lon="14.071114895561637"><ele>69.33333333333333</ele><time>2026-05-03T12:12:38.001Z</time></trkpt><trkpt lat="42.31267616647265" lon="14.071303034035457"><ele>69.0</ele><time>2026-05-03T12:12:39.001Z</time></trkpt><trkpt lat="42.31275854729649" lon="14.071487745215236"><ele>69.25</ele><time>2026-05-03T12:12:40.001Z</time></trkpt><trkpt lat="42.31283849547994" lon="14.07166896859239"><ele>69.5</ele><time>2026-05-03T12:12:41.001Z</time></trkpt><trkpt lat="42.31291825112608" lon="14.071838458034048"><ele>69.75</ele><time>2026-05-03T12:12:42.001Z</time></trkpt><trkpt lat="42.31299513004835" lon="14.071999172012744"><ele>70.0</ele><time>2026-05-03T12:12:43.001Z</time></trkpt><trkpt lat="42.313069889496205" lon="14.07215479749364"><ele>69.5</ele><time>2026-05-03T12:12:44.001Z</time></trkpt><trkpt lat="42.313144813378585" lon="14.072310160698715"><ele>69.0</ele><time>2026-05-03T12:12:45.001Z</time></trkpt><trkpt lat="42.31322191694734" lon="14.07246377613335"><ele>68.5</ele><time>2026-05-03T12:12:46.001Z</time></trkpt><trkpt lat="42.31330446731583" lon="14.0726191333014"><ele>68.0</ele><time>2026-05-03T12:12:47.001Z</time></trkpt><trkpt lat="42.313380229721524" lon="14.072802625037264"><ele>68.33333333333334</ele><time>2026-05-03T12:12:48.001Z</time></trkpt><trkpt lat="42.3134723584592" lon="14.07299411420177"><ele>68.66666666666667</ele><time>2026-05-03T12:12:49.001Z</time></trkpt><trkpt lat="42.3135775516451" lon="14.073182680244642"><ele>69.0</ele><time>2026-05-03T12:12:50.001Z</time></trkpt><trkpt lat="42.31367040297336" lon="14.073399752071131"><ele>69.0</ele><time>2026-05-03T12:12:51.001Z</time></trkpt><trkpt lat="42.313768775422126" lon="14.073614865225593"><ele>69.0</ele><time>2026-05-03T12:12:52.001Z</time></trkpt><trkpt lat="42.313866502172154" lon="14.073811566519707"><ele>69.0</ele><time>2026-05-03T12:12:53.001Z</time></trkpt><trkpt lat="42.31396194178832" lon="14.074006417963972"><ele>68.66666666666667</ele><time>2026-05-03T12:12:54.001Z</time></trkpt><trkpt lat="42.31405614514571" lon="14.074204896090931"><ele>68.33333333333334</ele><time>2026-05-03T12:12:55.001Z</time></trkpt><trkpt lat="42.31414927755644" lon="14.074396131341613"><ele>68.0</ele><time>2026-05-03T12:12:56.001Z</time></trkpt><trkpt lat="42.31423395089203" lon="14.074568888644462"><ele>68.0</ele><time>2026-05-03T12:12:57.001Z</time></trkpt><trkpt lat="42.314314067226796" lon="14.074731672842447"><ele>68.0</ele><time>2026-05-03T12:12:58.001Z</time></trkpt><trkpt lat="42.31439349775205" lon="14.074893958502463"><ele>68.0</ele><time>2026-05-03T12:12:59.001Z</time></trkpt><trkpt lat="42.31445986872781" lon="14.075020779504158"><ele>68.0</ele><time>2026-05-03T12:13:00.001Z</time></trkpt><trkpt lat="42.31451493434751" lon="14.0751303616304"><ele>68.0</ele><time>2026-05-03T12:13:01.001Z</time></trkpt><trkpt lat="42.3145796995041" lon="14.075241651219502"><ele>68.0</ele><time>2026-05-03T12:13:02.001Z</time></trkpt><trkpt lat="42.31463894672296" lon="14.07538746454135"><ele>68.0</ele><time>2026-05-03T12:13:03.001Z</time></trkpt><trkpt lat="42.3147036458847" lon="14.075561383233621"><ele>68.0</ele><time>2026-05-03T12:13:04.001Z</time></trkpt><trkpt lat="42.31478527219816" lon="14.075746092942373"><ele>68.33333333333334</ele><time>2026-05-03T12:13:05.001Z</time></trkpt><trkpt lat="42.31487779246107" lon="14.075938307782996"><ele>68.66666666666667</ele><time>2026-05-03T12:13:06.001Z</time></trkpt><trkpt lat="42.314975999398285" lon="14.076136228816344"><ele>69.0</ele><time>2026-05-03T12:13:07.001Z</time></trkpt><trkpt lat="42.31507857452324" lon="14.076341287658934"><ele>69.0</ele><time>2026-05-03T12:13:08.001Z</time></trkpt><trkpt lat="42.3151793186807" lon="14.076552871339688"><ele>69.0</ele><time>2026-05-03T12:13:09.001Z</time></trkpt><trkpt lat="42.3152797775696" lon="14.076764994416028"><ele>69.0</ele><time>2026-05-03T12:13:10.001Z</time></trkpt><trkpt lat="42.31537933312642" lon="14.076975235267385"><ele>69.0</ele><time>2026-05-03T12:13:11.001Z</time></trkpt><trkpt lat="42.31547372296208" lon="14.07717481383027"><ele>69.0</ele><time>2026-05-03T12:13:12.001Z</time></trkpt><trkpt lat="42.31556662866285" lon="14.077369190596475"><ele>69.0</ele><time>2026-05-03T12:13:13.001Z</time></trkpt><trkpt lat="42.315659573787215" lon="14.077562130172437"><ele>68.66666666666667</ele><time>2026-05-03T12:13:14.001Z</time></trkpt><trkpt lat="42.31575919471763" lon="14.077765516592917"><ele>68.33333333333334</ele><time>2026-05-03T12:13:15.001Z</time></trkpt><trkpt lat="42.3158583351863" lon="14.077973149848875"><ele>68.0</ele><time>2026-05-03T12:13:16.001Z</time></trkpt><trkpt lat="42.315957870242464" lon="14.078180436880874"><ele>68.0</ele><time>2026-05-03T12:13:17.001Z</time></trkpt><trkpt lat="42.31605553439836" lon="14.078380572212005"><ele>68.0</ele><time>2026-05-03T12:13:18Z</time></trkpt><trkpt lat="42.31614786858576" lon="14.078576766127076"><ele>68.0</ele><time>2026-05-03T12:13:19Z</time></trkpt><trkpt lat="42.31623270789582" lon="14.078754087435815"><ele>68.0</ele><time>2026-05-03T12:13:20Z</time></trkpt><trkpt lat="42.31631730785842" lon="14.07892981778496"><ele>68.0</ele><time>2026-05-03T12:13:21Z</time></trkpt><trkpt lat="42.31640207119332" lon="14.07911050842816"><ele>68.0</ele><time>2026-05-03T12:13:22Z</time></trkpt><trkpt lat="42.316494970408584" lon="14.0793029237355"><ele>67.66666666666667</ele><time>2026-05-03T12:13:23Z</time></trkpt><trkpt lat="42.31658557815404" lon="14.079493202465796"><ele>67.33333333333333</ele><time>2026-05-03T12:13:24Z</time></trkpt><trkpt lat="42.316670177547614" lon="14.079671086857289"><ele>67.0</ele><time>2026-05-03T12:13:25Z</time></trkpt><trkpt lat="42.316752505639215" lon="14.079844172659667"><ele>67.0</ele><time>2026-05-03T12:13:26Z</time></trkpt><trkpt lat="42.316839048622334" lon="14.080011674472905"><ele>67.0</ele><time>2026-05-03T12:13:27Z</time></trkpt><trkpt lat="42.31691672759656" lon="14.080177738830425"><ele>67.0</ele><time>2026-05-03T12:13:28Z</time></trkpt><trkpt lat="42.3169984410506" lon="14.080353623216482"><ele>67.0</ele><time>2026-05-03T12:13:29Z</time></trkpt><trkpt lat="42.317080979762885" lon="14.080527434380414"><ele>67.0</ele><time>2026-05-03T12:13:30Z</time></trkpt><trkpt lat="42.3171598467771" lon="14.080702030964538"><ele>67.0</ele><time>2026-05-03T12:13:31Z</time></trkpt><trkpt lat="42.31724540170593" lon="14.080879361656752"><ele>66.33333333333333</ele><time>2026-05-03T12:13:32Z</time></trkpt><trkpt lat="42.31733134930865" lon="14.081056138956058"><ele>65.66666666666667</ele><time>2026-05-03T12:13:33Z</time></trkpt><trkpt lat="42.31741734571778" lon="14.08123612158896"><ele>65.0</ele><time>2026-05-03T12:13:34Z</time></trkpt><trkpt lat="42.31750076286793" lon="14.081411721409225"><ele>65.0</ele><time>2026-05-03T12:13:35Z</time></trkpt><trkpt lat="42.317586313370384" lon="14.081584553821793"><ele>65.0</ele><time>2026-05-03T12:13:36Z</time></trkpt><trkpt lat="42.31766716946021" lon="14.081755921218166"><ele>65.0</ele><time>2026-05-03T12:13:37Z</time></trkpt><trkpt lat="42.3177490069567" lon="14.081935959873565"><ele>64.66666666666667</ele><time>2026-05-03T12:13:38Z</time></trkpt><trkpt lat="42.317834371493674" lon="14.082119625262917"><ele>64.33333333333333</ele><time>2026-05-03T12:13:39Z</time></trkpt><trkpt lat="42.31792468169301" lon="14.08231058763859"><ele>64.0</ele><time>2026-05-03T12:13:40Z</time></trkpt><trkpt lat="42.31801662948428" lon="14.082489157871082"><ele>64.0</ele><time>2026-05-03T12:13:41Z</time></trkpt><trkpt lat="42.31810617692843" lon="14.082672276112"><ele>64.0</ele><time>2026-05-03T12:13:42Z</time></trkpt><trkpt lat="42.318191835226656" lon="14.082849756741174"><ele>64.0</ele><time>2026-05-03T12:13:43Z</time></trkpt><trkpt lat="42.31827283927285" lon="14.083028429017213"><ele>64.0</ele><time>2026-05-03T12:13:44Z</time></trkpt><trkpt lat="42.31835534683008" lon="14.083204851877152"><ele>64.0</ele><time>2026-05-03T12:13:45Z</time></trkpt><trkpt lat="42.3184383631701" lon="14.083378784282136"><ele>64.0</ele><time>2026-05-03T12:13:46Z</time></trkpt><trkpt lat="42.31852798746958" lon="14.083559681051153"><ele>64.0</ele><time>2026-05-03T12:13:47Z</time></trkpt><trkpt lat="42.3186194862757" lon="14.083746708594477"><ele>64.0</ele><time>2026-05-03T12:13:48Z</time></trkpt><trkpt lat="42.31870472962024" lon="14.083922218035145"><ele>64.0</ele><time>2026-05-03T12:13:49Z</time></trkpt><trkpt lat="42.318782892893076" lon="14.084097452120485"><ele>64.0</ele><time>2026-05-03T12:13:50Z</time></trkpt><trkpt lat="42.31886373053256" lon="14.084266295011584"><ele>64.0</ele><time>2026-05-03T12:13:51Z</time></trkpt><trkpt lat="42.31895084784341" lon="14.084447192243196"><ele>64.0</ele><time>2026-05-03T12:13:52Z</time></trkpt><trkpt lat="42.31904701549192" lon="14.084646101575949"><ele>63.666666666666664</ele><time>2026-05-03T12:13:53Z</time></trkpt><trkpt lat="42.31914932783086" lon="14.084857036117272"><ele>63.33333333333333</ele><time>2026-05-03T12:13:54Z</time></trkpt><trkpt lat="42.319239842249964" lon="14.085047590442894"><ele>63.0</ele><time>2026-05-03T12:13:55Z</time></trkpt><trkpt lat="42.31934236518746" lon="14.085258841553472"><ele>62.66666666666667</ele><time>2026-05-03T12:13:56Z</time></trkpt><trkpt lat="42.31944972961592" lon="14.085469876055884"><ele>62.333333333333336</ele><time>2026-05-03T12:13:57Z</time></trkpt><trkpt lat="42.3195578570276" lon="14.085683405779246"><ele>62.0</ele><time>2026-05-03T12:13:58Z</time></trkpt><trkpt lat="42.31965398333569" lon="14.085888474189957"><ele>61.0</ele><time>2026-05-03T12:13:59Z</time></trkpt><trkpt lat="42.3197500270986" lon="14.086097016803599"><ele>60.0</ele><time>2026-05-03T12:14:00Z</time></trkpt><trkpt lat="42.31985387865274" lon="14.086312292617066"><ele>59.0</ele><time>2026-05-03T12:14:01Z</time></trkpt><trkpt lat="42.31995683779287" lon="14.086535119906728"><ele>59.66666666666667</ele><time>2026-05-03T12:14:02Z</time></trkpt><trkpt lat="42.32005917093399" lon="14.08675554773004"><ele>60.33333333333333</ele><time>2026-05-03T12:14:03Z</time></trkpt><trkpt lat="42.32015905455296" lon="14.086958943630263"><ele>61.0</ele><time>2026-05-03T12:14:04Z</time></trkpt><trkpt lat="42.32025646269434" lon="14.087153936374849"><ele>61.0</ele><time>2026-05-03T12:14:05Z</time></trkpt><trkpt lat="42.32035228940129" lon="14.08735162712331"><ele>61.0</ele><time>2026-05-03T12:14:06Z</time></trkpt><trkpt lat="42.32044945411362" lon="14.087559834219606"><ele>61.0</ele><time>2026-05-03T12:14:07Z</time></trkpt><trkpt lat="42.3205528532854" lon="14.087769853204946"><ele>60.666666666666664</ele><time>2026-05-03T12:14:08Z</time></trkpt><trkpt lat="42.32065624785602" lon="14.087986659420231"><ele>60.33333333333333</ele><time>2026-05-03T12:14:09Z</time></trkpt><trkpt lat="42.32076164890338" lon="14.088207302477787"><ele>60.0</ele><time>2026-05-03T12:14:10Z</time></trkpt><trkpt lat="42.32086732041048" lon="14.0884255771183"><ele>60.0</ele><time>2026-05-03T12:14:11Z</time></trkpt><trkpt lat="42.32096729882935" lon="14.088633319799623"><ele>60.0</ele><time>2026-05-03T12:14:12Z</time></trkpt><trkpt lat="42.32106952574252" lon="14.088842864845557"><ele>60.0</ele><time>2026-05-03T12:14:13Z</time></trkpt><trkpt lat="42.321171368917554" lon="14.089057125485978"><ele>59.66666666666667</ele><time>2026-05-03T12:14:14Z</time></trkpt><trkpt lat="42.32126441497423" lon="14.089257716721244"><ele>59.333333333333336</ele><time>2026-05-03T12:14:15Z</time></trkpt><trkpt lat="42.3213582382712" lon="14.08945395854775"><ele>59.0</ele><time>2026-05-03T12:14:16Z</time></trkpt><trkpt lat="42.321448839947415" lon="14.089643271082535"><ele>59.0</ele><time>2026-05-03T12:14:17Z</time></trkpt><trkpt lat="42.32153883778896" lon="14.089829598970914"><ele>59.0</ele><time>2026-05-03T12:14:18Z</time></trkpt><trkpt lat="42.32162690410854" lon="14.090012257916989"><ele>59.0</ele><time>2026-05-03T12:14:19.001Z</time></trkpt><trkpt lat="42.32171124304371" lon="14.090190944402432"><ele>58.66666666666667</ele><time>2026-05-03T12:14:20.001Z</time></trkpt><trkpt lat="42.321799838761045" lon="14.090373995014263"><ele>58.33333333333333</ele><time>2026-05-03T12:14:21.001Z</time></trkpt><trkpt lat="42.321888965512265" lon="14.090564086900027"><ele>58.0</ele><time>2026-05-03T12:14:22.001Z</time></trkpt><trkpt lat="42.32198100696518" lon="14.09075561082186"><ele>58.0</ele><time>2026-05-03T12:14:23.001Z</time></trkpt><trkpt lat="42.32207303176357" lon="14.090946414192228"><ele>58.0</ele><time>2026-05-03T12:14:24.001Z</time></trkpt><trkpt lat="42.32216320071553" lon="14.09113677646245"><ele>58.0</ele><time>2026-05-03T12:14:25.001Z</time></trkpt><trkpt lat="42.32225925857833" lon="14.091338832084977"><ele>58.33333333333333</ele><time>2026-05-03T12:14:26.001Z</time></trkpt><trkpt lat="42.322357405269855" lon="14.09154094615195"><ele>58.66666666666667</ele><time>2026-05-03T12:14:27.001Z</time></trkpt><trkpt lat="42.32244911080013" lon="14.091738321851837"><ele>59.0</ele><time>2026-05-03T12:14:28.001Z</time></trkpt><trkpt lat="42.32254184108633" lon="14.091933999662887"><ele>59.0</ele><time>2026-05-03T12:14:29.001Z</time></trkpt><trkpt lat="42.32263749046035" lon="14.092133950761895"><ele>59.0</ele><time>2026-05-03T12:14:30.001Z</time></trkpt><trkpt lat="42.322729875809834" lon="14.092332466347006"><ele>59.0</ele><time>2026-05-03T12:14:31.001Z</time></trkpt><trkpt lat="42.32282950379704" lon="14.092535140179466"><ele>58.66666666666667</ele><time>2026-05-03T12:14:32.001Z</time></trkpt><trkpt lat="42.32292777786829" lon="14.092734981293404"><ele>58.33333333333333</ele><time>2026-05-03T12:14:33.001Z</time></trkpt><trkpt lat="42.32301991674473" lon="14.092926521235869"><ele>58.0</ele><time>2026-05-03T12:14:34.001Z</time></trkpt><trkpt lat="42.32311292627876" lon="14.093118741741158"><ele>58.0</ele><time>2026-05-03T12:14:35.001Z</time></trkpt><trkpt lat="42.32320398531741" lon="14.093311635966678"><ele>58.0</ele><time>2026-05-03T12:14:36.001Z</time></trkpt><trkpt lat="42.32329771064337" lon="14.093503041895334"><ele>58.0</ele><time>2026-05-03T12:14:37.001Z</time></trkpt><trkpt lat="42.323389789417554" lon="14.093693298101805"><ele>58.0</ele><time>2026-05-03T12:14:38.001Z</time></trkpt><trkpt lat="42.3234786288547" lon="14.093896356461068"><ele>58.0</ele><time>2026-05-03T12:14:39.001Z</time></trkpt><trkpt lat="42.3235547038209" lon="14.09411477153362"><ele>58.0</ele><time>2026-05-03T12:14:40.001Z</time></trkpt><trkpt lat="42.32361889158531" lon="14.094350095743346"><ele>58.0</ele><time>2026-05-03T12:14:41.001Z</time></trkpt><trkpt lat="42.32367023027049" lon="14.094594512374368"><ele>58.0</ele><time>2026-05-03T12:14:42.001Z</time></trkpt><trkpt lat="42.323709530488266" lon="14.094823154526422"><ele>58.0</ele><time>2026-05-03T12:14:43.001Z</time></trkpt><trkpt lat="42.323755442141454" lon="14.095044613091092"><ele>58.33333333333333</ele><time>2026-05-03T12:14:44.001Z</time></trkpt><trkpt lat="42.32380250658101" lon="14.0952730091174"><ele>58.66666666666667</ele><time>2026-05-03T12:14:45.001Z</time></trkpt><trkpt lat="42.32385003417246" lon="14.095500918692421"><ele>59.0</ele><time>2026-05-03T12:14:46.001Z</time></trkpt><trkpt lat="42.32389986604829" lon="14.09573078469451"><ele>58.66666666666667</ele><time>2026-05-03T12:14:47.001Z</time></trkpt><trkpt lat="42.323946783340105" lon="14.095965517439316"><ele>58.33333333333333</ele><time>2026-05-03T12:14:48.001Z</time></trkpt><trkpt lat="42.32399429929585" lon="14.09620040987545"><ele>58.0</ele><time>2026-05-03T12:14:49.001Z</time></trkpt><trkpt lat="42.32404141148123" lon="14.096436502689235"><ele>58.0</ele><time>2026-05-03T12:14:50.001Z</time></trkpt><trkpt lat="42.324086400028406" lon="14.096667738515713"><ele>58.0</ele><time>2026-05-03T12:14:51.001Z</time></trkpt><trkpt lat="42.32412991416082" lon="14.096898792002206"><ele>58.0</ele><time>2026-05-03T12:14:52.001Z</time></trkpt><trkpt lat="42.32417964532726" lon="14.097133359044792"><ele>58.0</ele><time>2026-05-03T12:14:53.001Z</time></trkpt><trkpt lat="42.324228070427324" lon="14.097373185962512"><ele>58.0</ele><time>2026-05-03T12:14:54.001Z</time></trkpt><trkpt lat="42.324286247088445" lon="14.097608659275698"><ele>58.0</ele><time>2026-05-03T12:14:55.001Z</time></trkpt><trkpt lat="42.32436028594492" lon="14.097843864291143"><ele>57.666666666666664</ele><time>2026-05-03T12:14:56.001Z</time></trkpt><trkpt lat="42.3244505947756" lon="14.09806589773862"><ele>57.33333333333333</ele><time>2026-05-03T12:14:57.001Z</time></trkpt><trkpt lat="42.32455754555461" lon="14.098278549810319"><ele>57.0</ele><time>2026-05-03T12:14:58.001Z</time></trkpt><trkpt lat="42.32468374807286" lon="14.098474399452984"><ele>55.66666666666667</ele><time>2026-05-03T12:14:59.001Z</time></trkpt><trkpt lat="42.32480889088859" lon="14.098666234656722"><ele>54.333333333333336</ele><time>2026-05-03T12:15:00.001Z</time></trkpt><trkpt lat="42.32492710948481" lon="14.098851217521279"><ele>53.0</ele><time>2026-05-03T12:15:01.001Z</time></trkpt><trkpt lat="42.32504082372869" lon="14.099030680851541"><ele>54.0</ele><time>2026-05-03T12:15:02.001Z</time></trkpt><trkpt lat="42.325150320822196" lon="14.099203874967476"><ele>55.0</ele><time>2026-05-03T12:15:03.001Z</time></trkpt><trkpt lat="42.325254040959145" lon="14.099370730347312"><ele>56.0</ele><time>2026-05-03T12:15:04.001Z</time></trkpt><trkpt lat="42.32535813017531" lon="14.099538422248216"><ele>56.0</ele><time>2026-05-03T12:15:05.001Z</time></trkpt><trkpt lat="42.32545743866433" lon="14.09969760200173"><ele>56.0</ele><time>2026-05-03T12:15:06.001Z</time></trkpt><trkpt lat="42.325558214148494" lon="14.099853784921262"><ele>56.0</ele><time>2026-05-03T12:15:07.001Z</time></trkpt><trkpt lat="42.3256581076459" lon="14.100003611187024"><ele>55.4</ele><time>2026-05-03T12:15:08.001Z</time></trkpt><trkpt lat="42.325740726397996" lon="14.100134946545612"><ele>54.8</ele><time>2026-05-03T12:15:09.001Z</time></trkpt><trkpt lat="42.32580959492704" lon="14.100244318739756"><ele>54.199999999999996</ele><time>2026-05-03T12:15:10.001Z</time></trkpt><trkpt lat="42.32588437687555" lon="14.10035914718384"><ele>53.599999999999994</ele><time>2026-05-03T12:15:11.001Z</time></trkpt><trkpt lat="42.32594654562969" lon="14.10046340958022"><ele>53.0</ele><time>2026-05-03T12:15:12.001Z</time></trkpt><trkpt lat="42.325995243440516" lon="14.100544456883663"><ele>53.0</ele><time>2026-05-03T12:15:13.001Z</time></trkpt><trkpt lat="42.32604000406" lon="14.100624781198668"><ele>53.0</ele><time>2026-05-03T12:15:14.001Z</time></trkpt><trkpt lat="42.32607165275155" lon="14.100704781357509"><ele>53.0</ele><time>2026-05-03T12:15:15.001Z</time></trkpt><trkpt lat="42.32609735040393" lon="14.10079254157637"><ele>53.0</ele><time>2026-05-03T12:15:16.001Z</time></trkpt><trkpt lat="42.326114512344866" lon="14.100882080670358"><ele>53.0</ele><time>2026-05-03T12:15:17.001Z</time></trkpt><trkpt lat="42.32612502969627" lon="14.100981432401493"><ele>53.0</ele><time>2026-05-03T12:15:18.001Z</time></trkpt><trkpt lat="42.32613648306482" lon="14.101071407006451"><ele>53.0</ele><time>2026-05-03T12:15:19.001Z</time></trkpt><trkpt lat="42.326175269118885" lon="14.101158223257475"><ele>53.4</ele><time>2026-05-03T12:15:20.001Z</time></trkpt><trkpt lat="42.326237420832335" lon="14.1012209453702"><ele>53.8</ele><time>2026-05-03T12:15:21.001Z</time></trkpt><trkpt lat="42.326317432598934" lon="14.101249041731846"><ele>54.2</ele><time>2026-05-03T12:15:22.001Z</time></trkpt><trkpt lat="42.326405591899636" lon="14.101287303100266"><ele>54.6</ele><time>2026-05-03T12:15:23.001Z</time></trkpt><trkpt lat="42.32649185678286" lon="14.101359216468245"><ele>55.0</ele><time>2026-05-03T12:15:24Z</time></trkpt><trkpt lat="42.32657616542831" lon="14.101466019783059"><ele>55.0</ele><time>2026-05-03T12:15:25Z</time></trkpt><trkpt lat="42.326662975696195" lon="14.101599780487831"><ele>55.0</ele><time>2026-05-03T12:15:26Z</time></trkpt><trkpt lat="42.32674832714201" lon="14.101744724185508"><ele>55.0</ele><time>2026-05-03T12:15:27Z</time></trkpt><trkpt lat="42.32684170732844" lon="14.101893570260096"><ele>55.0</ele><time>2026-05-03T12:15:28Z</time></trkpt><trkpt lat="42.32693513414634" lon="14.10204757102062"><ele>55.0</ele><time>2026-05-03T12:15:29Z</time></trkpt><trkpt lat="42.32702205410843" lon="14.102200913484205"><ele>55.0</ele><time>2026-05-03T12:15:30Z</time></trkpt><trkpt lat="42.32710333922904" lon="14.10235562537623"><ele>55.0</ele><time>2026-05-03T12:15:31Z</time></trkpt><trkpt lat="42.3271782607922" lon="14.102536312213632"><ele>55.0</ele><time>2026-05-03T12:15:32Z</time></trkpt><trkpt lat="42.32724584450952" lon="14.102730578190343"><ele>53.0</ele><time>2026-05-03T12:15:33Z</time></trkpt><trkpt lat="42.32730462152662" lon="14.102925658933422"><ele>51.0</ele><time>2026-05-03T12:15:34Z</time></trkpt><trkpt lat="42.32736151292287" lon="14.103111667454762"><ele>49.0</ele><time>2026-05-03T12:15:35Z</time></trkpt><trkpt lat="42.32742054155459" lon="14.103295575039851"><ele>49.0</ele><time>2026-05-03T12:15:36Z</time></trkpt><trkpt lat="42.32748119445432" lon="14.103479147811239"><ele>49.0</ele><time>2026-05-03T12:15:37Z</time></trkpt><trkpt lat="42.32754380441161" lon="14.103669590926645"><ele>49.0</ele><time>2026-05-03T12:15:38Z</time></trkpt><trkpt lat="42.32760210093192" lon="14.103848634870968"><ele>49.0</ele><time>2026-05-03T12:15:39Z</time></trkpt><trkpt lat="42.32766036847394" lon="14.104027106211873"><ele>48.33333333333333</ele><time>2026-05-03T12:15:40Z</time></trkpt><trkpt lat="42.32772064445392" lon="14.104204532926367"><ele>47.666666666666664</ele><time>2026-05-03T12:15:41Z</time></trkpt><trkpt lat="42.32778660564443" lon="14.104405986869478"><ele>47.0</ele><time>2026-05-03T12:15:42Z</time></trkpt><trkpt lat="42.32785203658355" lon="14.104620398392747"><ele>47.0</ele><time>2026-05-03T12:15:43Z</time></trkpt><trkpt lat="42.327908559155155" lon="14.104810897271827"><ele>47.0</ele><time>2026-05-03T12:15:44Z</time></trkpt><trkpt lat="42.327961539584436" lon="14.104981572658295"><ele>47.0</ele><time>2026-05-03T12:15:45Z</time></trkpt><trkpt lat="42.328022001017544" lon="14.10516241358513"><ele>47.0</ele><time>2026-05-03T12:15:46Z</time></trkpt><trkpt lat="42.328092834431274" lon="14.105383899082243"><ele>46.666666666666664</ele><time>2026-05-03T12:15:47Z</time></trkpt><trkpt lat="42.3281537053547" lon="14.105599521281682"><ele>46.333333333333336</ele><time>2026-05-03T12:15:48Z</time></trkpt><trkpt lat="42.32821504676849" lon="14.105801331842354"><ele>46.0</ele><time>2026-05-03T12:15:49Z</time></trkpt><trkpt lat="42.32826867986001" lon="14.105995311701266"><ele>46.0</ele><time>2026-05-03T12:15:50Z</time></trkpt><trkpt lat="42.32831756326222" lon="14.10615280025292"><ele>46.0</ele><time>2026-05-03T12:15:51Z</time></trkpt><trkpt lat="42.328363774761165" lon="14.106307938672865"><ele>46.0</ele><time>2026-05-03T12:15:52Z</time></trkpt><trkpt lat="42.32841732093549" lon="14.106452630945284"><ele>46.0</ele><time>2026-05-03T12:15:53Z</time></trkpt><trkpt lat="42.32846250217329" lon="14.106594345252944"><ele>46.0</ele><time>2026-05-03T12:15:54Z</time></trkpt><trkpt lat="42.328501904962295" lon="14.106729084720811"><ele>46.0</ele><time>2026-05-03T12:15:55Z</time></trkpt><trkpt lat="42.328539912354834" lon="14.10685901939387"><ele>46.0</ele><time>2026-05-03T12:15:56Z</time></trkpt><trkpt lat="42.32857845836687" lon="14.106990302210134"><ele>46.0</ele><time>2026-05-03T12:15:57Z</time></trkpt><trkpt lat="42.328618745815675" lon="14.107126034300212"><ele>46.0</ele><time>2026-05-03T12:15:58Z</time></trkpt><trkpt lat="42.32866564207427" lon="14.107270151366466"><ele>46.0</ele><time>2026-05-03T12:15:59Z</time></trkpt><trkpt lat="42.32871541078225" lon="14.107421015926974"><ele>46.0</ele><time>2026-05-03T12:16:00Z</time></trkpt><trkpt lat="42.32876600735737" lon="14.107566926650657"><ele>46.0</ele><time>2026-05-03T12:16:01Z</time></trkpt><trkpt lat="42.328812607657376" lon="14.107710166294714"><ele>46.0</ele><time>2026-05-03T12:16:02Z</time></trkpt><trkpt lat="42.32886072308535" lon="14.107869730722369"><ele>44.75</ele><time>2026-05-03T12:16:03Z</time></trkpt><trkpt lat="42.32891451549985" lon="14.108032387553799"><ele>43.5</ele><time>2026-05-03T12:16:04Z</time></trkpt><trkpt lat="42.32896613972552" lon="14.108187786383755"><ele>42.25</ele><time>2026-05-03T12:16:05Z</time></trkpt><trkpt lat="42.329019870532626" lon="14.108339139945242"><ele>41.0</ele><time>2026-05-03T12:16:06Z</time></trkpt><trkpt lat="42.32906972260093" lon="14.108493188123905"><ele>41.0</ele><time>2026-05-03T12:16:07Z</time></trkpt><trkpt lat="42.32911557769701" lon="14.108649776022672"><ele>41.0</ele><time>2026-05-03T12:16:08Z</time></trkpt><trkpt lat="42.32916232961316" lon="14.108801826937295"><ele>41.0</ele><time>2026-05-03T12:16:09Z</time></trkpt><trkpt lat="42.32921058101392" lon="14.108959879656783"><ele>41.0</ele><time>2026-05-03T12:16:10Z</time></trkpt><trkpt lat="42.32925972503411" lon="14.109112424782278"><ele>41.5</ele><time>2026-05-03T12:16:11Z</time></trkpt><trkpt lat="42.32930909949033" lon="14.109273332758693"><ele>42.0</ele><time>2026-05-03T12:16:12Z</time></trkpt><trkpt lat="42.32936135592518" lon="14.109430548766344"><ele>42.5</ele><time>2026-05-03T12:16:13Z</time></trkpt><trkpt lat="42.32940899718343" lon="14.10958621861606"><ele>43.0</ele><time>2026-05-03T12:16:14Z</time></trkpt><trkpt lat="42.32945807400055" lon="14.109747122598941"><ele>43.25</ele><time>2026-05-03T12:16:15Z</time></trkpt><trkpt lat="42.329506451213135" lon="14.109914197981537"><ele>43.5</ele><time>2026-05-03T12:16:16Z</time></trkpt><trkpt lat="42.32955637248478" lon="14.110076290299876"><ele>43.75</ele><time>2026-05-03T12:16:17Z</time></trkpt><trkpt lat="42.3296042066981" lon="14.110239078519287"><ele>44.0</ele><time>2026-05-03T12:16:18Z</time></trkpt><trkpt lat="42.32965326751305" lon="14.11039234293475"><ele>44.0</ele><time>2026-05-03T12:16:19Z</time></trkpt><trkpt lat="42.329704589547454" lon="14.11053123483484"><ele>44.0</ele><time>2026-05-03T12:16:20Z</time></trkpt><trkpt lat="42.32975121583099" lon="14.110667245089072"><ele>44.0</ele><time>2026-05-03T12:16:21Z</time></trkpt><trkpt lat="42.329793278461764" lon="14.110804740428145"><ele>44.0</ele><time>2026-05-03T12:16:22.001Z</time></trkpt><trkpt lat="42.32983581642038" lon="14.110947362397601"><ele>44.0</ele><time>2026-05-03T12:16:23.001Z</time></trkpt><trkpt lat="42.32988030093018" lon="14.111086449268088"><ele>43.800000000000004</ele><time>2026-05-03T12:16:24.001Z</time></trkpt><trkpt lat="42.32992690305608" lon="14.111227254542907"><ele>43.6</ele><time>2026-05-03T12:16:25.001Z</time></trkpt><trkpt lat="42.32997262455074" lon="14.111361748483771"><ele>43.4</ele><time>2026-05-03T12:16:26.001Z</time></trkpt><trkpt lat="42.33001632905272" lon="14.111497523951714"><ele>43.2</ele><time>2026-05-03T12:16:27.001Z</time></trkpt><trkpt lat="42.330058140139435" lon="14.111627600671435"><ele>43.0</ele><time>2026-05-03T12:16:28.001Z</time></trkpt><trkpt lat="42.33009856907197" lon="14.111761720983873"><ele>43.0</ele><time>2026-05-03T12:16:29.001Z</time></trkpt><trkpt lat="42.3301390840366" lon="14.111897679651356"><ele>43.0</ele><time>2026-05-03T12:16:30.001Z</time></trkpt><trkpt lat="42.330179973990376" lon="14.112028895866144"><ele>43.0</ele><time>2026-05-03T12:16:31.001Z</time></trkpt><trkpt lat="42.330219378257766" lon="14.112156367530407"><ele>43.0</ele><time>2026-05-03T12:16:32.001Z</time></trkpt><trkpt lat="42.330256641918496" lon="14.112281642499612"><ele>43.0</ele><time>2026-05-03T12:16:33.001Z</time></trkpt><trkpt lat="42.330293857748494" lon="14.112407053277186"><ele>43.0</ele><time>2026-05-03T12:16:34.001Z</time></trkpt><trkpt lat="42.33032895197719" lon="14.112522656495429"><ele>43.0</ele><time>2026-05-03T12:16:35.001Z</time></trkpt><trkpt lat="42.330360184437076" lon="14.112634016197612"><ele>43.0</ele><time>2026-05-03T12:16:36.001Z</time></trkpt><trkpt lat="42.3303899554083" lon="14.112743225673071"><ele>43.0</ele><time>2026-05-03T12:16:37.001Z</time></trkpt><trkpt lat="42.330410128103175" lon="14.11284828568728"><ele>43.0</ele><time>2026-05-03T12:16:38.001Z</time></trkpt><trkpt lat="42.33042013007471" lon="14.11295033961692"><ele>43.0</ele><time>2026-05-03T12:16:39.001Z</time></trkpt><trkpt lat="42.33041709400258" lon="14.113047014334667"><ele>43.0</ele><time>2026-05-03T12:16:40.001Z</time></trkpt><trkpt lat="42.33042274622143" lon="14.113141642919745"><ele>43.0</ele><time>2026-05-03T12:16:41.001Z</time></trkpt><trkpt lat="42.33045110617874" lon="14.113219013977956"><ele>43.0</ele><time>2026-05-03T12:16:42.001Z</time></trkpt><trkpt lat="42.33050184998263" lon="14.113286609721046"><ele>43.0</ele><time>2026-05-03T12:16:43.001Z</time></trkpt><trkpt lat="42.330564392577486" lon="14.11335406057785"><ele>43.0</ele><time>2026-05-03T12:16:44.001Z</time></trkpt><trkpt lat="42.330620738558444" lon="14.11345101137064"><ele>43.0</ele><time>2026-05-03T12:16:45.001Z</time></trkpt><trkpt lat="42.33066588589671" lon="14.113547513520466"><ele>41.75</ele><time>2026-05-03T12:16:46.001Z</time></trkpt><trkpt lat="42.33070924665182" lon="14.113691948188158"><ele>40.5</ele><time>2026-05-03T12:16:47.001Z</time></trkpt><trkpt lat="42.330754216000855" lon="14.113851967337109"><ele>39.25</ele><time>2026-05-03T12:16:48.001Z</time></trkpt><trkpt lat="42.3307968588763" lon="14.114005361794295"><ele>38.0</ele><time>2026-05-03T12:16:49.001Z</time></trkpt><trkpt lat="42.330839883126984" lon="14.114157979706766"><ele>38.0</ele><time>2026-05-03T12:16:50.001Z</time></trkpt><trkpt lat="42.33088719700589" lon="14.11430734149109"><ele>38.0</ele><time>2026-05-03T12:16:51.001Z</time></trkpt><trkpt lat="42.33092860612813" lon="14.11445638036545"><ele>38.0</ele><time>2026-05-03T12:16:52.001Z</time></trkpt><trkpt lat="42.330977062161615" lon="14.1146021128442"><ele>38.0</ele><time>2026-05-03T12:16:53.001Z</time></trkpt><trkpt lat="42.3310269315041" lon="14.114749596764641"><ele>38.0</ele><time>2026-05-03T12:16:54.001Z</time></trkpt><trkpt lat="42.33107264120508" lon="14.114891897285327"><ele>38.0</ele><time>2026-05-03T12:16:55.001Z</time></trkpt><trkpt lat="42.33111998830066" lon="14.115041396461615"><ele>38.0</ele><time>2026-05-03T12:16:56.001Z</time></trkpt><trkpt lat="42.3311652054995" lon="14.11519101153868"><ele>38.0</ele><time>2026-05-03T12:16:57.001Z</time></trkpt><trkpt lat="42.3312139085602" lon="14.11535592844388"><ele>38.0</ele><time>2026-05-03T12:16:58.001Z</time></trkpt><trkpt lat="42.33126536848002" lon="14.11551175455819"><ele>38.0</ele><time>2026-05-03T12:16:59.001Z</time></trkpt><trkpt lat="42.33131699581315" lon="14.115657387892274"><ele>38.0</ele><time>2026-05-03T12:17:00.001Z</time></trkpt><trkpt lat="42.33136219726839" lon="14.115797771595526"><ele>38.0</ele><time>2026-05-03T12:17:01.001Z</time></trkpt><trkpt lat="42.331416906866835" lon="14.115955723637608"><ele>38.0</ele><time>2026-05-03T12:17:02.001Z</time></trkpt><trkpt lat="42.33147868127736" lon="14.11612104786909"><ele>38.0</ele><time>2026-05-03T12:17:03.001Z</time></trkpt><trkpt lat="42.331552112305296" lon="14.116336620161153"><ele>38.0</ele><time>2026-05-03T12:17:04.001Z</time></trkpt><trkpt lat="42.33162467772354" lon="14.116598697971279"><ele>38.0</ele><time>2026-05-03T12:17:05.001Z</time></trkpt><trkpt lat="42.331693311434755" lon="14.116854861702326"><ele>38.0</ele><time>2026-05-03T12:17:06.001Z</time></trkpt><trkpt lat="42.33175951150856" lon="14.117093656874145"><ele>38.0</ele><time>2026-05-03T12:17:07.001Z</time></trkpt><trkpt lat="42.331825620282835" lon="14.11731795676115"><ele>38.666666666666664</ele><time>2026-05-03T12:17:08.001Z</time></trkpt><trkpt lat="42.331893560562975" lon="14.117522004985391"><ele>39.333333333333336</ele><time>2026-05-03T12:17:09.001Z</time></trkpt><trkpt lat="42.33195804711612" lon="14.117719145080631"><ele>40.0</ele><time>2026-05-03T12:17:10.001Z</time></trkpt><trkpt lat="42.33202114308591" lon="14.117916013951927"><ele>40.0</ele><time>2026-05-03T12:17:11.001Z</time></trkpt><trkpt lat="42.332087320512585" lon="14.11812977676369"><ele>40.0</ele><time>2026-05-03T12:17:12.001Z</time></trkpt><trkpt lat="42.33215990028365" lon="14.118353114707768"><ele>40.0</ele><time>2026-05-03T12:17:13.001Z</time></trkpt><trkpt lat="42.33221970125486" lon="14.11854510775982"><ele>39.333333333333336</ele><time>2026-05-03T12:17:14.001Z</time></trkpt><trkpt lat="42.33227593699936" lon="14.118721403238514"><ele>38.666666666666664</ele><time>2026-05-03T12:17:15.001Z</time></trkpt><trkpt lat="42.33233016841837" lon="14.118901584536166"><ele>38.0</ele><time>2026-05-03T12:17:16.001Z</time></trkpt><trkpt lat="42.33239571240556" lon="14.119116468411642"><ele>37.666666666666664</ele><time>2026-05-03T12:17:17.001Z</time></trkpt><trkpt lat="42.33245784339027" lon="14.119332771885558"><ele>37.333333333333336</ele><time>2026-05-03T12:17:18.001Z</time></trkpt><trkpt lat="42.33252061578494" lon="14.119520408695799"><ele>37.0</ele><time>2026-05-03T12:17:19.001Z</time></trkpt><trkpt lat="42.33257521896667" lon="14.119695288603557"><ele>37.0</ele><time>2026-05-03T12:17:20.001Z</time></trkpt><trkpt lat="42.33262613021296" lon="14.119856434204161"><ele>37.0</ele><time>2026-05-03T12:17:21.001Z</time></trkpt><trkpt lat="42.33268402094699" lon="14.120033222711383"><ele>37.0</ele><time>2026-05-03T12:17:22.001Z</time></trkpt><trkpt lat="42.33276039373002" lon="14.120231675767682"><ele>37.0</ele><time>2026-05-03T12:17:23.001Z</time></trkpt><trkpt lat="42.332835772281534" lon="14.120456660114762"><ele>38.0</ele><time>2026-05-03T12:17:24.001Z</time></trkpt><trkpt lat="42.332903410157826" lon="14.12068922876573"><ele>39.0</ele><time>2026-05-03T12:17:25.001Z</time></trkpt><trkpt lat="42.33296844239352" lon="14.120898047735865"><ele>40.0</ele><time>2026-05-03T12:17:26.001Z</time></trkpt><trkpt lat="42.33302654631777" lon="14.121091320270674"><ele>40.5</ele><time>2026-05-03T12:17:27.001Z</time></trkpt><trkpt lat="42.33307943493278" lon="14.121284863321524"><ele>41.0</ele><time>2026-05-03T12:17:28.001Z</time></trkpt><trkpt lat="42.333131985154935" lon="14.121464879370835"><ele>41.5</ele><time>2026-05-03T12:17:29Z</time></trkpt><trkpt lat="42.333186367233075" lon="14.121640990977468"><ele>42.0</ele><time>2026-05-03T12:17:30Z</time></trkpt><trkpt lat="42.333241800953154" lon="14.121801548484761"><ele>42.0</ele><time>2026-05-03T12:17:31Z</time></trkpt><trkpt lat="42.33328856440798" lon="14.12196751032371"><ele>42.0</ele><time>2026-05-03T12:17:32Z</time></trkpt><trkpt lat="42.33333332765452" lon="14.122120853719546"><ele>42.0</ele><time>2026-05-03T12:17:33Z</time></trkpt><trkpt lat="42.333377590439454" lon="14.12226818185828"><ele>42.0</ele><time>2026-05-03T12:17:34Z</time></trkpt><trkpt lat="42.33342256168877" lon="14.122411036047154"><ele>42.400000000000006</ele><time>2026-05-03T12:17:35Z</time></trkpt><trkpt lat="42.33346669521173" lon="14.122552166982436"><ele>42.800000000000004</ele><time>2026-05-03T12:17:36Z</time></trkpt><trkpt lat="42.3335134937417" lon="14.122694232240539"><ele>43.2</ele><time>2026-05-03T12:17:37Z</time></trkpt><trkpt lat="42.33355498389034" lon="14.122830867111025"><ele>43.6</ele><time>2026-05-03T12:17:38Z</time></trkpt><trkpt lat="42.333599212226815" lon="14.12296244269357"><ele>44.0</ele><time>2026-05-03T12:17:39Z</time></trkpt><trkpt lat="42.33364153629855" lon="14.123092907197446"><ele>44.0</ele><time>2026-05-03T12:17:40Z</time></trkpt><trkpt lat="42.33368058121657" lon="14.123213210120777"><ele>44.0</ele><time>2026-05-03T12:17:41Z</time></trkpt><trkpt lat="42.333719212388665" lon="14.12333344328613"><ele>44.0</ele><time>2026-05-03T12:17:42Z</time></trkpt><trkpt lat="42.3337585213485" lon="14.123458658575931"><ele>44.0</ele><time>2026-05-03T12:17:43Z</time></trkpt><trkpt lat="42.33379860249424" lon="14.12359477992167"><ele>44.0</ele><time>2026-05-03T12:17:44Z</time></trkpt><trkpt lat="42.33384047683274" lon="14.123728511982575"><ele>43.75</ele><time>2026-05-03T12:17:45Z</time></trkpt><trkpt lat="42.33388611404475" lon="14.123862469782106"><ele>43.5</ele><time>2026-05-03T12:17:46Z</time></trkpt><trkpt lat="42.333934881228345" lon="14.12401108821058"><ele>43.25</ele><time>2026-05-03T12:17:47Z</time></trkpt><trkpt lat="42.33398930187644" lon="14.12417869812143"><ele>43.0</ele><time>2026-05-03T12:17:48Z</time></trkpt><trkpt lat="42.33404623215499" lon="14.124353343340593"><ele>43.0</ele><time>2026-05-03T12:17:49Z</time></trkpt><trkpt lat="42.33409997915327" lon="14.124525722974"><ele>43.0</ele><time>2026-05-03T12:17:50Z</time></trkpt><trkpt lat="42.334156526866764" lon="14.12470324356674"><ele>43.0</ele><time>2026-05-03T12:17:51Z</time></trkpt><trkpt lat="42.334211271078296" lon="14.124877569489632"><ele>43.0</ele><time>2026-05-03T12:17:52Z</time></trkpt><trkpt lat="42.3342677729795" lon="14.12505288432333"><ele>43.0</ele><time>2026-05-03T12:17:53Z</time></trkpt><trkpt lat="42.33431952191603" lon="14.125219750085298"><ele>43.0</ele><time>2026-05-03T12:17:54Z</time></trkpt><trkpt lat="42.3343708457997" lon="14.125378693736609"><ele>43.0</ele><time>2026-05-03T12:17:55Z</time></trkpt><trkpt lat="42.334425845786136" lon="14.125547419549182"><ele>43.0</ele><time>2026-05-03T12:17:56Z</time></trkpt><trkpt lat="42.3344811229085" lon="14.12571604346822"><ele>43.5</ele><time>2026-05-03T12:17:57Z</time></trkpt><trkpt lat="42.33453136371853" lon="14.125870979937798"><ele>44.0</ele><time>2026-05-03T12:17:58Z</time></trkpt><trkpt lat="42.33457575814352" lon="14.126019703243466"><ele>44.5</ele><time>2026-05-03T12:17:59Z</time></trkpt><trkpt lat="42.33462067924885" lon="14.126176892170294"><ele>45.0</ele><time>2026-05-03T12:18:00Z</time></trkpt><trkpt lat="42.33467056792941" lon="14.126325556850459"><ele>45.0</ele><time>2026-05-03T12:18:01Z</time></trkpt><trkpt lat="42.33472183032026" lon="14.126474509629315"><ele>45.0</ele><time>2026-05-03T12:18:02Z</time></trkpt><trkpt lat="42.334769618823664" lon="14.126617381695745"><ele>45.0</ele><time>2026-05-03T12:18:03Z</time></trkpt><trkpt lat="42.33482169433225" lon="14.126784473417272"><ele>45.0</ele><time>2026-05-03T12:18:04Z</time></trkpt><trkpt lat="42.334875373462424" lon="14.126941817967186"><ele>45.25</ele><time>2026-05-03T12:18:05Z</time></trkpt><trkpt lat="42.33492030717425" lon="14.12709376547965"><ele>45.5</ele><time>2026-05-03T12:18:06Z</time></trkpt><trkpt lat="42.33496491851337" lon="14.127247729625786"><ele>45.75</ele><time>2026-05-03T12:18:07Z</time></trkpt><trkpt lat="42.335014354205526" lon="14.127407225948543"><ele>46.0</ele><time>2026-05-03T12:18:08Z</time></trkpt><trkpt lat="42.335067154049824" lon="14.127574435125991"><ele>46.5</ele><time>2026-05-03T12:18:09Z</time></trkpt><trkpt lat="42.33512330238883" lon="14.127741700175202"><ele>47.0</ele><time>2026-05-03T12:18:10Z</time></trkpt><trkpt lat="42.33518105882065" lon="14.127927734700394"><ele>47.5</ele><time>2026-05-03T12:18:11Z</time></trkpt><trkpt lat="42.335240670296756" lon="14.128112158848271"><ele>48.0</ele><time>2026-05-03T12:18:12Z</time></trkpt><trkpt lat="42.335294773104934" lon="14.1282945766739"><ele>48.25</ele><time>2026-05-03T12:18:13Z</time></trkpt><trkpt lat="42.33534457465959" lon="14.128462208820377"><ele>48.5</ele><time>2026-05-03T12:18:14Z</time></trkpt><trkpt lat="42.335397099231635" lon="14.128623219991649"><ele>48.75</ele><time>2026-05-03T12:18:15Z</time></trkpt><trkpt lat="42.33544639177048" lon="14.128785275142533"><ele>49.0</ele><time>2026-05-03T12:18:16Z</time></trkpt><trkpt lat="42.33550043943688" lon="14.128942986101592"><ele>49.25</ele><time>2026-05-03T12:18:17Z</time></trkpt><trkpt lat="42.335552204322646" lon="14.1291075411866"><ele>49.5</ele><time>2026-05-03T12:18:18Z</time></trkpt><trkpt lat="42.33560299006588" lon="14.129264459091251"><ele>49.75</ele><time>2026-05-03T12:18:19Z</time></trkpt><trkpt lat="42.33565256046443" lon="14.129428926214176"><ele>50.0</ele><time>2026-05-03T12:18:20Z</time></trkpt><trkpt lat="42.335700500023115" lon="14.129583192308775"><ele>50.0</ele><time>2026-05-03T12:18:21Z</time></trkpt><trkpt lat="42.335750658112424" lon="14.129742753560736"><ele>50.0</ele><time>2026-05-03T12:18:22Z</time></trkpt><trkpt lat="42.335802067947924" lon="14.129910877708955"><ele>50.0</ele><time>2026-05-03T12:18:23Z</time></trkpt><trkpt lat="42.33585262252231" lon="14.130083853331936"><ele>50.0</ele><time>2026-05-03T12:18:24Z</time></trkpt><trkpt lat="42.335906348283395" lon="14.130261984550062"><ele>50.5</ele><time>2026-05-03T12:18:25Z</time></trkpt><trkpt lat="42.33596249215741" lon="14.130441138471404"><ele>51.0</ele><time>2026-05-03T12:18:26Z</time></trkpt><trkpt lat="42.33602076192783" lon="14.130621497011767"><ele>51.5</ele><time>2026-05-03T12:18:27Z</time></trkpt><trkpt lat="42.33608003490469" lon="14.13081115537327"><ele>52.0</ele><time>2026-05-03T12:18:28Z</time></trkpt><trkpt lat="42.33613799719005" lon="14.131000702566325"><ele>52.0</ele><time>2026-05-03T12:18:29Z</time></trkpt><trkpt lat="42.33619683239908" lon="14.131187824594416"><ele>52.0</ele><time>2026-05-03T12:18:30Z</time></trkpt><trkpt lat="42.336248113787946" lon="14.131361935637084"><ele>52.0</ele><time>2026-05-03T12:18:31Z</time></trkpt><trkpt lat="42.33630006018213" lon="14.131525850806606"><ele>52.0</ele><time>2026-05-03T12:18:32Z</time></trkpt><trkpt lat="42.33635948422625" lon="14.131705562055256"><ele>52.0</ele><time>2026-05-03T12:18:33Z</time></trkpt><trkpt lat="42.336419621969945" lon="14.131881132662786"><ele>52.0</ele><time>2026-05-03T12:18:34Z</time></trkpt><trkpt lat="42.336490079264046" lon="14.132052368991237"><ele>52.0</ele><time>2026-05-03T12:18:35.001Z</time></trkpt><trkpt lat="42.33657685756245" lon="14.132218272032706"><ele>52.0</ele><time>2026-05-03T12:18:36.001Z</time></trkpt><trkpt lat="42.33668877831589" lon="14.132369642399906"><ele>52.666666666666664</ele><time>2026-05-03T12:18:37.001Z</time></trkpt><trkpt lat="42.33680929905013" lon="14.132511209286731"><ele>53.33333333333333</ele><time>2026-05-03T12:18:38.001Z</time></trkpt><trkpt lat="42.33693820794139" lon="14.132634799551449"><ele>54.0</ele><time>2026-05-03T12:18:39.001Z</time></trkpt><trkpt lat="42.33707560456652" lon="14.13273855693887"><ele>54.33333333333333</ele><time>2026-05-03T12:18:40.001Z</time></trkpt><trkpt lat="42.3372318406319" lon="14.132835943214424"><ele>54.666666666666664</ele><time>2026-05-03T12:18:41.001Z</time></trkpt><trkpt lat="42.337405843467955" lon="14.132917052496136"><ele>55.0</ele><time>2026-05-03T12:18:42.001Z</time></trkpt><trkpt lat="42.33757783116932" lon="14.132969291835362"><ele>55.0</ele><time>2026-05-03T12:18:43.001Z</time></trkpt><trkpt lat="42.33773502650116" lon="14.13301662950185"><ele>55.0</ele><time>2026-05-03T12:18:44.001Z</time></trkpt><trkpt lat="42.33787702143447" lon="14.133077323951875"><ele>55.0</ele><time>2026-05-03T12:18:45.001Z</time></trkpt><trkpt lat="42.338018568152215" lon="14.133104714979547"><ele>55.0</ele><time>2026-05-03T12:18:46.001Z</time></trkpt><trkpt lat="42.338146850999564" lon="14.13314141594664"><ele>55.0</ele><time>2026-05-03T12:18:47.001Z</time></trkpt><trkpt lat="42.33827308041075" lon="14.133181575209969"><ele>55.0</ele><time>2026-05-03T12:18:48.001Z</time></trkpt><trkpt lat="42.338396570667626" lon="14.13321816429603"><ele>55.0</ele><time>2026-05-03T12:18:49.001Z</time></trkpt><trkpt lat="42.338513650435395" lon="14.133256580089922"><ele>55.0</ele><time>2026-05-03T12:18:50.001Z</time></trkpt><trkpt lat="42.3386339097257" lon="14.133290560399157"><ele>55.0</ele><time>2026-05-03T12:18:51.001Z</time></trkpt><trkpt lat="42.33876314007008" lon="14.13332699759467"><ele>55.0</ele><time>2026-05-03T12:18:52.001Z</time></trkpt><trkpt lat="42.33890088027747" lon="14.133367989069093"><ele>55.0</ele><time>2026-05-03T12:18:53.001Z</time></trkpt><trkpt lat="42.33903314480491" lon="14.133406158322101"><ele>55.25</ele><time>2026-05-03T12:18:54.001Z</time></trkpt><trkpt lat="42.33915890471162" lon="14.133446029030774"><ele>55.5</ele><time>2026-05-03T12:18:55.001Z</time></trkpt><trkpt lat="42.33928924202702" lon="14.133489008489189"><ele>55.75</ele><time>2026-05-03T12:18:56.001Z</time></trkpt><trkpt lat="42.339414596458575" lon="14.133519829786541"><ele>56.0</ele><time>2026-05-03T12:18:57.001Z</time></trkpt><trkpt lat="42.339532785736516" lon="14.133555235422914"><ele>56.0</ele><time>2026-05-03T12:18:58.001Z</time></trkpt><trkpt lat="42.33965340020561" lon="14.133588882982508"><ele>56.0</ele><time>2026-05-03T12:18:59.001Z</time></trkpt><trkpt lat="42.33977110572115" lon="14.133622743406859"><ele>56.0</ele><time>2026-05-03T12:19:00.001Z</time></trkpt><trkpt lat="42.33988213822442" lon="14.133654584917167"><ele>56.0</ele><time>2026-05-03T12:19:01.001Z</time></trkpt><trkpt lat="42.33998274811939" lon="14.133689301491511"><ele>55.833333333333336</ele><time>2026-05-03T12:19:02.001Z</time></trkpt><trkpt lat="42.34006927956578" lon="14.133718103491843"><ele>55.66666666666667</ele><time>2026-05-03T12:19:03.001Z</time></trkpt><trkpt lat="42.340145568574115" lon="14.13374364658038"><ele>55.5</ele><time>2026-05-03T12:19:04.001Z</time></trkpt><trkpt lat="42.340215203553605" lon="14.133765051032524"><ele>55.33333333333333</ele><time>2026-05-03T12:19:05.001Z</time></trkpt><trkpt lat="42.34027991712478" lon="14.133783782132582"><ele>55.166666666666664</ele><time>2026-05-03T12:19:06.001Z</time></trkpt><trkpt lat="42.34038172975031" lon="14.133842916083008"><ele>55.0</ele><time>2026-05-03T12:19:08.001Z</time></trkpt><trkpt lat="42.34045816345509" lon="14.133930656615494"><ele>55.0</ele><time>2026-05-03T12:19:10.001Z</time></trkpt><trkpt lat="42.34052687445083" lon="14.13402597552891"><ele>55.0</ele><time>2026-05-03T12:19:12.001Z</time></trkpt><trkpt lat="42.340653688504574" lon="14.13400523143199"><ele>55.0</ele><time>2026-05-03T12:19:14.001Z</time></trkpt><trkpt lat="42.34070964703753" lon="14.133845483882343"><ele>55.0</ele><time>2026-05-03T12:19:16.001Z</time></trkpt><trkpt lat="42.340690248945805" lon="14.133750218879644"><ele>55.0</ele><time>2026-05-03T12:19:17.001Z</time></trkpt><trkpt lat="42.340658824255996" lon="14.133662752584097"><ele>54.666666666666664</ele><time>2026-05-03T12:19:18.001Z</time></trkpt><trkpt lat="42.340642964910415" lon="14.133568919087502"><ele>54.33333333333333</ele><time>2026-05-03T12:19:19.001Z</time></trkpt><trkpt lat="42.3406568008663" lon="14.133466695342044"><ele>54.0</ele><time>2026-05-03T12:19:20.001Z</time></trkpt><trkpt lat="42.340726797816835" lon="14.13337541518358"><ele>53.66666666666667</ele><time>2026-05-03T12:19:21.001Z</time></trkpt><trkpt lat="42.34078192025801" lon="14.133271164285402"><ele>53.333333333333336</ele><time>2026-05-03T12:19:22.001Z</time></trkpt><trkpt lat="42.34084260117717" lon="14.13316061377205"><ele>53.0</ele><time>2026-05-03T12:19:23.001Z</time></trkpt><trkpt lat="42.34089417885662" lon="14.133032642844343"><ele>52.66666666666667</ele><time>2026-05-03T12:19:24.001Z</time></trkpt><trkpt lat="42.34097124733327" lon="14.132931940335993"><ele>52.333333333333336</ele><time>2026-05-03T12:19:25.001Z</time></trkpt><trkpt lat="42.34102030180079" lon="14.132812703963568"><ele>52.0</ele><time>2026-05-03T12:19:26.001Z</time></trkpt><trkpt lat="42.341071194496536" lon="14.1327252058015"><ele>51.66666666666667</ele><time>2026-05-03T12:19:27.001Z</time></trkpt><trkpt lat="42.34112176495587" lon="14.132645653651226"><ele>51.333333333333336</ele><time>2026-05-03T12:19:28.001Z</time></trkpt><trkpt lat="42.34117300326906" lon="14.132569367738254"><ele>51.0</ele><time>2026-05-03T12:19:29.001Z</time></trkpt><trkpt lat="42.34122316677701" lon="14.132502246858417"><ele>51.0</ele><time>2026-05-03T12:19:30.001Z</time></trkpt><trkpt lat="42.34127644310011" lon="14.132426318228477"><ele>51.0</ele><time>2026-05-03T12:19:31.001Z</time></trkpt><trkpt lat="42.34133167130772" lon="14.13234793814131"><ele>51.0</ele><time>2026-05-03T12:19:32.001Z</time></trkpt><trkpt lat="42.341382273425864" lon="14.132268687625391"><ele>51.0</ele><time>2026-05-03T12:19:33.001Z</time></trkpt><trkpt lat="42.341436251504945" lon="14.132170422697346"><ele>51.0</ele><time>2026-05-03T12:19:34.001Z</time></trkpt><trkpt lat="42.341485507454976" lon="14.132055287082427"><ele>51.0</ele><time>2026-05-03T12:19:35Z</time></trkpt><trkpt lat="42.34152292740187" lon="14.131934389560069"><ele>50.4</ele><time>2026-05-03T12:19:36Z</time></trkpt><trkpt lat="42.34155611238238" lon="14.131814149782933"><ele>49.8</ele><time>2026-05-03T12:19:37Z</time></trkpt><trkpt lat="42.34159686369163" lon="14.131698144971365"><ele>49.199999999999996</ele><time>2026-05-03T12:19:38Z</time></trkpt><trkpt lat="42.341631234801525" lon="14.13158372287846"><ele>48.599999999999994</ele><time>2026-05-03T12:19:39Z</time></trkpt><trkpt lat="42.34166293101389" lon="14.131485743394103"><ele>48.0</ele><time>2026-05-03T12:19:40Z</time></trkpt><trkpt lat="42.34170884925259" lon="14.131376560896806"><ele>47.8</ele><time>2026-05-03T12:19:41Z</time></trkpt><trkpt lat="42.34180345932123" lon="14.131255142403546"><ele>47.599999999999994</ele><time>2026-05-03T12:19:43Z</time></trkpt><trkpt lat="42.34185540629108" lon="14.131166240631682"><ele>47.400000000000006</ele><time>2026-05-03T12:19:44Z</time></trkpt><trkpt lat="42.34188097871109" lon="14.131023622283832"><ele>47.2</ele><time>2026-05-03T12:19:45Z</time></trkpt><trkpt lat="42.34186731236679" lon="14.130878976817632"><ele>47.0</ele><time>2026-05-03T12:19:46Z</time></trkpt><trkpt lat="42.34188230649776" lon="14.13074704775977"><ele>46.8</ele><time>2026-05-03T12:19:47Z</time></trkpt><trkpt lat="42.341910735816775" lon="14.1306211047156"><ele>46.6</ele><time>2026-05-03T12:19:48Z</time></trkpt><trkpt lat="42.34193993480457" lon="14.130497263261443"><ele>46.4</ele><time>2026-05-03T12:19:49Z</time></trkpt><trkpt lat="42.341971057415414" lon="14.130377861682081"><ele>46.199999999999996</ele><time>2026-05-03T12:19:50Z</time></trkpt><trkpt lat="42.34200962174152" lon="14.130272112127143"><ele>46.0</ele><time>2026-05-03T12:19:51Z</time></trkpt><trkpt lat="42.34203094215729" lon="14.130171797023458"><ele>46.0</ele><time>2026-05-03T12:19:52Z</time></trkpt><trkpt lat="42.34203654900727" lon="14.130067831976604"><ele>46.0</ele><time>2026-05-03T12:19:53Z</time></trkpt><trkpt lat="42.3420340011344" lon="14.129903650372878"><ele>46.0</ele><time>2026-05-03T12:19:55Z</time></trkpt><trkpt lat="42.3420479638307" lon="14.12976651135545"><ele>46.0</ele><time>2026-05-03T12:19:57Z</time></trkpt><trkpt lat="42.34213807047388" lon="14.129648113781068"><ele>46.0</ele><time>2026-05-03T12:19:59Z</time></trkpt><trkpt lat="42.342180036700384" lon="14.129583080240653"><ele>45.66666666666667</ele><time>2026-05-03T12:20:00Z</time></trkpt><trkpt lat="42.34220031447946" lon="14.129491674498215"><ele>45.333333333333336</ele><time>2026-05-03T12:20:01Z</time></trkpt><trkpt lat="42.3421935469941" lon="14.129384558365494"><ele>45.0</ele><time>2026-05-03T12:20:02Z</time></trkpt><trkpt lat="42.34214840572223" lon="14.129285175619392"><ele>44.666666666666664</ele><time>2026-05-03T12:20:03Z</time></trkpt><trkpt lat="42.34209666012952" lon="14.129186750940775"><ele>44.33333333333333</ele><time>2026-05-03T12:20:04Z</time></trkpt><trkpt lat="42.342004607307736" lon="14.129159774896458"><ele>44.0</ele><time>2026-05-03T12:20:05Z</time></trkpt><trkpt lat="42.341926685381445" lon="14.129135385149267"><ele>43.0</ele><time>2026-05-03T12:20:06Z</time></trkpt><trkpt lat="42.34190977586117" lon="14.12899854321553"><ele>42.0</ele><time>2026-05-03T12:20:07Z</time></trkpt><trkpt lat="42.34187884046504" lon="14.128880162714148"><ele>41.0</ele><time>2026-05-03T12:20:08Z</time></trkpt><trkpt lat="42.341846107913156" lon="14.128743519478395"><ele>40.0</ele><time>2026-05-03T12:20:09Z</time></trkpt><trkpt lat="42.34181370201747" lon="14.128590899080665"><ele>39.0</ele><time>2026-05-03T12:20:10Z</time></trkpt><trkpt lat="42.341781981249234" lon="14.128431750274197"><ele>39.0</ele><time>2026-05-03T12:20:11Z</time></trkpt><trkpt lat="42.34173185355782" lon="14.128249780145708"><ele>39.0</ele><time>2026-05-03T12:20:12Z</time></trkpt><trkpt lat="42.34169648954581" lon="14.128052805808826"><ele>39.0</ele><time>2026-05-03T12:20:13Z</time></trkpt><trkpt lat="42.34166378351369" lon="14.127853760648762"><ele>39.0</ele><time>2026-05-03T12:20:14Z</time></trkpt><trkpt lat="42.34163377444129" lon="14.127657928336504"><ele>38.5</ele><time>2026-05-03T12:20:15Z</time></trkpt><trkpt lat="42.34160170451552" lon="14.127469697515739"><ele>38.0</ele><time>2026-05-03T12:20:16Z</time></trkpt><trkpt lat="42.34157416494829" lon="14.127287577770455"><ele>37.5</ele><time>2026-05-03T12:20:17Z</time></trkpt><trkpt lat="42.34154306559162" lon="14.127110841178768"><ele>37.0</ele><time>2026-05-03T12:20:18Z</time></trkpt><trkpt lat="42.34151601260071" lon="14.126923956851208"><ele>36.333333333333336</ele><time>2026-05-03T12:20:19Z</time></trkpt><trkpt lat="42.341475425006045" lon="14.12672733718361"><ele>35.666666666666664</ele><time>2026-05-03T12:20:20Z</time></trkpt><trkpt lat="42.341455607343605" lon="14.126517063862298"><ele>35.0</ele><time>2026-05-03T12:20:21Z</time></trkpt><trkpt lat="42.34141920793653" lon="14.126309256740578"><ele>35.0</ele><time>2026-05-03T12:20:22Z</time></trkpt><trkpt lat="42.34138381245683" lon="14.126108628248723"><ele>35.0</ele><time>2026-05-03T12:20:23Z</time></trkpt><trkpt lat="42.341347197063634" lon="14.125901085118114"><ele>35.0</ele><time>2026-05-03T12:20:24Z</time></trkpt><trkpt lat="42.3412971893913" lon="14.125698909128474"><ele>34.666666666666664</ele><time>2026-05-03T12:20:25Z</time></trkpt><trkpt lat="42.34126133382634" lon="14.125486928531593"><ele>34.333333333333336</ele><time>2026-05-03T12:20:26Z</time></trkpt><trkpt lat="42.34122283869887" lon="14.125259646786255"><ele>34.0</ele><time>2026-05-03T12:20:27Z</time></trkpt><trkpt lat="42.341200049696226" lon="14.12502278119184"><ele>34.333333333333336</ele><time>2026-05-03T12:20:28Z</time></trkpt><trkpt lat="42.34116191357473" lon="14.124791063014717"><ele>34.666666666666664</ele><time>2026-05-03T12:20:29Z</time></trkpt><trkpt lat="42.34111284148351" lon="14.124578496991305"><ele>35.0</ele><time>2026-05-03T12:20:30Z</time></trkpt><trkpt lat="42.34108415988378" lon="14.124374595490933"><ele>35.0</ele><time>2026-05-03T12:20:31Z</time></trkpt><trkpt lat="42.34104583641558" lon="14.12417403477244"><ele>35.0</ele><time>2026-05-03T12:20:32Z</time></trkpt><trkpt lat="42.34102590397131" lon="14.123972597976433"><ele>35.0</ele><time>2026-05-03T12:20:33Z</time></trkpt><trkpt lat="42.34099287943014" lon="14.123779513299036"><ele>35.0</ele><time>2026-05-03T12:20:34Z</time></trkpt><trkpt lat="42.340946351912656" lon="14.123599088610135"><ele>35.0</ele><time>2026-05-03T12:20:35Z</time></trkpt><trkpt lat="42.34092117970477" lon="14.123422053023244"><ele>35.0</ele><time>2026-05-03T12:20:36Z</time></trkpt><trkpt lat="42.34089355966413" lon="14.123250624721233"><ele>35.0</ele><time>2026-05-03T12:20:37Z</time></trkpt><trkpt lat="42.34088024497582" lon="14.123076091301437"><ele>35.0</ele><time>2026-05-03T12:20:38Z</time></trkpt><trkpt lat="42.34084990018229" lon="14.122912637392428"><ele>35.0</ele><time>2026-05-03T12:20:39Z</time></trkpt><trkpt lat="42.340805859323915" lon="14.12275302627155"><ele>35.0</ele><time>2026-05-03T12:20:40Z</time></trkpt><trkpt lat="42.34080041083203" lon="14.122591751082414"><ele>35.0</ele><time>2026-05-03T12:20:41Z</time></trkpt><trkpt lat="42.34076904517401" lon="14.122444395328154"><ele>34.8</ele><time>2026-05-03T12:20:42Z</time></trkpt><trkpt lat="42.34075939308174" lon="14.122297115083475"><ele>34.6</ele><time>2026-05-03T12:20:43Z</time></trkpt><trkpt lat="42.34077051466157" lon="14.122156686656636"><ele>34.4</ele><time>2026-05-03T12:20:44Z</time></trkpt><trkpt lat="42.3407835171471" lon="14.1220246896032"><ele>34.2</ele><time>2026-05-03T12:20:45Z</time></trkpt><trkpt lat="42.34083459600013" lon="14.121912578175703"><ele>34.0</ele><time>2026-05-03T12:20:46.001Z</time></trkpt><trkpt lat="42.340861136742745" lon="14.121815215022528"><ele>34.0</ele><time>2026-05-03T12:20:47Z</time></trkpt><trkpt lat="42.34091003883965" lon="14.12166590509052"><ele>34.0</ele><time>2026-05-03T12:20:49.001Z</time></trkpt><trkpt lat="42.341021694469504" lon="14.12159558125123"><ele>34.0</ele><time>2026-05-03T12:20:51.001Z</time></trkpt><trkpt lat="42.341082630972345" lon="14.121563573971308"><ele>34.0</ele><time>2026-05-03T12:20:52.001Z</time></trkpt><trkpt lat="42.34114032752753" lon="14.121507931962771"><ele>34.0</ele><time>2026-05-03T12:20:53.001Z</time></trkpt><trkpt lat="42.3412023445319" lon="14.121415363759818"><ele>33.2</ele><time>2026-05-03T12:20:54.001Z</time></trkpt><trkpt lat="42.34123364026363" lon="14.12128607087034"><ele>32.4</ele><time>2026-05-03T12:20:55.001Z</time></trkpt><trkpt lat="42.341188076884485" lon="14.12113987417148"><ele>31.6</ele><time>2026-05-03T12:20:56.001Z</time></trkpt><trkpt lat="42.34115427990633" lon="14.121043289163318"><ele>30.8</ele><time>2026-05-03T12:20:57.001Z</time></trkpt><trkpt lat="42.34125291053466" lon="14.120950344238997"><ele>30.0</ele><time>2026-05-03T12:20:58.001Z</time></trkpt><trkpt lat="42.34130589385493" lon="14.120849182682582"><ele>30.0</ele><time>2026-05-03T12:20:59.001Z</time></trkpt><trkpt lat="42.341368331567544" lon="14.120730915961953"><ele>30.0</ele><time>2026-05-03T12:21:00.001Z</time></trkpt><trkpt lat="42.34145044631542" lon="14.120576824057892"><ele>30.0</ele><time>2026-05-03T12:21:01.001Z</time></trkpt><trkpt lat="42.34154672472356" lon="14.12039726843335"><ele>30.0</ele><time>2026-05-03T12:21:02.001Z</time></trkpt><trkpt lat="42.34163529154237" lon="14.12023287339702"><ele>30.25</ele><time>2026-05-03T12:21:03.001Z</time></trkpt><trkpt lat="42.34171297783137" lon="14.120090780652074"><ele>30.5</ele><time>2026-05-03T12:21:04.001Z</time></trkpt><trkpt lat="42.3417815201542" lon="14.119948472130384"><ele>30.75</ele><time>2026-05-03T12:21:05.001Z</time></trkpt><trkpt lat="42.341864671681336" lon="14.119813471250987"><ele>31.0</ele><time>2026-05-03T12:21:06.001Z</time></trkpt><trkpt lat="42.34196045586122" lon="14.119638211383092"><ele>31.0</ele><time>2026-05-03T12:21:07.001Z</time></trkpt><trkpt lat="42.34206075712054" lon="14.119453690290038"><ele>31.0</ele><time>2026-05-03T12:21:08.001Z</time></trkpt><trkpt lat="42.34215533178959" lon="14.119278522704386"><ele>31.0</ele><time>2026-05-03T12:21:09.001Z</time></trkpt><trkpt lat="42.34224614782767" lon="14.119108971221086"><ele>31.666666666666668</ele><time>2026-05-03T12:21:10.001Z</time></trkpt><trkpt lat="42.342340757700455" lon="14.118922982687222"><ele>32.333333333333336</ele><time>2026-05-03T12:21:11.001Z</time></trkpt><trkpt lat="42.34244022768909" lon="14.118668191180348"><ele>33.0</ele><time>2026-05-03T12:21:12.001Z</time></trkpt><trkpt lat="42.342520200065614" lon="14.118378957171453"><ele>36.0</ele><time>2026-05-03T12:21:13.001Z</time></trkpt><trkpt lat="42.34256975679182" lon="14.118083521490366"><ele>39.0</ele><time>2026-05-03T12:21:14.001Z</time></trkpt><trkpt lat="42.342626077123555" lon="14.117768924087306"><ele>39.0</ele><time>2026-05-03T12:21:15.001Z</time></trkpt><trkpt lat="42.342701920408885" lon="14.117453410809706"><ele>39.0</ele><time>2026-05-03T12:21:16.001Z</time></trkpt><trkpt lat="42.34276343404918" lon="14.11712667301054"><ele>42.0</ele><time>2026-05-03T12:21:17.001Z</time></trkpt><trkpt lat="42.34282583316851" lon="14.116790489570372"><ele>45.0</ele><time>2026-05-03T12:21:18.001Z</time></trkpt><trkpt lat="42.34288806793609" lon="14.116438560687524"><ele>45.333333333333336</ele><time>2026-05-03T12:21:19.001Z</time></trkpt><trkpt lat="42.342943178688564" lon="14.116154806388543"><ele>45.66666666666667</ele><time>2026-05-03T12:21:20.001Z</time></trkpt><trkpt lat="42.34299234826972" lon="14.115889275827605"><ele>46.0</ele><time>2026-05-03T12:21:21.001Z</time></trkpt><trkpt lat="42.34303438117488" lon="14.115648803442536"><ele>46.66666666666667</ele><time>2026-05-03T12:21:22.001Z</time></trkpt><trkpt lat="42.343073224201" lon="14.11541025320708"><ele>47.333333333333336</ele><time>2026-05-03T12:21:23.001Z</time></trkpt><trkpt lat="42.343107571144046" lon="14.115171683252973"><ele>48.0</ele><time>2026-05-03T12:21:24.001Z</time></trkpt><trkpt lat="42.34313929883841" lon="14.114947810493572"><ele>48.0</ele><time>2026-05-03T12:21:25.001Z</time></trkpt><trkpt lat="42.34316823864167" lon="14.114738059461345"><ele>48.0</ele><time>2026-05-03T12:21:26.001Z</time></trkpt><trkpt lat="42.34319864979966" lon="14.114517644307034"><ele>48.0</ele><time>2026-05-03T12:21:27.001Z</time></trkpt><trkpt lat="42.3432303836903" lon="14.114286912702696"><ele>47.666666666666664</ele><time>2026-05-03T12:21:28.001Z</time></trkpt><trkpt lat="42.343262174738" lon="14.11404700558583"><ele>47.33333333333333</ele><time>2026-05-03T12:21:29.001Z</time></trkpt><trkpt lat="42.34329134570114" lon="14.11382306672638"><ele>47.0</ele><time>2026-05-03T12:21:30.001Z</time></trkpt><trkpt lat="42.343317877876814" lon="14.113615605878833"><ele>47.0</ele><time>2026-05-03T12:21:31.001Z</time></trkpt><trkpt lat="42.343344806979594" lon="14.11340504209057"><ele>47.0</ele><time>2026-05-03T12:21:32.001Z</time></trkpt><trkpt lat="42.34337140732671" lon="14.11319283201774"><ele>47.0</ele><time>2026-05-03T12:21:33.001Z</time></trkpt><trkpt lat="42.34339934865489" lon="14.112975357584292"><ele>47.0</ele><time>2026-05-03T12:21:34.001Z</time></trkpt><trkpt lat="42.343429341366736" lon="14.112748560845713"><ele>47.0</ele><time>2026-05-03T12:21:35.001Z</time></trkpt><trkpt lat="42.34345884328874" lon="14.112525475307798"><ele>47.0</ele><time>2026-05-03T12:21:36.001Z</time></trkpt><trkpt lat="42.34348639365031" lon="14.112317147243314"><ele>47.0</ele><time>2026-05-03T12:21:37.001Z</time></trkpt><trkpt lat="42.34350899296027" lon="14.112134412611919"><ele>47.0</ele><time>2026-05-03T12:21:38.001Z</time></trkpt><trkpt lat="42.34353020413599" lon="14.111963715174697"><ele>47.0</ele><time>2026-05-03T12:21:39.001Z</time></trkpt><trkpt lat="42.343551671591804" lon="14.111811100567715"><ele>47.0</ele><time>2026-05-03T12:21:40.001Z</time></trkpt><trkpt lat="42.34357023420823" lon="14.111684264177462"><ele>47.0</ele><time>2026-05-03T12:21:41Z</time></trkpt><trkpt lat="42.343586339946505" lon="14.11158132769402"><ele>47.0</ele><time>2026-05-03T12:21:42Z</time></trkpt><trkpt lat="42.34360510467541" lon="14.11149004203688"><ele>47.0</ele><time>2026-05-03T12:21:43Z</time></trkpt><trkpt lat="42.34367227926121" lon="14.111442525581245"><ele>47.0</ele><time>2026-05-03T12:21:44Z</time></trkpt><trkpt lat="42.34375705659041" lon="14.111460892147052"><ele>47.0</ele><time>2026-05-03T12:21:45Z</time></trkpt><trkpt lat="42.3438376104058" lon="14.111512935277025"><ele>47.0</ele><time>2026-05-03T12:21:46Z</time></trkpt><trkpt lat="42.34392046732468" lon="14.111574246344006"><ele>47.25</ele><time>2026-05-03T12:21:47Z</time></trkpt><trkpt lat="42.34402388228671" lon="14.111639778518915"><ele>47.5</ele><time>2026-05-03T12:21:48Z</time></trkpt><trkpt lat="42.34414632950613" lon="14.111721612124153"><ele>47.75</ele><time>2026-05-03T12:21:49Z</time></trkpt><trkpt lat="42.34428188577159" lon="14.111811460786168"><ele>48.0</ele><time>2026-05-03T12:21:50Z</time></trkpt><trkpt lat="42.34442929467211" lon="14.111910661459824"><ele>48.0</ele><time>2026-05-03T12:21:51Z</time></trkpt><trkpt lat="42.34457446398882" lon="14.11200985075318"><ele>48.0</ele><time>2026-05-03T12:21:52Z</time></trkpt><trkpt lat="42.34471041253922" lon="14.112101139816687"><ele>48.0</ele><time>2026-05-03T12:21:53Z</time></trkpt><trkpt lat="42.34484162409788" lon="14.112187547417136"><ele>47.333333333333336</ele><time>2026-05-03T12:21:54Z</time></trkpt><trkpt lat="42.344991751656465" lon="14.112273033685542"><ele>46.66666666666667</ele><time>2026-05-03T12:21:55Z</time></trkpt><trkpt lat="42.3451494424178" lon="14.112355905616592"><ele>46.0</ele><time>2026-05-03T12:21:56Z</time></trkpt><trkpt lat="42.34532269832357" lon="14.112421985042037"><ele>46.0</ele><time>2026-05-03T12:21:57Z</time></trkpt><trkpt lat="42.34549710565862" lon="14.112479094677592"><ele>46.0</ele><time>2026-05-03T12:21:58Z</time></trkpt><trkpt lat="42.34565877734412" lon="14.112521042663865"><ele>46.0</ele><time>2026-05-03T12:21:59Z</time></trkpt><trkpt lat="42.34581682164115" lon="14.112565089743955"><ele>46.0</ele><time>2026-05-03T12:22:00Z</time></trkpt><trkpt lat="42.345971996465934" lon="14.11261248437454"><ele>46.0</ele><time>2026-05-03T12:22:01Z</time></trkpt><trkpt lat="42.34614228514922" lon="14.11267246304343"><ele>46.0</ele><time>2026-05-03T12:22:02Z</time></trkpt><trkpt lat="42.34631075927931" lon="14.112742575418803"><ele>45.333333333333336</ele><time>2026-05-03T12:22:03Z</time></trkpt><trkpt lat="42.34647392108739" lon="14.11281830867965"><ele>44.666666666666664</ele><time>2026-05-03T12:22:04Z</time></trkpt><trkpt lat="42.34663517504639" lon="14.112895741062596"><ele>44.0</ele><time>2026-05-03T12:22:05Z</time></trkpt><trkpt lat="42.346795232999824" lon="14.112974920958337"><ele>44.0</ele><time>2026-05-03T12:22:06Z</time></trkpt><trkpt lat="42.34694748778974" lon="14.11305095871569"><ele>44.0</ele><time>2026-05-03T12:22:07Z</time></trkpt><trkpt lat="42.34709017678964" lon="14.11312564657693"><ele>44.0</ele><time>2026-05-03T12:22:08Z</time></trkpt><trkpt lat="42.347236684981326" lon="14.113189962294113"><ele>44.25</ele><time>2026-05-03T12:22:09Z</time></trkpt><trkpt lat="42.34737273187921" lon="14.113257708234256"><ele>44.5</ele><time>2026-05-03T12:22:10Z</time></trkpt><trkpt lat="42.347517452174756" lon="14.113328210571764"><ele>44.75</ele><time>2026-05-03T12:22:11Z</time></trkpt><trkpt lat="42.34764963000283" lon="14.113401987848727"><ele>45.0</ele><time>2026-05-03T12:22:12Z</time></trkpt><trkpt lat="42.34777881674613" lon="14.113461159571601"><ele>45.0</ele><time>2026-05-03T12:22:13Z</time></trkpt><trkpt lat="42.34790352350842" lon="14.113518268178069"><ele>45.0</ele><time>2026-05-03T12:22:14Z</time></trkpt><trkpt lat="42.34802193990483" lon="14.113576593653457"><ele>45.0</ele><time>2026-05-03T12:22:15Z</time></trkpt><trkpt lat="42.34813583826055" lon="14.11363428762766"><ele>45.0</ele><time>2026-05-03T12:22:16Z</time></trkpt><trkpt lat="42.34826020965873" lon="14.113672145350547"><ele>45.0</ele><time>2026-05-03T12:22:17Z</time></trkpt><trkpt lat="42.348396434011086" lon="14.113663733608634"><ele>45.0</ele><time>2026-05-03T12:22:18Z</time></trkpt><trkpt lat="42.348534406890614" lon="14.113599250904414"><ele>45.0</ele><time>2026-05-03T12:22:19Z</time></trkpt><trkpt lat="42.34867888479299" lon="14.113535149179393"><ele>45.0</ele><time>2026-05-03T12:22:20Z</time></trkpt><trkpt lat="42.34882806472475" lon="14.113441264330772"><ele>44.0</ele><time>2026-05-03T12:22:21Z</time></trkpt><trkpt lat="42.348989093950465" lon="14.113340332950367"><ele>43.0</ele><time>2026-05-03T12:22:22Z</time></trkpt><trkpt lat="42.34915019393733" lon="14.113239701722476"><ele>42.0</ele><time>2026-05-03T12:22:23Z</time></trkpt><trkpt lat="42.34929729715989" lon="14.11314544304802"><ele>41.75</ele><time>2026-05-03T12:22:24Z</time></trkpt><trkpt lat="42.34943637598642" lon="14.113050522312092"><ele>41.5</ele><time>2026-05-03T12:22:25Z</time></trkpt><trkpt lat="42.349569195946714" lon="14.112953098067846"><ele>41.25</ele><time>2026-05-03T12:22:26Z</time></trkpt><trkpt lat="42.34967781603045" lon="14.112839475159129"><ele>41.0</ele><time>2026-05-03T12:22:27Z</time></trkpt><trkpt lat="42.34979950193938" lon="14.112753055813677"><ele>41.75</ele><time>2026-05-03T12:22:28Z</time></trkpt><trkpt lat="42.349922122484024" lon="14.112674676764957"><ele>42.5</ele><time>2026-05-03T12:22:29Z</time></trkpt><trkpt lat="42.35005104665666" lon="14.112603888176588"><ele>43.25</ele><time>2026-05-03T12:22:30Z</time></trkpt><trkpt lat="42.35019146102952" lon="14.112549473343707"><ele>44.0</ele><time>2026-05-03T12:22:31Z</time></trkpt><trkpt lat="42.35034322471177" lon="14.112511072187008"><ele>44.0</ele><time>2026-05-03T12:22:32Z</time></trkpt><trkpt lat="42.35050419156448" lon="14.112486542166002"><ele>44.0</ele><time>2026-05-03T12:22:33Z</time></trkpt><trkpt lat="42.3506704971988" lon="14.112490017091165"><ele>44.0</ele><time>2026-05-03T12:22:34Z</time></trkpt><trkpt lat="42.35083625985039" lon="14.11254061747861"><ele>44.0</ele><time>2026-05-03T12:22:35Z</time></trkpt><trkpt lat="42.35100717882523" lon="14.112568754233521"><ele>44.0</ele><time>2026-05-03T12:22:36Z</time></trkpt><trkpt lat="42.35117861798387" lon="14.112631140418188"><ele>44.0</ele><time>2026-05-03T12:22:37Z</time></trkpt><trkpt lat="42.351354608228384" lon="14.11270096983897"><ele>42.666666666666664</ele><time>2026-05-03T12:22:38Z</time></trkpt><trkpt lat="42.351538101358685" lon="14.112774611937743"><ele>41.333333333333336</ele><time>2026-05-03T12:22:39Z</time></trkpt><trkpt lat="42.3517122410688" lon="14.11284654206345"><ele>40.0</ele><time>2026-05-03T12:22:40Z</time></trkpt><trkpt lat="42.351877295239696" lon="14.1129145759323"><ele>40.0</ele><time>2026-05-03T12:22:41Z</time></trkpt><trkpt lat="42.35204970479698" lon="14.112984274158086"><ele>40.0</ele><time>2026-05-03T12:22:42Z</time></trkpt><trkpt lat="42.35223116187691" lon="14.113061380036864"><ele>40.0</ele><time>2026-05-03T12:22:43Z</time></trkpt><trkpt lat="42.35242488363672" lon="14.113134050062031"><ele>38.66666666666667</ele><time>2026-05-03T12:22:44Z</time></trkpt><trkpt lat="42.352628042672464" lon="14.113221795871487"><ele>37.333333333333336</ele><time>2026-05-03T12:22:45Z</time></trkpt><trkpt lat="42.352817870183706" lon="14.113296698075734"><ele>36.0</ele><time>2026-05-03T12:22:46Z</time></trkpt><trkpt lat="42.353016914377186" lon="14.113374583377485"><ele>35.666666666666664</ele><time>2026-05-03T12:22:47Z</time></trkpt><trkpt lat="42.353215674657086" lon="14.113453972223779"><ele>35.33333333333333</ele><time>2026-05-03T12:22:48Z</time></trkpt><trkpt lat="42.35340922332199" lon="14.11353281884584"><ele>35.0</ele><time>2026-05-03T12:22:49Z</time></trkpt><trkpt lat="42.3536076796195" lon="14.113615405344019"><ele>35.0</ele><time>2026-05-03T12:22:50Z</time></trkpt><trkpt lat="42.353811199596734" lon="14.113700834342032"><ele>35.0</ele><time>2026-05-03T12:22:51Z</time></trkpt><trkpt lat="42.354004968118254" lon="14.11377890202219"><ele>35.0</ele><time>2026-05-03T12:22:52Z</time></trkpt><trkpt lat="42.35418977399594" lon="14.113853060320542"><ele>35.33333333333333</ele><time>2026-05-03T12:22:53Z</time></trkpt><trkpt lat="42.35436343920989" lon="14.113920741194727"><ele>35.666666666666664</ele><time>2026-05-03T12:22:54Z</time></trkpt><trkpt lat="42.35454340336914" lon="14.113995400455648"><ele>36.0</ele><time>2026-05-03T12:22:55Z</time></trkpt><trkpt lat="42.35471656618444" lon="14.114061281292756"><ele>36.333333333333336</ele><time>2026-05-03T12:22:56Z</time></trkpt><trkpt lat="42.35488137158344" lon="14.11413361454816"><ele>36.66666666666667</ele><time>2026-05-03T12:22:57Z</time></trkpt><trkpt lat="42.355050401943565" lon="14.11419449554588"><ele>37.0</ele><time>2026-05-03T12:22:58Z</time></trkpt><trkpt lat="42.35522461939385" lon="14.114262147669335"><ele>37.0</ele><time>2026-05-03T12:22:59Z</time></trkpt><trkpt lat="42.35540677470023" lon="14.114335592413804"><ele>37.0</ele><time>2026-05-03T12:23:00Z</time></trkpt><trkpt lat="42.355592307784704" lon="14.114412209644218"><ele>37.0</ele><time>2026-05-03T12:23:01Z</time></trkpt><trkpt lat="42.35577229061652" lon="14.11448616225639"><ele>40.333333333333336</ele><time>2026-05-03T12:23:02.001Z</time></trkpt><trkpt lat="42.35594465380836" lon="14.114554964386935"><ele>43.666666666666664</ele><time>2026-05-03T12:23:03.001Z</time></trkpt><trkpt lat="42.35611095644372" lon="14.114620501615"><ele>47.0</ele><time>2026-05-03T12:23:04.001Z</time></trkpt><trkpt lat="42.356287326598704" lon="14.11469071720897"><ele>47.666666666666664</ele><time>2026-05-03T12:23:05.001Z</time></trkpt><trkpt lat="42.35646332373014" lon="14.114762965808628"><ele>48.33333333333333</ele><time>2026-05-03T12:23:06.001Z</time></trkpt><trkpt lat="42.356642737486816" lon="14.11483430183679"><ele>49.0</ele><time>2026-05-03T12:23:07.001Z</time></trkpt><trkpt lat="42.35681960437861" lon="14.114899626196665"><ele>46.33333333333333</ele><time>2026-05-03T12:23:08.001Z</time></trkpt><trkpt lat="42.35700170574069" lon="14.114973470611321"><ele>43.666666666666664</ele><time>2026-05-03T12:23:09.001Z</time></trkpt><trkpt lat="42.35718759487779" lon="14.11505047317757"><ele>41.0</ele><time>2026-05-03T12:23:10.001Z</time></trkpt><trkpt lat="42.35737296645708" lon="14.115126317494322"><ele>41.0</ele><time>2026-05-03T12:23:11.001Z</time></trkpt><trkpt lat="42.35755999807948" lon="14.115201175518301"><ele>41.0</ele><time>2026-05-03T12:23:12.001Z</time></trkpt><trkpt lat="42.35774292697032" lon="14.11527231180823"><ele>41.0</ele><time>2026-05-03T12:23:13.001Z</time></trkpt><trkpt lat="42.357919661859356" lon="14.11534130693331"><ele>41.0</ele><time>2026-05-03T12:23:14.001Z</time></trkpt><trkpt lat="42.35809672370617" lon="14.115414787019473"><ele>41.0</ele><time>2026-05-03T12:23:15.001Z</time></trkpt><trkpt lat="42.35828022077168" lon="14.115489963559366"><ele>41.0</ele><time>2026-05-03T12:23:16.001Z</time></trkpt><trkpt lat="42.35847376555453" lon="14.115577074730355"><ele>41.0</ele><time>2026-05-03T12:23:17.001Z</time></trkpt><trkpt lat="42.35866839748751" lon="14.11565732718784"><ele>41.0</ele><time>2026-05-03T12:23:18.001Z</time></trkpt><trkpt lat="42.358866423449086" lon="14.115739553797082"><ele>41.0</ele><time>2026-05-03T12:23:19.001Z</time></trkpt><trkpt lat="42.35907020547324" lon="14.1158219766047"><ele>39.33333333333333</ele><time>2026-05-03T12:23:20.001Z</time></trkpt><trkpt lat="42.359273823186165" lon="14.11590312979601"><ele>37.666666666666664</ele><time>2026-05-03T12:23:21.001Z</time></trkpt><trkpt lat="42.359474704377845" lon="14.115986288149717"><ele>36.0</ele><time>2026-05-03T12:23:22.001Z</time></trkpt><trkpt lat="42.35967026801475" lon="14.116067752890789"><ele>36.333333333333336</ele><time>2026-05-03T12:23:23.001Z</time></trkpt><trkpt lat="42.3598569963246" lon="14.116151135667751"><ele>36.66666666666667</ele><time>2026-05-03T12:23:24.001Z</time></trkpt><trkpt lat="42.36003538748778" lon="14.11623470731926"><ele>37.0</ele><time>2026-05-03T12:23:25.001Z</time></trkpt><trkpt lat="42.36021283636398" lon="14.116317422894626"><ele>37.0</ele><time>2026-05-03T12:23:26.001Z</time></trkpt><trkpt lat="42.36038696810694" lon="14.116396769160547"><ele>37.0</ele><time>2026-05-03T12:23:27.001Z</time></trkpt><trkpt lat="42.36056001770513" lon="14.116468898421026"><ele>37.0</ele><time>2026-05-03T12:23:28.001Z</time></trkpt><trkpt lat="42.360731189540495" lon="14.116542345287742"><ele>34.66666666666667</ele><time>2026-05-03T12:23:29.001Z</time></trkpt><trkpt lat="42.36090518009807" lon="14.116618904158244"><ele>32.333333333333336</ele><time>2026-05-03T12:23:30.001Z</time></trkpt><trkpt lat="42.361078600369794" lon="14.116700705169405"><ele>30.0</ele><time>2026-05-03T12:23:31.001Z</time></trkpt><trkpt lat="42.36125015714951" lon="14.116778299016005"><ele>32.0</ele><time>2026-05-03T12:23:32.001Z</time></trkpt><trkpt lat="42.361419309986346" lon="14.116855359487797"><ele>34.0</ele><time>2026-05-03T12:23:33.001Z</time></trkpt><trkpt lat="42.3615877858427" lon="14.11693469943424"><ele>36.0</ele><time>2026-05-03T12:23:34.001Z</time></trkpt><trkpt lat="42.36175507359816" lon="14.117011978496661"><ele>36.0</ele><time>2026-05-03T12:23:35.001Z</time></trkpt><trkpt lat="42.36192499036444" lon="14.117087516134303"><ele>36.0</ele><time>2026-05-03T12:23:36.001Z</time></trkpt><trkpt lat="42.3620909467095" lon="14.117158253980831"><ele>36.0</ele><time>2026-05-03T12:23:37.001Z</time></trkpt><trkpt lat="42.36225761996735" lon="14.117234765707451"><ele>33.666666666666664</ele><time>2026-05-03T12:23:38.001Z</time></trkpt><trkpt lat="42.36242132277973" lon="14.117304340605259"><ele>31.333333333333332</ele><time>2026-05-03T12:23:39.001Z</time></trkpt><trkpt lat="42.36259191479939" lon="14.117371232427729"><ele>29.0</ele><time>2026-05-03T12:23:40.001Z</time></trkpt><trkpt lat="42.36276741863476" lon="14.11742718751729"><ele>29.0</ele><time>2026-05-03T12:23:41.001Z</time></trkpt><trkpt lat="42.36295091120872" lon="14.117462541256886"><ele>29.0</ele><time>2026-05-03T12:23:42.001Z</time></trkpt><trkpt lat="42.36313846922772" lon="14.117468068388048"><ele>29.0</ele><time>2026-05-03T12:23:43.001Z</time></trkpt><trkpt lat="42.36332135304781" lon="14.117464405401785"><ele>29.666666666666664</ele><time>2026-05-03T12:23:44.001Z</time></trkpt><trkpt lat="42.36350405741347" lon="14.11746262074683"><ele>30.333333333333336</ele><time>2026-05-03T12:23:45.001Z</time></trkpt><trkpt lat="42.36367932705183" lon="14.117463109420486"><ele>31.0</ele><time>2026-05-03T12:23:46.001Z</time></trkpt><trkpt lat="42.363844511105576" lon="14.117466067668163"><ele>31.666666666666668</ele><time>2026-05-03T12:23:46.999Z</time></trkpt><trkpt lat="42.364013424669956" lon="14.117474065255252"><ele>32.333333333333336</ele><time>2026-05-03T12:23:47.999Z</time></trkpt><trkpt lat="42.36418725623879" lon="14.117496994148993"><ele>33.0</ele><time>2026-05-03T12:23:48.999Z</time></trkpt><trkpt lat="42.36435900146428" lon="14.117544153616924"><ele>33.0</ele><time>2026-05-03T12:23:49.999Z</time></trkpt><trkpt lat="42.36452151412794" lon="14.117623826977852"><ele>33.0</ele><time>2026-05-03T12:23:50.999Z</time></trkpt><trkpt lat="42.36468475814219" lon="14.117725014491192"><ele>33.0</ele><time>2026-05-03T12:23:51.999Z</time></trkpt><trkpt lat="42.364855174609126" lon="14.117840604388283"><ele>32.666666666666664</ele><time>2026-05-03T12:23:52.999Z</time></trkpt><trkpt lat="42.36502740019808" lon="14.117952856392918"><ele>32.33333333333333</ele><time>2026-05-03T12:23:53.999Z</time></trkpt><trkpt lat="42.36520228697078" lon="14.118068652146636"><ele>32.0</ele><time>2026-05-03T12:23:54.999Z</time></trkpt><trkpt lat="42.36537911213362" lon="14.118187067182417"><ele>30.666666666666664</ele><time>2026-05-03T12:23:55.999Z</time></trkpt><trkpt lat="42.36555738672712" lon="14.118304085428775"><ele>29.333333333333336</ele><time>2026-05-03T12:23:56.999Z</time></trkpt><trkpt lat="42.36572600696993" lon="14.118414970957856"><ele>28.0</ele><time>2026-05-03T12:23:57.999Z</time></trkpt><trkpt lat="42.365893620555404" lon="14.118523299962792"><ele>28.0</ele><time>2026-05-03T12:23:58.999Z</time></trkpt><trkpt lat="42.366068337358485" lon="14.118643469243795"><ele>28.0</ele><time>2026-05-03T12:23:59.999Z</time></trkpt><trkpt lat="42.36624159409549" lon="14.11876920963913"><ele>28.0</ele><time>2026-05-03T12:24:00.999Z</time></trkpt><trkpt lat="42.366415145633255" lon="14.118890928747682"><ele>28.0</ele><time>2026-05-03T12:24:01.999Z</time></trkpt><trkpt lat="42.366595192273145" lon="14.119014493113811"><ele>28.0</ele><time>2026-05-03T12:24:02.999Z</time></trkpt><trkpt lat="42.366772822578554" lon="14.11913920343654"><ele>28.0</ele><time>2026-05-03T12:24:03.999Z</time></trkpt><trkpt lat="42.36694251229052" lon="14.11926057473119"><ele>28.0</ele><time>2026-05-03T12:24:04.999Z</time></trkpt><trkpt lat="42.36710382198564" lon="14.119376131480971"><ele>28.0</ele><time>2026-05-03T12:24:05.999Z</time></trkpt><trkpt lat="42.36726006327802" lon="14.119490258810448"><ele>28.0</ele><time>2026-05-03T12:24:06.999Z</time></trkpt><trkpt lat="42.36742774873378" lon="14.119604940637787"><ele>28.0</ele><time>2026-05-03T12:24:07.999Z</time></trkpt><trkpt lat="42.367595224968284" lon="14.119722932946264"><ele>28.0</ele><time>2026-05-03T12:24:08.999Z</time></trkpt><trkpt lat="42.36776239139213" lon="14.119837014127615"><ele>28.0</ele><time>2026-05-03T12:24:10Z</time></trkpt><trkpt lat="42.367923895473105" lon="14.11995211785996"><ele>28.333333333333336</ele><time>2026-05-03T12:24:11Z</time></trkpt><trkpt lat="42.36808692249583" lon="14.12005295343376"><ele>28.666666666666664</ele><time>2026-05-03T12:24:12Z</time></trkpt><trkpt lat="42.36825394694104" lon="14.12015269067114"><ele>29.0</ele><time>2026-05-03T12:24:13Z</time></trkpt><trkpt lat="42.3684353677854" lon="14.120223424370316"><ele>29.0</ele><time>2026-05-03T12:24:14Z</time></trkpt><trkpt lat="42.36862644765953" lon="14.120263768183692"><ele>29.0</ele><time>2026-05-03T12:24:15Z</time></trkpt><trkpt lat="42.368816887429375" lon="14.12029168872705"><ele>29.0</ele><time>2026-05-03T12:24:16Z</time></trkpt><trkpt lat="42.36899751883871" lon="14.120315156235755"><ele>31.666666666666664</ele><time>2026-05-03T12:24:17Z</time></trkpt><trkpt lat="42.3691677809007" lon="14.120340421638105"><ele>34.333333333333336</ele><time>2026-05-03T12:24:18Z</time></trkpt><trkpt lat="42.3693342013708" lon="14.120363199645778"><ele>37.0</ele><time>2026-05-03T12:24:19Z</time></trkpt><trkpt lat="42.36951034517315" lon="14.120385335571251"><ele>37.0</ele><time>2026-05-03T12:24:20Z</time></trkpt><trkpt lat="42.369690981519916" lon="14.12040534246289"><ele>37.0</ele><time>2026-05-03T12:24:21Z</time></trkpt><trkpt lat="42.36987397807063" lon="14.120427040490563"><ele>37.0</ele><time>2026-05-03T12:24:22Z</time></trkpt><trkpt lat="42.370058031097884" lon="14.120448553822516"><ele>37.0</ele><time>2026-05-03T12:24:23Z</time></trkpt><trkpt lat="42.37023482993235" lon="14.120466068746508"><ele>37.0</ele><time>2026-05-03T12:24:24Z</time></trkpt><trkpt lat="42.37041620696581" lon="14.120489740641528"><ele>37.0</ele><time>2026-05-03T12:24:25Z</time></trkpt><trkpt lat="42.37060023268066" lon="14.120518787281616"><ele>37.333333333333336</ele><time>2026-05-03T12:24:26Z</time></trkpt><trkpt lat="42.370788058513554" lon="14.12056424552607"><ele>37.666666666666664</ele><time>2026-05-03T12:24:27Z</time></trkpt><trkpt lat="42.370974852370416" lon="14.120623831819415"><ele>38.0</ele><time>2026-05-03T12:24:28Z</time></trkpt><trkpt lat="42.37116000211647" lon="14.12069697717589"><ele>36.33333333333333</ele><time>2026-05-03T12:24:29Z</time></trkpt><trkpt lat="42.37133937952639" lon="14.120775483326032"><ele>34.666666666666664</ele><time>2026-05-03T12:24:30Z</time></trkpt><trkpt lat="42.37150468151624" lon="14.12084865258978"><ele>33.0</ele><time>2026-05-03T12:24:31Z</time></trkpt><trkpt lat="42.37166237789342" lon="14.120919495234265"><ele>33.0</ele><time>2026-05-03T12:24:32Z</time></trkpt><trkpt lat="42.37183203983911" lon="14.12099685047169"><ele>33.0</ele><time>2026-05-03T12:24:33Z</time></trkpt><trkpt lat="42.37200143687299" lon="14.121083691027374"><ele>33.0</ele><time>2026-05-03T12:24:34Z</time></trkpt><trkpt lat="42.37216184375218" lon="14.121185697059001"><ele>36.333333333333336</ele><time>2026-05-03T12:24:35Z</time></trkpt><trkpt lat="42.37231805147538" lon="14.121304868744021"><ele>39.66666666666667</ele><time>2026-05-03T12:24:36Z</time></trkpt><trkpt lat="42.37246662727393" lon="14.121426257514562"><ele>43.0</ele><time>2026-05-03T12:24:37Z</time></trkpt><trkpt lat="42.37260751879947" lon="14.121539588744476"><ele>40.0</ele><time>2026-05-03T12:24:38Z</time></trkpt><trkpt lat="42.37274506484321" lon="14.121648394644398"><ele>37.0</ele><time>2026-05-03T12:24:39Z</time></trkpt><trkpt lat="42.37287400886032" lon="14.121751631479968"><ele>34.0</ele><time>2026-05-03T12:24:40Z</time></trkpt><trkpt lat="42.37299757720546" lon="14.121848040387563"><ele>35.75</ele><time>2026-05-03T12:24:41Z</time></trkpt><trkpt lat="42.3731162459011" lon="14.121941536508029"><ele>37.5</ele><time>2026-05-03T12:24:42Z</time></trkpt><trkpt lat="42.373232344970134" lon="14.122033919476122"><ele>39.25</ele><time>2026-05-03T12:24:43Z</time></trkpt><trkpt lat="42.373339229969936" lon="14.122120882493844"><ele>41.0</ele><time>2026-05-03T12:24:44Z</time></trkpt><trkpt lat="42.37343586342976" lon="14.122200735778765"><ele>41.0</ele><time>2026-05-03T12:24:45Z</time></trkpt><trkpt lat="42.37352534431699" lon="14.122270986792742"><ele>41.0</ele><time>2026-05-03T12:24:46Z</time></trkpt><trkpt lat="42.373610706656436" lon="14.122337309734398"><ele>41.0</ele><time>2026-05-03T12:24:47Z</time></trkpt><trkpt lat="42.373684654554786" lon="14.12239712834383"><ele>41.0</ele><time>2026-05-03T12:24:48Z</time></trkpt><trkpt lat="42.373755076360254" lon="14.122455637704045"><ele>41.0</ele><time>2026-05-03T12:24:49Z</time></trkpt><trkpt lat="42.37381497654416" lon="14.122505717595994"><ele>41.0</ele><time>2026-05-03T12:24:50Z</time></trkpt><trkpt lat="42.37387387039735" lon="14.122551568286717"><ele>41.0</ele><time>2026-05-03T12:24:51Z</time></trkpt><trkpt lat="42.3739688393709" lon="14.122628476393928"><ele>41.0</ele><time>2026-05-03T12:24:53Z</time></trkpt><trkpt lat="42.37404579083309" lon="14.122691270610483"><ele>41.0</ele><time>2026-05-03T12:25:10.001Z</time></trkpt><trkpt lat="42.37410935162365" lon="14.122734389517829"><ele>41.0</ele><time>2026-05-03T12:25:11.001Z</time></trkpt><trkpt lat="42.37418813806698" lon="14.122766585387588"><ele>41.0</ele><time>2026-05-03T12:25:12.001Z</time></trkpt><trkpt lat="42.37426489060497" lon="14.122861891977312"><ele>41.0</ele><time>2026-05-03T12:25:13.001Z</time></trkpt><trkpt lat="42.3743613508335" lon="14.122939627198438"><ele>41.0</ele><time>2026-05-03T12:25:14.001Z</time></trkpt><trkpt lat="42.37447397496161" lon="14.123030968479778"><ele>41.0</ele><time>2026-05-03T12:25:15.001Z</time></trkpt><trkpt lat="42.37458833086622" lon="14.123119596736021"><ele>41.0</ele><time>2026-05-03T12:25:16.001Z</time></trkpt><trkpt lat="42.374702375913955" lon="14.123206948752832"><ele>40.5</ele><time>2026-05-03T12:25:17.001Z</time></trkpt><trkpt lat="42.37481168738962" lon="14.12329675689829"><ele>40.0</ele><time>2026-05-03T12:25:18.001Z</time></trkpt><trkpt lat="42.37492674557236" lon="14.123382965825698"><ele>39.5</ele><time>2026-05-03T12:25:19.001Z</time></trkpt><trkpt lat="42.375026146101604" lon="14.123462433338954"><ele>39.0</ele><time>2026-05-03T12:25:20.001Z</time></trkpt><trkpt lat="42.37511353942156" lon="14.123530711057896"><ele>39.0</ele><time>2026-05-03T12:25:21.001Z</time></trkpt><trkpt lat="42.37519907287891" lon="14.123596353625935"><ele>39.0</ele><time>2026-05-03T12:25:22.001Z</time></trkpt><trkpt lat="42.37527164967783" lon="14.12364744041719"><ele>39.0</ele><time>2026-05-03T12:25:23.001Z</time></trkpt><trkpt lat="42.37534258305391" lon="14.123706426205743"><ele>39.0</ele><time>2026-05-03T12:25:24.001Z</time></trkpt><trkpt lat="42.375407930323725" lon="14.12375829874176"><ele>39.0</ele><time>2026-05-03T12:25:25.001Z</time></trkpt><trkpt lat="42.37547578455852" lon="14.1238106239238"><ele>39.0</ele><time>2026-05-03T12:25:26.001Z</time></trkpt><trkpt lat="42.37554414321623" lon="14.12386276772418"><ele>39.8</ele><time>2026-05-03T12:25:27.001Z</time></trkpt><trkpt lat="42.37561775724721" lon="14.123915355723021"><ele>40.599999999999994</ele><time>2026-05-03T12:25:28.001Z</time></trkpt><trkpt lat="42.37570720628414" lon="14.123962252990134"><ele>41.4</ele><time>2026-05-03T12:25:29.001Z</time></trkpt><trkpt lat="42.375806649235344" lon="14.123999305424377"><ele>42.199999999999996</ele><time>2026-05-03T12:25:30.001Z</time></trkpt><trkpt lat="42.37590272655274" lon="14.12402636987571"><ele>43.0</ele><time>2026-05-03T12:25:31.001Z</time></trkpt><trkpt lat="42.37599617106409" lon="14.124051893198324"><ele>42.16666666666667</ele><time>2026-05-03T12:25:32.001Z</time></trkpt><trkpt lat="42.376090631822045" lon="14.12407256164117"><ele>41.333333333333336</ele><time>2026-05-03T12:25:33.001Z</time></trkpt><trkpt lat="42.37617131551462" lon="14.124107240217272"><ele>40.5</ele><time>2026-05-03T12:25:34.001Z</time></trkpt><trkpt lat="42.37624119822705" lon="14.12416694103485"><ele>39.666666666666664</ele><time>2026-05-03T12:25:35.001Z</time></trkpt><trkpt lat="42.3762993117537" lon="14.124246994029859"><ele>38.83333333333333</ele><time>2026-05-03T12:25:36.001Z</time></trkpt><trkpt lat="42.376341128362824" lon="14.124344026186266"><ele>38.0</ele><time>2026-05-03T12:25:37.001Z</time></trkpt><trkpt lat="42.376374041058156" lon="14.124437416642774"><ele>37.83333333333333</ele><time>2026-05-03T12:25:38.001Z</time></trkpt><trkpt lat="42.376419642119735" lon="14.124505913648155"><ele>37.666666666666664</ele><time>2026-05-03T12:25:39.001Z</time></trkpt><trkpt lat="42.37648456161155" lon="14.124538981852554"><ele>37.5</ele><time>2026-05-03T12:25:40.001Z</time></trkpt><trkpt lat="42.37654976803421" lon="14.124516591326197"><ele>37.333333333333336</ele><time>2026-05-03T12:25:41.001Z</time></trkpt><trkpt lat="42.37665088640831" lon="14.124389654949454"><ele>37.16666666666667</ele><time>2026-05-03T12:25:43.001Z</time></trkpt><trkpt lat="42.37669404908911" lon="14.124279591821434"><ele>37.0</ele><time>2026-05-03T12:25:44.001Z</time></trkpt><trkpt lat="42.37674758759962" lon="14.124181967018838"><ele>37.0</ele><time>2026-05-03T12:25:45.001Z</time></trkpt><trkpt lat="42.37682981803889" lon="14.124106878824845"><ele>37.0</ele><time>2026-05-03T12:25:46.001Z</time></trkpt><trkpt lat="42.376892623402206" lon="14.124017921106471"><ele>37.0</ele><time>2026-05-03T12:25:47.001Z</time></trkpt><trkpt lat="42.376952171948886" lon="14.123896864640948"><ele>37.0</ele><time>2026-05-03T12:25:48.001Z</time></trkpt><trkpt lat="42.37703769906665" lon="14.123776662564115"><ele>37.0</ele><time>2026-05-03T12:25:49.001Z</time></trkpt><trkpt lat="42.37711797249256" lon="14.123632483593878"><ele>39.25</ele><time>2026-05-03T12:25:50.001Z</time></trkpt><trkpt lat="42.377202585340264" lon="14.12348051612972"><ele>41.5</ele><time>2026-05-03T12:25:51.001Z</time></trkpt><trkpt lat="42.37730860494035" lon="14.123415530563715"><ele>43.75</ele><time>2026-05-03T12:25:52.001Z</time></trkpt><trkpt lat="42.377428681538184" lon="14.12334532743385"><ele>46.0</ele><time>2026-05-03T12:25:52.999Z</time></trkpt><trkpt lat="42.37757186059009" lon="14.12335869897471"><ele>46.0</ele><time>2026-05-03T12:25:53.999Z</time></trkpt><trkpt lat="42.377707294843034" lon="14.12340241833148"><ele>46.0</ele><time>2026-05-03T12:25:54.999Z</time></trkpt><trkpt lat="42.377857236490065" lon="14.123445746121263"><ele>46.0</ele><time>2026-05-03T12:25:55.999Z</time></trkpt><trkpt lat="42.378001651083274" lon="14.123474401611459"><ele>46.0</ele><time>2026-05-03T12:25:56.999Z</time></trkpt><trkpt lat="42.37815574545504" lon="14.123498858508643"><ele>49.0</ele><time>2026-05-03T12:25:57.999Z</time></trkpt><trkpt lat="42.37831485480461" lon="14.1235170641674"><ele>52.0</ele><time>2026-05-03T12:25:58.999Z</time></trkpt><trkpt lat="42.37847484003206" lon="14.123541146204959"><ele>55.0</ele><time>2026-05-03T12:25:59.999Z</time></trkpt><trkpt lat="42.378641418593325" lon="14.123571131089788"><ele>55.0</ele><time>2026-05-03T12:26:00.999Z</time></trkpt><trkpt lat="42.37881391391445" lon="14.12360188806322"><ele>55.0</ele><time>2026-05-03T12:26:01.999Z</time></trkpt><trkpt lat="42.378980744396635" lon="14.123628101156601"><ele>55.0</ele><time>2026-05-03T12:26:02.999Z</time></trkpt><trkpt lat="42.3791336849733" lon="14.123655778987949"><ele>56.0</ele><time>2026-05-03T12:26:03.999Z</time></trkpt><trkpt lat="42.37925726776066" lon="14.123688651768756"><ele>57.0</ele><time>2026-05-03T12:26:04.999Z</time></trkpt><trkpt lat="42.379370959547884" lon="14.123742092883264"><ele>58.0</ele><time>2026-05-03T12:26:05.999Z</time></trkpt><trkpt lat="42.37947246127035" lon="14.123810988058848"><ele>59.0</ele><time>2026-05-03T12:26:06.999Z</time></trkpt><trkpt lat="42.37954620464139" lon="14.123902460859972"><ele>59.0</ele><time>2026-05-03T12:26:07.999Z</time></trkpt><trkpt lat="42.37960679139373" lon="14.123997589440458"><ele>59.0</ele><time>2026-05-03T12:26:08.999Z</time></trkpt><trkpt lat="42.37969229842999" lon="14.124094691109557"><ele>59.0</ele><time>2026-05-03T12:26:09.999Z</time></trkpt><trkpt lat="42.37982130012853" lon="14.124201444930804"><ele>59.0</ele><time>2026-05-03T12:26:10.999Z</time></trkpt><trkpt lat="42.37996587023148" lon="14.124329965557177"><ele>56.66666666666667</ele><time>2026-05-03T12:26:11.999Z</time></trkpt><trkpt lat="42.380134153373724" lon="14.124456143797468"><ele>54.33333333333333</ele><time>2026-05-03T12:26:12.999Z</time></trkpt><trkpt lat="42.38031174656422" lon="14.124578116654725"><ele>52.0</ele><time>2026-05-03T12:26:13.999Z</time></trkpt><trkpt lat="42.380477947578946" lon="14.124697748265122"><ele>50.666666666666664</ele><time>2026-05-03T12:26:14.999Z</time></trkpt><trkpt lat="42.38063102429366" lon="14.124820544308625"><ele>49.33333333333333</ele><time>2026-05-03T12:26:15.999Z</time></trkpt><trkpt lat="42.38079358933601" lon="14.124937824042997"><ele>48.0</ele><time>2026-05-03T12:26:16.999Z</time></trkpt><trkpt lat="42.38095144791837" lon="14.12505628928135"><ele>48.0</ele><time>2026-05-03T12:26:17.999Z</time></trkpt><trkpt lat="42.38109986993094" lon="14.12516233237676"><ele>48.0</ele><time>2026-05-03T12:26:18.999Z</time></trkpt><trkpt lat="42.381254296652386" lon="14.125269247781958"><ele>48.0</ele><time>2026-05-03T12:26:20Z</time></trkpt><trkpt lat="42.3814197310353" lon="14.125382547483051"><ele>46.666666666666664</ele><time>2026-05-03T12:26:21Z</time></trkpt><trkpt lat="42.38158080386093" lon="14.125490355999439"><ele>45.33333333333333</ele><time>2026-05-03T12:26:22Z</time></trkpt><trkpt lat="42.38172793585577" lon="14.12561835218084"><ele>44.0</ele><time>2026-05-03T12:26:23Z</time></trkpt><trkpt lat="42.38187797481273" lon="14.12574110032008"><ele>44.0</ele><time>2026-05-03T12:26:24Z</time></trkpt><trkpt lat="42.38202858652047" lon="14.125846138368768"><ele>44.0</ele><time>2026-05-03T12:26:25Z</time></trkpt><trkpt lat="42.38217869726307" lon="14.12598386908143"><ele>44.0</ele><time>2026-05-03T12:26:26Z</time></trkpt><trkpt lat="42.38233057958413" lon="14.126130756599789"><ele>47.0</ele><time>2026-05-03T12:26:27Z</time></trkpt><trkpt lat="42.382478212477416" lon="14.126253384153788"><ele>50.0</ele><time>2026-05-03T12:26:28Z</time></trkpt><trkpt lat="42.382622849850705" lon="14.12633635328"><ele>53.0</ele><time>2026-05-03T12:26:29Z</time></trkpt><trkpt lat="42.38278314296787" lon="14.1263844912621"><ele>53.0</ele><time>2026-05-03T12:26:30Z</time></trkpt><trkpt lat="42.38294685402283" lon="14.126402426478032"><ele>53.0</ele><time>2026-05-03T12:26:31Z</time></trkpt><trkpt lat="42.383107306633924" lon="14.126427936207056"><ele>53.0</ele><time>2026-05-03T12:26:32Z</time></trkpt><trkpt lat="42.38325812346628" lon="14.126432140270564"><ele>53.0</ele><time>2026-05-03T12:26:33Z</time></trkpt><trkpt lat="42.38339692455413" lon="14.12644142990571"><ele>53.0</ele><time>2026-05-03T12:26:34Z</time></trkpt><trkpt lat="42.38353959602251" lon="14.126471785942032"><ele>53.0</ele><time>2026-05-03T12:26:35Z</time></trkpt><trkpt lat="42.383673794810825" lon="14.126567717242633"><ele>53.0</ele><time>2026-05-03T12:26:36Z</time></trkpt><trkpt lat="42.38380847605251" lon="14.126664483350785"><ele>49.333333333333336</ele><time>2026-05-03T12:26:37Z</time></trkpt><trkpt lat="42.383946270040596" lon="14.126746738785533"><ele>45.66666666666667</ele><time>2026-05-03T12:26:38Z</time></trkpt><trkpt lat="42.38410041898374" lon="14.126823605626578"><ele>42.0</ele><time>2026-05-03T12:26:39Z</time></trkpt><trkpt lat="42.38425915010634" lon="14.126895726296237"><ele>42.0</ele><time>2026-05-03T12:26:40Z</time></trkpt><trkpt lat="42.384417468841804" lon="14.126964680266436"><ele>42.0</ele><time>2026-05-03T12:26:41Z</time></trkpt><trkpt lat="42.38456986606335" lon="14.12701232325836"><ele>42.0</ele><time>2026-05-03T12:26:42Z</time></trkpt><trkpt lat="42.38471656344603" lon="14.127069638083235"><ele>43.0</ele><time>2026-05-03T12:26:43Z</time></trkpt><trkpt lat="42.38486304397777" lon="14.127128665591245"><ele>44.0</ele><time>2026-05-03T12:26:44Z</time></trkpt><trkpt lat="42.38500275705346" lon="14.127199664280118"><ele>45.0</ele><time>2026-05-03T12:26:45Z</time></trkpt><trkpt lat="42.3851358793775" lon="14.127310356960766"><ele>42.0</ele><time>2026-05-03T12:26:46Z</time></trkpt><trkpt lat="42.38526219118169" lon="14.127444188380116"><ele>39.0</ele><time>2026-05-03T12:26:47Z</time></trkpt><trkpt lat="42.385385604679946" lon="14.127595261413388"><ele>36.0</ele><time>2026-05-03T12:26:48Z</time></trkpt><trkpt lat="42.385519947153576" lon="14.127740123455354"><ele>36.0</ele><time>2026-05-03T12:26:49.001Z</time></trkpt><trkpt lat="42.38565516825537" lon="14.127872952159299"><ele>36.0</ele><time>2026-05-03T12:26:50.001Z</time></trkpt><trkpt lat="42.385783295331784" lon="14.12799439252012"><ele>36.0</ele><time>2026-05-03T12:26:51.001Z</time></trkpt><trkpt lat="42.385918994406445" lon="14.12811940768283"><ele>35.666666666666664</ele><time>2026-05-03T12:26:52.001Z</time></trkpt><trkpt lat="42.386054576129766" lon="14.12824328593102"><ele>35.33333333333333</ele><time>2026-05-03T12:26:53.001Z</time></trkpt><trkpt lat="42.38618382181491" lon="14.12837993978142"><ele>35.0</ele><time>2026-05-03T12:26:54.001Z</time></trkpt><trkpt lat="42.38630617883226" lon="14.128533513590952"><ele>35.666666666666664</ele><time>2026-05-03T12:26:55.001Z</time></trkpt><trkpt lat="42.38640636679202" lon="14.128700917535514"><ele>36.333333333333336</ele><time>2026-05-03T12:26:56.001Z</time></trkpt><trkpt lat="42.386496308661435" lon="14.128865404744479"><ele>37.0</ele><time>2026-05-03T12:26:57.001Z</time></trkpt><trkpt lat="42.38658398675348" lon="14.12901224331748"><ele>36.0</ele><time>2026-05-03T12:26:58.001Z</time></trkpt><trkpt lat="42.386674534302415" lon="14.129155637800444"><ele>35.0</ele><time>2026-05-03T12:26:59.001Z</time></trkpt><trkpt lat="42.38676548015254" lon="14.129291969375727"><ele>34.0</ele><time>2026-05-03T12:27:00.001Z</time></trkpt><trkpt lat="42.38685935294437" lon="14.129418552956029"><ele>33.0</ele><time>2026-05-03T12:27:01.001Z</time></trkpt><trkpt lat="42.38695382946808" lon="14.129528449788435"><ele>33.0</ele><time>2026-05-03T12:27:02.001Z</time></trkpt><trkpt lat="42.387053404540254" lon="14.12963422445204"><ele>33.0</ele><time>2026-05-03T12:27:03.001Z</time></trkpt><trkpt lat="42.387155056427694" lon="14.129733846028609"><ele>33.0</ele><time>2026-05-03T12:27:04.001Z</time></trkpt><trkpt lat="42.38726224139129" lon="14.129832697057248"><ele>33.0</ele><time>2026-05-03T12:27:05.001Z</time></trkpt><trkpt lat="42.38736114875086" lon="14.129925897230073"><ele>32.75</ele><time>2026-05-03T12:27:06.001Z</time></trkpt><trkpt lat="42.3874588258548" lon="14.130016868230317"><ele>32.5</ele><time>2026-05-03T12:27:07.001Z</time></trkpt><trkpt lat="42.387553539722795" lon="14.130113492615267"><ele>32.25</ele><time>2026-05-03T12:27:08.001Z</time></trkpt><trkpt lat="42.3876477319684" lon="14.130196090302604"><ele>32.0</ele><time>2026-05-03T12:27:09.001Z</time></trkpt><trkpt lat="42.387732730633" lon="14.130277581338353"><ele>31.999999999999996</ele><time>2026-05-03T12:27:10.001Z</time></trkpt><trkpt lat="42.387808916816006" lon="14.130356173530352"><ele>32.0</ele><time>2026-05-03T12:27:11.001Z</time></trkpt><trkpt lat="42.38787493763043" lon="14.130420072949883"><ele>32.0</ele><time>2026-05-03T12:27:12.001Z</time></trkpt><trkpt lat="42.387945603729484" lon="14.130468365066898"><ele>32.0</ele><time>2026-05-03T12:27:13.001Z</time></trkpt><trkpt lat="42.388019349197606" lon="14.13050618304178"><ele>31.999999999999996</ele><time>2026-05-03T12:27:14.001Z</time></trkpt><trkpt lat="42.388093361126664" lon="14.130536992340982"><ele>32.0</ele><time>2026-05-03T12:27:15.001Z</time></trkpt><trkpt lat="42.388186452409975" lon="14.130570631270492"><ele>32.0</ele><time>2026-05-03T12:27:16.001Z</time></trkpt><trkpt lat="42.38828953359572" lon="14.130617277704163"><ele>32.0</ele><time>2026-05-03T12:27:17.001Z</time></trkpt><trkpt lat="42.38838763612363" lon="14.130673105855196"><ele>32.0</ele><time>2026-05-03T12:27:18.001Z</time></trkpt><trkpt lat="42.38848842031818" lon="14.130738315956002"><ele>32.0</ele><time>2026-05-03T12:27:19.001Z</time></trkpt><trkpt lat="42.388586187225705" lon="14.13080145657345"><ele>32.0</ele><time>2026-05-03T12:27:20.001Z</time></trkpt><trkpt lat="42.38868030233396" lon="14.130865244035862"><ele>32.0</ele><time>2026-05-03T12:27:21.001Z</time></trkpt><trkpt lat="42.38878388295099" lon="14.130929678671347"><ele>32.0</ele><time>2026-05-03T12:27:22.002Z</time></trkpt><trkpt lat="42.38889365169156" lon="14.130998520499068"><ele>32.0</ele><time>2026-05-03T12:27:23.002Z</time></trkpt><trkpt lat="42.38899947320801" lon="14.131068280078845"><ele>32.0</ele><time>2026-05-03T12:27:24.002Z</time></trkpt><trkpt lat="42.38910406098247" lon="14.131139748530728"><ele>32.25</ele><time>2026-05-03T12:27:25.002Z</time></trkpt><trkpt lat="42.389206650627635" lon="14.131212249738967"><ele>32.5</ele><time>2026-05-03T12:27:26.002Z</time></trkpt><trkpt lat="42.38930676650119" lon="14.131291763873595"><ele>32.75</ele><time>2026-05-03T12:27:27.002Z</time></trkpt><trkpt lat="42.38941240511934" lon="14.131379668755336"><ele>33.0</ele><time>2026-05-03T12:27:28.002Z</time></trkpt><trkpt lat="42.38951009878203" lon="14.13146412167154"><ele>33.0</ele><time>2026-05-03T12:27:29.002Z</time></trkpt><trkpt lat="42.38960458352096" lon="14.131546863243235"><ele>33.0</ele><time>2026-05-03T12:27:30.002Z</time></trkpt><trkpt lat="42.38970156028485" lon="14.131628910848141"><ele>33.0</ele><time>2026-05-03T12:27:31.002Z</time></trkpt><trkpt lat="42.389796731678395" lon="14.131712452127744"><ele>33.0</ele><time>2026-05-03T12:27:32.002Z</time></trkpt><trkpt lat="42.38988947711931" lon="14.13179432744638"><ele>32.6</ele><time>2026-05-03T12:27:33.002Z</time></trkpt><trkpt lat="42.38997829173447" lon="14.131875946752182"><ele>32.199999999999996</ele><time>2026-05-03T12:27:34.002Z</time></trkpt><trkpt lat="42.3900695094231" lon="14.13195730953718"><ele>31.8</ele><time>2026-05-03T12:27:35.002Z</time></trkpt><trkpt lat="42.390152206859234" lon="14.132031557949642"><ele>31.4</ele><time>2026-05-03T12:27:36.002Z</time></trkpt><trkpt lat="42.3902350864169" lon="14.132103784582782"><ele>31.0</ele><time>2026-05-03T12:27:37.002Z</time></trkpt><trkpt lat="42.3903155525998" lon="14.132178741064346"><ele>31.0</ele><time>2026-05-03T12:27:38.002Z</time></trkpt><trkpt lat="42.39040394759739" lon="14.132258045396505"><ele>31.0</ele><time>2026-05-03T12:27:39.002Z</time></trkpt><trkpt lat="42.39050191594194" lon="14.132343775457583"><ele>31.0</ele><time>2026-05-03T12:27:40.002Z</time></trkpt><trkpt lat="42.39060647243767" lon="14.132438846385206"><ele>31.0</ele><time>2026-05-03T12:27:41.002Z</time></trkpt><trkpt lat="42.39071492181898" lon="14.132540658427464"><ele>30.75</ele><time>2026-05-03T12:27:42.002Z</time></trkpt><trkpt lat="42.39083116870934" lon="14.132644270997876"><ele>30.5</ele><time>2026-05-03T12:27:43.002Z</time></trkpt><trkpt lat="42.39095402402838" lon="14.132753593198045"><ele>30.25</ele><time>2026-05-03T12:27:44.002Z</time></trkpt><trkpt lat="42.39107653092401" lon="14.13286594289771"><ele>30.0</ele><time>2026-05-03T12:27:45.002Z</time></trkpt><trkpt lat="42.39119314687659" lon="14.132966033953673"><ele>30.0</ele><time>2026-05-03T12:27:46.002Z</time></trkpt><trkpt lat="42.391305683775634" lon="14.133067066656507"><ele>30.0</ele><time>2026-05-03T12:27:47.002Z</time></trkpt><trkpt lat="42.391421215709656" lon="14.133172579326745"><ele>30.0</ele><time>2026-05-03T12:27:48.002Z</time></trkpt><trkpt lat="42.39153160814556" lon="14.133272391661942"><ele>30.0</ele><time>2026-05-03T12:27:49.002Z</time></trkpt><trkpt lat="42.391653962006636" lon="14.133377815936141"><ele>30.0</ele><time>2026-05-03T12:27:50.002Z</time></trkpt><trkpt lat="42.39177696709175" lon="14.13348737377716"><ele>30.0</ele><time>2026-05-03T12:27:51.002Z</time></trkpt><trkpt lat="42.39190014095513" lon="14.13359803050576"><ele>30.0</ele><time>2026-05-03T12:27:52.002Z</time></trkpt><trkpt lat="42.39203457202282" lon="14.133715245807949"><ele>30.0</ele><time>2026-05-03T12:27:53.002Z</time></trkpt><trkpt lat="42.392165401049695" lon="14.133834346025749"><ele>30.0</ele><time>2026-05-03T12:27:54.002Z</time></trkpt><trkpt lat="42.39229295065603" lon="14.133936045696448"><ele>30.0</ele><time>2026-05-03T12:27:55.002Z</time></trkpt><trkpt lat="42.39241502594069" lon="14.134038030482442"><ele>30.0</ele><time>2026-05-03T12:27:56.002Z</time></trkpt><trkpt lat="42.39251789688943" lon="14.134166243970176"><ele>29.75</ele><time>2026-05-03T12:27:57.002Z</time></trkpt><trkpt lat="42.39263321083595" lon="14.134277911014845"><ele>29.5</ele><time>2026-05-03T12:27:58.002Z</time></trkpt><trkpt lat="42.39274386777173" lon="14.134388933582459"><ele>29.25</ele><time>2026-05-03T12:27:59Z</time></trkpt><trkpt lat="42.392850969201675" lon="14.13448532760561"><ele>29.0</ele><time>2026-05-03T12:28:00Z</time></trkpt><trkpt lat="42.392982693409806" lon="14.134570872923929"><ele>29.25</ele><time>2026-05-03T12:28:01Z</time></trkpt><trkpt lat="42.39309699646987" lon="14.134657886783094"><ele>29.5</ele><time>2026-05-03T12:28:02Z</time></trkpt><trkpt lat="42.393222315925165" lon="14.13476593793329"><ele>29.75</ele><time>2026-05-03T12:28:03Z</time></trkpt><trkpt lat="42.39336462330456" lon="14.134880316599018"><ele>30.0</ele><time>2026-05-03T12:28:04Z</time></trkpt><trkpt lat="42.393511437422596" lon="14.135018363173348"><ele>30.0</ele><time>2026-05-03T12:28:05Z</time></trkpt><trkpt lat="42.39367077452076" lon="14.135156063105086"><ele>30.0</ele><time>2026-05-03T12:28:06Z</time></trkpt><trkpt lat="42.393819600250474" lon="14.135295755098701"><ele>30.0</ele><time>2026-05-03T12:28:07Z</time></trkpt><trkpt lat="42.393966458549876" lon="14.13542378714813"><ele>30.0</ele><time>2026-05-03T12:28:08Z</time></trkpt><trkpt lat="42.39410321840353" lon="14.135546641448704"><ele>30.0</ele><time>2026-05-03T12:28:09Z</time></trkpt><trkpt lat="42.39421750788414" lon="14.135650688215843"><ele>30.0</ele><time>2026-05-03T12:28:10Z</time></trkpt><trkpt lat="42.39434667647555" lon="14.135766516735433"><ele>29.666666666666664</ele><time>2026-05-03T12:28:11Z</time></trkpt><trkpt lat="42.394483917596204" lon="14.135878462344833"><ele>29.333333333333332</ele><time>2026-05-03T12:28:12Z</time></trkpt><trkpt lat="42.394625400634695" lon="14.136003567170116"><ele>29.0</ele><time>2026-05-03T12:28:13Z</time></trkpt><trkpt lat="42.39477463739697" lon="14.13616203973536"><ele>29.0</ele><time>2026-05-03T12:28:14Z</time></trkpt><trkpt lat="42.394942802398" lon="14.136292976220636"><ele>29.0</ele><time>2026-05-03T12:28:15Z</time></trkpt><trkpt lat="42.39508392266041" lon="14.136427450079742"><ele>29.0</ele><time>2026-05-03T12:28:16Z</time></trkpt><trkpt lat="42.395218276386984" lon="14.13655817886173"><ele>28.0</ele><time>2026-05-03T12:28:17Z</time></trkpt><trkpt lat="42.3953506276597" lon="14.136678441225925"><ele>27.0</ele><time>2026-05-03T12:28:18Z</time></trkpt><trkpt lat="42.3954748637958" lon="14.136792272002154"><ele>26.0</ele><time>2026-05-03T12:28:19Z</time></trkpt><trkpt lat="42.39559428199349" lon="14.136903057498603"><ele>26.0</ele><time>2026-05-03T12:28:20Z</time></trkpt><trkpt lat="42.39571424807025" lon="14.137012231142135"><ele>26.0</ele><time>2026-05-03T12:28:21Z</time></trkpt><trkpt lat="42.39584189999794" lon="14.137130530268118"><ele>26.0</ele><time>2026-05-03T12:28:22Z</time></trkpt><trkpt lat="42.39597020093501" lon="14.137245040610743"><ele>26.0</ele><time>2026-05-03T12:28:23Z</time></trkpt><trkpt lat="42.39608873492106" lon="14.137350452767794"><ele>26.0</ele><time>2026-05-03T12:28:24Z</time></trkpt><trkpt lat="42.39620192496966" lon="14.137454907206395"><ele>26.0</ele><time>2026-05-03T12:28:25Z</time></trkpt><trkpt lat="42.39631603970247" lon="14.137555217373057"><ele>26.0</ele><time>2026-05-03T12:28:26Z</time></trkpt><trkpt lat="42.39644036147094" lon="14.137666496537962"><ele>26.333333333333332</ele><time>2026-05-03T12:28:27.001Z</time></trkpt><trkpt lat="42.39657072765451" lon="14.137779171339371"><ele>26.666666666666664</ele><time>2026-05-03T12:28:28.001Z</time></trkpt><trkpt lat="42.39669597551862" lon="14.137889785141876"><ele>27.0</ele><time>2026-05-03T12:28:29.001Z</time></trkpt><trkpt lat="42.39682774515194" lon="14.138002435974764"><ele>27.0</ele><time>2026-05-03T12:28:30.001Z</time></trkpt><trkpt lat="42.396966628341914" lon="14.138125324891606"><ele>27.0</ele><time>2026-05-03T12:28:31.001Z</time></trkpt><trkpt lat="42.397107255688866" lon="14.138245162864658"><ele>27.0</ele><time>2026-05-03T12:28:32.001Z</time></trkpt><trkpt lat="42.39723729186325" lon="14.138362033321481"><ele>26.75</ele><time>2026-05-03T12:28:33.001Z</time></trkpt><trkpt lat="42.397363104829225" lon="14.138475370366463"><ele>26.5</ele><time>2026-05-03T12:28:34.001Z</time></trkpt><trkpt lat="42.39748152612956" lon="14.138582210803083"><ele>26.25</ele><time>2026-05-03T12:28:35.001Z</time></trkpt><trkpt lat="42.397596204487584" lon="14.138685885679601"><ele>26.0</ele><time>2026-05-03T12:28:36.001Z</time></trkpt><trkpt lat="42.3977096934429" lon="14.138791952770474"><ele>26.0</ele><time>2026-05-03T12:28:37.001Z</time></trkpt><trkpt lat="42.397831504867895" lon="14.13890445312522"><ele>26.0</ele><time>2026-05-03T12:28:38.001Z</time></trkpt><trkpt lat="42.397945259512525" lon="14.13900352260561"><ele>26.0</ele><time>2026-05-03T12:28:39.001Z</time></trkpt><trkpt lat="42.39806109469173" lon="14.139104185405634"><ele>26.0</ele><time>2026-05-03T12:28:40.001Z</time></trkpt><trkpt lat="42.39818767096748" lon="14.139208382474276"><ele>26.0</ele><time>2026-05-03T12:28:41.001Z</time></trkpt><trkpt lat="42.39832381117072" lon="14.139323890217936"><ele>26.0</ele><time>2026-05-03T12:28:42.001Z</time></trkpt><trkpt lat="42.398461171236654" lon="14.139449557445246"><ele>26.0</ele><time>2026-05-03T12:28:43.001Z</time></trkpt><trkpt lat="42.398591331916265" lon="14.13957642076394"><ele>26.0</ele><time>2026-05-03T12:28:44.001Z</time></trkpt><trkpt lat="42.398715808892874" lon="14.13969269444647"><ele>26.0</ele><time>2026-05-03T12:28:45.001Z</time></trkpt><trkpt lat="42.398845382612194" lon="14.139810248889951"><ele>26.0</ele><time>2026-05-03T12:28:46.001Z</time></trkpt><trkpt lat="42.39898434900589" lon="14.139934114012181"><ele>25.666666666666664</ele><time>2026-05-03T12:28:47.001Z</time></trkpt><trkpt lat="42.3991282223741" lon="14.140063643570022"><ele>25.333333333333336</ele><time>2026-05-03T12:28:48.001Z</time></trkpt><trkpt lat="42.399274506609295" lon="14.140192679937144"><ele>25.0</ele><time>2026-05-03T12:28:49.001Z</time></trkpt><trkpt lat="42.39941516488544" lon="14.140318339423063"><ele>25.0</ele><time>2026-05-03T12:28:50.001Z</time></trkpt><trkpt lat="42.399560575937656" lon="14.140446773801035"><ele>25.0</ele><time>2026-05-03T12:28:51.001Z</time></trkpt><trkpt lat="42.39970919211882" lon="14.140583063251185"><ele>25.0</ele><time>2026-05-03T12:28:52.001Z</time></trkpt><trkpt lat="42.39984802919666" lon="14.140708938694374"><ele>25.333333333333336</ele><time>2026-05-03T12:28:53.001Z</time></trkpt><trkpt lat="42.39999245782519" lon="14.140843159089911"><ele>25.666666666666664</ele><time>2026-05-03T12:28:54.001Z</time></trkpt><trkpt lat="42.40013931696307" lon="14.140971863786246"><ele>26.0</ele><time>2026-05-03T12:28:55.001Z</time></trkpt><trkpt lat="42.400289935714426" lon="14.141103039002646"><ele>26.0</ele><time>2026-05-03T12:28:56.001Z</time></trkpt><trkpt lat="42.400435277637975" lon="14.141230240496753"><ele>26.0</ele><time>2026-05-03T12:28:57.001Z</time></trkpt><trkpt lat="42.400574150481624" lon="14.141352959895025"><ele>26.0</ele><time>2026-05-03T12:28:58.001Z</time></trkpt><trkpt lat="42.40070351057288" lon="14.141469698896287"><ele>25.666666666666664</ele><time>2026-05-03T12:28:59.001Z</time></trkpt><trkpt lat="42.400839084380436" lon="14.141594503071712"><ele>25.333333333333336</ele><time>2026-05-03T12:29:00.001Z</time></trkpt><trkpt lat="42.40098382947531" lon="14.14172408012315"><ele>25.0</ele><time>2026-05-03T12:29:01.001Z</time></trkpt><trkpt lat="42.40112124772207" lon="14.141849919224631"><ele>25.0</ele><time>2026-05-03T12:29:02.001Z</time></trkpt><trkpt lat="42.401264077631694" lon="14.141975970072416"><ele>25.0</ele><time>2026-05-03T12:29:03.001Z</time></trkpt><trkpt lat="42.40140753582967" lon="14.142101892453189"><ele>25.0</ele><time>2026-05-03T12:29:04.001Z</time></trkpt><trkpt lat="42.40155120805669" lon="14.14223134907506"><ele>25.0</ele><time>2026-05-03T12:29:05.001Z</time></trkpt><trkpt lat="42.401702217503754" lon="14.142367785815724"><ele>25.0</ele><time>2026-05-03T12:29:06.001Z</time></trkpt><trkpt lat="42.40185946416761" lon="14.142510354810794"><ele>25.0</ele><time>2026-05-03T12:29:07.001Z</time></trkpt><trkpt lat="42.40202246123018" lon="14.14265305409619"><ele>24.666666666666668</ele><time>2026-05-03T12:29:08.001Z</time></trkpt><trkpt lat="42.4021828998524" lon="14.142789347827176"><ele>24.333333333333336</ele><time>2026-05-03T12:29:09.001Z</time></trkpt><trkpt lat="42.40234678813525" lon="14.14292601254041"><ele>24.0</ele><time>2026-05-03T12:29:10.001Z</time></trkpt><trkpt lat="42.40251049362241" lon="14.143068867206642"><ele>24.0</ele><time>2026-05-03T12:29:11.001Z</time></trkpt><trkpt lat="42.4026810027731" lon="14.143218559363122"><ele>24.0</ele><time>2026-05-03T12:29:12.001Z</time></trkpt><trkpt lat="42.402852879499385" lon="14.143369305722079"><ele>24.0</ele><time>2026-05-03T12:29:13.001Z</time></trkpt><trkpt lat="42.40301521683481" lon="14.143517783720732"><ele>24.0</ele><time>2026-05-03T12:29:14.001Z</time></trkpt><trkpt lat="42.40317416613006" lon="14.14366304672728"><ele>24.0</ele><time>2026-05-03T12:29:15.001Z</time></trkpt><trkpt lat="42.40332912980725" lon="14.143805126718714"><ele>24.0</ele><time>2026-05-03T12:29:16.001Z</time></trkpt><trkpt lat="42.40348904799366" lon="14.143950773657364"><ele>24.333333333333336</ele><time>2026-05-03T12:29:17.001Z</time></trkpt><trkpt lat="42.40364327938048" lon="14.144089392780044"><ele>24.666666666666668</ele><time>2026-05-03T12:29:18.001Z</time></trkpt><trkpt lat="42.40378994319814" lon="14.144222944743031"><ele>25.0</ele><time>2026-05-03T12:29:19.001Z</time></trkpt><trkpt lat="42.40393604693595" lon="14.14435762304552"><ele>25.0</ele><time>2026-05-03T12:29:20.001Z</time></trkpt><trkpt lat="42.404084844554866" lon="14.144490439990044"><ele>25.0</ele><time>2026-05-03T12:29:21.001Z</time></trkpt><trkpt lat="42.40423464592963" lon="14.144624547827446"><ele>25.0</ele><time>2026-05-03T12:29:22.001Z</time></trkpt><trkpt lat="42.404380682396024" lon="14.14475881627394"><ele>25.333333333333336</ele><time>2026-05-03T12:29:23.001Z</time></trkpt><trkpt lat="42.404523080451256" lon="14.144884474170665"><ele>25.666666666666664</ele><time>2026-05-03T12:29:24.001Z</time></trkpt><trkpt lat="42.40465768406179" lon="14.145000676480503"><ele>26.0</ele><time>2026-05-03T12:29:25.002Z</time></trkpt><trkpt lat="42.40478456800698" lon="14.145111908430136"><ele>25.25</ele><time>2026-05-03T12:29:26.002Z</time></trkpt><trkpt lat="42.40490521586195" lon="14.145218929354222"><ele>24.5</ele><time>2026-05-03T12:29:27.002Z</time></trkpt><trkpt lat="42.405021602952324" lon="14.14532388486557"><ele>23.75</ele><time>2026-05-03T12:29:28.002Z</time></trkpt><trkpt lat="42.405137330528994" lon="14.145426884310519"><ele>23.0</ele><time>2026-05-03T12:29:29.002Z</time></trkpt><trkpt lat="42.40523580631812" lon="14.14551555147981"><ele>23.0</ele><time>2026-05-03T12:29:30.002Z</time></trkpt><trkpt lat="42.40530919408479" lon="14.145587675331484"><ele>23.0</ele><time>2026-05-03T12:29:31.002Z</time></trkpt><trkpt lat="42.405367294172315" lon="14.145652962108448"><ele>23.0</ele><time>2026-05-03T12:29:32.002Z</time></trkpt><trkpt lat="42.40543866428168" lon="14.145710803040092"><ele>23.0</ele><time>2026-05-03T12:29:33.002Z</time></trkpt><trkpt lat="42.40546859355744" lon="14.145802053238587"><ele>23.0</ele><time>2026-05-03T12:29:34.002Z</time></trkpt><trkpt lat="42.4054616761147" lon="14.145904104971288"><ele>23.0</ele><time>2026-05-03T12:29:35.002Z</time></trkpt><trkpt lat="42.405426660076486" lon="14.145984215573883"><ele>22.75</ele><time>2026-05-03T12:29:36.002Z</time></trkpt><trkpt lat="42.40551601506611" lon="14.146104294882642"><ele>22.5</ele><time>2026-05-03T12:29:38.002Z</time></trkpt><trkpt lat="42.40568935208563" lon="14.146052078818723"><ele>22.25</ele><time>2026-05-03T12:29:40.002Z</time></trkpt><trkpt lat="42.40579080814253" lon="14.14604541673603"><ele>22.0</ele><time>2026-05-03T12:29:41.002Z</time></trkpt><trkpt lat="42.405891267079696" lon="14.146070520980505"><ele>22.0</ele><time>2026-05-03T12:29:42.002Z</time></trkpt><trkpt lat="42.40598050037027" lon="14.1461901539507"><ele>22.0</ele><time>2026-05-03T12:29:43.002Z</time></trkpt><trkpt lat="42.406112458467994" lon="14.146286165372558"><ele>22.0</ele><time>2026-05-03T12:29:44.002Z</time></trkpt><trkpt lat="42.406234608359306" lon="14.146410252713345"><ele>22.0</ele><time>2026-05-03T12:29:45.002Z</time></trkpt><trkpt lat="42.4063602438275" lon="14.146532213874885"><ele>22.0</ele><time>2026-05-03T12:29:46.002Z</time></trkpt><trkpt lat="42.40649409594385" lon="14.146647193346213"><ele>22.0</ele><time>2026-05-03T12:29:47.002Z</time></trkpt><trkpt lat="42.40661797801665" lon="14.146744805385751"><ele>22.0</ele><time>2026-05-03T12:29:48.002Z</time></trkpt><trkpt lat="42.40673916337031" lon="14.146838209865237"><ele>22.0</ele><time>2026-05-03T12:29:49.002Z</time></trkpt><trkpt lat="42.406887615664544" lon="14.146919715788357"><ele>22.0</ele><time>2026-05-03T12:29:50.002Z</time></trkpt><trkpt lat="42.40704378707389" lon="14.146982610128754"><ele>22.0</ele><time>2026-05-03T12:29:51.002Z</time></trkpt><trkpt lat="42.407207255977" lon="14.147033492174115"><ele>22.0</ele><time>2026-05-03T12:29:52.002Z</time></trkpt><trkpt lat="42.407375256409566" lon="14.147074768479294"><ele>20.666666666666664</ele><time>2026-05-03T12:29:53.002Z</time></trkpt><trkpt lat="42.4075395446405" lon="14.1471046274881"><ele>19.333333333333332</ele><time>2026-05-03T12:29:54.002Z</time></trkpt><trkpt lat="42.40769267431763" lon="14.147126663558849"><ele>18.0</ele><time>2026-05-03T12:29:55.002Z</time></trkpt><trkpt lat="42.40783737129536" lon="14.147142850400419"><ele>18.0</ele><time>2026-05-03T12:29:56.002Z</time></trkpt><trkpt lat="42.407992910785666" lon="14.147170053970028"><ele>18.0</ele><time>2026-05-03T12:29:57.002Z</time></trkpt><trkpt lat="42.40816111042126" lon="14.147210422695316"><ele>18.0</ele><time>2026-05-03T12:29:58.002Z</time></trkpt><trkpt lat="42.408327493467496" lon="14.14726838334947"><ele>17.666666666666668</ele><time>2026-05-03T12:29:59.002Z</time></trkpt><trkpt lat="42.40849254839106" lon="14.147340906597023"><ele>17.333333333333336</ele><time>2026-05-03T12:30:00.002Z</time></trkpt><trkpt lat="42.40865132750767" lon="14.147433428122465"><ele>17.0</ele><time>2026-05-03T12:30:01.002Z</time></trkpt><trkpt lat="42.40879540046421" lon="14.147539913454986"><ele>17.0</ele><time>2026-05-03T12:30:02.002Z</time></trkpt><trkpt lat="42.40893945770589" lon="14.147645090616924"><ele>17.0</ele><time>2026-05-03T12:30:03.002Z</time></trkpt><trkpt lat="42.409088884810885" lon="14.147758492429363"><ele>17.0</ele><time>2026-05-03T12:30:04.002Z</time></trkpt><trkpt lat="42.409240498216874" lon="14.147874330979732"><ele>17.0</ele><time>2026-05-03T12:30:05Z</time></trkpt><trkpt lat="42.40938041459161" lon="14.147988116720278"><ele>17.0</ele><time>2026-05-03T12:30:06Z</time></trkpt><trkpt lat="42.409529370295616" lon="14.148106339439657"><ele>17.0</ele><time>2026-05-03T12:30:07Z</time></trkpt><trkpt lat="42.40968750675471" lon="14.14822880051546"><ele>17.666666666666668</ele><time>2026-05-03T12:30:08Z</time></trkpt><trkpt lat="42.40984649557674" lon="14.1483537492957"><ele>18.333333333333332</ele><time>2026-05-03T12:30:09Z</time></trkpt><trkpt lat="42.409998175953795" lon="14.148472832988247"><ele>19.0</ele><time>2026-05-03T12:30:10Z</time></trkpt><trkpt lat="42.41015697860553" lon="14.148595847954915"><ele>19.0</ele><time>2026-05-03T12:30:11Z</time></trkpt><trkpt lat="42.41031494045256" lon="14.148723238464633"><ele>19.0</ele><time>2026-05-03T12:30:12Z</time></trkpt><trkpt lat="42.41047130618038" lon="14.148851695102648"><ele>19.0</ele><time>2026-05-03T12:30:13Z</time></trkpt><trkpt lat="42.41062585255166" lon="14.148978374212096"><ele>19.666666666666664</ele><time>2026-05-03T12:30:14Z</time></trkpt><trkpt lat="42.410782010070164" lon="14.149103367686317"><ele>20.333333333333332</ele><time>2026-05-03T12:30:15Z</time></trkpt><trkpt lat="42.410942216001075" lon="14.149229776765784"><ele>21.0</ele><time>2026-05-03T12:30:16Z</time></trkpt><trkpt lat="42.41110431442819" lon="14.14935877550563"><ele>21.0</ele><time>2026-05-03T12:30:17Z</time></trkpt><trkpt lat="42.41127315370998" lon="14.149489957587207"><ele>21.0</ele><time>2026-05-03T12:30:18Z</time></trkpt><trkpt lat="42.41144518688243" lon="14.14962661261269"><ele>21.0</ele><time>2026-05-03T12:30:19Z</time></trkpt><trkpt lat="42.41161525311051" lon="14.149765381628226"><ele>20.0</ele><time>2026-05-03T12:30:20Z</time></trkpt><trkpt lat="42.4117764519835" lon="14.149893141418506"><ele>19.0</ele><time>2026-05-03T12:30:21Z</time></trkpt><trkpt lat="42.41193866381995" lon="14.150021347155077"><ele>18.0</ele><time>2026-05-03T12:30:22Z</time></trkpt><trkpt lat="42.41210972582868" lon="14.150159395912533"><ele>17.0</ele><time>2026-05-03T12:30:23Z</time></trkpt><trkpt lat="42.41228318183488" lon="14.150292104116861"><ele>16.0</ele><time>2026-05-03T12:30:24Z</time></trkpt><trkpt lat="42.41244534665955" lon="14.15041910474411"><ele>15.0</ele><time>2026-05-03T12:30:25Z</time></trkpt><trkpt lat="42.41261306063824" lon="14.150549227234212"><ele>15.0</ele><time>2026-05-03T12:30:26Z</time></trkpt><trkpt lat="42.41277396725329" lon="14.150676025035477"><ele>15.0</ele><time>2026-05-03T12:30:27Z</time></trkpt><trkpt lat="42.41292053687216" lon="14.150806688893244"><ele>15.0</ele><time>2026-05-03T12:30:28Z</time></trkpt><trkpt lat="42.41305692522292" lon="14.150947884650058"><ele>15.0</ele><time>2026-05-03T12:30:29Z</time></trkpt><trkpt lat="42.41318978911799" lon="14.151095507229135"><ele>15.0</ele><time>2026-05-03T12:30:30Z</time></trkpt><trkpt lat="42.41332472339625" lon="14.151243675855651"><ele>15.0</ele><time>2026-05-03T12:30:31Z</time></trkpt><trkpt lat="42.41346126789221" lon="14.151383492129375"><ele>15.0</ele><time>2026-05-03T12:30:32Z</time></trkpt><trkpt lat="42.41359542046899" lon="14.151509207340203"><ele>15.0</ele><time>2026-05-03T12:30:33Z</time></trkpt><trkpt lat="42.41373646223983" lon="14.151619177419914"><ele>15.0</ele><time>2026-05-03T12:30:34Z</time></trkpt><trkpt lat="42.41388341980874" lon="14.151730655523007"><ele>15.333333333333332</ele><time>2026-05-03T12:30:35Z</time></trkpt><trkpt lat="42.41404158056866" lon="14.15181963454846"><ele>15.666666666666666</ele><time>2026-05-03T12:30:36Z</time></trkpt><trkpt lat="42.41419251351468" lon="14.15189586507626"><ele>16.0</ele><time>2026-05-03T12:30:37Z</time></trkpt><trkpt lat="42.41434284319079" lon="14.151948362931833"><ele>16.0</ele><time>2026-05-03T12:30:38.001Z</time></trkpt><trkpt lat="42.414494850491074" lon="14.151991620457167"><ele>16.0</ele><time>2026-05-03T12:30:39.001Z</time></trkpt><trkpt lat="42.41465052084145" lon="14.152030998105523"><ele>16.0</ele><time>2026-05-03T12:30:40.001Z</time></trkpt><trkpt lat="42.414813512494376" lon="14.15205245955247"><ele>15.666666666666666</ele><time>2026-05-03T12:30:41.001Z</time></trkpt><trkpt lat="42.41496730988692" lon="14.15206340732115"><ele>15.333333333333332</ele><time>2026-05-03T12:30:42.001Z</time></trkpt><trkpt lat="42.4151226498067" lon="14.152068640892564"><ele>15.0</ele><time>2026-05-03T12:30:43.001Z</time></trkpt><trkpt lat="42.41527327333796" lon="14.152073007588543"><ele>15.0</ele><time>2026-05-03T12:30:44.001Z</time></trkpt><trkpt lat="42.4154184712664" lon="14.15208081114316"><ele>15.0</ele><time>2026-05-03T12:30:45.001Z</time></trkpt><trkpt lat="42.41557152431951" lon="14.152084711097796"><ele>15.0</ele><time>2026-05-03T12:30:46.001Z</time></trkpt><trkpt lat="42.41571345661581" lon="14.152103646007513"><ele>15.0</ele><time>2026-05-03T12:30:47.001Z</time></trkpt><trkpt lat="42.415860451082146" lon="14.152139358074779"><ele>15.333333333333332</ele><time>2026-05-03T12:30:48.001Z</time></trkpt><trkpt lat="42.41601176140813" lon="14.152189838545267"><ele>15.666666666666666</ele><time>2026-05-03T12:30:49.001Z</time></trkpt><trkpt lat="42.41615420833085" lon="14.152273527241348"><ele>16.0</ele><time>2026-05-03T12:30:50.001Z</time></trkpt><trkpt lat="42.41628813860053" lon="14.15238168326711"><ele>17.333333333333332</ele><time>2026-05-03T12:30:51.001Z</time></trkpt><trkpt lat="42.416413244615455" lon="14.152532689742978"><ele>18.666666666666668</ele><time>2026-05-03T12:30:52.001Z</time></trkpt><trkpt lat="42.416535202940324" lon="14.152698096129818"><ele>20.0</ele><time>2026-05-03T12:30:53.001Z</time></trkpt><trkpt lat="42.416654139437405" lon="14.152873542001554"><ele>20.0</ele><time>2026-05-03T12:30:54.001Z</time></trkpt><trkpt lat="42.41677283350888" lon="14.153037663664692"><ele>20.0</ele><time>2026-05-03T12:30:55.001Z</time></trkpt><trkpt lat="42.41688895528515" lon="14.153195242739386"><ele>20.0</ele><time>2026-05-03T12:30:56.001Z</time></trkpt><trkpt lat="42.41701072427152" lon="14.153360516201413"><ele>19.666666666666668</ele><time>2026-05-03T12:30:57.001Z</time></trkpt><trkpt lat="42.417139564919346" lon="14.153527823399795"><ele>19.333333333333332</ele><time>2026-05-03T12:30:58.001Z</time></trkpt><trkpt lat="42.41725975486954" lon="14.153694825790847"><ele>19.0</ele><time>2026-05-03T12:30:59.001Z</time></trkpt><trkpt lat="42.41737992281249" lon="14.153859505750228"><ele>19.0</ele><time>2026-05-03T12:31:00.001Z</time></trkpt><trkpt lat="42.417497780512235" lon="14.154015316330883"><ele>19.0</ele><time>2026-05-03T12:31:01.001Z</time></trkpt><trkpt lat="42.417614239546104" lon="14.154174855964326"><ele>19.0</ele><time>2026-05-03T12:31:02.001Z</time></trkpt><trkpt lat="42.41772439552356" lon="14.154321177053522"><ele>19.0</ele><time>2026-05-03T12:31:03.001Z</time></trkpt><trkpt lat="42.41784747902823" lon="14.154481520713434"><ele>19.0</ele><time>2026-05-03T12:31:04.001Z</time></trkpt><trkpt lat="42.4179570672553" lon="14.15463244209202"><ele>19.0</ele><time>2026-05-03T12:31:05.001Z</time></trkpt><trkpt lat="42.418058379290855" lon="14.154783926078387"><ele>18.333333333333332</ele><time>2026-05-03T12:31:06.001Z</time></trkpt><trkpt lat="42.418160088460105" lon="14.154918172879425"><ele>17.666666666666668</ele><time>2026-05-03T12:31:07.001Z</time></trkpt><trkpt lat="42.41827048371981" lon="14.155069037991769"><ele>17.0</ele><time>2026-05-03T12:31:08.001Z</time></trkpt><trkpt lat="42.41838374747775" lon="14.155229509280986"><ele>17.0</ele><time>2026-05-03T12:31:09.001Z</time></trkpt><trkpt lat="42.41850039042481" lon="14.155389568812463"><ele>17.0</ele><time>2026-05-03T12:31:10.001Z</time></trkpt><trkpt lat="42.418616986041386" lon="14.155546062349087"><ele>17.0</ele><time>2026-05-03T12:31:11.001Z</time></trkpt><trkpt lat="42.418732818791874" lon="14.155699097416392"><ele>19.0</ele><time>2026-05-03T12:31:12.001Z</time></trkpt><trkpt lat="42.41884147652374" lon="14.155851491240977"><ele>21.0</ele><time>2026-05-03T12:31:13.001Z</time></trkpt><trkpt lat="42.41895428767855" lon="14.156013410970472"><ele>23.0</ele><time>2026-05-03T12:31:14.001Z</time></trkpt><trkpt lat="42.419070391915916" lon="14.156164292219167"><ele>23.0</ele><time>2026-05-03T12:31:15.001Z</time></trkpt><trkpt lat="42.41919379129677" lon="14.156308209671991"><ele>23.0</ele><time>2026-05-03T12:31:16.001Z</time></trkpt><trkpt lat="42.41933293767655" lon="14.156426367147638"><ele>23.0</ele><time>2026-05-03T12:31:17.001Z</time></trkpt><trkpt lat="42.41950075268632" lon="14.1564878463012"><ele>22.0</ele><time>2026-05-03T12:31:18.001Z</time></trkpt><trkpt lat="42.41966916598805" lon="14.156548411038367"><ele>21.0</ele><time>2026-05-03T12:31:19.001Z</time></trkpt><trkpt lat="42.41983867106945" lon="14.156616778879958"><ele>20.0</ele><time>2026-05-03T12:31:20.001Z</time></trkpt><trkpt lat="42.42000517929879" lon="14.156687243739727"><ele>20.0</ele><time>2026-05-03T12:31:21.001Z</time></trkpt><trkpt lat="42.42016062141712" lon="14.156747958656092"><ele>20.0</ele><time>2026-05-03T12:31:22.001Z</time></trkpt><trkpt lat="42.42030638091765" lon="14.15681345923536"><ele>20.0</ele><time>2026-05-03T12:31:23.001Z</time></trkpt><trkpt lat="42.420450966370325" lon="14.156875446584095"><ele>20.25</ele><time>2026-05-03T12:31:24.001Z</time></trkpt><trkpt lat="42.42059345914971" lon="14.156940567576957"><ele>20.5</ele><time>2026-05-03T12:31:25.001Z</time></trkpt><trkpt lat="42.42073199209627" lon="14.156994421667683"><ele>20.75</ele><time>2026-05-03T12:31:26.001Z</time></trkpt><trkpt lat="42.420864793679584" lon="14.157049623356688"><ele>21.0</ele><time>2026-05-03T12:31:27.001Z</time></trkpt><trkpt lat="42.42099558914474" lon="14.157102508341842"><ele>21.0</ele><time>2026-05-03T12:31:28.001Z</time></trkpt><trkpt lat="42.42113039502188" lon="14.157156372449615"><ele>21.0</ele><time>2026-05-03T12:31:29.001Z</time></trkpt><trkpt lat="42.421272270155306" lon="14.157222952782824"><ele>21.0</ele><time>2026-05-03T12:31:30.001Z</time></trkpt><trkpt lat="42.421409830879355" lon="14.157279548252362"><ele>21.0</ele><time>2026-05-03T12:31:31.001Z</time></trkpt><trkpt lat="42.42154363797976" lon="14.157335796586858"><ele>20.5</ele><time>2026-05-03T12:31:32.001Z</time></trkpt><trkpt lat="42.42166886432274" lon="14.157383316772233"><ele>20.0</ele><time>2026-05-03T12:31:33.002Z</time></trkpt><trkpt lat="42.42179530866181" lon="14.157422349378518"><ele>19.5</ele><time>2026-05-03T12:31:34.002Z</time></trkpt><trkpt lat="42.42191614327983" lon="14.157437877968183"><ele>19.0</ele><time>2026-05-03T12:31:35.002Z</time></trkpt><trkpt lat="42.422033996677605" lon="14.157421843858513"><ele>19.0</ele><time>2026-05-03T12:31:36.002Z</time></trkpt><trkpt lat="42.422139238871246" lon="14.157407580973771"><ele>19.0</ele><time>2026-05-03T12:31:37.002Z</time></trkpt><trkpt lat="42.422215313933606" lon="14.157420254168162"><ele>19.0</ele><time>2026-05-03T12:31:38.002Z</time></trkpt><trkpt lat="42.42231429335708" lon="14.157521394618488"><ele>19.0</ele><time>2026-05-03T12:31:40.002Z</time></trkpt><trkpt lat="42.422430299467436" lon="14.157586040962943"><ele>19.0</ele><time>2026-05-03T12:31:42.002Z</time></trkpt><trkpt lat="42.422502128993294" lon="14.157594000281575"><ele>19.2</ele><time>2026-05-03T12:31:43.002Z</time></trkpt><trkpt lat="42.422574259284204" lon="14.157625045518346"><ele>19.4</ele><time>2026-05-03T12:31:44.002Z</time></trkpt><trkpt lat="42.422653086805425" lon="14.157686535087775"><ele>19.6</ele><time>2026-05-03T12:31:45.002Z</time></trkpt><trkpt lat="42.42273490662925" lon="14.157762794419028"><ele>19.8</ele><time>2026-05-03T12:31:46.002Z</time></trkpt><trkpt lat="42.422820866217144" lon="14.1578236317224"><ele>20.0</ele><time>2026-05-03T12:31:47.002Z</time></trkpt><trkpt lat="42.42292101430052" lon="14.157871660081822"><ele>19.5</ele><time>2026-05-03T12:31:48.002Z</time></trkpt><trkpt lat="42.42303275541911" lon="14.157905595177095"><ele>19.0</ele><time>2026-05-03T12:31:49.002Z</time></trkpt><trkpt lat="42.42316155801809" lon="14.157947308872318"><ele>18.5</ele><time>2026-05-03T12:31:50.002Z</time></trkpt><trkpt lat="42.42331352819076" lon="14.15800567889742"><ele>18.0</ele><time>2026-05-03T12:31:51.002Z</time></trkpt><trkpt lat="42.42348275153341" lon="14.158078917179393"><ele>18.0</ele><time>2026-05-03T12:31:52.002Z</time></trkpt><trkpt lat="42.423648265875755" lon="14.158151341675666"><ele>18.0</ele><time>2026-05-03T12:31:53.002Z</time></trkpt><trkpt lat="42.42381334775323" lon="14.158230694716641"><ele>18.0</ele><time>2026-05-03T12:31:54.002Z</time></trkpt><trkpt lat="42.42397593717239" lon="14.158303616560795"><ele>17.666666666666668</ele><time>2026-05-03T12:31:55.002Z</time></trkpt><trkpt lat="42.42412784677438" lon="14.158361971208606"><ele>17.333333333333336</ele><time>2026-05-03T12:31:56.002Z</time></trkpt><trkpt lat="42.424283494157166" lon="14.158429789325304"><ele>17.0</ele><time>2026-05-03T12:31:57.002Z</time></trkpt><trkpt lat="42.4244486142931" lon="14.158510152921037"><ele>17.0</ele><time>2026-05-03T12:31:58.002Z</time></trkpt><trkpt lat="42.424604421379556" lon="14.15858550542705"><ele>17.0</ele><time>2026-05-03T12:31:59.002Z</time></trkpt><trkpt lat="42.42476447394106" lon="14.158655359884074"><ele>17.0</ele><time>2026-05-03T12:32:00.002Z</time></trkpt><trkpt lat="42.42491571546914" lon="14.158721629766603"><ele>17.333333333333336</ele><time>2026-05-03T12:32:01.002Z</time></trkpt><trkpt lat="42.42506725265851" lon="14.158788285785517"><ele>17.666666666666668</ele><time>2026-05-03T12:32:02.002Z</time></trkpt><trkpt lat="42.42522104996421" lon="14.15885809604996"><ele>18.0</ele><time>2026-05-03T12:32:03.002Z</time></trkpt><trkpt lat="42.42537984311658" lon="14.158931075842037"><ele>18.333333333333332</ele><time>2026-05-03T12:32:04.002Z</time></trkpt><trkpt lat="42.42554187603752" lon="14.159002104935567"><ele>18.666666666666664</ele><time>2026-05-03T12:32:05.002Z</time></trkpt><trkpt lat="42.425698651288286" lon="14.159073122417434"><ele>19.0</ele><time>2026-05-03T12:32:06.002Z</time></trkpt><trkpt lat="42.42584176590327" lon="14.159146361635669"><ele>19.0</ele><time>2026-05-03T12:32:07.002Z</time></trkpt><trkpt lat="42.425977557981064" lon="14.159223267766128"><ele>19.0</ele><time>2026-05-03T12:32:08.002Z</time></trkpt><trkpt lat="42.42610841073093" lon="14.159303266865964"><ele>19.0</ele><time>2026-05-03T12:32:09.002Z</time></trkpt><trkpt lat="42.42624526717256" lon="14.159384650933456"><ele>19.0</ele><time>2026-05-03T12:32:10.002Z</time></trkpt><trkpt lat="42.42637964770907" lon="14.159464852569252"><ele>19.333333333333332</ele><time>2026-05-03T12:32:11Z</time></trkpt><trkpt lat="42.426525663463735" lon="14.159559513535948"><ele>19.666666666666668</ele><time>2026-05-03T12:32:12Z</time></trkpt><trkpt lat="42.42668687923514" lon="14.159676483598963"><ele>20.0</ele><time>2026-05-03T12:32:13Z</time></trkpt><trkpt lat="42.426849198512684" lon="14.159806793349976"><ele>19.666666666666668</ele><time>2026-05-03T12:32:14Z</time></trkpt><trkpt lat="42.42702035399306" lon="14.15995797018081"><ele>19.333333333333332</ele><time>2026-05-03T12:32:15Z</time></trkpt><trkpt lat="42.42719444905355" lon="14.160108899228783"><ele>19.0</ele><time>2026-05-03T12:32:16Z</time></trkpt><trkpt lat="42.42736349819641" lon="14.16025971439953"><ele>18.666666666666664</ele><time>2026-05-03T12:32:17Z</time></trkpt><trkpt lat="42.42753651227664" lon="14.160417429654004"><ele>18.333333333333332</ele><time>2026-05-03T12:32:18Z</time></trkpt><trkpt lat="42.42771556379898" lon="14.160573112787203"><ele>18.0</ele><time>2026-05-03T12:32:19Z</time></trkpt><trkpt lat="42.42788590826637" lon="14.160735108110506"><ele>17.666666666666668</ele><time>2026-05-03T12:32:20Z</time></trkpt><trkpt lat="42.42805562055245" lon="14.160904716107082"><ele>17.333333333333336</ele><time>2026-05-03T12:32:21Z</time></trkpt><trkpt lat="42.428216309887524" lon="14.161064845328989"><ele>17.0</ele><time>2026-05-03T12:32:22Z</time></trkpt><trkpt lat="42.42836271092666" lon="14.161211588029014"><ele>17.0</ele><time>2026-05-03T12:32:23Z</time></trkpt><trkpt lat="42.428504596425455" lon="14.161355245466979"><ele>17.0</ele><time>2026-05-03T12:32:24Z</time></trkpt><trkpt lat="42.42864679540637" lon="14.161501859734253"><ele>17.0</ele><time>2026-05-03T12:32:25Z</time></trkpt><trkpt lat="42.428786220883985" lon="14.161640756232725"><ele>20.333333333333336</ele><time>2026-05-03T12:32:26Z</time></trkpt><trkpt lat="42.428929032808675" lon="14.161782302770408"><ele>23.666666666666668</ele><time>2026-05-03T12:32:27Z</time></trkpt><trkpt lat="42.42906558011389" lon="14.161916510877267"><ele>27.0</ele><time>2026-05-03T12:32:28Z</time></trkpt><trkpt lat="42.4291986220863" lon="14.16205219964531"><ele>27.0</ele><time>2026-05-03T12:32:29Z</time></trkpt><trkpt lat="42.42933434112214" lon="14.162192320629266"><ele>27.0</ele><time>2026-05-03T12:32:30Z</time></trkpt><trkpt lat="42.42946496212807" lon="14.162324788911004"><ele>27.0</ele><time>2026-05-03T12:32:31Z</time></trkpt><trkpt lat="42.42959705854687" lon="14.162451497034759"><ele>25.0</ele><time>2026-05-03T12:32:32Z</time></trkpt><trkpt lat="42.42972966204656" lon="14.162563517612025"><ele>23.0</ele><time>2026-05-03T12:32:33Z</time></trkpt><trkpt lat="42.429863338971856" lon="14.162652109439517"><ele>21.0</ele><time>2026-05-03T12:32:34Z</time></trkpt><trkpt lat="42.430008543932985" lon="14.162725091510717"><ele>21.0</ele><time>2026-05-03T12:32:35Z</time></trkpt><trkpt lat="42.43016897048342" lon="14.162774583234954"><ele>21.0</ele><time>2026-05-03T12:32:36Z</time></trkpt><trkpt lat="42.43032670187034" lon="14.162806371758748"><ele>21.0</ele><time>2026-05-03T12:32:37Z</time></trkpt><trkpt lat="42.43045073811084" lon="14.162823954955124"><ele>21.0</ele><time>2026-05-03T12:32:38Z</time></trkpt><trkpt lat="42.4305386256284" lon="14.16283357886129"><ele>21.0</ele><time>2026-05-03T12:32:39Z</time></trkpt><trkpt lat="42.43061812126841" lon="14.162840087264192"><ele>21.0</ele><time>2026-05-03T12:32:41Z</time></trkpt><trkpt lat="42.430554496690384" lon="14.162717136508002"><ele>21.0</ele><time>2026-05-03T12:32:44.001Z</time></trkpt><trkpt lat="42.43047415829369" lon="14.162642766707968"><ele>21.0</ele><time>2026-05-03T12:32:47.001Z</time></trkpt><trkpt lat="42.430412550929105" lon="14.162570473592456"><ele>21.0</ele><time>2026-05-03T12:32:49.001Z</time></trkpt><trkpt lat="42.43034244747337" lon="14.162505367960925"><ele>21.0</ele><time>2026-05-03T12:32:52.001Z</time></trkpt><trkpt lat="42.43030719950612" lon="14.162408448762301"><ele>21.0</ele><time>2026-05-03T12:32:54.001Z</time></trkpt><trkpt lat="42.43033521708798" lon="14.162313003001207"><ele>21.0</ele><time>2026-05-03T12:32:55.001Z</time></trkpt><trkpt lat="42.43037300900578" lon="14.162223055873547"><ele>21.0</ele><time>2026-05-03T12:32:56.001Z</time></trkpt><trkpt lat="42.43042368528277" lon="14.162118571249101"><ele>21.0</ele><time>2026-05-03T12:32:57.001Z</time></trkpt><trkpt lat="42.43046936886365" lon="14.162003263841017"><ele>21.0</ele><time>2026-05-03T12:32:58.001Z</time></trkpt><trkpt lat="42.43050985208621" lon="14.161897305150184"><ele>21.333333333333332</ele><time>2026-05-03T12:32:59.001Z</time></trkpt><trkpt lat="42.43054940297624" lon="14.161802229083552"><ele>21.666666666666668</ele><time>2026-05-03T12:33:00.001Z</time></trkpt><trkpt lat="42.43058529076753" lon="14.161718834667782"><ele>22.0</ele><time>2026-05-03T12:33:01.001Z</time></trkpt><trkpt lat="42.43061703563932" lon="14.161638384395914"><ele>22.333333333333336</ele><time>2026-05-03T12:33:02.001Z</time></trkpt><trkpt lat="42.43065114204912" lon="14.161549257600484"><ele>22.666666666666668</ele><time>2026-05-03T12:33:03.001Z</time></trkpt><trkpt lat="42.43068742336828" lon="14.161451293044596"><ele>23.0</ele><time>2026-05-03T12:33:04.001Z</time></trkpt><trkpt lat="42.43072247818221" lon="14.16136067577154"><ele>23.799999999999997</ele><time>2026-05-03T12:33:05.001Z</time></trkpt><trkpt lat="42.430758979783555" lon="14.161290262344394"><ele>24.6</ele><time>2026-05-03T12:33:06.001Z</time></trkpt><trkpt lat="42.43080824700201" lon="14.161204179389737"><ele>25.400000000000002</ele><time>2026-05-03T12:33:08.001Z</time></trkpt><trkpt lat="42.430917129864405" lon="14.161155910920904"><ele>26.200000000000003</ele><time>2026-05-03T12:33:14.001Z</time></trkpt><trkpt lat="42.430949220417624" lon="14.16095732096297"><ele>27.0</ele><time>2026-05-03T12:33:15.001Z</time></trkpt><trkpt lat="42.43098681591866" lon="14.160835198307057"><ele>27.0</ele><time>2026-05-03T12:33:16.001Z</time></trkpt><trkpt lat="42.43104150273935" lon="14.160695157811517"><ele>27.0</ele><time>2026-05-03T12:33:17.001Z</time></trkpt><trkpt lat="42.431106093005354" lon="14.160535324070098"><ele>27.0</ele><time>2026-05-03T12:33:18.001Z</time></trkpt><trkpt lat="42.43116849851861" lon="14.160383073442606"><ele>27.0</ele><time>2026-05-03T12:33:19.001Z</time></trkpt><trkpt lat="42.43123275909937" lon="14.160226296987522"><ele>27.0</ele><time>2026-05-03T12:33:20.001Z</time></trkpt><trkpt lat="42.431301163786166" lon="14.160059410931567"><ele>27.0</ele><time>2026-05-03T12:33:21.001Z</time></trkpt><trkpt lat="42.431373146387806" lon="14.159882912010893"><ele>27.0</ele><time>2026-05-03T12:33:22.001Z</time></trkpt><trkpt lat="42.43144438213592" lon="14.159710797197906"><ele>27.0</ele><time>2026-05-03T12:33:23.001Z</time></trkpt><trkpt lat="42.43151435365422" lon="14.159542296362972"><ele>28.666666666666664</ele><time>2026-05-03T12:33:24.001Z</time></trkpt><trkpt lat="42.43160396892694" lon="14.159329335697576"><ele>30.333333333333332</ele><time>2026-05-03T12:33:25.001Z</time></trkpt><trkpt lat="42.431685671447646" lon="14.159134784437706"><ele>32.0</ele><time>2026-05-03T12:33:26.001Z</time></trkpt><trkpt lat="42.4317559710585" lon="14.15896274397525"><ele>32.25</ele><time>2026-05-03T12:33:27.001Z</time></trkpt><trkpt lat="42.4318223668985" lon="14.158796603547488"><ele>32.5</ele><time>2026-05-03T12:33:28.001Z</time></trkpt><trkpt lat="42.43188428783389" lon="14.158643368641663"><ele>32.75</ele><time>2026-05-03T12:33:29.001Z</time></trkpt><trkpt lat="42.431943980235346" lon="14.158498766906552"><ele>33.0</ele><time>2026-05-03T12:33:30.001Z</time></trkpt><trkpt lat="42.432001533538745" lon="14.158359651866787"><ele>33.0</ele><time>2026-05-03T12:33:31.001Z</time></trkpt><trkpt lat="42.432058329092044" lon="14.158222409290564"><ele>33.0</ele><time>2026-05-03T12:33:32.001Z</time></trkpt><trkpt lat="42.43213130206234" lon="14.158046145160135"><ele>33.0</ele><time>2026-05-03T12:33:33.001Z</time></trkpt><trkpt lat="42.43220260125374" lon="14.157876194754637"><ele>33.0</ele><time>2026-05-03T12:33:34.001Z</time></trkpt><trkpt lat="42.43227825872254" lon="14.157698210912605"><ele>35.0</ele><time>2026-05-03T12:33:35.001Z</time></trkpt><trkpt lat="42.43236025886124" lon="14.157525147795877"><ele>37.0</ele><time>2026-05-03T12:33:36.002Z</time></trkpt><trkpt lat="42.43245921321023" lon="14.157374488562292"><ele>39.0</ele><time>2026-05-03T12:33:37.002Z</time></trkpt><trkpt lat="42.43256382205236" lon="14.157237613314841"><ele>41.0</ele><time>2026-05-03T12:33:38.002Z</time></trkpt><trkpt lat="42.43268768546529" lon="14.157120286202407"><ele>42.33333333333333</ele><time>2026-05-03T12:33:39.002Z</time></trkpt><trkpt lat="42.43282445223856" lon="14.156996770902506"><ele>43.666666666666664</ele><time>2026-05-03T12:33:40.002Z</time></trkpt><trkpt lat="42.43295862085267" lon="14.15688092656069"><ele>45.0</ele><time>2026-05-03T12:33:41.002Z</time></trkpt><trkpt lat="42.433099784530185" lon="14.156760058135903"><ele>46.66666666666667</ele><time>2026-05-03T12:33:42.002Z</time></trkpt><trkpt lat="42.433242479291174" lon="14.156640475253651"><ele>48.333333333333336</ele><time>2026-05-03T12:33:43.002Z</time></trkpt><trkpt lat="42.43338841643298" lon="14.156522118209802"><ele>50.0</ele><time>2026-05-03T12:33:44.002Z</time></trkpt><trkpt lat="42.433538121613324" lon="14.156409323837902"><ele>50.66666666666667</ele><time>2026-05-03T12:33:45.002Z</time></trkpt><trkpt lat="42.43368543931287" lon="14.15629779619764"><ele>51.33333333333333</ele><time>2026-05-03T12:33:46.002Z</time></trkpt><trkpt lat="42.433844045965806" lon="14.15617819440859"><ele>52.0</ele><time>2026-05-03T12:33:47.002Z</time></trkpt><trkpt lat="42.434003902253565" lon="14.156058081376155"><ele>52.666666666666664</ele><time>2026-05-03T12:33:48.002Z</time></trkpt><trkpt lat="42.43415214729058" lon="14.155946465281437"><ele>53.33333333333333</ele><time>2026-05-03T12:33:49.002Z</time></trkpt><trkpt lat="42.434298844842054" lon="14.1558358545102"><ele>54.0</ele><time>2026-05-03T12:33:50.002Z</time></trkpt><trkpt lat="42.43444516800411" lon="14.155725794098531"><ele>54.33333333333333</ele><time>2026-05-03T12:33:51.002Z</time></trkpt><trkpt lat="42.43458851930613" lon="14.155618146148841"><ele>54.666666666666664</ele><time>2026-05-03T12:33:52.002Z</time></trkpt><trkpt lat="42.43472776459961" lon="14.155513581964895"><ele>55.0</ele><time>2026-05-03T12:33:53.002Z</time></trkpt><trkpt lat="42.43486614326715" lon="14.155409805452562"><ele>56.33333333333333</ele><time>2026-05-03T12:33:54.002Z</time></trkpt><trkpt lat="42.435004353524235" lon="14.155305001157414"><ele>57.66666666666667</ele><time>2026-05-03T12:33:55.002Z</time></trkpt><trkpt lat="42.435147528764595" lon="14.155198151639945"><ele>59.0</ele><time>2026-05-03T12:33:56.002Z</time></trkpt><trkpt lat="42.43529025689229" lon="14.155091486870743"><ele>59.0</ele><time>2026-05-03T12:33:57.002Z</time></trkpt><trkpt lat="42.43543303861123" lon="14.154984782475532"><ele>59.0</ele><time>2026-05-03T12:33:58.002Z</time></trkpt><trkpt lat="42.43557255232222" lon="14.15487989631736"><ele>59.0</ele><time>2026-05-03T12:33:59.002Z</time></trkpt><trkpt lat="42.43569945805609" lon="14.15478421443595"><ele>60.0</ele><time>2026-05-03T12:34:00.002Z</time></trkpt><trkpt lat="42.43581699739861" lon="14.15469381121289"><ele>61.0</ele><time>2026-05-03T12:34:01.002Z</time></trkpt><trkpt lat="42.43593104694185" lon="14.15460515274447"><ele>62.0</ele><time>2026-05-03T12:34:02.002Z</time></trkpt><trkpt lat="42.43605508760097" lon="14.154505370371082"><ele>63.0</ele><time>2026-05-03T12:34:03.002Z</time></trkpt><trkpt lat="42.43618547652157" lon="14.154395975423615"><ele>63.25</ele><time>2026-05-03T12:34:04.002Z</time></trkpt><trkpt lat="42.43631364211816" lon="14.154288046472248"><ele>63.5</ele><time>2026-05-03T12:34:05.002Z</time></trkpt><trkpt lat="42.43643710379987" lon="14.154184181061384"><ele>63.75</ele><time>2026-05-03T12:34:06.002Z</time></trkpt><trkpt lat="42.43656145844519" lon="14.154078875107421"><ele>64.0</ele><time>2026-05-03T12:34:07.002Z</time></trkpt><trkpt lat="42.43668888714889" lon="14.153967805627946"><ele>66.0</ele><time>2026-05-03T12:34:08.002Z</time></trkpt><trkpt lat="42.43681484685817" lon="14.153858016546955"><ele>68.0</ele><time>2026-05-03T12:34:09.002Z</time></trkpt><trkpt lat="42.43694424767437" lon="14.153745228141831"><ele>70.0</ele><time>2026-05-03T12:34:10.002Z</time></trkpt><trkpt lat="42.43707619384192" lon="14.153630222564084"><ele>69.75</ele><time>2026-05-03T12:34:11.002Z</time></trkpt><trkpt lat="42.43720626681987" lon="14.153517343454023"><ele>69.5</ele><time>2026-05-03T12:34:12.002Z</time></trkpt><trkpt lat="42.43732398159587" lon="14.15340030644666"><ele>69.25</ele><time>2026-05-03T12:34:13.002Z</time></trkpt><trkpt lat="42.437451776150034" lon="14.153323969344806"><ele>69.0</ele><time>2026-05-03T12:34:14.002Z</time></trkpt><trkpt lat="42.43759505333037" lon="14.153289438500952"><ele>69.0</ele><time>2026-05-03T12:34:15.002Z</time></trkpt><trkpt lat="42.43773863583273" lon="14.153250131721524"><ele>69.0</ele><time>2026-05-03T12:34:16.002Z</time></trkpt><trkpt lat="42.437885218584064" lon="14.153189662720498"><ele>69.0</ele><time>2026-05-03T12:34:17.001Z</time></trkpt><trkpt lat="42.438044854605764" lon="14.153165550016048"><ele>67.0</ele><time>2026-05-03T12:34:18.001Z</time></trkpt><trkpt lat="42.43820088146295" lon="14.153104727869193"><ele>65.0</ele><time>2026-05-03T12:34:19.001Z</time></trkpt><trkpt lat="42.43834647782645" lon="14.153001355911593"><ele>63.0</ele><time>2026-05-03T12:34:20.001Z</time></trkpt><trkpt lat="42.43849407650672" lon="14.15287665319788"><ele>63.0</ele><time>2026-05-03T12:34:21.001Z</time></trkpt><trkpt lat="42.438657728052725" lon="14.152750899494855"><ele>63.0</ele><time>2026-05-03T12:34:22.001Z</time></trkpt><trkpt lat="42.438782068912374" lon="14.152568458605781"><ele>63.0</ele><time>2026-05-03T12:34:23.001Z</time></trkpt><trkpt lat="42.438926164980856" lon="14.152403817454308"><ele>66.33333333333333</ele><time>2026-05-03T12:34:24.001Z</time></trkpt><trkpt lat="42.439055506489815" lon="14.152214559760647"><ele>69.66666666666666</ele><time>2026-05-03T12:34:25.001Z</time></trkpt><trkpt lat="42.43916841680185" lon="14.152044667904585"><ele>73.0</ele><time>2026-05-03T12:34:26.001Z</time></trkpt><trkpt lat="42.439292460835716" lon="14.15187722076831"><ele>73.0</ele><time>2026-05-03T12:34:27.001Z</time></trkpt><trkpt lat="42.439424805226075" lon="14.151732800007391"><ele>73.0</ele><time>2026-05-03T12:34:28.001Z</time></trkpt><trkpt lat="42.43956550698835" lon="14.15162052448909"><ele>73.0</ele><time>2026-05-03T12:34:29.001Z</time></trkpt><trkpt lat="42.43971755654241" lon="14.151528260040791"><ele>74.0</ele><time>2026-05-03T12:34:30.001Z</time></trkpt><trkpt lat="42.43986750656553" lon="14.151455539827689"><ele>75.0</ele><time>2026-05-03T12:34:31.001Z</time></trkpt><trkpt lat="42.44001115880892" lon="14.151372521985758"><ele>76.0</ele><time>2026-05-03T12:34:32.001Z</time></trkpt><trkpt lat="42.440150062273425" lon="14.15130712239538"><ele>76.0</ele><time>2026-05-03T12:34:33.001Z</time></trkpt><trkpt lat="42.44029209549625" lon="14.151230750018986"><ele>76.0</ele><time>2026-05-03T12:34:34.001Z</time></trkpt><trkpt lat="42.440434338914386" lon="14.151124201082254"><ele>76.0</ele><time>2026-05-03T12:34:35.001Z</time></trkpt><trkpt lat="42.44056742238355" lon="14.151022011507663"><ele>79.0</ele><time>2026-05-03T12:34:36.001Z</time></trkpt><trkpt lat="42.44070115712615" lon="14.150936953399363"><ele>82.0</ele><time>2026-05-03T12:34:37.001Z</time></trkpt><trkpt lat="42.44082862458054" lon="14.150874114164393"><ele>85.0</ele><time>2026-05-03T12:34:38.001Z</time></trkpt><trkpt lat="42.44094793303214" lon="14.15083193675107"><ele>88.0</ele><time>2026-05-03T12:34:39.001Z</time></trkpt><trkpt lat="42.44106795126133" lon="14.150818304459227"><ele>88.0</ele><time>2026-05-03T12:34:40.001Z</time></trkpt><trkpt lat="42.441191887375545" lon="14.15083318243817"><ele>88.0</ele><time>2026-05-03T12:34:41.001Z</time></trkpt><trkpt lat="42.441324853647465" lon="14.15087917589863"><ele>88.0</ele><time>2026-05-03T12:34:42.001Z</time></trkpt><trkpt lat="42.44147549157212" lon="14.150915500374408"><ele>88.0</ele><time>2026-05-03T12:34:43.001Z</time></trkpt><trkpt lat="42.44161073739711" lon="14.15096736954112"><ele>88.75</ele><time>2026-05-03T12:34:44.001Z</time></trkpt><trkpt lat="42.44174468603351" lon="14.150983743232445"><ele>89.5</ele><time>2026-05-03T12:34:45.001Z</time></trkpt><trkpt lat="42.441894314474794" lon="14.15096231104451"><ele>90.25</ele><time>2026-05-03T12:34:46.001Z</time></trkpt><trkpt lat="42.44203602160104" lon="14.15092061241799"><ele>91.0</ele><time>2026-05-03T12:34:47.001Z</time></trkpt><trkpt lat="42.44215701227535" lon="14.150854498453647"><ele>91.75</ele><time>2026-05-03T12:34:48.001Z</time></trkpt><trkpt lat="42.442260462572854" lon="14.150755156125804"><ele>92.5</ele><time>2026-05-03T12:34:49.001Z</time></trkpt><trkpt lat="42.442336113630596" lon="14.1506331051226"><ele>93.25</ele><time>2026-05-03T12:34:50.001Z</time></trkpt><trkpt lat="42.44238643842535" lon="14.15046786693796"><ele>94.0</ele><time>2026-05-03T12:34:51.001Z</time></trkpt><trkpt lat="42.442419036045976" lon="14.150289327895985"><ele>94.0</ele><time>2026-05-03T12:34:52.001Z</time></trkpt><trkpt lat="42.442463223692165" lon="14.150118500676827"><ele>94.0</ele><time>2026-05-03T12:34:53.001Z</time></trkpt><trkpt lat="42.44250275200958" lon="14.14993703685667"><ele>94.0</ele><time>2026-05-03T12:34:54.001Z</time></trkpt><trkpt lat="42.4425435114813" lon="14.14975710039584"><ele>94.0</ele><time>2026-05-03T12:34:55.001Z</time></trkpt><trkpt lat="42.44258241821409" lon="14.14959088122356"><ele>95.0</ele><time>2026-05-03T12:34:56.001Z</time></trkpt><trkpt lat="42.44262945075945" lon="14.149428263205667"><ele>96.0</ele><time>2026-05-03T12:34:57.001Z</time></trkpt><trkpt lat="42.44268400435372" lon="14.149262000570458"><ele>97.0</ele><time>2026-05-03T12:34:58.001Z</time></trkpt><trkpt lat="42.4427432704059" lon="14.149095079924875"><ele>98.0</ele><time>2026-05-03T12:34:59.001Z</time></trkpt><trkpt lat="42.44280508389061" lon="14.14893662572149"><ele>99.5</ele><time>2026-05-03T12:35:00.001Z</time></trkpt><trkpt lat="42.442880598444475" lon="14.148780461913454"><ele>101.0</ele><time>2026-05-03T12:35:01.001Z</time></trkpt><trkpt lat="42.4429652338194" lon="14.148637971127975"><ele>102.5</ele><time>2026-05-03T12:35:02.001Z</time></trkpt><trkpt lat="42.4430582445664" lon="14.148496326278348"><ele>104.0</ele><time>2026-05-03T12:35:03.001Z</time></trkpt><trkpt lat="42.443154657716434" lon="14.148353911467558"><ele>104.0</ele><time>2026-05-03T12:35:04.001Z</time></trkpt><trkpt lat="42.44325071400721" lon="14.148214556309576"><ele>104.0</ele><time>2026-05-03T12:35:05.001Z</time></trkpt><trkpt lat="42.443342720132236" lon="14.14808568529445"><ele>104.0</ele><time>2026-05-03T12:35:06.001Z</time></trkpt><trkpt lat="42.443428297984234" lon="14.147965530315304"><ele>104.0</ele><time>2026-05-03T12:35:07.001Z</time></trkpt><trkpt lat="42.44351661583096" lon="14.147844876666593"><ele>106.5</ele><time>2026-05-03T12:35:08.001Z</time></trkpt><trkpt lat="42.44360175546897" lon="14.147737897771075"><ele>109.0</ele><time>2026-05-03T12:35:09.001Z</time></trkpt><trkpt lat="42.443691474768215" lon="14.147649616685776"><ele>111.5</ele><time>2026-05-03T12:35:10.001Z</time></trkpt><trkpt lat="42.443793336045395" lon="14.147578621481387"><ele>114.0</ele><time>2026-05-03T12:35:11.001Z</time></trkpt><trkpt lat="42.44389863977593" lon="14.147521894330124"><ele>114.0</ele><time>2026-05-03T12:35:12.001Z</time></trkpt><trkpt lat="42.44401754207177" lon="14.147482219377855"><ele>114.0</ele><time>2026-05-03T12:35:13.001Z</time></trkpt><trkpt lat="42.44413586429316" lon="14.147427303084575"><ele>114.0</ele><time>2026-05-03T12:35:14.001Z</time></trkpt><trkpt lat="42.444261259990434" lon="14.147398643763507"><ele>114.0</ele><time>2026-05-03T12:35:15.001Z</time></trkpt><trkpt lat="42.44437748624096" lon="14.147349790174056"><ele>115.4</ele><time>2026-05-03T12:35:16.001Z</time></trkpt><trkpt lat="42.44445958172967" lon="14.147252932101948"><ele>116.80000000000001</ele><time>2026-05-03T12:35:17.001Z</time></trkpt><trkpt lat="42.44451394736438" lon="14.147121332023573"><ele>118.19999999999999</ele><time>2026-05-03T12:35:18.001Z</time></trkpt><trkpt lat="42.44455153112274" lon="14.146992814263983"><ele>119.6</ele><time>2026-05-03T12:35:19.001Z</time></trkpt><trkpt lat="42.444590494846096" lon="14.146885341205136"><ele>121.0</ele><time>2026-05-03T12:35:20.001Z</time></trkpt><trkpt lat="42.444667315973604" lon="14.146804139835856"><ele>121.0</ele><time>2026-05-03T12:35:21.001Z</time></trkpt><trkpt lat="42.444760487875726" lon="14.146688695909647"><ele>121.0</ele><time>2026-05-03T12:35:22.001Z</time></trkpt><trkpt lat="42.44484248326739" lon="14.146555531348294"><ele>121.0</ele><time>2026-05-03T12:35:23.001Z</time></trkpt><trkpt lat="42.44492435557861" lon="14.14641045776511"><ele>121.0</ele><time>2026-05-03T12:35:24.001Z</time></trkpt><trkpt lat="42.44500790192834" lon="14.146263420840576"><ele>122.25</ele><time>2026-05-03T12:35:25.001Z</time></trkpt><trkpt lat="42.445088224150574" lon="14.146122058113782"><ele>123.5</ele><time>2026-05-03T12:35:26.001Z</time></trkpt><trkpt lat="42.445164511546125" lon="14.14598524266307"><ele>124.75</ele><time>2026-05-03T12:35:27.001Z</time></trkpt><trkpt lat="42.44524144844303" lon="14.145845659670611"><ele>126.0</ele><time>2026-05-03T12:35:28.002Z</time></trkpt><trkpt lat="42.445319908785855" lon="14.145705674550069"><ele>124.5</ele><time>2026-05-03T12:35:29.002Z</time></trkpt><trkpt lat="42.44540136721028" lon="14.145571194223928"><ele>123.0</ele><time>2026-05-03T12:35:30.002Z</time></trkpt><trkpt lat="42.445487991388156" lon="14.145441993002056"><ele>121.5</ele><time>2026-05-03T12:35:31.002Z</time></trkpt><trkpt lat="42.44558448264222" lon="14.1453271419005"><ele>120.0</ele><time>2026-05-03T12:35:32.002Z</time></trkpt><trkpt lat="42.44568907649839" lon="14.145217845666604"><ele>120.0</ele><time>2026-05-03T12:35:33.002Z</time></trkpt><trkpt lat="42.445794498685196" lon="14.145122078912284"><ele>120.0</ele><time>2026-05-03T12:35:34.002Z</time></trkpt><trkpt lat="42.44590280484854" lon="14.145039454567344"><ele>120.0</ele><time>2026-05-03T12:35:35.002Z</time></trkpt><trkpt lat="42.44602608869334" lon="14.144948337540116"><ele>120.0</ele><time>2026-05-03T12:35:36.002Z</time></trkpt><trkpt lat="42.44615478348147" lon="14.14486359072562"><ele>120.25</ele><time>2026-05-03T12:35:37.002Z</time></trkpt><trkpt lat="42.44628633703257" lon="14.144795076353443"><ele>120.5</ele><time>2026-05-03T12:35:38.002Z</time></trkpt><trkpt lat="42.44641519012349" lon="14.144735917266555"><ele>120.75</ele><time>2026-05-03T12:35:39.002Z</time></trkpt><trkpt lat="42.44655758187188" lon="14.144692063446332"><ele>121.0</ele><time>2026-05-03T12:35:40.002Z</time></trkpt><trkpt lat="42.446706304398006" lon="14.144648111507566"><ele>121.0</ele><time>2026-05-03T12:35:41.002Z</time></trkpt><trkpt lat="42.446847568219376" lon="14.144614404026482"><ele>121.0</ele><time>2026-05-03T12:35:42.002Z</time></trkpt><trkpt lat="42.446978252160825" lon="14.144580934371449"><ele>121.0</ele><time>2026-05-03T12:35:43.002Z</time></trkpt><trkpt lat="42.44709891207767" lon="14.14454952349256"><ele>121.0</ele><time>2026-05-03T12:35:44.002Z</time></trkpt><trkpt lat="42.44721254631629" lon="14.144518189113189"><ele>122.25</ele><time>2026-05-03T12:35:45.002Z</time></trkpt><trkpt lat="42.44731334050478" lon="14.14449149516891"><ele>123.5</ele><time>2026-05-03T12:35:46.002Z</time></trkpt><trkpt lat="42.447417394183695" lon="14.144537712818446"><ele>124.75</ele><time>2026-05-03T12:35:47.002Z</time></trkpt><trkpt lat="42.447506591687066" lon="14.144653184443722"><ele>126.0</ele><time>2026-05-03T12:35:48.002Z</time></trkpt><trkpt lat="42.44755756687435" lon="14.144795806942847"><ele>126.19999999999999</ele><time>2026-05-03T12:35:49.002Z</time></trkpt><trkpt lat="42.4475690455378" lon="14.144964302128303"><ele>126.39999999999999</ele><time>2026-05-03T12:35:50.002Z</time></trkpt><trkpt lat="42.44757063570946" lon="14.145125593562357"><ele>126.6</ele><time>2026-05-03T12:35:51.002Z</time></trkpt><trkpt lat="42.44756406326597" lon="14.145262295894062"><ele>126.8</ele><time>2026-05-03T12:35:52.002Z</time></trkpt><trkpt lat="42.44756651455218" lon="14.145380821966077"><ele>127.0</ele><time>2026-05-03T12:35:53.002Z</time></trkpt><trkpt lat="42.447574286985386" lon="14.14551307673167"><ele>127.0</ele><time>2026-05-03T12:35:54.002Z</time></trkpt><trkpt lat="42.44758577672777" lon="14.145650326800045"><ele>126.99999999999999</ele><time>2026-05-03T12:35:55.002Z</time></trkpt><trkpt lat="42.44761498531214" lon="14.14577127483279"><ele>126.99999999999999</ele><time>2026-05-03T12:35:56.002Z</time></trkpt><trkpt lat="42.447672089001266" lon="14.145878876547462"><ele>127.0</ele><time>2026-05-03T12:35:57.002Z</time></trkpt><trkpt lat="42.44775295022862" lon="14.145998720882131"><ele>127.0</ele><time>2026-05-03T12:35:58.002Z</time></trkpt><trkpt lat="42.447850819743635" lon="14.146098562951103"><ele>130.75</ele><time>2026-05-03T12:35:59.002Z</time></trkpt><trkpt lat="42.447970993176966" lon="14.146204655805274"><ele>134.5</ele><time>2026-05-03T12:36:00.002Z</time></trkpt><trkpt lat="42.44809805733797" lon="14.146292081063802"><ele>138.25</ele><time>2026-05-03T12:36:01.002Z</time></trkpt><trkpt lat="42.4482223340712" lon="14.146353638772878"><ele>142.0</ele><time>2026-05-03T12:36:02.002Z</time></trkpt><trkpt lat="42.448356087640974" lon="14.146399584937555"><ele>142.0</ele><time>2026-05-03T12:36:03.002Z</time></trkpt><trkpt lat="42.44850050251851" lon="14.14644422436798"><ele>142.0</ele><time>2026-05-03T12:36:04.002Z</time></trkpt><trkpt lat="42.44864913659008" lon="14.146458774830913"><ele>142.0</ele><time>2026-05-03T12:36:05.002Z</time></trkpt><trkpt lat="42.44878991397537" lon="14.14644024234554"><ele>142.0</ele><time>2026-05-03T12:36:06.002Z</time></trkpt><trkpt lat="42.44892153211187" lon="14.146382142654277"><ele>142.66666666666669</ele><time>2026-05-03T12:36:07.002Z</time></trkpt><trkpt lat="42.449046466635615" lon="14.14627611581786"><ele>143.33333333333334</ele><time>2026-05-03T12:36:08.002Z</time></trkpt><trkpt lat="42.44915670337322" lon="14.146133683539903"><ele>144.0</ele><time>2026-05-03T12:36:09.002Z</time></trkpt><trkpt lat="42.449248264205664" lon="14.14596534312381"><ele>144.0</ele><time>2026-05-03T12:36:10.002Z</time></trkpt><trkpt lat="42.44935059364382" lon="14.145805742061189"><ele>144.0</ele><time>2026-05-03T12:36:11.002Z</time></trkpt><trkpt lat="42.44944507863659" lon="14.145637655070141"><ele>144.0</ele><time>2026-05-03T12:36:12.002Z</time></trkpt><trkpt lat="42.449530121931495" lon="14.145481483702298"><ele>143.5</ele><time>2026-05-03T12:36:13.002Z</time></trkpt><trkpt lat="42.44960905762683" lon="14.145327473403743"><ele>143.0</ele><time>2026-05-03T12:36:14.002Z</time></trkpt><trkpt lat="42.449667359891514" lon="14.145142080406345"><ele>142.5</ele><time>2026-05-03T12:36:15.002Z</time></trkpt><trkpt lat="42.449736385701364" lon="14.14495736732597"><ele>142.0</ele><time>2026-05-03T12:36:16.002Z</time></trkpt><trkpt lat="42.44979351969974" lon="14.144764473043713"><ele>142.0</ele><time>2026-05-03T12:36:17.002Z</time></trkpt><trkpt lat="42.44984461430922" lon="14.144583806696437"><ele>142.0</ele><time>2026-05-03T12:36:18.002Z</time></trkpt><trkpt lat="42.449891152481435" lon="14.14438224874713"><ele>142.0</ele><time>2026-05-03T12:36:19.002Z</time></trkpt><trkpt lat="42.44991649318299" lon="14.144172524693358"><ele>140.66666666666669</ele><time>2026-05-03T12:36:20.002Z</time></trkpt><trkpt lat="42.449927628002975" lon="14.143964979777552"><ele>139.33333333333334</ele><time>2026-05-03T12:36:21.002Z</time></trkpt><trkpt lat="42.44993994269747" lon="14.14376519925342"><ele>138.0</ele><time>2026-05-03T12:36:22.002Z</time></trkpt><trkpt lat="42.44992571698203" lon="14.143564279974314"><ele>138.0</ele><time>2026-05-03T12:36:23.001Z</time></trkpt><trkpt lat="42.449909262324326" lon="14.143355868920125"><ele>138.0</ele><time>2026-05-03T12:36:24.001Z</time></trkpt><trkpt lat="42.44988733233011" lon="14.143137126958795"><ele>138.0</ele><time>2026-05-03T12:36:25.001Z</time></trkpt><trkpt lat="42.44984986662199" lon="14.142935314017517"><ele>137.75</ele><time>2026-05-03T12:36:26.001Z</time></trkpt><trkpt lat="42.44979187082759" lon="14.142744666223132"><ele>137.5</ele><time>2026-05-03T12:36:27.001Z</time></trkpt><trkpt lat="42.44973114191188" lon="14.142571388438403"><ele>137.25</ele><time>2026-05-03T12:36:28.001Z</time></trkpt><trkpt lat="42.44966815021563" lon="14.142409055270898"><ele>137.0</ele><time>2026-05-03T12:36:29.001Z</time></trkpt><trkpt lat="42.44961187683705" lon="14.142262844379115"><ele>137.6</ele><time>2026-05-03T12:36:30.001Z</time></trkpt><trkpt lat="42.449570041056155" lon="14.142134275246958"><ele>138.2</ele><time>2026-05-03T12:36:31.001Z</time></trkpt><trkpt lat="42.44954767122381" lon="14.14202159838728"><ele>138.8</ele><time>2026-05-03T12:36:32.001Z</time></trkpt><trkpt lat="42.449550382009406" lon="14.141905893445601"><ele>139.4</ele><time>2026-05-03T12:36:33.001Z</time></trkpt><trkpt lat="42.44959514950254" lon="14.141802187782245"><ele>140.0</ele><time>2026-05-03T12:36:34.001Z</time></trkpt><trkpt lat="42.44966279147568" lon="14.14169193864372"><ele>140.0</ele><time>2026-05-03T12:36:35.001Z</time></trkpt><trkpt lat="42.44977625381463" lon="14.141603536798256"><ele>140.0</ele><time>2026-05-03T12:36:36.001Z</time></trkpt><trkpt lat="42.44988512192774" lon="14.141513904955858"><ele>140.0</ele><time>2026-05-03T12:36:37.001Z</time></trkpt><trkpt lat="42.449996015623" lon="14.141444000395001"><ele>140.0</ele><time>2026-05-03T12:36:38.001Z</time></trkpt><trkpt lat="42.45012895825294" lon="14.141373051998134"><ele>141.66666666666666</ele><time>2026-05-03T12:36:39.001Z</time></trkpt><trkpt lat="42.45027755163699" lon="14.141315170424086"><ele>143.33333333333334</ele><time>2026-05-03T12:36:40.001Z</time></trkpt><trkpt lat="42.45042791455392" lon="14.1412859868931"><ele>145.0</ele><time>2026-05-03T12:36:41.001Z</time></trkpt><trkpt lat="42.450581196569985" lon="14.14123143846979"><ele>146.66666666666669</ele><time>2026-05-03T12:36:42.001Z</time></trkpt><trkpt lat="42.45073414105005" lon="14.141180678493997"><ele>148.33333333333334</ele><time>2026-05-03T12:36:43.001Z</time></trkpt><trkpt lat="42.45089820729492" lon="14.141125681155424"><ele>150.0</ele><time>2026-05-03T12:36:44.001Z</time></trkpt><trkpt lat="42.45103857768932" lon="14.141076062584462"><ele>150.0</ele><time>2026-05-03T12:36:45.001Z</time></trkpt><trkpt lat="42.45117413217009" lon="14.141030133050373"><ele>150.0</ele><time>2026-05-03T12:36:46.001Z</time></trkpt><trkpt lat="42.451298534794546" lon="14.140989431270693"><ele>150.0</ele><time>2026-05-03T12:36:47.001Z</time></trkpt><trkpt lat="42.45141199677286" lon="14.140954328872292"><ele>150.0</ele><time>2026-05-03T12:36:48.001Z</time></trkpt><trkpt lat="42.45152217718794" lon="14.140905102185144"><ele>150.5</ele><time>2026-05-03T12:36:49.001Z</time></trkpt><trkpt lat="42.451644496419526" lon="14.140907652403719"><ele>151.0</ele><time>2026-05-03T12:36:50.001Z</time></trkpt><trkpt lat="42.45176555682777" lon="14.14089238930562"><ele>151.5</ele><time>2026-05-03T12:36:51.001Z</time></trkpt><trkpt lat="42.45187774245195" lon="14.14087184187626"><ele>152.0</ele><time>2026-05-03T12:36:52.001Z</time></trkpt><trkpt lat="42.45198519000139" lon="14.140849659478711"><ele>152.0</ele><time>2026-05-03T12:36:53.001Z</time></trkpt><trkpt lat="42.45210514818811" lon="14.140825318764865"><ele>152.0</ele><time>2026-05-03T12:36:54.001Z</time></trkpt><trkpt lat="42.452221194494264" lon="14.140770182476768"><ele>152.0</ele><time>2026-05-03T12:36:55.001Z</time></trkpt><trkpt lat="42.45233331970773" lon="14.140749161424083"><ele>152.0</ele><time>2026-05-03T12:36:56.001Z</time></trkpt><trkpt lat="42.45244686066658" lon="14.140724007421058"><ele>152.0</ele><time>2026-05-03T12:36:57.001Z</time></trkpt><trkpt lat="42.45256390223469" lon="14.140699942676065"><ele>152.0</ele><time>2026-05-03T12:36:58.001Z</time></trkpt><trkpt lat="42.452675900814256" lon="14.140707058602636"><ele>152.0</ele><time>2026-05-03T12:36:59.001Z</time></trkpt><trkpt lat="42.45277480213182" lon="14.140655999726798"><ele>152.0</ele><time>2026-05-03T12:37:00.001Z</time></trkpt><trkpt lat="42.4528649699976" lon="14.140629807076186"><ele>152.0</ele><time>2026-05-03T12:37:01.001Z</time></trkpt><trkpt lat="42.45292667632012" lon="14.140611386407448"><ele>154.83333333333331</ele><time>2026-05-03T12:37:02.001Z</time></trkpt><trkpt lat="42.453002748727734" lon="14.140595114917817"><ele>157.66666666666666</ele><time>2026-05-03T12:37:06.001Z</time></trkpt><trkpt lat="42.45306400734944" lon="14.140573079958145"><ele>160.5</ele><time>2026-05-03T12:37:08.001Z</time></trkpt><trkpt lat="42.45312086917743" lon="14.140536441113337"><ele>163.33333333333334</ele><time>2026-05-03T12:37:09.001Z</time></trkpt><trkpt lat="42.45319478087513" lon="14.140490873657765"><ele>166.16666666666669</ele><time>2026-05-03T12:37:10.001Z</time></trkpt><trkpt lat="42.4532758670022" lon="14.140438968345851"><ele>169.0</ele><time>2026-05-03T12:37:11.001Z</time></trkpt><trkpt lat="42.45336906275399" lon="14.140383663774013"><ele>169.0</ele><time>2026-05-03T12:37:12.001Z</time></trkpt><trkpt lat="42.45347607298085" lon="14.140316092579603"><ele>169.0</ele><time>2026-05-03T12:37:13.001Z</time></trkpt><trkpt lat="42.45357061481023" lon="14.140291975947441"><ele>169.0</ele><time>2026-05-03T12:37:14.001Z</time></trkpt><trkpt lat="42.45365794076624" lon="14.140217815946936"><ele>169.0</ele><time>2026-05-03T12:37:15.001Z</time></trkpt><trkpt lat="42.45376253955052" lon="14.140171410080027"><ele>169.0</ele><time>2026-05-03T12:37:16.001Z</time></trkpt><trkpt lat="42.453867342211105" lon="14.140076792961265"><ele>169.75</ele><time>2026-05-03T12:37:17.001Z</time></trkpt><trkpt lat="42.453941554031324" lon="14.139925924910303"><ele>170.5</ele><time>2026-05-03T12:37:18.001Z</time></trkpt><trkpt lat="42.45403002013056" lon="14.139783724765703"><ele>171.25</ele><time>2026-05-03T12:37:19.001Z</time></trkpt><trkpt lat="42.454104234956375" lon="14.139630933176601"><ele>172.0</ele><time>2026-05-03T12:37:20.001Z</time></trkpt><trkpt lat="42.45417362492697" lon="14.139488074896436"><ele>172.39999999999998</ele><time>2026-05-03T12:37:21.001Z</time></trkpt><trkpt lat="42.454242008672686" lon="14.13935199222613"><ele>172.79999999999998</ele><time>2026-05-03T12:37:22.001Z</time></trkpt><trkpt lat="42.45430529932871" lon="14.139230491157281"><ele>173.2</ele><time>2026-05-03T12:37:23.001Z</time></trkpt><trkpt lat="42.45436434529088" lon="14.13911753564925"><ele>173.6</ele><time>2026-05-03T12:37:24.001Z</time></trkpt><trkpt lat="42.45442321885195" lon="14.13900790531226"><ele>174.0</ele><time>2026-05-03T12:37:25.002Z</time></trkpt><trkpt lat="42.454475401787235" lon="14.138895531552222"><ele>173.79999999999998</ele><time>2026-05-03T12:37:26.002Z</time></trkpt><trkpt lat="42.45452701593968" lon="14.138789869979636"><ele>173.6</ele><time>2026-05-03T12:37:27.002Z</time></trkpt><trkpt lat="42.4545972491994" lon="14.138705883007303"><ele>173.4</ele><time>2026-05-03T12:37:28.002Z</time></trkpt><trkpt lat="42.45465406098595" lon="14.138611356190857"><ele>173.2</ele><time>2026-05-03T12:37:29.002Z</time></trkpt><trkpt lat="42.45471444922625" lon="14.13851147987708"><ele>173.0</ele><time>2026-05-03T12:37:30.002Z</time></trkpt><trkpt lat="42.45477177355425" lon="14.138416804494389"><ele>173.0</ele><time>2026-05-03T12:37:31.002Z</time></trkpt><trkpt lat="42.45483275656759" lon="14.1383160865737"><ele>173.0</ele><time>2026-05-03T12:37:32.002Z</time></trkpt><trkpt lat="42.454886190398604" lon="14.13818739796598"><ele>173.0</ele><time>2026-05-03T12:37:33.002Z</time></trkpt><trkpt lat="42.45496432293438" lon="14.138075243029403"><ele>173.0</ele><time>2026-05-03T12:37:34.002Z</time></trkpt><trkpt lat="42.45501689649577" lon="14.137940396407263"><ele>173.0</ele><time>2026-05-03T12:37:35.002Z</time></trkpt><trkpt lat="42.455049217561566" lon="14.137795892210091"><ele>173.0</ele><time>2026-05-03T12:37:36.002Z</time></trkpt><trkpt lat="42.455041746134775" lon="14.137642403091858"><ele>173.0</ele><time>2026-05-03T12:37:37.002Z</time></trkpt><trkpt lat="42.45504239356012" lon="14.137508879542976"><ele>173.0</ele><time>2026-05-03T12:37:38.002Z</time></trkpt><trkpt lat="42.45503838213242" lon="14.137381950355447"><ele>173.0</ele><time>2026-05-03T12:37:39.002Z</time></trkpt><trkpt lat="42.45503363052324" lon="14.137261835714687"><ele>173.0</ele><time>2026-05-03T12:37:40.002Z</time></trkpt><trkpt lat="42.455030248409074" lon="14.137145027299796"><ele>173.0</ele><time>2026-05-03T12:37:41.002Z</time></trkpt><trkpt lat="42.45502664122962" lon="14.137016757064679"><ele>173.0</ele><time>2026-05-03T12:37:42.002Z</time></trkpt><trkpt lat="42.455039889148466" lon="14.136901949181567"><ele>173.0</ele><time>2026-05-03T12:37:43.002Z</time></trkpt><trkpt lat="42.455039688702" lon="14.136797951007676"><ele>173.0</ele><time>2026-05-03T12:37:44.002Z</time></trkpt><trkpt lat="42.455040125660425" lon="14.13670304381704"><ele>173.0</ele><time>2026-05-03T12:37:45.002Z</time></trkpt><trkpt lat="42.45504061862103" lon="14.136595976484951"><ele>173.0</ele><time>2026-05-03T12:37:46.002Z</time></trkpt><trkpt lat="42.45505265337143" lon="14.136505938219589"><ele>174.4</ele><time>2026-05-03T12:37:47.002Z</time></trkpt><trkpt lat="42.455156847860245" lon="14.136436675302898"><ele>175.8</ele><time>2026-05-03T12:37:49.002Z</time></trkpt><trkpt lat="42.455248290426205" lon="14.136446350199332"><ele>177.2</ele><time>2026-05-03T12:37:50.002Z</time></trkpt><trkpt lat="42.45533707689593" lon="14.136424930376537"><ele>178.6</ele><time>2026-05-03T12:37:51.002Z</time></trkpt><trkpt lat="42.455392053042466" lon="14.136327469971489"><ele>180.0</ele><time>2026-05-03T12:37:52.002Z</time></trkpt><trkpt lat="42.455481549832754" lon="14.136277403397466"><ele>180.0</ele><time>2026-05-03T12:37:53.002Z</time></trkpt><trkpt lat="42.455560715394654" lon="14.136227398825062"><ele>180.0</ele><time>2026-05-03T12:37:54.002Z</time></trkpt><trkpt lat="42.45563074600574" lon="14.13615792957469"><ele>180.0</ele><time>2026-05-03T12:37:55.002Z</time></trkpt><trkpt lat="42.455702206773076" lon="14.136107088638363"><ele>180.0</ele><time>2026-05-03T12:37:56.002Z</time></trkpt><trkpt lat="42.45577917917849" lon="14.136077427884773"><ele>180.0</ele><time>2026-05-03T12:37:57.002Z</time></trkpt><trkpt lat="42.45584877023303" lon="14.136000028012095"><ele>180.0</ele><time>2026-05-03T12:37:58.002Z</time></trkpt><trkpt lat="42.455960369368654" lon="14.135936567213827"><ele>180.0</ele><time>2026-05-03T12:37:59.002Z</time></trkpt><trkpt lat="42.45603167510379" lon="14.135800665331084"><ele>180.0</ele><time>2026-05-03T12:38:00.002Z</time></trkpt><trkpt lat="42.4561144744031" lon="14.135675483462688"><ele>180.0</ele><time>2026-05-03T12:38:01.002Z</time></trkpt><trkpt lat="42.45617841244168" lon="14.135524700639506"><ele>180.0</ele><time>2026-05-03T12:38:02.002Z</time></trkpt><trkpt lat="42.45623779067652" lon="14.135352640692581"><ele>177.0</ele><time>2026-05-03T12:38:03.002Z</time></trkpt><trkpt lat="42.456292881752155" lon="14.135174762976368"><ele>174.0</ele><time>2026-05-03T12:38:04.002Z</time></trkpt><trkpt lat="42.45634865620394" lon="14.134992972263015"><ele>171.0</ele><time>2026-05-03T12:38:05.002Z</time></trkpt><trkpt lat="42.456405813828354" lon="14.134806673702252"><ele>168.0</ele><time>2026-05-03T12:38:06.002Z</time></trkpt><trkpt lat="42.45646024188248" lon="14.13463178000973"><ele>168.0</ele><time>2026-05-03T12:38:07.002Z</time></trkpt><trkpt lat="42.45652186145619" lon="14.134435269490456"><ele>168.0</ele><time>2026-05-03T12:38:08.002Z</time></trkpt><trkpt lat="42.45658720115095" lon="14.134226333663799"><ele>168.0</ele><time>2026-05-03T12:38:09.002Z</time></trkpt><trkpt lat="42.4566421881111" lon="14.134035898118054"><ele>168.0</ele><time>2026-05-03T12:38:10.002Z</time></trkpt><trkpt lat="42.4566774120135" lon="14.133841924189271"><ele>168.0</ele><time>2026-05-03T12:38:11.002Z</time></trkpt><trkpt lat="42.45671918486682" lon="14.133650205405278"><ele>168.0</ele><time>2026-05-03T12:38:12.002Z</time></trkpt><trkpt lat="42.45675313852578" lon="14.133462951217009"><ele>168.0</ele><time>2026-05-03T12:38:13.002Z</time></trkpt><trkpt lat="42.45677948760718" lon="14.133277773802355"><ele>167.5</ele><time>2026-05-03T12:38:14.002Z</time></trkpt><trkpt lat="42.45681825961221" lon="14.133093055117923"><ele>167.0</ele><time>2026-05-03T12:38:15.002Z</time></trkpt><trkpt lat="42.45683876124665" lon="14.132907409697438"><ele>166.5</ele><time>2026-05-03T12:38:16.002Z</time></trkpt><trkpt lat="42.45686108051149" lon="14.132726024869621"><ele>166.0</ele><time>2026-05-03T12:38:17.002Z</time></trkpt><trkpt lat="42.4568973272208" lon="14.132551073561133"><ele>166.0</ele><time>2026-05-03T12:38:18.002Z</time></trkpt><trkpt lat="42.45694714692086" lon="14.132387043114162"><ele>166.0</ele><time>2026-05-03T12:38:19.002Z</time></trkpt><trkpt lat="42.45700765717626" lon="14.132229778575116"><ele>166.0</ele><time>2026-05-03T12:38:20.002Z</time></trkpt><trkpt lat="42.4570784509972" lon="14.132058013516916"><ele>166.0</ele><time>2026-05-03T12:38:21.002Z</time></trkpt><trkpt lat="42.45715028231222" lon="14.13188372665422"><ele>164.0</ele><time>2026-05-03T12:38:22.002Z</time></trkpt><trkpt lat="42.457213254553224" lon="14.131697329467274"><ele>162.0</ele><time>2026-05-03T12:38:23.002Z</time></trkpt><trkpt lat="42.45728891754752" lon="14.131518966989647"><ele>160.0</ele><time>2026-05-03T12:38:24.002Z</time></trkpt><trkpt lat="42.457379615262354" lon="14.131344970652371"><ele>160.0</ele><time>2026-05-03T12:38:25.002Z</time></trkpt><trkpt lat="42.4574579069769" lon="14.13116513840311"><ele>160.0</ele><time>2026-05-03T12:38:26.002Z</time></trkpt><trkpt lat="42.4575388945405" lon="14.130983619818736"><ele>160.0</ele><time>2026-05-03T12:38:27.003Z</time></trkpt><trkpt lat="42.457612330648956" lon="14.130789301960698"><ele>160.25</ele><time>2026-05-03T12:38:28.003Z</time></trkpt><trkpt lat="42.457723832895006" lon="14.130650671037879"><ele>160.5</ele><time>2026-05-03T12:38:29.001Z</time></trkpt><trkpt lat="42.45783043359459" lon="14.130521257605572"><ele>160.75</ele><time>2026-05-03T12:38:30.001Z</time></trkpt><trkpt lat="42.457947910030505" lon="14.130403840377841"><ele>161.0</ele><time>2026-05-03T12:38:31.001Z</time></trkpt><trkpt lat="42.45806487153492" lon="14.130259936207418"><ele>160.66666666666666</ele><time>2026-05-03T12:38:32.001Z</time></trkpt><trkpt lat="42.45818809046504" lon="14.130126994870363"><ele>160.33333333333334</ele><time>2026-05-03T12:38:33.001Z</time></trkpt><trkpt lat="42.45830689062962" lon="14.129977075128311"><ele>160.0</ele><time>2026-05-03T12:38:34.001Z</time></trkpt><trkpt lat="42.4584118700814" lon="14.12981534219565"><ele>160.0</ele><time>2026-05-03T12:38:35.001Z</time></trkpt><trkpt lat="42.4585034185051" lon="14.129639892702642"><ele>160.0</ele><time>2026-05-03T12:38:36.001Z</time></trkpt><trkpt lat="42.458595837793695" lon="14.129458796910024"><ele>160.0</ele><time>2026-05-03T12:38:37.001Z</time></trkpt><trkpt lat="42.45866186430472" lon="14.129275652368568"><ele>160.0</ele><time>2026-05-03T12:38:38.001Z</time></trkpt><trkpt lat="42.458685664171085" lon="14.129080904998593"><ele>160.0</ele><time>2026-05-03T12:38:39.001Z</time></trkpt><trkpt lat="42.45870769242904" lon="14.128902325980341"><ele>160.0</ele><time>2026-05-03T12:38:40.001Z</time></trkpt><trkpt lat="42.45871466295523" lon="14.128718387747996"><ele>160.0</ele><time>2026-05-03T12:38:41.001Z</time></trkpt><trkpt lat="42.45872407530872" lon="14.128512788335016"><ele>161.0</ele><time>2026-05-03T12:38:42.001Z</time></trkpt><trkpt lat="42.458660442462" lon="14.12831857905312"><ele>162.0</ele><time>2026-05-03T12:38:43.001Z</time></trkpt><trkpt lat="42.45859619914276" lon="14.128129863885935"><ele>163.0</ele><time>2026-05-03T12:38:44.001Z</time></trkpt><trkpt lat="42.458520577861236" lon="14.127938554926244"><ele>163.0</ele><time>2026-05-03T12:38:45.001Z</time></trkpt><trkpt lat="42.45845075637272" lon="14.127768891461654"><ele>163.0</ele><time>2026-05-03T12:38:46.001Z</time></trkpt><trkpt lat="42.458390174296106" lon="14.127604428897442"><ele>163.0</ele><time>2026-05-03T12:38:47.001Z</time></trkpt><trkpt lat="42.45833281754553" lon="14.127441394244027"><ele>163.0</ele><time>2026-05-03T12:38:48.001Z</time></trkpt><trkpt lat="42.458257150461996" lon="14.127296675176195"><ele>161.25</ele><time>2026-05-03T12:38:49.001Z</time></trkpt><trkpt lat="42.45814565199722" lon="14.127170253169243"><ele>159.5</ele><time>2026-05-03T12:38:50.001Z</time></trkpt><trkpt lat="42.4580257403798" lon="14.127066091109143"><ele>157.75</ele><time>2026-05-03T12:38:51.001Z</time></trkpt><trkpt lat="42.4579304277026" lon="14.126944173168123"><ele>156.0</ele><time>2026-05-03T12:38:52.001Z</time></trkpt><trkpt lat="42.457843792981016" lon="14.126790861027581"><ele>156.0</ele><time>2026-05-03T12:38:53.001Z</time></trkpt><trkpt lat="42.4577604203575" lon="14.126627883454725"><ele>156.0</ele><time>2026-05-03T12:38:54.001Z</time></trkpt><trkpt lat="42.45768272202779" lon="14.126475078360231"><ele>156.0</ele><time>2026-05-03T12:38:55.001Z</time></trkpt><trkpt lat="42.4575892413149" lon="14.126332026131251"><ele>156.0</ele><time>2026-05-03T12:38:56.001Z</time></trkpt><trkpt lat="42.45750934286045" lon="14.126175884954016"><ele>158.2</ele><time>2026-05-03T12:38:57.001Z</time></trkpt><trkpt lat="42.45745306289098" lon="14.126012199049235"><ele>160.39999999999998</ele><time>2026-05-03T12:38:58.001Z</time></trkpt><trkpt lat="42.457397896125556" lon="14.125872363056676"><ele>162.6</ele><time>2026-05-03T12:38:59.001Z</time></trkpt><trkpt lat="42.457354403682096" lon="14.12575018102612"><ele>164.79999999999998</ele><time>2026-05-03T12:39:00.001Z</time></trkpt><trkpt lat="42.45730676960415" lon="14.125640136696973"><ele>167.0</ele><time>2026-05-03T12:39:01.001Z</time></trkpt><trkpt lat="42.45728123019982" lon="14.125539967676454"><ele>168.16666666666666</ele><time>2026-05-03T12:39:02.001Z</time></trkpt><trkpt lat="42.457263276486685" lon="14.125444866500908"><ele>169.33333333333331</ele><time>2026-05-03T12:39:03.001Z</time></trkpt><trkpt lat="42.457248033615265" lon="14.125347201947072"><ele>170.5</ele><time>2026-05-03T12:39:04.001Z</time></trkpt><trkpt lat="42.45723211341499" lon="14.125252132378368"><ele>171.66666666666666</ele><time>2026-05-03T12:39:05.001Z</time></trkpt><trkpt lat="42.45721871853697" lon="14.125158358631849"><ele>172.83333333333334</ele><time>2026-05-03T12:39:06.001Z</time></trkpt><trkpt lat="42.4572105212228" lon="14.125050105915546"><ele>174.0</ele><time>2026-05-03T12:39:07.001Z</time></trkpt><trkpt lat="42.45721154023603" lon="14.124911493921429"><ele>173.39999999999998</ele><time>2026-05-03T12:39:08.001Z</time></trkpt><trkpt lat="42.45721565407627" lon="14.124769348947176"><ele>172.8</ele><time>2026-05-03T12:39:09.001Z</time></trkpt><trkpt lat="42.457225488251076" lon="14.124625636879072"><ele>172.2</ele><time>2026-05-03T12:39:10.001Z</time></trkpt><trkpt lat="42.45724414420538" lon="14.124471137735867"><ele>171.60000000000002</ele><time>2026-05-03T12:39:11.001Z</time></trkpt><trkpt lat="42.457273992345755" lon="14.124314080756067"><ele>171.0</ele><time>2026-05-03T12:39:12.001Z</time></trkpt><trkpt lat="42.457328607579655" lon="14.12415764632061"><ele>169.25</ele><time>2026-05-03T12:39:13.001Z</time></trkpt><trkpt lat="42.457377095688095" lon="14.123983708105548"><ele>167.5</ele><time>2026-05-03T12:39:14.001Z</time></trkpt><trkpt lat="42.45742794701976" lon="14.12380915356398"><ele>165.75</ele><time>2026-05-03T12:39:15.001Z</time></trkpt><trkpt lat="42.457481251514345" lon="14.123627634082068"><ele>164.0</ele><time>2026-05-03T12:39:16.001Z</time></trkpt><trkpt lat="42.45753509777734" lon="14.123449552322725"><ele>164.0</ele><time>2026-05-03T12:39:17.001Z</time></trkpt><trkpt lat="42.45758516091476" lon="14.123283094445213"><ele>164.0</ele><time>2026-05-03T12:39:18.001Z</time></trkpt><trkpt lat="42.457635357694386" lon="14.12311619223951"><ele>164.0</ele><time>2026-05-03T12:39:19.001Z</time></trkpt><trkpt lat="42.45768364250609" lon="14.122954523561729"><ele>164.0</ele><time>2026-05-03T12:39:20.001Z</time></trkpt><trkpt lat="42.457732039042504" lon="14.122792053539042"><ele>163.5</ele><time>2026-05-03T12:39:21.001Z</time></trkpt><trkpt lat="42.45777715552826" lon="14.122645494117796"><ele>163.0</ele><time>2026-05-03T12:39:22.001Z</time></trkpt><trkpt lat="42.45782481113323" lon="14.12249506680924"><ele>162.5</ele><time>2026-05-03T12:39:23.001Z</time></trkpt><trkpt lat="42.45788018629879" lon="14.122340697883017"><ele>162.0</ele><time>2026-05-03T12:39:24.001Z</time></trkpt><trkpt lat="42.457950092816624" lon="14.122182647055585"><ele>161.5</ele><time>2026-05-03T12:39:25.001Z</time></trkpt><trkpt lat="42.4580389336804" lon="14.122028678486874"><ele>161.0</ele><time>2026-05-03T12:39:26.001Z</time></trkpt><trkpt lat="42.45814114533572" lon="14.121893417840104"><ele>160.5</ele><time>2026-05-03T12:39:27.001Z</time></trkpt><trkpt lat="42.45825287940003" lon="14.12176232650027"><ele>160.0</ele><time>2026-05-03T12:39:28.001Z</time></trkpt><trkpt lat="42.45837298267181" lon="14.121627428832147"><ele>160.33333333333334</ele><time>2026-05-03T12:39:29.001Z</time></trkpt><trkpt lat="42.45849813907675" lon="14.121494498361516"><ele>160.66666666666666</ele><time>2026-05-03T12:39:30.001Z</time></trkpt><trkpt lat="42.45862104389089" lon="14.1213681254458"><ele>161.0</ele><time>2026-05-03T12:39:31.001Z</time></trkpt><trkpt lat="42.45873568778097" lon="14.121250409752845"><ele>160.75</ele><time>2026-05-03T12:39:32.001Z</time></trkpt><trkpt lat="42.45884527287186" lon="14.121137014560151"><ele>160.5</ele><time>2026-05-03T12:39:33.002Z</time></trkpt><trkpt lat="42.458951168567026" lon="14.121022632268964"><ele>160.25</ele><time>2026-05-03T12:39:34.002Z</time></trkpt><trkpt lat="42.45905762685309" lon="14.12090765958612"><ele>160.0</ele><time>2026-05-03T12:39:35.002Z</time></trkpt><trkpt lat="42.4591678385828" lon="14.120788633384048"><ele>159.75</ele><time>2026-05-03T12:39:36.002Z</time></trkpt><trkpt lat="42.45927311487272" lon="14.12067493717791"><ele>159.5</ele><time>2026-05-03T12:39:37.002Z</time></trkpt><trkpt lat="42.459375820645604" lon="14.120569704701"><ele>159.25</ele><time>2026-05-03T12:39:38.002Z</time></trkpt><trkpt lat="42.45947302889118" lon="14.120471916681042"><ele>159.0</ele><time>2026-05-03T12:39:39.002Z</time></trkpt><trkpt lat="42.45956152084146" lon="14.1203828970578"><ele>159.16666666666666</ele><time>2026-05-03T12:39:40.002Z</time></trkpt><trkpt lat="42.45963706609255" lon="14.120306902073127"><ele>159.33333333333334</ele><time>2026-05-03T12:39:41.002Z</time></trkpt><trkpt lat="42.459701677022025" lon="14.120240488988657"><ele>159.5</ele><time>2026-05-03T12:39:42.002Z</time></trkpt><trkpt lat="42.45975268009741" lon="14.120188324749428"><ele>159.66666666666669</ele><time>2026-05-03T12:39:43.002Z</time></trkpt><trkpt lat="42.45983634992922" lon="14.120102750054379"><ele>159.83333333333334</ele><time>2026-05-03T12:39:45.002Z</time></trkpt><trkpt lat="42.45992380400133" lon="14.120064487397078"><ele>160.0</ele><time>2026-05-03T12:39:47.002Z</time></trkpt><trkpt lat="42.46005104281952" lon="14.120032054566275"><ele>160.0</ele><time>2026-05-03T12:39:49.002Z</time></trkpt><trkpt lat="42.4601345387791" lon="14.120048408726111"><ele>160.0</ele><time>2026-05-03T12:39:50.002Z</time></trkpt><trkpt lat="42.460214820502" lon="14.120037987941478"><ele>160.0</ele><time>2026-05-03T12:39:51.002Z</time></trkpt><trkpt lat="42.46030351939657" lon="14.120007953169232"><ele>160.0</ele><time>2026-05-03T12:39:52.002Z</time></trkpt><trkpt lat="42.46041437127773" lon="14.1200474871413"><ele>160.0</ele><time>2026-05-03T12:39:53.002Z</time></trkpt><trkpt lat="42.460518955443895" lon="14.120099251495494"><ele>160.5</ele><time>2026-05-03T12:39:54.002Z</time></trkpt><trkpt lat="42.4606494065963" lon="14.120158466520714"><ele>161.0</ele><time>2026-05-03T12:39:55.002Z</time></trkpt><trkpt lat="42.460789056003655" lon="14.120207701487475"><ele>161.5</ele><time>2026-05-03T12:39:56.002Z</time></trkpt><trkpt lat="42.460925010452755" lon="14.120251420034021"><ele>162.0</ele><time>2026-05-03T12:39:57.002Z</time></trkpt><trkpt lat="42.46105923011528" lon="14.120277930734018"><ele>162.0</ele><time>2026-05-03T12:39:58.002Z</time></trkpt><trkpt lat="42.46118565975773" lon="14.12031549708222"><ele>162.0</ele><time>2026-05-03T12:39:59.002Z</time></trkpt><trkpt lat="42.461314385085" lon="14.120372224239148"><ele>162.0</ele><time>2026-05-03T12:40:00.002Z</time></trkpt><trkpt lat="42.46145730622235" lon="14.120451874087674"><ele>162.0</ele><time>2026-05-03T12:40:01.002Z</time></trkpt><trkpt lat="42.4615882391649" lon="14.120558821338232"><ele>164.33333333333334</ele><time>2026-05-03T12:40:02.002Z</time></trkpt><trkpt lat="42.46172744028536" lon="14.120673495419467"><ele>166.66666666666669</ele><time>2026-05-03T12:40:03.002Z</time></trkpt><trkpt lat="42.46187646016898" lon="14.12078658362042"><ele>169.0</ele><time>2026-05-03T12:40:04.002Z</time></trkpt><trkpt lat="42.46203458897883" lon="14.12089975027229"><ele>168.0</ele><time>2026-05-03T12:40:05.002Z</time></trkpt><trkpt lat="42.462180421043094" lon="14.121008626987416"><ele>167.0</ele><time>2026-05-03T12:40:06.002Z</time></trkpt><trkpt lat="42.46233017371199" lon="14.121115755586906"><ele>166.0</ele><time>2026-05-03T12:40:07.002Z</time></trkpt><trkpt lat="42.46248597344501" lon="14.121243334665754"><ele>166.0</ele><time>2026-05-03T12:40:08.002Z</time></trkpt><trkpt lat="42.46263760753927" lon="14.121350170906455"><ele>166.0</ele><time>2026-05-03T12:40:09.002Z</time></trkpt><trkpt lat="42.462776664527134" lon="14.121454004674979"><ele>166.0</ele><time>2026-05-03T12:40:10.002Z</time></trkpt><trkpt lat="42.46290969440194" lon="14.121561008452353"><ele>162.33333333333334</ele><time>2026-05-03T12:40:11.002Z</time></trkpt><trkpt lat="42.46305249875457" lon="14.121665601272749"><ele>158.66666666666666</ele><time>2026-05-03T12:40:12.002Z</time></trkpt><trkpt lat="42.463201341596466" lon="14.121768567527168"><ele>155.0</ele><time>2026-05-03T12:40:13.002Z</time></trkpt><trkpt lat="42.46334801973876" lon="14.121875427587277"><ele>155.0</ele><time>2026-05-03T12:40:14.002Z</time></trkpt><trkpt lat="42.46348872522859" lon="14.121981462608346"><ele>155.0</ele><time>2026-05-03T12:40:15.002Z</time></trkpt><trkpt lat="42.46361776648883" lon="14.122079138749296"><ele>155.0</ele><time>2026-05-03T12:40:16.002Z</time></trkpt><trkpt lat="42.463737781594375" lon="14.122170496550964"><ele>155.0</ele><time>2026-05-03T12:40:17.002Z</time></trkpt><trkpt lat="42.46384581724832" lon="14.122287327210568"><ele>153.0</ele><time>2026-05-03T12:40:18.002Z</time></trkpt><trkpt lat="42.46394307804312" lon="14.122434711131982"><ele>151.0</ele><time>2026-05-03T12:40:19.002Z</time></trkpt><trkpt lat="42.46403276091714" lon="14.122609712440312"><ele>149.0</ele><time>2026-05-03T12:40:20.002Z</time></trkpt><trkpt lat="42.464125468023695" lon="14.12281259490141"><ele>149.0</ele><time>2026-05-03T12:40:21.002Z</time></trkpt><trkpt lat="42.46420375708946" lon="14.123007797103273"><ele>149.0</ele><time>2026-05-03T12:40:22.002Z</time></trkpt><trkpt lat="42.464269977134016" lon="14.123205036391798"><ele>149.0</ele><time>2026-05-03T12:40:23.002Z</time></trkpt><trkpt lat="42.46432189553968" lon="14.123416074864581"><ele>149.0</ele><time>2026-05-03T12:40:24.002Z</time></trkpt><trkpt lat="42.464365685821306" lon="14.123623073546119"><ele>149.0</ele><time>2026-05-03T12:40:25.002Z</time></trkpt><trkpt lat="42.464421171679945" lon="14.12381606410062"><ele>149.0</ele><time>2026-05-03T12:40:26.002Z</time></trkpt><trkpt lat="42.46449616133799" lon="14.124003769230079"><ele>147.33333333333331</ele><time>2026-05-03T12:40:27.002Z</time></trkpt><trkpt lat="42.4645874817701" lon="14.124181982874095"><ele>145.66666666666666</ele><time>2026-05-03T12:40:28.002Z</time></trkpt><trkpt lat="42.4647093608867" lon="14.12434384703499"><ele>144.0</ele><time>2026-05-03T12:40:29.002Z</time></trkpt><trkpt lat="42.4648379766325" lon="14.124499712829557"><ele>143.0</ele><time>2026-05-03T12:40:30.002Z</time></trkpt><trkpt lat="42.464958010754096" lon="14.124651439120314"><ele>142.0</ele><time>2026-05-03T12:40:31.002Z</time></trkpt><trkpt lat="42.46506556401549" lon="14.124820880220238"><ele>141.0</ele><time>2026-05-03T12:40:32.002Z</time></trkpt><trkpt lat="42.46515750749786" lon="14.12499590456914"><ele>139.33333333333334</ele><time>2026-05-03T12:40:33.002Z</time></trkpt><trkpt lat="42.46525314441002" lon="14.12518440528403"><ele>137.66666666666669</ele><time>2026-05-03T12:40:34.002Z</time></trkpt><trkpt lat="42.46535556511098" lon="14.125365934517308"><ele>136.0</ele><time>2026-05-03T12:40:35.001Z</time></trkpt><trkpt lat="42.4654685829487" lon="14.125533283862334"><ele>136.0</ele><time>2026-05-03T12:40:36.001Z</time></trkpt><trkpt lat="42.46559412317703" lon="14.12569446801839"><ele>136.0</ele><time>2026-05-03T12:40:37.001Z</time></trkpt><trkpt lat="42.46571716540981" lon="14.125843758295055"><ele>136.0</ele><time>2026-05-03T12:40:38.001Z</time></trkpt><trkpt lat="42.46584725331814" lon="14.125959713500002"><ele>135.33333333333334</ele><time>2026-05-03T12:40:39.001Z</time></trkpt><trkpt lat="42.465987999976996" lon="14.1260572848962"><ele>134.66666666666666</ele><time>2026-05-03T12:40:40.001Z</time></trkpt><trkpt lat="42.46615046079911" lon="14.126103190777668"><ele>134.0</ele><time>2026-05-03T12:40:41.001Z</time></trkpt><trkpt lat="42.466322919729585" lon="14.126123889357261"><ele>134.0</ele><time>2026-05-03T12:40:42.001Z</time></trkpt><trkpt lat="42.466478728813854" lon="14.12614067246934"><ele>134.0</ele><time>2026-05-03T12:40:43.001Z</time></trkpt><trkpt lat="42.46660732098277" lon="14.126202263432372"><ele>134.0</ele><time>2026-05-03T12:40:44.001Z</time></trkpt><trkpt lat="42.46671624778522" lon="14.126259413513374"><ele>134.0</ele><time>2026-05-03T12:40:45.001Z</time></trkpt><trkpt lat="42.46681095254282" lon="14.126388945696482"><ele>135.66666666666666</ele><time>2026-05-03T12:40:46.001Z</time></trkpt><trkpt lat="42.466897757139826" lon="14.126573129949804"><ele>137.33333333333334</ele><time>2026-05-03T12:40:47.001Z</time></trkpt><trkpt lat="42.466991144396026" lon="14.126778729239312"><ele>139.0</ele><time>2026-05-03T12:40:48.001Z</time></trkpt><trkpt lat="42.46709135443633" lon="14.126988639208362"><ele>137.66666666666669</ele><time>2026-05-03T12:40:49.001Z</time></trkpt><trkpt lat="42.467197164682524" lon="14.127210746704312"><ele>136.33333333333334</ele><time>2026-05-03T12:40:50.001Z</time></trkpt><trkpt lat="42.46730105794715" lon="14.127446056081242"><ele>135.0</ele><time>2026-05-03T12:40:51.001Z</time></trkpt><trkpt lat="42.467392506718966" lon="14.127677005690007"><ele>138.33333333333334</ele><time>2026-05-03T12:40:52.001Z</time></trkpt><trkpt lat="42.46747203465726" lon="14.127895500747542"><ele>141.66666666666669</ele><time>2026-05-03T12:40:53.001Z</time></trkpt><trkpt lat="42.467541046487206" lon="14.12810268224987"><ele>145.0</ele><time>2026-05-03T12:40:54.001Z</time></trkpt><trkpt lat="42.467609844092244" lon="14.128298980261038"><ele>145.5</ele><time>2026-05-03T12:40:55.001Z</time></trkpt><trkpt lat="42.467671240495385" lon="14.128456127540414"><ele>146.0</ele><time>2026-05-03T12:40:56.001Z</time></trkpt><trkpt lat="42.46775230753917" lon="14.128615432132953"><ele>146.5</ele><time>2026-05-03T12:40:57.001Z</time></trkpt><trkpt lat="42.46786944749634" lon="14.128722067621203"><ele>147.0</ele><time>2026-05-03T12:40:58.001Z</time></trkpt><trkpt lat="42.468002265808444" lon="14.128801975843533"><ele>150.33333333333334</ele><time>2026-05-03T12:40:59.001Z</time></trkpt><trkpt lat="42.46815357908004" lon="14.128855944335266"><ele>153.66666666666669</ele><time>2026-05-03T12:41:00.001Z</time></trkpt><trkpt lat="42.468322579960834" lon="14.128908930181755"><ele>157.0</ele><time>2026-05-03T12:41:01.001Z</time></trkpt><trkpt lat="42.46848656665099" lon="14.128959167248455"><ele>157.0</ele><time>2026-05-03T12:41:02.001Z</time></trkpt><trkpt lat="42.46867709970172" lon="14.129016209476532"><ele>157.0</ele><time>2026-05-03T12:41:03.001Z</time></trkpt><trkpt lat="42.468854408864495" lon="14.12908499850335"><ele>157.0</ele><time>2026-05-03T12:41:04.001Z</time></trkpt><trkpt lat="42.46902350902797" lon="14.12914602195675"><ele>154.66666666666669</ele><time>2026-05-03T12:41:05.001Z</time></trkpt><trkpt lat="42.469187182003544" lon="14.129217716948"><ele>152.33333333333334</ele><time>2026-05-03T12:41:06.001Z</time></trkpt><trkpt lat="42.46934569890306" lon="14.129311344761259"><ele>150.0</ele><time>2026-05-03T12:41:07.001Z</time></trkpt><trkpt lat="42.469498961245925" lon="14.129449493506131"><ele>150.0</ele><time>2026-05-03T12:41:08.001Z</time></trkpt><trkpt lat="42.469645310862234" lon="14.129624854426389"><ele>150.0</ele><time>2026-05-03T12:41:09.001Z</time></trkpt><trkpt lat="42.46980592002711" lon="14.129811510352468"><ele>150.0</ele><time>2026-05-03T12:41:10.001Z</time></trkpt><trkpt lat="42.469968793464574" lon="14.130001677938855"><ele>150.0</ele><time>2026-05-03T12:41:11.001Z</time></trkpt><trkpt lat="42.47011877780154" lon="14.130189500201016"><ele>150.0</ele><time>2026-05-03T12:41:12.001Z</time></trkpt><trkpt lat="42.47026427810223" lon="14.1303708620857"><ele>150.0</ele><time>2026-05-03T12:41:13.001Z</time></trkpt><trkpt lat="42.47042455958044" lon="14.130560276751714"><ele>148.0</ele><time>2026-05-03T12:41:14.001Z</time></trkpt><trkpt lat="42.470597261480286" lon="14.130765648245106"><ele>146.0</ele><time>2026-05-03T12:41:15.001Z</time></trkpt><trkpt lat="42.47075866403124" lon="14.130966660285036"><ele>144.0</ele><time>2026-05-03T12:41:16.001Z</time></trkpt><trkpt lat="42.470914030279275" lon="14.131159022996776"><ele>144.0</ele><time>2026-05-03T12:41:17.001Z</time></trkpt><trkpt lat="42.47106157810774" lon="14.13133985766382"><ele>144.0</ele><time>2026-05-03T12:41:18.001Z</time></trkpt><trkpt lat="42.471198734439845" lon="14.131510577581352"><ele>144.0</ele><time>2026-05-03T12:41:19.001Z</time></trkpt><trkpt lat="42.47131819373617" lon="14.131660144336083"><ele>143.33333333333334</ele><time>2026-05-03T12:41:20.001Z</time></trkpt><trkpt lat="42.47141238757977" lon="14.131799042724083"><ele>142.66666666666669</ele><time>2026-05-03T12:41:21.001Z</time></trkpt><trkpt lat="42.47149158571533" lon="14.131979690724727"><ele>142.0</ele><time>2026-05-03T12:41:22.001Z</time></trkpt><trkpt lat="42.47153181924302" lon="14.132197214485137"><ele>144.0</ele><time>2026-05-03T12:41:23.001Z</time></trkpt><trkpt lat="42.471540499152475" lon="14.132429344801952"><ele>146.0</ele><time>2026-05-03T12:41:24.001Z</time></trkpt><trkpt lat="42.47154440463718" lon="14.132656810985745"><ele>148.0</ele><time>2026-05-03T12:41:25.001Z</time></trkpt><trkpt lat="42.47156998119628" lon="14.132874840906712"><ele>148.0</ele><time>2026-05-03T12:41:26.001Z</time></trkpt><trkpt lat="42.47163361989736" lon="14.133068702213022"><ele>148.0</ele><time>2026-05-03T12:41:27.001Z</time></trkpt><trkpt lat="42.4717215370291" lon="14.133222024413708"><ele>148.0</ele><time>2026-05-03T12:41:28.001Z</time></trkpt><trkpt lat="42.47183722590485" lon="14.133330332873149"><ele>148.0</ele><time>2026-05-03T12:41:29.001Z</time></trkpt><trkpt lat="42.471975035979305" lon="14.133390471345896"><ele>151.33333333333334</ele><time>2026-05-03T12:41:30.001Z</time></trkpt><trkpt lat="42.47213719651496" lon="14.1333657817675"><ele>154.66666666666666</ele><time>2026-05-03T12:41:31.001Z</time></trkpt><trkpt lat="42.472288401181444" lon="14.133358494535186"><ele>158.0</ele><time>2026-05-03T12:41:32.001Z</time></trkpt><trkpt lat="42.472427543828296" lon="14.133385557152273"><ele>158.0</ele><time>2026-05-03T12:41:33.001Z</time></trkpt><trkpt lat="42.472555686173884" lon="14.133463322119338"><ele>158.0</ele><time>2026-05-03T12:41:34.001Z</time></trkpt><trkpt lat="42.472655595409144" lon="14.133600044055497"><ele>158.0</ele><time>2026-05-03T12:41:35.001Z</time></trkpt><trkpt lat="42.47277124229786" lon="14.13374475398976"><ele>158.0</ele><time>2026-05-03T12:41:36.001Z</time></trkpt><trkpt lat="42.47291139837715" lon="14.133871677866882"><ele>160.66666666666666</ele><time>2026-05-03T12:41:37.001Z</time></trkpt><trkpt lat="42.47305526647185" lon="14.13398554261078"><ele>163.33333333333334</ele><time>2026-05-03T12:41:38.001Z</time></trkpt><trkpt lat="42.473212921540096" lon="14.134075284762343"><ele>166.0</ele><time>2026-05-03T12:41:39.001Z</time></trkpt><trkpt lat="42.47333760755445" lon="14.134192406500105"><ele>166.0</ele><time>2026-05-03T12:41:40.001Z</time></trkpt><trkpt lat="42.473444735538905" lon="14.134345449654443"><ele>166.0</ele><time>2026-05-03T12:41:41.001Z</time></trkpt><trkpt lat="42.47352739359638" lon="14.134493270007479"><ele>166.0</ele><time>2026-05-03T12:41:42.001Z</time></trkpt><trkpt lat="42.473562613174956" lon="14.134664201538518"><ele>166.0</ele><time>2026-05-03T12:41:43.001Z</time></trkpt><trkpt lat="42.47359584306939" lon="14.134846260314738"><ele>164.0</ele><time>2026-05-03T12:41:44.001Z</time></trkpt><trkpt lat="42.47361661510507" lon="14.135051170025779"><ele>162.0</ele><time>2026-05-03T12:41:45.001Z</time></trkpt><trkpt lat="42.47365982824994" lon="14.135234880367259"><ele>160.0</ele><time>2026-05-03T12:41:46.001Z</time></trkpt><trkpt lat="42.473714926231125" lon="14.135381540365778"><ele>158.0</ele><time>2026-05-03T12:41:47.002Z</time></trkpt><trkpt lat="42.473806142957656" lon="14.135504518038797"><ele>165.66666666666666</ele><time>2026-05-03T12:41:48.002Z</time></trkpt><trkpt lat="42.47394516513558" lon="14.13557582428822"><ele>173.33333333333334</ele><time>2026-05-03T12:41:49.002Z</time></trkpt><trkpt lat="42.47409738153807" lon="14.135627520526837"><ele>181.0</ele><time>2026-05-03T12:41:50.002Z</time></trkpt><trkpt lat="42.47425365742734" lon="14.135687246614983"><ele>181.5</ele><time>2026-05-03T12:41:51.002Z</time></trkpt><trkpt lat="42.47438266866339" lon="14.135777077820928"><ele>182.0</ele><time>2026-05-03T12:41:52.002Z</time></trkpt><trkpt lat="42.47449587883666" lon="14.135899276297806"><ele>182.5</ele><time>2026-05-03T12:41:53.002Z</time></trkpt><trkpt lat="42.47461796905966" lon="14.136033309843214"><ele>183.0</ele><time>2026-05-03T12:41:54.002Z</time></trkpt><trkpt lat="42.474740948536095" lon="14.136117211772236"><ele>183.0</ele><time>2026-05-03T12:41:55.002Z</time></trkpt><trkpt lat="42.47487614361696" lon="14.136159595300583"><ele>183.0</ele><time>2026-05-03T12:41:56.002Z</time></trkpt><trkpt lat="42.475012488668774" lon="14.13618300516812"><ele>183.0</ele><time>2026-05-03T12:41:57.002Z</time></trkpt><trkpt lat="42.475120082351346" lon="14.136226973222518"><ele>183.0</ele><time>2026-05-03T12:41:58.002Z</time></trkpt><trkpt lat="42.47519867303095" lon="14.136331555057335"><ele>183.0</ele><time>2026-05-03T12:41:59.002Z</time></trkpt><trkpt lat="42.47528087512754" lon="14.136448067632484"><ele>183.0</ele><time>2026-05-03T12:42:00.002Z</time></trkpt><trkpt lat="42.47534836524235" lon="14.136590399064506"><ele>183.0</ele><time>2026-05-03T12:42:01.002Z</time></trkpt><trkpt lat="42.475428312539414" lon="14.136709059460813"><ele>183.0</ele><time>2026-05-03T12:42:02.002Z</time></trkpt><trkpt lat="42.47554836577472" lon="14.136805765597957"><ele>183.0</ele><time>2026-05-03T12:42:03.002Z</time></trkpt><trkpt lat="42.47568296713344" lon="14.136896404990917"><ele>183.0</ele><time>2026-05-03T12:42:04.002Z</time></trkpt><trkpt lat="42.47582543017076" lon="14.136979256197233"><ele>183.0</ele><time>2026-05-03T12:42:05.002Z</time></trkpt><trkpt lat="42.47597121852984" lon="14.137062496116986"><ele>183.0</ele><time>2026-05-03T12:42:06.002Z</time></trkpt><trkpt lat="42.4761165642476" lon="14.137147850618874"><ele>183.0</ele><time>2026-05-03T12:42:07.002Z</time></trkpt><trkpt lat="42.47626245367114" lon="14.137235865057956"><ele>183.0</ele><time>2026-05-03T12:42:08.002Z</time></trkpt><trkpt lat="42.476400181114954" lon="14.13731616003049"><ele>182.0</ele><time>2026-05-03T12:42:09.002Z</time></trkpt><trkpt lat="42.47652691757048" lon="14.137371147314472"><ele>181.0</ele><time>2026-05-03T12:42:10.002Z</time></trkpt><trkpt lat="42.47664873761684" lon="14.13741516665776"><ele>180.0</ele><time>2026-05-03T12:42:11.002Z</time></trkpt><trkpt lat="42.4767654463557" lon="14.137435736529486"><ele>179.0</ele><time>2026-05-03T12:42:12.002Z</time></trkpt><trkpt lat="42.47688112897893" lon="14.13744979553794"><ele>179.0</ele><time>2026-05-03T12:42:13.002Z</time></trkpt><trkpt lat="42.47698945125516" lon="14.137452820679512"><ele>179.0</ele><time>2026-05-03T12:42:14.002Z</time></trkpt><trkpt lat="42.47710212052832" lon="14.13745623716415"><ele>179.0</ele><time>2026-05-03T12:42:15.002Z</time></trkpt><trkpt lat="42.47722414248936" lon="14.137458199564508"><ele>179.0</ele><time>2026-05-03T12:42:16.002Z</time></trkpt><trkpt lat="42.47736274288276" lon="14.137447809451361"><ele>179.75</ele><time>2026-05-03T12:42:17.002Z</time></trkpt><trkpt lat="42.47749466071649" lon="14.137411754090703"><ele>180.5</ele><time>2026-05-03T12:42:18.002Z</time></trkpt><trkpt lat="42.477636769527166" lon="14.137377878997095"><ele>181.25</ele><time>2026-05-03T12:42:19.002Z</time></trkpt><trkpt lat="42.47776918204586" lon="14.137321305406536"><ele>182.0</ele><time>2026-05-03T12:42:20.002Z</time></trkpt><trkpt lat="42.477897446112706" lon="14.137266359256765"><ele>178.5</ele><time>2026-05-03T12:42:21.002Z</time></trkpt><trkpt lat="42.47802004797286" lon="14.13719326828479"><ele>175.0</ele><time>2026-05-03T12:42:22.002Z</time></trkpt><trkpt lat="42.47814254526069" lon="14.137189074752074"><ele>171.5</ele><time>2026-05-03T12:42:23.002Z</time></trkpt><trkpt lat="42.478251794624775" lon="14.137193487475752"><ele>168.0</ele><time>2026-05-03T12:42:24.002Z</time></trkpt><trkpt lat="42.47836224914498" lon="14.13723328085304"><ele>168.0</ele><time>2026-05-03T12:42:25.002Z</time></trkpt><trkpt lat="42.47849486990839" lon="14.137269842349879"><ele>168.0</ele><time>2026-05-03T12:42:26.002Z</time></trkpt><trkpt lat="42.47862238221496" lon="14.137316963269207"><ele>168.0</ele><time>2026-05-03T12:42:27.002Z</time></trkpt><trkpt lat="42.478748855791316" lon="14.137318127448415"><ele>168.0</ele><time>2026-05-03T12:42:28.002Z</time></trkpt><trkpt lat="42.47887700834915" lon="14.137262025768534"><ele>167.75</ele><time>2026-05-03T12:42:29.002Z</time></trkpt><trkpt lat="42.479006486629444" lon="14.137181571274263"><ele>167.5</ele><time>2026-05-03T12:42:30.002Z</time></trkpt><trkpt lat="42.47912245595974" lon="14.137100408996936"><ele>167.25</ele><time>2026-05-03T12:42:31.002Z</time></trkpt><trkpt lat="42.47922412020537" lon="14.137005827954681"><ele>167.0</ele><time>2026-05-03T12:42:32.002Z</time></trkpt><trkpt lat="42.47931552448839" lon="14.136890225118622"><ele>167.0</ele><time>2026-05-03T12:42:33.002Z</time></trkpt><trkpt lat="42.47938964753843" lon="14.136742642051416"><ele>167.0</ele><time>2026-05-03T12:42:34.002Z</time></trkpt><trkpt lat="42.47947408604529" lon="14.136607329217128"><ele>167.0</ele><time>2026-05-03T12:42:35.002Z</time></trkpt><trkpt lat="42.47954568858807" lon="14.136482208146237"><ele>167.0</ele><time>2026-05-03T12:42:36.002Z</time></trkpt><trkpt lat="42.47963085901934" lon="14.136364585248781"><ele>166.5</ele><time>2026-05-03T12:42:37.002Z</time></trkpt><trkpt lat="42.47972199346032" lon="14.136257633994235"><ele>166.0</ele><time>2026-05-03T12:42:38.002Z</time></trkpt><trkpt lat="42.4797978921386" lon="14.13612447288008"><ele>165.5</ele><time>2026-05-03T12:42:39.002Z</time></trkpt><trkpt lat="42.479872432417984" lon="14.135993776188092"><ele>165.0</ele><time>2026-05-03T12:42:40.002Z</time></trkpt><trkpt lat="42.47992581962857" lon="14.135844868403169"><ele>163.0</ele><time>2026-05-03T12:42:41.001Z</time></trkpt><trkpt lat="42.47997428453635" lon="14.135692733564987"><ele>161.0</ele><time>2026-05-03T12:42:42.001Z</time></trkpt><trkpt lat="42.48001055783807" lon="14.135543404433227"><ele>159.0</ele><time>2026-05-03T12:42:43.001Z</time></trkpt><trkpt lat="42.48005298976733" lon="14.13539449478693"><ele>157.0</ele><time>2026-05-03T12:42:44.001Z</time></trkpt><trkpt lat="42.480110640023504" lon="14.135253337765723"><ele>157.0</ele><time>2026-05-03T12:42:45.001Z</time></trkpt><trkpt lat="42.48018721625723" lon="14.135132560826074"><ele>157.0</ele><time>2026-05-03T12:42:46.001Z</time></trkpt><trkpt lat="42.48028585801121" lon="14.135023647062932"><ele>157.0</ele><time>2026-05-03T12:42:47.001Z</time></trkpt><trkpt lat="42.48040052753188" lon="14.134925052465695"><ele>157.0</ele><time>2026-05-03T12:42:48.001Z</time></trkpt><trkpt lat="42.48050472086701" lon="14.134844916220313"><ele>157.2</ele><time>2026-05-03T12:42:49.001Z</time></trkpt><trkpt lat="42.48059794068982" lon="14.134791676255707"><ele>157.39999999999998</ele><time>2026-05-03T12:42:50.001Z</time></trkpt><trkpt lat="42.480693596286635" lon="14.134777012860452"><ele>157.60000000000002</ele><time>2026-05-03T12:42:51.001Z</time></trkpt><trkpt lat="42.48079577278925" lon="14.134805300818721"><ele>157.8</ele><time>2026-05-03T12:42:52.001Z</time></trkpt><trkpt lat="42.48090206635424" lon="14.134902568576196"><ele>158.0</ele><time>2026-05-03T12:42:53.001Z</time></trkpt><trkpt lat="42.48100441372449" lon="14.135021312143884"><ele>158.0</ele><time>2026-05-03T12:42:54.001Z</time></trkpt><trkpt lat="42.48108223195676" lon="14.13517053143278"><ele>158.0</ele><time>2026-05-03T12:42:55.001Z</time></trkpt><trkpt lat="42.4811532586431" lon="14.135326414364162"><ele>158.0</ele><time>2026-05-03T12:42:56.001Z</time></trkpt><trkpt lat="42.481193628375316" lon="14.135492108399754"><ele>158.0</ele><time>2026-05-03T12:42:57.001Z</time></trkpt><trkpt lat="42.481240340024456" lon="14.135653154067004"><ele>155.25</ele><time>2026-05-03T12:42:58.001Z</time></trkpt><trkpt lat="42.48129402917845" lon="14.13581262543373"><ele>152.5</ele><time>2026-05-03T12:42:59.001Z</time></trkpt><trkpt lat="42.481351331704815" lon="14.135970908750425"><ele>149.75</ele><time>2026-05-03T12:43:00.001Z</time></trkpt><trkpt lat="42.481404810579036" lon="14.136130424942492"><ele>147.0</ele><time>2026-05-03T12:43:01.001Z</time></trkpt><trkpt lat="42.48145830026828" lon="14.136278456211857"><ele>147.0</ele><time>2026-05-03T12:43:02.001Z</time></trkpt><trkpt lat="42.481513940798955" lon="14.136409825407878"><ele>147.0</ele><time>2026-05-03T12:43:03.001Z</time></trkpt><trkpt lat="42.481586123564476" lon="14.136510154186707"><ele>147.0</ele><time>2026-05-03T12:43:04.001Z</time></trkpt><trkpt lat="42.48168298273399" lon="14.1365793448478"><ele>147.0</ele><time>2026-05-03T12:43:05.001Z</time></trkpt><trkpt lat="42.48180112199273" lon="14.13658497099132"><ele>147.0</ele><time>2026-05-03T12:43:06.001Z</time></trkpt><trkpt lat="42.48192564324377" lon="14.136557108605405"><ele>147.0</ele><time>2026-05-03T12:43:07.001Z</time></trkpt><trkpt lat="42.48202153832006" lon="14.136435646169499"><ele>147.0</ele><time>2026-05-03T12:43:08.001Z</time></trkpt><trkpt lat="42.482097870929174" lon="14.136298889400743"><ele>147.0</ele><time>2026-05-03T12:43:09.001Z</time></trkpt><trkpt lat="42.48214398564678" lon="14.136116402499686"><ele>147.0</ele><time>2026-05-03T12:43:10.001Z</time></trkpt><trkpt lat="42.48217860147399" lon="14.135929709326017"><ele>145.75</ele><time>2026-05-03T12:43:11.001Z</time></trkpt><trkpt lat="42.48223109931921" lon="14.135750301092333"><ele>144.5</ele><time>2026-05-03T12:43:12.001Z</time></trkpt><trkpt lat="42.48226997068597" lon="14.135569226763245"><ele>143.25</ele><time>2026-05-03T12:43:13.001Z</time></trkpt><trkpt lat="42.48231060128625" lon="14.135379955824323"><ele>142.0</ele><time>2026-05-03T12:43:14.001Z</time></trkpt><trkpt lat="42.48234973781479" lon="14.135194735204298"><ele>141.0</ele><time>2026-05-03T12:43:15.001Z</time></trkpt><trkpt lat="42.482390833279865" lon="14.135001063161381"><ele>140.0</ele><time>2026-05-03T12:43:16.001Z</time></trkpt><trkpt lat="42.48243491451195" lon="14.13479952559865"><ele>139.0</ele><time>2026-05-03T12:43:17.001Z</time></trkpt><trkpt lat="42.48247753181924" lon="14.134603269460266"><ele>138.5</ele><time>2026-05-03T12:43:18.001Z</time></trkpt><trkpt lat="42.482519257619735" lon="14.134408889146858"><ele>138.0</ele><time>2026-05-03T12:43:19.001Z</time></trkpt><trkpt lat="42.48255993362569" lon="14.13421991933855"><ele>137.5</ele><time>2026-05-03T12:43:20.001Z</time></trkpt><trkpt lat="42.48259855580966" lon="14.134036673764417"><ele>137.0</ele><time>2026-05-03T12:43:21.001Z</time></trkpt><trkpt lat="42.48263184578343" lon="14.133874648552519"><ele>136.0</ele><time>2026-05-03T12:43:22.001Z</time></trkpt><trkpt lat="42.48266855887817" lon="14.13372156649976"><ele>135.0</ele><time>2026-05-03T12:43:23.001Z</time></trkpt><trkpt lat="42.48271320872665" lon="14.133568062156769"><ele>134.0</ele><time>2026-05-03T12:43:24.001Z</time></trkpt><trkpt lat="42.48276466240035" lon="14.133435846780545"><ele>133.0</ele><time>2026-05-03T12:43:25.001Z</time></trkpt><trkpt lat="42.48283122228673" lon="14.133334200610975"><ele>133.0</ele><time>2026-05-03T12:43:26.001Z</time></trkpt><trkpt lat="42.48291789539153" lon="14.13325796687016"><ele>133.0</ele><time>2026-05-03T12:43:27.001Z</time></trkpt><trkpt lat="42.483027639310976" lon="14.133205492853309"><ele>133.0</ele><time>2026-05-03T12:43:28.001Z</time></trkpt><trkpt lat="42.483143557011786" lon="14.133149690749892"><ele>133.0</ele><time>2026-05-03T12:43:29.001Z</time></trkpt><trkpt lat="42.48325769476165" lon="14.133095490635943"><ele>132.0</ele><time>2026-05-03T12:43:30.001Z</time></trkpt><trkpt lat="42.48337261468971" lon="14.133038349427647"><ele>131.0</ele><time>2026-05-03T12:43:31.001Z</time></trkpt><trkpt lat="42.483498836046984" lon="14.132975588853109"><ele>130.0</ele><time>2026-05-03T12:43:32.001Z</time></trkpt><trkpt lat="42.48362720185248" lon="14.132911761981338"><ele>129.0</ele><time>2026-05-03T12:43:33.001Z</time></trkpt><trkpt lat="42.48376052099761" lon="14.132846470247886"><ele>128.0</ele><time>2026-05-03T12:43:34.001Z</time></trkpt><trkpt lat="42.48389334007131" lon="14.132781503180428"><ele>127.0</ele><time>2026-05-03T12:43:35.001Z</time></trkpt><trkpt lat="42.48402092184367" lon="14.132719167665396"><ele>126.0</ele><time>2026-05-03T12:43:36.001Z</time></trkpt><trkpt lat="42.484145727679625" lon="14.132642859353975"><ele>125.0</ele><time>2026-05-03T12:43:37.001Z</time></trkpt><trkpt lat="42.484279293917716" lon="14.132596072690305"><ele>125.0</ele><time>2026-05-03T12:43:38.001Z</time></trkpt><trkpt lat="42.48440999303316" lon="14.13253495715654"><ele>125.0</ele><time>2026-05-03T12:43:39.001Z</time></trkpt><trkpt lat="42.48454012511828" lon="14.132473837327113"><ele>125.0</ele><time>2026-05-03T12:43:40.001Z</time></trkpt><trkpt lat="42.48466492902562" lon="14.13241561741156"><ele>125.0</ele><time>2026-05-03T12:43:41.001Z</time></trkpt><trkpt lat="42.48478664698334" lon="14.132361318038894"><ele>123.5</ele><time>2026-05-03T12:43:42.001Z</time></trkpt><trkpt lat="42.48490178476429" lon="14.132295809702295"><ele>122.0</ele><time>2026-05-03T12:43:43.001Z</time></trkpt><trkpt lat="42.485012307247466" lon="14.13228172515412"><ele>120.5</ele><time>2026-05-03T12:43:44.001Z</time></trkpt><trkpt lat="42.485136310682854" lon="14.132305170807381"><ele>119.0</ele><time>2026-05-03T12:43:45.001Z</time></trkpt><trkpt lat="42.48525624977226" lon="14.132362973085154"><ele>119.25</ele><time>2026-05-03T12:43:46.001Z</time></trkpt><trkpt lat="42.48537449203766" lon="14.132452245482169"><ele>119.5</ele><time>2026-05-03T12:43:47.001Z</time></trkpt><trkpt lat="42.48547905931709" lon="14.132580105502871"><ele>119.75</ele><time>2026-05-03T12:43:48.001Z</time></trkpt><trkpt lat="42.48558280556114" lon="14.13271799416121"><ele>120.0</ele><time>2026-05-03T12:43:49.001Z</time></trkpt><trkpt lat="42.48569375119086" lon="14.132858787407255"><ele>119.33333333333334</ele><time>2026-05-03T12:43:50.001Z</time></trkpt><trkpt lat="42.48581392314314" lon="14.132998043858992"><ele>118.66666666666667</ele><time>2026-05-03T12:43:51.001Z</time></trkpt><trkpt lat="42.48593003605843" lon="14.133131538430316"><ele>118.0</ele><time>2026-05-03T12:43:52.001Z</time></trkpt><trkpt lat="42.48603655892151" lon="14.133257010616445"><ele>117.75</ele><time>2026-05-03T12:43:53.001Z</time></trkpt><trkpt lat="42.486137683206465" lon="14.133380822055447"><ele>117.5</ele><time>2026-05-03T12:43:54.001Z</time></trkpt><trkpt lat="42.48623827713651" lon="14.133499600250246"><ele>117.25</ele><time>2026-05-03T12:43:55.001Z</time></trkpt><trkpt lat="42.48633362365932" lon="14.133613061525576"><ele>117.0</ele><time>2026-05-03T12:43:56.001Z</time></trkpt><trkpt lat="42.486426321297664" lon="14.1337223545337"><ele>117.0</ele><time>2026-05-03T12:43:57.001Z</time></trkpt><trkpt lat="42.486513700652395" lon="14.133831939606948"><ele>117.0</ele><time>2026-05-03T12:43:58.001Z</time></trkpt><trkpt lat="42.486585613255535" lon="14.133951653727388"><ele>117.0</ele><time>2026-05-03T12:43:59.001Z</time></trkpt><trkpt lat="42.48664201254846" lon="14.134102509886517"><ele>117.0</ele><time>2026-05-03T12:44:00.001Z</time></trkpt><trkpt lat="42.4866811943595" lon="14.13426622532374"><ele>117.0</ele><time>2026-05-03T12:44:01.001Z</time></trkpt><trkpt lat="42.486700097536996" lon="14.134438345041893"><ele>117.0</ele><time>2026-05-03T12:44:02.001Z</time></trkpt><trkpt lat="42.48673137179561" lon="14.134635563079156"><ele>117.0</ele><time>2026-05-03T12:44:03.001Z</time></trkpt><trkpt lat="42.48676603828382" lon="14.134837391175125"><ele>117.0</ele><time>2026-05-03T12:44:04.001Z</time></trkpt><trkpt lat="42.486802173831684" lon="14.135039447932574"><ele>117.0</ele><time>2026-05-03T12:44:05.001Z</time></trkpt><trkpt lat="42.48684243327139" lon="14.135245960118883"><ele>117.0</ele><time>2026-05-03T12:44:06.001Z</time></trkpt><trkpt lat="42.4868802880255" lon="14.135450795901475"><ele>117.0</ele><time>2026-05-03T12:44:07.001Z</time></trkpt><trkpt lat="42.48692126130118" lon="14.13565419493812"><ele>116.66666666666666</ele><time>2026-05-03T12:44:08.001Z</time></trkpt><trkpt lat="42.48697370547234" lon="14.135857030262295"><ele>116.33333333333333</ele><time>2026-05-03T12:44:09.001Z</time></trkpt><trkpt lat="42.48703655152026" lon="14.136055570155035"><ele>116.0</ele><time>2026-05-03T12:44:10.001Z</time></trkpt><trkpt lat="42.48711341843486" lon="14.13625059425394"><ele>116.75</ele><time>2026-05-03T12:44:11.001Z</time></trkpt><trkpt lat="42.487191206728866" lon="14.136433816135048"><ele>117.5</ele><time>2026-05-03T12:44:12.001Z</time></trkpt><trkpt lat="42.4872614352767" lon="14.13660678130271"><ele>118.25</ele><time>2026-05-03T12:44:13.001Z</time></trkpt><trkpt lat="42.48732019394275" lon="14.13676580449269"><ele>119.0</ele><time>2026-05-03T12:44:14.001Z</time></trkpt><trkpt lat="42.48737543304514" lon="14.136926667768035"><ele>120.25</ele><time>2026-05-03T12:44:15.001Z</time></trkpt><trkpt lat="42.487423833139786" lon="14.137073871611898"><ele>121.5</ele><time>2026-05-03T12:44:16.001Z</time></trkpt><trkpt lat="42.48747089296866" lon="14.137215789589527"><ele>122.75</ele><time>2026-05-03T12:44:17.001Z</time></trkpt><trkpt lat="42.487516425154375" lon="14.13735664637197"><ele>124.0</ele><time>2026-05-03T12:44:18.001Z</time></trkpt><trkpt lat="42.48756183820931" lon="14.137509875651725"><ele>124.0</ele><time>2026-05-03T12:44:19.001Z</time></trkpt><trkpt lat="42.487604957798865" lon="14.137681863248494"><ele>124.0</ele><time>2026-05-03T12:44:20.001Z</time></trkpt><trkpt lat="42.487638758380584" lon="14.137851651726503"><ele>124.0</ele><time>2026-05-03T12:44:21.001Z</time></trkpt><trkpt lat="42.487637609157005" lon="14.138036497032253"><ele>124.0</ele><time>2026-05-03T12:44:22.001Z</time></trkpt><trkpt lat="42.487620585313316" lon="14.138213322532035"><ele>124.25</ele><time>2026-05-03T12:44:23.001Z</time></trkpt><trkpt lat="42.48760844541684" lon="14.138368286333234"><ele>124.5</ele><time>2026-05-03T12:44:24.001Z</time></trkpt><trkpt lat="42.487612767456646" lon="14.138525566178409"><ele>124.75</ele><time>2026-05-03T12:44:25.001Z</time></trkpt><trkpt lat="42.48764653401704" lon="14.138691428528402"><ele>125.0</ele><time>2026-05-03T12:44:26.002Z</time></trkpt><trkpt lat="42.48769955508639" lon="14.138852434971685"><ele>125.0</ele><time>2026-05-03T12:44:27.002Z</time></trkpt><trkpt lat="42.487778740690814" lon="14.138995988559731"><ele>125.0</ele><time>2026-05-03T12:44:28.002Z</time></trkpt><trkpt lat="42.48786677946748" lon="14.139125898342245"><ele>125.0</ele><time>2026-05-03T12:44:29.002Z</time></trkpt><trkpt lat="42.48796668830092" lon="14.139240278855766"><ele>125.0</ele><time>2026-05-03T12:44:30.002Z</time></trkpt><trkpt lat="42.48808808701994" lon="14.139312807909066"><ele>127.25</ele><time>2026-05-03T12:44:31.002Z</time></trkpt><trkpt lat="42.48822402470711" lon="14.139346710635504"><ele>129.5</ele><time>2026-05-03T12:44:32.002Z</time></trkpt><trkpt lat="42.48836224246971" lon="14.13936185199639"><ele>131.75</ele><time>2026-05-03T12:44:33.002Z</time></trkpt><trkpt lat="42.48849707283346" lon="14.139367899486587"><ele>134.0</ele><time>2026-05-03T12:44:34.002Z</time></trkpt><trkpt lat="42.48861346801129" lon="14.13936381109458"><ele>134.0</ele><time>2026-05-03T12:44:35.002Z</time></trkpt><trkpt lat="42.48873071502081" lon="14.139374512286508"><ele>134.0</ele><time>2026-05-03T12:44:36.002Z</time></trkpt><trkpt lat="42.488838921949174" lon="14.139383950825296"><ele>134.0</ele><time>2026-05-03T12:44:37.002Z</time></trkpt><trkpt lat="42.48892956505173" lon="14.139404991302964"><ele>134.0</ele><time>2026-05-03T12:44:38.002Z</time></trkpt><trkpt lat="42.489001786646064" lon="14.139442782890994"><ele>134.0</ele><time>2026-05-03T12:44:39.002Z</time></trkpt><trkpt lat="42.48906694165462" lon="14.139502852972937"><ele>134.6</ele><time>2026-05-03T12:44:40.002Z</time></trkpt><trkpt lat="42.48912448089268" lon="14.139563238700829"><ele>135.2</ele><time>2026-05-03T12:44:41.002Z</time></trkpt><trkpt lat="42.48923713760462" lon="14.139636616630385"><ele>135.79999999999998</ele><time>2026-05-03T12:44:43.002Z</time></trkpt><trkpt lat="42.4893492080493" lon="14.139598614659054"><ele>136.4</ele><time>2026-05-03T12:44:45.002Z</time></trkpt><trkpt lat="42.489401963072865" lon="14.139527476337022"><ele>137.0</ele><time>2026-05-03T12:44:46.002Z</time></trkpt><trkpt lat="42.48945391406833" lon="14.139471894668764"><ele>137.0</ele><time>2026-05-03T12:44:47.001Z</time></trkpt><trkpt lat="42.48952411213747" lon="14.139437680280869"><ele>137.0</ele><time>2026-05-03T12:44:48.001Z</time></trkpt><trkpt lat="42.48960756654081" lon="14.139428293310322"><ele>137.0</ele><time>2026-05-03T12:44:49.001Z</time></trkpt><trkpt lat="42.48968997845502" lon="14.139434211075084"><ele>137.0</ele><time>2026-05-03T12:44:50.001Z</time></trkpt><trkpt lat="42.489775443217155" lon="14.139446538651153"><ele>137.0</ele><time>2026-05-03T12:44:51.001Z</time></trkpt><trkpt lat="42.48987992097976" lon="14.139456436304274"><ele>137.0</ele><time>2026-05-03T12:44:52.001Z</time></trkpt><trkpt lat="42.48997686247781" lon="14.139463994700069"><ele>138.0</ele><time>2026-05-03T12:44:53.001Z</time></trkpt><trkpt lat="42.490092592722334" lon="14.139468870583796"><ele>139.0</ele><time>2026-05-03T12:44:54.001Z</time></trkpt><trkpt lat="42.490210578638404" lon="14.139471387103786"><ele>140.0</ele><time>2026-05-03T12:44:55.001Z</time></trkpt><trkpt lat="42.4903269289067" lon="14.139480656293825"><ele>141.0</ele><time>2026-05-03T12:44:56.001Z</time></trkpt><trkpt lat="42.490428435078215" lon="14.139483391716851"><ele>142.66666666666666</ele><time>2026-05-03T12:44:57Z</time></trkpt><trkpt lat="42.490519330817726" lon="14.139490515641276"><ele>144.33333333333334</ele><time>2026-05-03T12:44:58Z</time></trkpt><trkpt lat="42.49061834449418" lon="14.139495159040019"><ele>146.0</ele><time>2026-05-03T12:44:59Z</time></trkpt><trkpt lat="42.49070639037105" lon="14.139507417993286"><ele>147.66666666666669</ele><time>2026-05-03T12:45:00Z</time></trkpt><trkpt lat="42.49079192886235" lon="14.139538334335047"><ele>149.33333333333334</ele><time>2026-05-03T12:45:01Z</time></trkpt><trkpt lat="42.490848837430136" lon="14.139617789564136"><ele>151.0</ele><time>2026-05-03T12:45:02Z</time></trkpt><trkpt lat="42.49087682855613" lon="14.139727997256024"><ele>151.0</ele><time>2026-05-03T12:45:03Z</time></trkpt><trkpt lat="42.49087505226101" lon="14.139859054309229"><ele>151.0</ele><time>2026-05-03T12:45:04Z</time></trkpt><trkpt lat="42.490871477341685" lon="14.140009254760106"><ele>151.0</ele><time>2026-05-03T12:45:05Z</time></trkpt><trkpt lat="42.49086782725576" lon="14.14016058656862"><ele>151.0</ele><time>2026-05-03T12:45:06Z</time></trkpt><trkpt lat="42.49086335442566" lon="14.140298395601198"><ele>151.0</ele><time>2026-05-03T12:45:07Z</time></trkpt><trkpt lat="42.49086052028087" lon="14.140428824133746"><ele>151.8</ele><time>2026-05-03T12:45:08Z</time></trkpt><trkpt lat="42.490859424812164" lon="14.140561445350087"><ele>152.6</ele><time>2026-05-03T12:45:09Z</time></trkpt><trkpt lat="42.49086524768349" lon="14.140693658313312"><ele>153.4</ele><time>2026-05-03T12:45:10Z</time></trkpt><trkpt lat="42.49088637225962" lon="14.140804384482351"><ele>154.2</ele><time>2026-05-03T12:45:11.001Z</time></trkpt><trkpt lat="42.49093881383043" lon="14.140881288717496"><ele>155.0</ele><time>2026-05-03T12:45:12.001Z</time></trkpt><trkpt lat="42.49109821656124" lon="14.140870478598236"><ele>155.0</ele><time>2026-05-03T12:45:14.001Z</time></trkpt><trkpt lat="42.49115972210639" lon="14.14078599898342"><ele>155.0</ele><time>2026-05-03T12:45:15.001Z</time></trkpt><trkpt lat="42.49120732970477" lon="14.140696931888073"><ele>155.0</ele><time>2026-05-03T12:45:16.001Z</time></trkpt><trkpt lat="42.49124901779291" lon="14.140608140363888"><ele>155.0</ele><time>2026-05-03T12:45:17.001Z</time></trkpt><trkpt lat="42.491296897331196" lon="14.140516548416455"><ele>155.0</ele><time>2026-05-03T12:45:18.001Z</time></trkpt><trkpt lat="42.491357131621115" lon="14.140453333425045"><ele>155.0</ele><time>2026-05-03T12:45:19.001Z</time></trkpt><trkpt lat="42.491400697526075" lon="14.140386110291976"><ele>156.2</ele><time>2026-05-03T12:45:20.001Z</time></trkpt><trkpt lat="42.49147868059719" lon="14.14029276261495"><ele>157.4</ele><time>2026-05-03T12:45:22.001Z</time></trkpt><trkpt lat="42.49155113827415" lon="14.140356763225757"><ele>158.60000000000002</ele><time>2026-05-03T12:45:23.001Z</time></trkpt><trkpt lat="42.491599545703984" lon="14.140450347003"><ele>159.8</ele><time>2026-05-03T12:45:24.001Z</time></trkpt><trkpt lat="42.49163650350982" lon="14.140572280834924"><ele>161.0</ele><time>2026-05-03T12:45:25.001Z</time></trkpt><trkpt lat="42.491663273193" lon="14.140710175063097"><ele>161.0</ele><time>2026-05-03T12:45:26.001Z</time></trkpt><trkpt lat="42.49168947330857" lon="14.140835050711779"><ele>161.0</ele><time>2026-05-03T12:45:27.001Z</time></trkpt><trkpt lat="42.49171822843413" lon="14.140956647052265"><ele>161.0</ele><time>2026-05-03T12:45:28.001Z</time></trkpt><trkpt lat="42.491753588670825" lon="14.141084790572352"><ele>161.0</ele><time>2026-05-03T12:45:29.001Z</time></trkpt><trkpt lat="42.49177535052818" lon="14.141210229990453"><ele>161.0</ele><time>2026-05-03T12:45:30.001Z</time></trkpt><trkpt lat="42.49177887775758" lon="14.14133141410063"><ele>161.0</ele><time>2026-05-03T12:45:31.001Z</time></trkpt><trkpt lat="42.4917789588939" lon="14.14145404554793"><ele>161.0</ele><time>2026-05-03T12:45:32.001Z</time></trkpt><trkpt lat="42.49176355888066" lon="14.141569762142142"><ele>161.0</ele><time>2026-05-03T12:45:33.001Z</time></trkpt><trkpt lat="42.49173165668697" lon="14.141699801094502"><ele>161.0</ele><time>2026-05-03T12:45:34.001Z</time></trkpt><trkpt lat="42.49167869569647" lon="14.141828589023923"><ele>161.0</ele><time>2026-05-03T12:45:35.001Z</time></trkpt><trkpt lat="42.49161993319653" lon="14.141953988638619"><ele>161.0</ele><time>2026-05-03T12:45:36.001Z</time></trkpt><trkpt lat="42.4915902516314" lon="14.142089926348477"><ele>161.0</ele><time>2026-05-03T12:45:37.001Z</time></trkpt><trkpt lat="42.49155518347291" lon="14.142204540484052"><ele>161.0</ele><time>2026-05-03T12:45:38.001Z</time></trkpt><trkpt lat="42.491574564734215" lon="14.142339252899383"><ele>161.0</ele><time>2026-05-03T12:45:39.001Z</time></trkpt><trkpt lat="42.491639928935065" lon="14.14245664842443"><ele>161.0</ele><time>2026-05-03T12:45:40.001Z</time></trkpt><trkpt lat="42.49171742989815" lon="14.142559658230734"><ele>160.20000000000002</ele><time>2026-05-03T12:45:41.001Z</time></trkpt><trkpt lat="42.49177515539104" lon="14.142670466773218"><ele>159.4</ele><time>2026-05-03T12:45:42.001Z</time></trkpt><trkpt lat="42.491816773291376" lon="14.14279109394644"><ele>158.6</ele><time>2026-05-03T12:45:43.001Z</time></trkpt><trkpt lat="42.491805459857325" lon="14.142920843311952"><ele>157.8</ele><time>2026-05-03T12:45:44.001Z</time></trkpt><trkpt lat="42.491749506355106" lon="14.143044860551216"><ele>157.0</ele><time>2026-05-03T12:45:45.001Z</time></trkpt><trkpt lat="42.49166093612312" lon="14.143128284020761"><ele>157.0</ele><time>2026-05-03T12:45:46.001Z</time></trkpt><trkpt lat="42.49158645669512" lon="14.143201030574572"><ele>157.0</ele><time>2026-05-03T12:45:47.001Z</time></trkpt><trkpt lat="42.491539103223005" lon="14.143326296529711"><ele>157.0</ele><time>2026-05-03T12:45:48.001Z</time></trkpt><trkpt lat="42.49152190782487" lon="14.143466221059601"><ele>157.0</ele><time>2026-05-03T12:45:49.001Z</time></trkpt><trkpt lat="42.49154889381951" lon="14.143615189284324"><ele>157.0</ele><time>2026-05-03T12:45:50.001Z</time></trkpt><trkpt lat="42.49161769326495" lon="14.143767403578549"><ele>157.0</ele><time>2026-05-03T12:45:51.001Z</time></trkpt><trkpt lat="42.49168089662231" lon="14.143914695399419"><ele>157.0</ele><time>2026-05-03T12:45:52.001Z</time></trkpt><trkpt lat="42.491764630548246" lon="14.144041755690864"><ele>157.0</ele><time>2026-05-03T12:45:53.001Z</time></trkpt><trkpt lat="42.4918542769954" lon="14.144145434058395"><ele>157.0</ele><time>2026-05-03T12:45:54.001Z</time></trkpt><trkpt lat="42.49196004521408" lon="14.14421117706027"><ele>157.0</ele><time>2026-05-03T12:45:55.001Z</time></trkpt><trkpt lat="42.492082787959525" lon="14.144263803383941"><ele>157.0</ele><time>2026-05-03T12:45:56.001Z</time></trkpt><trkpt lat="42.49220060116663" lon="14.144311331805115"><ele>157.0</ele><time>2026-05-03T12:45:57.001Z</time></trkpt><trkpt lat="42.492318500990024" lon="14.144365493545259"><ele>157.0</ele><time>2026-05-03T12:45:58.001Z</time></trkpt><trkpt lat="42.4924543598145" lon="14.144427467163517"><ele>150.75</ele><time>2026-05-03T12:45:59.001Z</time></trkpt><trkpt lat="42.49257507582492" lon="14.144492945180158"><ele>144.5</ele><time>2026-05-03T12:46:00.001Z</time></trkpt><trkpt lat="42.49270102730368" lon="14.144563746654411"><ele>138.25</ele><time>2026-05-03T12:46:01.001Z</time></trkpt><trkpt lat="42.49282891051045" lon="14.14462270058253"><ele>132.0</ele><time>2026-05-03T12:46:02.001Z</time></trkpt><trkpt lat="42.49293277483542" lon="14.144738412354224"><ele>133.25</ele><time>2026-05-03T12:46:03.001Z</time></trkpt><trkpt lat="42.49302267728172" lon="14.144853372677447"><ele>134.5</ele><time>2026-05-03T12:46:04.001Z</time></trkpt><trkpt lat="42.493097013016246" lon="14.145013277629616"><ele>135.75</ele><time>2026-05-03T12:46:05.001Z</time></trkpt><trkpt lat="42.493191084974" lon="14.145150310531678"><ele>137.0</ele><time>2026-05-03T12:46:06.001Z</time></trkpt><trkpt lat="42.49329712148375" lon="14.145263233919382"><ele>137.0</ele><time>2026-05-03T12:46:07.001Z</time></trkpt><trkpt lat="42.493408065349776" lon="14.145323842033946"><ele>137.0</ele><time>2026-05-03T12:46:08.001Z</time></trkpt><trkpt lat="42.49350776801773" lon="14.145351639630054"><ele>137.0</ele><time>2026-05-03T12:46:09.001Z</time></trkpt><trkpt lat="42.493616146672075" lon="14.145339982185352"><ele>137.0</ele><time>2026-05-03T12:46:10.001Z</time></trkpt><trkpt lat="42.493727284959945" lon="14.145274991237745"><ele>135.5</ele><time>2026-05-03T12:46:11.001Z</time></trkpt><trkpt lat="42.49383140593286" lon="14.145170466132273"><ele>134.0</ele><time>2026-05-03T12:46:12.001Z</time></trkpt><trkpt lat="42.49389708224038" lon="14.145015088039095"><ele>132.5</ele><time>2026-05-03T12:46:13.001Z</time></trkpt><trkpt lat="42.493953074955506" lon="14.14485386793427"><ele>131.0</ele><time>2026-05-03T12:46:14.001Z</time></trkpt><trkpt lat="42.49399337382377" lon="14.144713665160744"><ele>127.75</ele><time>2026-05-03T12:46:15.001Z</time></trkpt><trkpt lat="42.494048190727675" lon="14.144500341592662"><ele>124.5</ele><time>2026-05-03T12:46:16.001Z</time></trkpt><trkpt lat="42.49407187712615" lon="14.144322699201034"><ele>121.25</ele><time>2026-05-03T12:46:17.001Z</time></trkpt><trkpt lat="42.49410891911287" lon="14.144168485257445"><ele>118.0</ele><time>2026-05-03T12:46:18.001Z</time></trkpt><trkpt lat="42.49417536020617" lon="14.144051744469792"><ele>115.2</ele><time>2026-05-03T12:46:19.001Z</time></trkpt><trkpt lat="42.4942659298799" lon="14.143986396857626"><ele>112.4</ele><time>2026-05-03T12:46:20.001Z</time></trkpt><trkpt lat="42.49435737299716" lon="14.143925928893834"><ele>109.60000000000001</ele><time>2026-05-03T12:46:21.001Z</time></trkpt><trkpt lat="42.49445667219914" lon="14.143872040661943"><ele>106.80000000000001</ele><time>2026-05-03T12:46:22.001Z</time></trkpt><trkpt lat="42.494566931125775" lon="14.143850580407019"><ele>104.0</ele><time>2026-05-03T12:46:23.001Z</time></trkpt><trkpt lat="42.49468111325781" lon="14.143844848496071"><ele>104.0</ele><time>2026-05-03T12:46:24.001Z</time></trkpt><trkpt lat="42.49479943400651" lon="14.14385089766784"><ele>104.0</ele><time>2026-05-03T12:46:25.001Z</time></trkpt><trkpt lat="42.49491908320363" lon="14.143856996793458"><ele>104.0</ele><time>2026-05-03T12:46:26.001Z</time></trkpt><trkpt lat="42.495059046176365" lon="14.14381660630943"><ele>104.0</ele><time>2026-05-03T12:46:27.001Z</time></trkpt><trkpt lat="42.49517680160265" lon="14.143783734593198"><ele>104.0</ele><time>2026-05-03T12:46:28.001Z</time></trkpt><trkpt lat="42.49530269553997" lon="14.143765549670741"><ele>104.0</ele><time>2026-05-03T12:46:29.001Z</time></trkpt><trkpt lat="42.495419960388304" lon="14.143722424239277"><ele>104.0</ele><time>2026-05-03T12:46:30.001Z</time></trkpt><trkpt lat="42.49553163570709" lon="14.14366016764661"><ele>104.0</ele><time>2026-05-03T12:46:31.001Z</time></trkpt><trkpt lat="42.4956598832033" lon="14.143589804274614"><ele>103.5</ele><time>2026-05-03T12:46:32.001Z</time></trkpt><trkpt lat="42.495784877606035" lon="14.143481372515653"><ele>103.0</ele><time>2026-05-03T12:46:33.001Z</time></trkpt><trkpt lat="42.49591012378283" lon="14.14338526360808"><ele>102.5</ele><time>2026-05-03T12:46:34.001Z</time></trkpt><trkpt lat="42.496029674604" lon="14.143269637719499"><ele>102.0</ele><time>2026-05-03T12:46:35.001Z</time></trkpt><trkpt lat="42.49615021792286" lon="14.143163800541856"><ele>101.5</ele><time>2026-05-03T12:46:36.001Z</time></trkpt><trkpt lat="42.49626789899669" lon="14.143065100876344"><ele>101.0</ele><time>2026-05-03T12:46:37.001Z</time></trkpt><trkpt lat="42.496385341361055" lon="14.142969635289674"><ele>100.5</ele><time>2026-05-03T12:46:38.001Z</time></trkpt><trkpt lat="42.49650790238803" lon="14.142868186424534"><ele>100.0</ele><time>2026-05-03T12:46:39.001Z</time></trkpt><trkpt lat="42.49662234395888" lon="14.14275004618569"><ele>100.0</ele><time>2026-05-03T12:46:40.001Z</time></trkpt><trkpt lat="42.49675104074199" lon="14.14266594683528"><ele>100.0</ele><time>2026-05-03T12:46:41.001Z</time></trkpt><trkpt lat="42.49687346212565" lon="14.142563488846502"><ele>100.0</ele><time>2026-05-03T12:46:42.001Z</time></trkpt><trkpt lat="42.49699366804118" lon="14.14244826952208"><ele>100.0</ele><time>2026-05-03T12:46:43.001Z</time></trkpt><trkpt lat="42.497097064719746" lon="14.142329156650588"><ele>97.0</ele><time>2026-05-03T12:46:44.001Z</time></trkpt><trkpt lat="42.49719871414611" lon="14.142208923143555"><ele>94.0</ele><time>2026-05-03T12:46:45.001Z</time></trkpt><trkpt lat="42.497276555665884" lon="14.142117635366876"><ele>91.0</ele><time>2026-05-03T12:46:46.001Z</time></trkpt><trkpt lat="42.49735066165107" lon="14.142036875256862"><ele>88.0</ele><time>2026-05-03T12:46:47.001Z</time></trkpt><trkpt lat="42.497416044515" lon="14.141972134320747"><ele>85.0</ele><time>2026-05-03T12:46:48.002Z</time></trkpt><trkpt lat="42.49747586545683" lon="14.141944773933167"><ele>85.0</ele><time>2026-05-03T12:46:49.002Z</time></trkpt><trkpt lat="42.49755030279716" lon="14.14196031628288"><ele>85.0</ele><time>2026-05-03T12:46:50.002Z</time></trkpt><trkpt lat="42.497611746208165" lon="14.142062130148265"><ele>85.0</ele><time>2026-05-03T12:46:51.002Z</time></trkpt><trkpt lat="42.49763423314657" lon="14.14215691473493"><ele>85.0</ele><time>2026-05-03T12:46:52.002Z</time></trkpt><trkpt lat="42.49755794224025" lon="14.142324087151028"><ele>85.0</ele><time>2026-05-03T12:46:53Z</time></trkpt><trkpt lat="42.49748312401973" lon="14.14244276058585"><ele>85.25</ele><time>2026-05-03T12:46:54Z</time></trkpt><trkpt lat="42.49739879498478" lon="14.142574959865161"><ele>85.5</ele><time>2026-05-03T12:46:55Z</time></trkpt><trkpt lat="42.497306252378955" lon="14.142723341727278"><ele>85.75</ele><time>2026-05-03T12:46:56Z</time></trkpt><trkpt lat="42.49721671761278" lon="14.142867735737148"><ele>86.0</ele><time>2026-05-03T12:46:57Z</time></trkpt><trkpt lat="42.49713441177264" lon="14.143008590954988"><ele>88.5</ele><time>2026-05-03T12:46:58Z</time></trkpt><trkpt lat="42.49705367550524" lon="14.143138675361085"><ele>91.0</ele><time>2026-05-03T12:46:59Z</time></trkpt><trkpt lat="42.4969847971681" lon="14.143271032183105"><ele>93.5</ele><time>2026-05-03T12:47:00Z</time></trkpt><trkpt lat="42.49691827194368" lon="14.143427904446801"><ele>96.0</ele><time>2026-05-03T12:47:01Z</time></trkpt><trkpt lat="42.4968292602646" lon="14.143545865331811"><ele>96.0</ele><time>2026-05-03T12:47:02Z</time></trkpt><trkpt lat="42.49676187206012" lon="14.14366690275118"><ele>96.0</ele><time>2026-05-03T12:47:03Z</time></trkpt><trkpt lat="42.496685349419906" lon="14.143780257032539"><ele>96.0</ele><time>2026-05-03T12:47:04Z</time></trkpt><trkpt lat="42.496605647211034" lon="14.14388916972286"><ele>96.0</ele><time>2026-05-03T12:47:05Z</time></trkpt><trkpt lat="42.49652621220488" lon="14.14398812595295"><ele>96.0</ele><time>2026-05-03T12:47:06Z</time></trkpt><trkpt lat="42.49645582514206" lon="14.144094385583198"><ele>92.5</ele><time>2026-05-03T12:47:07Z</time></trkpt><trkpt lat="42.49639977472476" lon="14.144221809852963"><ele>89.0</ele><time>2026-05-03T12:47:08Z</time></trkpt><trkpt lat="42.49637536682937" lon="14.144368360072217"><ele>85.5</ele><time>2026-05-03T12:47:09Z</time></trkpt><trkpt lat="42.49638064596697" lon="14.144531687495867"><ele>82.0</ele><time>2026-05-03T12:47:10Z</time></trkpt><trkpt lat="42.49639210628324" lon="14.144702335234332"><ele>82.0</ele><time>2026-05-03T12:47:11Z</time></trkpt><trkpt lat="42.49640912754115" lon="14.144862774819822"><ele>82.0</ele><time>2026-05-03T12:47:12Z</time></trkpt><trkpt lat="42.49639690880454" lon="14.145013691679397"><ele>82.0</ele><time>2026-05-03T12:47:13Z</time></trkpt><trkpt lat="42.496348073004825" lon="14.145145994996815"><ele>82.0</ele><time>2026-05-03T12:47:14Z</time></trkpt><trkpt lat="42.49627393883732" lon="14.145272505398955"><ele>82.0</ele><time>2026-05-03T12:47:15Z</time></trkpt><trkpt lat="42.49618901036672" lon="14.145399133910985"><ele>82.0</ele><time>2026-05-03T12:47:16Z</time></trkpt><trkpt lat="42.49614012647043" lon="14.145524078835848"><ele>82.0</ele><time>2026-05-03T12:47:17Z</time></trkpt><trkpt lat="42.49612222794179" lon="14.145667332928403"><ele>82.0</ele><time>2026-05-03T12:47:18Z</time></trkpt><trkpt lat="42.496146635008444" lon="14.145803849847585"><ele>82.0</ele><time>2026-05-03T12:47:19Z</time></trkpt><trkpt lat="42.49620794109948" lon="14.145919987088257"><ele>79.5</ele><time>2026-05-03T12:47:20Z</time></trkpt><trkpt lat="42.49630714022449" lon="14.146005040211122"><ele>77.0</ele><time>2026-05-03T12:47:21Z</time></trkpt><trkpt lat="42.496436238388306" lon="14.146075037621674"><ele>74.5</ele><time>2026-05-03T12:47:22Z</time></trkpt><trkpt lat="42.49653582621859" lon="14.146030750105398"><ele>72.0</ele><time>2026-05-03T12:47:23Z</time></trkpt><trkpt lat="42.49663821693804" lon="14.145925048045203"><ele>72.0</ele><time>2026-05-03T12:47:24Z</time></trkpt><trkpt lat="42.496698081989486" lon="14.145774406433759"><ele>72.0</ele><time>2026-05-03T12:47:25Z</time></trkpt><trkpt lat="42.49670927170882" lon="14.145594370286066"><ele>72.0</ele><time>2026-05-03T12:47:26Z</time></trkpt><trkpt lat="42.49671358125668" lon="14.145418796048899"><ele>72.0</ele><time>2026-05-03T12:47:27Z</time></trkpt><trkpt lat="42.49672425915177" lon="14.145254012158674"><ele>71.5</ele><time>2026-05-03T12:47:28Z</time></trkpt><trkpt lat="42.49678088833016" lon="14.145104304979029"><ele>71.0</ele><time>2026-05-03T12:47:29Z</time></trkpt><trkpt lat="42.49684407109114" lon="14.144953667480175"><ele>70.5</ele><time>2026-05-03T12:47:30Z</time></trkpt><trkpt lat="42.49691970265709" lon="14.144818532430536"><ele>70.0</ele><time>2026-05-03T12:47:31Z</time></trkpt><trkpt lat="42.4970021154185" lon="14.144710237787926"><ele>67.5</ele><time>2026-05-03T12:47:32Z</time></trkpt><trkpt lat="42.49709420518829" lon="14.144622986107846"><ele>65.0</ele><time>2026-05-03T12:47:33Z</time></trkpt><trkpt lat="42.4971938397977" lon="14.144552807268397"><ele>62.5</ele><time>2026-05-03T12:47:34Z</time></trkpt><trkpt lat="42.49730537679537" lon="14.144486765011537"><ele>60.0</ele><time>2026-05-03T12:47:35Z</time></trkpt><trkpt lat="42.49742260670451" lon="14.14440811707069"><ele>60.0</ele><time>2026-05-03T12:47:36Z</time></trkpt><trkpt lat="42.497518095080935" lon="14.144294987793792"><ele>60.0</ele><time>2026-05-03T12:47:37Z</time></trkpt><trkpt lat="42.497616914275596" lon="14.144192519668723"><ele>60.0</ele><time>2026-05-03T12:47:38Z</time></trkpt><trkpt lat="42.49770727797962" lon="14.144070122982285"><ele>60.0</ele><time>2026-05-03T12:47:39Z</time></trkpt><trkpt lat="42.49780291280762" lon="14.143962642128155"><ele>57.75</ele><time>2026-05-03T12:47:40Z</time></trkpt><trkpt lat="42.49789191954056" lon="14.14383823004923"><ele>55.5</ele><time>2026-05-03T12:47:41Z</time></trkpt><trkpt lat="42.4979793592144" lon="14.14371602149988"><ele>53.25</ele><time>2026-05-03T12:47:42Z</time></trkpt><trkpt lat="42.49806595040614" lon="14.14359025871473"><ele>51.0</ele><time>2026-05-03T12:47:43Z</time></trkpt><trkpt lat="42.49815045816521" lon="14.143461187277659"><ele>51.0</ele><time>2026-05-03T12:47:44Z</time></trkpt><trkpt lat="42.49823076458626" lon="14.143332564654267"><ele>51.0</ele><time>2026-05-03T12:47:45Z</time></trkpt><trkpt lat="42.49831042073311" lon="14.143200444464933"><ele>51.0</ele><time>2026-05-03T12:47:46Z</time></trkpt><trkpt lat="42.498381159541495" lon="14.143078234690266"><ele>51.0</ele><time>2026-05-03T12:47:47Z</time></trkpt><trkpt lat="42.49844216610013" lon="14.142971684043548"><ele>53.166666666666664</ele><time>2026-05-03T12:47:48Z</time></trkpt><trkpt lat="42.49849232011711" lon="14.142885885754184"><ele>55.33333333333333</ele><time>2026-05-03T12:47:49.001Z</time></trkpt><trkpt lat="42.4985203672365" lon="14.142807642633812"><ele>57.5</ele><time>2026-05-03T12:47:50.001Z</time></trkpt><trkpt lat="42.49858919715004" lon="14.142731922154786"><ele>59.666666666666664</ele><time>2026-05-03T12:47:52.001Z</time></trkpt><trkpt lat="42.49865161596088" lon="14.14271244934582"><ele>61.83333333333333</ele><time>2026-05-03T12:48:13.001Z</time></trkpt><trkpt lat="42.49871445022381" lon="14.142649586077793"><ele>64.0</ele><time>2026-05-03T12:48:23.001Z</time></trkpt><trkpt lat="42.49874938559241" lon="14.142551236657408"><ele>59.800000000000004</ele><time>2026-05-03T12:48:24.001Z</time></trkpt><trkpt lat="42.498770815294826" lon="14.14242825423717"><ele>55.60000000000001</ele><time>2026-05-03T12:48:25.001Z</time></trkpt><trkpt lat="42.49879472756851" lon="14.142291459921093"><ele>51.4</ele><time>2026-05-03T12:48:26.001Z</time></trkpt><trkpt lat="42.49882928290051" lon="14.142148108439544"><ele>47.2</ele><time>2026-05-03T12:48:27.001Z</time></trkpt><trkpt lat="42.498893053217564" lon="14.142000974368777"><ele>43.0</ele><time>2026-05-03T12:48:28.001Z</time></trkpt><trkpt lat="42.498962196171625" lon="14.141845671307166"><ele>43.0</ele><time>2026-05-03T12:48:29.001Z</time></trkpt><trkpt lat="42.499054982804736" lon="14.14169185888545"><ele>43.0</ele><time>2026-05-03T12:48:30.001Z</time></trkpt><trkpt lat="42.499146991263345" lon="14.141542873121107"><ele>43.0</ele><time>2026-05-03T12:48:31.001Z</time></trkpt><trkpt lat="42.49924919174877" lon="14.141395847836192"><ele>43.0</ele><time>2026-05-03T12:48:32.001Z</time></trkpt><trkpt lat="42.49936402696367" lon="14.14124636644262"><ele>46.0</ele><time>2026-05-03T12:48:33.001Z</time></trkpt><trkpt lat="42.49948417585132" lon="14.141111679445325"><ele>49.0</ele><time>2026-05-03T12:48:34.001Z</time></trkpt><trkpt lat="42.49960506427792" lon="14.140991763896704"><ele>52.0</ele><time>2026-05-03T12:48:35.001Z</time></trkpt><trkpt lat="42.49971628757884" lon="14.140855741718156"><ele>47.666666666666664</ele><time>2026-05-03T12:48:36.001Z</time></trkpt><trkpt lat="42.499835246146525" lon="14.140738952299243"><ele>43.33333333333333</ele><time>2026-05-03T12:48:37.001Z</time></trkpt><trkpt lat="42.499941445592434" lon="14.14059324111434"><ele>39.0</ele><time>2026-05-03T12:48:38.001Z</time></trkpt><trkpt lat="42.500059322054504" lon="14.140436648306187"><ele>39.0</ele><time>2026-05-03T12:48:39.001Z</time></trkpt><trkpt lat="42.500170195065266" lon="14.14026665472797"><ele>39.0</ele><time>2026-05-03T12:48:40.001Z</time></trkpt><trkpt lat="42.50027329587276" lon="14.140108266295604"><ele>39.0</ele><time>2026-05-03T12:48:41.001Z</time></trkpt><trkpt lat="42.50037273569618" lon="14.139954214103522"><ele>35.75</ele><time>2026-05-03T12:48:42.001Z</time></trkpt><trkpt lat="42.500464608694166" lon="14.139805495181639"><ele>32.5</ele><time>2026-05-03T12:48:43.001Z</time></trkpt><trkpt lat="42.50055073611881" lon="14.139663943573026"><ele>29.25</ele><time>2026-05-03T12:48:44.001Z</time></trkpt><trkpt lat="42.50062823196402" lon="14.139531485719825"><ele>26.0</ele><time>2026-05-03T12:48:45.001Z</time></trkpt><trkpt lat="42.50070506262103" lon="14.13939127758989"><ele>26.0</ele><time>2026-05-03T12:48:46.001Z</time></trkpt><trkpt lat="42.50076754408333" lon="14.139232096649248"><ele>26.0</ele><time>2026-05-03T12:48:47.001Z</time></trkpt><trkpt lat="42.50084344625535" lon="14.13908645182858"><ele>26.0</ele><time>2026-05-03T12:48:48.001Z</time></trkpt><trkpt lat="42.50090953118356" lon="14.13894627437203"><ele>26.0</ele><time>2026-05-03T12:48:49.001Z</time></trkpt><trkpt lat="42.50097119032732" lon="14.138819508035793"><ele>25.0</ele><time>2026-05-03T12:48:50.001Z</time></trkpt><trkpt lat="42.50102988384646" lon="14.13869919648033"><ele>24.0</ele><time>2026-05-03T12:48:51.001Z</time></trkpt><trkpt lat="42.50108153515846" lon="14.138592810677041"><ele>23.0</ele><time>2026-05-03T12:48:52.001Z</time></trkpt><trkpt lat="42.501129314168566" lon="14.1384926581139"><ele>22.0</ele><time>2026-05-03T12:48:53.001Z</time></trkpt><trkpt lat="42.501177608064886" lon="14.138374301351753"><ele>21.0</ele><time>2026-05-03T12:48:54.001Z</time></trkpt><trkpt lat="42.501221219898326" lon="14.138220838662036"><ele>19.75</ele><time>2026-05-03T12:48:55.001Z</time></trkpt><trkpt lat="42.50125625254476" lon="14.138060885001288"><ele>18.5</ele><time>2026-05-03T12:48:56.001Z</time></trkpt><trkpt lat="42.50128638392245" lon="14.137910295468943"><ele>17.25</ele><time>2026-05-03T12:48:57.001Z</time></trkpt><trkpt lat="42.50131854637781" lon="14.137765696531702"><ele>16.0</ele><time>2026-05-03T12:48:58.001Z</time></trkpt><trkpt lat="42.50137033050506" lon="14.137633279279218"><ele>15.999999999999998</ele><time>2026-05-03T12:48:59Z</time></trkpt><trkpt lat="42.50139909507509" lon="14.137522837545191"><ele>16.0</ele><time>2026-05-03T12:49:00Z</time></trkpt><trkpt lat="42.50142124419382" lon="14.137437795856407"><ele>16.0</ele><time>2026-05-03T12:49:01Z</time></trkpt><trkpt lat="42.50144501695178" lon="14.137298194795282"><ele>16.0</ele><time>2026-05-03T12:49:03Z</time></trkpt><trkpt lat="42.501519529690455" lon="14.137259196630897"><ele>15.999999999999998</ele><time>2026-05-03T12:49:05Z</time></trkpt><trkpt lat="42.50154917453642" lon="14.137338958716779"><ele>16.0</ele><time>2026-05-03T12:49:06Z</time></trkpt><trkpt lat="42.50161498587266" lon="14.137354173719865"><ele>16.0</ele><time>2026-05-03T12:49:08Z</time></trkpt><trkpt lat="42.501679177665736" lon="14.137375989275979"><ele>16.0</ele><time>2026-05-03T12:49:10Z</time></trkpt><trkpt lat="42.50176432500457" lon="14.137388699651108"><ele>16.0</ele><time>2026-05-03T12:49:13Z</time></trkpt><trkpt lat="42.50181926483641" lon="14.137441585436365"><ele>16.0</ele><time>2026-05-03T12:49:15Z</time></trkpt><trkpt lat="42.50172586190394" lon="14.137237721636858"><ele>16.0</ele><time>2026-05-03T12:49:19Z</time></trkpt><trkpt lat="42.50172636629067" lon="14.137127043043002"><ele>15.666666666666666</ele><time>2026-05-03T12:49:21Z</time></trkpt><trkpt lat="42.50170388152725" lon="14.137043140538337"><ele>15.333333333333332</ele><time>2026-05-03T12:49:22Z</time></trkpt><trkpt lat="42.5016782337259" lon="14.136960959705258"><ele>15.0</ele><time>2026-05-03T12:49:23Z</time></trkpt><trkpt lat="42.501644941906655" lon="14.136887383531958"><ele>14.666666666666668</ele><time>2026-05-03T12:49:24Z</time></trkpt><trkpt lat="42.5015970414654" lon="14.13672465768892"><ele>14.333333333333334</ele><time>2026-05-03T12:49:26Z</time></trkpt><trkpt lat="42.50160424131627" lon="14.136614542363866"><ele>14.0</ele><time>2026-05-03T12:49:27Z</time></trkpt><trkpt lat="42.50163369964306" lon="14.136496470049654"><ele>14.0</ele><time>2026-05-03T12:49:28Z</time></trkpt><trkpt lat="42.50169434921411" lon="14.13638272989736"><ele>14.0</ele><time>2026-05-03T12:49:29Z</time></trkpt><trkpt lat="42.50173305472852" lon="14.136233609907936"><ele>14.0</ele><time>2026-05-03T12:49:30Z</time></trkpt><trkpt lat="42.50177630484471" lon="14.136067364237359"><ele>14.0</ele><time>2026-05-03T12:49:31Z</time></trkpt><trkpt lat="42.501817570873634" lon="14.135908744969237"><ele>14.0</ele><time>2026-05-03T12:49:32Z</time></trkpt><trkpt lat="42.50185681865437" lon="14.135760631774293"><ele>13.999999999999998</ele><time>2026-05-03T12:49:33Z</time></trkpt><trkpt lat="42.50189439493764" lon="14.135618276311813"><ele>13.999999999999998</ele><time>2026-05-03T12:49:34Z</time></trkpt><trkpt lat="42.5019310242829" lon="14.135478979054094"><ele>14.0</ele><time>2026-05-03T12:49:35Z</time></trkpt><trkpt lat="42.50196675652025" lon="14.135343213470628"><ele>14.0</ele><time>2026-05-03T12:49:36Z</time></trkpt><trkpt lat="42.501998712603445" lon="14.135221795457769"><ele>14.0</ele><time>2026-05-03T12:49:37Z</time></trkpt><trkpt lat="42.502022874413676" lon="14.13512999202332"><ele>13.999999999999998</ele><time>2026-05-03T12:49:38Z</time></trkpt><trkpt lat="42.50204508536425" lon="14.135045600917215"><ele>13.999999999999998</ele><time>2026-05-03T12:49:39Z</time></trkpt><trkpt lat="42.50206816062867" lon="14.134905320462353"><ele>14.0</ele><time>2026-05-03T12:49:41Z</time></trkpt><trkpt lat="42.50212799141203" lon="14.13480792698448"><ele>14.0</ele><time>2026-05-03T12:49:43Z</time></trkpt><trkpt lat="42.50223660434655" lon="14.134730400437697"><ele>14.0</ele><time>2026-05-03T12:49:45Z</time></trkpt><trkpt lat="42.502316759934125" lon="14.134711577704048"><ele>14.0</ele><time>2026-05-03T12:49:46Z</time></trkpt><trkpt lat="42.5023975353667" lon="14.13471919258713"><ele>14.0</ele><time>2026-05-03T12:49:47Z</time></trkpt><trkpt lat="42.502465950934344" lon="14.134756499302878"><ele>14.0</ele><time>2026-05-03T12:49:48Z</time></trkpt><trkpt lat="42.50253125533529" lon="14.134782099590176"><ele>14.0</ele><time>2026-05-03T12:49:49Z</time></trkpt><trkpt lat="42.502581370160634" lon="14.134860839234484"><ele>14.0</ele><time>2026-05-03T12:49:50Z</time></trkpt><trkpt lat="42.50263194275668" lon="14.134917699554046"><ele>14.0</ele><time>2026-05-03T12:49:51Z</time></trkpt><trkpt lat="42.50268248925002" lon="14.13497343387412"><ele>14.000000000000002</ele><time>2026-05-03T12:49:52Z</time></trkpt><trkpt lat="42.502732789249436" lon="14.13502510333752"><ele>14.0</ele><time>2026-05-03T12:49:53Z</time></trkpt><trkpt lat="42.50281356206469" lon="14.135128527354475"><ele>14.0</ele><time>2026-05-03T12:49:55Z</time></trkpt><trkpt lat="42.5029077005886" lon="14.135226631830568"><ele>14.0</ele><time>2026-05-03T12:49:57.001Z</time></trkpt><trkpt lat="42.502958464771005" lon="14.135285425581527"><ele>14.000000000000002</ele><time>2026-05-03T12:49:58.001Z</time></trkpt><trkpt lat="42.5030109074118" lon="14.135338450346875"><ele>14.0</ele><time>2026-05-03T12:49:59.001Z</time></trkpt><trkpt lat="42.503105069479766" lon="14.135419705924647"><ele>14.000000000000002</ele><time>2026-05-03T12:50:01.001Z</time></trkpt><trkpt lat="42.50316049927378" lon="14.13546867006334"><ele>14.0</ele><time>2026-05-03T12:50:02.001Z</time></trkpt><trkpt lat="42.50321767562067" lon="14.13552422546301"><ele>14.0</ele><time>2026-05-03T12:50:03.001Z</time></trkpt><trkpt lat="42.50327406356982" lon="14.135583942531511"><ele>14.0</ele><time>2026-05-03T12:50:04.001Z</time></trkpt><trkpt lat="42.50335183156286" lon="14.135686225203672"><ele>14.000000000000002</ele><time>2026-05-03T12:50:06.001Z</time></trkpt><trkpt lat="42.50345123770907" lon="14.135790459696057"><ele>14.0</ele><time>2026-05-03T12:50:08.001Z</time></trkpt><trkpt lat="42.50352174244781" lon="14.135863964913744"><ele>14.000000000000002</ele><time>2026-05-03T12:50:10.001Z</time></trkpt><trkpt lat="42.50359679661667" lon="14.135992529922598"><ele>14.0</ele><time>2026-05-03T12:50:12.001Z</time></trkpt><trkpt lat="42.503641639154715" lon="14.13605611384894"><ele>14.0</ele><time>2026-05-03T12:50:13.001Z</time></trkpt><trkpt lat="42.50367710304798" lon="14.136133060501356"><ele>14.0</ele><time>2026-05-03T12:50:15.001Z</time></trkpt><trkpt lat="42.50365499988946" lon="14.136007989933127"><ele>14.000000000000002</ele><time>2026-05-03T12:50:22.001Z</time></trkpt><trkpt lat="42.50371490066823" lon="14.135955039515105"><ele>14.0</ele><time>2026-05-03T12:50:23.001Z</time></trkpt><trkpt lat="42.503542777379074" lon="14.135812351302047"><ele>14.0</ele><time>2026-05-03T12:50:24.001Z</time></trkpt><trkpt lat="42.50346204064351" lon="14.135734848747108"><ele>13.999999999999998</ele><time>2026-05-03T12:50:25.001Z</time></trkpt><trkpt lat="42.50337364499975" lon="14.135641329168738"><ele>13.999999999999998</ele><time>2026-05-03T12:50:26.001Z</time></trkpt><trkpt lat="42.503298403600745" lon="14.135559718440819"><ele>14.0</ele><time>2026-05-03T12:50:27.001Z</time></trkpt><trkpt lat="42.50322261237781" lon="14.135489359308966"><ele>14.0</ele><time>2026-05-03T12:50:28.001Z</time></trkpt><trkpt lat="42.503162011963916" lon="14.135429771846859"><ele>13.799999999999999</ele><time>2026-05-03T12:50:29.001Z</time></trkpt><trkpt lat="42.50308729929801" lon="14.13531626093567"><ele>13.599999999999998</ele><time>2026-05-03T12:50:31.001Z</time></trkpt><trkpt lat="42.503089689395786" lon="14.135218836813012"><ele>13.4</ele><time>2026-05-03T12:50:32.001Z</time></trkpt><trkpt lat="42.503111531546864" lon="14.13511292642528"><ele>13.2</ele><time>2026-05-03T12:50:33.001Z</time></trkpt><trkpt lat="42.50314354327081" lon="14.134992859241885"><ele>13.0</ele><time>2026-05-03T12:50:34.001Z</time></trkpt><trkpt lat="42.503189276715425" lon="14.134855285844518"><ele>13.0</ele><time>2026-05-03T12:50:35.001Z</time></trkpt><trkpt lat="42.50323036353769" lon="14.13472549957248"><ele>13.0</ele><time>2026-05-03T12:50:36.001Z</time></trkpt><trkpt lat="42.503276156544175" lon="14.134584492975923"><ele>13.0</ele><time>2026-05-03T12:50:37.001Z</time></trkpt><trkpt lat="42.50331400209662" lon="14.134443230567816"><ele>13.0</ele><time>2026-05-03T12:50:38.001Z</time></trkpt><trkpt lat="42.50334563669527" lon="14.134314128533456"><ele>13.0</ele><time>2026-05-03T12:50:39.001Z</time></trkpt><trkpt lat="42.50337981298043" lon="14.134179828804301"><ele>13.0</ele><time>2026-05-03T12:50:40.001Z</time></trkpt><trkpt lat="42.503414118143134" lon="14.134028821598177"><ele>13.0</ele><time>2026-05-03T12:50:41.001Z</time></trkpt><trkpt lat="42.50344955488578" lon="14.133895004088794"><ele>13.0</ele><time>2026-05-03T12:50:42.001Z</time></trkpt><trkpt lat="42.50349071558877" lon="14.133786897947736"><ele>13.0</ele><time>2026-05-03T12:50:43.001Z</time></trkpt><trkpt lat="42.50355078001057" lon="14.133688872400967"><ele>13.0</ele><time>2026-05-03T12:50:44.001Z</time></trkpt><trkpt lat="42.50363094894348" lon="14.133590971626095"><ele>13.0</ele><time>2026-05-03T12:50:45.001Z</time></trkpt><trkpt lat="42.50373474175094" lon="14.13348910515619"><ele>13.0</ele><time>2026-05-03T12:50:46.001Z</time></trkpt><trkpt lat="42.50385054937131" lon="14.13339283744071"><ele>13.0</ele><time>2026-05-03T12:50:47.001Z</time></trkpt><trkpt lat="42.503961788153624" lon="14.133290445961535"><ele>13.0</ele><time>2026-05-03T12:50:48.001Z</time></trkpt><trkpt lat="42.50407321731504" lon="14.133185548403407"><ele>13.0</ele><time>2026-05-03T12:50:49.001Z</time></trkpt><trkpt lat="42.50418038668954" lon="14.133110503619024"><ele>13.0</ele><time>2026-05-03T12:50:50.001Z</time></trkpt><trkpt lat="42.504269367205275" lon="14.1330002657959"><ele>13.0</ele><time>2026-05-03T12:50:51.001Z</time></trkpt><trkpt lat="42.50436860661979" lon="14.132911117082335"><ele>13.0</ele><time>2026-05-03T12:50:52.001Z</time></trkpt><trkpt lat="42.504478903813265" lon="14.132811532004219"><ele>12.0</ele><time>2026-05-03T12:50:53.001Z</time></trkpt><trkpt lat="42.504590231280545" lon="14.132707581092042"><ele>11.0</ele><time>2026-05-03T12:50:54.001Z</time></trkpt><trkpt lat="42.50469727979366" lon="14.13260979208302"><ele>10.0</ele><time>2026-05-03T12:50:55.001Z</time></trkpt><trkpt lat="42.50479748681392" lon="14.132522314309496"><ele>9.0</ele><time>2026-05-03T12:50:56.001Z</time></trkpt><trkpt lat="42.504893013762214" lon="14.132435298463575"><ele>9.0</ele><time>2026-05-03T12:50:57.001Z</time></trkpt><trkpt lat="42.504984113287975" lon="14.132345809655313"><ele>9.0</ele><time>2026-05-03T12:50:58.001Z</time></trkpt><trkpt lat="42.50507598126554" lon="14.132257159091838"><ele>9.0</ele><time>2026-05-03T12:50:59.001Z</time></trkpt><trkpt lat="42.50516468495776" lon="14.132175768812466"><ele>9.0</ele><time>2026-05-03T12:51:00.001Z</time></trkpt><trkpt lat="42.50525010629713" lon="14.132096545390002"><ele>9.0</ele><time>2026-05-03T12:51:01.001Z</time></trkpt><trkpt lat="42.50534230932682" lon="14.13203683567938"><ele>9.0</ele><time>2026-05-03T12:51:02.001Z</time></trkpt><trkpt lat="42.50541013000758" lon="14.131946868127102"><ele>9.0</ele><time>2026-05-03T12:51:03.001Z</time></trkpt><trkpt lat="42.5054873952965" lon="14.131877253211787"><ele>9.0</ele><time>2026-05-03T12:51:04.001Z</time></trkpt><trkpt lat="42.50556693262891" lon="14.1318034937359"><ele>9.0</ele><time>2026-05-03T12:51:05Z</time></trkpt><trkpt lat="42.50565287985522" lon="14.131725661677393"><ele>9.0</ele><time>2026-05-03T12:51:06Z</time></trkpt><trkpt lat="42.50573495935658" lon="14.131652056048038"><ele>9.0</ele><time>2026-05-03T12:51:07Z</time></trkpt><trkpt lat="42.50580919722963" lon="14.131578559260598"><ele>9.0</ele><time>2026-05-03T12:51:08Z</time></trkpt><trkpt lat="42.50588396677659" lon="14.131511512372166"><ele>9.0</ele><time>2026-05-03T12:51:09Z</time></trkpt><trkpt lat="42.50596112607208" lon="14.131443212754466"><ele>9.0</ele><time>2026-05-03T12:51:10Z</time></trkpt><trkpt lat="42.50603542548366" lon="14.131375680499074"><ele>9.0</ele><time>2026-05-03T12:51:11Z</time></trkpt><trkpt lat="42.506109457317365" lon="14.131306302790172"><ele>9.0</ele><time>2026-05-03T12:51:12Z</time></trkpt><trkpt lat="42.50618270878587" lon="14.131239114412566"><ele>9.0</ele><time>2026-05-03T12:51:13Z</time></trkpt><trkpt lat="42.506261311516354" lon="14.131176369932025"><ele>9.0</ele><time>2026-05-03T12:51:14Z</time></trkpt><trkpt lat="42.5063365679894" lon="14.13112613974485"><ele>9.0</ele><time>2026-05-03T12:51:15Z</time></trkpt><trkpt lat="42.50641018952662" lon="14.131074703548439"><ele>9.0</ele><time>2026-05-03T12:51:16Z</time></trkpt><trkpt lat="42.50649028717926" lon="14.131032240345004"><ele>9.0</ele><time>2026-05-03T12:51:17Z</time></trkpt><trkpt lat="42.50658279356625" lon="14.130984036188188"><ele>9.0</ele><time>2026-05-03T12:51:18Z</time></trkpt><trkpt lat="42.50667482844325" lon="14.13092433394977"><ele>9.0</ele><time>2026-05-03T12:51:19Z</time></trkpt><trkpt lat="42.506764445669646" lon="14.130869949668963"><ele>9.0</ele><time>2026-05-03T12:51:20Z</time></trkpt><trkpt lat="42.50685811124975" lon="14.13083149411522"><ele>9.0</ele><time>2026-05-03T12:51:21Z</time></trkpt><trkpt lat="42.50696542290637" lon="14.130815638377271"><ele>9.0</ele><time>2026-05-03T12:51:22Z</time></trkpt><trkpt lat="42.50707200382213" lon="14.130777310904788"><ele>9.4</ele><time>2026-05-03T12:51:23Z</time></trkpt><trkpt lat="42.50718226740257" lon="14.130740982982445"><ele>9.8</ele><time>2026-05-03T12:51:24Z</time></trkpt><trkpt lat="42.50728322105285" lon="14.13070918216592"><ele>10.200000000000001</ele><time>2026-05-03T12:51:25Z</time></trkpt><trkpt lat="42.507377575190766" lon="14.130661219961397"><ele>10.600000000000001</ele><time>2026-05-03T12:51:26Z</time></trkpt><trkpt lat="42.50747520053432" lon="14.13063140324485"><ele>11.0</ele><time>2026-05-03T12:51:27Z</time></trkpt><trkpt lat="42.50757993444118" lon="14.130596670554015"><ele>11.25</ele><time>2026-05-03T12:51:28Z</time></trkpt><trkpt lat="42.507683199568994" lon="14.130546525490226"><ele>11.5</ele><time>2026-05-03T12:51:29Z</time></trkpt><trkpt lat="42.50778799424059" lon="14.130506134126795"><ele>11.75</ele><time>2026-05-03T12:51:30Z</time></trkpt><trkpt lat="42.50788293255891" lon="14.130417219114399"><ele>12.0</ele><time>2026-05-03T12:51:31Z</time></trkpt><trkpt lat="42.507984170796966" lon="14.130337117024913"><ele>12.0</ele><time>2026-05-03T12:51:32Z</time></trkpt><trkpt lat="42.50807737183002" lon="14.130262725117882"><ele>12.0</ele><time>2026-05-03T12:51:33Z</time></trkpt><trkpt lat="42.50816636696035" lon="14.130194672183654"><ele>12.0</ele><time>2026-05-03T12:51:34Z</time></trkpt><trkpt lat="42.50824956640832" lon="14.130122765042307"><ele>12.0</ele><time>2026-05-03T12:51:35Z</time></trkpt><trkpt lat="42.50833042527846" lon="14.13005760013403"><ele>12.0</ele><time>2026-05-03T12:51:36Z</time></trkpt><trkpt lat="42.508411610511125" lon="14.129988611489372"><ele>12.0</ele><time>2026-05-03T12:51:37Z</time></trkpt><trkpt lat="42.50847959938493" lon="14.129927178009957"><ele>12.0</ele><time>2026-05-03T12:51:38Z</time></trkpt><trkpt lat="42.50854933162013" lon="14.129862248797329"><ele>12.0</ele><time>2026-05-03T12:51:39Z</time></trkpt><trkpt lat="42.508612885269315" lon="14.129799804728016"><ele>12.0</ele><time>2026-05-03T12:51:40Z</time></trkpt><trkpt lat="42.5086763273454" lon="14.129751063827175"><ele>12.0</ele><time>2026-05-03T12:51:41Z</time></trkpt><trkpt lat="42.50874507518844" lon="14.129724190449792"><ele>12.0</ele><time>2026-05-03T12:51:42Z</time></trkpt><trkpt lat="42.50882489888708" lon="14.129728536809653"><ele>11.0</ele><time>2026-05-03T12:51:43Z</time></trkpt><trkpt lat="42.50891350942306" lon="14.129753312078405"><ele>10.0</ele><time>2026-05-03T12:51:44Z</time></trkpt><trkpt lat="42.50900584990097" lon="14.129769154125825"><ele>9.0</ele><time>2026-05-03T12:51:45Z</time></trkpt><trkpt lat="42.50909623947842" lon="14.129890245333922"><ele>8.0</ele><time>2026-05-03T12:51:46Z</time></trkpt><trkpt lat="42.50918456734054" lon="14.130008994607348"><ele>7.0</ele><time>2026-05-03T12:51:47Z</time></trkpt><trkpt lat="42.50928621351557" lon="14.130160293023527"><ele>7.0</ele><time>2026-05-03T12:51:48Z</time></trkpt><trkpt lat="42.50940196122095" lon="14.130332196405991"><ele>7.0</ele><time>2026-05-03T12:51:49Z</time></trkpt><trkpt lat="42.50952292129592" lon="14.130505879550023"><ele>7.0</ele><time>2026-05-03T12:51:50Z</time></trkpt><trkpt lat="42.5096499492302" lon="14.130687742698353"><ele>6.333333333333334</ele><time>2026-05-03T12:51:51Z</time></trkpt><trkpt lat="42.50978117747343" lon="14.130882079904817"><ele>5.666666666666667</ele><time>2026-05-03T12:51:52Z</time></trkpt><trkpt lat="42.50991620969557" lon="14.131089962884234"><ele>5.0</ele><time>2026-05-03T12:51:53Z</time></trkpt><trkpt lat="42.51004910924018" lon="14.131299978980769"><ele>5.0</ele><time>2026-05-03T12:51:54Z</time></trkpt><trkpt lat="42.51018059018584" lon="14.131522734138086"><ele>5.0</ele><time>2026-05-03T12:51:55Z</time></trkpt><trkpt lat="42.51031210204511" lon="14.131764161869116"><ele>5.0</ele><time>2026-05-03T12:51:56Z</time></trkpt><trkpt lat="42.510445185406375" lon="14.132018728489232"><ele>4.5</ele><time>2026-05-03T12:51:57Z</time></trkpt><trkpt lat="42.51057938937491" lon="14.132277373374839"><ele>4.0</ele><time>2026-05-03T12:51:58Z</time></trkpt><trkpt lat="42.51071019236549" lon="14.132529514493058"><ele>4.666666666666666</ele><time>2026-05-03T12:51:59Z</time></trkpt><trkpt lat="42.510840286033336" lon="14.132770512636574"><ele>5.333333333333333</ele><time>2026-05-03T12:52:00Z</time></trkpt><trkpt lat="42.5109643092444" lon="14.132990605159923"><ele>6.0</ele><time>2026-05-03T12:52:01Z</time></trkpt><trkpt lat="42.5110897152118" lon="14.133193383726383"><ele>6.333333333333334</ele><time>2026-05-03T12:52:02Z</time></trkpt><trkpt lat="42.511203794719044" lon="14.133388655088506"><ele>6.666666666666667</ele><time>2026-05-03T12:52:03Z</time></trkpt><trkpt lat="42.51130961484717" lon="14.133583502793629"><ele>7.0</ele><time>2026-05-03T12:52:04Z</time></trkpt><trkpt lat="42.51140284457548" lon="14.133770354583705"><ele>6.333333333333334</ele><time>2026-05-03T12:52:05Z</time></trkpt><trkpt lat="42.51149014001527" lon="14.133961242516662"><ele>5.666666666666667</ele><time>2026-05-03T12:52:06Z</time></trkpt><trkpt lat="42.511581928018686" lon="14.134147667596407"><ele>5.0</ele><time>2026-05-03T12:52:07Z</time></trkpt><trkpt lat="42.511688542006965" lon="14.134316848306764"><ele>5.0</ele><time>2026-05-03T12:52:08.001Z</time></trkpt><trkpt lat="42.51182158256871" lon="14.13446427188777"><ele>5.0</ele><time>2026-05-03T12:52:09.001Z</time></trkpt><trkpt lat="42.51197402337133" lon="14.134582995378347"><ele>5.0</ele><time>2026-05-03T12:52:10.001Z</time></trkpt><trkpt lat="42.51213746955863" lon="14.134686154884475"><ele>4.333333333333334</ele><time>2026-05-03T12:52:11.001Z</time></trkpt><trkpt lat="42.51230499332272" lon="14.134789029950912"><ele>3.666666666666667</ele><time>2026-05-03T12:52:12.001Z</time></trkpt><trkpt lat="42.51247181589786" lon="14.134898113714097"><ele>3.0</ele><time>2026-05-03T12:52:13.001Z</time></trkpt><trkpt lat="42.51263132548896" lon="14.1350165475454"><ele>3.0</ele><time>2026-05-03T12:52:14.001Z</time></trkpt><trkpt lat="42.512777847825056" lon="14.135139138739815"><ele>3.0</ele><time>2026-05-03T12:52:15.001Z</time></trkpt><trkpt lat="42.512904511959924" lon="14.135271933296535"><ele>3.0</ele><time>2026-05-03T12:52:16.001Z</time></trkpt><trkpt lat="42.51301653034557" lon="14.13541731853672"><ele>3.0</ele><time>2026-05-03T12:52:17.001Z</time></trkpt><trkpt lat="42.51310533977904" lon="14.135577354253492"><ele>3.0</ele><time>2026-05-03T12:52:18.001Z</time></trkpt><trkpt lat="42.51318625221722" lon="14.13575544676771"><ele>3.0</ele><time>2026-05-03T12:52:19.001Z</time></trkpt><trkpt lat="42.51326324687744" lon="14.13595339921794"><ele>3.0</ele><time>2026-05-03T12:52:20.001Z</time></trkpt><trkpt lat="42.51332380477677" lon="14.136168982848488"><ele>3.0</ele><time>2026-05-03T12:52:21.001Z</time></trkpt><trkpt lat="42.513365597534694" lon="14.136386685553644"><ele>3.0</ele><time>2026-05-03T12:52:22.001Z</time></trkpt><trkpt lat="42.51340778694443" lon="14.136593887829603"><ele>3.25</ele><time>2026-05-03T12:52:23.001Z</time></trkpt><trkpt lat="42.51345599007795" lon="14.136781857679411"><ele>3.5</ele><time>2026-05-03T12:52:24.001Z</time></trkpt><trkpt lat="42.513509203707684" lon="14.136951799457167"><ele>3.75</ele><time>2026-05-03T12:52:25.001Z</time></trkpt><trkpt lat="42.51356645641212" lon="14.137097521091476"><ele>4.0</ele><time>2026-05-03T12:52:26.001Z</time></trkpt><trkpt lat="42.51361882743565" lon="14.13722954431866"><ele>4.0</ele><time>2026-05-03T12:52:27.001Z</time></trkpt><trkpt lat="42.51366367493566" lon="14.137350466215773"><ele>4.0</ele><time>2026-05-03T12:52:28.001Z</time></trkpt><trkpt lat="42.51370177789902" lon="14.137460482521547"><ele>4.0</ele><time>2026-05-03T12:52:29.001Z</time></trkpt><trkpt lat="42.5137317506963" lon="14.137570840971774"><ele>4.0</ele><time>2026-05-03T12:52:30.001Z</time></trkpt><trkpt lat="42.51378816110958" lon="14.13768185512187"><ele>4.0</ele><time>2026-05-03T12:52:31.001Z</time></trkpt><trkpt lat="42.51376377020792" lon="14.137867750278016"><ele>4.333333333333333</ele><time>2026-05-03T12:52:32.001Z</time></trkpt><trkpt lat="42.51366135440503" lon="14.138032178785162"><ele>4.666666666666667</ele><time>2026-05-03T12:52:33.001Z</time></trkpt><trkpt lat="42.513578272021086" lon="14.13818936619051"><ele>5.0</ele><time>2026-05-03T12:52:34.001Z</time></trkpt><trkpt lat="42.513501133857865" lon="14.138369712385595"><ele>5.0</ele><time>2026-05-03T12:52:35.001Z</time></trkpt><trkpt lat="42.51342802051292" lon="14.138544778822205"><ele>5.0</ele><time>2026-05-03T12:52:36.001Z</time></trkpt><trkpt lat="42.51336354539446" lon="14.138716686481747"><ele>5.0</ele><time>2026-05-03T12:52:37.001Z</time></trkpt><trkpt lat="42.51330186872977" lon="14.138878772290743"><ele>5.0</ele><time>2026-05-03T12:52:38.001Z</time></trkpt><trkpt lat="42.51323993824537" lon="14.139045659264387"><ele>5.5</ele><time>2026-05-03T12:52:39.001Z</time></trkpt><trkpt lat="42.51317224695151" lon="14.13921623452141"><ele>6.0</ele><time>2026-05-03T12:52:40.001Z</time></trkpt><trkpt lat="42.513105938315874" lon="14.139388098395903"><ele>6.5</ele><time>2026-05-03T12:52:41.001Z</time></trkpt><trkpt lat="42.51303430791064" lon="14.139565683824495"><ele>7.0</ele><time>2026-05-03T12:52:42.001Z</time></trkpt><trkpt lat="42.51296545282784" lon="14.13974704970364"><ele>6.75</ele><time>2026-05-03T12:52:43.001Z</time></trkpt><trkpt lat="42.51289797188154" lon="14.139935361559996"><ele>6.5</ele><time>2026-05-03T12:52:44.001Z</time></trkpt><trkpt lat="42.51283401069541" lon="14.14011501506104"><ele>6.25</ele><time>2026-05-03T12:52:45.001Z</time></trkpt><trkpt lat="42.51277559685063" lon="14.140283339514196"><ele>6.0</ele><time>2026-05-03T12:52:46.001Z</time></trkpt><trkpt lat="42.512715301081904" lon="14.140447122583772"><ele>6.0</ele><time>2026-05-03T12:52:47.001Z</time></trkpt><trkpt lat="42.51264984124301" lon="14.140616360138345"><ele>6.0</ele><time>2026-05-03T12:52:48.001Z</time></trkpt><trkpt lat="42.512581335393186" lon="14.140778432831537"><ele>6.0</ele><time>2026-05-03T12:52:49.001Z</time></trkpt><trkpt lat="42.512520416343015" lon="14.140935474706938"><ele>6.0</ele><time>2026-05-03T12:52:50.001Z</time></trkpt><trkpt lat="42.51246592841866" lon="14.141070608914722"><ele>6.166666666666667</ele><time>2026-05-03T12:52:51.001Z</time></trkpt><trkpt lat="42.51242481344252" lon="14.141192085798549"><ele>6.333333333333334</ele><time>2026-05-03T12:52:52.001Z</time></trkpt><trkpt lat="42.512401487227855" lon="14.141303148422967"><ele>6.5</ele><time>2026-05-03T12:52:53.001Z</time></trkpt><trkpt lat="42.51241083698116" lon="14.141410621592325"><ele>6.666666666666667</ele><time>2026-05-03T12:52:54.001Z</time></trkpt><trkpt lat="42.51247564646731" lon="14.141497863371907"><ele>6.833333333333334</ele><time>2026-05-03T12:52:55.001Z</time></trkpt><trkpt lat="42.512558690041516" lon="14.141558758170795"><ele>7.0</ele><time>2026-05-03T12:52:56.001Z</time></trkpt><trkpt lat="42.51267550864519" lon="14.141519442679938"><ele>7.25</ele><time>2026-05-03T12:52:57.001Z</time></trkpt><trkpt lat="42.51281262398814" lon="14.141490802532513"><ele>7.5</ele><time>2026-05-03T12:52:58.001Z</time></trkpt><trkpt lat="42.512936848529655" lon="14.141452252759864"><ele>7.75</ele><time>2026-05-03T12:52:59.001Z</time></trkpt><trkpt lat="42.51305664167095" lon="14.141392404226577"><ele>8.0</ele><time>2026-05-03T12:53:00.001Z</time></trkpt><trkpt lat="42.51320908243696" lon="14.141445670863474"><ele>7.5</ele><time>2026-05-03T12:53:01.001Z</time></trkpt><trkpt lat="42.5133514772345" lon="14.141474790276632"><ele>7.0</ele><time>2026-05-03T12:53:02.001Z</time></trkpt><trkpt lat="42.51349542189238" lon="14.14154033548195"><ele>6.5</ele><time>2026-05-03T12:53:03.001Z</time></trkpt><trkpt lat="42.51361963875432" lon="14.141614454208991"><ele>6.0</ele><time>2026-05-03T12:53:04.001Z</time></trkpt><trkpt lat="42.513726530488825" lon="14.141699271969598"><ele>5.5</ele><time>2026-05-03T12:53:05.001Z</time></trkpt><trkpt lat="42.513819725722094" lon="14.141770006082567"><ele>5.0</ele><time>2026-05-03T12:53:06.001Z</time></trkpt><trkpt lat="42.513890426538694" lon="14.14182152325747"><ele>4.5</ele><time>2026-05-03T12:53:07.001Z</time></trkpt><trkpt lat="42.513949898025885" lon="14.141865058736263"><ele>4.0</ele><time>2026-05-03T12:53:08.001Z</time></trkpt><trkpt lat="42.514011418244635" lon="14.14190874139606"><ele>3.5</ele><time>2026-05-03T12:53:09.001Z</time></trkpt><trkpt lat="42.51406753668326" lon="14.141952823627971"><ele>3.0</ele><time>2026-05-03T12:53:10.001Z</time></trkpt><trkpt lat="42.51417081622788" lon="14.142042975749098"><ele>2.9999999999999996</ele><time>2026-05-03T12:53:12Z</time></trkpt><trkpt lat="42.51421316823628" lon="14.142117551862105"><ele>3.0</ele><time>2026-05-03T12:53:13Z</time></trkpt><trkpt lat="42.514239077334366" lon="14.14220729787454"><ele>3.0</ele><time>2026-05-03T12:53:13.999Z</time></trkpt><trkpt lat="42.5142807983454" lon="14.142282556106268"><ele>3.0</ele><time>2026-05-03T12:53:14.999Z</time></trkpt><trkpt lat="42.51428722596845" lon="14.142389200701839"><ele>3.0</ele><time>2026-05-03T12:53:15.999Z</time></trkpt><trkpt lat="42.51433270248403" lon="14.142455506885575"><ele>2.9999999999999996</ele><time>2026-05-03T12:53:16.999Z</time></trkpt><trkpt lat="42.51439389179521" lon="14.142493378896967"><ele>3.0</ele><time>2026-05-03T12:53:17.999Z</time></trkpt><trkpt lat="42.51446098828317" lon="14.142473690567959"><ele>2.8333333333333335</ele><time>2026-05-03T12:53:18.999Z</time></trkpt><trkpt lat="42.514532457071354" lon="14.142421091071506"><ele>2.6666666666666665</ele><time>2026-05-03T12:53:19.999Z</time></trkpt><trkpt lat="42.514614101572825" lon="14.142389202738565"><ele>2.5</ele><time>2026-05-03T12:53:20.999Z</time></trkpt><trkpt lat="42.514691192954274" lon="14.142392590791205"><ele>2.333333333333333</ele><time>2026-05-03T12:53:21.999Z</time></trkpt><trkpt lat="42.514767458861144" lon="14.142389275429244"><ele>2.1666666666666665</ele><time>2026-05-03T12:53:22.999Z</time></trkpt><trkpt lat="42.51483374234511" lon="14.142375379415263"><ele>2.0</ele><time>2026-05-03T12:53:23.999Z</time></trkpt><trkpt lat="42.51486259382556" lon="14.142288811283823"><ele>2.0</ele><time>2026-05-03T12:53:24.999Z</time></trkpt><trkpt lat="42.514790187034265" lon="14.142440448082416"><ele>2.0</ele><time>2026-05-03T12:53:25.999Z</time></trkpt><trkpt lat="42.5149576402859" lon="14.142212452332402"><ele>2.0</ele><time>2026-05-03T12:53:26.999Z</time></trkpt><trkpt lat="42.5146847330862" lon="14.142133835384268"><ele>1.8</ele><time>2026-05-03T12:53:28.999Z</time></trkpt><trkpt lat="42.51467477399322" lon="14.141909974717112"><ele>1.6</ele><time>2026-05-03T12:53:29.999Z</time></trkpt><trkpt lat="42.514613337661615" lon="14.141855410816476"><ele>1.4000000000000001</ele><time>2026-05-03T12:53:30.999Z</time></trkpt><trkpt lat="42.5145471759907" lon="14.141814579866013"><ele>1.2000000000000002</ele><time>2026-05-03T12:53:31.999Z</time></trkpt><trkpt lat="42.51448315257162" lon="14.141769937546258"><ele>1.0</ele><time>2026-05-03T12:53:32.999Z</time></trkpt><trkpt lat="42.51445946181406" lon="14.141662742005332"><ele>1.4</ele><time>2026-05-03T12:53:34Z</time></trkpt><trkpt lat="42.51439957361851" lon="14.141622576330994"><ele>1.8</ele><time>2026-05-03T12:53:36Z</time></trkpt><trkpt lat="42.51439094833353" lon="14.141348370809494"><ele>2.1999999999999997</ele><time>2026-05-03T12:53:38Z</time></trkpt><trkpt lat="42.51435970904936" lon="14.141265202800282"><ele>2.6</ele><time>2026-05-03T12:53:40Z</time></trkpt><trkpt lat="42.51440551894943" lon="14.141164002454124"><ele>3.0</ele><time>2026-05-03T12:53:44Z</time></trkpt><trkpt lat="42.5144470898331" lon="14.141097492274763"><ele>3.0</ele><time>2026-05-03T13:23:11Z</time></trkpt><trkpt lat="42.514481793453676" lon="14.140997433347037"><ele>3.0</ele><time>2026-05-03T13:24:48Z</time></trkpt><trkpt lat="42.5144126487664" lon="14.140943860010797"><ele>3.0</ele><time>2026-05-03T13:24:51Z</time></trkpt><trkpt lat="42.51438274448873" lon="14.141040704378874"><ele>3.0</ele><time>2026-05-03T13:24:54Z</time></trkpt><trkpt lat="42.514341871940964" lon="14.141150965808466"><ele>3.0</ele><time>2026-05-03T13:24:56Z</time></trkpt><trkpt lat="42.514371583727886" lon="14.141228553908544"><ele>3.0</ele><time>2026-05-03T13:24:59Z</time></trkpt><trkpt lat="42.51442771867695" lon="14.141275342342555"><ele>2.9999999999999996</ele><time>2026-05-03T13:25:03Z</time></trkpt><trkpt lat="42.51440092007176" lon="14.141370560658094"><ele>3.0</ele><time>2026-05-03T13:25:09Z</time></trkpt><trkpt lat="42.5143610157421" lon="14.14144879689374"><ele>3.0</ele><time>2026-05-03T13:25:12Z</time></trkpt><trkpt lat="42.514320248945864" lon="14.14153783683599"><ele>3.0</ele><time>2026-05-03T13:25:14Z</time></trkpt><trkpt lat="42.51432367300761" lon="14.141624929264683"><ele>3.0</ele><time>2026-05-03T13:25:17Z</time></trkpt><trkpt lat="42.51438594920806" lon="14.141687724924381"><ele>2.9999999999999996</ele><time>2026-05-03T13:25:19Z</time></trkpt><trkpt lat="42.51444920558581" lon="14.141732816494908"><ele>3.0</ele><time>2026-05-03T13:25:20Z</time></trkpt><trkpt lat="42.51450186378835" lon="14.141785384561926"><ele>2.6</ele><time>2026-05-03T13:25:21Z</time></trkpt><trkpt lat="42.51461454441608" lon="14.141863196557077"><ele>2.1999999999999997</ele><time>2026-05-03T13:25:23Z</time></trkpt><trkpt lat="42.51469373506591" lon="14.141985770270106"><ele>1.8</ele><time>2026-05-03T13:25:25Z</time></trkpt><trkpt lat="42.514718290034565" lon="14.142097671461633"><ele>1.4</ele><time>2026-05-03T13:25:26Z</time></trkpt><trkpt lat="42.51474867518265" lon="14.142192979174542"><ele>1.0</ele><time>2026-05-03T13:25:27Z</time></trkpt><trkpt lat="42.51477600544395" lon="14.142280300760936"><ele>1.0</ele><time>2026-05-03T13:25:28Z</time></trkpt><trkpt lat="42.51482864016057" lon="14.14238131789687"><ele>1.0</ele><time>2026-05-03T13:25:30Z</time></trkpt><trkpt lat="42.51486978884493" lon="14.142454447345585"><ele>1.0</ele><time>2026-05-03T13:25:32Z</time></trkpt><trkpt lat="42.51497454057867" lon="14.14259710710002"><ele>1.0</ele><time>2026-05-03T13:25:34Z</time></trkpt><trkpt lat="42.51505233593935" lon="14.142671381378587"><ele>1.0</ele><time>2026-05-03T13:25:35Z</time></trkpt><trkpt lat="42.51513834063043" lon="14.142744068935773"><ele>1.25</ele><time>2026-05-03T13:25:36Z</time></trkpt><trkpt lat="42.51523831889682" lon="14.142816713142608"><ele>1.5</ele><time>2026-05-03T13:25:37Z</time></trkpt><trkpt lat="42.51534610707545" lon="14.142894309635118"><ele>1.75</ele><time>2026-05-03T13:25:38Z</time></trkpt><trkpt lat="42.5154452106403" lon="14.142963030887502"><ele>2.0</ele><time>2026-05-03T13:25:39Z</time></trkpt><trkpt lat="42.51554425143843" lon="14.143033119478764"><ele>2.2</ele><time>2026-05-03T13:25:40Z</time></trkpt><trkpt lat="42.515639033198866" lon="14.143100166535215"><ele>2.4000000000000004</ele><time>2026-05-03T13:25:41Z</time></trkpt><trkpt lat="42.51572240475276" lon="14.143159428729621"><ele>2.5999999999999996</ele><time>2026-05-03T13:25:42Z</time></trkpt><trkpt lat="42.51581452543532" lon="14.143216729093298"><ele>2.8</ele><time>2026-05-03T13:25:43Z</time></trkpt><trkpt lat="42.51591449822513" lon="14.143289352638355"><ele>3.0</ele><time>2026-05-03T13:25:44Z</time></trkpt><trkpt lat="42.51601497981821" lon="14.143360545322853"><ele>3.2</ele><time>2026-05-03T13:25:45Z</time></trkpt><trkpt lat="42.516111445480846" lon="14.143428273134969"><ele>3.4</ele><time>2026-05-03T13:25:46Z</time></trkpt><trkpt lat="42.51620974180656" lon="14.143500082157974"><ele>3.6000000000000005</ele><time>2026-05-03T13:25:47Z</time></trkpt><trkpt lat="42.51629929120324" lon="14.143567051222838"><ele>3.8000000000000003</ele><time>2026-05-03T13:25:48Z</time></trkpt><trkpt lat="42.516393521315734" lon="14.143635142868957"><ele>4.0</ele><time>2026-05-03T13:25:49Z</time></trkpt><trkpt lat="42.51649297091256" lon="14.143704908237291"><ele>4.5</ele><time>2026-05-03T13:25:50Z</time></trkpt><trkpt lat="42.51659280055083" lon="14.143782779059357"><ele>5.0</ele><time>2026-05-03T13:25:51Z</time></trkpt><trkpt lat="42.516703628666534" lon="14.143865646266429"><ele>5.5</ele><time>2026-05-03T13:25:52Z</time></trkpt><trkpt lat="42.51681927644064" lon="14.143951593633442"><ele>6.0</ele><time>2026-05-03T13:25:53Z</time></trkpt><trkpt lat="42.51693990852315" lon="14.144043102357118"><ele>5.5</ele><time>2026-05-03T13:25:54Z</time></trkpt><trkpt lat="42.51706612760318" lon="14.144132921896666"><ele>5.0</ele><time>2026-05-03T13:25:55Z</time></trkpt><trkpt lat="42.51718054767936" lon="14.144216643340787"><ele>4.5</ele><time>2026-05-03T13:25:56Z</time></trkpt><trkpt lat="42.5172885499174" lon="14.144293815175535"><ele>4.0</ele><time>2026-05-03T13:25:57Z</time></trkpt><trkpt lat="42.517404490128186" lon="14.144377163254845"><ele>3.75</ele><time>2026-05-03T13:25:58Z</time></trkpt><trkpt lat="42.51753039242295" lon="14.144466137167596"><ele>3.5</ele><time>2026-05-03T13:25:59Z</time></trkpt><trkpt lat="42.517658388333174" lon="14.144555808562032"><ele>3.25</ele><time>2026-05-03T13:26:00Z</time></trkpt><trkpt lat="42.517793445847985" lon="14.144653050072403"><ele>3.0</ele><time>2026-05-03T13:26:01Z</time></trkpt><trkpt lat="42.5179329589918" lon="14.14475553965138"><ele>3.0</ele><time>2026-05-03T13:26:02Z</time></trkpt><trkpt lat="42.51807799264836" lon="14.144863919876899"><ele>3.0</ele><time>2026-05-03T13:26:03Z</time></trkpt><trkpt lat="42.51822553920975" lon="14.144970056680636"><ele>3.0</ele><time>2026-05-03T13:26:04Z</time></trkpt><trkpt lat="42.5183607728732" lon="14.14506809651221"><ele>3.0</ele><time>2026-05-03T13:26:05Z</time></trkpt><trkpt lat="42.51848818075577" lon="14.14516069840107"><ele>3.0</ele><time>2026-05-03T13:26:06Z</time></trkpt><trkpt lat="42.518608136038274" lon="14.14524791650327"><ele>3.0</ele><time>2026-05-03T13:26:07Z</time></trkpt><trkpt lat="42.51872325130549" lon="14.1453276366783"><ele>3.0</ele><time>2026-05-03T13:26:08Z</time></trkpt><trkpt lat="42.5188352119555" lon="14.145409060522002"><ele>3.0</ele><time>2026-05-03T13:26:09Z</time></trkpt><trkpt lat="42.51895101924642" lon="14.14548911771976"><ele>3.0</ele><time>2026-05-03T13:26:10Z</time></trkpt><trkpt lat="42.51906068249271" lon="14.145560915775903"><ele>3.0</ele><time>2026-05-03T13:26:11Z</time></trkpt><trkpt lat="42.51916639864438" lon="14.145635218202134"><ele>3.0</ele><time>2026-05-03T13:26:12Z</time></trkpt><trkpt lat="42.51926228141062" lon="14.145699472004882"><ele>3.0</ele><time>2026-05-03T13:26:13Z</time></trkpt><trkpt lat="42.51934278587926" lon="14.145757545691795"><ele>3.0</ele><time>2026-05-03T13:26:14Z</time></trkpt><trkpt lat="42.51940896241876" lon="14.145811126919035"><ele>3.0</ele><time>2026-05-03T13:26:15Z</time></trkpt><trkpt lat="42.51948290042714" lon="14.14589934077066"><ele>3.0</ele><time>2026-05-03T13:26:17Z</time></trkpt><trkpt lat="42.519543479206526" lon="14.145981895511346"><ele>3.0</ele><time>2026-05-03T13:26:19Z</time></trkpt><trkpt lat="42.519566881038216" lon="14.146085286094044"><ele>3.0</ele><time>2026-05-03T13:26:21Z</time></trkpt><trkpt lat="42.5196030206516" lon="14.146163043741026"><ele>3.0</ele><time>2026-05-03T13:26:23Z</time></trkpt><trkpt lat="42.519467208700476" lon="14.146295393505003"><ele>3.0</ele><time>2026-05-03T13:26:24Z</time></trkpt><trkpt lat="42.51940330848484" lon="14.146387092523641"><ele>3.0</ele><time>2026-05-03T13:26:25Z</time></trkpt><trkpt lat="42.519343312828326" lon="14.14647402170163"><ele>3.0</ele><time>2026-05-03T13:26:26Z</time></trkpt><trkpt lat="42.519285753052635" lon="14.146551679568153"><ele>3.0</ele><time>2026-05-03T13:26:27Z</time></trkpt><trkpt lat="42.51922253623086" lon="14.14663136126817"><ele>3.0</ele><time>2026-05-03T13:26:28Z</time></trkpt><trkpt lat="42.519165874061486" lon="14.146696878378325"><ele>3.0</ele><time>2026-05-03T13:26:29Z</time></trkpt><trkpt lat="42.519115384528995" lon="14.14675758265369"><ele>3.0</ele><time>2026-05-03T13:26:30Z</time></trkpt><trkpt lat="42.519031585571675" lon="14.146853697909734"><ele>3.0</ele><time>2026-05-03T13:26:32Z</time></trkpt><trkpt lat="42.51905209934822" lon="14.146969803288549"><ele>3.0</ele><time>2026-05-03T13:26:33Z</time></trkpt><trkpt lat="42.519091777832145" lon="14.147130368473947"><ele>3.0</ele><time>2026-05-03T13:26:35Z</time></trkpt><trkpt lat="42.51914469842372" lon="14.147195254738685"><ele>3.0</ele><time>2026-05-03T13:26:36Z</time></trkpt><trkpt lat="42.519214153583974" lon="14.14724068715063"><ele>3.0</ele><time>2026-05-03T13:26:37Z</time></trkpt><trkpt lat="42.51930242457163" lon="14.147270760797646"><ele>3.0</ele><time>2026-05-03T13:26:38Z</time></trkpt><trkpt lat="42.519387378496" lon="14.147307943501115"><ele>3.0</ele><time>2026-05-03T13:26:39Z</time></trkpt><trkpt lat="42.51949004061585" lon="14.147338425285456"><ele>3.0</ele><time>2026-05-03T13:26:40Z</time></trkpt><trkpt lat="42.51956103240791" lon="14.147325689489463"><ele>2.3333333333333335</ele><time>2026-05-03T13:26:41Z</time></trkpt><trkpt lat="42.5196288860945" lon="14.147352936261356"><ele>1.6666666666666665</ele><time>2026-05-03T13:26:42Z</time></trkpt><trkpt lat="42.51971135711502" lon="14.14737537224635"><ele>1.0</ele><time>2026-05-03T13:26:43Z</time></trkpt><trkpt lat="42.519782076058924" lon="14.147855904639366"><ele>0.75</ele><time>2026-05-03T13:26:43.999Z</time></trkpt><trkpt lat="42.51984644143776" lon="14.147968045148163"><ele>0.5</ele><time>2026-05-03T13:26:44.999Z</time></trkpt><trkpt lat="42.51991521724938" lon="14.148104076781328"><ele>0.25</ele><time>2026-05-03T13:26:45.999Z</time></trkpt><trkpt lat="42.51998614688452" lon="14.148252537081294"><ele>0.0</ele><time>2026-05-03T13:26:46.999Z</time></trkpt><trkpt lat="42.52004313763028" lon="14.14841738719487"><ele>0.5</ele><time>2026-05-03T13:26:47.999Z</time></trkpt><trkpt lat="42.52010194298578" lon="14.148585606706217"><ele>1.0</ele><time>2026-05-03T13:26:48.999Z</time></trkpt><trkpt lat="42.520159661790615" lon="14.148752228779477"><ele>1.5</ele><time>2026-05-03T13:26:49.999Z</time></trkpt><trkpt lat="42.520206316457454" lon="14.148903589791242"><ele>2.0</ele><time>2026-05-03T13:26:50.999Z</time></trkpt><trkpt lat="42.52025153809835" lon="14.149043445475268"><ele>2.0</ele><time>2026-05-03T13:26:51.999Z</time></trkpt><trkpt lat="42.52029746593362" lon="14.149176155715361"><ele>2.0</ele><time>2026-05-03T13:26:52.999Z</time></trkpt><trkpt lat="42.520354174171466" lon="14.149330731221868"><ele>2.0</ele><time>2026-05-03T13:26:53.999Z</time></trkpt><trkpt lat="42.520407156675695" lon="14.149485794231595"><ele>2.0</ele><time>2026-05-03T13:26:54.999Z</time></trkpt><trkpt lat="42.520455993781226" lon="14.149620548749601"><ele>2.0</ele><time>2026-05-03T13:26:55.999Z</time></trkpt><trkpt lat="42.52049559120901" lon="14.149762392151416"><ele>2.0</ele><time>2026-05-03T13:26:56.999Z</time></trkpt><trkpt lat="42.52054188496599" lon="14.149886473203187"><ele>2.0</ele><time>2026-05-03T13:26:57.999Z</time></trkpt><trkpt lat="42.52058601434918" lon="14.150002117164131"><ele>2.0</ele><time>2026-05-03T13:26:58.999Z</time></trkpt><trkpt lat="42.52062231892493" lon="14.150108582852894"><ele>2.0</ele><time>2026-05-03T13:26:59.999Z</time></trkpt><trkpt lat="42.520656965994895" lon="14.150215119649307"><ele>2.0</ele><time>2026-05-03T13:27:00.999Z</time></trkpt><trkpt lat="42.52069596404766" lon="14.150334350016466"><ele>2.0</ele><time>2026-05-03T13:27:01.999Z</time></trkpt><trkpt lat="42.52073800471577" lon="14.150471002330606"><ele>2.0</ele><time>2026-05-03T13:27:02.999Z</time></trkpt><trkpt lat="42.52078313437562" lon="14.150613793782414"><ele>2.0</ele><time>2026-05-03T13:27:03.999Z</time></trkpt><trkpt lat="42.5208297240304" lon="14.150735453471047"><ele>2.0</ele><time>2026-05-03T13:27:04.999Z</time></trkpt><trkpt lat="42.520876933881034" lon="14.150868691395459"><ele>2.0</ele><time>2026-05-03T13:27:05.999Z</time></trkpt><trkpt lat="42.520925792508294" lon="14.151002574685089"><ele>2.0</ele><time>2026-05-03T13:27:06.999Z</time></trkpt><trkpt lat="42.52097197127736" lon="14.151119645845798"><ele>2.0</ele><time>2026-05-03T13:27:07.999Z</time></trkpt><trkpt lat="42.521021542623004" lon="14.151232623129095"><ele>2.0</ele><time>2026-05-03T13:27:08.999Z</time></trkpt><trkpt lat="42.52106558108706" lon="14.151352917548909"><ele>2.0</ele><time>2026-05-03T13:27:09.999Z</time></trkpt><trkpt lat="42.52109926994092" lon="14.151470076140468"><ele>2.0</ele><time>2026-05-03T13:27:10.999Z</time></trkpt><trkpt lat="42.52113603392168" lon="14.15157390097682"><ele>2.0</ele><time>2026-05-03T13:27:11.999Z</time></trkpt><trkpt lat="42.521166732714896" lon="14.15166510102015"><ele>2.0</ele><time>2026-05-03T13:27:12.999Z</time></trkpt><trkpt lat="42.52122350420679" lon="14.151751873782283"><ele>2.0</ele><time>2026-05-03T13:27:14.999Z</time></trkpt></trkseg></trk></gpx>